Takano, Matsumi (2013): Radiosonde measurements from station Minamitorishima (2013-09) [dataset]. Japan Meteorological Agency, Tokyo, PANGAEA, https://doi.org/10.1594/PANGAEA.824651
Always quote citation above when using data! You can download the citation in several formats below.
Published: 2013-12-16 • DOI registered: 2014-02-09
Other version:
Takano, Matsumi (2013): BSRN Station-to-archive file for station Minamitorishima (2013-09). ftp://ftp.bsrn.awi.de/mnm/mnm0913.dat.gz
Project(s):
Coverage:
Latitude: 24.288300 * Longitude: 153.983300
Date/Time Start: 2013-09-01T00:00:00 * Date/Time End: 2013-09-30T23:59:00
Minimum ALTITUDE: 9 m * Maximum ALTITUDE: 33820 m
Event(s):
MNM (Minamitorishima) * Latitude: 24.288300 * Longitude: 153.983300 * Date/Time: 2010-04-01T00:00:00 * Elevation: 7.1 m * Station info: https://hdl.handle.net/10013/epic.44630.d003, update 2022: Minamitorishima.pdf * Location: Minami-Torishima * Method/Device: Monitoring station (MONS) * Comment: BSRN station no: 8; Surface type: water (ocean); Topography type: flat, rural; Horizon: doi:10.1594/PANGAEA.743879; Station scientist: SASAKI Shun (rrc-jma@met.kishou.go.jp)
Parameter(s):
| # | Name | Short Name | Unit | Principal Investigator | Method/Device | Comment |
|---|---|---|---|---|---|---|
| 1 | DATE/TIME | Date/Time | Geocode | |||
| 2 | ALTITUDE | Altitude | m | Geocode | ||
| 3 | Pressure, at given altitude | PPPP | hPa | Takano, Matsumi | Radiosonde (RADIO) | |
| 4 | Temperature, air | TTT | °C | Takano, Matsumi | Thermometer | |
| 5 | Dew/frost point | TdTdTd | °C | Takano, Matsumi | Hygrometer (HYGRO) | |
| 6 | Wind direction | dd | deg | Takano, Matsumi | Anemometer | |
| 7 | Wind speed | ff | m/s | Takano, Matsumi | Anemometer |
License:
Size:
30615 data points
Data
| 1 Date/Time | 2 Altitude [m] | 3 PPPP [hPa] | 4 TTT [°C] | 5 TdTdTd [°C] | 6 dd [deg] | 7 ff [m/s] |
|---|---|---|---|---|---|---|
| 2013-09-01T00:00 | 10259 | 278 | -35.7 | -42.2 | ||
| 2013-09-01T00:00 | 10276 | 278 | 66 | 23.0 | ||
| 2013-09-01T00:01 | 10564 | 266 | -37.9 | -45.3 | ||
| 2013-09-01T00:01 | 10658 | 263 | 70 | 24.0 | ||
| 2013-09-01T00:01 | 10766 | 259 | -37.7 | -54.3 | ||
| 2013-09-01T00:02 | 11006 | 250 | -40.0 | -58.5 | ||
| 2013-09-01T00:02 | 11039 | 249 | 78 | 24.0 | ||
| 2013-09-01T00:03 | 11440 | 234 | 76 | 24.0 | ||
| 2013-09-01T00:04 | 11822 | 221 | 78 | 27.0 | ||
| 2013-09-01T00:05 | 12158 | 210 | -50.6 | |||
| 2013-09-01T00:05 | 12195 | 209 | 79 | 30.0 | ||
| 2013-09-01T00:06 | 12587 | 197 | 79 | 29.0 | ||
| 2013-09-01T00:06 | 12623 | 196 | -54.2 | |||
| 2013-09-01T00:07 | 12971 | 185 | 84 | 28.0 | ||
| 2013-09-01T00:08 | 13338 | 175 | -59.8 | 77 | 27.0 | |
| 2013-09-01T00:09 | 13712 | 165 | 71 | 27.0 | ||
| 2013-09-01T00:10 | 14077 | 155 | 70 | 25.0 | ||
| 2013-09-01T00:10 | 14140 | 153 | -64.9 | |||
| 2013-09-01T00:11 | 14453 | 146 | 68 | 27.0 | ||
| 2013-09-01T00:12 | 14863 | 136 | 76 | 27.0 | ||
| 2013-09-01T00:13 | 15302 | 126 | 83 | 24.0 | ||
| 2013-09-01T00:14 | 15712 | 118 | 72 | 21.0 | ||
| 2013-09-01T00:14 | 15882 | 115 | -74.4 | |||
| 2013-09-01T00:15 | 16068 | 111 | -75.0 | |||
| 2013-09-01T00:15 | 16179 | 109 | 68 | 20.0 | ||
| 2013-09-01T00:15 | 16243 | 108 | -74.8 | |||
| 2013-09-01T00:16 | 16655 | 100 | 63 | 23.0 | ||
| 2013-09-01T00:16 | 16807 | 98 | -76.4 | |||
| 2013-09-01T00:17 | 17105 | 93 | -75.3 | |||
| 2013-09-01T00:17 | 17149 | 92 | 86 | 20.0 | ||
| 2013-09-01T00:18 | 17414 | 88 | -73.8 | |||
| 2013-09-01T00:18 | 17603 | 85 | -72.1 | |||
| 2013-09-01T00:18 | 17624 | 85 | 90 | 17.0 | ||
| 2013-09-01T00:19 | 18058 | 79 | -70.8 | |||
| 2013-09-01T00:19 | 18081 | 79 | 86 | 15.0 | ||
| 2013-09-01T00:20 | 18440 | 74 | 83 | 17.0 | ||
| 2013-09-01T00:20 | 18538 | 73 | -68.4 | |||
| 2013-09-01T00:21 | 18808 | 70 | 83 | 16.0 | ||
| 2013-09-01T00:22 | 19055 | 67 | -67.5 | |||
| 2013-09-01T00:22 | 19173 | 65 | 88 | 20.0 | ||
| 2013-09-01T00:23 | 19475 | 62 | -67.5 | |||
| 2013-09-01T00:23 | 19514 | 62 | 86 | 17.0 | ||
| 2013-09-01T00:24 | 19876 | 58 | 95 | 18.0 | ||
| 2013-09-01T00:25 | 20152 | 56 | -66.4 | |||
| 2013-09-01T00:25 | 20251 | 55 | 92 | 15.0 | ||
| 2013-09-01T00:26 | 20605 | 52 | 82 | 19.0 | ||
| 2013-09-01T00:26 | 20749 | 50 | -65.1 | |||
| 2013-09-01T00:27 | 20972 | 49 | 91 | 20.0 | ||
| 2013-09-01T00:27 | 20997 | 48 | -62.6 | |||
| 2013-09-01T00:28 | 21351 | 46 | 98 | 22.0 | ||
| 2013-09-01T00:29 | 21742 | 43 | 97 | 18.0 | ||
| 2013-09-01T00:29 | 21756 | 43 | -61.6 | |||
| 2013-09-01T00:30 | 22131 | 40 | 106 | 19.0 | ||
| 2013-09-01T00:31 | 22353 | 39 | -57.7 | |||
| 2013-09-01T00:31 | 22501 | 38 | 92 | 20.0 | ||
| 2013-09-01T00:32 | 22895 | 36 | 94 | 21.0 | ||
| 2013-09-01T00:33 | 23296 | 34 | 93 | 23.0 | ||
| 2013-09-01T00:34 | 23566 | 32 | -57.3 | |||
| 2013-09-01T00:34 | 23685 | 32 | 104 | 25.0 | ||
| 2013-09-01T00:35 | 24080 | 30 | 113 | 21.0 | ||
| 2013-09-01T00:36 | 24457 | 28 | 118 | 22.0 | ||
| 2013-09-01T00:36 | 24526 | 28 | -54.9 | |||
| 2013-09-01T00:37 | 24883 | 26 | 115 | 22.0 | ||
| 2013-09-01T00:38 | 25315 | 24 | 105 | 21.0 | ||
| 2013-09-01T00:38 | 25394 | 24 | -54.1 | |||
| 2013-09-01T00:39 | 25722 | 23 | 89 | 21.0 | ||
| 2013-09-01T00:40 | 26161 | 21 | 91 | 21.0 | ||
| 2013-09-01T00:40 | 26191 | 21 | -51.2 | |||
| 2013-09-01T00:41 | 26601 | 20 | 84 | 21.0 | ||
| 2013-09-01T00:42 | 27005 | 19 | -49.4 | 95 | 23.0 | |
| 2013-09-01T00:43 | 27437 | 18 | 87 | 20.0 | ||
| 2013-09-01T00:44 | 27859 | 17 | 77 | 30.0 | ||
| 2013-09-01T00:45 | 28311 | 15 | -49.9 | |||
| 2013-09-01T00:45 | 28354 | 15 | 90 | 30.0 | ||
| 2013-09-01T00:46 | 28844 | 14 | 89 | 28.0 | ||
| 2013-09-01T00:47 | 29278 | 13 | 91 | 33.0 | ||
| 2013-09-01T00:48 | 29748 | 12 | 98 | 32.0 | ||
| 2013-09-01T00:48 | 29912 | 12 | -42.6 | |||
| 2013-09-01T00:49 | 30197 | 12 | 118 | 30.0 | ||
| 2013-09-01T00:49 | 30256 | 12 | -41.7 | |||
| 2013-09-01T00:50 | 30682 | 11 | 103 | 31.0 | ||
| 2013-09-01T00:50 | 30809 | 11 | -41.0 | |||
| 2013-09-01T00:51 | 31071 | 10 | 111 | 23.0 | ||
| 2013-09-01T00:51 | 31207 | 10 | -39.0 | |||
| 2013-09-01T00:52 | 31559 | 10 | 85 | 19.0 | ||
| 2013-09-01T00:53 | 32009 | 9 | -37.4 | 90 | 21.0 | |
| 2013-09-01T11:30 | 9 | 1010 | 28.3 | 25.9 | 60 | 5.0 |
| 2013-09-01T11:30 | 71 | 1003 | 27.9 | 24.5 | ||
| 2013-09-01T11:31 | 325 | 974 | 78 | 7.0 | ||
| 2013-09-01T11:31 | 366 | 970 | 25.3 | 23.4 | ||
| 2013-09-01T11:32 | 621 | 942 | 87 | 8.0 | ||
| 2013-09-01T11:33 | 786 | 924 | 22.3 | 20.8 | ||
| 2013-09-01T11:33 | 926 | 910 | 100 | 7.0 | ||
| 2013-09-01T11:33 | 1000 | 902 | 22.3 | 18.5 | ||
| 2013-09-01T11:34 | 1262 | 875 | 20.2 | 16.4 | ||
| 2013-09-01T11:34 | 1267 | 875 | 86 | 7.0 | ||
| 2013-09-01T11:34 | 1390 | 862 | 19.6 | 15.1 | ||
| 2013-09-01T11:35 | 1435 | 858 | 19.4 | 16.6 | ||
| 2013-09-01T11:35 | 1586 | 843 | 18.7 | 16.3 | ||
| 2013-09-01T11:35 | 1603 | 841 | 95 | 8.0 | ||
| 2013-09-01T11:35 | 1671 | 835 | 18.9 | 14.0 | ||
| 2013-09-01T11:35 | 1759 | 826 | 18.3 | 13.8 | ||
| 2013-09-01T11:36 | 1831 | 819 | 17.9 | 14.0 | ||
| 2013-09-01T11:36 | 1859 | 817 | 17.7 | 15.0 | ||
| 2013-09-01T11:36 | 1865 | 816 | 17.6 | 14.7 | ||
| 2013-09-01T11:36 | 1939 | 809 | 82 | 7.0 | ||
| 2013-09-01T11:36 | 1967 | 806 | 16.9 | 14.7 | ||
| 2013-09-01T11:36 | 2043 | 799 | 16.7 | 13.8 | ||
| 2013-09-01T11:36 | 2060 | 798 | 16.7 | 13.6 | ||
| 2013-09-01T11:37 | 2139 | 790 | 16.1 | 13.9 | ||
| 2013-09-01T11:37 | 2295 | 776 | 82 | 9.0 | ||
| 2013-09-01T11:38 | 2524 | 755 | 14.2 | 12.6 | ||
| 2013-09-01T11:38 | 2644 | 745 | 91 | 8.0 | ||
| 2013-09-01T11:38 | 2655 | 744 | 13.2 | 12.1 | ||
| 2013-09-01T11:38 | 2737 | 737 | 12.8 | 10.5 | ||
| 2013-09-01T11:38 | 2801 | 731 | 12.6 | 9.6 | ||
| 2013-09-01T11:39 | 2819 | 729 | 12.5 | 10.4 | ||
| 2013-09-01T11:39 | 3004 | 714 | 87 | 7.0 | ||
| 2013-09-01T11:39 | 3017 | 712 | 11.6 | 7.9 | ||
| 2013-09-01T11:39 | 3133 | 703 | 10.9 | 6.5 | ||
| 2013-09-01T11:39 | 3139 | 702 | 10.9 | 8.7 | ||
| 2013-09-01T11:40 | 3237 | 694 | 10.2 | 8.0 | ||
| 2013-09-01T11:40 | 3257 | 692 | 10.1 | 8.2 | ||
| 2013-09-01T11:40 | 3275 | 691 | 10.2 | 5.6 | ||
| 2013-09-01T11:40 | 3305 | 688 | 10.1 | 5.5 | ||
| 2013-09-01T11:40 | 3323 | 687 | 10.0 | 6.3 | ||
| 2013-09-01T11:40 | 3329 | 686 | 9.9 | 5.7 | ||
| 2013-09-01T11:40 | 3372 | 683 | 72 | 8.0 | ||
| 2013-09-01T11:40 | 3439 | 677 | 9.4 | 5.9 | ||
| 2013-09-01T11:40 | 3476 | 674 | 9.4 | 3.8 | ||
| 2013-09-01T11:40 | 3494 | 673 | 9.3 | 6.4 | ||
| 2013-09-01T11:40 | 3525 | 670 | 9.2 | 5.7 | ||
| 2013-09-01T11:40 | 3543 | 669 | 9.2 | 3.2 | ||
| 2013-09-01T11:41 | 3665 | 659 | 8.5 | 2.5 | ||
| 2013-09-01T11:41 | 3729 | 654 | 7.9 | 1.1 | ||
| 2013-09-01T11:41 | 3735 | 654 | 58 | 10.0 | ||
| 2013-09-01T11:41 | 3758 | 652 | 7.9 | -0.3 | ||
| 2013-09-01T11:41 | 3793 | 649 | 8.0 | -0.5 | ||
| 2013-09-01T11:41 | 3828 | 646 | 7.7 | 0.4 | ||
| 2013-09-01T11:41 | 3886 | 642 | 7.6 | -1.1 | ||
| 2013-09-01T11:42 | 4019 | 631 | 6.6 | -0.2 | ||
| 2013-09-01T11:42 | 4077 | 627 | 6.7 | -9.3 | ||
| 2013-09-01T11:42 | 4082 | 627 | 55 | 10.0 | ||
| 2013-09-01T11:42 | 4197 | 618 | 6.2 | -10.5 | ||
| 2013-09-01T11:42 | 4235 | 615 | 6.0 | -6.6 | ||
| 2013-09-01T11:43 | 4330 | 608 | 5.4 | -5.0 | ||
| 2013-09-01T11:43 | 4399 | 603 | 5.0 | -6.0 | ||
| 2013-09-01T11:43 | 4415 | 602 | 4.9 | -3.4 | ||
| 2013-09-01T11:43 | 4422 | 601 | 4.8 | -4.2 | 60 | 12.0 |
| 2013-09-01T11:43 | 4451 | 599 | 4.7 | -4.8 | ||
| 2013-09-01T11:43 | 4497 | 596 | 4.3 | -1.3 | ||
| 2013-09-01T11:43 | 4542 | 592 | 4.2 | -3.6 | ||
| 2013-09-01T11:44 | 4625 | 586 | 3.6 | -3.4 | ||
| 2013-09-01T11:44 | 4777 | 575 | 62 | 11.0 | ||
| 2013-09-01T11:44 | 4893 | 567 | 1.8 | -3.9 | ||
| 2013-09-01T11:45 | 5040 | 557 | 1.2 | -4.9 | ||
| 2013-09-01T11:45 | 5171 | 548 | 67 | 11.0 | ||
| 2013-09-01T11:45 | 5216 | 545 | 0.3 | -8.7 | ||
| 2013-09-01T11:46 | 5566 | 522 | 66 | 11.0 | ||
| 2013-09-01T11:46 | 5586 | 520 | -2.7 | -10.7 | ||
| 2013-09-01T11:46 | 5657 | 516 | -3.0 | -10.8 | ||
| 2013-09-01T11:46 | 5727 | 511 | -3.6 | -11.1 | ||
| 2013-09-01T11:47 | 5816 | 505 | -4.1 | -9.3 | ||
| 2013-09-01T11:47 | 5948 | 497 | 63 | 12.0 | ||
| 2013-09-01T11:48 | 6190 | 482 | -6.5 | -11.1 | ||
| 2013-09-01T11:48 | 6309 | 475 | 64 | 12.0 | ||
| 2013-09-01T11:49 | 6475 | 465 | -7.9 | -12.6 | ||
| 2013-09-01T11:49 | 6637 | 455 | 78 | 12.0 | ||
| 2013-09-01T11:50 | 6886 | 441 | -11.2 | -13.8 | ||
| 2013-09-01T11:50 | 6984 | 435 | 79 | 14.0 | ||
| 2013-09-01T11:51 | 7207 | 422 | -13.3 | -16.8 | ||
| 2013-09-01T11:51 | 7272 | 419 | -13.7 | -18.3 | ||
| 2013-09-01T11:51 | 7341 | 415 | 73 | 16.0 | ||
| 2013-09-01T11:51 | 7431 | 410 | -14.5 | -21.4 | ||
| 2013-09-01T11:52 | 7601 | 401 | -15.6 | -27.9 | ||
| 2013-09-01T11:52 | 7694 | 396 | 77 | 17.0 | ||
| 2013-09-01T11:52 | 7854 | 388 | -17.6 | -30.0 | ||
| 2013-09-01T11:53 | 8014 | 380 | -18.8 | -32.4 | ||
| 2013-09-01T11:53 | 8047 | 378 | 79 | 19.0 | ||
| 2013-09-01T11:53 | 8120 | 374 | -19.6 | -30.6 | ||
| 2013-09-01T11:53 | 8212 | 370 | -20.4 | -27.1 | ||
| 2013-09-01T11:54 | 8218 | 369 | -20.5 | -26.8 | ||
| 2013-09-01T11:54 | 8280 | 366 | -20.8 | -27.7 | ||
| 2013-09-01T11:54 | 8392 | 361 | 73 | 18.0 | ||
| 2013-09-01T11:54 | 8497 | 356 | -22.6 | -28.4 | ||
| 2013-09-01T11:55 | 8672 | 347 | -24.0 | -28.4 | ||
| 2013-09-01T11:55 | 8744 | 344 | 68 | 21.0 | ||
| 2013-09-01T11:56 | 8945 | 334 | -26.0 | -28.6 | ||
| 2013-09-01T11:56 | 9087 | 328 | 53 | 17.0 | ||
| 2013-09-01T11:56 | 9202 | 323 | -27.8 | -29.5 | ||
| 2013-09-01T11:57 | 9289 | 319 | -27.9 | -31.1 | ||
| 2013-09-01T11:57 | 9398 | 314 | -28.4 | -39.4 | ||
| 2013-09-01T11:57 | 9432 | 312 | 61 | 21.0 | ||
| 2013-09-01T11:57 | 9538 | 308 | -29.7 | -46.0 | ||
| 2013-09-01T11:58 | 9754 | 299 | -31.1 | -48.7 | ||
| 2013-09-01T11:58 | 9783 | 297 | 72 | 24.0 | ||
| 2013-09-01T11:59 | 10149 | 282 | 66 | 22.0 | ||
| 2013-09-01T11:59 | 10157 | 282 | -34.2 | -49.4 | ||
| 2013-09-01T12:00 | 10511 | 268 | 60 | 22.0 | ||
| 2013-09-01T12:00 | 10547 | 267 | -36.8 | -52.5 | ||
| 2013-09-01T12:01 | 10859 | 255 | 58 | 21.0 | ||
| 2013-09-01T12:01 | 10945 | 252 | -40.0 | -56.8 | ||
| 2013-09-01T12:02 | 11204 | 242 | 56 | 23.0 | ||
| 2013-09-01T12:03 | 11562 | 230 | 56 | 23.0 | ||
| 2013-09-01T12:04 | 11918 | 218 | 50 | 21.0 | ||
| 2013-09-01T12:04 | 11954 | 216 | -48.9 | |||
| 2013-09-01T12:05 | 12276 | 206 | 44 | 18.0 | ||
| 2013-09-01T12:06 | 12613 | 196 | -54.0 | |||
| 2013-09-01T12:06 | 12639 | 195 | 52 | 18.0 | ||
| 2013-09-01T12:07 | 12979 | 185 | 53 | 22.0 | ||
| 2013-09-01T12:08 | 13334 | 175 | 62 | 23.0 | ||
| 2013-09-01T12:09 | 13695 | 165 | -61.3 | |||
| 2013-09-01T12:09 | 13699 | 165 | 61 | 25.0 | ||
| 2013-09-01T12:10 | 14062 | 155 | 70 | 25.0 | ||
| 2013-09-01T12:11 | 14406 | 147 | 70 | 26.0 | ||
| 2013-09-01T12:12 | 14749 | 139 | 71 | 27.0 | ||
| 2013-09-01T12:13 | 14947 | 134 | -68.6 | |||
| 2013-09-01T12:13 | 15091 | 131 | 66 | 30.0 | ||
| 2013-09-01T12:14 | 15491 | 122 | -70.6 | |||
| 2013-09-01T12:14 | 15506 | 122 | 81 | 26.0 | ||
| 2013-09-01T12:15 | 15902 | 114 | 87 | 22.0 | ||
| 2013-09-01T12:15 | 16070 | 111 | -71.2 | |||
| 2013-09-01T12:16 | 16303 | 107 | 94 | 21.0 | ||
| 2013-09-01T12:16 | 16436 | 104 | -73.5 | |||
| 2013-09-01T12:17 | 16705 | 100 | 85 | 16.0 | ||
| 2013-09-01T12:17 | 16717 | 99 | -74.0 | |||
| 2013-09-01T12:18 | 16909 | 96 | -72.0 | |||
| 2013-09-01T12:18 | 17083 | 93 | 78 | 17.0 | ||
| 2013-09-01T12:19 | 17380 | 89 | -72.2 | |||
| 2013-09-01T12:19 | 17494 | 87 | 69 | 15.0 | ||
| 2013-09-01T12:20 | 17927 | 81 | 89 | 18.0 | ||
| 2013-09-01T12:21 | 18125 | 78 | -73.2 | |||
| 2013-09-01T12:21 | 18316 | 76 | 83 | 21.0 | ||
| 2013-09-01T12:22 | 18467 | 74 | -70.1 | |||
| 2013-09-01T23:30 | 9 | 1009 | 29.2 | 25.0 | 90 | 8.0 |
| 2013-09-01T23:31 | 368 | 970 | 102 | 8.0 | ||
| 2013-09-01T23:32 | 566 | 948 | 23.8 | 22.2 | ||
| 2013-09-01T23:32 | 717 | 932 | 23.3 | 20.1 | ||
| 2013-09-01T23:32 | 723 | 931 | 105 | 9.0 | ||
| 2013-09-01T23:33 | 911 | 911 | 22.5 | 17.9 | ||
| 2013-09-01T23:33 | 1085 | 893 | 110 | 9.0 | ||
| 2013-09-01T23:33 | 1181 | 884 | 21.1 | 15.4 | ||
| 2013-09-01T23:34 | 1350 | 866 | 107 | 10.0 | ||
| 2013-09-01T23:34 | 1451 | 856 | 105 | 10.0 | ||
| 2013-09-01T23:35 | 1728 | 829 | 17.1 | 14.9 | ||
| 2013-09-01T23:35 | 1824 | 820 | 93 | 10.0 | ||
| 2013-09-01T23:36 | 2195 | 785 | 86 | 10.0 | ||
| 2013-09-01T23:36 | 2220 | 783 | 14.4 | 13.6 | ||
| 2013-09-01T23:37 | 2571 | 751 | 87 | 9.0 | ||
| 2013-09-01T23:37 | 2590 | 749 | 12.9 | 10.4 | ||
| 2013-09-01T23:37 | 2659 | 743 | 12.7 | 10.4 | ||
| 2013-09-01T23:37 | 2708 | 739 | 12.9 | 8.2 | ||
| 2013-09-01T23:37 | 2739 | 736 | 12.9 | 9.2 | ||
| 2013-09-01T23:38 | 2770 | 733 | 13.0 | 9.6 | ||
| 2013-09-01T23:38 | 2817 | 729 | 13.1 | 7.8 | ||
| 2013-09-01T23:38 | 2841 | 727 | 13.0 | 8.5 | ||
| 2013-09-01T23:38 | 2897 | 722 | 13.0 | 5.9 | ||
| 2013-09-01T23:38 | 2930 | 720 | 87 | 10.0 | ||
| 2013-09-01T23:38 | 2980 | 715 | 12.7 | 4.4 | ||
| 2013-09-01T23:38 | 3026 | 711 | 12.4 | 6.4 | ||
| 2013-09-01T23:39 | 3129 | 703 | 11.8 | 5.0 | ||
| 2013-09-01T23:39 | 3261 | 692 | 10.6 | 4.1 | ||
| 2013-09-01T23:39 | 3287 | 690 | 10.4 | 5.8 | ||
| 2013-09-01T23:39 | 3300 | 688 | 89 | 9.0 | ||
| 2013-09-01T23:39 | 3326 | 686 | 10.0 | 5.4 | ||
| 2013-09-01T23:39 | 3395 | 681 | 9.4 | 6.3 | ||
| 2013-09-01T23:39 | 3426 | 678 | 9.2 | 5.9 | ||
| 2013-09-01T23:39 | 3444 | 677 | 9.2 | 4.2 | ||
| 2013-09-01T23:39 | 3451 | 676 | 9.1 | 5.8 | ||
| 2013-09-01T23:39 | 3463 | 675 | 9.1 | 5.7 | ||
| 2013-09-01T23:40 | 3599 | 664 | 8.4 | 4.2 | ||
| 2013-09-01T23:40 | 3650 | 660 | 8.2 | 3.3 | ||
| 2013-09-01T23:40 | 3676 | 658 | 90 | 10.0 | ||
| 2013-09-01T23:40 | 3696 | 656 | 8.0 | 1.2 | ||
| 2013-09-01T23:40 | 3836 | 645 | 6.7 | 0.4 | ||
| 2013-09-01T23:41 | 3990 | 633 | 5.6 | 1.0 | ||
| 2013-09-01T23:41 | 4019 | 631 | 5.5 | 0.3 | ||
| 2013-09-01T23:41 | 4041 | 629 | 93 | 9.0 | ||
| 2013-09-01T23:42 | 4283 | 611 | 4.6 | -0.2 | ||
| 2013-09-01T23:42 | 4296 | 610 | 4.6 | -2.3 | ||
| 2013-09-01T23:42 | 4405 | 602 | 95 | 8.0 | ||
| 2013-09-01T23:42 | 4411 | 601 | 4.3 | -3.7 | ||
| 2013-09-01T23:42 | 4487 | 596 | 3.9 | -7.9 | ||
| 2013-09-01T23:43 | 4583 | 589 | 3.1 | -6.9 | ||
| 2013-09-01T23:43 | 4680 | 582 | 2.5 | -4.9 | ||
| 2013-09-01T23:43 | 4733 | 578 | 2.1 | -6.7 | ||
| 2013-09-01T23:43 | 4750 | 577 | 106 | 9.0 | ||
| 2013-09-01T23:43 | 4859 | 569 | 1.1 | -7.2 | ||
| 2013-09-01T23:44 | 5087 | 553 | 115 | 9.0 | ||
| 2013-09-01T23:44 | 5175 | 547 | -1.1 | -8.3 | ||
| 2013-09-01T23:45 | 5401 | 532 | -3.1 | -9.4 | ||
| 2013-09-01T23:45 | 5443 | 529 | 112 | 8.0 | ||
| 2013-09-01T23:46 | 5663 | 514 | -5.1 | -11.0 | ||
| 2013-09-01T23:46 | 5799 | 506 | 99 | 11.0 | ||
| 2013-09-01T23:46 | 5915 | 498 | -7.4 | -12.7 | ||
| 2013-09-01T23:47 | 6126 | 485 | 90 | 12.0 | ||
| 2013-09-01T23:47 | 6139 | 484 | -8.5 | -14.7 | 89 | 12.0 |
| 2013-09-01T23:47 | 6177 | 482 | 87 | 12.0 | ||
| 2013-09-01T23:47 | 6249 | 477 | -8.6 | -16.9 | ||
| 2013-09-01T23:48 | 6518 | 461 | 80 | 12.0 | ||
| 2013-09-01T23:48 | 6589 | 457 | -11.3 | -19.0 | ||
| 2013-09-01T23:49 | 6834 | 442 | 82 | 10.0 | ||
| 2013-09-01T23:50 | 7126 | 425 | -15.4 | -21.2 | ||
| 2013-09-01T23:50 | 7160 | 424 | 77 | 8.0 | ||
| 2013-09-01T23:50 | 7256 | 418 | -16.4 | -23.1 | ||
| 2013-09-01T23:51 | 7503 | 405 | 54 | 10.0 | ||
| 2013-09-01T23:52 | 7855 | 386 | 54 | 9.0 | ||
| 2013-09-01T23:52 | 7965 | 380 | -22.3 | -26.6 | ||
| 2013-09-01T23:53 | 8181 | 369 | 65 | 12.0 | ||
| 2013-09-01T23:53 | 8243 | 366 | 61 | 12.0 | ||
| 2013-09-01T23:53 | 8331 | 362 | -25.1 | -29.0 | ||
| 2013-09-01T23:54 | 8535 | 352 | 68 | 11.0 | ||
| 2013-09-01T23:55 | 8824 | 338 | -29.0 | -32.3 | ||
| 2013-09-01T23:55 | 8896 | 334 | 74 | 11.0 | ||
| 2013-09-01T23:56 | 9250 | 318 | 74 | 10.0 | ||
| 2013-09-01T23:57 | 9624 | 302 | 87 | 10.0 | ||
| 2013-09-01T23:58 | 9978 | 287 | 80 | 11.0 | ||
| 2013-09-01T23:59 | 10224 | 277 | -40.0 | -45.0 | ||
| 2013-09-01T23:59 | 10340 | 272 | 75 | 10.0 | ||
| 2013-09-02T00:00 | 10726 | 257 | 80 | 11.0 | ||
| 2013-09-02T00:00 | 10864 | 252 | -43.2 | |||
| 2013-09-02T00:01 | 11123 | 242 | -43.0 | |||
| 2013-09-02T00:01 | 11224 | 239 | 77 | 14.0 | ||
| 2013-09-02T00:02 | 11536 | 228 | 77 | 10.0 | ||
| 2013-09-02T00:03 | 11818 | 218 | -46.4 | |||
| 2013-09-02T00:03 | 11909 | 215 | 86 | 9.0 | ||
| 2013-09-02T00:04 | 12254 | 204 | 88 | 11.0 | ||
| 2013-09-02T00:05 | 12583 | 194 | 93 | 11.0 | ||
| 2013-09-02T00:05 | 12640 | 193 | -51.5 | |||
| 2013-09-02T00:06 | 12947 | 184 | 86 | 10.0 | ||
| 2013-09-02T00:07 | 13343 | 173 | 74 | 12.0 | ||
| 2013-09-02T00:07 | 13388 | 171 | -57.3 | |||
| 2013-09-02T00:08 | 13712 | 163 | 69 | 15.0 | ||
| 2013-09-02T00:09 | 14111 | 153 | 76 | 17.0 | ||
| 2013-09-02T00:09 | 14160 | 152 | 76 | 17.0 | ||
| 2013-09-02T00:09 | 14181 | 151 | 76 | 17.0 | ||
| 2013-09-02T00:10 | 14501 | 143 | -63.8 | |||
| 2013-09-02T00:11 | 14966 | 133 | -67.2 | |||
| 2013-09-02T00:11 | 15006 | 132 | 83 | 13.0 | ||
| 2013-09-02T00:11 | 15062 | 131 | -67.6 | |||
| 2013-09-02T00:12 | 15469 | 122 | 84 | 14.0 | ||
| 2013-09-02T00:13 | 15881 | 114 | -70.8 | |||
| 2013-09-02T00:13 | 15930 | 113 | 93 | 19.0 | ||
| 2013-09-02T00:13 | 16005 | 112 | -71.5 | 95 | 20.0 | |
| 2013-09-02T00:13 | 16048 | 111 | 95 | 20.0 | ||
| 2013-09-02T00:13 | 16092 | 110 | -72.1 | 95 | 19.0 | |
| 2013-09-02T00:14 | 16229 | 107 | -71.6 | |||
| 2013-09-02T00:14 | 16354 | 105 | -71.1 | |||
| 2013-09-02T00:14 | 16478 | 103 | 91 | 15.0 | ||
| 2013-09-02T00:14 | 16516 | 102 | -71.4 | |||
| 2013-09-02T00:14 | 16651 | 100 | -72.0 | 87 | 14.0 | |
| 2013-09-02T00:15 | 16975 | 95 | -72.9 | |||
| 2013-09-02T00:15 | 17020 | 94 | 98 | 18.0 | ||
| 2013-09-02T00:15 | 17094 | 93 | -72.8 | |||
| 2013-09-02T00:16 | 17324 | 89 | -72.1 | |||
| 2013-09-02T00:16 | 17527 | 86 | -70.9 | |||
| 2013-09-02T00:16 | 17560 | 86 | 90 | 18.0 | ||
| 2013-09-02T00:16 | 17776 | 83 | -71.2 | |||
| 2013-09-02T00:17 | 17834 | 82 | -70.9 | |||
| 2013-09-02T00:17 | 17918 | 81 | -70.8 | |||
| 2013-09-02T00:17 | 17994 | 80 | -70.1 | |||
| 2013-09-02T00:17 | 18000 | 80 | 100 | 16.0 | ||
| 2013-09-02T00:17 | 18072 | 79 | -69.6 | |||
| 2013-09-02T00:17 | 18122 | 78 | -69.8 | 101 | 17.0 | |
| 2013-09-02T11:30 | 9 | 1010 | 28.8 | 24.2 | 110 | 6.0 |
| 2013-09-02T11:31 | 320 | 975 | 117 | 6.0 | ||
| 2013-09-02T11:32 | 645 | 940 | 123 | 7.0 | ||
| 2013-09-02T11:32 | 691 | 935 | 22.8 | 20.5 | ||
| 2013-09-02T11:32 | 772 | 927 | 22.1 | 20.2 | ||
| 2013-09-02T11:33 | 994 | 903 | 126 | 9.0 | ||
| 2013-09-02T11:33 | 1041 | 898 | 20.9 | 16.5 | ||
| 2013-09-02T11:33 | 1161 | 886 | 20.4 | 14.1 | ||
| 2013-09-02T11:34 | 1178 | 884 | 20.3 | 15.5 | ||
| 2013-09-02T11:34 | 1246 | 877 | 20.0 | 13.7 | ||
| 2013-09-02T11:34 | 1315 | 870 | 19.7 | 12.2 | ||
| 2013-09-02T11:34 | 1338 | 868 | 133 | 9.0 | ||
| 2013-09-02T11:34 | 1442 | 857 | 18.6 | 11.9 | ||
| 2013-09-02T11:35 | 1548 | 847 | 17.7 | 14.0 | ||
| 2013-09-02T11:35 | 1566 | 845 | 17.5 | 12.8 | ||
| 2013-09-02T11:35 | 1623 | 839 | 17.4 | 10.5 | ||
| 2013-09-02T11:35 | 1692 | 833 | 17.0 | 13.3 | ||
| 2013-09-02T11:35 | 1705 | 832 | 144 | 8.0 | ||
| 2013-09-02T11:35 | 1769 | 825 | 17.1 | 8.5 | ||
| 2013-09-02T11:35 | 1802 | 822 | 17.0 | 11.3 | ||
| 2013-09-02T11:35 | 1834 | 819 | 16.8 | 10.0 | ||
| 2013-09-02T11:35 | 1853 | 817 | 16.7 | 12.0 | ||
| 2013-09-02T11:36 | 1916 | 811 | 16.5 | 9.2 | ||
| 2013-09-02T11:36 | 2010 | 802 | 16.1 | 9.3 | ||
| 2013-09-02T11:36 | 2081 | 796 | 15.4 | 10.0 | 154 | 9.0 |
| 2013-09-02T11:36 | 2121 | 792 | 15.1 | 10.1 | ||
| 2013-09-02T11:36 | 2155 | 789 | 14.9 | 9.5 | ||
| 2013-09-02T11:36 | 2188 | 786 | 14.7 | 9.1 | ||
| 2013-09-02T11:36 | 2199 | 785 | 14.7 | 10.5 | ||
| 2013-09-02T11:37 | 2388 | 767 | 13.6 | 10.8 | ||
| 2013-09-02T11:37 | 2417 | 765 | 151 | 11.0 | ||
| 2013-09-02T11:37 | 2423 | 764 | 13.8 | 6.7 | ||
| 2013-09-02T11:37 | 2441 | 763 | 13.8 | 9.0 | ||
| 2013-09-02T11:37 | 2488 | 758 | 13.6 | 8.7 | 151 | 11.0 |
| 2013-09-02T11:37 | 2518 | 756 | 13.6 | 5.2 | ||
| 2013-09-02T11:37 | 2573 | 751 | 13.6 | 2.5 | ||
| 2013-09-02T11:37 | 2591 | 749 | 13.4 | 1.1 | ||
| 2013-09-02T11:38 | 2616 | 747 | 13.2 | 4.6 | ||
| 2013-09-02T11:38 | 2672 | 742 | 12.9 | 4.6 | ||
| 2013-09-02T11:38 | 2703 | 739 | 13.0 | 2.5 | ||
| 2013-09-02T11:38 | 2721 | 738 | 13.1 | -3.2 | ||
| 2013-09-02T11:38 | 2740 | 736 | 13.2 | -2.3 | ||
| 2013-09-02T11:38 | 2776 | 733 | 13.2 | -2.7 | ||
| 2013-09-02T11:38 | 2783 | 732 | 147 | 10.0 | ||
| 2013-09-02T11:38 | 2807 | 730 | 13.1 | -1.3 | ||
| 2013-09-02T11:38 | 2838 | 727 | 13.1 | -3.6 | ||
| 2013-09-02T11:38 | 2887 | 723 | 12.9 | -3.8 | ||
| 2013-09-02T11:38 | 2906 | 722 | 12.7 | -0.6 | ||
| 2013-09-02T11:39 | 2965 | 716 | 12.7 | -7.9 | ||
| 2013-09-02T11:39 | 3006 | 713 | 12.5 | -3.3 | ||
| 2013-09-02T11:39 | 3018 | 712 | 12.4 | -1.2 | ||
| 2013-09-02T11:39 | 3130 | 703 | 11.9 | -6.5 | ||
| 2013-09-02T11:39 | 3142 | 702 | 138 | 8.0 | ||
| 2013-09-02T11:39 | 3184 | 698 | 11.4 | -7.9 | ||
| 2013-09-02T11:39 | 3196 | 697 | 11.3 | -1.5 | ||
| 2013-09-02T11:39 | 3255 | 692 | 11.0 | -2.8 | ||
| 2013-09-02T11:39 | 3303 | 688 | 11.0 | -6.8 | ||
| 2013-09-02T11:40 | 3357 | 684 | 10.7 | -6.2 | ||
| 2013-09-02T11:40 | 3424 | 678 | 10.4 | -8.3 | ||
| 2013-09-02T11:40 | 3491 | 673 | 10.1 | -13.2 | ||
| 2013-09-02T11:40 | 3503 | 672 | 128 | 9.0 | ||
| 2013-09-02T11:40 | 3544 | 669 | 9.8 | -14.1 | ||
| 2013-09-02T11:40 | 3628 | 662 | 9.4 | -17.7 | ||
| 2013-09-02T11:41 | 3775 | 650 | 8.5 | -21.4 | ||
| 2013-09-02T11:41 | 3815 | 647 | 8.2 | -16.2 | ||
| 2013-09-02T11:41 | 3833 | 646 | 8.1 | -7.6 | ||
| 2013-09-02T11:41 | 3857 | 644 | 7.9 | -8.2 | 128 | 9.0 |
| 2013-09-02T11:41 | 3863 | 643 | 7.8 | -9.6 | ||
| 2013-09-02T11:41 | 3880 | 642 | 7.7 | -6.1 | ||
| 2013-09-02T11:41 | 3892 | 641 | 7.6 | -6.9 | ||
| 2013-09-02T11:41 | 3916 | 639 | 7.5 | -8.1 | ||
| 2013-09-02T11:41 | 3968 | 635 | 7.3 | -7.9 | ||
| 2013-09-02T11:41 | 3997 | 633 | 7.2 | -13.7 | ||
| 2013-09-02T11:41 | 4021 | 631 | 7.2 | -10.1 | ||
| 2013-09-02T11:42 | 4068 | 628 | 7.0 | -13.3 | ||
| 2013-09-02T11:42 | 4170 | 620 | 6.4 | -16.2 | ||
| 2013-09-02T11:42 | 4211 | 617 | 124 | 9.0 | ||
| 2013-09-02T11:42 | 4276 | 612 | 5.7 | -20.6 | ||
| 2013-09-02T11:43 | 4452 | 599 | 5.1 | -21.1 | ||
| 2013-09-02T11:43 | 4557 | 591 | 4.1 | -12.8 | ||
| 2013-09-02T11:43 | 4576 | 590 | 110 | 10.0 | ||
| 2013-09-02T11:44 | 4844 | 571 | 1.5 | -13.8 | ||
| 2013-09-02T11:44 | 4887 | 568 | 1.3 | -15.7 | ||
| 2013-09-02T11:44 | 4950 | 563 | 109 | 11.0 | ||
| 2013-09-02T11:44 | 5097 | 553 | -0.2 | -13.5 | ||
| 2013-09-02T11:45 | 5221 | 544 | -1.2 | -16.2 | ||
| 2013-09-02T11:45 | 5339 | 536 | 114 | 10.0 | ||
| 2013-09-02T11:45 | 5379 | 534 | -2.4 | -18.0 | ||
| 2013-09-02T11:45 | 5491 | 526 | -2.7 | -17.1 | ||
| 2013-09-02T11:46 | 5724 | 511 | 125 | 11.0 | ||
| 2013-09-02T11:46 | 5876 | 501 | -4.9 | -21.5 | ||
| 2013-09-02T11:47 | 5905 | 499 | -5.0 | -19.5 | ||
| 2013-09-02T11:47 | 6077 | 488 | 130 | 13.0 | ||
| 2013-09-02T11:47 | 6190 | 482 | -6.5 | -24.2 | ||
| 2013-09-02T11:48 | 6266 | 477 | -7.1 | -24.3 | ||
| 2013-09-02T11:48 | 6433 | 467 | 124 | 15.0 | ||
| 2013-09-02T11:49 | 6655 | 454 | -9.4 | -24.6 | 122 | 16.0 |
| 2013-09-02T11:49 | 6673 | 452 | -9.4 | -23.4 | ||
| 2013-09-02T11:49 | 6692 | 451 | -9.6 | -21.3 | ||
| 2013-09-02T11:49 | 6741 | 449 | 123 | 16.0 | ||
| 2013-09-02T11:49 | 6747 | 448 | 123 | 16.0 | ||
| 2013-09-02T11:49 | 6765 | 447 | -10.1 | -25.6 | ||
| 2013-09-02T11:49 | 6796 | 445 | 125 | 16.0 | ||
| 2013-09-02T11:49 | 6820 | 444 | -10.6 | -21.3 | ||
| 2013-09-02T11:49 | 6882 | 440 | -11.2 | -15.4 | ||
| 2013-09-02T11:50 | 7126 | 427 | -12.3 | -17.3 | ||
| 2013-09-02T11:50 | 7155 | 425 | 126 | 16.0 | ||
| 2013-09-02T11:50 | 7173 | 424 | -12.5 | -18.1 | ||
| 2013-09-02T11:51 | 7451 | 409 | -14.5 | -21.0 | ||
| 2013-09-02T11:51 | 7488 | 407 | 125 | 15.0 | ||
| 2013-09-02T11:51 | 7568 | 402 | -15.2 | -23.3 | ||
| 2013-09-02T11:52 | 7821 | 389 | 134 | 16.0 | ||
| 2013-09-02T11:52 | 7932 | 383 | -17.9 | -23.8 | ||
| 2013-09-02T11:52 | 7977 | 381 | -18.3 | -24.0 | ||
| 2013-09-02T11:53 | 8156 | 372 | 143 | 16.0 | ||
| 2013-09-02T11:53 | 8211 | 369 | -19.6 | -27.6 | ||
| 2013-09-02T11:54 | 8494 | 355 | 143 | 16.0 | ||
| 2013-09-02T11:54 | 8594 | 351 | -22.2 | -29.0 | ||
| 2013-09-02T11:55 | 8871 | 338 | 156 | 16.0 | ||
| 2013-09-02T11:56 | 9180 | 324 | -26.8 | -31.9 | ||
| 2013-09-02T11:56 | 9246 | 321 | 153 | 20.0 | ||
| 2013-09-02T11:56 | 9287 | 319 | -27.7 | -33.6 | ||
| 2013-09-02T11:57 | 9499 | 310 | -28.8 | -39.5 | ||
| 2013-09-02T11:57 | 9554 | 307 | 151 | 23.0 | ||
| 2013-09-02T11:57 | 9572 | 306 | 150 | 23.0 | ||
| 2013-09-02T11:57 | 9596 | 305 | -29.5 | -37.5 | ||
| 2013-09-02T11:57 | 9651 | 303 | -29.9 | -38.7 | ||
| 2013-09-02T11:58 | 9868 | 294 | -31.3 | -40.7 | ||
| 2013-09-02T11:58 | 9958 | 290 | 156 | 21.0 | ||
| 2013-09-02T11:58 | 9990 | 289 | -32.1 | -40.1 | ||
| 2013-09-02T11:59 | 10349 | 274 | 161 | 22.0 | ||
| 2013-09-02T12:00 | 10624 | 264 | -37.5 | -47.9 | ||
| 2013-09-02T12:00 | 10725 | 260 | 163 | 20.0 | ||
| 2013-09-02T12:00 | 10770 | 258 | -38.4 | -51.8 | ||
| 2013-09-02T12:01 | 10958 | 251 | -40.0 | -53.2 | ||
| 2013-09-02T12:01 | 11129 | 245 | 164 | 19.0 | ||
| 2013-09-02T12:02 | 11520 | 231 | 170 | 19.0 | ||
| 2013-09-02T12:03 | 11931 | 217 | 170 | 20.0 | ||
| 2013-09-02T12:03 | 12066 | 213 | -49.4 | |||
| 2013-09-02T12:04 | 12356 | 204 | 162 | 23.0 | ||
| 2013-09-02T12:05 | 12765 | 191 | 163 | 26.0 | ||
| 2013-09-02T12:06 | 13194 | 179 | 163 | 28.0 | ||
| 2013-09-02T12:06 | 13201 | 178 | 163 | 28.0 | ||
| 2013-09-02T12:06 | 13242 | 177 | 162 | 28.0 | ||
| 2013-09-02T12:06 | 13290 | 176 | 163 | 28.0 | ||
| 2013-09-02T12:07 | 13597 | 167 | 163 | 27.0 | ||
| 2013-09-02T12:08 | 14053 | 155 | 167 | 23.0 | ||
| 2013-09-02T12:08 | 14201 | 152 | -66.9 | |||
| 2013-09-02T12:09 | 14299 | 149 | -67.2 | |||
| 2013-09-02T12:09 | 14537 | 143 | 149 | 15.0 | ||
| 2013-09-02T12:09 | 14644 | 141 | -68.3 | |||
| 2013-09-02T12:10 | 14897 | 135 | -70.2 | |||
| 2013-09-02T12:10 | 15007 | 133 | -71.0 | |||
| 2013-09-02T12:10 | 15040 | 132 | 127 | 17.0 | ||
| 2013-09-02T12:10 | 15275 | 127 | -72.0 | |||
| 2013-09-02T12:11 | 15537 | 121 | 116 | 18.0 | ||
| 2013-09-02T12:12 | 16037 | 111 | 120 | 17.0 | ||
| 2013-09-02T12:12 | 16078 | 110 | -72.7 | |||
| 2013-09-02T12:13 | 16383 | 105 | -71.0 | |||
| 2013-09-02T12:13 | 16516 | 103 | 106 | 16.0 | ||
| 2013-09-02T12:13 | 16664 | 100 | -69.6 | 100 | 17.0 | |
| 2013-09-02T12:14 | 16979 | 95 | 99 | 16.0 | ||
| 2013-09-02T12:14 | 17115 | 93 | -69.2 | |||
| 2013-09-02T12:15 | 17461 | 88 | 96 | 18.0 | ||
| 2013-09-02T12:16 | 17689 | 84 | -71.5 | |||
| 2013-09-02T12:16 | 17922 | 81 | 96 | 16.0 | ||
| 2013-09-02T12:17 | 18327 | 76 | 108 | 15.0 | ||
| 2013-09-02T12:17 | 18393 | 75 | -70.0 | |||
| 2013-09-02T12:18 | 18719 | 71 | 103 | 13.0 | ||
| 2013-09-02T12:19 | 19000 | 68 | -69.2 | |||
| 2013-09-02T12:19 | 19151 | 66 | 90 | 18.0 | ||
| 2013-09-02T12:20 | 19467 | 62 | -67.5 | |||
| 2013-09-02T12:20 | 19589 | 61 | 79 | 16.0 | ||
| 2013-09-02T12:20 | 19649 | 61 | -67.8 | |||
| 2013-09-02T12:21 | 20014 | 57 | 88 | 20.0 | ||
| 2013-09-02T12:22 | 20218 | 55 | -64.7 | |||
| 2013-09-02T12:22 | 20400 | 54 | 87 | 20.0 | ||
| 2013-09-02T12:23 | 20690 | 51 | -62.2 | |||
| 2013-09-02T12:23 | 20793 | 50 | 84 | 20.0 | ||
| 2013-09-02T12:24 | 21075 | 48 | -62.8 | |||
| 2013-09-02T12:24 | 21173 | 47 | -62.9 | |||
| 2013-09-02T12:25 | 21561 | 44 | 94 | 22.0 | ||
| 2013-09-02T12:26 | 21798 | 43 | -60.1 | |||
| 2013-09-02T12:26 | 21950 | 42 | 106 | 20.0 | ||
| 2013-09-02T12:26 | 22082 | 41 | -60.6 | |||
| 2013-09-02T12:27 | 22342 | 39 | 97 | 16.0 | ||
| 2013-09-02T12:28 | 22736 | 37 | 86 | 18.0 | ||
| 2013-09-02T12:29 | 23127 | 35 | 89 | 18.0 | ||
| 2013-09-02T12:29 | 23230 | 34 | -56.8 | |||
| 2013-09-02T12:30 | 23513 | 33 | 84 | 16.0 | ||
| 2013-09-02T12:31 | 23897 | 31 | 68 | 20.0 | ||
| 2013-09-02T12:32 | 24259 | 29 | -54.9 | |||
| 2013-09-02T12:32 | 24272 | 29 | 74 | 26.0 | ||
| 2013-09-02T12:33 | 24665 | 27 | 86 | 23.0 | ||
| 2013-09-02T12:34 | 25086 | 25 | -51.4 | |||
| 2013-09-02T12:35 | 25542 | 24 | 86 | 17.0 | ||
| 2013-09-02T12:36 | 25821 | 23 | -51.6 | |||
| 2013-09-02T12:36 | 25983 | 22 | 77 | 17.0 | ||
| 2013-09-02T12:37 | 26407 | 21 | 72 | 18.0 | ||
| 2013-09-02T12:38 | 26783 | 20 | -52.2 | |||
| 2013-09-02T12:38 | 26824 | 19 | 85 | 20.0 | ||
| 2013-09-02T12:39 | 27256 | 18 | 89 | 23.0 | ||
| 2013-09-02T12:39 | 27444 | 18 | -52.5 | |||
| 2013-09-02T12:40 | 27714 | 17 | 92 | 28.0 | ||
| 2013-09-02T12:41 | 27991 | 16 | 97 | 30.0 | ||
| 2013-09-02T12:41 | 28030 | 16 | 97 | 30.0 | ||
| 2013-09-02T12:41 | 28184 | 16 | 96 | 29.0 | ||
| 2013-09-02T12:42 | 28631 | 15 | -44.4 | 90 | 24.0 | |
| 2013-09-02T12:43 | 29061 | 14 | 90 | 25.0 | ||
| 2013-09-02T12:44 | 29529 | 13 | 79 | 24.0 | ||
| 2013-09-02T12:45 | 30038 | 12 | 81 | 22.0 | ||
| 2013-09-02T12:46 | 30541 | 11 | 88 | 27.0 | ||
| 2013-09-02T12:47 | 30890 | 11 | -43.9 | |||
| 2013-09-02T12:47 | 31012 | 10 | 101 | 21.0 | ||
| 2013-09-02T12:48 | 31456 | 10 | 89 | 24.0 | ||
| 2013-09-02T12:49 | 31708 | 9 | -42.1 | |||
| 2013-09-02T12:49 | 31913 | 9 | 93 | 24.0 | ||
| 2013-09-02T12:50 | 32185 | 9 | -37.9 | |||
| 2013-09-02T12:50 | 32389 | 8 | 82 | 22.0 | ||
| 2013-09-02T12:50 | 32611 | 8 | -34.6 | |||
| 2013-09-02T12:51 | 32851 | 8 | 61 | 28.0 | ||
| 2013-09-02T12:51 | 32947 | 8 | -33.2 | 66 | 30.0 | |
| 2013-09-02T23:30 | 9 | 1011 | 30.5 | 26.0 | 110 | 9.0 |
| 2013-09-02T23:30 | 23 | 1010 | 28.7 | 22.9 | ||
| 2013-09-02T23:31 | 241 | 985 | 27.1 | 22.3 | ||
| 2013-09-02T23:31 | 364 | 972 | 111 | 10.0 | ||
| 2013-09-02T23:31 | 370 | 971 | 111 | 10.0 | ||
| 2013-09-02T23:31 | 381 | 970 | 111 | 10.0 | ||
| 2013-09-02T23:31 | 387 | 969 | 112 | 10.0 | ||
| 2013-09-02T23:31 | 459 | 961 | 25.7 | 21.6 | ||
| 2013-09-02T23:32 | 721 | 933 | 116 | 9.0 | ||
| 2013-09-02T23:33 | 1113 | 892 | 120 | 9.0 | ||
| 2013-09-02T23:33 | 1234 | 880 | 20.1 | 18.4 | ||
| 2013-09-02T23:34 | 1427 | 860 | 19.1 | 16.9 | ||
| 2013-09-02T23:34 | 1449 | 858 | 119 | 10.0 | ||
| 2013-09-02T23:35 | 1790 | 825 | 119 | 11.0 | ||
| 2013-09-02T23:35 | 1965 | 808 | 120 | 11.0 | ||
| 2013-09-02T23:35 | 1972 | 807 | 120 | 11.0 | ||
| 2013-09-02T23:36 | 2023 | 802 | 15.9 | 13.7 | ||
| 2013-09-02T23:36 | 2131 | 792 | 15.6 | 12.7 | ||
| 2013-09-02T23:36 | 2156 | 790 | 15.6 | 13.3 | ||
| 2013-09-02T23:36 | 2168 | 789 | 124 | 11.0 | ||
| 2013-09-02T23:37 | 2518 | 757 | 128 | 10.0 | ||
| 2013-09-02T23:37 | 2547 | 754 | 13.5 | 11.0 | ||
| 2013-09-02T23:38 | 2701 | 741 | 13.2 | 9.3 | ||
| 2013-09-02T23:38 | 2735 | 738 | 13.1 | 8.6 | ||
| 2013-09-02T23:38 | 2862 | 727 | 126 | 9.0 | ||
| 2013-09-02T23:39 | 3171 | 701 | 10.5 | 6.1 | ||
| 2013-09-02T23:39 | 3218 | 697 | 120 | 9.0 | ||
| 2013-09-02T23:39 | 3382 | 683 | 9.7 | 3.9 | ||
| 2013-09-02T23:40 | 3418 | 680 | 9.4 | 2.3 | ||
| 2013-09-02T23:40 | 3448 | 677 | 9.1 | 4.1 | ||
| 2013-09-02T23:40 | 3490 | 674 | 8.8 | 2.6 | ||
| 2013-09-02T23:40 | 3508 | 673 | 8.8 | 4.2 | ||
| 2013-09-02T23:40 | 3543 | 670 | 8.6 | 2.2 | ||
| 2013-09-02T23:40 | 3579 | 667 | 119 | 9.0 | ||
| 2013-09-02T23:40 | 3585 | 666 | 8.3 | 3.6 | ||
| 2013-09-02T23:40 | 3684 | 658 | 7.6 | 3.8 | ||
| 2013-09-02T23:41 | 3765 | 652 | 7.0 | 3.1 | ||
| 2013-09-02T23:41 | 3923 | 640 | 118 | 8.0 | ||
| 2013-09-02T23:41 | 3934 | 639 | 6.1 | 0.2 | ||
| 2013-09-02T23:41 | 4025 | 632 | 5.8 | 0.4 | ||
| 2013-09-02T23:42 | 4116 | 625 | 5.4 | 0.0 | ||
| 2013-09-02T23:42 | 4264 | 613 | 4.5 | -0.3 | 129 | 9.0 |
| 2013-09-02T23:43 | 4578 | 590 | 3.0 | -0.8 | ||
| 2013-09-02T23:43 | 4607 | 588 | 126 | 9.0 | ||
| 2013-09-02T23:43 | 4706 | 581 | 2.3 | -2.0 | ||
| 2013-09-02T23:44 | 4830 | 572 | 1.5 | -1.7 | ||
| 2013-09-02T23:44 | 4924 | 565 | 0.9 | -2.0 | ||
| 2013-09-02T23:44 | 4948 | 564 | 115 | 9.0 | ||
| 2013-09-02T23:44 | 4985 | 561 | 0.4 | -1.0 | ||
| 2013-09-02T23:44 | 5009 | 559 | 0.3 | -2.1 | ||
| 2013-09-02T23:44 | 5076 | 555 | -0.1 | -1.8 | ||
| 2013-09-02T23:45 | 5130 | 551 | -0.4 | -2.9 | ||
| 2013-09-02T23:45 | 5254 | 543 | -1.0 | -4.7 | ||
| 2013-09-02T23:45 | 5308 | 539 | 116 | 11.0 | ||
| 2013-09-02T23:45 | 5337 | 537 | -1.5 | -5.9 | ||
| 2013-09-02T23:45 | 5396 | 533 | -1.7 | -4.9 | ||
| 2013-09-02T23:45 | 5480 | 528 | -2.1 | -5.9 | ||
| 2013-09-02T23:46 | 5509 | 526 | -2.2 | -7.9 | ||
| 2013-09-02T23:46 | 5616 | 519 | -3.1 | -5.3 | ||
| 2013-09-02T23:46 | 5664 | 516 | 113 | 13.0 | ||
| 2013-09-02T23:46 | 5781 | 508 | 113 | 14.0 | ||
| 2013-09-02T23:46 | 5805 | 507 | 112 | 14.0 | ||
| 2013-09-02T23:46 | 5811 | 506 | 113 | 14.0 | ||
| 2013-09-02T23:46 | 5828 | 505 | 113 | 14.0 | ||
| 2013-09-02T23:47 | 5881 | 502 | -4.9 | -7.5 | ||
| 2013-09-02T23:47 | 5916 | 499 | 115 | 14.0 | ||
| 2013-09-02T23:47 | 5974 | 496 | 116 | 14.0 | ||
| 2013-09-02T23:47 | 5980 | 495 | -5.9 | -7.6 | ||
| 2013-09-02T23:47 | 6015 | 493 | 115 | 13.0 | ||
| 2013-09-02T23:47 | 6131 | 486 | -6.3 | -8.4 | ||
| 2013-09-02T23:48 | 6347 | 473 | -7.9 | -10.0 | ||
| 2013-09-02T23:48 | 6365 | 472 | -7.9 | -11.4 | ||
| 2013-09-02T23:48 | 6371 | 471 | 115 | 13.0 | ||
| 2013-09-02T23:48 | 6389 | 470 | -7.9 | -9.7 | ||
| 2013-09-02T23:48 | 6540 | 461 | -8.5 | -10.7 | ||
| 2013-09-02T23:49 | 6715 | 451 | 123 | 12.0 | ||
| 2013-09-02T23:49 | 6744 | 449 | -9.5 | -11.7 | ||
| 2013-09-02T23:49 | 6873 | 442 | -10.2 | -13.5 | ||
| 2013-09-02T23:50 | 6924 | 439 | -10.4 | -14.5 | ||
| 2013-09-02T23:50 | 6975 | 436 | -10.6 | -13.4 | ||
| 2013-09-02T23:50 | 7044 | 432 | -10.9 | -15.5 | ||
| 2013-09-02T23:50 | 7088 | 430 | 126 | 13.0 | ||
| 2013-09-02T23:51 | 7283 | 419 | -12.0 | -18.6 | ||
| 2013-09-02T23:51 | 7468 | 409 | 118 | 12.0 | ||
| 2013-09-02T23:51 | 7612 | 401 | -14.0 | -21.3 | ||
| 2013-09-02T23:51 | 7645 | 399 | -14.2 | -19.9 | ||
| 2013-09-02T23:52 | 7704 | 396 | -14.6 | -23.0 | ||
| 2013-09-02T23:52 | 7858 | 388 | 126 | 12.0 | ||
| 2013-09-02T23:53 | 8186 | 372 | -18.2 | -25.9 | ||
| 2013-09-02T23:53 | 8209 | 371 | 126 | 12.0 | ||
| 2013-09-02T23:54 | 8424 | 360 | -20.2 | -27.3 | ||
| 2013-09-02T23:54 | 8568 | 353 | 122 | 10.0 | ||
| 2013-09-02T23:54 | 8686 | 347 | -21.9 | -30.0 | ||
| 2013-09-02T23:55 | 8957 | 335 | 119 | 11.0 | ||
| 2013-09-02T23:55 | 9002 | 333 | -24.3 | -32.6 | ||
| 2013-09-02T23:56 | 9308 | 319 | -26.8 | -33.9 | ||
| 2013-09-02T23:56 | 9326 | 318 | 123 | 10.0 | ||
| 2013-09-02T23:57 | 9698 | 302 | 126 | 11.0 | ||
| 2013-09-02T23:57 | 9728 | 301 | -30.5 | -37.4 | ||
| 2013-09-02T23:58 | 9910 | 293 | -32.3 | -37.1 | ||
| 2013-09-02T23:58 | 10059 | 287 | -33.1 | -37.7 | ||
| 2013-09-02T23:59 | 10436 | 272 | 128 | 9.0 | ||
| 2013-09-02T23:59 | 10501 | 269 | -36.6 | -43.3 | ||
| 2013-09-03T00:00 | 10724 | 261 | -38.5 | -45.1 | ||
| 2013-09-03T00:00 | 10806 | 258 | 127 | 10.0 | ||
| 2013-09-03T00:00 | 10875 | 255 | -40.0 | -46.8 | ||
| 2013-09-03T00:01 | 11175 | 244 | 122 | 9.0 | ||
| 2013-09-03T00:02 | 11552 | 231 | 119 | 8.0 | ||
| 2013-09-03T00:03 | 11925 | 218 | 119 | 9.0 | ||
| 2013-09-03T00:04 | 12309 | 206 | 131 | 5.0 | ||
| 2013-09-03T00:05 | 12686 | 194 | 166 | 4.0 | ||
| 2013-09-03T00:05 | 12749 | 192 | -55.8 | |||
| 2013-09-03T00:06 | 13064 | 183 | 173 | 7.0 | ||
| 2013-09-03T00:07 | 13436 | 172 | 173 | 6.0 | ||
| 2013-09-03T00:08 | 13829 | 161 | 145 | 5.0 | ||
| 2013-09-03T00:09 | 14219 | 151 | 128 | 6.0 | ||
| 2013-09-03T00:09 | 14322 | 149 | -69.0 | |||
| 2013-09-03T00:10 | 14606 | 142 | 122 | 9.0 | ||
| 2013-09-03T00:11 | 15056 | 131 | 109 | 12.0 | ||
| 2013-09-03T00:12 | 15468 | 122 | -78.1 | |||
| 2013-09-03T00:12 | 15590 | 120 | 103 | 15.0 | ||
| 2013-09-03T00:12 | 15772 | 116 | -77.4 | |||
| 2013-09-03T00:13 | 15977 | 112 | -76.5 | |||
| 2013-09-03T00:13 | 16015 | 111 | 102 | 20.0 | ||
| 2013-09-03T00:13 | 16147 | 109 | -74.5 | 103 | 19.0 | |
| 2013-09-03T11:30 | 9 | 1012 | 28.1 | 25.9 | 100 | 4.0 |
| 2013-09-03T11:30 | 80 | 1004 | 27.7 | 25.1 | ||
| 2013-09-03T11:31 | 368 | 972 | 108 | 7.0 | ||
| 2013-09-03T11:31 | 380 | 971 | 25.3 | 23.9 | ||
| 2013-09-03T11:31 | 515 | 956 | 24.7 | 22.0 | ||
| 2013-09-03T11:32 | 576 | 949 | 116 | 8.0 | ||
| 2013-09-03T11:32 | 595 | 947 | 116 | 8.0 | ||
| 2013-09-03T11:32 | 737 | 932 | 119 | 7.0 | ||
| 2013-09-03T11:33 | 1036 | 901 | 21.7 | 19.3 | ||
| 2013-09-03T11:33 | 1112 | 893 | 122 | 7.0 | ||
| 2013-09-03T11:34 | 1494 | 854 | 115 | 6.0 | ||
| 2013-09-03T11:35 | 1705 | 834 | 18.1 | 16.4 | ||
| 2013-09-03T11:35 | 1865 | 818 | 111 | 7.0 | ||
| 2013-09-03T11:36 | 2129 | 793 | 16.4 | 14.1 | ||
| 2013-09-03T11:36 | 2226 | 785 | 109 | 7.0 | ||
| 2013-09-03T11:37 | 2585 | 752 | 14.3 | 10.3 | ||
| 2013-09-03T11:37 | 2591 | 751 | 109 | 7.0 | ||
| 2013-09-03T11:38 | 2776 | 735 | 13.1 | 9.9 | ||
| 2013-09-03T11:38 | 2800 | 733 | 13.0 | 9.3 | ||
| 2013-09-03T11:38 | 2954 | 720 | 103 | 8.0 | ||
| 2013-09-03T11:38 | 3036 | 713 | 12.0 | 8.3 | ||
| 2013-09-03T11:38 | 3071 | 710 | 11.9 | 8.7 | ||
| 2013-09-03T11:39 | 3193 | 699 | 11.6 | 6.7 | ||
| 2013-09-03T11:39 | 3307 | 690 | 102 | 8.0 | ||
| 2013-09-03T11:39 | 3349 | 686 | 10.5 | 6.6 | ||
| 2013-09-03T11:39 | 3435 | 679 | 10.1 | 6.1 | ||
| 2013-09-03T11:40 | 3504 | 674 | 9.9 | 5.3 | ||
| 2013-09-03T11:40 | 3586 | 667 | 9.3 | 5.1 | ||
| 2013-09-03T11:40 | 3623 | 664 | 9.2 | 5.0 | ||
| 2013-09-03T11:40 | 3667 | 661 | 8.9 | 4.1 | ||
| 2013-09-03T11:40 | 3679 | 660 | 99 | 9.0 | ||
| 2013-09-03T11:40 | 3849 | 646 | 7.7 | 5.5 | ||
| 2013-09-03T11:41 | 4051 | 631 | 6.7 | 2.6 | ||
| 2013-09-03T11:41 | 4064 | 630 | 99 | 10.0 | ||
| 2013-09-03T11:41 | 4128 | 625 | 6.0 | 2.3 | ||
| 2013-09-03T11:41 | 4238 | 616 | 5.3 | 2.0 | ||
| 2013-09-03T11:41 | 4249 | 615 | 98 | 12.0 | ||
| 2013-09-03T11:42 | 4267 | 614 | 97 | 12.0 | ||
| 2013-09-03T11:42 | 4337 | 609 | 4.8 | 2.0 | ||
| 2013-09-03T11:42 | 4354 | 608 | 4.7 | 0.5 | ||
| 2013-09-03T11:42 | 4399 | 604 | 4.4 | 0.5 | ||
| 2013-09-03T11:42 | 4411 | 603 | 4.4 | 1.9 | ||
| 2013-09-03T11:42 | 4428 | 602 | 4.3 | 1.3 | ||
| 2013-09-03T11:42 | 4445 | 601 | 4.3 | -0.5 | ||
| 2013-09-03T11:43 | 4718 | 581 | 3.0 | -1.0 | ||
| 2013-09-03T11:43 | 4735 | 580 | 3.0 | -3.6 | ||
| 2013-09-03T11:43 | 4769 | 577 | 103 | 10.0 | ||
| 2013-09-03T11:43 | 4802 | 575 | 2.6 | -1.6 | ||
| 2013-09-03T11:43 | 4824 | 573 | 2.4 | -1.8 | ||
| 2013-09-03T11:43 | 4863 | 571 | 2.3 | -4.7 | ||
| 2013-09-03T11:43 | 4879 | 570 | 2.3 | -7.1 | ||
| 2013-09-03T11:43 | 4917 | 567 | 2.1 | -5.8 | ||
| 2013-09-03T11:44 | 4940 | 565 | 1.9 | -7.2 | ||
| 2013-09-03T11:44 | 4967 | 563 | 1.7 | -3.6 | ||
| 2013-09-03T11:44 | 5001 | 561 | 1.6 | -3.5 | ||
| 2013-09-03T11:44 | 5023 | 560 | 1.5 | -7.3 | ||
| 2013-09-03T11:44 | 5051 | 558 | 1.4 | -5.1 | ||
| 2013-09-03T11:44 | 5101 | 554 | 101 | 11.0 | ||
| 2013-09-03T11:44 | 5134 | 552 | 0.8 | -7.2 | ||
| 2013-09-03T11:44 | 5151 | 551 | 0.8 | -3.5 | ||
| 2013-09-03T11:44 | 5174 | 549 | 0.7 | -4.5 | ||
| 2013-09-03T11:44 | 5241 | 544 | 0.3 | -7.2 | ||
| 2013-09-03T11:45 | 5341 | 538 | -0.7 | -7.5 | ||
| 2013-09-03T11:45 | 5369 | 536 | -0.9 | -4.8 | ||
| 2013-09-03T11:45 | 5397 | 534 | -1.0 | -4.9 | ||
| 2013-09-03T11:45 | 5426 | 532 | -1.1 | -7.5 | ||
| 2013-09-03T11:45 | 5437 | 531 | 105 | 10.0 | ||
| 2013-09-03T11:45 | 5460 | 530 | -1.2 | -6.9 | ||
| 2013-09-03T11:45 | 5471 | 529 | -1.3 | -11.2 | ||
| 2013-09-03T11:45 | 5499 | 527 | -1.4 | -8.4 | ||
| 2013-09-03T11:45 | 5539 | 525 | -1.7 | -10.5 | ||
| 2013-09-03T11:45 | 5568 | 523 | -2.0 | -10.3 | ||
| 2013-09-03T11:46 | 5644 | 518 | -2.6 | -9.3 | ||
| 2013-09-03T11:46 | 5673 | 516 | -2.8 | -7.1 | ||
| 2013-09-03T11:46 | 5751 | 511 | -3.2 | -9.0 | ||
| 2013-09-03T11:46 | 5787 | 508 | 111 | 11.0 | ||
| 2013-09-03T11:46 | 5859 | 504 | -3.9 | -8.7 | ||
| 2013-09-03T11:46 | 5900 | 501 | -4.1 | -7.9 | ||
| 2013-09-03T11:46 | 5918 | 500 | -4.2 | -7.5 | ||
| 2013-09-03T11:46 | 5935 | 499 | -4.2 | -8.7 | ||
| 2013-09-03T11:46 | 5959 | 497 | -4.4 | -6.4 | ||
| 2013-09-03T11:47 | 5988 | 496 | -4.5 | -8.8 | ||
| 2013-09-03T11:47 | 6000 | 495 | -4.6 | -9.6 | ||
| 2013-09-03T11:47 | 6034 | 493 | -4.7 | -8.5 | ||
| 2013-09-03T11:47 | 6137 | 486 | 108 | 8.0 | ||
| 2013-09-03T11:47 | 6165 | 485 | -5.8 | -9.5 | ||
| 2013-09-03T11:47 | 6188 | 483 | -5.9 | -10.9 | ||
| 2013-09-03T11:47 | 6211 | 482 | -6.1 | -9.8 | ||
| 2013-09-03T11:47 | 6233 | 480 | -6.2 | -10.4 | ||
| 2013-09-03T11:47 | 6250 | 479 | -6.3 | -11.6 | ||
| 2013-09-03T11:47 | 6278 | 478 | -6.5 | -9.7 | ||
| 2013-09-03T11:48 | 6328 | 475 | -6.7 | -10.9 | ||
| 2013-09-03T11:48 | 6356 | 473 | -6.7 | -13.0 | ||
| 2013-09-03T11:48 | 6408 | 470 | -6.9 | -15.3 | ||
| 2013-09-03T11:48 | 6473 | 466 | -7.2 | -17.9 | ||
| 2013-09-03T11:48 | 6479 | 465 | 99 | 8.0 | ||
| 2013-09-03T11:48 | 6539 | 462 | -7.8 | -20.0 | ||
| 2013-09-03T11:48 | 6607 | 458 | -8.3 | -18.4 | ||
| 2013-09-03T11:48 | 6651 | 455 | -8.7 | -20.5 | ||
| 2013-09-03T11:49 | 6773 | 448 | -9.4 | -22.0 | ||
| 2013-09-03T11:49 | 6792 | 447 | -9.5 | -17.1 | ||
| 2013-09-03T11:49 | 6834 | 445 | -9.7 | -17.5 | ||
| 2013-09-03T11:49 | 6846 | 444 | 95 | 8.0 | ||
| 2013-09-03T11:49 | 6864 | 443 | -9.7 | -23.3 | ||
| 2013-09-03T11:49 | 6936 | 439 | -10.0 | -20.2 | ||
| 2013-09-03T11:49 | 6972 | 437 | -10.1 | -28.3 | ||
| 2013-09-03T11:50 | 7062 | 432 | -10.6 | -29.3 | ||
| 2013-09-03T11:50 | 7110 | 429 | -10.9 | -30.6 | ||
| 2013-09-03T11:50 | 7147 | 427 | -11.2 | -31.5 | ||
| 2013-09-03T11:50 | 7207 | 424 | 98 | 9.0 | ||
| 2013-09-03T11:50 | 7260 | 421 | -11.6 | -37.2 | ||
| 2013-09-03T11:50 | 7296 | 419 | -11.8 | -25.2 | ||
| 2013-09-03T11:50 | 7354 | 416 | -12.2 | -21.7 | ||
| 2013-09-03T11:51 | 7390 | 414 | -12.5 | -26.9 | ||
| 2013-09-03T11:51 | 7567 | 404 | 94 | 11.0 | ||
| 2013-09-03T11:51 | 7708 | 397 | -15.1 | -28.8 | ||
| 2013-09-03T11:52 | 7959 | 384 | -17.3 | -31.1 | ||
| 2013-09-03T11:52 | 7966 | 383 | 89 | 11.0 | ||
| 2013-09-03T11:52 | 8035 | 380 | -17.9 | -31.3 | ||
| 2013-09-03T11:52 | 8142 | 374 | -18.8 | -27.6 | ||
| 2013-09-03T11:53 | 8175 | 373 | -19.0 | -24.8 | ||
| 2013-09-03T11:53 | 8213 | 371 | -19.4 | -24.8 | ||
| 2013-09-03T11:53 | 8250 | 369 | -19.6 | -26.8 | ||
| 2013-09-03T11:53 | 8320 | 366 | -20.0 | -26.7 | ||
| 2013-09-03T11:53 | 8353 | 364 | -20.1 | -24.8 | ||
| 2013-09-03T11:53 | 8398 | 362 | -20.1 | -30.5 | ||
| 2013-09-03T11:54 | 8756 | 345 | 84 | 13.0 | ||
| 2013-09-03T11:54 | 8802 | 342 | -23.6 | -32.5 | ||
| 2013-09-03T11:55 | 9007 | 333 | 81 | 14.0 | ||
| 2013-09-03T11:55 | 9020 | 332 | 80 | 14.0 | ||
| 2013-09-03T11:55 | 9149 | 326 | 79 | 14.0 | ||
| 2013-09-03T11:55 | 9246 | 322 | -27.0 | -30.4 | ||
| 2013-09-03T11:56 | 9371 | 316 | -27.9 | -30.4 | ||
| 2013-09-03T11:56 | 9446 | 313 | -28.5 | -32.0 | ||
| 2013-09-03T11:56 | 9554 | 308 | 78 | 13.0 | ||
| 2013-09-03T11:56 | 9730 | 301 | -30.4 | -33.0 | ||
| 2013-09-03T11:57 | 9960 | 291 | -32.4 | -34.2 | ||
| 2013-09-03T11:57 | 10006 | 289 | 83 | 13.0 | ||
| 2013-09-03T11:58 | 10244 | 280 | -35.0 | -37.2 | ||
| 2013-09-03T11:58 | 10423 | 273 | 83 | 15.0 | ||
| 2013-09-03T11:58 | 10547 | 268 | -37.6 | -41.2 | 83 | 15.0 |
| 2013-09-03T11:58 | 10572 | 267 | 82 | 15.0 | ||
| 2013-09-03T11:59 | 10672 | 263 | 86 | 15.0 | ||
| 2013-09-03T11:59 | 10809 | 258 | -40.0 | -43.2 | 87 | 14.0 |
| 2013-09-03T12:00 | 11209 | 243 | 95 | 11.0 | ||
| 2013-09-03T12:01 | 11595 | 229 | 98 | 10.0 | ||
| 2013-09-03T12:02 | 12000 | 216 | 88 | 5.0 | ||
| 2013-09-03T12:02 | 12134 | 211 | -50.6 | |||
| 2013-09-03T12:03 | 12377 | 204 | 14 | 7.0 | ||
| 2013-09-03T12:03 | 12397 | 203 | -51.7 | |||
| 2013-09-03T12:04 | 12761 | 192 | 11 | 10.0 | ||
| 2013-09-03T12:05 | 13164 | 180 | 32 | 10.0 | ||
| 2013-09-03T12:06 | 13555 | 169 | 58 | 11.0 | ||
| 2013-09-03T12:07 | 13975 | 158 | -64.8 | 67 | 13.0 | |
| 2013-09-03T12:08 | 14394 | 147 | 72 | 15.0 | ||
| 2013-09-03T12:09 | 14753 | 139 | -70.3 | |||
| 2013-09-03T12:09 | 14836 | 137 | -70.6 | 86 | 16.0 | |
| 2013-09-03T23:30 | 9 | 1013 | 27.3 | 24.8 | 120 | 6.0 |
| 2013-09-03T23:30 | 12 | 1012 | 26.8 | 23.1 | ||
| 2013-09-03T23:30 | 154 | 996 | 27.1 | 24.0 | ||
| 2013-09-03T23:31 | 293 | 981 | 26.1 | 23.4 | ||
| 2013-09-03T23:31 | 304 | 980 | 26.0 | 23.5 | ||
| 2013-09-03T23:31 | 310 | 979 | 26.0 | 25.5 | ||
| 2013-09-03T23:31 | 316 | 978 | 25.9 | 23.2 | ||
| 2013-09-03T23:31 | 332 | 977 | 25.8 | 25.8 | ||
| 2013-09-03T23:31 | 338 | 976 | 25.7 | 23.0 | ||
| 2013-09-03T23:31 | 349 | 975 | 25.6 | 25.3 | ||
| 2013-09-03T23:31 | 354 | 974 | 25.6 | 23.1 | 103 | 10.0 |
| 2013-09-03T23:31 | 365 | 973 | 25.5 | 25.5 | ||
| 2013-09-03T23:31 | 398 | 969 | 25.2 | 25.2 | ||
| 2013-09-03T23:31 | 415 | 967 | 25.1 | 23.0 | ||
| 2013-09-03T23:31 | 426 | 966 | 25.0 | 25.0 | ||
| 2013-09-03T23:31 | 476 | 961 | 24.6 | 22.7 | ||
| 2013-09-03T23:32 | 593 | 948 | 23.8 | 21.5 | ||
| 2013-09-03T23:32 | 605 | 947 | 23.7 | 23.7 | ||
| 2013-09-03T23:32 | 666 | 940 | 23.2 | 21.1 | ||
| 2013-09-03T23:32 | 688 | 938 | 111 | 10.0 | ||
| 2013-09-03T23:32 | 711 | 935 | 22.8 | 21.1 | ||
| 2013-09-03T23:32 | 749 | 931 | 22.5 | 22.5 | ||
| 2013-09-03T23:32 | 772 | 929 | 22.4 | 22.4 | ||
| 2013-09-03T23:32 | 839 | 922 | 21.9 | 21.1 | ||
| 2013-09-03T23:32 | 845 | 921 | 21.9 | 20.4 | ||
| 2013-09-03T23:32 | 850 | 920 | 21.8 | 21.8 | ||
| 2013-09-03T23:33 | 861 | 919 | 21.8 | 20.3 | ||
| 2013-09-03T23:33 | 884 | 917 | 21.6 | 21.6 | ||
| 2013-09-03T23:33 | 889 | 916 | 21.6 | 20.1 | ||
| 2013-09-03T23:33 | 917 | 913 | 21.4 | 21.1 | ||
| 2013-09-03T23:33 | 928 | 912 | 113 | 11.0 | ||
| 2013-09-03T23:33 | 938 | 911 | 113 | 11.0 | ||
| 2013-09-03T23:33 | 1013 | 903 | 20.9 | 20.9 | ||
| 2013-09-03T23:33 | 1039 | 901 | 20.7 | 20.7 | ||
| 2013-09-03T23:33 | 1045 | 900 | 20.7 | 19.0 | ||
| 2013-09-03T23:33 | 1050 | 899 | 20.7 | 19.2 | ||
| 2013-09-03T23:33 | 1060 | 898 | 20.6 | 18.9 | ||
| 2013-09-03T23:33 | 1082 | 896 | 20.5 | 19.2 | ||
| 2013-09-03T23:33 | 1092 | 895 | 20.4 | 19.6 | ||
| 2013-09-03T23:34 | 1198 | 884 | 19.9 | 19.6 | ||
| 2013-09-03T23:34 | 1219 | 882 | 19.8 | 19.8 | ||
| 2013-09-03T23:34 | 1236 | 880 | 19.8 | 18.8 | ||
| 2013-09-03T23:34 | 1258 | 878 | 19.7 | 19.4 | ||
| 2013-09-03T23:34 | 1343 | 869 | 105 | 10.0 | ||
| 2013-09-03T23:34 | 1373 | 867 | 19.0 | 19.0 | ||
| 2013-09-03T23:34 | 1378 | 866 | 19.0 | 18.0 | ||
| 2013-09-03T23:34 | 1390 | 865 | 18.9 | 18.9 | ||
| 2013-09-03T23:34 | 1490 | 855 | 18.6 | 17.9 | ||
| 2013-09-03T23:34 | 1507 | 853 | 18.5 | 16.1 | ||
| 2013-09-03T23:35 | 1536 | 850 | 18.3 | 18.3 | ||
| 2013-09-03T23:35 | 1571 | 847 | 18.2 | 16.5 | ||
| 2013-09-03T23:35 | 1588 | 845 | 18.2 | 17.4 | ||
| 2013-09-03T23:35 | 1600 | 844 | 18.1 | 15.9 | ||
| 2013-09-03T23:35 | 1611 | 843 | 18.0 | 16.2 | ||
| 2013-09-03T23:35 | 1646 | 840 | 17.8 | 16.8 | ||
| 2013-09-03T23:35 | 1669 | 837 | 17.6 | 17.6 | ||
| 2013-09-03T23:35 | 1687 | 836 | 17.5 | 17.5 | ||
| 2013-09-03T23:35 | 1692 | 835 | 17.5 | 17.5 | 102 | 10.0 |
| 2013-09-03T23:35 | 1698 | 834 | 17.4 | 15.7 | ||
| 2013-09-03T23:35 | 1727 | 832 | 17.2 | 15.9 | ||
| 2013-09-03T23:35 | 1745 | 830 | 17.1 | 15.8 | ||
| 2013-09-03T23:35 | 1750 | 829 | 17.1 | 17.1 | ||
| 2013-09-03T23:35 | 1784 | 826 | 17.0 | 17.0 | ||
| 2013-09-03T23:35 | 1807 | 824 | 16.9 | 16.9 | ||
| 2013-09-03T23:36 | 2023 | 803 | 103 | 9.0 | ||
| 2013-09-03T23:36 | 2115 | 795 | 15.6 | 15.6 | ||
| 2013-09-03T23:37 | 2345 | 774 | 105 | 10.0 | ||
| 2013-09-03T23:37 | 2417 | 767 | 14.0 | 14.0 | ||
| 2013-09-03T23:38 | 2642 | 747 | 99 | 7.0 | ||
| 2013-09-03T23:39 | 2969 | 718 | 99 | 8.0 | ||
| 2013-09-03T23:39 | 2980 | 717 | 11.1 | 11.1 | ||
| 2013-09-03T23:40 | 3273 | 693 | 9.5 | 9.5 | ||
| 2013-09-03T23:40 | 3313 | 689 | 90 | 8.0 | ||
| 2013-09-03T23:40 | 3476 | 676 | 8.3 | 8.3 | ||
| 2013-09-03T23:41 | 3510 | 673 | 8.1 | 8.1 | ||
| 2013-09-03T23:41 | 3650 | 662 | 89 | 7.0 | ||
| 2013-09-03T23:41 | 3806 | 650 | 6.8 | 6.8 | ||
| 2013-09-03T23:42 | 3963 | 637 | 6.7 | 6.0 | ||
| 2013-09-03T23:42 | 4019 | 633 | 79 | 6.0 | ||
| 2013-09-03T23:42 | 4080 | 628 | 5.8 | 4.9 | ||
| 2013-09-03T23:42 | 4164 | 622 | 5.1 | 3.4 | ||
| 2013-09-03T23:43 | 4272 | 614 | 4.2 | 3.8 | ||
| 2013-09-03T23:43 | 4362 | 607 | 3.6 | 3.0 | ||
| 2013-09-03T23:43 | 4380 | 606 | 75 | 9.0 | ||
| 2013-09-03T23:43 | 4552 | 593 | 2.3 | 2.3 | ||
| 2013-09-03T23:44 | 4671 | 584 | 1.7 | 1.4 | ||
| 2013-09-03T23:44 | 4700 | 582 | 1.7 | 0.2 | ||
| 2013-09-03T23:44 | 4730 | 580 | 1.7 | -0.1 | ||
| 2013-09-03T23:44 | 4761 | 578 | 1.6 | -1.6 | ||
| 2013-09-03T23:44 | 4876 | 570 | 0.8 | -3.1 | ||
| 2013-09-03T23:45 | 4950 | 564 | 0.2 | -3.4 | ||
| 2013-09-03T23:45 | 4968 | 563 | 0.1 | -5.1 | ||
| 2013-09-03T23:45 | 4993 | 561 | 0.0 | -3.9 | ||
| 2013-09-03T23:45 | 5017 | 560 | -0.1 | -5.9 | ||
| 2013-09-03T23:45 | 5035 | 558 | -0.2 | -4.6 | ||
| 2013-09-03T23:45 | 5059 | 557 | -0.3 | -6.1 | ||
| 2013-09-03T23:45 | 5089 | 555 | -0.4 | -6.2 | ||
| 2013-09-03T23:45 | 5101 | 554 | 70 | 8.0 | ||
| 2013-09-03T23:45 | 5137 | 551 | -0.7 | -8.2 | ||
| 2013-09-03T23:45 | 5248 | 544 | -1.4 | -8.2 | ||
| 2013-09-03T23:45 | 5271 | 542 | -1.6 | -7.3 | ||
| 2013-09-03T23:46 | 5295 | 540 | -1.8 | -1.8 | ||
| 2013-09-03T23:46 | 5312 | 539 | -2.0 | -2.7 | ||
| 2013-09-03T23:46 | 5330 | 538 | -2.1 | -2.1 | ||
| 2013-09-03T23:46 | 5455 | 530 | 73 | 8.0 | ||
| 2013-09-03T23:46 | 5473 | 529 | -3.0 | -3.3 | ||
| 2013-09-03T23:46 | 5485 | 528 | -3.1 | -5.4 | ||
| 2013-09-03T23:46 | 5497 | 527 | -3.1 | -13.1 | ||
| 2013-09-03T23:46 | 5516 | 526 | -3.2 | -15.2 | ||
| 2013-09-03T23:46 | 5528 | 525 | -3.3 | -5.6 | ||
| 2013-09-03T23:46 | 5534 | 524 | -3.3 | -4.7 | ||
| 2013-09-03T23:46 | 5558 | 523 | -3.5 | -6.1 | ||
| 2013-09-03T23:46 | 5577 | 522 | -3.6 | -5.9 | ||
| 2013-09-03T23:46 | 5589 | 521 | -3.7 | -14.8 | ||
| 2013-09-03T23:46 | 5595 | 520 | -3.8 | -14.0 | ||
| 2013-09-03T23:46 | 5626 | 518 | -4.0 | -13.9 | ||
| 2013-09-03T23:47 | 5644 | 517 | -4.2 | -15.2 | ||
| 2013-09-03T23:47 | 5656 | 516 | -4.2 | -12.1 | ||
| 2013-09-03T23:47 | 5681 | 515 | -4.4 | -13.8 | ||
| 2013-09-03T23:47 | 5819 | 506 | 54 | 10.0 | ||
| 2013-09-03T23:48 | 5992 | 495 | -6.9 | -18.0 | ||
| 2013-09-03T23:48 | 6026 | 493 | -7.0 | -21.3 | ||
| 2013-09-03T23:48 | 6134 | 486 | -7.2 | -23.9 | ||
| 2013-09-03T23:48 | 6162 | 484 | 59 | 8.0 | ||
| 2013-09-03T23:48 | 6293 | 476 | -8.3 | -27.3 | ||
| 2013-09-03T23:49 | 6342 | 473 | -8.7 | -24.8 | ||
| 2013-09-03T23:49 | 6379 | 471 | -9.0 | -27.9 | ||
| 2013-09-03T23:49 | 6423 | 468 | -9.2 | -25.6 | ||
| 2013-09-03T23:49 | 6493 | 464 | -9.6 | -29.0 | ||
| 2013-09-03T23:49 | 6531 | 461 | 40 | 9.0 | ||
| 2013-09-03T23:50 | 6836 | 443 | -12.0 | -30.4 | ||
| 2013-09-03T23:50 | 6888 | 440 | 33 | 9.0 | ||
| 2013-09-03T23:51 | 7143 | 426 | -14.8 | -32.8 | ||
| 2013-09-03T23:51 | 7231 | 421 | -15.4 | -31.4 | 40 | 10.0 |
| 2013-09-03T23:51 | 7263 | 419 | -15.6 | -36.4 | ||
| 2013-09-03T23:52 | 7562 | 403 | 41 | 10.0 | ||
| 2013-09-03T23:52 | 7671 | 397 | -19.0 | -34.6 | ||
| 2013-09-03T23:53 | 7774 | 391 | -19.4 | -35.8 | ||
| 2013-09-03T23:53 | 7821 | 389 | -19.7 | -31.3 | ||
| 2013-09-03T23:53 | 7862 | 387 | -19.9 | -39.3 | ||
| 2013-09-03T23:53 | 7921 | 384 | 44 | 15.0 | ||
| 2013-09-03T23:54 | 8166 | 371 | -21.9 | -40.4 | ||
| 2013-09-03T23:54 | 8210 | 369 | -22.1 | -35.4 | ||
| 2013-09-03T23:54 | 8248 | 367 | -22.3 | -31.5 | ||
| 2013-09-03T23:54 | 8292 | 365 | 52 | 16.0 | ||
| 2013-09-03T23:54 | 8329 | 363 | -22.8 | -37.1 | ||
| 2013-09-03T23:54 | 8378 | 361 | -23.2 | -39.5 | ||
| 2013-09-03T23:55 | 8475 | 356 | -24.2 | -34.0 | ||
| 2013-09-03T23:55 | 8668 | 346 | 51 | 18.0 | ||
| 2013-09-03T23:55 | 8846 | 338 | -27.6 | -33.3 | ||
| 2013-09-03T23:56 | 8985 | 332 | -28.6 | -35.0 | ||
| 2013-09-03T23:56 | 9054 | 328 | -28.8 | -35.8 | ||
| 2013-09-03T23:56 | 9082 | 327 | 52 | 17.0 | ||
| 2013-09-03T23:57 | 9320 | 316 | -30.6 | -34.9 | ||
| 2013-09-03T23:57 | 9498 | 308 | 55 | 18.0 | ||
| 2013-09-03T23:58 | 9757 | 297 | -33.1 | -36.2 | ||
| 2013-09-03T23:58 | 9868 | 293 | 61 | 23.0 | ||
| 2013-09-03T23:58 | 9910 | 291 | 62 | 23.0 | ||
| 2013-09-03T23:58 | 9931 | 290 | 62 | 23.0 | ||
| 2013-09-03T23:59 | 10160 | 281 | -35.5 | -39.4 | ||
| 2013-09-03T23:59 | 10311 | 275 | 66 | 20.0 | ||
| 2013-09-04T00:00 | 10617 | 263 | -38.8 | -43.1 | ||
| 2013-09-04T00:00 | 10703 | 259 | 70 | 22.0 | ||
| 2013-09-04T00:00 | 10756 | 257 | -40.0 | -44.6 | ||
| 2013-09-04T00:01 | 11115 | 244 | 74 | 20.0 | ||
| 2013-09-04T00:02 | 11520 | 230 | 70 | 20.0 | ||
| 2013-09-04T00:03 | 11894 | 217 | 66 | 21.0 | ||
| 2013-09-04T00:04 | 12250 | 206 | -52.0 | |||
| 2013-09-04T00:04 | 12312 | 204 | 74 | 23.0 | ||
| 2013-09-04T00:05 | 12685 | 192 | 77 | 21.0 | ||
| 2013-09-04T00:06 | 13010 | 183 | -57.7 | |||
| 2013-09-04T00:06 | 13073 | 181 | 77 | 21.0 | ||
| 2013-09-04T00:07 | 13257 | 176 | -59.1 | |||
| 2013-09-04T00:07 | 13424 | 171 | 78 | 27.0 | ||
| 2013-09-04T00:08 | 13777 | 161 | 80 | 26.0 | ||
| 2013-09-04T00:09 | 13982 | 156 | -63.5 | |||
| 2013-09-04T00:09 | 14011 | 155 | -63.7 | |||
| 2013-09-04T00:09 | 14108 | 153 | -64.1 | |||
| 2013-09-04T00:09 | 14216 | 150 | 88 | 27.0 | ||
| 2013-09-04T00:09 | 14253 | 149 | 88 | 27.0 | ||
| 2013-09-04T00:09 | 14309 | 148 | 87 | 27.0 | ||
| 2013-09-04T00:10 | 14513 | 143 | 87 | 25.0 | ||
| 2013-09-04T00:10 | 14549 | 142 | -66.3 | |||
| 2013-09-04T00:11 | 14917 | 134 | 91 | 22.0 | ||
| 2013-09-04T00:12 | 15195 | 128 | -70.7 | |||
| 2013-09-04T00:12 | 15292 | 126 | 99 | 20.0 | ||
| 2013-09-04T00:13 | 15747 | 116 | 94 | 22.0 | ||
| 2013-09-04T00:13 | 15893 | 113 | -73.9 | |||
| 2013-09-04T00:14 | 16149 | 109 | 99 | 20.0 | ||
| 2013-09-04T00:14 | 16295 | 106 | -72.4 | |||
| 2013-09-04T00:15 | 16502 | 102 | 105 | 17.0 | ||
| 2013-09-04T00:15 | 16565 | 101 | -73.4 | |||
| 2013-09-04T00:15 | 16625 | 100 | -73.0 | 102 | 17.0 | |
| 2013-09-04T00:16 | 16987 | 0 | 97 | 16.0 | ||
| 2013-09-04T11:30 | 9 | 1013 | 28.5 | 25.5 | 70 | 6.0 |
| 2013-09-04T11:31 | 339 | 976 | 25.5 | 23.4 | ||
| 2013-09-04T11:31 | 345 | 975 | 82 | 8.0 | ||
| 2013-09-04T11:32 | 516 | 957 | 24.2 | 22.1 | ||
| 2013-09-04T11:32 | 692 | 938 | 97 | 10.0 | ||
| 2013-09-04T11:32 | 715 | 935 | 23.4 | 18.9 | ||
| 2013-09-04T11:32 | 786 | 928 | 99 | 11.0 | ||
| 2013-09-04T11:32 | 792 | 927 | 100 | 11.0 | ||
| 2013-09-04T11:32 | 827 | 923 | 100 | 11.0 | ||
| 2013-09-04T11:33 | 874 | 918 | 22.6 | 18.2 | ||
| 2013-09-04T11:33 | 1046 | 900 | 96 | 9.0 | ||
| 2013-09-04T11:34 | 1371 | 867 | 19.3 | 16.2 | ||
| 2013-09-04T11:34 | 1423 | 862 | 91 | 6.0 | ||
| 2013-09-04T11:35 | 1799 | 825 | 84 | 8.0 | ||
| 2013-09-04T11:35 | 1836 | 821 | 16.6 | 14.6 | ||
| 2013-09-04T11:35 | 1940 | 812 | 16.6 | 13.7 | ||
| 2013-09-04T11:36 | 2148 | 792 | 15.2 | 13.2 | ||
| 2013-09-04T11:36 | 2166 | 790 | 69 | 7.0 | ||
| 2013-09-04T11:36 | 2313 | 777 | 14.9 | 11.1 | ||
| 2013-09-04T11:37 | 2392 | 770 | 15.0 | 8.7 | ||
| 2013-09-04T11:37 | 2484 | 761 | 14.8 | 7.8 | ||
| 2013-09-04T11:37 | 2534 | 757 | 75 | 6.0 | ||
| 2013-09-04T11:37 | 2601 | 751 | 14.1 | 9.3 | ||
| 2013-09-04T11:37 | 2649 | 747 | 14.1 | 7.8 | ||
| 2013-09-04T11:37 | 2703 | 742 | 13.9 | 6.5 | ||
| 2013-09-04T11:38 | 2745 | 738 | 13.8 | 5.9 | ||
| 2013-09-04T11:38 | 2763 | 737 | 13.8 | 5.4 | ||
| 2013-09-04T11:38 | 2895 | 725 | 82 | 7.0 | ||
| 2013-09-04T11:38 | 2913 | 724 | 13.2 | -0.5 | ||
| 2013-09-04T11:38 | 3050 | 712 | 12.3 | -3.1 | ||
| 2013-09-04T11:39 | 3270 | 693 | 90 | 10.0 | ||
| 2013-09-04T11:39 | 3295 | 691 | 10.6 | 0.3 | ||
| 2013-09-04T11:40 | 3477 | 676 | 9.4 | -0.5 | ||
| 2013-09-04T11:40 | 3608 | 666 | 8.5 | -0.3 | ||
| 2013-09-04T11:40 | 3645 | 663 | 97 | 13.0 | ||
| 2013-09-04T11:40 | 3805 | 650 | 101 | 13.0 | ||
| 2013-09-04T11:40 | 3811 | 649 | 101 | 13.0 | ||
| 2013-09-04T11:40 | 3824 | 648 | 6.8 | -1.4 | ||
| 2013-09-04T11:41 | 3892 | 643 | 6.3 | -1.6 | ||
| 2013-09-04T11:41 | 3941 | 639 | 6.1 | -2.3 | ||
| 2013-09-04T11:41 | 4015 | 633 | 98 | 12.0 | ||
| 2013-09-04T11:41 | 4033 | 632 | 5.8 | -5.5 | ||
| 2013-09-04T11:41 | 4045 | 631 | 5.8 | -3.0 | ||
| 2013-09-04T11:41 | 4070 | 629 | 5.7 | -5.6 | ||
| 2013-09-04T11:41 | 4174 | 621 | 5.0 | -7.2 | ||
| 2013-09-04T11:42 | 4215 | 618 | 4.7 | -6.8 | ||
| 2013-09-04T11:42 | 4268 | 614 | 4.4 | -9.7 | ||
| 2013-09-04T11:42 | 4344 | 608 | 4.0 | -11.2 | ||
| 2013-09-04T11:42 | 4374 | 606 | 106 | 11.0 | ||
| 2013-09-04T11:42 | 4386 | 605 | 3.7 | -9.3 | ||
| 2013-09-04T11:42 | 4422 | 602 | 3.4 | -11.4 | ||
| 2013-09-04T11:42 | 4447 | 601 | 3.3 | -10.0 | ||
| 2013-09-04T11:42 | 4495 | 597 | 2.9 | -9.4 | ||
| 2013-09-04T11:42 | 4539 | 594 | 2.5 | -6.9 | ||
| 2013-09-04T11:43 | 4663 | 585 | 1.7 | -10.2 | ||
| 2013-09-04T11:43 | 4741 | 579 | 101 | 12.0 | ||
| 2013-09-04T11:43 | 4881 | 569 | 0.4 | -13.3 | ||
| 2013-09-04T11:43 | 4893 | 568 | 0.4 | -9.9 | ||
| 2013-09-04T11:43 | 4918 | 567 | 0.3 | -14.5 | ||
| 2013-09-04T11:44 | 4930 | 566 | 0.3 | -17.0 | ||
| 2013-09-04T11:44 | 4960 | 564 | 0.2 | -9.8 | ||
| 2013-09-04T11:44 | 4991 | 561 | 0.1 | -12.5 | ||
| 2013-09-04T11:44 | 5100 | 554 | -0.8 | -11.0 | ||
| 2013-09-04T11:44 | 5107 | 553 | 102 | 14.0 | ||
| 2013-09-04T11:44 | 5184 | 548 | -1.5 | -7.2 | ||
| 2013-09-04T11:45 | 5491 | 527 | 105 | 12.0 | ||
| 2013-09-04T11:45 | 5599 | 520 | -4.4 | -11.2 | ||
| 2013-09-04T11:45 | 5651 | 517 | -4.6 | -15.9 | ||
| 2013-09-04T11:46 | 5712 | 513 | -5.2 | -13.3 | ||
| 2013-09-04T11:46 | 5813 | 506 | -6.0 | -14.5 | ||
| 2013-09-04T11:46 | 5847 | 504 | -6.1 | -14.1 | ||
| 2013-09-04T11:46 | 5887 | 501 | 110 | 13.0 | ||
| 2013-09-04T11:46 | 5901 | 500 | -6.2 | -15.9 | ||
| 2013-09-04T11:46 | 5948 | 497 | -6.3 | -16.0 | ||
| 2013-09-04T11:46 | 5968 | 496 | -6.4 | -16.4 | ||
| 2013-09-04T11:46 | 6021 | 493 | -6.7 | -14.7 | ||
| 2013-09-04T11:46 | 6081 | 489 | 108 | 14.0 | ||
| 2013-09-04T11:47 | 6133 | 486 | -7.5 | -17.1 | ||
| 2013-09-04T11:47 | 6263 | 478 | -8.5 | -16.4 | ||
| 2013-09-04T11:47 | 6282 | 477 | 109 | 13.0 | ||
| 2013-09-04T11:47 | 6301 | 475 | -8.8 | -16.7 | ||
| 2013-09-04T11:47 | 6326 | 474 | -9.0 | -17.5 | ||
| 2013-09-04T11:47 | 6350 | 472 | -9.1 | -16.7 | ||
| 2013-09-04T11:47 | 6386 | 470 | -9.4 | -19.1 | ||
| 2013-09-04T11:48 | 6486 | 464 | -10.2 | -18.4 | ||
| 2013-09-04T11:48 | 6607 | 457 | -11.3 | -14.7 | ||
| 2013-09-04T11:48 | 6624 | 456 | -11.4 | -13.3 | ||
| 2013-09-04T11:48 | 6636 | 455 | 111 | 12.0 | ||
| 2013-09-04T11:48 | 6654 | 454 | -11.6 | -12.2 | ||
| 2013-09-04T11:48 | 6689 | 452 | -11.6 | -12.9 | ||
| 2013-09-04T11:48 | 6761 | 448 | -11.7 | -12.5 | ||
| 2013-09-04T11:49 | 6993 | 435 | 114 | 11.0 | ||
| 2013-09-04T11:49 | 7046 | 432 | -12.7 | -15.0 | ||
| 2013-09-04T11:50 | 7357 | 414 | 113 | 11.0 | ||
| 2013-09-04T11:51 | 7656 | 398 | -16.8 | -18.7 | ||
| 2013-09-04T11:51 | 7730 | 394 | 109 | 11.0 | ||
| 2013-09-04T11:52 | 8001 | 380 | -19.4 | -20.6 | ||
| 2013-09-04T11:52 | 8110 | 375 | 107 | 13.0 | ||
| 2013-09-04T11:52 | 8273 | 367 | -21.2 | -23.2 | ||
| 2013-09-04T11:53 | 8372 | 362 | -21.8 | -24.5 | ||
| 2013-09-04T11:53 | 8440 | 358 | -21.9 | -25.7 | ||
| 2013-09-04T11:53 | 8484 | 356 | 113 | 18.0 | ||
| 2013-09-04T11:53 | 8515 | 355 | 110 | 18.0 | ||
| 2013-09-04T11:53 | 8628 | 349 | -22.8 | -26.9 | ||
| 2013-09-04T11:54 | 8751 | 343 | -23.6 | -28.2 | ||
| 2013-09-04T11:54 | 8787 | 342 | -23.8 | -30.3 | ||
| 2013-09-04T11:54 | 8856 | 339 | 109 | 15.0 | ||
| 2013-09-04T11:54 | 9008 | 331 | -25.4 | -30.9 | ||
| 2013-09-04T11:55 | 9118 | 327 | -26.3 | -32.7 | ||
| 2013-09-04T11:55 | 9221 | 322 | -27.0 | -32.3 | ||
| 2013-09-04T11:55 | 9239 | 321 | 107 | 12.0 | ||
| 2013-09-04T11:56 | 9437 | 312 | -28.4 | -35.0 | ||
| 2013-09-04T11:56 | 9509 | 309 | -29.0 | -35.2 | ||
| 2013-09-04T11:56 | 9573 | 307 | -29.4 | -38.3 | ||
| 2013-09-04T11:56 | 9597 | 306 | 113 | 14.0 | ||
| 2013-09-04T11:57 | 9955 | 290 | 114 | 14.0 | ||
| 2013-09-04T11:58 | 10177 | 281 | -34.7 | -40.1 | ||
| 2013-09-04T11:58 | 10302 | 276 | -35.3 | -42.6 | ||
| 2013-09-04T11:58 | 10327 | 275 | 112 | 12.0 | ||
| 2013-09-04T11:58 | 10481 | 269 | -36.6 | -45.6 | ||
| 2013-09-04T11:59 | 10700 | 261 | 116 | 12.0 | ||
| 2013-09-04T11:59 | 10882 | 254 | -40.0 | -47.4 | ||
| 2013-09-04T12:00 | 11083 | 247 | 115 | 12.0 | ||
| 2013-09-04T12:01 | 11497 | 232 | 115 | 15.0 | ||
| 2013-09-04T12:02 | 11886 | 219 | 109 | 15.0 | ||
| 2013-09-04T12:03 | 12284 | 206 | 113 | 14.0 | ||
| 2013-09-04T12:04 | 12603 | 196 | -53.0 | |||
| 2013-09-04T12:04 | 12661 | 194 | 110 | 15.0 | ||
| 2013-09-04T12:05 | 13037 | 183 | 109 | 16.0 | ||
| 2013-09-04T12:06 | 13395 | 173 | 107 | 18.0 | ||
| 2013-09-04T12:07 | 13745 | 164 | -60.9 | |||
| 2013-09-04T12:07 | 13790 | 163 | 107 | 20.0 | ||
| 2013-09-04T12:08 | 14123 | 154 | 115 | 21.0 | ||
| 2013-09-04T12:08 | 14175 | 153 | 117 | 20.0 | ||
| 2013-09-04T12:08 | 14263 | 151 | -64.5 | |||
| 2013-09-04T12:09 | 14588 | 143 | 111 | 18.0 | ||
| 2013-09-04T12:09 | 14746 | 139 | -67.3 | |||
| 2013-09-04T12:10 | 15055 | 132 | 113 | 16.0 | ||
| 2013-09-04T12:11 | 15542 | 122 | 113 | 16.0 | ||
| 2013-09-04T12:11 | 15641 | 120 | -74.4 | |||
| 2013-09-04T12:12 | 15873 | 115 | -75.4 | |||
| 2013-09-04T12:12 | 16004 | 112 | 106 | 21.0 | ||
| 2013-09-04T12:12 | 16173 | 109 | -76.0 | |||
| 2013-09-04T12:12 | 16222 | 108 | 100 | 21.0 | ||
| 2013-09-04T12:13 | 16471 | 104 | 97 | 21.0 | ||
| 2013-09-04T12:14 | 16674 | 100 | -76.2 | 98 | 21.0 | |
| 2013-09-04T12:14 | 16879 | 97 | 100 | 21.0 | ||
| 2013-09-04T12:14 | 17004 | 94 | -77.4 | |||
| 2013-09-04T12:15 | 17320 | 89 | -74.0 | |||
| 2013-09-04T12:15 | 17360 | 89 | 104 | 20.0 | ||
| 2013-09-04T12:15 | 17590 | 85 | -72.1 | |||
| 2013-09-04T12:16 | 17813 | 82 | 104 | 18.0 | ||
| 2013-09-04T12:16 | 17887 | 81 | -71.3 | |||
| 2013-09-04T12:17 | 18202 | 77 | 109 | 14.0 | ||
| 2013-09-04T12:18 | 18450 | 74 | -71.0 | |||
| 2013-09-04T12:18 | 18592 | 72 | 93 | 17.0 | ||
| 2013-09-04T12:19 | 18972 | 68 | 104 | 19.0 | ||
| 2013-09-04T12:20 | 19161 | 65 | -70.0 | |||
| 2013-09-04T12:20 | 19335 | 64 | 96 | 16.0 | ||
| 2013-09-04T12:20 | 19456 | 62 | -66.5 | |||
| 2013-09-04T12:21 | 19699 | 60 | 80 | 15.0 | ||
| 2013-09-04T12:22 | 20074 | 56 | 64 | 16.0 | ||
| 2013-09-04T12:23 | 20461 | 53 | 60 | 20.0 | ||
| 2013-09-04T12:24 | 20769 | 50 | -63.7 | |||
| 2013-09-04T12:24 | 20826 | 50 | 70 | 21.0 | ||
| 2013-09-04T12:25 | 21085 | 48 | 73 | 23.0 | ||
| 2013-09-04T12:25 | 21098 | 48 | 73 | 23.0 | ||
| 2013-09-04T12:25 | 21117 | 48 | 72 | 23.0 | ||
| 2013-09-04T12:25 | 21214 | 47 | 75 | 23.0 | ||
| 2013-09-04T12:25 | 21380 | 46 | -59.5 | |||
| 2013-09-04T12:26 | 21611 | 44 | 99 | 19.0 | ||
| 2013-09-04T12:26 | 21796 | 43 | -57.4 | |||
| 2013-09-04T12:27 | 22045 | 41 | 116 | 14.0 | ||
| 2013-09-04T12:28 | 22502 | 38 | 104 | 13.0 | ||
| 2013-09-04T12:28 | 22688 | 37 | -59.5 | |||
| 2013-09-04T12:29 | 22961 | 35 | 99 | 15.0 | ||
| 2013-09-04T12:30 | 23419 | 33 | 85 | 18.0 | ||
| 2013-09-04T12:30 | 23434 | 33 | -59.2 | |||
| 2013-09-04T12:31 | 23879 | 31 | 74 | 16.0 | ||
| 2013-09-04T12:32 | 24274 | 29 | -57.6 | |||
| 2013-09-04T12:32 | 24343 | 28 | 76 | 19.0 | ||
| 2013-09-04T12:33 | 24778 | 27 | 89 | 21.0 | ||
| 2013-09-04T12:33 | 24898 | 26 | -52.2 | |||
| 2013-09-04T12:34 | 25185 | 25 | 105 | 21.0 | ||
| 2013-09-04T12:34 | 25363 | 24 | -52.1 | |||
| 2013-09-04T12:35 | 25491 | 24 | -52.1 | 103 | 20.0 | |
| 2013-09-04T23:30 | 9 | 1014 | 30.0 | 25.1 | 80 | 6.0 |
| 2013-09-04T23:30 | 31 | 1011 | 28.4 | 21.9 | ||
| 2013-09-04T23:31 | 328 | 978 | 87 | 7.0 | ||
| 2013-09-04T23:32 | 522 | 956 | 24.2 | 21.5 | ||
| 2013-09-04T23:32 | 676 | 940 | 88 | 8.0 | ||
| 2013-09-04T23:32 | 793 | 927 | 22.9 | 18.2 | ||
| 2013-09-04T23:33 | 928 | 913 | 22.2 | 17.6 | ||
| 2013-09-04T23:33 | 1026 | 903 | 87 | 8.0 | ||
| 2013-09-04T23:34 | 1200 | 885 | 20.1 | 16.7 | ||
| 2013-09-04T23:34 | 1388 | 866 | 86 | 9.0 | ||
| 2013-09-04T23:34 | 1450 | 860 | 18.8 | 15.7 | ||
| 2013-09-04T23:34 | 1481 | 857 | 18.7 | 16.1 | ||
| 2013-09-04T23:34 | 1532 | 852 | 18.8 | 12.5 | ||
| 2013-09-04T23:34 | 1550 | 850 | 18.7 | 14.6 | ||
| 2013-09-04T23:35 | 1649 | 840 | 17.9 | 14.0 | ||
| 2013-09-04T23:35 | 1761 | 829 | 88 | 9.0 | ||
| 2013-09-04T23:35 | 1856 | 820 | 16.6 | 13.7 | ||
| 2013-09-04T23:35 | 1881 | 817 | 89 | 9.0 | ||
| 2013-09-04T23:35 | 1894 | 816 | 16.5 | 9.9 | ||
| 2013-09-04T23:35 | 1925 | 813 | 16.2 | 12.7 | ||
| 2013-09-04T23:36 | 2009 | 805 | 15.7 | 13.9 | ||
| 2013-09-04T23:36 | 2045 | 802 | 15.8 | 12.5 | ||
| 2013-09-04T23:36 | 2068 | 800 | 15.8 | 12.9 | ||
| 2013-09-04T23:36 | 2092 | 797 | 15.7 | 9.6 | ||
| 2013-09-04T23:36 | 2115 | 795 | 15.7 | 11.3 | ||
| 2013-09-04T23:36 | 2127 | 794 | 15.6 | 9.3 | 93 | 8.0 |
| 2013-09-04T23:36 | 2162 | 791 | 15.3 | 10.3 | ||
| 2013-09-04T23:36 | 2185 | 789 | 15.1 | 11.7 | ||
| 2013-09-04T23:36 | 2203 | 787 | 15.0 | 10.0 | ||
| 2013-09-04T23:36 | 2226 | 785 | 14.8 | 12.8 | ||
| 2013-09-04T23:36 | 2266 | 781 | 14.5 | 12.7 | ||
| 2013-09-04T23:37 | 2400 | 769 | 14.0 | 11.2 | ||
| 2013-09-04T23:37 | 2477 | 762 | 83 | 8.0 | ||
| 2013-09-04T23:37 | 2513 | 759 | 13.6 | 10.0 | ||
| 2013-09-04T23:37 | 2609 | 750 | 13.4 | 6.0 | ||
| 2013-09-04T23:37 | 2639 | 748 | 13.3 | 4.7 | ||
| 2013-09-04T23:38 | 2699 | 742 | 12.9 | 6.5 | ||
| 2013-09-04T23:38 | 2830 | 731 | 12.1 | 3.3 | ||
| 2013-09-04T23:38 | 2902 | 725 | 11.9 | 4.1 | ||
| 2013-09-04T23:38 | 2964 | 719 | 11.7 | 2.2 | ||
| 2013-09-04T23:39 | 3074 | 710 | 10.9 | 5.0 | ||
| 2013-09-04T23:39 | 3148 | 704 | 10.3 | 5.1 | ||
| 2013-09-04T23:39 | 3203 | 699 | 94 | 7.0 | ||
| 2013-09-04T23:39 | 3269 | 694 | 9.8 | 3.1 | ||
| 2013-09-04T23:39 | 3292 | 692 | 9.7 | 1.6 | ||
| 2013-09-04T23:40 | 3385 | 684 | 9.2 | 2.5 | ||
| 2013-09-04T23:40 | 3461 | 678 | 8.7 | 0.7 | ||
| 2013-09-04T23:40 | 3473 | 677 | 8.6 | -0.7 | ||
| 2013-09-04T23:40 | 3491 | 675 | 8.5 | 0.7 | ||
| 2013-09-04T23:40 | 3526 | 673 | 8.2 | 0.4 | ||
| 2013-09-04T23:40 | 3555 | 670 | 8.0 | 2.0 | 102 | 9.0 |
| 2013-09-04T23:40 | 3579 | 668 | 7.8 | 1.4 | ||
| 2013-09-04T23:40 | 3695 | 659 | 7.3 | -0.2 | ||
| 2013-09-04T23:41 | 3807 | 650 | 99 | 11.0 | ||
| 2013-09-04T23:41 | 3863 | 645 | 99 | 11.0 | ||
| 2013-09-04T23:41 | 3882 | 644 | 99 | 11.0 | ||
| 2013-09-04T23:41 | 3932 | 640 | 99 | 11.0 | ||
| 2013-09-04T23:41 | 3957 | 638 | 5.6 | -3.0 | ||
| 2013-09-04T23:41 | 3975 | 637 | 99 | 11.0 | ||
| 2013-09-04T23:41 | 3994 | 635 | 5.5 | -3.6 | ||
| 2013-09-04T23:41 | 4025 | 633 | 5.5 | -3.1 | ||
| 2013-09-04T23:41 | 4043 | 631 | 5.4 | -4.5 | ||
| 2013-09-04T23:41 | 4067 | 629 | 5.3 | -2.8 | ||
| 2013-09-04T23:42 | 4116 | 626 | 5.0 | -4.8 | ||
| 2013-09-04T23:42 | 4134 | 624 | 4.9 | -7.9 | ||
| 2013-09-04T23:42 | 4163 | 622 | 4.8 | -6.7 | ||
| 2013-09-04T23:42 | 4175 | 621 | 4.7 | -5.4 | ||
| 2013-09-04T23:42 | 4198 | 619 | 4.5 | -7.9 | ||
| 2013-09-04T23:42 | 4256 | 615 | 4.1 | -5.4 | ||
| 2013-09-04T23:42 | 4285 | 613 | 91 | 10.0 | ||
| 2013-09-04T23:42 | 4350 | 608 | 3.3 | -6.7 | ||
| 2013-09-04T23:42 | 4368 | 607 | 3.4 | -3.2 | ||
| 2013-09-04T23:42 | 4380 | 606 | 3.4 | -8.9 | ||
| 2013-09-04T23:42 | 4386 | 605 | 3.4 | -16.3 | ||
| 2013-09-04T23:42 | 4422 | 603 | 3.5 | -16.2 | ||
| 2013-09-04T23:43 | 4499 | 597 | 3.0 | -13.8 | ||
| 2013-09-04T23:43 | 4591 | 590 | 2.2 | -12.1 | ||
| 2013-09-04T23:43 | 4603 | 589 | 2.1 | -4.6 | ||
| 2013-09-04T23:43 | 4645 | 586 | 101 | 10.0 | ||
| 2013-09-04T23:43 | 4663 | 585 | 1.6 | -5.6 | ||
| 2013-09-04T23:43 | 4674 | 584 | 1.5 | -5.4 | ||
| 2013-09-04T23:43 | 4686 | 583 | 1.4 | -11.7 | ||
| 2013-09-04T23:43 | 4747 | 579 | 1.2 | -12.9 | ||
| 2013-09-04T23:43 | 4771 | 577 | 1.1 | -11.0 | ||
| 2013-09-04T23:44 | 4989 | 562 | -0.1 | -13.7 | ||
| 2013-09-04T23:44 | 5014 | 560 | 106 | 8.0 | ||
| 2013-09-04T23:44 | 5151 | 550 | -0.9 | -18.5 | ||
| 2013-09-04T23:45 | 5323 | 539 | -1.8 | -15.3 | ||
| 2013-09-04T23:45 | 5374 | 535 | -2.1 | -19.1 | ||
| 2013-09-04T23:45 | 5393 | 534 | 112 | 11.0 | ||
| 2013-09-04T23:45 | 5419 | 532 | -2.4 | -19.3 | ||
| 2013-09-04T23:45 | 5487 | 528 | -2.6 | -24.3 | ||
| 2013-09-04T23:45 | 5517 | 526 | -2.7 | -24.4 | ||
| 2013-09-04T23:46 | 5644 | 517 | -3.4 | -21.6 | ||
| 2013-09-04T23:46 | 5693 | 514 | -3.6 | -20.4 | ||
| 2013-09-04T23:46 | 5748 | 511 | -4.0 | -17.6 | ||
| 2013-09-04T23:46 | 5760 | 510 | 101 | 11.0 | ||
| 2013-09-04T23:46 | 5797 | 507 | -4.4 | -14.0 | ||
| 2013-09-04T23:46 | 5810 | 506 | -4.5 | -14.6 | ||
| 2013-09-04T23:46 | 5841 | 504 | -4.7 | -13.1 | ||
| 2013-09-04T23:46 | 5867 | 503 | -4.7 | -14.8 | ||
| 2013-09-04T23:46 | 5923 | 499 | -5.2 | -19.7 | ||
| 2013-09-04T23:47 | 6018 | 493 | -6.0 | -17.7 | ||
| 2013-09-04T23:47 | 6139 | 486 | 99 | 12.0 | ||
| 2013-09-04T23:47 | 6164 | 484 | -7.3 | -15.3 | ||
| 2013-09-04T23:47 | 6240 | 479 | -7.6 | -16.2 | ||
| 2013-09-04T23:48 | 6332 | 474 | 93 | 13.0 | ||
| 2013-09-04T23:48 | 6338 | 473 | 93 | 13.0 | ||
| 2013-09-04T23:48 | 6357 | 472 | -8.3 | -18.7 | ||
| 2013-09-04T23:48 | 6507 | 463 | 96 | 12.0 | ||
| 2013-09-04T23:48 | 6525 | 462 | -9.5 | -19.5 | ||
| 2013-09-04T23:48 | 6578 | 459 | -9.7 | -18.4 | ||
| 2013-09-04T23:48 | 6663 | 454 | -10.2 | -19.1 | ||
| 2013-09-04T23:49 | 6700 | 452 | -10.5 | -16.2 | ||
| 2013-09-04T23:49 | 6762 | 448 | -11.0 | -19.2 | ||
| 2013-09-04T23:49 | 6873 | 442 | 105 | 10.0 | ||
| 2013-09-04T23:49 | 7054 | 431 | -13.3 | -17.4 | ||
| 2013-09-04T23:50 | 7086 | 430 | -13.4 | -19.5 | ||
| 2013-09-04T23:50 | 7167 | 425 | -13.6 | -18.8 | ||
| 2013-09-04T23:50 | 7249 | 421 | 120 | 10.0 | ||
| 2013-09-04T23:50 | 7286 | 418 | -14.4 | -20.5 | ||
| 2013-09-04T23:51 | 7442 | 410 | -15.5 | -22.7 | ||
| 2013-09-04T23:51 | 7622 | 400 | 123 | 10.0 | ||
| 2013-09-04T23:51 | 7685 | 397 | -17.5 | -24.4 | ||
| 2013-09-04T23:52 | 7869 | 387 | -18.6 | -26.0 | ||
| 2013-09-04T23:52 | 8007 | 380 | 107 | 8.0 | ||
| 2013-09-04T23:52 | 8079 | 376 | -20.2 | -27.3 | ||
| 2013-09-04T23:52 | 8126 | 374 | -20.5 | -28.2 | ||
| 2013-09-04T23:53 | 8227 | 369 | -21.2 | -28.9 | ||
| 2013-09-04T23:53 | 8321 | 364 | -21.7 | -27.9 | ||
| 2013-09-04T23:53 | 8410 | 360 | 99 | 8.0 | ||
| 2013-09-04T23:53 | 8486 | 356 | -23.1 | -29.3 | ||
| 2013-09-04T23:53 | 8603 | 350 | -23.9 | -31.4 | ||
| 2013-09-04T23:54 | 8634 | 349 | -24.1 | -32.9 | ||
| 2013-09-04T23:54 | 8672 | 347 | -24.3 | -30.4 | ||
| 2013-09-04T23:54 | 8751 | 343 | -24.9 | -31.9 | ||
| 2013-09-04T23:54 | 8812 | 341 | -25.4 | -33.2 | 111 | 8.0 |
| 2013-09-04T23:54 | 8918 | 336 | -26.3 | -31.9 | ||
| 2013-09-04T23:54 | 8971 | 333 | -26.7 | -37.6 | ||
| 2013-09-04T23:55 | 9198 | 323 | 115 | 7.0 | ||
| 2013-09-04T23:55 | 9227 | 321 | -29.0 | -40.8 | ||
| 2013-09-04T23:55 | 9305 | 318 | -29.7 | -37.9 | ||
| 2013-09-04T23:55 | 9391 | 314 | -30.2 | -38.5 | ||
| 2013-09-04T23:56 | 9441 | 312 | -30.5 | -37.4 | ||
| 2013-09-04T23:56 | 9624 | 304 | 126 | 9.0 | ||
| 2013-09-04T23:56 | 9645 | 303 | -31.8 | -39.8 | ||
| 2013-09-04T23:57 | 9903 | 292 | -33.9 | -42.0 | ||
| 2013-09-04T23:57 | 9980 | 289 | -34.6 | -44.7 | ||
| 2013-09-04T23:57 | 10050 | 286 | 122 | 10.0 | ||
| 2013-09-04T23:58 | 10276 | 277 | -36.9 | -49.8 | ||
| 2013-09-04T23:58 | 10481 | 269 | 109 | 12.0 | ||
| 2013-09-04T23:58 | 10546 | 266 | -38.8 | -48.0 | ||
| 2013-09-04T23:59 | 10700 | 260 | -40.0 | -49.9 | ||
| 2013-09-04T23:59 | 10911 | 252 | 103 | 14.0 | ||
| 2013-09-04T23:59 | 10974 | 250 | 105 | 15.0 | ||
| 2013-09-04T23:59 | 10994 | 249 | 105 | 15.0 | ||
| 2013-09-04T23:59 | 11022 | 248 | 105 | 15.0 | ||
| 2013-09-04T23:59 | 11049 | 247 | 105 | 15.0 | ||
| 2013-09-04T23:59 | 11097 | 246 | 107 | 15.0 | ||
| 2013-09-05T00:00 | 11118 | 245 | 106 | 15.0 | ||
| 2013-09-05T00:00 | 11139 | 244 | 106 | 15.0 | ||
| 2013-09-05T00:00 | 11320 | 238 | 112 | 15.0 | ||
| 2013-09-05T00:01 | 11567 | 229 | -46.5 | |||
| 2013-09-05T00:01 | 11722 | 224 | 112 | 12.0 | ||
| 2013-09-05T00:02 | 12128 | 210 | 101 | 9.0 | ||
| 2013-09-05T00:03 | 12525 | 198 | 102 | 11.0 | ||
| 2013-09-05T00:03 | 12603 | 195 | -53.7 | |||
| 2013-09-05T00:04 | 12892 | 187 | 98 | 10.0 | ||
| 2013-09-05T00:05 | 13278 | 176 | 98 | 8.0 | ||
| 2013-09-05T00:06 | 13555 | 168 | -60.9 | |||
| 2013-09-05T00:06 | 13659 | 165 | 118 | 10.0 | ||
| 2013-09-05T00:07 | 13935 | 158 | -62.7 | |||
| 2013-09-05T00:07 | 14064 | 155 | 96 | 11.0 | ||
| 2013-09-05T00:08 | 14491 | 144 | 88 | 12.0 | ||
| 2013-09-05T00:08 | 14638 | 141 | -67.4 | |||
| 2013-09-05T00:09 | 14890 | 135 | 99 | 13.0 | ||
| 2013-09-05T00:10 | 15331 | 125 | 93 | 14.0 | ||
| 2013-09-05T00:11 | 15832 | 115 | 95 | 13.0 | ||
| 2013-09-05T00:11 | 15904 | 114 | -74.8 | |||
| 2013-09-05T00:12 | 16179 | 108 | -76.1 | |||
| 2013-09-05T00:12 | 16304 | 106 | 89 | 15.0 | ||
| 2013-09-05T00:13 | 16637 | 100 | -76.9 | 77 | 15.0 | |
| 2013-09-05T00:13 | 16784 | 98 | 81 | 17.0 | ||
| 2013-09-05T00:14 | 17015 | 94 | 95 | 19.0 | ||
| 2013-09-05T00:14 | 17023 | 94 | 95 | 19.0 | ||
| 2013-09-05T00:14 | 17030 | 93 | 96 | 19.0 | ||
| 2013-09-05T00:14 | 17037 | 93 | 96 | 19.0 | ||
| 2013-09-05T00:14 | 17059 | 93 | 97 | 19.0 | ||
| 2013-09-05T00:14 | 17067 | 93 | 97 | 19.0 | ||
| 2013-09-05T00:14 | 17074 | 93 | 98 | 19.0 | ||
| 2013-09-05T00:14 | 17081 | 93 | 98 | 19.0 | ||
| 2013-09-05T00:14 | 17103 | 92 | -76.2 | |||
| 2013-09-05T00:14 | 17238 | 90 | 99 | 18.0 | ||
| 2013-09-05T00:14 | 17456 | 87 | -74.6 | |||
| 2013-09-05T00:15 | 17688 | 83 | 89 | 15.0 | ||
| 2013-09-05T00:15 | 17708 | 83 | -73.7 | |||
| 2013-09-05T00:16 | 18062 | 78 | 81 | 17.0 | ||
| 2013-09-05T00:16 | 18118 | 78 | -72.2 | |||
| 2013-09-05T00:17 | 18433 | 73 | 88 | 18.0 | ||
| 2013-09-05T00:17 | 18470 | 73 | -70.7 | |||
| 2013-09-05T00:18 | 18638 | 71 | -68.6 | |||
| 2013-09-05T00:18 | 18805 | 69 | 87 | 17.0 | ||
| 2013-09-05T00:19 | 19076 | 66 | -66.8 | |||
| 2013-09-05T00:19 | 19194 | 65 | 95 | 15.0 | ||
| 2013-09-05T00:20 | 19496 | 62 | -67.5 | |||
| 2013-09-05T00:20 | 19613 | 60 | 92 | 13.0 | ||
| 2013-09-05T00:21 | 20044 | 56 | 81 | 16.0 | ||
| 2013-09-05T00:21 | 20223 | 55 | -68.1 | |||
| 2013-09-05T00:22 | 20458 | 52 | 86 | 17.0 | ||
| 2013-09-05T00:22 | 20556 | 52 | -67.7 | |||
| 2013-09-05T00:23 | 20850 | 49 | 97 | 16.0 | ||
| 2013-09-05T00:23 | 20876 | 49 | -65.9 | |||
| 2013-09-05T00:24 | 21235 | 46 | 99 | 17.0 | ||
| 2013-09-05T00:25 | 21552 | 44 | -62.3 | |||
| 2013-09-05T00:25 | 21641 | 43 | 94 | 19.0 | ||
| 2013-09-05T00:26 | 22071 | 40 | 101 | 21.0 | ||
| 2013-09-05T00:26 | 22179 | 40 | 103 | 21.0 | ||
| 2013-09-05T00:26 | 22193 | 39 | 104 | 21.0 | ||
| 2013-09-05T00:27 | 22462 | 38 | -61.4 | |||
| 2013-09-05T00:27 | 22496 | 38 | 99 | 19.0 | ||
| 2013-09-05T00:28 | 22893 | 35 | 87 | 16.0 | ||
| 2013-09-05T00:29 | 23182 | 34 | -57.0 | |||
| 2013-09-05T00:29 | 23321 | 33 | 86 | 13.0 | ||
| 2013-09-05T00:30 | 23762 | 31 | 66 | 17.0 | ||
| 2013-09-05T00:31 | 24161 | 29 | 76 | 21.0 | ||
| 2013-09-05T00:31 | 24186 | 29 | -56.8 | |||
| 2013-09-05T00:32 | 24464 | 28 | 88 | 23.0 | ||
| 2013-09-05T00:32 | 24496 | 27 | 88 | 23.0 | ||
| 2013-09-05T00:32 | 24535 | 27 | 89 | 23.0 | ||
| 2013-09-05T00:33 | 24778 | 26 | -53.8 | |||
| 2013-09-05T00:33 | 24964 | 25 | 101 | 19.0 | ||
| 2013-09-05T00:34 | 25436 | 24 | 100 | 16.0 | ||
| 2013-09-05T00:34 | 25557 | 23 | -54.2 | |||
| 2013-09-05T00:35 | 25911 | 22 | 92 | 21.0 | ||
| 2013-09-05T00:36 | 26364 | 20 | 95 | 22.0 | ||
| 2013-09-05T00:37 | 26808 | 19 | 100 | 21.0 | ||
| 2013-09-05T00:38 | 27125 | 18 | -51.1 | |||
| 2013-09-05T00:38 | 27165 | 18 | 91 | 25.0 | ||
| 2013-09-05T00:38 | 27219 | 18 | 92 | 25.0 | ||
| 2013-09-05T00:39 | 27644 | 17 | 93 | 24.0 | ||
| 2013-09-05T00:40 | 28113 | 16 | -46.2 | |||
| 2013-09-05T00:41 | 28629 | 15 | 92 | 23.0 | ||
| 2013-09-05T00:42 | 29112 | 14 | 94 | 24.0 | ||
| 2013-09-05T00:42 | 29120 | 13 | -44.3 | |||
| 2013-09-05T00:42 | 29200 | 13 | -44.1 | 92 | 27.0 | |
| 2013-09-05T11:30 | 9 | 1014 | 28.7 | 25.7 | 80 | 5.0 |
| 2013-09-05T11:31 | 190 | 993 | 26.9 | 24.0 | ||
| 2013-09-05T11:31 | 313 | 979 | 91 | 7.0 | ||
| 2013-09-05T11:31 | 323 | 978 | 91 | 7.0 | ||
| 2013-09-05T11:31 | 333 | 977 | 91 | 7.0 | ||
| 2013-09-05T11:31 | 359 | 974 | 92 | 7.0 | ||
| 2013-09-05T11:31 | 379 | 972 | 94 | 7.0 | ||
| 2013-09-05T11:31 | 389 | 971 | 25.1 | 23.2 | 93 | 7.0 |
| 2013-09-05T11:31 | 410 | 969 | 93 | 7.0 | ||
| 2013-09-05T11:31 | 414 | 968 | 25.2 | 22.3 | ||
| 2013-09-05T11:31 | 424 | 967 | 94 | 7.0 | ||
| 2013-09-05T11:31 | 439 | 966 | 94 | 7.0 | ||
| 2013-09-05T11:32 | 600 | 948 | 92 | 6.0 | ||
| 2013-09-05T11:33 | 955 | 910 | 97 | 5.0 | ||
| 2013-09-05T11:33 | 1093 | 896 | 20.5 | 17.9 | ||
| 2013-09-05T11:34 | 1379 | 867 | 89 | 4.0 | ||
| 2013-09-05T11:34 | 1391 | 866 | 19.0 | 17.3 | ||
| 2013-09-05T11:35 | 1595 | 845 | 18.0 | 15.4 | ||
| 2013-09-05T11:35 | 1651 | 840 | 17.9 | 14.2 | ||
| 2013-09-05T11:35 | 1676 | 837 | 17.8 | 13.9 | ||
| 2013-09-05T11:35 | 1701 | 835 | 17.9 | 13.0 | ||
| 2013-09-05T11:35 | 1733 | 832 | 17.9 | 12.8 | ||
| 2013-09-05T11:35 | 1745 | 831 | 104 | 4.0 | ||
| 2013-09-05T11:35 | 1874 | 818 | 17.0 | 12.5 | ||
| 2013-09-05T11:35 | 1893 | 816 | 16.8 | 14.6 | ||
| 2013-09-05T11:35 | 1906 | 815 | 16.7 | 14.5 | ||
| 2013-09-05T11:35 | 1926 | 813 | 16.7 | 14.0 | ||
| 2013-09-05T11:36 | 1945 | 811 | 16.7 | 12.3 | ||
| 2013-09-05T11:36 | 2090 | 798 | 15.8 | 11.8 | ||
| 2013-09-05T11:36 | 2119 | 795 | 108 | 5.0 | ||
| 2013-09-05T11:36 | 2223 | 785 | 14.8 | 13.0 | ||
| 2013-09-05T11:36 | 2253 | 783 | 14.8 | 12.5 | ||
| 2013-09-05T11:36 | 2290 | 779 | 14.7 | 12.0 | ||
| 2013-09-05T11:37 | 2382 | 771 | 14.4 | 10.4 | ||
| 2013-09-05T11:37 | 2400 | 769 | 14.4 | 7.5 | ||
| 2013-09-05T11:37 | 2413 | 768 | 14.5 | 8.0 | ||
| 2013-09-05T11:37 | 2425 | 767 | 14.5 | 11.6 | ||
| 2013-09-05T11:37 | 2443 | 765 | 14.5 | 9.7 | ||
| 2013-09-05T11:37 | 2456 | 764 | 14.5 | 9.7 | ||
| 2013-09-05T11:37 | 2480 | 762 | 14.3 | 6.2 | 86 | 6.0 |
| 2013-09-05T11:37 | 2505 | 760 | 14.1 | 8.1 | ||
| 2013-09-05T11:37 | 2517 | 758 | 14.0 | 10.0 | ||
| 2013-09-05T11:37 | 2548 | 756 | 13.8 | 11.7 | ||
| 2013-09-05T11:37 | 2620 | 749 | 13.2 | 11.6 | ||
| 2013-09-05T11:38 | 2718 | 741 | 12.7 | 11.1 | ||
| 2013-09-05T11:38 | 2741 | 739 | 12.6 | 9.8 | ||
| 2013-09-05T11:38 | 2764 | 737 | 12.7 | 10.2 | ||
| 2013-09-05T11:38 | 2798 | 734 | 12.6 | 8.3 | ||
| 2013-09-05T11:38 | 2832 | 731 | 75 | 6.0 | ||
| 2013-09-05T11:38 | 2882 | 726 | 12.0 | 9.2 | ||
| 2013-09-05T11:38 | 2927 | 722 | 11.7 | 9.3 | ||
| 2013-09-05T11:39 | 3100 | 708 | 11.0 | 6.7 | ||
| 2013-09-05T11:39 | 3167 | 702 | 78 | 7.0 | ||
| 2013-09-05T11:39 | 3255 | 695 | 10.3 | 4.4 | ||
| 2013-09-05T11:39 | 3326 | 689 | 10.1 | 2.0 | ||
| 2013-09-05T11:39 | 3338 | 688 | 74 | 7.0 | ||
| 2013-09-05T11:39 | 3344 | 687 | 75 | 7.0 | ||
| 2013-09-05T11:40 | 3363 | 686 | 10.0 | 1.1 | ||
| 2013-09-05T11:40 | 3376 | 685 | 9.9 | 3.0 | ||
| 2013-09-05T11:40 | 3414 | 681 | 9.7 | -0.2 | ||
| 2013-09-05T11:40 | 3460 | 678 | 9.4 | 1.8 | ||
| 2013-09-05T11:40 | 3493 | 675 | 9.1 | 0.5 | ||
| 2013-09-05T11:40 | 3505 | 674 | 9.1 | 3.1 | ||
| 2013-09-05T11:40 | 3538 | 671 | 77 | 6.0 | ||
| 2013-09-05T11:40 | 3602 | 666 | 8.6 | -1.8 | ||
| 2013-09-05T11:41 | 3737 | 655 | 7.8 | -3.4 | ||
| 2013-09-05T11:41 | 3766 | 653 | 7.5 | -1.7 | ||
| 2013-09-05T11:41 | 3896 | 643 | 81 | 6.0 | ||
| 2013-09-05T11:41 | 3913 | 641 | 6.5 | -3.2 | ||
| 2013-09-05T11:41 | 3995 | 635 | 6.0 | -3.4 | ||
| 2013-09-05T11:41 | 4031 | 632 | 5.8 | -5.2 | ||
| 2013-09-05T11:42 | 4106 | 626 | 5.1 | -2.5 | ||
| 2013-09-05T11:42 | 4139 | 624 | 4.9 | -2.9 | ||
| 2013-09-05T11:42 | 4160 | 622 | 4.7 | -2.2 | ||
| 2013-09-05T11:42 | 4213 | 618 | 4.3 | -2.8 | ||
| 2013-09-05T11:42 | 4234 | 617 | 80 | 7.0 | ||
| 2013-09-05T11:42 | 4250 | 615 | 4.0 | -6.0 | ||
| 2013-09-05T11:42 | 4271 | 614 | 3.8 | -1.2 | ||
| 2013-09-05T11:42 | 4309 | 611 | 3.5 | 0.5 | ||
| 2013-09-05T11:42 | 4384 | 605 | 2.9 | 0.3 | ||
| 2013-09-05T11:43 | 4402 | 604 | 2.8 | -1.6 | ||
| 2013-09-05T11:43 | 4444 | 601 | 2.7 | -1.3 | ||
| 2013-09-05T11:43 | 4494 | 597 | 2.6 | -1.8 | ||
| 2013-09-05T11:43 | 4540 | 594 | 2.6 | -2.1 | ||
| 2013-09-05T11:43 | 4572 | 592 | 2.7 | -7.2 | ||
| 2013-09-05T11:43 | 4579 | 591 | 2.7 | -4.3 | ||
| 2013-09-05T11:43 | 4630 | 587 | 2.7 | -6.7 | ||
| 2013-09-05T11:43 | 4643 | 586 | 2.7 | -7.0 | ||
| 2013-09-05T11:43 | 4662 | 585 | 2.6 | -9.3 | ||
| 2013-09-05T11:43 | 4706 | 582 | 2.5 | -12.5 | ||
| 2013-09-05T11:43 | 4732 | 580 | 2.3 | -9.6 | ||
| 2013-09-05T11:43 | 4763 | 578 | 2.2 | -9.7 | ||
| 2013-09-05T11:44 | 4776 | 577 | 2.2 | -7.4 | ||
| 2013-09-05T11:44 | 4807 | 575 | 2.2 | -14.0 | ||
| 2013-09-05T11:44 | 4825 | 573 | 2.2 | -10.3 | ||
| 2013-09-05T11:44 | 4911 | 567 | 1.7 | -11.4 | ||
| 2013-09-05T11:44 | 4947 | 565 | 1.6 | -17.3 | ||
| 2013-09-05T11:44 | 4959 | 564 | 1.6 | -16.3 | 91 | 9.0 |
| 2013-09-05T11:44 | 5014 | 560 | 1.3 | -17.1 | ||
| 2013-09-05T11:45 | 5210 | 546 | 80 | 10.0 | ||
| 2013-09-05T11:45 | 5297 | 540 | -0.7 | -19.3 | ||
| 2013-09-05T11:45 | 5328 | 538 | 77 | 9.0 | ||
| 2013-09-05T11:45 | 5404 | 533 | -1.6 | -19.6 | ||
| 2013-09-05T11:45 | 5481 | 528 | -2.0 | -20.9 | ||
| 2013-09-05T11:46 | 5575 | 522 | -2.6 | -22.5 | ||
| 2013-09-05T11:46 | 5643 | 517 | -3.1 | -20.9 | ||
| 2013-09-05T11:46 | 5705 | 513 | 73 | 8.0 | ||
| 2013-09-05T11:46 | 5730 | 512 | -3.7 | -23.4 | ||
| 2013-09-05T11:46 | 5797 | 507 | -4.2 | -21.8 | ||
| 2013-09-05T11:46 | 5858 | 503 | -4.7 | -25.4 | ||
| 2013-09-05T11:47 | 6073 | 490 | 66 | 6.0 | ||
| 2013-09-05T11:48 | 6293 | 476 | -7.8 | -25.4 | ||
| 2013-09-05T11:48 | 6451 | 467 | 65 | 7.0 | ||
| 2013-09-05T11:48 | 6554 | 460 | -10.1 | -27.3 | ||
| 2013-09-05T11:49 | 6671 | 453 | -11.0 | -25.2 | ||
| 2013-09-05T11:49 | 6689 | 452 | -11.1 | -26.9 | ||
| 2013-09-05T11:49 | 6723 | 450 | -11.3 | -23.4 | ||
| 2013-09-05T11:49 | 6758 | 448 | -11.5 | -25.3 | ||
| 2013-09-05T11:49 | 6805 | 446 | 70 | 8.0 | ||
| 2013-09-05T11:49 | 6915 | 439 | -12.0 | -29.4 | ||
| 2013-09-05T11:50 | 7181 | 424 | 61 | 5.0 | ||
| 2013-09-05T11:50 | 7224 | 422 | -14.3 | -34.1 | ||
| 2013-09-05T11:50 | 7242 | 421 | -14.4 | -28.2 | ||
| 2013-09-05T11:50 | 7291 | 418 | -14.8 | -26.6 | ||
| 2013-09-05T11:50 | 7321 | 416 | -15.1 | -23.7 | ||
| 2013-09-05T11:50 | 7356 | 415 | -15.3 | -26.2 | ||
| 2013-09-05T11:51 | 7409 | 412 | -15.7 | -25.2 | ||
| 2013-09-05T11:51 | 7462 | 409 | -15.8 | -31.4 | ||
| 2013-09-05T11:51 | 7492 | 407 | -15.8 | -37.3 | ||
| 2013-09-05T11:51 | 7539 | 405 | 65 | 7.0 | ||
| 2013-09-05T11:51 | 7557 | 404 | -16.0 | -37.4 | ||
| 2013-09-05T11:51 | 7674 | 397 | -16.5 | -32.0 | ||
| 2013-09-05T11:52 | 7786 | 391 | -17.0 | -39.0 | ||
| 2013-09-05T11:52 | 7909 | 385 | 56 | 7.0 | ||
| 2013-09-05T11:52 | 8012 | 380 | -18.4 | -36.9 | ||
| 2013-09-05T11:52 | 8053 | 378 | -18.5 | -42.7 | ||
| 2013-09-05T11:52 | 8084 | 376 | -18.6 | -35.6 | ||
| 2013-09-05T11:53 | 8146 | 373 | -19.1 | -31.1 | ||
| 2013-09-05T11:53 | 8276 | 367 | 58 | 7.0 | ||
| 2013-09-05T11:53 | 8340 | 363 | -20.7 | -45.4 | ||
| 2013-09-05T11:54 | 8500 | 356 | -21.9 | -44.5 | ||
| 2013-09-05T11:54 | 8575 | 352 | -22.5 | -40.4 | ||
| 2013-09-05T11:54 | 8637 | 349 | -23.0 | -40.3 | ||
| 2013-09-05T11:54 | 8680 | 347 | 69 | 9.0 | ||
| 2013-09-05T11:54 | 8722 | 345 | -23.4 | -44.2 | ||
| 2013-09-05T11:55 | 8963 | 334 | -25.0 | -46.2 | ||
| 2013-09-05T11:55 | 9094 | 328 | 80 | 7.0 | ||
| 2013-09-05T11:55 | 9107 | 327 | -26.4 | -41.8 | ||
| 2013-09-05T11:56 | 9345 | 317 | -28.5 | -43.6 | ||
| 2013-09-05T11:56 | 9515 | 309 | 74 | 7.0 | ||
| 2013-09-05T11:56 | 9658 | 303 | -31.1 | -43.7 | ||
| 2013-09-05T11:57 | 9852 | 295 | -32.4 | -54.7 | ||
| 2013-09-05T11:57 | 9910 | 292 | 82 | 10.0 | ||
| 2013-09-05T11:58 | 10139 | 283 | -34.5 | -49.7 | ||
| 2013-09-05T11:58 | 10302 | 276 | 92 | 10.0 | ||
| 2013-09-05T11:58 | 10434 | 271 | -36.7 | -50.0 | ||
| 2013-09-05T11:59 | 10510 | 268 | -37.4 | -46.5 | ||
| 2013-09-05T11:59 | 10699 | 261 | 87 | 12.0 | ||
| 2013-09-05T11:59 | 10713 | 260 | 87 | 11.0 | ||
| 2013-09-05T11:59 | 10806 | 257 | -39.9 | -48.1 | ||
| 2013-09-05T11:59 | 10820 | 256 | -40.0 | -48.9 | ||
| 2013-09-05T12:00 | 11147 | 244 | 108 | 10.0 | ||
| 2013-09-05T12:01 | 11589 | 229 | 114 | 9.0 | ||
| 2013-09-05T12:02 | 12016 | 214 | 111 | 8.0 | ||
| 2013-09-05T12:03 | 12446 | 201 | 84 | 6.0 | ||
| 2013-09-05T12:04 | 12885 | 187 | 94 | 9.0 | ||
| 2013-09-05T12:04 | 12930 | 186 | -56.2 | |||
| 2013-09-05T12:05 | 13295 | 176 | 89 | 9.0 | ||
| 2013-09-05T12:06 | 13714 | 164 | 90 | 10.0 | ||
| 2013-09-05T12:07 | 14052 | 155 | -63.5 | |||
| 2013-09-05T12:07 | 14148 | 153 | 93 | 10.0 | ||
| 2013-09-05T12:08 | 14601 | 142 | 80 | 7.0 | ||
| 2013-09-05T12:09 | 15043 | 132 | 81 | 9.0 | ||
| 2013-09-05T12:09 | 15094 | 131 | -69.5 | |||
| 2013-09-05T12:10 | 15487 | 122 | 91 | 13.0 | ||
| 2013-09-05T12:11 | 15963 | 113 | 101 | 13.0 | ||
| 2013-09-05T12:12 | 16374 | 105 | -76.5 | |||
| 2013-09-05T12:12 | 16412 | 104 | 99 | 14.0 | ||
| 2013-09-05T12:12 | 16515 | 103 | 102 | 15.0 | ||
| 2013-09-05T12:12 | 16537 | 102 | 104 | 15.0 | ||
| 2013-09-05T12:12 | 16580 | 101 | 106 | 15.0 | ||
| 2013-09-05T12:13 | 16664 | 100 | -75.6 | 110 | 14.0 | |
| 2013-09-05T12:13 | 16844 | 97 | 111 | 13.0 | ||
| 2013-09-05T12:14 | 17312 | 89 | 70 | 12.0 | ||
| 2013-09-05T12:14 | 17413 | 88 | -73.9 | |||
| 2013-09-05T12:15 | 17727 | 83 | 85 | 13.0 | ||
| 2013-09-05T12:16 | 18003 | 80 | -70.3 | |||
| 2013-09-05T12:16 | 18117 | 78 | 73 | 10.0 | ||
| 2013-09-05T12:17 | 18515 | 73 | 65 | 12.0 | ||
| 2013-09-05T12:18 | 18854 | 69 | -70.1 | |||
| 2013-09-05T12:18 | 18903 | 68 | 85 | 13.0 | ||
| 2013-09-05T12:19 | 19124 | 66 | -67.9 | |||
| 2013-09-05T12:19 | 19260 | 64 | 76 | 16.0 | ||
| 2013-09-05T12:19 | 19427 | 63 | -67.0 | |||
| 2013-09-05T12:20 | 19623 | 61 | 90 | 17.0 | ||
| 2013-09-05T12:20 | 19637 | 61 | 90 | 17.0 | ||
| 2013-09-05T12:20 | 19644 | 60 | 90 | 17.0 | ||
| 2013-09-05T12:21 | 20014 | 57 | -65.8 | |||
| 2013-09-05T12:21 | 20063 | 56 | 88 | 15.0 | ||
| 2013-09-05T12:22 | 20392 | 53 | -63.0 | |||
| 2013-09-05T12:22 | 20461 | 53 | 91 | 15.0 | ||
| 2013-09-05T12:23 | 20843 | 50 | 95 | 11.0 | ||
| 2013-09-05T12:23 | 21034 | 48 | -61.9 | |||
| 2013-09-05T12:24 | 21243 | 47 | 91 | 11.0 | ||
| 2013-09-05T12:25 | 21662 | 44 | 80 | 15.0 | ||
| 2013-09-05T12:26 | 21964 | 41 | -61.9 | |||
| 2013-09-05T12:26 | 22099 | 41 | 88 | 15.0 | ||
| 2013-09-05T12:27 | 22529 | 38 | 76 | 19.0 | ||
| 2013-09-05T12:27 | 22713 | 37 | -61.3 | |||
| 2013-09-05T12:28 | 22931 | 35 | 91 | 20.0 | ||
| 2013-09-05T12:29 | 23336 | 33 | 90 | 16.0 | ||
| 2013-09-05T12:29 | 23371 | 33 | -59.2 | |||
| 2013-09-05T12:30 | 23765 | 31 | 72 | 20.0 | ||
| 2013-09-05T12:31 | 24210 | 29 | 91 | 21.0 | ||
| 2013-09-05T12:31 | 24389 | 28 | 94 | 23.0 | ||
| 2013-09-05T12:32 | 24675 | 27 | 95 | 22.0 | ||
| 2013-09-05T12:33 | 25105 | 25 | 95 | 18.0 | ||
| 2013-09-05T12:34 | 25333 | 24 | -51.7 | |||
| 2013-09-05T12:34 | 25552 | 24 | 82 | 18.0 | ||
| 2013-09-05T12:35 | 26005 | 22 | 79 | 21.0 | ||
| 2013-09-05T12:36 | 26248 | 21 | -50.3 | |||
| 2013-09-05T12:36 | 26481 | 20 | 96 | 19.0 | ||
| 2013-09-05T12:37 | 26966 | 19 | -49.8 | 107 | 21.0 | |
| 2013-09-05T12:38 | 27395 | 18 | 94 | 22.0 | ||
| 2013-09-05T12:39 | 27804 | 17 | 84 | 26.0 | ||
| 2013-09-05T12:40 | 28067 | 16 | 85 | 29.0 | ||
| 2013-09-05T12:40 | 28246 | 16 | 87 | 28.0 | ||
| 2013-09-05T12:40 | 28302 | 15 | -46.0 | |||
| 2013-09-05T12:41 | 28748 | 14 | 91 | 27.0 | ||
| 2013-09-05T12:42 | 29217 | 13 | -44.1 | |||
| 2013-09-05T12:42 | 29278 | 13 | 82 | 24.0 | ||
| 2013-09-05T12:43 | 29632 | 13 | -44.3 | |||
| 2013-09-05T12:43 | 29716 | 13 | -44.3 | |||
| 2013-09-05T12:43 | 29792 | 12 | 76 | 30.0 | ||
| 2013-09-05T12:43 | 29883 | 12 | 77 | 31.0 | ||
| 2013-09-05T12:43 | 29917 | 12 | 77 | 31.0 | ||
| 2013-09-05T12:43 | 29974 | 12 | 78 | 31.0 | ||
| 2013-09-05T12:43 | 30024 | 12 | 78 | 31.0 | ||
| 2013-09-05T12:44 | 30082 | 12 | 79 | 31.0 | ||
| 2013-09-05T12:44 | 30288 | 12 | 81 | 30.0 | ||
| 2013-09-05T12:44 | 30388 | 11 | 82 | 31.0 | ||
| 2013-09-05T12:44 | 30429 | 11 | 83 | 31.0 | ||
| 2013-09-05T12:44 | 30487 | 11 | 83 | 31.0 | ||
| 2013-09-05T12:45 | 30553 | 11 | 84 | 31.0 | ||
| 2013-09-05T12:45 | 30611 | 11 | 84 | 31.0 | ||
| 2013-09-05T12:45 | 30702 | 11 | 86 | 31.0 | ||
| 2013-09-05T12:45 | 30786 | 11 | 87 | 30.0 | ||
| 2013-09-05T12:45 | 30819 | 11 | -43.2 | |||
| 2013-09-05T12:45 | 30957 | 10 | -43.2 | |||
| 2013-09-05T12:46 | 31106 | 10 | -43.5 | |||
| 2013-09-05T12:46 | 31297 | 10 | -43.2 | |||
| 2013-09-05T12:47 | 31728 | 9 | 91 | 27.0 | ||
| 2013-09-05T12:47 | 31733 | 9 | -41.7 | 91 | 27.0 | |
| 2013-09-05T23:30 | 9 | 1014 | 30.3 | 25.6 | 70 | 5.0 |
| 2013-09-05T23:30 | 30 | 1012 | 28.4 | 21.9 | 70 | 6.0 |
| 2013-09-05T23:31 | 321 | 979 | 25.7 | 22.6 | ||
| 2013-09-05T23:31 | 371 | 973 | 84 | 6.0 | ||
| 2013-09-05T23:31 | 469 | 963 | 24.4 | 22.5 | ||
| 2013-09-05T23:31 | 475 | 962 | 24.3 | 21.2 | ||
| 2013-09-05T23:31 | 487 | 961 | 24.3 | 21.8 | ||
| 2013-09-05T23:31 | 535 | 955 | 24.3 | 20.4 | ||
| 2013-09-05T23:32 | 732 | 934 | 88 | 5.0 | ||
| 2013-09-05T23:32 | 756 | 932 | 23.0 | 18.8 | ||
| 2013-09-05T23:33 | 1089 | 897 | 95 | 5.0 | ||
| 2013-09-05T23:34 | 1417 | 864 | 19.1 | 16.0 | ||
| 2013-09-05T23:34 | 1442 | 861 | 101 | 4.0 | ||
| 2013-09-05T23:34 | 1607 | 845 | 17.9 | 15.0 | ||
| 2013-09-05T23:35 | 1817 | 825 | 16.7 | 14.7 | ||
| 2013-09-05T23:35 | 1823 | 824 | 97 | 4.0 | ||
| 2013-09-05T23:36 | 2125 | 795 | 15.2 | 12.5 | ||
| 2013-09-05T23:36 | 2193 | 789 | 98 | 5.0 | ||
| 2013-09-05T23:37 | 2384 | 771 | 13.9 | 11.1 | ||
| 2013-09-05T23:37 | 2540 | 757 | 13.1 | 9.9 | ||
| 2013-09-05T23:37 | 2566 | 755 | 104 | 4.0 | ||
| 2013-09-05T23:37 | 2691 | 743 | 12.4 | 9.0 | ||
| 2013-09-05T23:38 | 2940 | 722 | 116 | 4.0 | ||
| 2013-09-05T23:38 | 3019 | 715 | 11.3 | 5.0 | ||
| 2013-09-05T23:38 | 3084 | 709 | 11.1 | 4.3 | ||
| 2013-09-05T23:39 | 3148 | 704 | 10.8 | 4.9 | ||
| 2013-09-05T23:39 | 3171 | 702 | 10.6 | 3.2 | ||
| 2013-09-05T23:39 | 3189 | 700 | 10.5 | 4.8 | ||
| 2013-09-05T23:39 | 3207 | 699 | 10.4 | 3.7 | ||
| 2013-09-05T23:39 | 3296 | 692 | 111 | 3.0 | ||
| 2013-09-05T23:39 | 3381 | 685 | 9.2 | 3.2 | ||
| 2013-09-05T23:40 | 3494 | 675 | 8.4 | 3.0 | ||
| 2013-09-05T23:40 | 3531 | 672 | 8.2 | 1.4 | ||
| 2013-09-05T23:40 | 3638 | 664 | 7.5 | 2.2 | ||
| 2013-09-05T23:40 | 3669 | 661 | 7.4 | 1.0 | 110 | 5.0 |
| 2013-09-05T23:40 | 3694 | 659 | 7.5 | -3.7 | ||
| 2013-09-05T23:40 | 3783 | 652 | 6.9 | 1.0 | ||
| 2013-09-05T23:41 | 3908 | 642 | 6.1 | 1.2 | ||
| 2013-09-05T23:41 | 4048 | 631 | 99 | 4.0 | ||
| 2013-09-05T23:41 | 4125 | 625 | 4.6 | -1.0 | ||
| 2013-09-05T23:41 | 4214 | 618 | 4.0 | -1.6 | ||
| 2013-09-05T23:42 | 4253 | 616 | 3.9 | -3.8 | ||
| 2013-09-05T23:42 | 4266 | 615 | 3.9 | -2.1 | ||
| 2013-09-05T23:42 | 4331 | 610 | 3.6 | -4.4 | ||
| 2013-09-05T23:42 | 4396 | 605 | 3.3 | -3.5 | ||
| 2013-09-05T23:42 | 4422 | 603 | 3.2 | -4.7 | ||
| 2013-09-05T23:42 | 4435 | 602 | 101 | 3.0 | ||
| 2013-09-05T23:42 | 4573 | 592 | 2.1 | -5.3 | ||
| 2013-09-05T23:42 | 4604 | 590 | 2.0 | -7.1 | ||
| 2013-09-05T23:43 | 4678 | 584 | 1.6 | -8.5 | ||
| 2013-09-05T23:43 | 4760 | 578 | 1.2 | -9.4 | ||
| 2013-09-05T23:43 | 4779 | 577 | 1.1 | -10.4 | ||
| 2013-09-05T23:43 | 4792 | 576 | 1.0 | -7.8 | ||
| 2013-09-05T23:43 | 4811 | 575 | 118 | 2.0 | ||
| 2013-09-05T23:43 | 4830 | 573 | 0.8 | -7.5 | ||
| 2013-09-05T23:43 | 4856 | 571 | 0.7 | -9.6 | ||
| 2013-09-05T23:43 | 4914 | 567 | 0.4 | -12.3 | ||
| 2013-09-05T23:43 | 4934 | 566 | 0.3 | -10.8 | ||
| 2013-09-05T23:43 | 4948 | 565 | 0.3 | -13.4 | ||
| 2013-09-05T23:43 | 4961 | 564 | 0.2 | -11.5 | ||
| 2013-09-05T23:43 | 4981 | 563 | 0.1 | -14.3 | ||
| 2013-09-05T23:44 | 5063 | 557 | -0.4 | -14.4 | ||
| 2013-09-05T23:44 | 5158 | 550 | -1.1 | -18.7 | ||
| 2013-09-05T23:44 | 5212 | 546 | 109 | 4.0 | ||
| 2013-09-05T23:44 | 5359 | 536 | -2.6 | -17.4 | ||
| 2013-09-05T23:45 | 5417 | 533 | -3.1 | -19.9 | ||
| 2013-09-05T23:45 | 5480 | 528 | -3.7 | -15.1 | ||
| 2013-09-05T23:45 | 5512 | 526 | -4.0 | -17.2 | ||
| 2013-09-05T23:45 | 5555 | 523 | -4.3 | -15.3 | ||
| 2013-09-05T23:45 | 5574 | 522 | -4.5 | -16.1 | ||
| 2013-09-05T23:45 | 5598 | 520 | 101 | 4.0 | ||
| 2013-09-05T23:45 | 5635 | 518 | -4.8 | -19.0 | ||
| 2013-09-05T23:45 | 5665 | 516 | -5.0 | -18.1 | ||
| 2013-09-05T23:45 | 5719 | 513 | -5.4 | -16.3 | ||
| 2013-09-05T23:45 | 5743 | 511 | -5.5 | -17.6 | ||
| 2013-09-05T23:45 | 5767 | 509 | -5.5 | -23.4 | ||
| 2013-09-05T23:46 | 5962 | 497 | 91 | 5.0 | ||
| 2013-09-05T23:46 | 5998 | 495 | -7.5 | -21.7 | ||
| 2013-09-05T23:46 | 6071 | 490 | -7.9 | -21.0 | ||
| 2013-09-05T23:47 | 6162 | 484 | -8.6 | -26.5 | ||
| 2013-09-05T23:47 | 6224 | 480 | -9.0 | -24.2 | ||
| 2013-09-05T23:47 | 6305 | 475 | -9.4 | -26.3 | ||
| 2013-09-05T23:47 | 6330 | 474 | 96 | 6.0 | ||
| 2013-09-05T23:47 | 6466 | 466 | -10.6 | -26.4 | ||
| 2013-09-05T23:48 | 6537 | 461 | -11.0 | -25.6 | ||
| 2013-09-05T23:48 | 6595 | 458 | -11.4 | -22.6 | ||
| 2013-09-05T23:48 | 6695 | 452 | -11.8 | -23.3 | ||
| 2013-09-05T23:48 | 6792 | 446 | -12.5 | -25.5 | ||
| 2013-09-05T23:48 | 6819 | 445 | -12.6 | -32.1 | ||
| 2013-09-05T23:49 | 6889 | 441 | -12.7 | -37.1 | ||
| 2013-09-05T23:49 | 6984 | 435 | -13.3 | -33.2 | ||
| 2013-09-05T23:49 | 7017 | 433 | -13.5 | -27.8 | ||
| 2013-09-05T23:49 | 7043 | 432 | 97 | 7.0 | ||
| 2013-09-05T23:49 | 7057 | 431 | -13.7 | -28.3 | ||
| 2013-09-05T23:49 | 7070 | 430 | -13.8 | -31.5 | ||
| 2013-09-05T23:49 | 7117 | 428 | -14.3 | -27.4 | ||
| 2013-09-05T23:49 | 7231 | 421 | -15.0 | -26.2 | ||
| 2013-09-05T23:50 | 7291 | 418 | -15.0 | -30.7 | ||
| 2013-09-05T23:50 | 7357 | 414 | -15.1 | -37.4 | ||
| 2013-09-05T23:50 | 7442 | 409 | 100 | 6.0 | ||
| 2013-09-05T23:50 | 7473 | 408 | -16.0 | -35.5 | ||
| 2013-09-05T23:50 | 7492 | 407 | -16.1 | -31.2 | ||
| 2013-09-05T23:51 | 7676 | 397 | -17.1 | -36.4 | ||
| 2013-09-05T23:51 | 7718 | 395 | -17.2 | -34.4 | ||
| 2013-09-05T23:51 | 7805 | 390 | 102 | 8.0 | ||
| 2013-09-05T23:51 | 7851 | 388 | -18.0 | -37.2 | ||
| 2013-09-05T23:51 | 7899 | 385 | -18.2 | -39.9 | ||
| 2013-09-05T23:52 | 8167 | 372 | 92 | 10.0 | ||
| 2013-09-05T23:52 | 8286 | 366 | 94 | 11.0 | ||
| 2013-09-05T23:52 | 8292 | 365 | 94 | 11.0 | ||
| 2013-09-05T23:53 | 8392 | 360 | -22.1 | -43.9 | ||
| 2013-09-05T23:53 | 8544 | 353 | 92 | 9.0 | ||
| 2013-09-05T23:54 | 8747 | 343 | -24.8 | -45.3 | ||
| 2013-09-05T23:54 | 8845 | 339 | -25.2 | -46.4 | ||
| 2013-09-05T23:54 | 8871 | 338 | -25.3 | -41.8 | ||
| 2013-09-05T23:54 | 8934 | 335 | 88 | 7.0 | ||
| 2013-09-05T23:54 | 8972 | 333 | -26.0 | -46.3 | ||
| 2013-09-05T23:55 | 9128 | 326 | -27.1 | -50.5 | ||
| 2013-09-05T23:55 | 9308 | 318 | 85 | 7.0 | ||
| 2013-09-05T23:56 | 9686 | 301 | 88 | 7.0 | ||
| 2013-09-05T23:57 | 10078 | 285 | 96 | 6.0 | ||
| 2013-09-05T23:58 | 10305 | 276 | -37.7 | -53.8 | ||
| 2013-09-05T23:58 | 10408 | 272 | -38.4 | -45.1 | ||
| 2013-09-05T23:58 | 10465 | 269 | 94 | 8.0 | ||
| 2013-09-05T23:58 | 10578 | 265 | -40.0 | -45.8 | ||
| 2013-09-05T23:59 | 10854 | 254 | 88 | 8.0 | ||
| 2013-09-06T00:00 | 11246 | 240 | 82 | 9.0 | ||
| 2013-09-06T00:01 | 11630 | 227 | 68 | 8.0 | ||
| 2013-09-06T00:02 | 12001 | 214 | 48 | 8.0 | ||
| 2013-09-06T00:03 | 12398 | 201 | 55 | 8.0 | ||
| 2013-09-06T00:03 | 12509 | 198 | -55.5 | |||
| 2013-09-06T00:04 | 12768 | 190 | 58 | 12.0 | ||
| 2013-09-06T00:04 | 12781 | 189 | 59 | 12.0 | ||
| 2013-09-06T00:04 | 12894 | 186 | -58.1 | |||
| 2013-09-06T00:05 | 13175 | 178 | 80 | 8.0 | ||
| 2013-09-06T00:06 | 13532 | 168 | 63 | 7.0 | ||
| 2013-09-06T00:07 | 13903 | 158 | 55 | 9.0 | ||
| 2013-09-06T00:08 | 14313 | 148 | 61 | 11.0 | ||
| 2013-09-06T00:09 | 14707 | 139 | 72 | 13.0 | ||
| 2013-09-06T00:10 | 14957 | 133 | -70.2 | |||
| 2013-09-06T00:10 | 15094 | 130 | 70 | 16.0 | ||
| 2013-09-06T00:11 | 15500 | 121 | 75 | 14.0 | ||
| 2013-09-06T00:12 | 15744 | 116 | -72.9 | |||
| 2013-09-06T00:12 | 15931 | 113 | 85 | 16.0 | ||
| 2013-09-06T00:13 | 16344 | 105 | -74.6 | |||
| 2013-09-06T00:13 | 16383 | 104 | 103 | 15.0 | ||
| 2013-09-06T00:14 | 16622 | 100 | -74.1 | 88 | 14.0 | |
| 2013-09-06T00:14 | 16809 | 97 | 83 | 17.0 | ||
| 2013-09-06T00:14 | 16866 | 96 | 86 | 17.0 | ||
| 2013-09-06T00:14 | 16872 | 96 | 86 | 17.0 | ||
| 2013-09-06T00:14 | 16877 | 96 | 86 | 17.0 | ||
| 2013-09-06T00:15 | 16991 | 94 | -73.9 | |||
| 2013-09-06T00:15 | 17153 | 91 | 87 | 14.0 | ||
| 2013-09-06T00:16 | 17381 | 88 | -72.4 | |||
| 2013-09-06T00:16 | 17387 | 88 | -72.3 | |||
| 2013-09-06T00:16 | 17485 | 86 | -72.4 | |||
| 2013-09-06T00:16 | 17497 | 86 | -72.4 | |||
| 2013-09-06T00:16 | 17510 | 86 | 82 | 15.0 | ||
| 2013-09-06T00:16 | 17606 | 85 | -72.0 | |||
| 2013-09-06T00:17 | 17901 | 80 | 96 | 15.0 | ||
| 2013-09-06T00:17 | 18018 | 79 | -71.7 | |||
| 2013-09-06T00:18 | 18100 | 78 | -72.1 | |||
| 2013-09-06T00:18 | 18195 | 77 | -71.9 | |||
| 2013-09-06T00:18 | 18262 | 76 | 89 | 13.0 | ||
| 2013-09-06T00:19 | 18571 | 72 | -69.8 | |||
| 2013-09-06T00:19 | 18633 | 71 | 77 | 11.0 | ||
| 2013-09-06T00:20 | 19000 | 67 | -68.9 | 77 | 14.0 | |
| 2013-09-06T00:21 | 19350 | 63 | -68.8 | |||
| 2013-09-06T00:21 | 19383 | 63 | 78 | 13.0 | ||
| 2013-09-06T00:22 | 19782 | 59 | 83 | 15.0 | ||
| 2013-09-06T00:22 | 19789 | 59 | -69.2 | |||
| 2013-09-06T00:23 | 19978 | 57 | 88 | 18.0 | ||
| 2013-09-06T00:23 | 19991 | 57 | 88 | 18.0 | ||
| 2013-09-06T00:23 | 20036 | 56 | -69.1 | |||
| 2013-09-06T00:23 | 20170 | 55 | 93 | 17.0 | ||
| 2013-09-06T00:24 | 20540 | 52 | 102 | 14.0 | ||
| 2013-09-06T00:25 | 20918 | 49 | 106 | 14.0 | ||
| 2013-09-06T00:25 | 21064 | 47 | -64.3 | |||
| 2013-09-06T00:26 | 21321 | 45 | 88 | 14.0 | ||
| 2013-09-06T00:27 | 21722 | 43 | -61.9 | |||
| 2013-09-06T00:27 | 21743 | 42 | 91 | 14.0 | ||
| 2013-09-06T00:27 | 21820 | 42 | -61.3 | |||
| 2013-09-06T00:28 | 22159 | 40 | 88 | 17.0 | ||
| 2013-09-06T00:28 | 22193 | 39 | -59.6 | |||
| 2013-09-06T00:28 | 22281 | 39 | -59.8 | |||
| 2013-09-06T00:29 | 22523 | 37 | -59.9 | |||
| 2013-09-06T00:29 | 22555 | 37 | 79 | 16.0 | ||
| 2013-09-06T00:29 | 22613 | 37 | -60.1 | |||
| 2013-09-06T00:29 | 22682 | 37 | -60.2 | |||
| 2013-09-06T00:30 | 22886 | 35 | -59.7 | |||
| 2013-09-06T00:30 | 22930 | 35 | 91 | 20.0 | ||
| 2013-09-06T00:30 | 22961 | 35 | -59.1 | |||
| 2013-09-06T00:30 | 22967 | 35 | -59.1 | |||
| 2013-09-06T00:31 | 23215 | 34 | -58.1 | |||
| 2013-09-06T00:31 | 23313 | 33 | 98 | 21.0 | ||
| 2013-09-06T00:32 | 23711 | 31 | 97 | 24.0 | ||
| 2013-09-06T00:32 | 23726 | 31 | 97 | 23.0 | ||
| 2013-09-06T00:32 | 23755 | 31 | 96 | 24.0 | ||
| 2013-09-06T00:32 | 23887 | 30 | -54.9 | |||
| 2013-09-06T00:33 | 24167 | 29 | 101 | 19.0 | ||
| 2013-09-06T00:34 | 24590 | 27 | 109 | 16.0 | ||
| 2013-09-06T00:35 | 24886 | 26 | -52.3 | |||
| 2013-09-06T00:35 | 24994 | 25 | 99 | 11.0 | ||
| 2013-09-06T00:36 | 25411 | 24 | 67 | 11.0 | ||
| 2013-09-06T00:37 | 25738 | 23 | -52.2 | |||
| 2013-09-06T00:37 | 25875 | 22 | 69 | 20.0 | ||
| 2013-09-06T00:38 | 26296 | 21 | -51.4 | |||
| 2013-09-06T00:38 | 26362 | 21 | 70 | 23.0 | ||
| 2013-09-06T00:39 | 26847 | 19 | 82 | 23.0 | ||
| 2013-09-06T00:40 | 27128 | 18 | -51.9 | |||
| 2013-09-06T00:40 | 27296 | 18 | 76 | 24.0 | ||
| 2013-09-06T00:41 | 27732 | 17 | 87 | 24.0 | ||
| 2013-09-06T00:42 | 28206 | 15 | 102 | 26.0 | ||
| 2013-09-06T00:42 | 28328 | 15 | -48.8 | |||
| 2013-09-06T00:43 | 28707 | 14 | 103 | 25.0 | ||
| 2013-09-06T00:43 | 28946 | 14 | -49.6 | |||
| 2013-09-06T00:44 | 29041 | 14 | -49.6 | |||
| 2013-09-06T00:44 | 29220 | 13 | 93 | 23.0 | ||
| 2013-09-06T00:44 | 29263 | 13 | -48.2 | |||
| 2013-09-06T00:45 | 29552 | 13 | -48.4 | |||
| 2013-09-06T00:45 | 29621 | 13 | -48.4 | |||
| 2013-09-06T00:45 | 29705 | 12 | 96 | 27.0 | ||
| 2013-09-06T00:45 | 29781 | 12 | 101 | 28.0 | ||
| 2013-09-06T00:45 | 29818 | 12 | -48.4 | 92 | 24.0 | |
| 2013-09-06T11:30 | 9 | 1014 | 28.6 | 25.4 | 130 | 3.0 |
| 2013-09-06T11:30 | 80 | 1006 | 28.1 | 24.3 | ||
| 2013-09-06T11:31 | 331 | 978 | 118 | 3.0 | ||
| 2013-09-06T11:32 | 571 | 951 | 24.1 | 22.4 | ||
| 2013-09-06T11:32 | 620 | 946 | 24.1 | 20.0 | ||
| 2013-09-06T11:32 | 664 | 942 | 126 | 5.0 | ||
| 2013-09-06T11:32 | 793 | 928 | 23.2 | 18.7 | ||
| 2013-09-06T11:33 | 876 | 919 | 22.6 | 19.0 | ||
| 2013-09-06T11:33 | 997 | 906 | 125 | 4.0 | ||
| 2013-09-06T11:34 | 1216 | 884 | 20.5 | 17.9 | ||
| 2013-09-06T11:34 | 1330 | 872 | 118 | 5.0 | ||
| 2013-09-06T11:35 | 1676 | 838 | 119 | 5.0 | ||
| 2013-09-06T11:35 | 1706 | 835 | 17.7 | 15.5 | ||
| 2013-09-06T11:36 | 2015 | 805 | 120 | 5.0 | ||
| 2013-09-06T11:36 | 2063 | 801 | 16.2 | 13.1 | ||
| 2013-09-06T11:37 | 2199 | 788 | 117 | 5.0 | ||
| 2013-09-06T11:37 | 2204 | 787 | 117 | 5.0 | ||
| 2013-09-06T11:37 | 2317 | 777 | 15.0 | 10.4 | ||
| 2013-09-06T11:37 | 2338 | 775 | 117 | 5.0 | ||
| 2013-09-06T11:37 | 2365 | 773 | 14.8 | 10.0 | ||
| 2013-09-06T11:38 | 2529 | 758 | 14.0 | 10.0 | ||
| 2013-09-06T11:38 | 2540 | 757 | 13.9 | 8.5 | ||
| 2013-09-06T11:38 | 2674 | 745 | 105 | 5.0 | ||
| 2013-09-06T11:38 | 2787 | 735 | 12.4 | 7.5 | ||
| 2013-09-06T11:39 | 2980 | 718 | 11.1 | 7.0 | ||
| 2013-09-06T11:39 | 3033 | 714 | 99 | 3.0 | ||
| 2013-09-06T11:39 | 3084 | 709 | 10.6 | 5.6 | ||
| 2013-09-06T11:39 | 3123 | 706 | 10.5 | 4.2 | ||
| 2013-09-06T11:40 | 3241 | 696 | 10.0 | 3.9 | ||
| 2013-09-06T11:40 | 3324 | 689 | 9.7 | 2.5 | ||
| 2013-09-06T11:40 | 3347 | 687 | 9.6 | 2.0 | ||
| 2013-09-06T11:40 | 3370 | 685 | 125 | 5.0 | ||
| 2013-09-06T11:40 | 3519 | 673 | 8.6 | 1.7 | ||
| 2013-09-06T11:41 | 3632 | 664 | 7.9 | -0.8 | ||
| 2013-09-06T11:41 | 3674 | 660 | 7.7 | 0.4 | ||
| 2013-09-06T11:41 | 3726 | 656 | 125 | 5.0 | ||
| 2013-09-06T11:41 | 3783 | 652 | 7.0 | 0.0 | ||
| 2013-09-06T11:41 | 3855 | 646 | 6.9 | -4.2 | ||
| 2013-09-06T11:42 | 3905 | 642 | 6.6 | -4.2 | ||
| 2013-09-06T11:42 | 4024 | 633 | 5.8 | -4.4 | ||
| 2013-09-06T11:42 | 4055 | 630 | 113 | 5.0 | ||
| 2013-09-06T11:42 | 4087 | 628 | 5.4 | -6.8 | ||
| 2013-09-06T11:42 | 4152 | 623 | 5.0 | -4.8 | ||
| 2013-09-06T11:42 | 4196 | 620 | 4.8 | -6.1 | ||
| 2013-09-06T11:43 | 4342 | 609 | 3.8 | -5.9 | ||
| 2013-09-06T11:43 | 4388 | 605 | 130 | 6.0 | ||
| 2013-09-06T11:43 | 4492 | 598 | 2.6 | -5.5 | ||
| 2013-09-06T11:44 | 4609 | 589 | 1.6 | -5.6 | ||
| 2013-09-06T11:44 | 4644 | 586 | 1.3 | -4.6 | ||
| 2013-09-06T11:44 | 4667 | 585 | 1.2 | -7.1 | ||
| 2013-09-06T11:44 | 4737 | 580 | 110 | 7.0 | ||
| 2013-09-06T11:44 | 4743 | 579 | 0.8 | -7.7 | ||
| 2013-09-06T11:44 | 4771 | 577 | 0.7 | -9.1 | ||
| 2013-09-06T11:44 | 4890 | 569 | -0.1 | -6.9 | ||
| 2013-09-06T11:45 | 4946 | 565 | -0.3 | -8.7 | ||
| 2013-09-06T11:45 | 4979 | 562 | -0.5 | -7.8 | ||
| 2013-09-06T11:45 | 5029 | 559 | 106 | 8.0 | ||
| 2013-09-06T11:45 | 5035 | 558 | -0.9 | -8.1 | 106 | 8.0 |
| 2013-09-06T11:45 | 5074 | 556 | -1.1 | -10.2 | 107 | 8.0 |
| 2013-09-06T11:45 | 5162 | 549 | -1.7 | -11.8 | ||
| 2013-09-06T11:45 | 5196 | 547 | -1.8 | -10.4 | ||
| 2013-09-06T11:46 | 5399 | 533 | 105 | 7.0 | ||
| 2013-09-06T11:47 | 5567 | 522 | -4.5 | -11.3 | ||
| 2013-09-06T11:47 | 5589 | 521 | -4.6 | -14.7 | ||
| 2013-09-06T11:47 | 5627 | 518 | -4.9 | -11.3 | ||
| 2013-09-06T11:47 | 5688 | 514 | -5.3 | -11.6 | ||
| 2013-09-06T11:47 | 5727 | 512 | -5.4 | -18.5 | 91 | 6.0 |
| 2013-09-06T11:47 | 5738 | 511 | -5.5 | -19.2 | ||
| 2013-09-06T11:47 | 5831 | 505 | -6.2 | -16.2 | ||
| 2013-09-06T11:47 | 5853 | 503 | -6.4 | -13.1 | ||
| 2013-09-06T11:48 | 5899 | 500 | -6.6 | -14.4 | ||
| 2013-09-06T11:48 | 6065 | 490 | 77 | 8.0 | ||
| 2013-09-06T11:48 | 6119 | 486 | -8.1 | -14.1 | ||
| 2013-09-06T11:48 | 6155 | 484 | -8.4 | -14.8 | ||
| 2013-09-06T11:48 | 6192 | 482 | -8.6 | -13.4 | ||
| 2013-09-06T11:49 | 6259 | 478 | -9.0 | -13.1 | ||
| 2013-09-06T11:49 | 6367 | 471 | -9.8 | -14.4 | ||
| 2013-09-06T11:49 | 6398 | 469 | -10.0 | -15.0 | ||
| 2013-09-06T11:49 | 6410 | 468 | -10.1 | -15.8 | ||
| 2013-09-06T11:49 | 6435 | 467 | -10.2 | -14.5 | 72 | 9.0 |
| 2013-09-06T11:49 | 6447 | 466 | -10.3 | -17.2 | ||
| 2013-09-06T11:49 | 6484 | 464 | -10.4 | -17.5 | ||
| 2013-09-06T11:49 | 6496 | 463 | -10.4 | -14.3 | ||
| 2013-09-06T11:49 | 6604 | 457 | -11.1 | -15.3 | ||
| 2013-09-06T11:50 | 6736 | 449 | 74 | 11.0 | ||
| 2013-09-06T11:50 | 6780 | 446 | -12.0 | -15.9 | 73 | 10.0 |
| 2013-09-06T11:50 | 6812 | 445 | -12.3 | -15.3 | ||
| 2013-09-06T11:50 | 6876 | 441 | -12.6 | -16.9 | ||
| 2013-09-06T11:50 | 6920 | 438 | -12.5 | -20.3 | ||
| 2013-09-06T11:51 | 6949 | 437 | -12.5 | -21.7 | ||
| 2013-09-06T11:51 | 6967 | 436 | -12.5 | -21.3 | ||
| 2013-09-06T11:51 | 6979 | 435 | -12.5 | -22.8 | ||
| 2013-09-06T11:51 | 7015 | 433 | -12.7 | -21.9 | ||
| 2013-09-06T11:51 | 7045 | 431 | -12.9 | -17.9 | ||
| 2013-09-06T11:51 | 7125 | 427 | 65 | 9.0 | ||
| 2013-09-06T11:51 | 7305 | 417 | -14.9 | -20.0 | ||
| 2013-09-06T11:52 | 7504 | 406 | -16.4 | -20.9 | 53 | 9.0 |
| 2013-09-06T11:52 | 7556 | 403 | -16.8 | -22.9 | ||
| 2013-09-06T11:52 | 7631 | 399 | -17.3 | -22.3 | ||
| 2013-09-06T11:53 | 7787 | 391 | -18.5 | -22.1 | ||
| 2013-09-06T11:53 | 7852 | 387 | 41 | 6.0 | ||
| 2013-09-06T11:53 | 7956 | 382 | -19.6 | -23.4 | ||
| 2013-09-06T11:53 | 8005 | 379 | -19.9 | -23.8 | ||
| 2013-09-06T11:54 | 8121 | 373 | -20.7 | -26.6 | ||
| 2013-09-06T11:54 | 8159 | 372 | -21.0 | -25.2 | ||
| 2013-09-06T11:54 | 8203 | 369 | -21.3 | -24.3 | ||
| 2013-09-06T11:54 | 8221 | 368 | 60 | 6.0 | ||
| 2013-09-06T11:54 | 8271 | 366 | -21.7 | -24.8 | ||
| 2013-09-06T11:55 | 8610 | 349 | 72 | 7.0 | ||
| 2013-09-06T11:56 | 8969 | 333 | 65 | 6.0 | ||
| 2013-09-06T11:56 | 9009 | 331 | -26.3 | -31.8 | ||
| 2013-09-06T11:57 | 9242 | 320 | -27.9 | -34.7 | ||
| 2013-09-06T11:57 | 9336 | 316 | 34 | 6.0 | ||
| 2013-09-06T11:58 | 9702 | 300 | 39 | 7.0 | ||
| 2013-09-06T11:58 | 9734 | 299 | -31.8 | -40.0 | ||
| 2013-09-06T11:59 | 9960 | 289 | -33.5 | -43.2 | ||
| 2013-09-06T11:59 | 10078 | 285 | 54 | 8.0 | ||
| 2013-09-06T11:59 | 10151 | 282 | -34.9 | -45.3 | ||
| 2013-09-06T12:00 | 10349 | 274 | -36.7 | -45.9 | ||
| 2013-09-06T12:00 | 10437 | 270 | 50 | 8.0 | ||
| 2013-09-06T12:00 | 10584 | 265 | -38.7 | -48.4 | ||
| 2013-09-06T12:01 | 10770 | 257 | -40.0 | -49.6 | ||
| 2013-09-06T12:01 | 10801 | 256 | 69 | 7.0 | ||
| 2013-09-06T12:02 | 11190 | 242 | 62 | 7.0 | ||
| 2013-09-06T12:03 | 11599 | 228 | 66 | 9.0 | ||
| 2013-09-06T12:04 | 11958 | 215 | 70 | 10.0 | ||
| 2013-09-06T12:04 | 12052 | 212 | -51.3 | |||
| 2013-09-06T12:05 | 12322 | 204 | 59 | 8.0 | ||
| 2013-09-06T12:06 | 12672 | 193 | 75 | 8.0 | ||
| 2013-09-06T12:06 | 12754 | 190 | -56.4 | |||
| 2013-09-06T12:07 | 13029 | 182 | 70 | 4.0 | ||
| 2013-09-06T12:08 | 13381 | 172 | 79 | 5.0 | ||
| 2013-09-06T12:09 | 13726 | 163 | 94 | 7.0 | ||
| 2013-09-06T12:10 | 14082 | 154 | 70 | 4.0 | ||
| 2013-09-06T12:10 | 14153 | 152 | -63.9 | |||
| 2013-09-06T12:11 | 14451 | 145 | 59 | 7.0 | ||
| 2013-09-06T12:12 | 14851 | 135 | 73 | 9.0 | ||
| 2013-09-06T12:12 | 14962 | 133 | -68.6 | |||
| 2013-09-06T12:13 | 15203 | 128 | 72 | 9.0 | ||
| 2013-09-06T12:14 | 15579 | 120 | 84 | 6.0 | ||
| 2013-09-06T12:15 | 15893 | 114 | -71.6 | |||
| 2013-09-06T12:15 | 15959 | 112 | 57 | 5.0 | ||
| 2013-09-06T12:15 | 16061 | 110 | -71.2 | |||
| 2013-09-06T12:16 | 16323 | 106 | 52 | 9.0 | ||
| 2013-09-06T12:16 | 16406 | 104 | -72.9 | |||
| 2013-09-06T12:17 | 16640 | 100 | -74.1 | 77 | 9.0 | |
| 2013-09-06T12:17 | 16718 | 99 | 79 | 8.0 | ||
| 2013-09-06T12:18 | 16916 | 95 | -75.2 | |||
| 2013-09-06T12:18 | 17133 | 92 | 58 | 6.0 | ||
| 2013-09-06T12:19 | 17417 | 87 | -76.7 | |||
| 2013-09-06T12:19 | 17560 | 85 | 76 | 14.0 | ||
| 2013-09-06T12:19 | 17688 | 84 | -74.3 | |||
| 2013-09-06T12:20 | 17908 | 80 | 89 | 13.0 | ||
| 2013-09-06T12:21 | 18148 | 77 | -73.2 | |||
| 2013-09-06T12:21 | 18312 | 75 | 77 | 14.0 | ||
| 2013-09-06T12:22 | 18725 | 70 | 88 | 17.0 | ||
| 2013-09-06T12:22 | 18837 | 69 | -70.0 | |||
| 2013-09-06T12:22 | 18845 | 69 | 96 | 17.0 | ||
| 2013-09-06T12:22 | 18852 | 68 | 96 | 17.0 | ||
| 2013-09-06T12:22 | 18867 | 68 | 97 | 17.0 | ||
| 2013-09-06T12:22 | 18875 | 68 | 97 | 17.0 | ||
| 2013-09-06T12:22 | 18882 | 68 | 97 | 17.0 | ||
| 2013-09-06T12:22 | 18890 | 68 | 97 | 17.0 | ||
| 2013-09-06T12:22 | 18897 | 68 | 98 | 17.0 | ||
| 2013-09-06T12:22 | 18904 | 68 | 98 | 17.0 | ||
| 2013-09-06T12:23 | 19141 | 65 | 99 | 16.0 | ||
| 2013-09-06T12:24 | 19417 | 62 | -68.5 | |||
| 2013-09-06T12:24 | 19507 | 61 | 98 | 16.0 | ||
| 2013-09-06T12:25 | 19700 | 59 | -63.8 | |||
| 2013-09-06T12:25 | 19850 | 58 | 86 | 12.0 | ||
| 2013-09-06T12:26 | 20258 | 54 | -62.0 | 97 | 10.0 | |
| 2013-09-06T12:27 | 20675 | 51 | 87 | 13.0 | ||
| 2013-09-06T12:27 | 20834 | 49 | -63.3 | |||
| 2013-09-06T12:28 | 21083 | 48 | 85 | 14.0 | ||
| 2013-09-06T12:29 | 21365 | 45 | -62.5 | |||
| 2013-09-06T12:29 | 21471 | 45 | 87 | 15.0 | ||
| 2013-09-06T12:30 | 21853 | 42 | 81 | 15.0 | ||
| 2013-09-06T12:31 | 22134 | 40 | -60.5 | |||
| 2013-09-06T12:31 | 22240 | 39 | 80 | 19.0 | ||
| 2013-09-06T12:32 | 22631 | 37 | 82 | 18.0 | ||
| 2013-09-06T12:33 | 22911 | 35 | -57.7 | |||
| 2013-09-06T12:33 | 23021 | 35 | 85 | 19.0 | ||
| 2013-09-06T12:34 | 23433 | 33 | 88 | 22.0 | ||
| 2013-09-06T12:35 | 23734 | 31 | 95 | 23.0 | ||
| 2013-09-06T12:35 | 23876 | 30 | 97 | 22.0 | ||
| 2013-09-06T12:36 | 24348 | 28 | 101 | 21.0 | ||
| 2013-09-06T12:37 | 24586 | 27 | -53.5 | |||
| 2013-09-06T12:37 | 24802 | 26 | 104 | 21.0 | ||
| 2013-09-06T12:38 | 25223 | 25 | 102 | 21.0 | ||
| 2013-09-06T12:39 | 25654 | 23 | 98 | 27.0 | ||
| 2013-09-06T12:40 | 26143 | 21 | 96 | 26.0 | ||
| 2013-09-06T12:40 | 26330 | 21 | -52.1 | |||
| 2013-09-06T12:41 | 26623 | 20 | 88 | 27.0 | ||
| 2013-09-06T12:41 | 26733 | 20 | 85 | 28.0 | ||
| 2013-09-06T12:41 | 26762 | 19 | -46.6 | |||
| 2013-09-06T12:42 | 27044 | 19 | 82 | 26.0 | ||
| 2013-09-06T12:42 | 27171 | 18 | -43.5 | |||
| 2013-09-06T12:43 | 27496 | 17 | 71 | 23.0 | ||
| 2013-09-06T12:44 | 28027 | 16 | 76 | 20.0 | ||
| 2013-09-06T12:45 | 28385 | 15 | -45.2 | |||
| 2013-09-06T12:45 | 28556 | 15 | 90 | 22.0 | ||
| 2013-09-06T12:46 | 29030 | 14 | 87 | 20.0 | ||
| 2013-09-06T12:47 | 29443 | 13 | -44.7 | |||
| 2013-09-06T12:47 | 29497 | 13 | 68 | 21.0 | ||
| 2013-09-06T12:48 | 29969 | 12 | 86 | 24.0 | ||
| 2013-09-06T12:49 | 30392 | 11 | -45.6 | |||
| 2013-09-06T12:49 | 30449 | 11 | 92 | 28.0 | ||
| 2013-09-06T12:50 | 30958 | 10 | -44.7 | 95 | 30.0 | |
| 2013-09-06T12:51 | 31468 | 10 | 97 | 28.0 | ||
| 2013-09-06T12:52 | 31711 | 9 | -42.8 | |||
| 2013-09-06T12:52 | 31954 | 9 | 94 | 31.0 | ||
| 2013-09-06T12:52 | 32043 | 9 | -42.9 | |||
| 2013-09-06T12:53 | 32461 | 8 | 89 | 36.0 | ||
| 2013-09-06T12:53 | 32531 | 8 | 90 | 36.0 | ||
| 2013-09-06T12:54 | 32852 | 8 | -41.5 | |||
| 2013-09-06T12:54 | 32969 | 8 | 97 | 33.0 | ||
| 2013-09-06T12:54 | 33020 | 8 | -41.7 | 95 | 33.0 | |
| 2013-09-06T23:30 | 9 | 1015 | 29.1 | 25.7 | 80 | 3.0 |
| 2013-09-06T23:30 | 17 | 1014 | 28.2 | 24.0 | ||
| 2013-09-06T23:31 | 347 | 977 | 102 | 4.0 | ||
| 2013-09-06T23:31 | 462 | 964 | 24.6 | 22.5 | ||
| 2013-09-06T23:32 | 702 | 938 | 112 | 4.0 | ||
| 2013-09-06T23:33 | 1023 | 905 | 128 | 4.0 | ||
| 2013-09-06T23:33 | 1080 | 899 | 20.8 | 18.4 | ||
| 2013-09-06T23:33 | 1143 | 892 | 20.9 | 15.7 | ||
| 2013-09-06T23:34 | 1217 | 884 | 20.3 | 17.1 | ||
| 2013-09-06T23:34 | 1344 | 872 | 123 | 5.0 | ||
| 2013-09-06T23:34 | 1366 | 869 | 19.6 | 16.3 | ||
| 2013-09-06T23:35 | 1511 | 855 | 19.0 | 15.5 | ||
| 2013-09-06T23:35 | 1672 | 839 | 111 | 5.0 | ||
| 2013-09-06T23:35 | 1699 | 836 | 17.4 | 15.4 | ||
| 2013-09-06T23:35 | 1818 | 825 | 17.5 | 13.6 | ||
| 2013-09-06T23:36 | 2006 | 807 | 16.1 | 12.5 | ||
| 2013-09-06T23:36 | 2039 | 804 | 113 | 6.0 | ||
| 2013-09-06T23:36 | 2072 | 801 | 16.0 | 11.4 | ||
| 2013-09-06T23:37 | 2246 | 784 | 15.0 | 10.0 | ||
| 2013-09-06T23:37 | 2332 | 777 | 14.5 | 10.5 | ||
| 2013-09-06T23:37 | 2417 | 769 | 106 | 7.0 | ||
| 2013-09-06T23:37 | 2447 | 766 | 13.8 | 9.4 | ||
| 2013-09-06T23:37 | 2488 | 762 | 13.4 | 10.0 | ||
| 2013-09-06T23:38 | 2608 | 752 | 13.1 | 8.2 | ||
| 2013-09-06T23:38 | 2737 | 740 | 12.6 | 6.2 | ||
| 2013-09-06T23:38 | 2760 | 738 | 103 | 8.0 | ||
| 2013-09-06T23:38 | 2858 | 730 | 11.8 | 7.1 | ||
| 2013-09-06T23:39 | 2940 | 722 | 11.5 | 4.5 | ||
| 2013-09-06T23:39 | 2975 | 719 | 11.3 | 6.2 | ||
| 2013-09-06T23:39 | 3011 | 716 | 11.1 | 5.2 | ||
| 2013-09-06T23:39 | 3045 | 713 | 11.0 | 4.0 | ||
| 2013-09-06T23:39 | 3091 | 709 | 10.7 | 3.9 | ||
| 2013-09-06T23:39 | 3107 | 708 | 98 | 8.0 | ||
| 2013-09-06T23:39 | 3124 | 707 | 10.5 | 5.1 | ||
| 2013-09-06T23:39 | 3192 | 701 | 10.1 | 4.0 | 96 | 9.0 |
| 2013-09-06T23:39 | 3213 | 699 | 10.1 | 1.5 | ||
| 2013-09-06T23:40 | 3274 | 694 | 10.0 | 1.4 | ||
| 2013-09-06T23:40 | 3361 | 687 | 9.4 | 0.3 | ||
| 2013-09-06T23:40 | 3413 | 683 | 9.0 | 1.7 | ||
| 2013-09-06T23:40 | 3418 | 682 | 94 | 8.0 | ||
| 2013-09-06T23:40 | 3476 | 677 | 8.7 | -0.6 | ||
| 2013-09-06T23:40 | 3524 | 673 | 8.5 | 0.5 | ||
| 2013-09-06T23:41 | 3579 | 669 | 8.3 | -3.5 | ||
| 2013-09-06T23:41 | 3687 | 660 | 7.3 | -0.4 | ||
| 2013-09-06T23:41 | 3743 | 656 | 101 | 7.0 | ||
| 2013-09-06T23:41 | 3778 | 653 | 6.8 | -0.2 | ||
| 2013-09-06T23:42 | 3923 | 642 | 5.9 | -1.5 | ||
| 2013-09-06T23:42 | 4099 | 628 | 105 | 6.0 | ||
| 2013-09-06T23:42 | 4270 | 615 | 3.8 | -4.2 | ||
| 2013-09-06T23:43 | 4463 | 601 | 92 | 6.0 | ||
| 2013-09-06T23:43 | 4618 | 589 | 1.0 | -5.5 | ||
| 2013-09-06T23:44 | 4653 | 587 | 0.8 | -6.1 | ||
| 2013-09-06T23:44 | 4811 | 575 | 102 | 5.0 | ||
| 2013-09-06T23:44 | 4933 | 567 | -1.0 | -8.0 | ||
| 2013-09-06T23:44 | 4955 | 565 | -1.1 | -10.7 | ||
| 2013-09-06T23:45 | 5122 | 553 | -2.2 | -14.3 | ||
| 2013-09-06T23:45 | 5145 | 552 | -2.3 | -8.2 | 107 | 5.0 |
| 2013-09-06T23:45 | 5303 | 541 | -3.4 | -9.8 | ||
| 2013-09-06T23:46 | 5345 | 538 | -3.7 | -8.7 | ||
| 2013-09-06T23:46 | 5408 | 533 | -4.0 | -10.8 | ||
| 2013-09-06T23:46 | 5464 | 530 | 120 | 3.0 | ||
| 2013-09-06T23:47 | 5670 | 516 | -5.9 | -13.1 | ||
| 2013-09-06T23:47 | 5744 | 511 | -6.3 | -16.8 | ||
| 2013-09-06T23:47 | 5754 | 510 | -6.3 | -21.9 | ||
| 2013-09-06T23:47 | 5770 | 509 | 138 | 5.0 | ||
| 2013-09-06T23:48 | 5966 | 497 | -7.6 | -22.2 | ||
| 2013-09-06T23:48 | 5987 | 496 | -7.7 | -19.9 | ||
| 2013-09-06T23:48 | 6003 | 495 | -7.8 | -23.2 | ||
| 2013-09-06T23:48 | 6038 | 492 | -8.1 | -19.3 | ||
| 2013-09-06T23:48 | 6064 | 491 | 123 | 9.0 | ||
| 2013-09-06T23:48 | 6089 | 489 | -8.4 | -17.0 | 120 | 9.0 |
| 2013-09-06T23:48 | 6099 | 488 | 122 | 9.0 | ||
| 2013-09-06T23:48 | 6148 | 485 | -8.7 | -18.0 | ||
| 2013-09-06T23:48 | 6173 | 484 | -8.8 | -22.9 | ||
| 2013-09-06T23:48 | 6199 | 482 | -9.0 | -27.9 | ||
| 2013-09-06T23:49 | 6240 | 480 | -9.3 | -27.6 | ||
| 2013-09-06T23:49 | 6261 | 478 | -9.3 | -27.1 | ||
| 2013-09-06T23:49 | 6335 | 474 | -9.7 | -25.2 | ||
| 2013-09-06T23:49 | 6372 | 472 | -9.9 | -28.7 | ||
| 2013-09-06T23:49 | 6393 | 470 | 126 | 7.0 | ||
| 2013-09-06T23:49 | 6537 | 462 | -11.5 | -27.2 | ||
| 2013-09-06T23:50 | 6614 | 457 | -12.1 | -26.5 | ||
| 2013-09-06T23:50 | 6643 | 455 | -12.2 | -23.6 | ||
| 2013-09-06T23:50 | 6705 | 452 | -12.3 | -22.6 | ||
| 2013-09-06T23:50 | 6728 | 450 | 116 | 7.0 | ||
| 2013-09-06T23:50 | 6786 | 447 | -13.0 | -23.0 | ||
| 2013-09-06T23:50 | 6872 | 442 | -13.7 | -23.1 | ||
| 2013-09-06T23:51 | 6960 | 437 | -14.3 | -22.0 | ||
| 2013-09-06T23:51 | 7066 | 431 | -14.8 | -23.9 | ||
| 2013-09-06T23:51 | 7078 | 430 | 112 | 6.0 | ||
| 2013-09-06T23:51 | 7090 | 429 | -14.8 | -23.4 | ||
| 2013-09-06T23:51 | 7132 | 427 | -14.9 | -21.3 | ||
| 2013-09-06T23:51 | 7200 | 423 | -15.3 | -24.8 | ||
| 2013-09-06T23:51 | 7218 | 422 | -15.4 | -29.8 | ||
| 2013-09-06T23:52 | 7292 | 418 | -15.8 | -32.2 | ||
| 2013-09-06T23:52 | 7355 | 414 | -16.1 | -25.1 | ||
| 2013-09-06T23:52 | 7381 | 413 | -16.2 | -24.9 | ||
| 2013-09-06T23:52 | 7432 | 410 | -16.5 | -25.7 | ||
| 2013-09-06T23:52 | 7451 | 409 | 108 | 8.0 | ||
| 2013-09-06T23:52 | 7529 | 405 | 107 | 9.0 | ||
| 2013-09-06T23:52 | 7555 | 404 | -17.2 | -33.4 | ||
| 2013-09-06T23:52 | 7619 | 400 | -17.5 | -30.3 | ||
| 2013-09-06T23:53 | 7658 | 398 | -17.7 | -34.3 | ||
| 2013-09-06T23:53 | 7684 | 397 | -17.8 | -27.4 | ||
| 2013-09-06T23:53 | 7743 | 394 | -18.2 | -31.9 | ||
| 2013-09-06T23:53 | 7840 | 389 | 101 | 7.0 | ||
| 2013-09-06T23:53 | 7885 | 386 | -19.1 | -31.4 | ||
| 2013-09-06T23:53 | 7922 | 384 | -19.3 | -31.2 | ||
| 2013-09-06T23:53 | 7948 | 383 | -19.3 | -31.2 | ||
| 2013-09-06T23:53 | 7973 | 382 | -19.5 | -28.4 | ||
| 2013-09-06T23:54 | 8203 | 370 | -21.2 | -31.8 | ||
| 2013-09-06T23:54 | 8216 | 369 | 98 | 8.0 | ||
| 2013-09-06T23:54 | 8298 | 365 | -21.9 | -33.6 | ||
| 2013-09-06T23:55 | 8547 | 353 | -24.1 | -32.5 | ||
| 2013-09-06T23:55 | 8588 | 351 | 99 | 7.0 | ||
| 2013-09-06T23:56 | 8795 | 341 | -25.9 | -34.6 | ||
| 2013-09-06T23:56 | 8903 | 336 | 98 | 7.0 | ||
| 2013-09-06T23:56 | 9031 | 330 | -27.6 | -37.3 | ||
| 2013-09-06T23:57 | 9246 | 320 | -29.2 | -39.6 | ||
| 2013-09-06T23:57 | 9270 | 319 | 90 | 9.0 | ||
| 2013-09-06T23:58 | 9507 | 309 | -31.3 | -42.9 | ||
| 2013-09-06T23:58 | 9625 | 304 | 84 | 9.0 | ||
| 2013-09-06T23:58 | 9724 | 300 | 86 | 9.0 | ||
| 2013-09-06T23:58 | 9741 | 299 | 86 | 9.0 | ||
| 2013-09-06T23:59 | 9838 | 295 | 83 | 9.0 | ||
| 2013-09-06T23:59 | 9991 | 288 | 77 | 9.0 | ||
| 2013-09-07T00:00 | 10343 | 274 | -37.8 | -49.9 | ||
| 2013-09-07T00:00 | 10361 | 273 | 55 | 7.0 | ||
| 2013-09-07T00:00 | 10471 | 269 | -38.7 | -51.4 | ||
| 2013-09-07T00:01 | 10621 | 263 | -40.0 | -56.2 | ||
| 2013-09-07T00:01 | 10735 | 259 | 39 | 8.0 | ||
| 2013-09-07T00:02 | 11109 | 245 | 23 | 9.0 | ||
| 2013-09-07T00:03 | 11330 | 237 | 20 | 10.0 | ||
| 2013-09-07T00:03 | 11516 | 230 | 29 | 10.0 | ||
| 2013-09-07T00:04 | 11799 | 221 | -50.5 | |||
| 2013-09-07T00:04 | 11869 | 218 | 46 | 8.0 | ||
| 2013-09-07T00:05 | 12214 | 207 | 43 | 6.0 | ||
| 2013-09-07T00:06 | 12574 | 195 | 355 | 8.0 | ||
| 2013-09-07T00:07 | 12904 | 186 | -58.9 | 3 | 10.0 | |
| 2013-09-07T00:07 | 13055 | 181 | 18 | 10.0 | ||
| 2013-09-07T00:08 | 13235 | 176 | 33 | 10.0 | ||
| 2013-09-07T00:09 | 13493 | 169 | -62.2 | |||
| 2013-09-07T00:09 | 13551 | 167 | 46 | 6.0 | ||
| 2013-09-07T00:10 | 13850 | 159 | 44 | 3.0 | ||
| 2013-09-07T00:11 | 14150 | 152 | 47 | 5.0 | ||
| 2013-09-07T00:12 | 14335 | 147 | -66.4 | |||
| 2013-09-07T00:12 | 14458 | 144 | 67 | 6.0 | ||
| 2013-09-07T00:13 | 14738 | 138 | -68.0 | |||
| 2013-09-07T00:13 | 14829 | 135 | 72 | 9.0 | ||
| 2013-09-07T00:14 | 15115 | 129 | 74 | 13.0 | ||
| 2013-09-07T00:14 | 15234 | 127 | 75 | 12.0 | ||
| 2013-09-07T00:15 | 15585 | 119 | 86 | 9.0 | ||
| 2013-09-07T00:16 | 15858 | 114 | -74.0 | |||
| 2013-09-07T00:16 | 15933 | 112 | 73 | 12.0 | ||
| 2013-09-07T00:17 | 16118 | 109 | -75.4 | |||
| 2013-09-07T00:17 | 16280 | 106 | 99 | 12.0 | ||
| 2013-09-07T00:18 | 16532 | 101 | -75.3 | |||
| 2013-09-07T00:18 | 16611 | 100 | -75.7 | 98 | 11.0 | |
| 2013-09-07T00:18 | 16635 | 100 | 97 | 11.0 | ||
| 2013-09-07T00:19 | 16898 | 95 | -75.7 | |||
| 2013-09-07T00:19 | 17001 | 94 | 104 | 12.0 | ||
| 2013-09-07T00:19 | 17143 | 91 | -75.1 | |||
| 2013-09-07T00:20 | 17345 | 88 | 93 | 9.0 | ||
| 2013-09-07T00:21 | 17652 | 84 | 103 | 9.0 | ||
| 2013-09-07T00:21 | 17687 | 83 | -70.4 | |||
| 2013-09-07T00:22 | 18001 | 79 | 97 | 8.0 | ||
| 2013-09-07T00:22 | 18142 | 77 | -70.0 | |||
| 2013-09-07T00:23 | 18366 | 74 | 106 | 11.0 | ||
| 2013-09-07T00:24 | 18663 | 71 | -70.4 | |||
| 2013-09-07T00:24 | 18745 | 70 | 106 | 13.0 | ||
| 2013-09-07T00:25 | 19023 | 66 | -69.2 | |||
| 2013-09-07T00:25 | 19113 | 65 | 104 | 8.0 | ||
| 2013-09-07T00:26 | 19470 | 62 | 95 | 9.0 | ||
| 2013-09-07T00:26 | 19537 | 61 | -68.0 | |||
| 2013-09-07T00:27 | 19848 | 58 | 89 | 14.0 | ||
| 2013-09-07T00:27 | 20011 | 56 | 97 | 16.0 | ||
| 2013-09-07T00:27 | 20025 | 56 | 97 | 16.0 | ||
| 2013-09-07T00:27 | 20039 | 56 | 98 | 16.0 | ||
| 2013-09-07T00:27 | 20046 | 56 | 98 | 16.0 | ||
| 2013-09-07T00:28 | 20060 | 56 | 99 | 16.0 | ||
| 2013-09-07T00:28 | 20067 | 56 | 99 | 16.0 | ||
| 2013-09-07T00:28 | 20264 | 54 | 94 | 14.0 | ||
| 2013-09-07T00:29 | 20665 | 51 | 90 | 14.0 | ||
| 2013-09-07T00:30 | 20978 | 48 | -64.7 | |||
| 2013-09-07T00:30 | 21032 | 48 | 94 | 16.0 | ||
| 2013-09-07T00:31 | 21406 | 45 | 107 | 16.0 | ||
| 2013-09-07T00:32 | 21601 | 43 | -61.8 | |||
| 2013-09-07T00:32 | 21798 | 42 | 95 | 17.0 | ||
| 2013-09-07T00:33 | 22224 | 39 | 87 | 19.0 | ||
| 2013-09-07T00:33 | 22295 | 39 | -59.1 | |||
| 2013-09-07T00:34 | 22526 | 37 | 94 | 20.0 | ||
| 2013-09-07T00:34 | 22533 | 37 | 94 | 20.0 | ||
| 2013-09-07T00:34 | 22560 | 37 | 95 | 20.0 | ||
| 2013-09-07T00:34 | 22567 | 37 | 95 | 20.0 | ||
| 2013-09-07T00:34 | 22641 | 37 | 97 | 19.0 | ||
| 2013-09-07T00:34 | 22668 | 37 | -57.6 | |||
| 2013-09-07T00:35 | 23052 | 34 | 106 | 18.0 | ||
| 2013-09-07T00:35 | 23251 | 33 | -58.4 | |||
| 2013-09-07T00:36 | 23483 | 32 | 106 | 17.0 | ||
| 2013-09-07T00:37 | 23824 | 30 | -56.9 | |||
| 2013-09-07T00:37 | 23914 | 30 | 99 | 15.0 | ||
| 2013-09-07T00:38 | 24344 | 28 | 93 | 15.0 | ||
| 2013-09-07T00:39 | 24584 | 27 | -56.4 | |||
| 2013-09-07T00:39 | 24784 | 26 | 82 | 19.0 | ||
| 2013-09-07T00:40 | 25207 | 25 | 95 | 19.0 | ||
| 2013-09-07T00:40 | 25215 | 24 | -55.1 | |||
| 2013-09-07T00:41 | 25652 | 23 | 100 | 22.0 | ||
| 2013-09-07T00:41 | 25871 | 22 | -52.6 | |||
| 2013-09-07T00:42 | 26112 | 21 | 104 | 22.0 | ||
| 2013-09-07T00:43 | 26572 | 20 | 109 | 24.0 | ||
| 2013-09-07T00:43 | 26624 | 20 | -52.4 | |||
| 2013-09-07T00:43 | 26705 | 19 | -52.6 | |||
| 2013-09-07T00:44 | 27003 | 19 | 107 | 27.0 | ||
| 2013-09-07T00:44 | 27027 | 18 | 106 | 26.0 | ||
| 2013-09-07T00:45 | 27438 | 17 | -48.5 | |||
| 2013-09-07T00:45 | 27511 | 17 | 101 | 25.0 | ||
| 2013-09-07T00:45 | 27657 | 17 | -47.4 | 91 | 26.0 | |
| 2013-09-07T11:30 | 9 | 1016 | 27.3 | 24.4 | 150 | 4.0 |
| 2013-09-07T11:31 | 310 | 982 | 148 | 6.0 | ||
| 2013-09-07T11:31 | 316 | 981 | 25.3 | 22.0 | ||
| 2013-09-07T11:31 | 401 | 972 | 26.0 | 19.2 | ||
| 2013-09-07T11:31 | 483 | 963 | 141 | 7.0 | ||
| 2013-09-07T11:31 | 489 | 962 | 141 | 7.0 | ||
| 2013-09-07T11:32 | 619 | 948 | 25.0 | 17.0 | ||
| 2013-09-07T11:32 | 665 | 943 | 135 | 7.0 | ||
| 2013-09-07T11:33 | 863 | 922 | 23.0 | 16.6 | ||
| 2013-09-07T11:33 | 1011 | 906 | 117 | 5.0 | ||
| 2013-09-07T11:34 | 1351 | 872 | 109 | 6.0 | ||
| 2013-09-07T11:34 | 1419 | 865 | 20.4 | 14.1 | ||
| 2013-09-07T11:35 | 1696 | 838 | 133 | 5.0 | ||
| 2013-09-07T11:35 | 1769 | 831 | 18.6 | 11.2 | ||
| 2013-09-07T11:36 | 2011 | 808 | 16.9 | 10.3 | ||
| 2013-09-07T11:36 | 2050 | 804 | 141 | 6.0 | ||
| 2013-09-07T11:37 | 2247 | 786 | 15.3 | 9.7 | ||
| 2013-09-07T11:37 | 2379 | 773 | 144 | 6.0 | ||
| 2013-09-07T11:37 | 2396 | 772 | 14.6 | 8.1 | ||
| 2013-09-07T11:38 | 2591 | 754 | 13.1 | 7.1 | ||
| 2013-09-07T11:38 | 2722 | 743 | 147 | 3.0 | ||
| 2013-09-07T11:39 | 2944 | 723 | 11.7 | 4.0 | ||
| 2013-09-07T11:39 | 3055 | 714 | 152 | 2.0 | ||
| 2013-09-07T11:39 | 3170 | 704 | 10.3 | 3.6 | ||
| 2013-09-07T11:40 | 3388 | 686 | 120 | 4.0 | ||
| 2013-09-07T11:40 | 3434 | 682 | 8.5 | 3.1 | ||
| 2013-09-07T11:41 | 3751 | 657 | 117 | 8.0 | ||
| 2013-09-07T11:41 | 3787 | 654 | 5.7 | 0.9 | 118 | 9.0 |
| 2013-09-07T11:41 | 3792 | 653 | 117 | 9.0 | ||
| 2013-09-07T11:42 | 4110 | 628 | 120 | 7.0 | ||
| 2013-09-07T11:42 | 4178 | 623 | 2.9 | -0.2 | ||
| 2013-09-07T11:43 | 4366 | 609 | 2.0 | -1.6 | ||
| 2013-09-07T11:43 | 4439 | 603 | 1.6 | -3.3 | ||
| 2013-09-07T11:43 | 4480 | 600 | 107 | 6.0 | ||
| 2013-09-07T11:43 | 4516 | 597 | 1.1 | -3.6 | ||
| 2013-09-07T11:43 | 4564 | 594 | 0.9 | -4.1 | ||
| 2013-09-07T11:43 | 4636 | 589 | 0.5 | -3.2 | ||
| 2013-09-07T11:44 | 4766 | 579 | -0.1 | -8.1 | ||
| 2013-09-07T11:44 | 4797 | 577 | -0.2 | -4.3 | ||
| 2013-09-07T11:44 | 4810 | 576 | -0.2 | -10.2 | ||
| 2013-09-07T11:44 | 4841 | 574 | -0.3 | -11.7 | ||
| 2013-09-07T11:44 | 4848 | 573 | 81 | 8.0 | ||
| 2013-09-07T11:44 | 4873 | 571 | -0.4 | -9.6 | ||
| 2013-09-07T11:44 | 4905 | 569 | -0.4 | -15.9 | ||
| 2013-09-07T11:45 | 5118 | 554 | -2.0 | -15.8 | ||
| 2013-09-07T11:45 | 5142 | 553 | 77 | 10.0 | ||
| 2013-09-07T11:45 | 5177 | 550 | -2.5 | -11.3 | ||
| 2013-09-07T11:45 | 5213 | 548 | 80 | 10.0 | ||
| 2013-09-07T11:45 | 5219 | 547 | -2.9 | -11.1 | ||
| 2013-09-07T11:45 | 5261 | 544 | -3.1 | -11.3 | ||
| 2013-09-07T11:45 | 5326 | 540 | -3.3 | -12.5 | ||
| 2013-09-07T11:45 | 5338 | 539 | -3.4 | -14.5 | ||
| 2013-09-07T11:45 | 5385 | 536 | -3.8 | -12.7 | ||
| 2013-09-07T11:46 | 5421 | 533 | -4.1 | -8.6 | ||
| 2013-09-07T11:46 | 5554 | 524 | -5.3 | -8.0 | ||
| 2013-09-07T11:46 | 5572 | 523 | 76 | 8.0 | ||
| 2013-09-07T11:46 | 5650 | 518 | -5.9 | -9.3 | ||
| 2013-09-07T11:46 | 5674 | 516 | -6.0 | -12.5 | ||
| 2013-09-07T11:46 | 5705 | 514 | -6.1 | -10.9 | ||
| 2013-09-07T11:47 | 5942 | 499 | 57 | 8.0 | ||
| 2013-09-07T11:47 | 5994 | 496 | -7.8 | -12.7 | ||
| 2013-09-07T11:48 | 6138 | 487 | -8.7 | -13.7 | ||
| 2013-09-07T11:48 | 6190 | 483 | -9.0 | -15.2 | ||
| 2013-09-07T11:48 | 6233 | 481 | -9.1 | -15.4 | ||
| 2013-09-07T11:48 | 6295 | 477 | -9.4 | -14.0 | ||
| 2013-09-07T11:48 | 6324 | 475 | -9.7 | -12.5 | 69 | 8.0 |
| 2013-09-07T11:49 | 6498 | 465 | -10.7 | -14.1 | ||
| 2013-09-07T11:49 | 6525 | 463 | -10.9 | -13.4 | ||
| 2013-09-07T11:49 | 6597 | 459 | -11.4 | -13.6 | ||
| 2013-09-07T11:49 | 6614 | 458 | -11.5 | -14.3 | ||
| 2013-09-07T11:49 | 6637 | 456 | -11.6 | -12.4 | ||
| 2013-09-07T11:49 | 6655 | 455 | -11.6 | -12.6 | 88 | 7.0 |
| 2013-09-07T11:49 | 6684 | 453 | -11.6 | -13.8 | ||
| 2013-09-07T11:49 | 6727 | 451 | -11.7 | -13.1 | ||
| 2013-09-07T11:49 | 6746 | 450 | -11.8 | -15.2 | ||
| 2013-09-07T11:49 | 6752 | 449 | -11.8 | -14.1 | ||
| 2013-09-07T11:49 | 6834 | 445 | -12.4 | -13.6 | ||
| 2013-09-07T11:50 | 6885 | 442 | -12.7 | -14.4 | ||
| 2013-09-07T11:50 | 6936 | 439 | -13.1 | -14.7 | ||
| 2013-09-07T11:50 | 6961 | 437 | -13.3 | -15.9 | ||
| 2013-09-07T11:50 | 6980 | 436 | -13.4 | -15.0 | ||
| 2013-09-07T11:50 | 7029 | 433 | 91 | 7.0 | ||
| 2013-09-07T11:50 | 7047 | 432 | -13.9 | -14.9 | ||
| 2013-09-07T11:50 | 7072 | 431 | -14.0 | -16.3 | ||
| 2013-09-07T11:50 | 7134 | 428 | -14.3 | -16.0 | ||
| 2013-09-07T11:50 | 7140 | 427 | -14.3 | -17.0 | ||
| 2013-09-07T11:50 | 7177 | 425 | -14.5 | -15.5 | ||
| 2013-09-07T11:50 | 7195 | 424 | -14.6 | -17.9 | ||
| 2013-09-07T11:51 | 7220 | 423 | -14.7 | -19.3 | ||
| 2013-09-07T11:51 | 7238 | 422 | -14.7 | -20.2 | ||
| 2013-09-07T11:51 | 7280 | 419 | -14.9 | -17.9 | ||
| 2013-09-07T11:51 | 7305 | 418 | -15.1 | -18.1 | ||
| 2013-09-07T11:51 | 7372 | 414 | -15.6 | -16.9 | ||
| 2013-09-07T11:51 | 7397 | 413 | 102 | 7.0 | ||
| 2013-09-07T11:51 | 7491 | 408 | -16.2 | -17.9 | ||
| 2013-09-07T11:51 | 7509 | 407 | -16.4 | -19.5 | ||
| 2013-09-07T11:51 | 7528 | 406 | -16.5 | -17.9 | ||
| 2013-09-07T11:52 | 7656 | 399 | -17.3 | -22.1 | ||
| 2013-09-07T11:52 | 7740 | 395 | -17.9 | -21.6 | ||
| 2013-09-07T11:52 | 7777 | 393 | 82 | 7.0 | ||
| 2013-09-07T11:52 | 7847 | 389 | -18.6 | -22.7 | ||
| 2013-09-07T11:52 | 7949 | 384 | -19.4 | -22.1 | ||
| 2013-09-07T11:53 | 8160 | 373 | 67 | 6.0 | ||
| 2013-09-07T11:53 | 8280 | 367 | -21.7 | -24.4 | ||
| 2013-09-07T11:53 | 8332 | 364 | -22.0 | -24.4 | ||
| 2013-09-07T11:54 | 8543 | 354 | 54 | 5.0 | ||
| 2013-09-07T11:54 | 8600 | 351 | -23.7 | -26.3 | ||
| 2013-09-07T11:55 | 8826 | 340 | -25.5 | -28.1 | ||
| 2013-09-07T11:55 | 8925 | 336 | 67 | 5.0 | ||
| 2013-09-07T11:55 | 9080 | 329 | -27.4 | -30.3 | ||
| 2013-09-07T11:56 | 9286 | 319 | 113 | 7.0 | ||
| 2013-09-07T11:57 | 9511 | 309 | -30.3 | -33.3 | ||
| 2013-09-07T11:57 | 9687 | 302 | 117 | 9.0 | ||
| 2013-09-07T11:58 | 10077 | 286 | 119 | 6.0 | ||
| 2013-09-07T11:58 | 10106 | 284 | -35.2 | -39.2 | ||
| 2013-09-07T11:59 | 10485 | 269 | 87 | 5.0 | ||
| 2013-09-07T11:59 | 10603 | 265 | -39.4 | -43.3 | ||
| 2013-09-07T11:59 | 10670 | 262 | -40.0 | -43.6 | ||
| 2013-09-07T12:00 | 10891 | 254 | 105 | 5.0 | ||
| 2013-09-07T12:01 | 11292 | 239 | 111 | 4.0 | ||
| 2013-09-07T12:02 | 11511 | 231 | -47.5 | |||
| 2013-09-07T12:02 | 11656 | 226 | 205 | 1.0 | ||
| 2013-09-07T12:03 | 11935 | 217 | 262 | 1.0 | ||
| 2013-09-07T12:03 | 11961 | 216 | 211 | 1.0 | ||
| 2013-09-07T12:03 | 12031 | 214 | 266 | 1.0 | ||
| 2013-09-07T12:04 | 12395 | 202 | 289 | 3.0 | ||
| 2013-09-07T12:05 | 12677 | 193 | -56.7 | |||
| 2013-09-07T12:05 | 12751 | 191 | 280 | 5.0 | ||
| 2013-09-07T12:06 | 13139 | 179 | 315 | 7.0 | ||
| 2013-09-07T12:06 | 13291 | 175 | -59.0 | |||
| 2013-09-07T12:07 | 13571 | 167 | 326 | 6.0 | ||
| 2013-09-07T12:08 | 14058 | 155 | 43 | 3.0 | ||
| 2013-09-07T12:08 | 14232 | 150 | -63.7 | |||
| 2013-09-07T12:09 | 14544 | 143 | 17 | 2.0 | ||
| 2013-09-07T12:10 | 15013 | 132 | 39 | 2.0 | ||
| 2013-09-07T12:11 | 15466 | 123 | 37 | 6.0 | ||
| 2013-09-07T12:11 | 15496 | 122 | -70.3 | |||
| 2013-09-07T12:12 | 15921 | 114 | -72.2 | |||
| 2013-09-07T12:12 | 15937 | 113 | 40 | 4.0 | ||
| 2013-09-07T12:13 | 16395 | 105 | 49 | 7.0 | ||
| 2013-09-07T12:13 | 16426 | 104 | -72.6 | |||
| 2013-09-07T12:14 | 16670 | 100 | -73.6 | 73 | 7.0 | |
| 2013-09-07T12:14 | 16883 | 96 | 77 | 6.0 | ||
| 2013-09-07T12:14 | 16892 | 96 | -74.4 | |||
| 2013-09-07T12:15 | 17227 | 91 | -74.6 | |||
| 2013-09-07T12:15 | 17395 | 88 | -73.5 | |||
| 2013-09-07T12:15 | 17403 | 88 | 89 | 11.0 | ||
| 2013-09-07T12:15 | 17530 | 86 | 93 | 12.0 | ||
| 2013-09-07T12:15 | 17538 | 86 | 94 | 12.0 | ||
| 2013-09-07T12:15 | 17547 | 86 | 93 | 12.0 | ||
| 2013-09-07T12:15 | 17630 | 85 | -73.8 | |||
| 2013-09-07T12:16 | 17750 | 83 | -72.0 | |||
| 2013-09-07T12:16 | 17892 | 81 | 99 | 11.0 | ||
| 2013-09-07T12:17 | 18186 | 77 | -73.8 | |||
| 2013-09-07T12:17 | 18297 | 76 | 100 | 8.0 | ||
| 2013-09-07T12:17 | 18418 | 74 | -72.7 | |||
| 2013-09-07T12:18 | 18665 | 71 | 105 | 10.0 | ||
| 2013-09-07T12:19 | 18966 | 68 | -68.9 | |||
| 2013-09-07T12:19 | 19044 | 67 | 92 | 11.0 | ||
| 2013-09-07T12:20 | 19351 | 63 | -67.2 | |||
| 2013-09-07T12:20 | 19431 | 63 | 83 | 14.0 | ||
| 2013-09-07T12:21 | 19760 | 59 | -64.9 | |||
| 2013-09-07T12:21 | 19873 | 58 | 97 | 13.0 | ||
| 2013-09-07T12:22 | 20244 | 55 | -65.9 | |||
| 2013-09-07T12:22 | 20288 | 54 | 85 | 17.0 | ||
| 2013-09-07T12:23 | 20641 | 51 | 95 | 18.0 | ||
| 2013-09-07T12:23 | 20742 | 50 | -63.9 | |||
| 2013-09-07T12:24 | 21002 | 48 | 101 | 17.0 | ||
| 2013-09-07T12:24 | 21078 | 48 | -61.5 | |||
| 2013-09-07T12:25 | 21344 | 46 | 101 | 18.0 | ||
| 2013-09-07T12:25 | 21374 | 46 | -62.5 | 105 | 16.0 | |
| 2013-09-07T23:30 | 9 | 1016 | 29.6 | 24.7 | 140 | 6.0 |
| 2013-09-07T23:30 | 17 | 1015 | 27.7 | 21.5 | ||
| 2013-09-07T23:31 | 160 | 999 | 26.3 | 21.5 | ||
| 2013-09-07T23:31 | 239 | 990 | 128 | 8.0 | ||
| 2013-09-07T23:31 | 274 | 986 | 26.1 | 20.7 | ||
| 2013-09-07T23:31 | 326 | 981 | 129 | 8.0 | ||
| 2013-09-07T23:31 | 422 | 970 | 25.4 | 20.4 | ||
| 2013-09-07T23:32 | 667 | 943 | 116 | 6.0 | ||
| 2013-09-07T23:33 | 1011 | 907 | 120 | 7.0 | ||
| 2013-09-07T23:34 | 1349 | 872 | 111 | 7.0 | ||
| 2013-09-07T23:35 | 1677 | 840 | 115 | 7.0 | ||
| 2013-09-07T23:35 | 1734 | 834 | 18.2 | 12.2 | ||
| 2013-09-07T23:36 | 2020 | 807 | 107 | 7.0 | ||
| 2013-09-07T23:37 | 2281 | 782 | 14.5 | 9.5 | ||
| 2013-09-07T23:37 | 2370 | 774 | 104 | 6.0 | ||
| 2013-09-07T23:37 | 2499 | 762 | 12.9 | 8.8 | ||
| 2013-09-07T23:38 | 2696 | 744 | 11.7 | 7.6 | ||
| 2013-09-07T23:38 | 2713 | 743 | 96 | 6.0 | ||
| 2013-09-07T23:38 | 2741 | 740 | 11.5 | 8.7 | ||
| 2013-09-07T23:38 | 2804 | 735 | 11.4 | 6.7 | ||
| 2013-09-07T23:39 | 3064 | 712 | 76 | 6.0 | ||
| 2013-09-07T23:39 | 3082 | 711 | 9.6 | 4.6 | ||
| 2013-09-07T23:39 | 3221 | 699 | 8.5 | 3.5 | ||
| 2013-09-07T23:40 | 3391 | 685 | 7.3 | 4.8 | 91 | 7.0 |
| 2013-09-07T23:40 | 3440 | 681 | 7.0 | 4.3 | ||
| 2013-09-07T23:41 | 3727 | 657 | 84 | 6.0 | ||
| 2013-09-07T23:41 | 3784 | 653 | 5.4 | 2.2 | ||
| 2013-09-07T23:42 | 3998 | 636 | 3.9 | -0.3 | ||
| 2013-09-07T23:42 | 4066 | 630 | 86 | 5.0 | ||
| 2013-09-07T23:43 | 4259 | 616 | 2.2 | -1.4 | ||
| 2013-09-07T23:43 | 4404 | 605 | 84 | 4.0 | ||
| 2013-09-07T23:43 | 4410 | 604 | 1.5 | -2.3 | ||
| 2013-09-07T23:44 | 4693 | 583 | 0.2 | -4.3 | ||
| 2013-09-07T23:44 | 4743 | 580 | 108 | 4.0 | ||
| 2013-09-07T23:44 | 4754 | 579 | -0.3 | -4.4 | ||
| 2013-09-07T23:45 | 4938 | 566 | -1.4 | -3.6 | ||
| 2013-09-07T23:45 | 4955 | 565 | -1.4 | -4.9 | ||
| 2013-09-07T23:45 | 5085 | 555 | 127 | 2.0 | ||
| 2013-09-07T23:46 | 5253 | 544 | -3.2 | -5.5 | ||
| 2013-09-07T23:46 | 5425 | 532 | 200 | 3.0 | ||
| 2013-09-07T23:46 | 5460 | 530 | -4.5 | -6.5 | ||
| 2013-09-07T23:47 | 5610 | 520 | -5.2 | -7.8 | ||
| 2013-09-07T23:47 | 5776 | 509 | 173 | 2.0 | ||
| 2013-09-07T23:47 | 5847 | 504 | -6.2 | -9.2 | ||
| 2013-09-07T23:48 | 6138 | 486 | -8.3 | -12.3 | 173 | 5.0 |
| 2013-09-07T23:49 | 6345 | 473 | -9.6 | -13.2 | ||
| 2013-09-07T23:49 | 6489 | 464 | 188 | 5.0 | ||
| 2013-09-07T23:49 | 6506 | 463 | -10.3 | -14.2 | ||
| 2013-09-07T23:50 | 6672 | 453 | -11.0 | -16.3 | ||
| 2013-09-07T23:50 | 6837 | 444 | 204 | 3.0 | ||
| 2013-09-07T23:50 | 6985 | 435 | -12.4 | -18.6 | ||
| 2013-09-07T23:51 | 7187 | 424 | -13.7 | -18.7 | ||
| 2013-09-07T23:51 | 7212 | 423 | 163 | 5.0 | ||
| 2013-09-07T23:52 | 7399 | 412 | -15.1 | -21.3 | ||
| 2013-09-07T23:52 | 7486 | 407 | -15.5 | -23.4 | ||
| 2013-09-07T23:52 | 7587 | 402 | 197 | 6.0 | ||
| 2013-09-07T23:53 | 7952 | 383 | -19.0 | -26.4 | 201 | 3.0 |
| 2013-09-07T23:54 | 8309 | 365 | 161 | 2.0 | ||
| 2013-09-07T23:54 | 8385 | 361 | -22.0 | -31.5 | ||
| 2013-09-07T23:55 | 8665 | 348 | 85 | 3.0 | ||
| 2013-09-07T23:56 | 9012 | 331 | 96 | 4.0 | ||
| 2013-09-07T23:56 | 9055 | 330 | -26.6 | -39.3 | ||
| 2013-09-07T23:57 | 9320 | 318 | 75 | 4.0 | ||
| 2013-09-07T23:58 | 9684 | 302 | 95 | 6.0 | ||
| 2013-09-07T23:59 | 10045 | 287 | 116 | 5.0 | ||
| 2013-09-07T23:59 | 10092 | 285 | -35.4 | -47.2 | ||
| 2013-09-08T00:00 | 10413 | 272 | 126 | 4.0 | ||
| 2013-09-08T00:01 | 10644 | 263 | -40.0 | -52.2 | ||
| 2013-09-08T00:01 | 10786 | 257 | 150 | 6.0 | ||
| 2013-09-08T00:02 | 11156 | 243 | 164 | 9.0 | ||
| 2013-09-08T00:03 | 11565 | 229 | 156 | 12.0 | ||
| 2013-09-08T00:03 | 11702 | 224 | 158 | 13.0 | ||
| 2013-09-08T00:04 | 11830 | 220 | 158 | 13.0 | ||
| 2013-09-08T00:04 | 11857 | 219 | -50.0 | |||
| 2013-09-08T00:04 | 11898 | 218 | 161 | 13.0 | ||
| 2013-09-08T00:04 | 11926 | 217 | 160 | 13.0 | ||
| 2013-09-08T00:04 | 11975 | 215 | 161 | 13.0 | ||
| 2013-09-08T00:05 | 12382 | 202 | 173 | 12.0 | ||
| 2013-09-08T00:06 | 12841 | 188 | 183 | 6.0 | ||
| 2013-09-08T00:07 | 13239 | 176 | 247 | 3.0 | ||
| 2013-09-08T00:07 | 13352 | 173 | -63.1 | |||
| 2013-09-08T00:08 | 13577 | 167 | 213 | 2.0 | ||
| 2013-09-08T00:08 | 13688 | 164 | -65.3 | |||
| 2013-09-08T00:09 | 13913 | 158 | 218 | 5.0 | ||
| 2013-09-08T00:10 | 14255 | 149 | -66.5 | 252 | 4.0 | |
| 2013-09-08T00:11 | 14605 | 141 | 327 | 2.0 | ||
| 2013-09-08T00:12 | 14874 | 134 | -70.6 | |||
| 2013-09-08T00:12 | 14959 | 133 | 32 | 2.0 | ||
| 2013-09-08T00:12 | 15072 | 130 | -70.4 | |||
| 2013-09-08T00:13 | 15308 | 125 | 85 | 2.0 | ||
| 2013-09-08T00:13 | 15463 | 122 | -71.6 | |||
| 2013-09-08T00:14 | 15623 | 119 | 124 | 4.0 | ||
| 2013-09-08T00:15 | 15931 | 113 | 56 | 3.0 | ||
| 2013-09-08T00:15 | 16081 | 110 | -71.4 | |||
| 2013-09-08T00:16 | 16264 | 106 | 34 | 4.0 | ||
| 2013-09-08T00:17 | 16486 | 102 | -73.1 | |||
| 2013-09-08T00:17 | 16621 | 100 | -73.3 | 63 | 5.0 | |
| 2013-09-08T00:18 | 16814 | 97 | -73.3 | |||
| 2013-09-08T00:18 | 16940 | 95 | 80 | 8.0 | ||
| 2013-09-08T00:19 | 17183 | 91 | -74.9 | |||
| 2013-09-08T00:19 | 17236 | 90 | 64 | 7.0 | ||
| 2013-09-08T00:20 | 17565 | 85 | 83 | 7.0 | ||
| 2013-09-08T00:21 | 17932 | 80 | 109 | 8.0 | ||
| 2013-09-08T00:21 | 18007 | 79 | -74.9 | |||
| 2013-09-08T00:22 | 18204 | 76 | -72.1 | |||
| 2013-09-08T00:22 | 18333 | 75 | 67 | 10.0 | ||
| 2013-09-08T00:22 | 18489 | 73 | -71.4 | |||
| 2013-09-08T00:23 | 18728 | 70 | 82 | 12.0 | ||
| 2013-09-08T00:23 | 18878 | 68 | -68.5 | |||
| 2013-09-08T00:24 | 19080 | 66 | 88 | 13.0 | ||
| 2013-09-08T00:25 | 19279 | 64 | -67.3 | |||
| 2013-09-08T00:25 | 19425 | 62 | 80 | 10.0 | ||
| 2013-09-08T00:25 | 19535 | 61 | -65.2 | |||
| 2013-09-08T00:26 | 19806 | 58 | 86 | 9.0 | ||
| 2013-09-08T00:26 | 19832 | 58 | -64.2 | |||
| 2013-09-08T00:27 | 20014 | 56 | -63.2 | |||
| 2013-09-08T00:27 | 20196 | 55 | 107 | 11.0 | ||
| 2013-09-08T00:28 | 20532 | 52 | -64.8 | |||
| 2013-09-08T00:28 | 20600 | 51 | 89 | 10.0 | ||
| 2013-09-08T00:29 | 20957 | 48 | -65.4 | |||
| 2013-09-08T00:29 | 20989 | 48 | 81 | 9.0 | ||
| 2013-09-08T00:30 | 21319 | 46 | -66.1 | |||
| 2013-09-08T00:30 | 21348 | 45 | 84 | 12.0 | ||
| 2013-09-08T00:31 | 21709 | 43 | 88 | 15.0 | ||
| 2013-09-08T00:32 | 22107 | 40 | 87 | 18.0 | ||
| 2013-09-08T00:33 | 22417 | 38 | -62.6 | |||
| 2013-09-08T00:33 | 22531 | 37 | 85 | 20.0 | ||
| 2013-09-08T00:34 | 22953 | 35 | 93 | 24.0 | ||
| 2013-09-08T00:34 | 22961 | 35 | 93 | 24.0 | ||
| 2013-09-08T00:35 | 23186 | 34 | -59.0 | |||
| 2013-09-08T00:35 | 23269 | 33 | -58.5 | |||
| 2013-09-08T00:35 | 23378 | 33 | 89 | 22.0 | ||
| 2013-09-08T00:36 | 23702 | 31 | -56.0 | |||
| 2013-09-08T00:36 | 23782 | 31 | 84 | 22.0 | ||
| 2013-09-08T00:37 | 24177 | 29 | 102 | 21.0 | ||
| 2013-09-08T00:38 | 24365 | 28 | -55.6 | |||
| 2013-09-08T00:38 | 24474 | 27 | -55.2 | |||
| 2013-09-08T00:38 | 24530 | 27 | 103 | 20.0 | ||
| 2013-09-08T00:39 | 24854 | 26 | 107 | 15.0 | ||
| 2013-09-08T00:40 | 25162 | 25 | -51.9 | |||
| 2013-09-08T00:40 | 25216 | 24 | 109 | 16.0 | ||
| 2013-09-08T00:41 | 25671 | 23 | 94 | 17.0 | ||
| 2013-09-08T00:42 | 26164 | 21 | 95 | 18.0 | ||
| 2013-09-08T00:43 | 26432 | 20 | -55.0 | |||
| 2013-09-08T00:43 | 26610 | 20 | 87 | 19.0 | ||
| 2013-09-08T00:44 | 27014 | 19 | 93 | 21.0 | ||
| 2013-09-08T00:45 | 27246 | 18 | -52.2 | |||
| 2013-09-08T00:45 | 27429 | 17 | 96 | 20.0 | ||
| 2013-09-08T00:46 | 27853 | 16 | 84 | 24.0 | ||
| 2013-09-08T00:47 | 28272 | 15 | 84 | 25.0 | ||
| 2013-09-08T00:47 | 28420 | 15 | 89 | 26.0 | ||
| 2013-09-08T00:47 | 28458 | 15 | 90 | 26.0 | ||
| 2013-09-08T00:47 | 28489 | 15 | -48.1 | |||
| 2013-09-08T00:48 | 28727 | 14 | 90 | 22.0 | ||
| 2013-09-08T00:49 | 29148 | 13 | -45.6 | |||
| 2013-09-08T00:49 | 29213 | 13 | 85 | 21.0 | ||
| 2013-09-08T00:50 | 29686 | 12 | 85 | 19.0 | ||
| 2013-09-08T00:51 | 30144 | 12 | 82 | 22.0 | ||
| 2013-09-08T00:51 | 30257 | 11 | -46.7 | |||
| 2013-09-08T00:52 | 30366 | 11 | -46.2 | 59 | 17.0 | |
| 2013-09-08T11:30 | 9 | 1016 | 28.3 | 25.1 | 100 | 4.0 |
| 2013-09-08T11:30 | 16 | 1015 | 28.4 | 23.8 | ||
| 2013-09-08T11:31 | 355 | 977 | 96 | 4.0 | ||
| 2013-09-08T11:32 | 585 | 952 | 23.7 | 21.4 | ||
| 2013-09-08T11:32 | 689 | 940 | 98 | 4.0 | ||
| 2013-09-08T11:33 | 1018 | 906 | 110 | 6.0 | ||
| 2013-09-08T11:33 | 1051 | 902 | 20.8 | 18.6 | ||
| 2013-09-08T11:34 | 1251 | 882 | 19.9 | 16.0 | ||
| 2013-09-08T11:34 | 1287 | 878 | 20.0 | 14.4 | ||
| 2013-09-08T11:34 | 1338 | 873 | 139 | 6.0 | ||
| 2013-09-08T11:34 | 1412 | 865 | 19.6 | 12.6 | ||
| 2013-09-08T11:35 | 1587 | 848 | 134 | 8.0 | ||
| 2013-09-08T11:35 | 1598 | 847 | 134 | 8.0 | ||
| 2013-09-08T11:35 | 1603 | 846 | 133 | 8.0 | ||
| 2013-09-08T11:35 | 1663 | 840 | 130 | 8.0 | ||
| 2013-09-08T11:35 | 1768 | 830 | 17.9 | 10.3 | ||
| 2013-09-08T11:36 | 1869 | 821 | 17.8 | 9.7 | ||
| 2013-09-08T11:36 | 1990 | 809 | 159 | 6.0 | ||
| 2013-09-08T11:37 | 2216 | 788 | 15.9 | 8.2 | ||
| 2013-09-08T11:37 | 2338 | 777 | 151 | 8.0 | ||
| 2013-09-08T11:38 | 2552 | 757 | 13.3 | 7.3 | ||
| 2013-09-08T11:38 | 2692 | 745 | 150 | 6.0 | ||
| 2013-09-08T11:39 | 2997 | 718 | 10.6 | 5.4 | ||
| 2013-09-08T11:39 | 3066 | 712 | 144 | 5.0 | ||
| 2013-09-08T11:40 | 3273 | 695 | 9.0 | 4.0 | ||
| 2013-09-08T11:40 | 3437 | 681 | 8.5 | 2.3 | 172 | 6.0 |
| 2013-09-08T11:41 | 3715 | 659 | 6.4 | 1.5 | ||
| 2013-09-08T11:41 | 3772 | 654 | 6.1 | 0.2 | ||
| 2013-09-08T11:41 | 3809 | 651 | 185 | 7.0 | ||
| 2013-09-08T11:42 | 3999 | 636 | 4.2 | 0.0 | ||
| 2013-09-08T11:42 | 4147 | 625 | 195 | 7.0 | ||
| 2013-09-08T11:42 | 4314 | 612 | 1.4 | -1.0 | ||
| 2013-09-08T11:43 | 4459 | 601 | 0.5 | -1.4 | ||
| 2013-09-08T11:43 | 4487 | 599 | 196 | 6.0 | ||
| 2013-09-08T11:43 | 4524 | 596 | 0.3 | -1.1 | ||
| 2013-09-08T11:44 | 4817 | 575 | 158 | 3.0 | ||
| 2013-09-08T11:44 | 4852 | 572 | -1.6 | -1.6 | ||
| 2013-09-08T11:45 | 5108 | 554 | -3.1 | -3.5 | ||
| 2013-09-08T11:45 | 5156 | 551 | 100 | 5.0 | ||
| 2013-09-08T11:45 | 5203 | 548 | -3.1 | -3.9 | ||
| 2013-09-08T11:46 | 5467 | 530 | 88 | 6.0 | ||
| 2013-09-08T11:46 | 5584 | 522 | -6.1 | -6.1 | ||
| 2013-09-08T11:47 | 5818 | 507 | 95 | 6.0 | ||
| 2013-09-08T11:48 | 6096 | 489 | -8.0 | -8.1 | ||
| 2013-09-08T11:48 | 6187 | 483 | 108 | 4.0 | ||
| 2013-09-08T11:48 | 6296 | 476 | -9.2 | -9.5 | ||
| 2013-09-08T11:49 | 6396 | 470 | -9.5 | -10.6 | ||
| 2013-09-08T11:49 | 6519 | 463 | -10.2 | -10.6 | ||
| 2013-09-08T11:49 | 6557 | 461 | 90 | 5.0 | ||
| 2013-09-08T11:49 | 6656 | 455 | -10.5 | -11.5 | ||
| 2013-09-08T11:50 | 6763 | 448 | -10.8 | -12.8 | ||
| 2013-09-08T11:50 | 6917 | 440 | 114 | 5.0 | ||
| 2013-09-08T11:50 | 6964 | 437 | -12.2 | -14.3 | ||
| 2013-09-08T11:51 | 7247 | 421 | -14.1 | -16.2 | ||
| 2013-09-08T11:51 | 7270 | 420 | 130 | 4.0 | ||
| 2013-09-08T11:52 | 7487 | 408 | -15.8 | -18.0 | ||
| 2013-09-08T11:52 | 7545 | 405 | -16.1 | -20.5 | ||
| 2013-09-08T11:52 | 7603 | 402 | -16.2 | -22.0 | ||
| 2013-09-08T11:52 | 7648 | 399 | 132 | 4.0 | ||
| 2013-09-08T11:52 | 7711 | 396 | -17.1 | -23.4 | ||
| 2013-09-08T11:53 | 7901 | 386 | -18.5 | -24.7 | ||
| 2013-09-08T11:53 | 7926 | 385 | -18.6 | -24.8 | ||
| 2013-09-08T11:53 | 8019 | 380 | 130 | 3.0 | ||
| 2013-09-08T11:53 | 8158 | 373 | -20.1 | -27.6 | ||
| 2013-09-08T11:54 | 8252 | 368 | -20.5 | -28.2 | ||
| 2013-09-08T11:54 | 8320 | 365 | -20.8 | -30.4 | ||
| 2013-09-08T11:54 | 8392 | 361 | 114 | 4.0 | ||
| 2013-09-08T11:54 | 8428 | 359 | -21.8 | -29.2 | ||
| 2013-09-08T11:54 | 8506 | 356 | -22.3 | -30.3 | ||
| 2013-09-08T11:54 | 8555 | 353 | -22.6 | -31.8 | ||
| 2013-09-08T11:55 | 8600 | 351 | -22.8 | -30.0 | ||
| 2013-09-08T11:55 | 8707 | 346 | -23.7 | -32.5 | ||
| 2013-09-08T11:55 | 8738 | 345 | 58 | 2.0 | ||
| 2013-09-08T11:56 | 8948 | 335 | -25.6 | -30.7 | ||
| 2013-09-08T11:56 | 9111 | 327 | 24 | 4.0 | ||
| 2013-09-08T11:56 | 9181 | 324 | -27.6 | -32.0 | ||
| 2013-09-08T11:57 | 9290 | 319 | -28.4 | -33.9 | ||
| 2013-09-08T11:57 | 9352 | 316 | -28.7 | -39.1 | ||
| 2013-09-08T11:57 | 9453 | 312 | 20 | 3.0 | ||
| 2013-09-08T11:57 | 9586 | 306 | -30.8 | -41.0 | ||
| 2013-09-08T11:58 | 9815 | 296 | 276 | 2.0 | ||
| 2013-09-08T11:58 | 9968 | 290 | -33.4 | -50.7 | ||
| 2013-09-08T11:58 | 9991 | 289 | -33.6 | -50.8 | ||
| 2013-09-08T11:59 | 10173 | 282 | 283 | 2.0 | ||
| 2013-09-08T11:59 | 10303 | 276 | -36.5 | -51.0 | ||
| 2013-09-08T12:00 | 10399 | 273 | -37.4 | -43.8 | ||
| 2013-09-08T12:00 | 10542 | 267 | 266 | 4.0 | ||
| 2013-09-08T12:00 | 10562 | 266 | -38.9 | -43.9 | ||
| 2013-09-08T12:00 | 10615 | 264 | -39.4 | -42.1 | ||
| 2013-09-08T12:00 | 10705 | 261 | -40.0 | -41.9 | ||
| 2013-09-08T12:01 | 10917 | 253 | 273 | 5.0 | ||
| 2013-09-08T12:02 | 11288 | 239 | 244 | 6.0 | ||
| 2013-09-08T12:02 | 11384 | 236 | -45.6 | |||
| 2013-09-08T12:03 | 11661 | 226 | 241 | 7.0 | ||
| 2013-09-08T12:04 | 11991 | 215 | -50.7 | |||
| 2013-09-08T12:04 | 12021 | 214 | 241 | 10.0 | ||
| 2013-09-08T12:05 | 12370 | 203 | 242 | 13.0 | ||
| 2013-09-08T12:06 | 12735 | 192 | 241 | 16.0 | ||
| 2013-09-08T12:07 | 12956 | 185 | 247 | 17.0 | ||
| 2013-09-08T12:07 | 13069 | 182 | 250 | 16.0 | ||
| 2013-09-08T12:08 | 13380 | 173 | -61.1 | |||
| 2013-09-08T12:08 | 13423 | 172 | 260 | 15.0 | ||
| 2013-09-08T12:09 | 13800 | 161 | 269 | 11.0 | ||
| 2013-09-08T12:10 | 14116 | 153 | -65.1 | |||
| 2013-09-08T12:10 | 14224 | 151 | 297 | 6.0 | ||
| 2013-09-08T12:11 | 14663 | 140 | -67.5 | |||
| 2013-09-08T12:11 | 14705 | 139 | 356 | 2.0 | ||
| 2013-09-08T12:12 | 15170 | 129 | -69.9 | 52 | 5.0 | |
| 2013-09-08T12:12 | 15386 | 124 | -71.3 | |||
| 2013-09-08T12:13 | 15634 | 119 | 35 | 4.0 | ||
| 2013-09-08T12:14 | 16105 | 110 | 51 | 4.0 | ||
| 2013-09-08T12:14 | 16201 | 108 | -74.8 | |||
| 2013-09-08T12:15 | 16593 | 101 | 112 | 6.0 | ||
| 2013-09-08T12:15 | 16644 | 100 | -75.3 | 111 | 6.0 | |
| 2013-09-08T12:16 | 17041 | 93 | 85 | 5.0 | ||
| 2013-09-08T12:17 | 17371 | 88 | -73.3 | |||
| 2013-09-08T12:17 | 17503 | 86 | 78 | 6.0 | ||
| 2013-09-08T12:17 | 17626 | 85 | -72.1 | |||
| 2013-09-08T12:18 | 17931 | 80 | 49 | 7.0 | ||
| 2013-09-08T12:18 | 18047 | 79 | -72.4 | |||
| 2013-09-08T12:19 | 18299 | 75 | 64 | 7.0 | ||
| 2013-09-08T12:20 | 18631 | 71 | 69 | 11.0 | ||
| 2013-09-08T12:20 | 18760 | 70 | -68.5 | |||
| 2013-09-08T12:21 | 18965 | 67 | 78 | 12.0 | ||
| 2013-09-08T12:22 | 19305 | 64 | 99 | 12.0 | ||
| 2013-09-08T12:22 | 19451 | 62 | -67.7 | |||
| 2013-09-08T12:23 | 19658 | 60 | 91 | 10.0 | ||
| 2013-09-08T12:24 | 20032 | 57 | 77 | 14.0 | ||
| 2013-09-08T12:24 | 20170 | 55 | -63.9 | |||
| 2013-09-08T12:25 | 20384 | 53 | 94 | 15.0 | ||
| 2013-09-08T12:25 | 20523 | 52 | -62.7 | |||
| 2013-09-08T12:26 | 20721 | 51 | 79 | 19.0 | ||
| 2013-09-08T12:26 | 20779 | 50 | 78 | 19.0 | ||
| 2013-09-08T12:26 | 20808 | 50 | 78 | 19.0 | ||
| 2013-09-08T12:26 | 20838 | 50 | 78 | 19.0 | ||
| 2013-09-08T12:26 | 20861 | 49 | 78 | 19.0 | ||
| 2013-09-08T12:26 | 20873 | 49 | 79 | 19.0 | ||
| 2013-09-08T12:27 | 21078 | 48 | 87 | 17.0 | ||
| 2013-09-08T12:28 | 21455 | 45 | 105 | 15.0 | ||
| 2013-09-08T12:29 | 21795 | 43 | 104 | 13.0 | ||
| 2013-09-08T12:29 | 21925 | 42 | -59.6 | |||
| 2013-09-08T12:30 | 22151 | 40 | 128 | 9.0 | ||
| 2013-09-08T12:31 | 22560 | 38 | 102 | 14.0 | ||
| 2013-09-08T12:32 | 22816 | 36 | -61.1 | |||
| 2013-09-08T12:32 | 22993 | 35 | 105 | 16.0 | ||
| 2013-09-08T12:33 | 23415 | 33 | 107 | 14.0 | ||
| 2013-09-08T12:33 | 23532 | 32 | -59.6 | |||
| 2013-09-08T12:34 | 23829 | 31 | 78 | 11.0 | ||
| 2013-09-08T12:35 | 24092 | 29 | -58.3 | |||
| 2013-09-08T12:35 | 24260 | 29 | 73 | 18.0 | ||
| 2013-09-08T12:36 | 24706 | 27 | 76 | 23.0 | ||
| 2013-09-08T12:37 | 25131 | 25 | 81 | 24.0 | ||
| 2013-09-08T12:38 | 25547 | 23 | 71 | 26.0 | ||
| 2013-09-08T12:38 | 25665 | 23 | -52.1 | |||
| 2013-09-08T12:39 | 25862 | 22 | 72 | 27.0 | ||
| 2013-09-08T12:39 | 25869 | 22 | 72 | 27.0 | ||
| 2013-09-08T12:39 | 25972 | 22 | 73 | 27.0 | ||
| 2013-09-08T12:40 | 26404 | 21 | 86 | 26.0 | ||
| 2013-09-08T12:41 | 26817 | 19 | 90 | 24.0 | ||
| 2013-09-08T12:41 | 26973 | 19 | -48.3 | |||
| 2013-09-08T12:42 | 27247 | 18 | 82 | 24.0 | ||
| 2013-09-08T12:42 | 27375 | 18 | -47.9 | |||
| 2013-09-08T12:43 | 27723 | 17 | 83 | 25.0 | ||
| 2013-09-08T12:44 | 28215 | 16 | 87 | 22.0 | ||
| 2013-09-08T12:45 | 28538 | 15 | -48.0 | |||
| 2013-09-08T12:45 | 28691 | 15 | 86 | 24.0 | ||
| 2013-09-08T12:46 | 29152 | 14 | 87 | 25.0 | ||
| 2013-09-08T12:47 | 29534 | 13 | -47.6 | |||
| 2013-09-08T12:47 | 29622 | 13 | 92 | 27.0 | ||
| 2013-09-08T12:47 | 29853 | 12 | 93 | 28.0 | ||
| 2013-09-08T12:48 | 30128 | 12 | 91 | 26.0 | ||
| 2013-09-08T12:49 | 30616 | 11 | 92 | 25.0 | ||
| 2013-09-08T12:50 | 30891 | 10 | -44.3 | |||
| 2013-09-08T12:50 | 31062 | 10 | 91 | 27.0 | ||
| 2013-09-08T12:51 | 31493 | 10 | 90 | 24.0 | ||
| 2013-09-08T12:51 | 31710 | 9 | -40.5 | |||
| 2013-09-08T12:52 | 31953 | 9 | 91 | 24.0 | ||
| 2013-09-08T12:53 | 32447 | 8 | 84 | 24.0 | ||
| 2013-09-08T12:54 | 32932 | 8 | 89 | 23.0 | ||
| 2013-09-08T12:55 | 33193 | 7 | -36.3 | 82 | 16.0 | |
| 2013-09-08T23:30 | 9 | 1015 | 29.5 | 25.3 | 80 | 8.0 |
| 2013-09-08T23:31 | 389 | 972 | 97 | 12.0 | ||
| 2013-09-08T23:31 | 520 | 958 | 99 | 12.0 | ||
| 2013-09-08T23:31 | 527 | 957 | 99 | 12.0 | ||
| 2013-09-08T23:31 | 535 | 956 | 99 | 12.0 | ||
| 2013-09-08T23:31 | 549 | 955 | 100 | 12.0 | ||
| 2013-09-08T23:31 | 570 | 953 | 100 | 12.0 | ||
| 2013-09-08T23:32 | 638 | 945 | 22.9 | 22.4 | ||
| 2013-09-08T23:32 | 747 | 934 | 22.1 | 21.8 | ||
| 2013-09-08T23:32 | 796 | 928 | 106 | 12.0 | ||
| 2013-09-08T23:32 | 852 | 922 | 21.2 | 20.4 | ||
| 2013-09-08T23:32 | 903 | 917 | 20.7 | 20.2 | ||
| 2013-09-08T23:32 | 949 | 912 | 20.3 | 18.4 | ||
| 2013-09-08T23:33 | 1195 | 886 | 103 | 11.0 | ||
| 2013-09-08T23:33 | 1208 | 885 | 18.1 | 14.2 | ||
| 2013-09-08T23:33 | 1240 | 882 | 17.9 | 14.0 | ||
| 2013-09-08T23:33 | 1376 | 868 | 18.6 | 13.5 | ||
| 2013-09-08T23:34 | 1452 | 860 | 18.9 | 15.4 | ||
| 2013-09-08T23:34 | 1575 | 848 | 97 | 10.0 | ||
| 2013-09-08T23:34 | 1595 | 846 | 18.0 | 15.1 | ||
| 2013-09-08T23:35 | 1832 | 823 | 16.7 | 14.3 | ||
| 2013-09-08T23:35 | 1962 | 810 | 88 | 11.0 | ||
| 2013-09-08T23:35 | 1974 | 809 | 16.0 | 14.0 | ||
| 2013-09-08T23:35 | 2130 | 795 | 15.0 | 12.5 | ||
| 2013-09-08T23:36 | 2330 | 776 | 80 | 10.0 | ||
| 2013-09-08T23:36 | 2451 | 765 | 13.5 | 10.3 | ||
| 2013-09-08T23:37 | 2561 | 755 | 12.9 | 8.2 | ||
| 2013-09-08T23:37 | 2605 | 751 | 65 | 8.0 | ||
| 2013-09-08T23:37 | 2701 | 743 | 11.9 | 7.4 | ||
| 2013-09-08T23:38 | 2835 | 731 | 10.8 | 6.9 | ||
| 2013-09-08T23:38 | 2903 | 725 | 64 | 7.0 | ||
| 2013-09-08T23:38 | 3001 | 717 | 9.9 | 5.7 | ||
| 2013-09-08T23:39 | 3242 | 696 | 61 | 6.0 | ||
| 2013-09-08T23:40 | 3524 | 673 | 6.9 | 2.0 | ||
| 2013-09-08T23:40 | 3595 | 667 | 6.4 | 3.4 | 74 | 7.0 |
| 2013-09-08T23:40 | 3732 | 656 | 5.6 | 2.1 | ||
| 2013-09-08T23:41 | 3896 | 643 | 4.7 | 1.0 | ||
| 2013-09-08T23:41 | 3951 | 638 | 48 | 4.0 | ||
| 2013-09-08T23:42 | 4173 | 621 | 3.2 | 0.4 | ||
| 2013-09-08T23:42 | 4286 | 613 | 129 | 1.0 | ||
| 2013-09-08T23:42 | 4441 | 601 | 1.6 | 0.4 | ||
| 2013-09-08T23:43 | 4613 | 588 | 0.9 | -0.7 | 193 | 3.0 |
| 2013-09-08T23:44 | 4807 | 574 | -0.3 | -4.0 | ||
| 2013-09-08T23:44 | 4840 | 572 | -0.5 | -3.9 | ||
| 2013-09-08T23:44 | 4932 | 565 | 207 | 2.0 | ||
| 2013-09-08T23:44 | 4958 | 563 | -1.1 | -4.4 | ||
| 2013-09-08T23:44 | 5040 | 558 | -1.7 | -3.6 | ||
| 2013-09-08T23:45 | 5085 | 554 | -1.9 | -5.1 | ||
| 2013-09-08T23:45 | 5131 | 551 | -2.1 | -4.9 | ||
| 2013-09-08T23:45 | 5237 | 544 | 247 | 2.0 | ||
| 2013-09-08T23:45 | 5252 | 543 | -2.7 | -5.2 | ||
| 2013-09-08T23:45 | 5367 | 535 | -3.3 | -6.3 | ||
| 2013-09-08T23:46 | 5538 | 523 | 250 | 3.0 | ||
| 2013-09-08T23:46 | 5593 | 520 | -4.3 | -7.9 | ||
| 2013-09-08T23:47 | 5724 | 511 | -5.1 | -7.4 | ||
| 2013-09-08T23:47 | 5827 | 504 | 263 | 6.0 | ||
| 2013-09-08T23:47 | 5861 | 502 | -5.7 | -9.9 | ||
| 2013-09-08T23:48 | 6006 | 493 | -6.9 | -11.5 | ||
| 2013-09-08T23:48 | 6027 | 492 | -7.1 | -11.1 | ||
| 2013-09-08T23:48 | 6106 | 487 | -7.5 | -10.5 | ||
| 2013-09-08T23:48 | 6133 | 485 | -7.6 | -11.3 | 247 | 6.0 |
| 2013-09-08T23:48 | 6187 | 482 | -7.8 | -9.9 | ||
| 2013-09-08T23:49 | 6393 | 469 | -9.2 | -11.1 | ||
| 2013-09-08T23:49 | 6438 | 466 | -9.5 | -14.5 | ||
| 2013-09-08T23:49 | 6467 | 465 | 238 | 7.0 | ||
| 2013-09-08T23:49 | 6473 | 464 | -9.6 | -12.9 | ||
| 2013-09-08T23:49 | 6508 | 462 | -9.7 | -15.4 | ||
| 2013-09-08T23:49 | 6537 | 461 | -9.8 | -16.7 | ||
| 2013-09-08T23:50 | 6816 | 444 | 242 | 8.0 | ||
| 2013-09-08T23:50 | 6852 | 442 | -11.6 | -19.3 | ||
| 2013-09-08T23:50 | 6881 | 440 | -11.8 | -19.0 | ||
| 2013-09-08T23:50 | 6923 | 438 | -12.0 | -20.8 | ||
| 2013-09-08T23:51 | 7080 | 429 | -12.6 | -22.9 | ||
| 2013-09-08T23:51 | 7137 | 426 | -13.0 | -21.7 | ||
| 2013-09-08T23:51 | 7189 | 423 | 264 | 8.0 | ||
| 2013-09-08T23:51 | 7334 | 415 | -14.5 | -22.4 | ||
| 2013-09-08T23:52 | 7392 | 412 | -14.8 | -21.8 | ||
| 2013-09-08T23:52 | 7475 | 407 | -15.5 | -24.3 | ||
| 2013-09-08T23:52 | 7575 | 402 | 260 | 9.0 | ||
| 2013-09-08T23:52 | 7644 | 398 | -17.0 | -24.1 | ||
| 2013-09-08T23:53 | 7822 | 389 | -18.4 | -24.1 | ||
| 2013-09-08T23:53 | 7957 | 382 | 265 | 8.0 | ||
| 2013-09-08T23:53 | 8077 | 376 | -20.2 | -28.2 | ||
| 2013-09-08T23:54 | 8163 | 372 | -20.8 | -32.0 | ||
| 2013-09-08T23:54 | 8241 | 368 | -21.0 | -33.4 | ||
| 2013-09-08T23:54 | 8327 | 363 | 259 | 8.0 | ||
| 2013-09-08T23:54 | 8456 | 357 | -22.6 | -37.7 | ||
| 2013-09-08T23:55 | 8653 | 348 | -24.1 | -37.5 | ||
| 2013-09-08T23:55 | 8705 | 345 | 243 | 9.0 | ||
| 2013-09-08T23:55 | 8788 | 341 | -24.9 | -41.0 | ||
| 2013-09-08T23:56 | 8896 | 336 | -25.4 | -43.4 | ||
| 2013-09-08T23:56 | 9022 | 330 | -26.3 | -52.0 | ||
| 2013-09-08T23:56 | 9084 | 328 | 249 | 10.0 | ||
| 2013-09-08T23:57 | 9320 | 317 | -28.4 | -42.0 | ||
| 2013-09-08T23:57 | 9450 | 311 | 246 | 10.0 | ||
| 2013-09-08T23:57 | 9531 | 308 | -29.9 | -48.9 | ||
| 2013-09-08T23:58 | 9799 | 296 | 250 | 10.0 | ||
| 2013-09-08T23:59 | 10139 | 282 | -35.0 | -50.5 | ||
| 2013-09-09T00:00 | 10432 | 271 | -37.6 | -53.2 | ||
| 2013-09-09T00:00 | 10492 | 268 | 256 | 11.0 | ||
| 2013-09-09T00:01 | 10699 | 260 | -39.8 | -53.8 | ||
| 2013-09-09T00:01 | 10744 | 259 | -40.0 | -55.3 | ||
| 2013-09-09T00:01 | 10822 | 256 | 248 | 13.0 | ||
| 2013-09-09T00:02 | 11160 | 243 | 247 | 15.0 | ||
| 2013-09-09T00:03 | 11518 | 230 | 241 | 18.0 | ||
| 2013-09-09T00:04 | 11864 | 219 | 235 | 21.0 | ||
| 2013-09-09T00:04 | 11988 | 215 | 235 | 22.0 | ||
| 2013-09-09T00:05 | 11999 | 214 | 234 | 22.0 | ||
| 2013-09-09T00:05 | 12071 | 212 | 234 | 22.0 | ||
| 2013-09-09T00:05 | 12199 | 208 | 236 | 21.0 | ||
| 2013-09-09T00:06 | 12537 | 197 | 237 | 17.0 | ||
| 2013-09-09T00:07 | 12831 | 188 | 234 | 16.0 | ||
| 2013-09-09T00:08 | 13155 | 179 | 233 | 16.0 | ||
| 2013-09-09T00:09 | 13505 | 169 | 239 | 13.0 | ||
| 2013-09-09T00:09 | 13596 | 166 | -64.3 | |||
| 2013-09-09T00:10 | 13829 | 160 | 239 | 13.0 | ||
| 2013-09-09T00:11 | 14162 | 151 | 239 | 12.0 | ||
| 2013-09-09T00:12 | 14521 | 143 | 239 | 7.0 | ||
| 2013-09-09T00:12 | 14656 | 139 | -71.4 | |||
| 2013-09-09T00:13 | 14889 | 134 | 237 | 6.0 | ||
| 2013-09-09T00:13 | 14932 | 133 | -72.3 | |||
| 2013-09-09T00:14 | 15172 | 128 | -72.7 | |||
| 2013-09-09T00:14 | 15280 | 125 | 277 | 2.0 | ||
| 2013-09-09T00:15 | 15533 | 120 | -74.8 | |||
| 2013-09-09T00:15 | 15730 | 116 | -74.3 | 300 | 1.0 | |
| 2013-09-09T00:15 | 15889 | 113 | -73.2 | |||
| 2013-09-09T00:16 | 16106 | 109 | -72.1 | |||
| 2013-09-09T00:16 | 16149 | 108 | 6 | 9.0 | ||
| 2013-09-09T00:17 | 16594 | 100 | -74.9 | 51 | 9.0 | |
| 2013-09-09T00:17 | 16606 | 100 | 51 | 9.0 | ||
| 2013-09-09T00:18 | 16879 | 95 | -75.2 | |||
| 2013-09-09T00:18 | 17101 | 92 | 70 | 13.0 | ||
| 2013-09-09T00:18 | 17140 | 91 | -74.9 | |||
| 2013-09-09T00:19 | 17529 | 85 | 98 | 14.0 | ||
| 2013-09-09T00:19 | 17665 | 83 | -73.0 | |||
| 2013-09-09T00:20 | 17930 | 80 | 101 | 12.0 | ||
| 2013-09-09T00:21 | 18141 | 77 | -68.8 | |||
| 2013-09-09T00:21 | 18308 | 75 | 108 | 10.0 | ||
| 2013-09-09T00:22 | 18655 | 71 | 113 | 8.0 | ||
| 2013-09-09T00:22 | 18693 | 70 | -66.9 | |||
| 2013-09-09T00:23 | 18914 | 68 | -67.2 | |||
| 2013-09-09T00:23 | 19000 | 67 | 120 | 7.0 | ||
| 2013-09-09T00:24 | 19278 | 64 | -68.4 | |||
| 2013-09-09T00:24 | 19370 | 63 | 104 | 8.0 | ||
| 2013-09-09T00:25 | 19750 | 59 | 86 | 6.0 | ||
| 2013-09-09T00:25 | 19809 | 58 | -68.1 | |||
| 2013-09-09T00:26 | 20115 | 55 | -67.4 | |||
| 2013-09-09T00:26 | 20148 | 55 | 96 | 13.0 | ||
| 2013-09-09T00:27 | 20505 | 52 | 80 | 9.0 | ||
| 2013-09-09T00:27 | 20522 | 52 | -67.3 | |||
| 2013-09-09T00:28 | 20858 | 49 | 68 | 15.0 | ||
| 2013-09-09T00:29 | 21163 | 47 | -63.8 | |||
| 2013-09-09T00:29 | 21233 | 46 | 77 | 17.0 | ||
| 2013-09-09T00:30 | 21622 | 43 | 73 | 19.0 | ||
| 2013-09-09T00:30 | 21806 | 42 | -61.0 | |||
| 2013-09-09T00:31 | 21991 | 41 | 83 | 21.0 | ||
| 2013-09-09T00:32 | 22343 | 38 | 84 | 19.0 | ||
| 2013-09-09T00:33 | 22704 | 36 | -57.9 | |||
| 2013-09-09T00:33 | 22724 | 36 | 98 | 17.0 | ||
| 2013-09-09T00:34 | 23125 | 34 | 95 | 15.0 | ||
| 2013-09-09T00:35 | 23322 | 33 | -57.2 | |||
| 2013-09-09T00:35 | 23509 | 32 | 83 | 17.0 | ||
| 2013-09-09T00:36 | 23875 | 30 | 83 | 25.0 | ||
| 2013-09-09T00:36 | 24029 | 29 | 85 | 25.0 | ||
| 2013-09-09T00:36 | 24048 | 29 | 86 | 25.0 | ||
| 2013-09-09T00:37 | 24177 | 29 | -57.8 | |||
| 2013-09-09T00:37 | 24258 | 28 | 92 | 24.0 | ||
| 2013-09-09T00:38 | 24705 | 26 | 97 | 23.0 | ||
| 2013-09-09T00:39 | 25048 | 25 | -55.0 | |||
| 2013-09-09T00:39 | 25146 | 25 | 101 | 25.0 | ||
| 2013-09-09T00:40 | 25528 | 23 | 99 | 22.0 | ||
| 2013-09-09T00:41 | 25906 | 22 | 107 | 21.0 | ||
| 2013-09-09T00:42 | 26199 | 21 | -50.6 | |||
| 2013-09-09T00:42 | 26314 | 21 | 107 | 20.0 | ||
| 2013-09-09T00:43 | 26767 | 19 | 103 | 20.0 | ||
| 2013-09-09T00:43 | 26828 | 19 | -48.8 | |||
| 2013-09-09T00:44 | 27233 | 18 | 97 | 18.0 | ||
| 2013-09-09T00:45 | 27640 | 17 | 94 | 14.0 | ||
| 2013-09-09T00:46 | 28029 | 16 | 86 | 13.0 | ||
| 2013-09-09T00:47 | 28440 | 15 | 75 | 17.0 | ||
| 2013-09-09T00:48 | 28786 | 14 | -46.6 | |||
| 2013-09-09T00:48 | 28834 | 14 | -46.7 | |||
| 2013-09-09T00:48 | 28905 | 14 | 77 | 19.0 | ||
| 2013-09-09T00:48 | 29079 | 14 | -46.0 | |||
| 2013-09-09T00:49 | 29234 | 13 | -46.6 | 70 | 19.0 | |
| 2013-09-09T11:30 | 9 | 1014 | 28.3 | 25.3 | 100 | 6.0 |
| 2013-09-09T11:30 | 113 | 1002 | 27.7 | 23.7 | ||
| 2013-09-09T11:31 | 372 | 973 | 99 | 10.0 | ||
| 2013-09-09T11:32 | 604 | 948 | 23.7 | 21.4 | ||
| 2013-09-09T11:32 | 752 | 932 | 101 | 11.0 | ||
| 2013-09-09T11:32 | 773 | 930 | 101 | 12.0 | ||
| 2013-09-09T11:32 | 780 | 929 | 101 | 12.0 | ||
| 2013-09-09T11:32 | 786 | 928 | 102 | 12.0 | ||
| 2013-09-09T11:32 | 807 | 926 | 22.7 | 18.9 | ||
| 2013-09-09T11:32 | 814 | 925 | 102 | 12.0 | ||
| 2013-09-09T11:32 | 821 | 924 | 101 | 12.0 | ||
| 2013-09-09T11:32 | 932 | 913 | 22.0 | 18.0 | ||
| 2013-09-09T11:33 | 995 | 906 | 21.7 | 17.3 | ||
| 2013-09-09T11:33 | 1158 | 889 | 20.5 | 17.1 | 103 | 11.0 |
| 2013-09-09T11:33 | 1315 | 873 | 19.6 | 16.3 | ||
| 2013-09-09T11:34 | 1487 | 856 | 18.9 | 14.0 | ||
| 2013-09-09T11:34 | 1503 | 855 | 104 | 10.0 | ||
| 2013-09-09T11:34 | 1542 | 851 | 18.5 | 12.9 | ||
| 2013-09-09T11:34 | 1581 | 847 | 18.2 | 13.7 | ||
| 2013-09-09T11:34 | 1600 | 845 | 18.0 | 15.1 | ||
| 2013-09-09T11:35 | 1657 | 839 | 17.6 | 13.5 | ||
| 2013-09-09T11:35 | 1680 | 837 | 17.5 | 14.0 | ||
| 2013-09-09T11:35 | 1713 | 834 | 17.5 | 10.1 | ||
| 2013-09-09T11:35 | 1722 | 833 | 17.5 | 10.4 | ||
| 2013-09-09T11:35 | 1732 | 832 | 17.4 | 12.9 | ||
| 2013-09-09T11:35 | 1761 | 829 | 17.2 | 11.9 | ||
| 2013-09-09T11:35 | 1782 | 827 | 17.4 | 11.7 | ||
| 2013-09-09T11:35 | 1792 | 826 | 17.4 | 10.1 | 103 | 10.0 |
| 2013-09-09T11:35 | 1803 | 825 | 17.5 | 7.0 | ||
| 2013-09-09T11:35 | 1835 | 822 | 17.5 | 6.7 | ||
| 2013-09-09T11:35 | 1915 | 814 | 17.3 | 5.6 | ||
| 2013-09-09T11:36 | 2013 | 805 | 16.8 | 6.3 | ||
| 2013-09-09T11:36 | 2044 | 802 | 16.6 | 8.1 | ||
| 2013-09-09T11:36 | 2063 | 800 | 16.4 | 8.6 | ||
| 2013-09-09T11:36 | 2113 | 796 | 16.2 | 6.3 | ||
| 2013-09-09T11:36 | 2151 | 792 | 103 | 11.0 | ||
| 2013-09-09T11:36 | 2240 | 784 | 15.4 | 6.4 | ||
| 2013-09-09T11:36 | 2303 | 778 | 15.0 | 5.8 | ||
| 2013-09-09T11:37 | 2340 | 775 | 15.0 | 2.9 | ||
| 2013-09-09T11:37 | 2389 | 770 | 14.6 | 5.9 | ||
| 2013-09-09T11:37 | 2401 | 769 | 14.5 | 7.5 | ||
| 2013-09-09T11:37 | 2518 | 759 | 108 | 9.0 | ||
| 2013-09-09T11:37 | 2587 | 752 | 13.5 | 5.6 | ||
| 2013-09-09T11:38 | 2722 | 740 | 12.7 | 5.1 | ||
| 2013-09-09T11:38 | 2860 | 728 | 98 | 9.0 | ||
| 2013-09-09T11:38 | 2872 | 727 | 11.9 | 4.1 | ||
| 2013-09-09T11:39 | 3177 | 701 | 10.1 | 1.7 | ||
| 2013-09-09T11:39 | 3227 | 697 | 113 | 9.0 | ||
| 2013-09-09T11:40 | 3460 | 678 | 8.4 | 1.1 | ||
| 2013-09-09T11:40 | 3478 | 676 | 8.4 | -3.8 | ||
| 2013-09-09T11:40 | 3518 | 673 | 8.3 | -4.2 | ||
| 2013-09-09T11:40 | 3558 | 670 | 7.9 | -2.4 | ||
| 2013-09-09T11:40 | 3580 | 668 | 127 | 7.0 | ||
| 2013-09-09T11:40 | 3711 | 657 | 6.7 | -2.5 | ||
| 2013-09-09T11:41 | 3773 | 652 | 6.3 | -0.9 | ||
| 2013-09-09T11:41 | 3813 | 649 | 6.2 | -3.2 | ||
| 2013-09-09T11:41 | 3854 | 646 | 5.9 | -3.2 | ||
| 2013-09-09T11:41 | 3899 | 642 | 5.6 | -2.7 | ||
| 2013-09-09T11:41 | 3922 | 641 | 115 | 8.0 | ||
| 2013-09-09T11:41 | 3977 | 636 | 5.2 | -2.9 | ||
| 2013-09-09T11:41 | 3999 | 635 | 5.1 | -3.0 | ||
| 2013-09-09T11:42 | 4133 | 624 | 4.2 | -4.0 | ||
| 2013-09-09T11:42 | 4148 | 623 | 4.1 | -5.4 | ||
| 2013-09-09T11:42 | 4169 | 622 | 4.0 | -6.9 | ||
| 2013-09-09T11:42 | 4226 | 617 | 3.6 | -7.8 | ||
| 2013-09-09T11:42 | 4242 | 616 | 118 | 7.0 | ||
| 2013-09-09T11:42 | 4252 | 615 | 3.5 | -8.5 | ||
| 2013-09-09T11:42 | 4279 | 613 | 3.3 | -8.7 | ||
| 2013-09-09T11:42 | 4322 | 610 | 2.9 | -4.8 | ||
| 2013-09-09T11:42 | 4398 | 604 | 2.4 | -4.1 | ||
| 2013-09-09T11:43 | 4426 | 602 | 2.3 | -5.6 | ||
| 2013-09-09T11:43 | 4448 | 601 | 2.2 | -5.0 | ||
| 2013-09-09T11:43 | 4480 | 598 | 2.0 | -6.6 | ||
| 2013-09-09T11:43 | 4544 | 593 | 1.7 | -6.9 | ||
| 2013-09-09T11:43 | 4565 | 592 | 1.6 | -9.3 | 121 | 7.0 |
| 2013-09-09T11:43 | 4581 | 591 | 1.6 | -4.5 | ||
| 2013-09-09T11:43 | 4597 | 590 | 1.5 | -4.0 | ||
| 2013-09-09T11:43 | 4613 | 588 | 1.4 | -6.2 | ||
| 2013-09-09T11:43 | 4639 | 586 | 1.2 | -5.7 | ||
| 2013-09-09T11:43 | 4709 | 581 | 0.8 | -11.3 | ||
| 2013-09-09T11:44 | 4747 | 579 | 0.5 | -8.0 | ||
| 2013-09-09T11:44 | 4804 | 575 | 0.1 | -10.7 | ||
| 2013-09-09T11:44 | 4838 | 572 | -0.2 | -10.2 | ||
| 2013-09-09T11:44 | 4895 | 568 | -0.6 | -7.2 | 125 | 7.0 |
| 2013-09-09T11:44 | 4941 | 565 | -0.9 | -8.1 | ||
| 2013-09-09T11:44 | 4979 | 562 | -1.1 | -8.3 | ||
| 2013-09-09T11:45 | 5138 | 551 | -1.6 | -9.5 | ||
| 2013-09-09T11:45 | 5164 | 549 | -1.8 | -6.7 | ||
| 2013-09-09T11:45 | 5216 | 546 | 136 | 6.0 | ||
| 2013-09-09T11:45 | 5304 | 540 | -2.7 | -9.0 | ||
| 2013-09-09T11:46 | 5378 | 535 | -3.0 | -8.5 | ||
| 2013-09-09T11:46 | 5538 | 524 | 134 | 7.0 | ||
| 2013-09-09T11:46 | 5642 | 517 | -4.5 | -9.5 | ||
| 2013-09-09T11:47 | 5861 | 503 | 129 | 5.0 | ||
| 2013-09-09T11:47 | 5882 | 501 | -6.0 | -9.9 | ||
| 2013-09-09T11:47 | 5997 | 494 | -6.3 | -10.5 | ||
| 2013-09-09T11:48 | 6042 | 491 | -6.5 | -8.9 | ||
| 2013-09-09T11:48 | 6195 | 482 | 140 | 4.0 | ||
| 2013-09-09T11:48 | 6207 | 481 | -7.7 | -8.9 | ||
| 2013-09-09T11:49 | 6450 | 466 | -8.8 | -10.6 | ||
| 2013-09-09T11:49 | 6540 | 461 | 144 | 7.0 | ||
| 2013-09-09T11:50 | 6846 | 443 | -11.0 | -13.5 | ||
| 2013-09-09T11:50 | 6898 | 440 | 141 | 7.0 | ||
| 2013-09-09T11:50 | 7002 | 434 | -11.7 | -15.2 | ||
| 2013-09-09T11:51 | 7257 | 420 | -13.2 | -16.9 | 129 | 6.0 |
| 2013-09-09T11:52 | 7654 | 398 | 150 | 9.0 | ||
| 2013-09-09T11:52 | 7693 | 396 | -16.3 | -18.4 | ||
| 2013-09-09T11:52 | 7751 | 393 | -16.7 | -21.1 | ||
| 2013-09-09T11:53 | 8048 | 378 | 152 | 10.0 | ||
| 2013-09-09T11:53 | 8218 | 370 | -20.3 | -21.5 | ||
| 2013-09-09T11:54 | 8433 | 359 | 151 | 5.0 | ||
| 2013-09-09T11:55 | 8647 | 349 | -23.5 | -24.0 | ||
| 2013-09-09T11:55 | 8781 | 342 | 233 | 3.0 | ||
| 2013-09-09T11:56 | 9010 | 332 | -25.8 | -26.2 | ||
| 2013-09-09T11:56 | 9128 | 326 | 197 | 4.0 | ||
| 2013-09-09T11:57 | 9449 | 312 | -29.3 | -29.8 | ||
| 2013-09-09T11:57 | 9478 | 311 | 196 | 6.0 | ||
| 2013-09-09T11:57 | 9641 | 304 | -30.7 | -32.6 | ||
| 2013-09-09T11:58 | 9828 | 296 | 209 | 3.0 | ||
| 2013-09-09T11:59 | 10130 | 283 | -34.6 | -41.2 | ||
| 2013-09-09T11:59 | 10178 | 281 | 197 | 3.0 | ||
| 2013-09-09T11:59 | 10354 | 274 | -36.3 | -44.0 | ||
| 2013-09-09T12:00 | 10562 | 266 | 199 | 6.0 | ||
| 2013-09-09T12:01 | 10748 | 259 | -39.4 | -46.1 | ||
| 2013-09-09T12:01 | 10831 | 256 | -40.0 | -46.8 | ||
| 2013-09-09T12:01 | 10925 | 252 | 201 | 10.0 | ||
| 2013-09-09T12:02 | 11282 | 239 | 212 | 11.0 | ||
| 2013-09-09T12:03 | 11642 | 227 | 226 | 11.0 | ||
| 2013-09-09T12:04 | 11970 | 216 | 236 | 15.0 | ||
| 2013-09-09T12:05 | 12311 | 205 | 237 | 16.0 | ||
| 2013-09-09T12:06 | 12563 | 197 | -54.5 | |||
| 2013-09-09T12:06 | 12669 | 194 | 235 | 17.0 | ||
| 2013-09-09T12:07 | 13040 | 183 | 233 | 19.0 | ||
| 2013-09-09T12:08 | 13431 | 172 | 236 | 22.0 | ||
| 2013-09-09T12:08 | 13457 | 171 | 236 | 22.0 | ||
| 2013-09-09T12:09 | 13810 | 162 | 245 | 18.0 | ||
| 2013-09-09T12:10 | 14037 | 156 | -65.3 | |||
| 2013-09-09T12:10 | 14228 | 151 | 287 | 11.0 | ||
| 2013-09-09T12:10 | 14341 | 148 | -65.8 | |||
| 2013-09-09T12:11 | 14708 | 139 | 321 | 5.0 | ||
| 2013-09-09T12:12 | 15072 | 131 | -71.5 | |||
| 2013-09-09T12:12 | 15180 | 129 | 84 | 2.0 | ||
| 2013-09-09T12:13 | 15622 | 119 | 152 | 5.0 | ||
| 2013-09-09T12:14 | 15918 | 113 | -74.4 | |||
| 2013-09-09T12:14 | 16133 | 109 | 119 | 6.0 | ||
| 2013-09-09T12:14 | 16237 | 107 | -75.5 | |||
| 2013-09-09T12:15 | 16442 | 104 | -74.4 | |||
| 2013-09-09T12:15 | 16647 | 100 | -73.6 | 127 | 2.0 | |
| 2013-09-09T12:15 | 16877 | 96 | -72.9 | |||
| 2013-09-09T12:16 | 17149 | 92 | 92 | 2.0 | ||
| 2013-09-09T12:17 | 17541 | 86 | -73.4 | |||
| 2013-09-09T12:17 | 17611 | 85 | 354 | 6.0 | ||
| 2013-09-09T12:18 | 17852 | 81 | -73.5 | 17 | 7.0 | |
| 2013-09-10T00:45 | 9 | 1013 | 28.9 | 24.2 | 80 | 4.0 |
| 2013-09-10T00:46 | 187 | 993 | 27.0 | 21.3 | ||
| 2013-09-10T00:46 | 348 | 975 | 98 | 9.0 | ||
| 2013-09-10T00:47 | 703 | 937 | 108 | 9.0 | ||
| 2013-09-10T00:47 | 739 | 933 | 22.8 | 20.1 | ||
| 2013-09-10T00:48 | 1009 | 904 | 20.8 | 17.6 | ||
| 2013-09-10T00:48 | 1073 | 898 | 107 | 9.0 | ||
| 2013-09-10T00:49 | 1325 | 872 | 19.1 | 15.8 | ||
| 2013-09-10T00:49 | 1431 | 861 | 111 | 9.0 | ||
| 2013-09-10T00:49 | 1578 | 847 | 115 | 9.0 | ||
| 2013-09-10T00:49 | 1584 | 846 | 115 | 9.0 | ||
| 2013-09-10T00:50 | 1756 | 829 | 16.5 | 13.8 | ||
| 2013-09-10T00:51 | 2010 | 805 | 14.9 | 12.8 | ||
| 2013-09-10T00:51 | 2084 | 798 | 15.1 | 11.7 | 124 | 9.0 |
| 2013-09-10T00:51 | 2116 | 795 | 15.0 | 11.8 | ||
| 2013-09-10T00:52 | 2337 | 775 | 14.3 | 9.9 | ||
| 2013-09-10T00:52 | 2373 | 771 | 14.5 | 8.9 | ||
| 2013-09-10T00:52 | 2430 | 766 | 131 | 8.0 | ||
| 2013-09-10T00:52 | 2467 | 763 | 14.6 | 7.4 | ||
| 2013-09-10T00:52 | 2479 | 762 | 14.7 | 5.0 | ||
| 2013-09-10T00:52 | 2504 | 760 | 14.7 | 4.7 | ||
| 2013-09-10T00:52 | 2523 | 758 | 14.7 | 5.8 | ||
| 2013-09-10T00:53 | 2666 | 745 | 13.6 | 3.7 | ||
| 2013-09-10T00:53 | 2679 | 744 | 13.5 | 5.6 | ||
| 2013-09-10T00:53 | 2787 | 735 | 12.9 | 3.6 | ||
| 2013-09-10T00:53 | 2812 | 732 | 120 | 8.0 | ||
| 2013-09-10T00:53 | 2914 | 723 | 11.9 | 3.7 | ||
| 2013-09-10T00:53 | 2945 | 721 | 11.8 | 1.7 | ||
| 2013-09-10T00:53 | 2982 | 718 | 11.7 | -1.5 | ||
| 2013-09-10T00:53 | 2994 | 717 | 11.7 | -4.0 | ||
| 2013-09-10T00:54 | 3012 | 715 | 11.7 | -3.6 | ||
| 2013-09-10T00:54 | 3089 | 708 | 11.1 | -4.6 | ||
| 2013-09-10T00:54 | 3125 | 705 | 10.8 | -3.3 | ||
| 2013-09-10T00:54 | 3136 | 704 | 10.7 | 1.5 | ||
| 2013-09-10T00:54 | 3177 | 701 | 126 | 8.0 | ||
| 2013-09-10T00:54 | 3239 | 696 | 9.8 | 3.1 | ||
| 2013-09-10T00:54 | 3284 | 692 | 9.7 | 3.7 | ||
| 2013-09-10T00:54 | 3324 | 689 | 9.5 | 0.9 | ||
| 2013-09-10T00:55 | 3386 | 684 | 9.0 | 4.0 | ||
| 2013-09-10T00:55 | 3403 | 682 | 8.9 | 4.3 | ||
| 2013-09-10T00:55 | 3431 | 680 | 8.9 | 4.1 | ||
| 2013-09-10T00:55 | 3448 | 679 | 8.7 | 3.3 | ||
| 2013-09-10T00:55 | 3471 | 677 | 8.6 | 3.4 | ||
| 2013-09-10T00:55 | 3493 | 675 | 8.5 | 1.9 | ||
| 2013-09-10T00:55 | 3516 | 673 | 120 | 9.0 | ||
| 2013-09-10T00:55 | 3528 | 672 | 8.4 | -0.4 | ||
| 2013-09-10T00:55 | 3557 | 670 | 8.3 | -3.5 | ||
| 2013-09-10T00:56 | 3758 | 654 | 6.5 | 0.0 | ||
| 2013-09-10T00:56 | 3837 | 647 | 6.1 | 0.0 | ||
| 2013-09-10T00:56 | 3873 | 645 | 113 | 10.0 | ||
| 2013-09-10T00:56 | 3886 | 644 | 5.9 | -1.7 | ||
| 2013-09-10T00:56 | 3916 | 641 | 5.6 | -2.5 | ||
| 2013-09-10T00:56 | 3952 | 638 | 5.3 | -1.2 | ||
| 2013-09-10T00:56 | 3994 | 635 | 5.0 | 0.4 | ||
| 2013-09-10T00:57 | 4106 | 626 | 4.3 | -0.5 | ||
| 2013-09-10T00:57 | 4136 | 624 | 4.4 | -8.4 | ||
| 2013-09-10T00:57 | 4171 | 621 | 4.3 | -10.6 | ||
| 2013-09-10T00:57 | 4230 | 617 | 3.9 | -8.5 | 118 | 11.0 |
| 2013-09-10T00:58 | 4484 | 598 | 2.3 | -12.0 | ||
| 2013-09-10T00:58 | 4617 | 588 | 132 | 14.0 | ||
| 2013-09-10T00:58 | 4703 | 582 | 0.5 | -13.6 | ||
| 2013-09-10T00:58 | 4754 | 578 | 0.0 | -10.8 | ||
| 2013-09-10T00:59 | 4925 | 566 | 127 | 15.0 | ||
| 2013-09-10T00:59 | 4932 | 565 | 127 | 15.0 | ||
| 2013-09-10T00:59 | 5001 | 560 | 123 | 14.0 | ||
| 2013-09-10T00:59 | 5051 | 557 | -2.6 | -9.5 | ||
| 2013-09-10T00:59 | 5106 | 553 | -2.5 | -12.5 | ||
| 2013-09-10T00:59 | 5131 | 551 | -2.5 | -15.2 | ||
| 2013-09-10T01:00 | 5216 | 545 | -3.0 | -13.8 | ||
| 2013-09-10T01:00 | 5342 | 537 | -4.0 | -13.7 | ||
| 2013-09-10T01:00 | 5366 | 535 | 118 | 14.0 | ||
| 2013-09-10T01:00 | 5430 | 531 | -4.8 | -13.2 | ||
| 2013-09-10T01:00 | 5465 | 529 | -5.0 | -12.9 | ||
| 2013-09-10T01:00 | 5516 | 525 | -5.3 | -17.4 | ||
| 2013-09-10T01:01 | 5572 | 521 | -5.7 | -18.7 | ||
| 2013-09-10T01:01 | 5622 | 518 | -6.1 | -16.1 | ||
| 2013-09-10T01:01 | 5644 | 517 | -6.3 | -11.4 | ||
| 2013-09-10T01:01 | 5667 | 515 | -6.5 | -13.0 | ||
| 2013-09-10T01:01 | 5689 | 514 | -6.6 | -15.8 | ||
| 2013-09-10T01:01 | 5706 | 513 | 120 | 13.0 | ||
| 2013-09-10T01:01 | 5766 | 509 | -6.8 | -16.8 | ||
| 2013-09-10T01:01 | 5818 | 505 | -6.8 | -15.7 | ||
| 2013-09-10T01:01 | 5844 | 504 | -6.8 | -18.5 | ||
| 2013-09-10T01:02 | 5894 | 500 | -7.0 | -20.9 | ||
| 2013-09-10T01:02 | 5929 | 498 | -7.1 | -19.3 | ||
| 2013-09-10T01:02 | 5953 | 497 | -7.2 | -16.9 | ||
| 2013-09-10T01:02 | 6010 | 493 | 109 | 11.0 | ||
| 2013-09-10T01:02 | 6087 | 488 | -8.1 | -17.2 | ||
| 2013-09-10T01:03 | 6159 | 484 | -8.5 | -14.1 | ||
| 2013-09-10T01:03 | 6180 | 482 | -8.6 | -12.7 | ||
| 2013-09-10T01:03 | 6256 | 478 | -8.8 | -13.8 | ||
| 2013-09-10T01:03 | 6323 | 473 | 118 | 8.0 | ||
| 2013-09-10T01:03 | 6471 | 465 | -9.8 | -14.2 | ||
| 2013-09-10T01:04 | 6552 | 460 | -10.1 | -13.2 | ||
| 2013-09-10T01:04 | 6641 | 454 | -10.3 | -11.8 | ||
| 2013-09-10T01:04 | 6669 | 453 | 155 | 6.0 | ||
| 2013-09-10T01:05 | 7014 | 433 | 195 | 6.0 | ||
| 2013-09-10T01:06 | 7247 | 420 | -13.6 | -14.1 | ||
| 2013-09-10T01:06 | 7368 | 413 | -14.2 | -14.6 | ||
| 2013-09-10T01:06 | 7409 | 411 | 224 | 5.0 | ||
| 2013-09-10T01:06 | 7423 | 410 | -14.6 | -15.4 | ||
| 2013-09-10T01:06 | 7443 | 409 | -14.7 | -15.5 | ||
| 2013-09-10T01:06 | 7503 | 406 | -15.2 | -15.9 | ||
| 2013-09-10T01:06 | 7529 | 405 | -15.4 | -16.0 | ||
| 2013-09-10T01:06 | 7574 | 402 | -15.8 | -17.5 | ||
| 2013-09-10T01:07 | 7658 | 398 | -16.5 | -18.3 | ||
| 2013-09-10T01:07 | 7670 | 397 | -16.6 | -17.9 | ||
| 2013-09-10T01:07 | 7707 | 395 | -16.9 | -19.2 | ||
| 2013-09-10T01:07 | 7749 | 393 | -17.3 | -20.1 | ||
| 2013-09-10T01:07 | 7789 | 391 | 236 | 7.0 | ||
| 2013-09-10T01:07 | 7795 | 390 | -17.7 | -20.2 | ||
| 2013-09-10T01:07 | 7896 | 385 | -18.6 | -20.5 | ||
| 2013-09-10T01:07 | 7927 | 384 | -18.9 | -21.3 | ||
| 2013-09-10T01:08 | 7971 | 381 | -19.3 | -22.6 | ||
| 2013-09-10T01:08 | 8047 | 377 | -20.0 | -24.1 | ||
| 2013-09-10T01:08 | 8098 | 375 | -20.4 | -27.1 | ||
| 2013-09-10T01:08 | 8136 | 373 | -20.8 | -26.2 | ||
| 2013-09-10T01:08 | 8163 | 372 | 246 | 5.0 | ||
| 2013-09-10T01:08 | 8195 | 370 | -21.3 | -26.7 | ||
| 2013-09-10T01:08 | 8260 | 367 | -21.9 | -27.6 | ||
| 2013-09-10T01:08 | 8292 | 365 | -21.8 | -26.4 | ||
| 2013-09-10T01:09 | 8399 | 360 | -21.9 | -24.6 | ||
| 2013-09-10T01:09 | 8471 | 356 | -22.5 | -26.0 | ||
| 2013-09-10T01:09 | 8550 | 353 | 250 | 9.0 | ||
| 2013-09-10T01:09 | 8584 | 351 | -23.6 | -28.3 | ||
| 2013-09-10T01:10 | 8763 | 342 | -24.8 | -28.8 | ||
| 2013-09-10T01:10 | 8949 | 334 | -26.0 | -29.6 | ||
| 2013-09-10T01:10 | 8971 | 333 | 253 | 9.0 | ||
| 2013-09-10T01:10 | 9042 | 330 | -26.7 | -31.0 | ||
| 2013-09-10T01:10 | 9126 | 326 | -27.5 | -31.6 | ||
| 2013-09-10T01:11 | 9233 | 321 | -28.4 | -33.4 | ||
| 2013-09-10T01:11 | 9246 | 320 | -28.5 | -34.4 | ||
| 2013-09-10T01:11 | 9278 | 319 | -28.6 | -35.4 | ||
| 2013-09-10T01:11 | 9372 | 315 | 236 | 11.0 | ||
| 2013-09-10T01:11 | 9486 | 310 | -30.1 | -34.3 | ||
| 2013-09-10T01:11 | 9540 | 307 | -30.4 | -35.8 | ||
| 2013-09-10T01:12 | 9589 | 305 | -30.9 | -36.0 | ||
| 2013-09-10T01:12 | 9676 | 302 | -31.3 | -37.9 | ||
| 2013-09-10T01:12 | 9682 | 301 | -31.3 | -37.9 | ||
| 2013-09-10T01:12 | 9739 | 299 | 222 | 12.0 | ||
| 2013-09-10T01:12 | 9764 | 298 | -32.0 | -35.4 | ||
| 2013-09-10T01:12 | 9809 | 296 | -32.5 | -36.6 | ||
| 2013-09-10T01:12 | 9895 | 292 | -33.2 | -41.1 | ||
| 2013-09-10T01:13 | 10060 | 286 | -34.7 | -43.6 | ||
| 2013-09-10T01:13 | 10122 | 283 | -35.3 | -43.3 | 224 | 12.0 |
| 2013-09-10T01:13 | 10177 | 281 | -35.8 | -43.9 | ||
| 2013-09-10T01:13 | 10202 | 280 | -36.0 | -44.6 | ||
| 2013-09-10T01:13 | 10252 | 278 | -36.5 | -44.4 | ||
| 2013-09-10T01:14 | 10393 | 272 | -37.8 | -47.4 | ||
| 2013-09-10T01:14 | 10435 | 270 | -38.2 | -47.7 | ||
| 2013-09-10T01:14 | 10489 | 268 | -38.6 | -48.4 | 228 | 12.0 |
| 2013-09-10T01:14 | 10609 | 264 | -39.6 | -49.5 | ||
| 2013-09-10T01:15 | 10669 | 261 | -40.0 | -49.6 | ||
| 2013-09-10T01:15 | 10855 | 254 | 236 | 12.0 | ||
| 2013-09-10T01:16 | 11229 | 241 | 234 | 13.0 | ||
| 2013-09-10T01:17 | 11587 | 228 | 242 | 12.0 | ||
| 2013-09-10T01:18 | 11930 | 216 | 240 | 14.0 | ||
| 2013-09-10T01:19 | 12272 | 205 | 246 | 15.0 | ||
| 2013-09-10T01:19 | 12342 | 203 | -53.5 | |||
| 2013-09-10T01:20 | 12616 | 195 | 250 | 15.0 | ||
| 2013-09-10T01:21 | 12967 | 184 | 249 | 16.0 | ||
| 2013-09-10T01:22 | 13313 | 174 | 247 | 18.0 | ||
| 2013-09-10T01:22 | 13466 | 170 | 250 | 18.0 | ||
| 2013-09-10T01:23 | 13629 | 165 | -64.4 | |||
| 2013-09-10T01:23 | 13684 | 164 | 255 | 17.0 | ||
| 2013-09-10T01:24 | 13940 | 157 | -66.1 | |||
| 2013-09-10T01:24 | 14029 | 155 | 265 | 13.0 | ||
| 2013-09-10T01:25 | 14219 | 150 | -67.5 | |||
| 2013-09-10T01:25 | 14368 | 146 | 278 | 8.0 | ||
| 2013-09-10T01:25 | 14540 | 142 | -69.5 | |||
| 2013-09-10T01:26 | 14734 | 138 | 275 | 8.0 | ||
| 2013-09-10T01:26 | 14875 | 134 | -71.5 | |||
| 2013-09-10T01:27 | 15163 | 128 | 352 | 8.0 | ||
| 2013-09-10T01:27 | 15234 | 127 | -71.1 | |||
| 2013-09-10T01:28 | 15659 | 118 | 51 | 9.0 | ||
| 2013-09-10T01:29 | 16173 | 108 | 47 | 9.0 | ||
| 2013-09-10T01:29 | 16394 | 104 | -75.4 | |||
| 2013-09-10T01:30 | 16604 | 100 | -74.6 | 87 | 10.0 | |
| 2013-09-10T01:30 | 16782 | 97 | 97 | 7.0 | ||
| 2013-09-10T01:30 | 16834 | 96 | -75.3 | |||
| 2013-09-10T01:31 | 17116 | 92 | -74.6 | |||
| 2013-09-10T01:31 | 17366 | 88 | 85 | 11.0 | ||
| 2013-09-10T01:32 | 17931 | 80 | 117 | 6.0 | ||
| 2013-09-10T01:32 | 18112 | 77 | -70.3 | |||
| 2013-09-10T01:33 | 18218 | 76 | -70.8 | |||
| 2013-09-10T01:33 | 18431 | 73 | 43 | 4.0 | ||
| 2013-09-10T01:34 | 18673 | 70 | 33 | 7.0 | ||
| 2013-09-10T01:34 | 18742 | 70 | -69.8 | 26 | 11.0 | |
| 2013-09-10T11:30 | 9 | 1014 | 29.2 | 25.4 | 100 | 11.0 |
| 2013-09-10T11:31 | 317 | 979 | 107 | 12.0 | ||
| 2013-09-10T11:32 | 591 | 949 | 24.1 | 21.2 | ||
| 2013-09-10T11:32 | 659 | 942 | 111 | 13.0 | ||
| 2013-09-10T11:33 | 962 | 910 | 21.8 | 17.6 | ||
| 2013-09-10T11:33 | 1007 | 905 | 114 | 14.0 | ||
| 2013-09-10T11:33 | 1091 | 896 | 20.9 | 17.5 | ||
| 2013-09-10T11:34 | 1203 | 885 | 115 | 15.0 | ||
| 2013-09-10T11:34 | 1341 | 871 | 117 | 14.0 | ||
| 2013-09-10T11:34 | 1363 | 869 | 19.5 | 14.5 | ||
| 2013-09-10T11:35 | 1536 | 852 | 18.5 | 12.9 | ||
| 2013-09-10T11:35 | 1678 | 838 | 115 | 14.0 | ||
| 2013-09-10T11:35 | 1740 | 831 | 17.6 | 9.5 | ||
| 2013-09-10T11:35 | 1769 | 829 | 17.5 | 9.2 | ||
| 2013-09-10T11:36 | 1884 | 818 | 16.5 | 12.1 | ||
| 2013-09-10T11:36 | 1954 | 811 | 15.9 | 11.7 | ||
| 2013-09-10T11:36 | 1960 | 810 | 15.9 | 11.5 | ||
| 2013-09-10T11:36 | 2025 | 804 | 113 | 12.0 | ||
| 2013-09-10T11:36 | 2096 | 797 | 15.0 | 10.2 | ||
| 2013-09-10T11:37 | 2209 | 787 | 14.4 | 8.1 | ||
| 2013-09-10T11:37 | 2263 | 782 | 13.9 | 9.1 | ||
| 2013-09-10T11:37 | 2381 | 771 | 119 | 11.0 | ||
| 2013-09-10T11:37 | 2405 | 769 | 13.5 | 6.8 | ||
| 2013-09-10T11:37 | 2516 | 759 | 12.8 | 5.5 | ||
| 2013-09-10T11:38 | 2728 | 740 | 11.7 | 5.8 | ||
| 2013-09-10T11:38 | 2734 | 739 | 110 | 11.0 | ||
| 2013-09-10T11:38 | 2775 | 735 | 11.5 | 4.0 | ||
| 2013-09-10T11:39 | 2910 | 724 | 10.9 | 5.0 | ||
| 2013-09-10T11:39 | 3087 | 709 | 103 | 9.0 | ||
| 2013-09-10T11:39 | 3226 | 697 | 9.0 | -0.9 | ||
| 2013-09-10T11:40 | 3261 | 694 | 8.8 | -3.1 | ||
| 2013-09-10T11:40 | 3289 | 692 | 8.5 | -0.3 | ||
| 2013-09-10T11:40 | 3346 | 687 | 8.4 | -4.1 | ||
| 2013-09-10T11:40 | 3433 | 679 | 118 | 8.0 | ||
| 2013-09-10T11:40 | 3468 | 677 | 7.8 | -9.1 | ||
| 2013-09-10T11:41 | 3670 | 660 | 6.7 | -7.3 | ||
| 2013-09-10T11:41 | 3704 | 657 | 6.7 | -13.0 | ||
| 2013-09-10T11:41 | 3778 | 651 | 117 | 8.0 | ||
| 2013-09-10T11:41 | 3790 | 650 | 6.4 | -12.2 | ||
| 2013-09-10T11:41 | 3807 | 649 | 6.3 | -13.3 | ||
| 2013-09-10T11:41 | 3858 | 645 | 5.8 | -7.8 | ||
| 2013-09-10T11:41 | 3892 | 642 | 5.6 | -8.3 | ||
| 2013-09-10T11:42 | 3954 | 637 | 5.3 | -10.1 | ||
| 2013-09-10T11:42 | 4068 | 628 | 4.3 | -8.1 | ||
| 2013-09-10T11:42 | 4091 | 627 | 4.1 | -3.0 | ||
| 2013-09-10T11:42 | 4115 | 625 | 4.0 | -6.6 | ||
| 2013-09-10T11:42 | 4120 | 624 | 107 | 7.0 | ||
| 2013-09-10T11:42 | 4144 | 623 | 4.1 | -11.5 | ||
| 2013-09-10T11:42 | 4174 | 620 | 4.1 | -11.9 | ||
| 2013-09-10T11:42 | 4186 | 619 | 4.1 | -14.2 | ||
| 2013-09-10T11:42 | 4216 | 617 | 3.9 | -12.5 | ||
| 2013-09-10T11:42 | 4228 | 616 | 3.8 | -12.6 | ||
| 2013-09-10T11:42 | 4240 | 615 | 3.7 | -12.3 | ||
| 2013-09-10T11:42 | 4282 | 612 | 3.5 | -14.2 | ||
| 2013-09-10T11:43 | 4312 | 610 | 3.4 | -17.5 | ||
| 2013-09-10T11:43 | 4324 | 609 | 3.3 | -17.0 | ||
| 2013-09-10T11:43 | 4349 | 607 | 3.2 | -21.8 | ||
| 2013-09-10T11:43 | 4380 | 605 | 3.0 | -19.0 | ||
| 2013-09-10T11:43 | 4386 | 604 | 2.9 | -14.7 | ||
| 2013-09-10T11:43 | 4485 | 597 | 100 | 6.0 | ||
| 2013-09-10T11:43 | 4515 | 595 | 2.2 | -14.0 | ||
| 2013-09-10T11:43 | 4527 | 594 | 2.2 | -22.6 | ||
| 2013-09-10T11:43 | 4563 | 591 | 2.1 | -21.9 | ||
| 2013-09-10T11:43 | 4640 | 586 | 1.4 | -10.1 | ||
| 2013-09-10T11:44 | 4676 | 583 | 1.1 | -8.4 | ||
| 2013-09-10T11:44 | 4734 | 579 | 0.6 | -5.4 | ||
| 2013-09-10T11:44 | 4835 | 572 | 128 | 7.0 | ||
| 2013-09-10T11:44 | 4841 | 571 | -0.2 | -5.4 | ||
| 2013-09-10T11:44 | 4914 | 566 | -0.7 | -5.1 | ||
| 2013-09-10T11:44 | 4937 | 564 | -0.9 | -9.8 | ||
| 2013-09-10T11:44 | 4954 | 563 | -1.0 | -5.4 | ||
| 2013-09-10T11:44 | 4966 | 562 | -1.1 | -4.8 | ||
| 2013-09-10T11:44 | 4977 | 561 | -1.2 | -2.9 | ||
| 2013-09-10T11:45 | 5127 | 551 | -2.5 | -3.0 | ||
| 2013-09-10T11:45 | 5145 | 550 | -2.7 | -3.5 | ||
| 2013-09-10T11:45 | 5181 | 547 | 144 | 8.0 | ||
| 2013-09-10T11:45 | 5218 | 545 | -2.9 | -3.7 | ||
| 2013-09-10T11:45 | 5230 | 544 | -3.0 | -5.5 | ||
| 2013-09-10T11:45 | 5242 | 543 | -3.0 | -3.8 | ||
| 2013-09-10T11:45 | 5278 | 541 | -3.1 | -7.1 | ||
| 2013-09-10T11:45 | 5302 | 539 | -3.2 | -5.1 | ||
| 2013-09-10T11:45 | 5327 | 537 | -3.3 | -9.5 | ||
| 2013-09-10T11:46 | 5370 | 534 | -3.4 | -7.7 | ||
| 2013-09-10T11:46 | 5413 | 531 | -3.7 | -6.6 | ||
| 2013-09-10T11:46 | 5432 | 530 | -3.8 | -8.1 | ||
| 2013-09-10T11:46 | 5463 | 528 | -3.9 | -7.3 | ||
| 2013-09-10T11:46 | 5519 | 524 | -4.1 | -10.3 | ||
| 2013-09-10T11:46 | 5550 | 522 | -4.2 | -16.7 | 148 | 8.0 |
| 2013-09-10T11:46 | 5587 | 520 | -4.4 | -22.5 | ||
| 2013-09-10T11:46 | 5618 | 518 | -4.7 | -20.9 | ||
| 2013-09-10T11:46 | 5643 | 516 | -4.9 | -16.4 | ||
| 2013-09-10T11:46 | 5724 | 511 | -5.4 | -25.4 | ||
| 2013-09-10T11:47 | 5923 | 498 | 151 | 9.0 | ||
| 2013-09-10T11:47 | 6048 | 490 | -7.0 | -24.7 | ||
| 2013-09-10T11:48 | 6221 | 479 | -7.6 | -30.6 | ||
| 2013-09-10T11:48 | 6257 | 477 | -7.3 | -24.5 | ||
| 2013-09-10T11:48 | 6287 | 475 | -7.2 | -27.5 | ||
| 2013-09-10T11:48 | 6334 | 472 | -7.2 | -17.9 | ||
| 2013-09-10T11:48 | 6421 | 467 | -7.7 | -16.6 | ||
| 2013-09-10T11:49 | 6571 | 458 | -8.7 | -15.9 | ||
| 2013-09-10T11:49 | 6588 | 457 | -8.8 | -14.2 | ||
| 2013-09-10T11:49 | 6640 | 454 | 151 | 7.0 | ||
| 2013-09-10T11:49 | 6658 | 453 | -9.1 | -13.2 | ||
| 2013-09-10T11:49 | 6704 | 451 | -9.3 | -16.3 | ||
| 2013-09-10T11:49 | 6789 | 446 | -9.7 | -16.2 | ||
| 2013-09-10T11:50 | 6980 | 435 | 131 | 4.0 | ||
| 2013-09-10T11:50 | 6991 | 434 | -11.2 | -14.3 | ||
| 2013-09-10T11:51 | 7322 | 416 | -14.1 | -15.1 | 102 | 2.0 |
| 2013-09-10T11:51 | 7422 | 410 | -14.3 | -16.3 | ||
| 2013-09-10T11:52 | 7572 | 402 | -15.3 | -17.8 | ||
| 2013-09-10T11:52 | 7680 | 396 | 182 | 1.0 | ||
| 2013-09-10T11:52 | 7768 | 392 | 170 | 1.0 | ||
| 2013-09-10T11:52 | 7810 | 390 | -16.6 | -19.7 | ||
| 2013-09-10T11:53 | 7888 | 386 | 0 | 0.0 | ||
| 2013-09-10T11:53 | 7907 | 385 | -17.2 | -21.2 | ||
| 2013-09-10T11:53 | 7937 | 383 | 232 | 1.0 | ||
| 2013-09-10T11:53 | 8043 | 378 | 224 | 2.0 | ||
| 2013-09-10T11:53 | 8050 | 377 | -18.5 | -22.5 | ||
| 2013-09-10T11:53 | 8113 | 374 | -18.8 | -22.9 | ||
| 2013-09-10T11:53 | 8138 | 373 | -18.9 | -22.4 | ||
| 2013-09-10T11:54 | 8247 | 367 | -19.3 | -24.7 | ||
| 2013-09-10T11:54 | 8387 | 361 | -20.2 | -25.3 | ||
| 2013-09-10T11:54 | 8425 | 359 | 233 | 3.0 | ||
| 2013-09-10T11:54 | 8470 | 357 | -20.8 | -25.0 | ||
| 2013-09-10T11:55 | 8635 | 349 | -21.7 | -29.8 | ||
| 2013-09-10T11:55 | 8798 | 341 | -23.0 | -28.6 | ||
| 2013-09-10T11:56 | 8992 | 332 | -24.6 | -30.1 | ||
| 2013-09-10T11:56 | 9182 | 324 | 219 | 8.0 | ||
| 2013-09-10T11:56 | 9363 | 315 | -27.4 | -30.8 | ||
| 2013-09-10T11:57 | 9552 | 307 | 207 | 7.0 | ||
| 2013-09-10T11:58 | 9829 | 296 | -30.9 | -35.3 | ||
| 2013-09-10T11:58 | 9918 | 292 | 224 | 11.0 | ||
| 2013-09-10T11:58 | 10031 | 287 | -32.4 | -37.6 | ||
| 2013-09-10T11:59 | 10295 | 277 | 240 | 12.0 | ||
| 2013-09-10T11:59 | 10393 | 273 | -35.4 | -40.7 | ||
| 2013-09-10T12:00 | 10695 | 261 | 236 | 16.0 | ||
| 2013-09-10T12:00 | 10714 | 260 | 238 | 16.0 | ||
| 2013-09-10T12:00 | 10775 | 258 | -38.9 | -44.7 | ||
| 2013-09-10T12:01 | 10934 | 252 | -40.0 | -47.4 | ||
| 2013-09-10T12:01 | 11063 | 247 | 238 | 15.0 | ||
| 2013-09-10T12:02 | 11445 | 234 | 240 | 15.0 | ||
| 2013-09-10T12:03 | 11828 | 221 | 233 | 14.0 | ||
| 2013-09-10T12:04 | 12210 | 208 | 230 | 15.0 | ||
| 2013-09-10T12:04 | 12341 | 204 | -52.6 | |||
| 2013-09-10T12:05 | 12568 | 197 | 235 | 18.0 | ||
| 2013-09-10T12:06 | 12939 | 186 | 238 | 19.0 | ||
| 2013-09-10T12:06 | 13139 | 180 | 242 | 19.0 | ||
| 2013-09-10T12:08 | 13656 | 166 | 259 | 19.0 | ||
| 2013-09-10T12:08 | 13669 | 165 | 259 | 19.0 | ||
| 2013-09-10T12:08 | 13696 | 164 | 260 | 19.0 | ||
| 2013-09-10T12:09 | 14141 | 153 | 274 | 14.0 | ||
| 2013-09-10T12:09 | 14297 | 149 | -68.5 | |||
| 2013-09-10T12:10 | 14593 | 142 | 291 | 8.0 | ||
| 2013-09-10T12:10 | 14788 | 137 | -71.4 | |||
| 2013-09-10T12:11 | 15050 | 131 | 345 | 6.0 | ||
| 2013-09-10T12:12 | 15558 | 120 | 15 | 2.0 | ||
| 2013-09-10T12:13 | 15888 | 114 | -75.1 | |||
| 2013-09-10T12:13 | 16129 | 109 | 348 | 1.0 | ||
| 2013-09-10T12:14 | 16626 | 100 | -75.2 | 38 | 6.0 | |
| 2013-09-10T12:14 | 16659 | 100 | 43 | 6.0 | ||
| 2013-09-10T12:15 | 17080 | 93 | -73.6 | |||
| 2013-09-10T12:15 | 17200 | 91 | 86 | 5.0 | ||
| 2013-09-10T12:15 | 17332 | 89 | -71.1 | |||
| 2013-09-10T12:16 | 17699 | 83 | 17 | 10.0 | ||
| 2013-09-10T12:16 | 17899 | 81 | -71.1 | |||
| 2013-09-10T12:17 | 17979 | 80 | -71.2 | 41 | 14.0 | |
| 2013-09-10T23:30 | 9 | 1014 | 30.5 | 24.4 | 100 | 9.0 |
| 2013-09-10T23:30 | 12 | 1013 | 29.5 | 22.2 | ||
| 2013-09-10T23:30 | 156 | 997 | 28.1 | 21.6 | ||
| 2013-09-10T23:31 | 332 | 977 | 105 | 10.0 | ||
| 2013-09-10T23:32 | 541 | 955 | 24.6 | 20.5 | ||
| 2013-09-10T23:32 | 643 | 944 | 106 | 11.0 | ||
| 2013-09-10T23:32 | 784 | 928 | 23.1 | 18.2 | ||
| 2013-09-10T23:33 | 979 | 908 | 23.0 | 12.6 | 115 | 12.0 |
| 2013-09-10T23:33 | 1136 | 892 | 22.5 | 8.2 | ||
| 2013-09-10T23:34 | 1273 | 878 | 109 | 13.0 | ||
| 2013-09-10T23:34 | 1342 | 871 | 108 | 13.0 | ||
| 2013-09-10T23:35 | 1676 | 837 | 17.8 | 11.8 | ||
| 2013-09-10T23:35 | 1700 | 835 | 105 | 11.0 | ||
| 2013-09-10T23:35 | 1816 | 824 | 17.3 | 10.4 | ||
| 2013-09-10T23:35 | 1858 | 820 | 17.7 | 7.7 | ||
| 2013-09-10T23:36 | 1911 | 815 | 17.9 | 3.4 | ||
| 2013-09-10T23:36 | 2029 | 804 | 16.9 | 2.5 | ||
| 2013-09-10T23:36 | 2040 | 803 | 16.8 | 6.3 | ||
| 2013-09-10T23:36 | 2052 | 802 | 117 | 10.0 | ||
| 2013-09-10T23:36 | 2091 | 798 | 16.6 | 3.0 | ||
| 2013-09-10T23:36 | 2152 | 792 | 16.1 | 6.2 | ||
| 2013-09-10T23:37 | 2258 | 782 | 15.7 | 7.5 | ||
| 2013-09-10T23:37 | 2393 | 770 | 111 | 9.0 | ||
| 2013-09-10T23:37 | 2495 | 761 | 14.3 | 5.6 | ||
| 2013-09-10T23:37 | 2548 | 756 | 14.1 | 6.0 | ||
| 2013-09-10T23:38 | 2639 | 748 | 13.5 | 4.6 | ||
| 2013-09-10T23:38 | 2776 | 736 | 12.4 | 5.1 | ||
| 2013-09-10T23:38 | 2783 | 735 | 116 | 10.0 | ||
| 2013-09-10T23:38 | 2848 | 730 | 12.1 | 2.3 | ||
| 2013-09-10T23:39 | 3083 | 709 | 10.3 | 2.4 | ||
| 2013-09-10T23:39 | 3155 | 703 | 124 | 9.0 | ||
| 2013-09-10T23:39 | 3167 | 702 | 9.7 | 3.9 | ||
| 2013-09-10T23:39 | 3191 | 700 | 9.7 | 3.9 | ||
| 2013-09-10T23:39 | 3238 | 696 | 9.5 | 4.3 | ||
| 2013-09-10T23:39 | 3316 | 690 | 9.3 | 1.2 | ||
| 2013-09-10T23:40 | 3501 | 675 | 8.4 | -1.7 | ||
| 2013-09-10T23:40 | 3528 | 672 | 113 | 10.0 | ||
| 2013-09-10T23:40 | 3541 | 671 | 8.2 | -3.6 | ||
| 2013-09-10T23:40 | 3562 | 670 | 8.1 | -4.4 | ||
| 2013-09-10T23:40 | 3596 | 667 | 7.8 | -2.2 | ||
| 2013-09-10T23:40 | 3649 | 663 | 7.4 | -3.8 | ||
| 2013-09-10T23:41 | 3761 | 654 | 6.8 | -2.4 | ||
| 2013-09-10T23:41 | 3798 | 651 | 6.7 | -6.3 | ||
| 2013-09-10T23:41 | 3829 | 648 | 6.5 | -3.7 | ||
| 2013-09-10T23:41 | 3909 | 642 | 107 | 10.0 | ||
| 2013-09-10T23:41 | 3925 | 641 | 5.8 | -3.3 | ||
| 2013-09-10T23:41 | 4014 | 634 | 5.3 | -5.1 | ||
| 2013-09-10T23:42 | 4122 | 625 | 4.5 | -4.0 | ||
| 2013-09-10T23:42 | 4139 | 624 | 4.4 | -5.7 | ||
| 2013-09-10T23:42 | 4150 | 623 | 4.4 | -9.0 | ||
| 2013-09-10T23:42 | 4190 | 620 | 4.3 | -9.1 | ||
| 2013-09-10T23:42 | 4247 | 616 | 111 | 10.0 | ||
| 2013-09-10T23:42 | 4276 | 614 | 3.8 | -9.6 | ||
| 2013-09-10T23:42 | 4412 | 603 | 3.1 | -7.4 | ||
| 2013-09-10T23:43 | 4452 | 600 | 2.9 | -10.7 | ||
| 2013-09-10T23:43 | 4515 | 596 | 2.5 | -8.8 | ||
| 2013-09-10T23:43 | 4577 | 591 | 2.2 | -10.3 | ||
| 2013-09-10T23:43 | 4588 | 590 | 116 | 11.0 | ||
| 2013-09-10T23:43 | 4660 | 585 | 1.9 | -11.3 | ||
| 2013-09-10T23:44 | 4754 | 578 | 1.4 | -13.5 | ||
| 2013-09-10T23:44 | 4776 | 577 | 1.3 | -12.9 | ||
| 2013-09-10T23:44 | 4830 | 573 | 0.9 | -15.2 | ||
| 2013-09-10T23:44 | 4919 | 567 | 114 | 11.0 | ||
| 2013-09-10T23:44 | 4948 | 565 | 0.2 | -19.0 | ||
| 2013-09-10T23:44 | 4988 | 562 | 0.0 | -24.4 | ||
| 2013-09-10T23:45 | 5091 | 555 | -0.9 | -24.3 | ||
| 2013-09-10T23:45 | 5193 | 548 | -1.6 | -27.4 | ||
| 2013-09-10T23:45 | 5263 | 543 | -2.2 | -25.4 | ||
| 2013-09-10T23:45 | 5275 | 542 | 115 | 13.0 | ||
| 2013-09-10T23:45 | 5301 | 540 | -2.6 | -22.0 | ||
| 2013-09-10T23:45 | 5419 | 532 | -3.6 | -21.3 | ||
| 2013-09-10T23:46 | 5491 | 527 | -4.2 | -22.8 | ||
| 2013-09-10T23:46 | 5529 | 525 | -4.4 | -25.8 | ||
| 2013-09-10T23:46 | 5656 | 517 | -5.2 | -23.1 | 130 | 11.0 |
| 2013-09-10T23:46 | 5673 | 515 | -5.3 | -18.4 | ||
| 2013-09-10T23:46 | 5729 | 512 | -5.5 | -20.4 | ||
| 2013-09-10T23:46 | 5740 | 511 | -5.5 | -14.3 | ||
| 2013-09-10T23:46 | 5767 | 509 | -5.6 | -18.0 | ||
| 2013-09-10T23:47 | 5846 | 504 | -6.0 | -20.4 | ||
| 2013-09-10T23:47 | 5872 | 503 | -6.2 | -21.4 | ||
| 2013-09-10T23:47 | 5949 | 498 | -6.8 | -17.3 | ||
| 2013-09-10T23:47 | 5960 | 497 | -6.9 | -18.0 | ||
| 2013-09-10T23:47 | 5975 | 496 | 121 | 11.0 | ||
| 2013-09-10T23:47 | 6008 | 494 | -7.1 | -19.3 | ||
| 2013-09-10T23:47 | 6046 | 491 | -7.4 | -26.0 | ||
| 2013-09-10T23:47 | 6086 | 489 | -7.6 | -26.2 | ||
| 2013-09-10T23:47 | 6120 | 487 | -7.8 | -27.5 | ||
| 2013-09-10T23:47 | 6137 | 486 | -7.9 | -19.8 | ||
| 2013-09-10T23:48 | 6159 | 484 | -7.9 | -24.1 | ||
| 2013-09-10T23:48 | 6182 | 483 | -8.0 | -25.5 | ||
| 2013-09-10T23:48 | 6205 | 481 | -8.0 | -25.5 | ||
| 2013-09-10T23:48 | 6222 | 480 | -8.1 | -18.2 | ||
| 2013-09-10T23:48 | 6250 | 479 | -8.2 | -22.7 | ||
| 2013-09-10T23:48 | 6279 | 477 | -8.3 | -18.9 | ||
| 2013-09-10T23:48 | 6312 | 475 | 115 | 8.0 | ||
| 2013-09-10T23:48 | 6352 | 472 | -8.7 | -21.1 | ||
| 2013-09-10T23:48 | 6409 | 469 | -8.9 | -20.4 | ||
| 2013-09-10T23:49 | 6520 | 462 | -9.0 | -41.9 | ||
| 2013-09-10T23:49 | 6661 | 454 | 124 | 5.0 | ||
| 2013-09-10T23:50 | 6858 | 442 | -10.9 | -40.1 | ||
| 2013-09-10T23:50 | 6901 | 440 | -11.2 | -34.2 | ||
| 2013-09-10T23:50 | 6939 | 438 | -11.4 | -28.4 | ||
| 2013-09-10T23:50 | 6984 | 435 | 136 | 4.0 | ||
| 2013-09-10T23:50 | 7044 | 432 | -12.1 | -30.5 | ||
| 2013-09-10T23:50 | 7126 | 427 | -12.6 | -29.9 | ||
| 2013-09-10T23:50 | 7151 | 426 | -12.7 | -37.1 | ||
| 2013-09-10T23:51 | 7200 | 423 | -13.0 | -33.0 | ||
| 2013-09-10T23:51 | 7244 | 421 | -13.3 | -28.8 | ||
| 2013-09-10T23:51 | 7318 | 416 | -13.4 | -28.1 | ||
| 2013-09-10T23:51 | 7354 | 415 | -13.6 | -23.3 | 98 | 4.0 |
| 2013-09-10T23:51 | 7419 | 411 | -13.9 | -21.2 | ||
| 2013-09-10T23:52 | 7711 | 395 | 95 | 3.0 | ||
| 2013-09-10T23:53 | 7996 | 381 | -18.5 | -22.8 | ||
| 2013-09-10T23:53 | 8054 | 378 | 41 | 1.0 | ||
| 2013-09-10T23:54 | 8267 | 367 | -20.1 | -24.6 | ||
| 2013-09-10T23:54 | 8419 | 360 | 255 | 2.0 | ||
| 2013-09-10T23:55 | 8789 | 342 | 297 | 5.0 | ||
| 2013-09-10T23:55 | 8951 | 334 | -25.1 | -29.0 | ||
| 2013-09-10T23:56 | 9156 | 325 | 264 | 5.0 | ||
| 2013-09-10T23:56 | 9175 | 324 | -26.6 | -31.7 | ||
| 2013-09-10T23:57 | 9508 | 309 | 242 | 6.0 | ||
| 2013-09-10T23:57 | 9534 | 308 | -29.8 | -34.1 | ||
| 2013-09-10T23:58 | 9792 | 297 | -32.3 | -35.1 | ||
| 2013-09-10T23:58 | 9857 | 295 | 232 | 8.0 | ||
| 2013-09-10T23:58 | 9965 | 290 | -33.6 | -36.1 | ||
| 2013-09-10T23:59 | 10245 | 279 | 244 | 7.0 | ||
| 2013-09-10T23:59 | 10306 | 276 | -36.1 | -39.1 | ||
| 2013-09-11T00:00 | 10556 | 266 | -37.9 | -44.0 | ||
| 2013-09-11T00:00 | 10621 | 264 | 286 | 7.0 | ||
| 2013-09-11T00:00 | 10815 | 257 | -40.0 | -44.8 | ||
| 2013-09-11T00:01 | 11021 | 249 | 280 | 9.0 | ||
| 2013-09-11T00:02 | 11413 | 235 | 266 | 13.0 | ||
| 2013-09-11T00:03 | 11796 | 222 | 265 | 18.0 | ||
| 2013-09-11T00:04 | 12200 | 208 | 263 | 20.0 | ||
| 2013-09-11T00:04 | 12263 | 206 | -52.3 | |||
| 2013-09-11T00:05 | 12413 | 202 | 262 | 23.0 | ||
| 2013-09-11T00:05 | 12627 | 195 | 261 | 21.0 | ||
| 2013-09-11T00:06 | 12855 | 188 | -56.9 | |||
| 2013-09-11T00:06 | 13061 | 182 | 267 | 20.0 | ||
| 2013-09-11T00:07 | 13526 | 169 | -63.2 | |||
| 2013-09-11T00:08 | 13912 | 159 | 299 | 18.0 | ||
| 2013-09-11T00:09 | 14182 | 152 | -68.6 | |||
| 2013-09-11T00:09 | 14298 | 149 | 307 | 11.0 | ||
| 2013-09-11T00:10 | 14589 | 142 | -70.7 | |||
| 2013-09-11T00:10 | 14689 | 139 | 303 | 9.0 | ||
| 2013-09-11T00:11 | 14959 | 133 | -72.2 | |||
| 2013-09-11T00:11 | 15087 | 130 | 338 | 8.0 | ||
| 2013-09-11T00:12 | 15450 | 122 | 7 | 10.0 | ||
| 2013-09-11T00:13 | 15826 | 115 | -74.4 | |||
| 2013-09-11T00:13 | 15882 | 114 | 22 | 10.0 | ||
| 2013-09-11T00:13 | 15997 | 111 | -74.0 | |||
| 2013-09-11T00:14 | 16386 | 104 | 49 | 9.0 | ||
| 2013-09-11T00:14 | 16485 | 102 | -75.8 | |||
| 2013-09-11T00:14 | 16618 | 100 | -75.4 | 50 | 9.0 | |
| 2013-09-11T00:15 | 16909 | 95 | 47 | 10.0 | ||
| 2013-09-11T00:15 | 17049 | 93 | -74.7 | |||
| 2013-09-11T00:15 | 17137 | 92 | -75.4 | |||
| 2013-09-11T00:16 | 17250 | 90 | -75.2 | |||
| 2013-09-11T00:16 | 17300 | 89 | -74.8 | 59 | 11.0 | |
| 2013-09-11T11:30 | 9 | 1014 | 27.2 | 23.7 | 110 | 10.0 |
| 2013-09-11T11:30 | 34 | 1012 | 27.5 | 20.6 | ||
| 2013-09-11T11:30 | 65 | 1008 | 27.8 | 21.6 | ||
| 2013-09-11T11:30 | 72 | 1007 | 27.8 | 20.4 | ||
| 2013-09-11T11:30 | 92 | 1005 | 27.8 | 23.0 | ||
| 2013-09-11T11:31 | 378 | 973 | 98 | 13.0 | ||
| 2013-09-11T11:32 | 544 | 955 | 93 | 14.0 | ||
| 2013-09-11T11:32 | 555 | 954 | 93 | 14.0 | ||
| 2013-09-11T11:32 | 713 | 937 | 94 | 13.0 | ||
| 2013-09-11T11:33 | 882 | 919 | 21.5 | 20.8 | ||
| 2013-09-11T11:33 | 1049 | 901 | 95 | 12.0 | ||
| 2013-09-11T11:34 | 1278 | 878 | 19.3 | 19.1 | ||
| 2013-09-11T11:34 | 1391 | 866 | 90 | 12.0 | ||
| 2013-09-11T11:34 | 1504 | 855 | 18.8 | 18.8 | ||
| 2013-09-11T11:35 | 1633 | 842 | 17.6 | 17.6 | ||
| 2013-09-11T11:35 | 1670 | 839 | 17.2 | 15.0 | ||
| 2013-09-11T11:35 | 1677 | 838 | 17.2 | 16.4 | ||
| 2013-09-11T11:35 | 1755 | 830 | 16.4 | 14.6 | ||
| 2013-09-11T11:35 | 1824 | 823 | 90 | 11.0 | ||
| 2013-09-11T11:35 | 1890 | 817 | 15.1 | 11.7 | ||
| 2013-09-11T11:35 | 1921 | 814 | 14.9 | 9.1 | ||
| 2013-09-11T11:36 | 2036 | 803 | 13.8 | 8.8 | ||
| 2013-09-11T11:36 | 2111 | 796 | 88 | 12.0 | ||
| 2013-09-11T11:36 | 2129 | 794 | 12.9 | 6.9 | ||
| 2013-09-11T11:36 | 2172 | 790 | 12.5 | 6.5 | ||
| 2013-09-11T11:36 | 2238 | 784 | 11.8 | 4.3 | ||
| 2013-09-11T11:37 | 2272 | 781 | 11.5 | 3.5 | ||
| 2013-09-11T11:37 | 2312 | 777 | 11.1 | 4.1 | ||
| 2013-09-11T11:37 | 2333 | 775 | 10.9 | 3.0 | ||
| 2013-09-11T11:37 | 2399 | 769 | 10.3 | 0.9 | ||
| 2013-09-11T11:37 | 2410 | 768 | 90 | 11.0 | ||
| 2013-09-11T11:37 | 2421 | 767 | 10.1 | 1.0 | ||
| 2013-09-11T11:37 | 2473 | 762 | 10.1 | 0.7 | ||
| 2013-09-11T11:37 | 2530 | 757 | 10.3 | 1.1 | ||
| 2013-09-11T11:37 | 2550 | 755 | 10.5 | 0.5 | ||
| 2013-09-11T11:37 | 2557 | 754 | 10.6 | 1.9 | ||
| 2013-09-11T11:37 | 2571 | 753 | 10.7 | 0.1 | ||
| 2013-09-11T11:38 | 2653 | 746 | 12.6 | 2.5 | ||
| 2013-09-11T11:38 | 2660 | 745 | 12.6 | 4.1 | ||
| 2013-09-11T11:38 | 2667 | 744 | 12.6 | 1.9 | ||
| 2013-09-11T11:38 | 2681 | 743 | 12.5 | 3.7 | ||
| 2013-09-11T11:38 | 2694 | 742 | 12.5 | 1.5 | ||
| 2013-09-11T11:38 | 2766 | 736 | 12.2 | 0.9 | ||
| 2013-09-11T11:38 | 2786 | 734 | 12.1 | 2.8 | ||
| 2013-09-11T11:38 | 2799 | 733 | 85 | 11.0 | ||
| 2013-09-11T11:38 | 2812 | 732 | 12.0 | 0.7 | ||
| 2013-09-11T11:38 | 2818 | 731 | 11.9 | 4.9 | ||
| 2013-09-11T11:38 | 2844 | 729 | 11.7 | 3.0 | ||
| 2013-09-11T11:38 | 2850 | 728 | 11.7 | 0.8 | ||
| 2013-09-11T11:38 | 2896 | 725 | 11.3 | 5.6 | ||
| 2013-09-11T11:38 | 2908 | 723 | 11.2 | 2.7 | ||
| 2013-09-11T11:38 | 2927 | 722 | 11.0 | 3.8 | ||
| 2013-09-11T11:38 | 2934 | 721 | 11.0 | 4.7 | ||
| 2013-09-11T11:38 | 2946 | 720 | 10.9 | 3.2 | ||
| 2013-09-11T11:38 | 2964 | 719 | 10.7 | 0.7 | ||
| 2013-09-11T11:38 | 2970 | 718 | 10.7 | 6.5 | ||
| 2013-09-11T11:39 | 2994 | 716 | 10.7 | 5.2 | ||
| 2013-09-11T11:39 | 3006 | 715 | 10.7 | 3.3 | ||
| 2013-09-11T11:39 | 3041 | 712 | 10.5 | 3.5 | ||
| 2013-09-11T11:39 | 3065 | 710 | 10.3 | 6.4 | ||
| 2013-09-11T11:39 | 3088 | 708 | 10.1 | 7.9 | ||
| 2013-09-11T11:39 | 3100 | 707 | 10.0 | 7.6 | ||
| 2013-09-11T11:39 | 3117 | 706 | 10.0 | 6.5 | ||
| 2013-09-11T11:39 | 3123 | 705 | 10.1 | 7.7 | ||
| 2013-09-11T11:39 | 3140 | 704 | 10.2 | -2.1 | ||
| 2013-09-11T11:39 | 3146 | 703 | 10.3 | 0.6 | ||
| 2013-09-11T11:39 | 3163 | 702 | 94 | 12.0 | ||
| 2013-09-11T11:39 | 3168 | 701 | 10.3 | -0.8 | ||
| 2013-09-11T11:39 | 3191 | 699 | 10.1 | -2.9 | ||
| 2013-09-11T11:39 | 3224 | 697 | 9.8 | 0.1 | ||
| 2013-09-11T11:39 | 3235 | 696 | 9.7 | -0.5 | ||
| 2013-09-11T11:39 | 3241 | 695 | 9.7 | -5.8 | ||
| 2013-09-11T11:39 | 3252 | 694 | 9.6 | 7.0 | ||
| 2013-09-11T11:39 | 3306 | 690 | 9.1 | 7.9 | ||
| 2013-09-11T11:39 | 3317 | 689 | 9.0 | 8.1 | ||
| 2013-09-11T11:40 | 3495 | 674 | 102 | 11.0 | ||
| 2013-09-11T11:40 | 3511 | 673 | 8.5 | 6.3 | ||
| 2013-09-11T11:40 | 3528 | 672 | 8.6 | 4.6 | ||
| 2013-09-11T11:40 | 3534 | 671 | 8.7 | 5.3 | ||
| 2013-09-11T11:40 | 3568 | 668 | 8.7 | 2.5 | ||
| 2013-09-11T11:40 | 3585 | 667 | 8.5 | 0.9 | ||
| 2013-09-11T11:40 | 3602 | 666 | 8.3 | 1.9 | ||
| 2013-09-11T11:40 | 3613 | 665 | 8.2 | 0.9 | ||
| 2013-09-11T11:40 | 3625 | 664 | 8.1 | 1.7 | ||
| 2013-09-11T11:40 | 3643 | 662 | 8.0 | -1.3 | ||
| 2013-09-11T11:41 | 3672 | 660 | 7.9 | -1.4 | ||
| 2013-09-11T11:41 | 3696 | 658 | 7.8 | -2.5 | ||
| 2013-09-11T11:41 | 3714 | 657 | 7.8 | -3.1 | ||
| 2013-09-11T11:41 | 3726 | 656 | 7.7 | -6.8 | ||
| 2013-09-11T11:41 | 3738 | 655 | 7.7 | -6.8 | ||
| 2013-09-11T11:41 | 3750 | 654 | 7.7 | -4.1 | ||
| 2013-09-11T11:41 | 3775 | 652 | 7.7 | -8.0 | ||
| 2013-09-11T11:41 | 3781 | 651 | 7.7 | -6.1 | ||
| 2013-09-11T11:41 | 3818 | 649 | 7.7 | -12.7 | ||
| 2013-09-11T11:41 | 3830 | 648 | 7.7 | -21.0 | ||
| 2013-09-11T11:41 | 3843 | 647 | 7.6 | -20.0 | ||
| 2013-09-11T11:41 | 3849 | 646 | 118 | 11.0 | ||
| 2013-09-11T11:41 | 3867 | 645 | 7.4 | -16.8 | ||
| 2013-09-11T11:41 | 3873 | 644 | 7.4 | -20.2 | ||
| 2013-09-11T11:41 | 3886 | 643 | 7.3 | -20.3 | ||
| 2013-09-11T11:41 | 3917 | 641 | 7.1 | -21.4 | ||
| 2013-09-11T11:41 | 3947 | 638 | 6.8 | -16.6 | ||
| 2013-09-11T11:41 | 3972 | 636 | 6.6 | -19.9 | ||
| 2013-09-11T11:41 | 4019 | 633 | 6.4 | -17.6 | ||
| 2013-09-11T11:41 | 4025 | 632 | 6.3 | -22.1 | ||
| 2013-09-11T11:42 | 4043 | 631 | 6.3 | -22.1 | ||
| 2013-09-11T11:42 | 4083 | 628 | 6.1 | -17.2 | ||
| 2013-09-11T11:42 | 4094 | 627 | 6.0 | -20.4 | ||
| 2013-09-11T11:42 | 4117 | 625 | 5.9 | -18.8 | ||
| 2013-09-11T11:42 | 4139 | 624 | 5.7 | -21.6 | ||
| 2013-09-11T11:42 | 4181 | 620 | 5.3 | -13.7 | ||
| 2013-09-11T11:42 | 4197 | 619 | 119 | 12.0 | ||
| 2013-09-11T11:42 | 4218 | 618 | 5.0 | -15.5 | ||
| 2013-09-11T11:42 | 4329 | 609 | 4.2 | -16.8 | ||
| 2013-09-11T11:43 | 4385 | 605 | 3.9 | -19.7 | ||
| 2013-09-11T11:43 | 4462 | 599 | 3.6 | -23.2 | ||
| 2013-09-11T11:43 | 4514 | 596 | 3.2 | -17.6 | ||
| 2013-09-11T11:43 | 4526 | 595 | 118 | 10.0 | ||
| 2013-09-11T11:43 | 4612 | 588 | 2.5 | -16.1 | ||
| 2013-09-11T11:44 | 4712 | 581 | 1.8 | -29.1 | ||
| 2013-09-11T11:44 | 4749 | 579 | 1.5 | -21.6 | ||
| 2013-09-11T11:44 | 4863 | 570 | 0.7 | -27.5 | ||
| 2013-09-11T11:44 | 4882 | 569 | 0.5 | -16.8 | ||
| 2013-09-11T11:44 | 4900 | 568 | 106 | 10.0 | ||
| 2013-09-11T11:44 | 4913 | 567 | 0.4 | -21.2 | ||
| 2013-09-11T11:45 | 5255 | 543 | 108 | 9.0 | ||
| 2013-09-11T11:46 | 5566 | 522 | -4.6 | -26.0 | ||
| 2013-09-11T11:46 | 5587 | 521 | 111 | 9.0 | ||
| 2013-09-11T11:47 | 5771 | 509 | -5.3 | -27.9 | ||
| 2013-09-11T11:47 | 5888 | 501 | 122 | 8.0 | ||
| 2013-09-11T11:47 | 5936 | 498 | -5.3 | -29.5 | ||
| 2013-09-11T11:47 | 5957 | 497 | -5.4 | -28.8 | ||
| 2013-09-11T11:48 | 6116 | 487 | -6.3 | -27.4 | ||
| 2013-09-11T11:48 | 6218 | 480 | 112 | 7.0 | ||
| 2013-09-11T11:49 | 6444 | 467 | -7.7 | -29.9 | ||
| 2013-09-11T11:49 | 6551 | 460 | -8.5 | -29.9 | ||
| 2013-09-11T11:49 | 6569 | 459 | 122 | 7.0 | ||
| 2013-09-11T11:49 | 6698 | 452 | -9.7 | -30.9 | ||
| 2013-09-11T11:50 | 6950 | 437 | 99 | 6.0 | ||
| 2013-09-11T11:50 | 6963 | 436 | -10.9 | -35.7 | ||
| 2013-09-11T11:51 | 7308 | 417 | 104 | 6.0 | ||
| 2013-09-11T11:51 | 7376 | 413 | -13.0 | -43.2 | ||
| 2013-09-11T11:51 | 7433 | 410 | -13.4 | -37.7 | ||
| 2013-09-11T11:52 | 7497 | 407 | -13.8 | -30.1 | ||
| 2013-09-11T11:52 | 7602 | 401 | -14.5 | -29.0 | ||
| 2013-09-11T11:52 | 7638 | 399 | -14.8 | -26.0 | ||
| 2013-09-11T11:52 | 7656 | 398 | 103 | 5.0 | ||
| 2013-09-11T11:52 | 7760 | 393 | -15.8 | -25.8 | ||
| 2013-09-11T11:53 | 7959 | 383 | -17.4 | -29.2 | ||
| 2013-09-11T11:53 | 8036 | 379 | 108 | 4.0 | ||
| 2013-09-11T11:53 | 8055 | 378 | -18.2 | -28.2 | ||
| 2013-09-11T11:53 | 8126 | 374 | -18.8 | -25.2 | ||
| 2013-09-11T11:53 | 8182 | 371 | -19.2 | -24.0 | ||
| 2013-09-11T11:54 | 8282 | 367 | -19.9 | -26.1 | ||
| 2013-09-11T11:54 | 8326 | 364 | -20.1 | -27.0 | ||
| 2013-09-11T11:54 | 8414 | 360 | 70 | 4.0 | ||
| 2013-09-11T11:54 | 8477 | 357 | -20.9 | -27.2 | ||
| 2013-09-11T11:55 | 8758 | 344 | -22.8 | -27.6 | ||
| 2013-09-11T11:55 | 8783 | 342 | 14 | 5.0 | ||
| 2013-09-11T11:56 | 9169 | 325 | 324 | 8.0 | ||
| 2013-09-11T11:57 | 9542 | 308 | 288 | 7.0 | ||
| 2013-09-11T11:57 | 9615 | 305 | -28.8 | -31.0 | ||
| 2013-09-11T11:58 | 9920 | 293 | 262 | 8.0 | ||
| 2013-09-11T11:59 | 10133 | 284 | -33.0 | -34.7 | ||
| 2013-09-11T11:59 | 10314 | 277 | 267 | 9.0 | ||
| 2013-09-11T12:00 | 10582 | 266 | -36.6 | -39.0 | ||
| 2013-09-11T12:00 | 10698 | 262 | 252 | 9.0 | ||
| 2013-09-11T12:00 | 10724 | 261 | -37.4 | -41.0 | ||
| 2013-09-11T12:01 | 11011 | 250 | -40.0 | -43.1 | ||
| 2013-09-11T12:01 | 11074 | 248 | 264 | 8.0 | ||
| 2013-09-11T12:02 | 11446 | 234 | 263 | 8.0 | ||
| 2013-09-11T12:03 | 11808 | 222 | 276 | 10.0 | ||
| 2013-09-11T12:04 | 12176 | 210 | 296 | 12.0 | ||
| 2013-09-11T12:05 | 12550 | 198 | 292 | 13.0 | ||
| 2013-09-11T12:06 | 12862 | 189 | -55.6 | |||
| 2013-09-11T12:06 | 12932 | 187 | 294 | 19.0 | ||
| 2013-09-11T12:07 | 13322 | 176 | 289 | 23.0 | ||
| 2013-09-11T12:08 | 13679 | 166 | 293 | 25.0 | ||
| 2013-09-11T12:08 | 13704 | 165 | 294 | 25.0 | ||
| 2013-09-11T12:09 | 14094 | 155 | 300 | 23.0 | ||
| 2013-09-11T12:10 | 14488 | 145 | 302 | 18.0 | ||
| 2013-09-11T12:11 | 14817 | 137 | -71.4 | |||
| 2013-09-11T12:11 | 14904 | 135 | 310 | 12.0 | ||
| 2013-09-11T12:12 | 15366 | 125 | 353 | 8.0 | ||
| 2013-09-11T12:13 | 15825 | 116 | 2 | 7.0 | ||
| 2013-09-11T12:13 | 16029 | 112 | -76.5 | |||
| 2013-09-11T12:14 | 16267 | 107 | -76.3 | 38 | 9.0 | |
| 2013-09-11T12:15 | 16580 | 101 | -77.5 | |||
| 2013-09-11T12:15 | 16655 | 100 | -78.1 | 48 | 12.0 | |
| 2013-09-11T12:15 | 16758 | 98 | 53 | 12.0 | ||
| 2013-09-11T12:15 | 16875 | 96 | -77.9 | |||
| 2013-09-11T12:16 | 17205 | 91 | -74.4 | |||
| 2013-09-11T12:16 | 17221 | 91 | 76 | 13.0 | ||
| 2013-09-11T12:17 | 17459 | 87 | -71.1 | |||
| 2013-09-11T12:17 | 17590 | 85 | -69.7 | |||
| 2013-09-11T12:17 | 17626 | 85 | -69.2 | 82 | 9.0 | |
| 2013-09-11T23:30 | 9 | 1015 | 28.8 | 26.0 | 120 | 8.0 |
| 2013-09-11T23:30 | 11 | 1014 | 28.3 | 23.0 | ||
| 2013-09-11T23:30 | 28 | 1012 | 27.9 | 22.8 | ||
| 2013-09-11T23:31 | 301 | 982 | 26.8 | 22.2 | ||
| 2013-09-11T23:31 | 408 | 970 | 111 | 11.0 | ||
| 2013-09-11T23:32 | 638 | 945 | 24.1 | 21.0 | ||
| 2013-09-11T23:32 | 727 | 936 | 113 | 13.0 | ||
| 2013-09-11T23:32 | 854 | 922 | 22.6 | 19.8 | ||
| 2013-09-11T23:33 | 988 | 908 | 121 | 14.0 | ||
| 2013-09-11T23:33 | 998 | 907 | 121 | 14.0 | ||
| 2013-09-11T23:33 | 1008 | 906 | 120 | 14.0 | ||
| 2013-09-11T23:33 | 1018 | 905 | 120 | 14.0 | ||
| 2013-09-11T23:33 | 1033 | 903 | 120 | 14.0 | ||
| 2013-09-11T23:33 | 1043 | 902 | 120 | 14.0 | ||
| 2013-09-11T23:33 | 1108 | 895 | 21.1 | 16.9 | ||
| 2013-09-11T23:33 | 1175 | 889 | 20.7 | 17.7 | ||
| 2013-09-11T23:34 | 1350 | 871 | 19.8 | 16.3 | ||
| 2013-09-11T23:34 | 1362 | 870 | 120 | 12.0 | ||
| 2013-09-11T23:35 | 1726 | 834 | 123 | 12.0 | ||
| 2013-09-11T23:35 | 1824 | 824 | 17.1 | 14.2 | ||
| 2013-09-11T23:36 | 2088 | 799 | 118 | 12.0 | ||
| 2013-09-11T23:36 | 2217 | 787 | 15.2 | 11.6 | ||
| 2013-09-11T23:37 | 2433 | 767 | 14.0 | 9.8 | ||
| 2013-09-11T23:37 | 2615 | 751 | 12.9 | 8.6 | ||
| 2013-09-11T23:38 | 2687 | 744 | 12.4 | 7.9 | ||
| 2013-09-11T23:38 | 2714 | 742 | 12.4 | 7.7 | ||
| 2013-09-11T23:38 | 2749 | 739 | 12.3 | 5.9 | ||
| 2013-09-11T23:38 | 2783 | 736 | 12.5 | 5.7 | ||
| 2013-09-11T23:38 | 2797 | 735 | 12.5 | 2.6 | ||
| 2013-09-11T23:38 | 2825 | 732 | 114 | 11.0 | ||
| 2013-09-11T23:38 | 2873 | 728 | 12.7 | -0.9 | ||
| 2013-09-11T23:38 | 3012 | 716 | 11.8 | -2.8 | ||
| 2013-09-11T23:39 | 3122 | 707 | 11.2 | -8.1 | ||
| 2013-09-11T23:39 | 3217 | 699 | 10.6 | -9.1 | ||
| 2013-09-11T23:39 | 3240 | 697 | 10.5 | -9.2 | ||
| 2013-09-11T23:39 | 3276 | 694 | 10.2 | -9.5 | ||
| 2013-09-11T23:39 | 3317 | 690 | 9.9 | -3.8 | ||
| 2013-09-11T23:39 | 3353 | 687 | 9.5 | -1.5 | ||
| 2013-09-11T23:40 | 3419 | 682 | 9.0 | -3.6 | ||
| 2013-09-11T23:40 | 3512 | 674 | 8.7 | -3.2 | ||
| 2013-09-11T23:40 | 3558 | 671 | 110 | 11.0 | ||
| 2013-09-11T23:40 | 3575 | 669 | 8.5 | -3.7 | ||
| 2013-09-11T23:40 | 3627 | 665 | 8.3 | -5.5 | ||
| 2013-09-11T23:40 | 3702 | 659 | 8.0 | -5.5 | ||
| 2013-09-11T23:41 | 3839 | 648 | 7.2 | -5.5 | ||
| 2013-09-11T23:41 | 3863 | 646 | 7.0 | -6.0 | ||
| 2013-09-11T23:41 | 3876 | 645 | 6.9 | -3.9 | ||
| 2013-09-11T23:41 | 3912 | 642 | 122 | 11.0 | ||
| 2013-09-11T23:41 | 4012 | 635 | 6.2 | -7.8 | ||
| 2013-09-11T23:42 | 4098 | 628 | 5.5 | -6.7 | ||
| 2013-09-11T23:42 | 4104 | 627 | 5.4 | -0.4 | ||
| 2013-09-11T23:42 | 4135 | 625 | 5.2 | 0.4 | ||
| 2013-09-11T23:42 | 4279 | 614 | 134 | 9.0 | ||
| 2013-09-11T23:42 | 4291 | 613 | 4.3 | -1.5 | ||
| 2013-09-11T23:42 | 4309 | 612 | 4.3 | -4.7 | ||
| 2013-09-11T23:42 | 4437 | 602 | 3.7 | -9.3 | ||
| 2013-09-11T23:43 | 4489 | 598 | 3.3 | -9.7 | ||
| 2013-09-11T23:43 | 4512 | 597 | 3.1 | -8.3 | ||
| 2013-09-11T23:43 | 4558 | 593 | 2.7 | -8.3 | ||
| 2013-09-11T23:43 | 4581 | 592 | 2.5 | -7.1 | ||
| 2013-09-11T23:43 | 4598 | 591 | 2.4 | -8.3 | ||
| 2013-09-11T23:43 | 4626 | 588 | 129 | 8.0 | ||
| 2013-09-11T23:43 | 4718 | 582 | 1.8 | -9.2 | ||
| 2013-09-11T23:43 | 4785 | 577 | 1.3 | -8.0 | ||
| 2013-09-11T23:44 | 4804 | 576 | 1.2 | -7.3 | ||
| 2013-09-11T23:44 | 4863 | 571 | 1.1 | -13.4 | ||
| 2013-09-11T23:44 | 4922 | 567 | 0.8 | -16.6 | ||
| 2013-09-11T23:44 | 4962 | 564 | 0.7 | -17.1 | ||
| 2013-09-11T23:44 | 5002 | 562 | 120 | 9.0 | ||
| 2013-09-11T23:44 | 5009 | 561 | 0.5 | -11.2 | ||
| 2013-09-11T23:44 | 5117 | 554 | -0.2 | -8.6 | ||
| 2013-09-11T23:44 | 5143 | 552 | -0.1 | -12.1 | ||
| 2013-09-11T23:44 | 5163 | 550 | -0.2 | -14.9 | ||
| 2013-09-11T23:45 | 5282 | 542 | -0.7 | -16.6 | ||
| 2013-09-11T23:45 | 5387 | 535 | 108 | 9.0 | ||
| 2013-09-11T23:45 | 5549 | 524 | -2.6 | -23.1 | ||
| 2013-09-11T23:46 | 5724 | 513 | -3.7 | -21.9 | ||
| 2013-09-11T23:46 | 5735 | 512 | 94 | 9.0 | ||
| 2013-09-11T23:46 | 5865 | 504 | -4.6 | -25.4 | ||
| 2013-09-11T23:47 | 6080 | 490 | 84 | 10.0 | ||
| 2013-09-11T23:48 | 6278 | 478 | -7.0 | -33.6 | ||
| 2013-09-11T23:48 | 6429 | 469 | 84 | 9.0 | ||
| 2013-09-11T23:49 | 6777 | 448 | 69 | 10.0 | ||
| 2013-09-11T23:49 | 6902 | 441 | -10.8 | -36.6 | ||
| 2013-09-11T23:50 | 6966 | 437 | -11.2 | -31.5 | ||
| 2013-09-11T23:50 | 7047 | 433 | -11.6 | -36.3 | ||
| 2013-09-11T23:50 | 7076 | 431 | -11.7 | -30.7 | ||
| 2013-09-11T23:50 | 7123 | 428 | 71 | 11.0 | ||
| 2013-09-11T23:50 | 7280 | 420 | -13.0 | -28.5 | ||
| 2013-09-11T23:51 | 7412 | 413 | -13.7 | -30.0 | ||
| 2013-09-11T23:51 | 7494 | 408 | 76 | 9.0 | ||
| 2013-09-11T23:52 | 7751 | 394 | -16.3 | -28.2 | ||
| 2013-09-11T23:52 | 7858 | 389 | 79 | 5.0 | ||
| 2013-09-11T23:53 | 8049 | 379 | -18.5 | -34.1 | ||
| 2013-09-11T23:53 | 8218 | 370 | 60 | 3.0 | ||
| 2013-09-11T23:53 | 8301 | 366 | -20.4 | -28.4 | ||
| 2013-09-11T23:54 | 8541 | 355 | -21.9 | -31.9 | ||
| 2013-09-11T23:54 | 8570 | 353 | 45 | 7.0 | ||
| 2013-09-11T23:54 | 8617 | 351 | -22.6 | -33.6 | ||
| 2013-09-11T23:55 | 8771 | 344 | -23.9 | -35.1 | ||
| 2013-09-11T23:55 | 8925 | 337 | 20 | 7.0 | ||
| 2013-09-11T23:55 | 9002 | 333 | -25.5 | -32.7 | ||
| 2013-09-11T23:56 | 9150 | 326 | -26.4 | -31.5 | ||
| 2013-09-11T23:56 | 9233 | 322 | -26.5 | -31.1 | ||
| 2013-09-11T23:56 | 9266 | 321 | 327 | 9.0 | ||
| 2013-09-11T23:56 | 9407 | 315 | -27.2 | -36.5 | ||
| 2013-09-11T23:57 | 9617 | 306 | 331 | 10.0 | ||
| 2013-09-11T23:57 | 9688 | 303 | -29.4 | -37.8 | ||
| 2013-09-11T23:58 | 10008 | 289 | 323 | 11.0 | ||
| 2013-09-11T23:59 | 10404 | 273 | 314 | 12.0 | ||
| 2013-09-11T23:59 | 10483 | 270 | -35.5 | -44.3 | ||
| 2013-09-12T00:00 | 10802 | 258 | 311 | 15.0 | ||
| 2013-09-12T00:00 | 10991 | 251 | -40.0 | -49.6 | ||
| 2013-09-12T00:01 | 11188 | 244 | 306 | 14.0 | ||
| 2013-09-12T00:02 | 11563 | 231 | 297 | 15.0 | ||
| 2013-09-12T00:03 | 11936 | 218 | 296 | 17.0 | ||
| 2013-09-12T00:04 | 12317 | 206 | 304 | 19.0 | ||
| 2013-09-12T00:05 | 12676 | 194 | 307 | 19.0 | ||
| 2013-09-12T00:05 | 12838 | 190 | -56.5 | |||
| 2013-09-12T00:06 | 13057 | 183 | 319 | 20.0 | ||
| 2013-09-12T00:06 | 13176 | 180 | 323 | 21.0 | ||
| 2013-09-12T00:07 | 13381 | 174 | -61.1 | |||
| 2013-09-12T00:07 | 13398 | 173 | 330 | 20.0 | ||
| 2013-09-12T00:08 | 13734 | 164 | 340 | 20.0 | ||
| 2013-09-12T00:09 | 13955 | 158 | -65.7 | |||
| 2013-09-12T00:09 | 14081 | 155 | 342 | 16.0 | ||
| 2013-09-12T00:10 | 14444 | 146 | 353 | 11.0 | ||
| 2013-09-12T00:11 | 14802 | 138 | 11 | 9.0 | ||
| 2013-09-12T00:12 | 15185 | 129 | 18 | 8.0 | ||
| 2013-09-12T00:13 | 15606 | 120 | 31 | 8.0 | ||
| 2013-09-12T00:13 | 15622 | 119 | -76.2 | |||
| 2013-09-12T00:14 | 16130 | 109 | 50 | 11.0 | ||
| 2013-09-12T00:14 | 16248 | 107 | -77.4 | |||
| 2013-09-12T00:15 | 16638 | 100 | -78.0 | 59 | 11.0 | |
| 2013-09-12T00:15 | 16677 | 99 | 61 | 12.0 | ||
| 2013-09-12T00:15 | 16773 | 98 | -76.7 | |||
| 2013-09-12T00:16 | 17214 | 91 | 78 | 15.0 | ||
| 2013-09-12T00:16 | 17347 | 89 | -75.0 | |||
| 2013-09-12T00:17 | 17494 | 86 | -74.6 | |||
| 2013-09-12T00:17 | 17647 | 84 | 68 | 13.0 | ||
| 2013-09-12T00:17 | 17671 | 84 | -73.1 | |||
| 2013-09-12T00:18 | 18007 | 79 | 102 | 12.0 | ||
| 2013-09-12T00:18 | 18019 | 79 | -70.6 | |||
| 2013-09-12T00:19 | 18202 | 77 | -70.4 | |||
| 2013-09-12T00:19 | 18359 | 75 | 80 | 6.0 | ||
| 2013-09-12T00:20 | 18605 | 72 | -68.9 | |||
| 2013-09-12T00:20 | 18713 | 70 | 81 | 10.0 | ||
| 2013-09-12T00:21 | 19080 | 66 | 83 | 8.0 | ||
| 2013-09-12T00:22 | 19450 | 62 | 69 | 12.0 | ||
| 2013-09-12T00:22 | 19561 | 61 | -68.8 | |||
| 2013-09-12T00:23 | 19827 | 58 | 77 | 12.0 | ||
| 2013-09-12T00:24 | 20215 | 55 | 90 | 13.0 | ||
| 2013-09-12T00:24 | 20228 | 55 | -68.2 | |||
| 2013-09-12T00:25 | 20451 | 53 | -66.8 | |||
| 2013-09-12T00:25 | 20595 | 51 | 87 | 14.0 | ||
| 2013-09-12T00:26 | 20966 | 48 | 96 | 16.0 | ||
| 2013-09-12T00:27 | 21316 | 46 | -64.8 | |||
| 2013-09-12T00:27 | 21348 | 45 | 76 | 18.0 | ||
| 2013-09-12T00:28 | 21740 | 43 | 85 | 21.0 | ||
| 2013-09-12T00:29 | 22064 | 40 | -62.5 | |||
| 2013-09-12T00:29 | 22128 | 40 | 89 | 21.0 | ||
| 2013-09-12T00:30 | 22523 | 37 | 91 | 21.0 | ||
| 2013-09-12T00:31 | 22907 | 35 | -60.3 | |||
| 2013-09-12T00:31 | 22927 | 35 | 97 | 22.0 | ||
| 2013-09-12T00:31 | 22967 | 35 | 98 | 23.0 | ||
| 2013-09-12T00:31 | 22994 | 35 | 99 | 23.0 | ||
| 2013-09-12T00:32 | 23286 | 33 | -55.4 | |||
| 2013-09-12T00:32 | 23317 | 33 | 107 | 18.0 | ||
| 2013-09-12T00:32 | 23362 | 33 | -55.4 | |||
| 2013-09-12T00:32 | 23432 | 32 | -55.2 | |||
| 2013-09-12T00:33 | 23599 | 32 | -54.0 | |||
| 2013-09-12T00:33 | 23705 | 31 | 98 | 17.0 | ||
| 2013-09-12T00:33 | 23845 | 30 | -53.8 | |||
| 2013-09-12T00:34 | 24112 | 29 | 103 | 12.0 | ||
| 2013-09-12T00:35 | 24538 | 27 | 90 | 15.0 | ||
| 2013-09-12T00:35 | 24648 | 27 | -54.6 | |||
| 2013-09-12T00:36 | 24861 | 26 | -54.2 | |||
| 2013-09-12T00:36 | 24942 | 26 | -54.2 | |||
| 2013-09-12T00:36 | 24979 | 25 | 86 | 20.0 | ||
| 2013-09-12T00:37 | 25197 | 25 | -54.5 | |||
| 2013-09-12T00:37 | 25408 | 24 | -53.0 | 103 | 19.0 | |
| 2013-09-12T00:38 | 25837 | 22 | 90 | 18.0 | ||
| 2013-09-12T00:39 | 26277 | 21 | 88 | 18.0 | ||
| 2013-09-12T00:39 | 26461 | 20 | -50.8 | |||
| 2013-09-12T00:40 | 26625 | 20 | -49.9 | |||
| 2013-09-12T00:40 | 26722 | 19 | 91 | 17.0 | ||
| 2013-09-12T00:41 | 27026 | 19 | -49.5 | |||
| 2013-09-12T00:41 | 27182 | 18 | 88 | 22.0 | ||
| 2013-09-12T00:41 | 27286 | 18 | 87 | 23.0 | ||
| 2013-09-12T00:42 | 27665 | 17 | 79 | 20.0 | ||
| 2013-09-12T00:42 | 27771 | 17 | -47.6 | |||
| 2013-09-12T00:43 | 28155 | 16 | 80 | 22.0 | ||
| 2013-09-12T00:43 | 28258 | 15 | 85 | 23.0 | ||
| 2013-09-12T00:43 | 28282 | 15 | 86 | 23.0 | ||
| 2013-09-12T00:44 | 28634 | 15 | 89 | 20.0 | ||
| 2013-09-12T00:44 | 28666 | 15 | -45.8 | |||
| 2013-09-12T00:44 | 28809 | 14 | -45.8 | |||
| 2013-09-12T00:45 | 29096 | 14 | 81 | 22.0 | ||
| 2013-09-12T00:45 | 29247 | 13 | -46.0 | |||
| 2013-09-12T00:46 | 29333 | 13 | -45.8 | |||
| 2013-09-12T00:46 | 29563 | 13 | 89 | 18.0 | ||
| 2013-09-12T00:46 | 29689 | 12 | -43.3 | |||
| 2013-09-12T00:47 | 30040 | 12 | 91 | 22.0 | ||
| 2013-09-12T00:48 | 30541 | 11 | 90 | 24.0 | ||
| 2013-09-12T00:48 | 30718 | 11 | -41.0 | |||
| 2013-09-12T00:49 | 30821 | 11 | -41.4 | |||
| 2013-09-12T00:49 | 30939 | 10 | -41.4 | |||
| 2013-09-12T00:49 | 31045 | 10 | 80 | 29.0 | ||
| 2013-09-12T00:49 | 31157 | 10 | 81 | 29.0 | ||
| 2013-09-12T00:49 | 31205 | 10 | -41.5 | 59 | 29.0 | |
| 2013-09-12T11:30 | 9 | 1014 | 28.5 | 24.9 | 120 | 9.0 |
| 2013-09-12T11:31 | 306 | 981 | 26.4 | 22.5 | ||
| 2013-09-12T11:31 | 359 | 975 | 111 | 10.0 | ||
| 2013-09-12T11:32 | 638 | 945 | 23.3 | 22.1 | ||
| 2013-09-12T11:32 | 649 | 944 | 23.3 | 21.0 | ||
| 2013-09-12T11:32 | 687 | 940 | 107 | 11.0 | ||
| 2013-09-12T11:32 | 692 | 939 | 23.8 | 17.1 | ||
| 2013-09-12T11:32 | 719 | 936 | 23.8 | 16.1 | ||
| 2013-09-12T11:32 | 778 | 930 | 23.3 | 15.6 | ||
| 2013-09-12T11:32 | 794 | 928 | 107 | 12.0 | ||
| 2013-09-12T11:32 | 805 | 927 | 106 | 12.0 | ||
| 2013-09-12T11:33 | 863 | 921 | 22.6 | 18.2 | ||
| 2013-09-12T11:33 | 889 | 918 | 22.4 | 16.9 | ||
| 2013-09-12T11:33 | 967 | 910 | 22.3 | 14.9 | ||
| 2013-09-12T11:33 | 1003 | 906 | 107 | 11.0 | ||
| 2013-09-12T11:33 | 1039 | 902 | 21.6 | 15.9 | ||
| 2013-09-12T11:33 | 1111 | 895 | 20.9 | 17.1 | ||
| 2013-09-12T11:34 | 1211 | 885 | 20.5 | 15.7 | ||
| 2013-09-12T11:34 | 1249 | 881 | 20.4 | 14.8 | ||
| 2013-09-12T11:34 | 1321 | 873 | 108 | 11.0 | ||
| 2013-09-12T11:34 | 1379 | 868 | 20.0 | 12.8 | ||
| 2013-09-12T11:34 | 1432 | 862 | 19.7 | 10.7 | ||
| 2013-09-12T11:35 | 1515 | 854 | 19.5 | 7.6 | ||
| 2013-09-12T11:35 | 1620 | 844 | 18.6 | 7.7 | 113 | 11.0 |
| 2013-09-12T11:35 | 1713 | 835 | 17.7 | 10.6 | ||
| 2013-09-12T11:36 | 1808 | 825 | 16.9 | 12.0 | ||
| 2013-09-12T11:36 | 1866 | 820 | 16.4 | 12.0 | ||
| 2013-09-12T11:36 | 1940 | 813 | 16.2 | 11.4 | ||
| 2013-09-12T11:36 | 1963 | 810 | 118 | 8.0 | ||
| 2013-09-12T11:36 | 1975 | 809 | 16.1 | 10.8 | ||
| 2013-09-12T11:36 | 2049 | 802 | 15.6 | 10.4 | ||
| 2013-09-12T11:36 | 2106 | 797 | 15.3 | 9.9 | ||
| 2013-09-12T11:37 | 2166 | 791 | 14.9 | 9.7 | ||
| 2013-09-12T11:37 | 2233 | 785 | 14.5 | 10.1 | ||
| 2013-09-12T11:37 | 2275 | 781 | 14.6 | 7.4 | ||
| 2013-09-12T11:37 | 2306 | 778 | 14.8 | 4.5 | ||
| 2013-09-12T11:37 | 2318 | 777 | 126 | 7.0 | ||
| 2013-09-12T11:37 | 2342 | 775 | 14.5 | 1.7 | ||
| 2013-09-12T11:37 | 2360 | 774 | 14.4 | 8.1 | ||
| 2013-09-12T11:37 | 2444 | 766 | 13.8 | 8.6 | ||
| 2013-09-12T11:37 | 2468 | 764 | 13.6 | 6.7 | ||
| 2013-09-12T11:38 | 2503 | 761 | 13.7 | 4.0 | ||
| 2013-09-12T11:38 | 2600 | 752 | 13.4 | 2.6 | ||
| 2013-09-12T11:38 | 2628 | 749 | 13.4 | -3.0 | ||
| 2013-09-12T11:38 | 2666 | 746 | 127 | 7.0 | ||
| 2013-09-12T11:38 | 2683 | 744 | 13.2 | 1.2 | ||
| 2013-09-12T11:38 | 2733 | 740 | 13.0 | 2.0 | ||
| 2013-09-12T11:38 | 2799 | 734 | 13.0 | -2.5 | ||
| 2013-09-12T11:39 | 2843 | 730 | 12.7 | -0.6 | ||
| 2013-09-12T11:39 | 2948 | 721 | 12.5 | -2.9 | ||
| 2013-09-12T11:39 | 2998 | 717 | 115 | 7.0 | ||
| 2013-09-12T11:39 | 3025 | 715 | 12.4 | -7.6 | ||
| 2013-09-12T11:39 | 3095 | 709 | 12.0 | -3.4 | ||
| 2013-09-12T11:39 | 3111 | 707 | 12.1 | -10.8 | ||
| 2013-09-12T11:40 | 3257 | 695 | 11.8 | -14.0 | ||
| 2013-09-12T11:40 | 3322 | 690 | 108 | 10.0 | ||
| 2013-09-12T11:40 | 3473 | 678 | 10.4 | -8.3 | ||
| 2013-09-12T11:41 | 3541 | 672 | 10.1 | -13.9 | ||
| 2013-09-12T11:41 | 3564 | 670 | 10.0 | -9.1 | ||
| 2013-09-12T11:41 | 3658 | 663 | 101 | 11.0 | ||
| 2013-09-12T11:41 | 3683 | 661 | 9.0 | -11.0 | ||
| 2013-09-12T11:41 | 3794 | 652 | 8.5 | -12.6 | ||
| 2013-09-12T11:41 | 3813 | 650 | 8.4 | -9.1 | ||
| 2013-09-12T11:42 | 4020 | 634 | 6.9 | -12.3 | 101 | 10.0 |
| 2013-09-12T11:43 | 4346 | 609 | 4.0 | -10.1 | ||
| 2013-09-12T11:43 | 4362 | 608 | 100 | 11.0 | ||
| 2013-09-12T11:44 | 4618 | 589 | 1.9 | -13.5 | ||
| 2013-09-12T11:44 | 4635 | 588 | 1.7 | -11.8 | ||
| 2013-09-12T11:44 | 4680 | 585 | 1.3 | -11.5 | ||
| 2013-09-12T11:44 | 4697 | 584 | 105 | 11.0 | ||
| 2013-09-12T11:44 | 4702 | 583 | 1.1 | -10.7 | ||
| 2013-09-12T11:44 | 4713 | 582 | 1.1 | -8.4 | ||
| 2013-09-12T11:44 | 4764 | 579 | 0.8 | -11.3 | ||
| 2013-09-12T11:44 | 4786 | 577 | 0.6 | -12.1 | ||
| 2013-09-12T11:44 | 4797 | 576 | 0.6 | -10.8 | ||
| 2013-09-12T11:45 | 4925 | 567 | -0.2 | -14.2 | ||
| 2013-09-12T11:45 | 5018 | 561 | -0.8 | -13.7 | ||
| 2013-09-12T11:45 | 5049 | 558 | 91 | 9.0 | ||
| 2013-09-12T11:45 | 5062 | 557 | -1.0 | -13.9 | ||
| 2013-09-12T11:45 | 5227 | 546 | -1.5 | -18.5 | ||
| 2013-09-12T11:46 | 5367 | 536 | -2.0 | -20.4 | ||
| 2013-09-12T11:46 | 5413 | 533 | 97 | 9.0 | ||
| 2013-09-12T11:46 | 5480 | 529 | -2.8 | -19.2 | ||
| 2013-09-12T11:47 | 5671 | 516 | -4.1 | -19.5 | ||
| 2013-09-12T11:47 | 5724 | 513 | -4.1 | -23.8 | ||
| 2013-09-12T11:47 | 5759 | 511 | 97 | 7.0 | ||
| 2013-09-12T11:47 | 5776 | 510 | -4.1 | -25.6 | ||
| 2013-09-12T11:48 | 5944 | 499 | -5.0 | -24.0 | ||
| 2013-09-12T11:48 | 6096 | 489 | 89 | 7.0 | ||
| 2013-09-12T11:48 | 6177 | 484 | -6.0 | -33.9 | ||
| 2013-09-12T11:49 | 6449 | 468 | 95 | 9.0 | ||
| 2013-09-12T11:49 | 6506 | 464 | -7.8 | -31.5 | ||
| 2013-09-12T11:50 | 6800 | 447 | 104 | 8.0 | ||
| 2013-09-12T11:50 | 6860 | 444 | -9.8 | -32.3 | ||
| 2013-09-12T11:51 | 7159 | 427 | 91 | 8.0 | ||
| 2013-09-12T11:51 | 7226 | 423 | -12.6 | -33.9 | ||
| 2013-09-12T11:52 | 7353 | 416 | -13.2 | -38.5 | ||
| 2013-09-12T11:52 | 7517 | 407 | -12.7 | -43.0 | 109 | 8.0 |
| 2013-09-12T11:53 | 7863 | 389 | 106 | 9.0 | ||
| 2013-09-12T11:54 | 8214 | 371 | 105 | 7.0 | ||
| 2013-09-12T11:54 | 8340 | 365 | -19.7 | -49.9 | ||
| 2013-09-12T11:55 | 8571 | 354 | 87 | 7.0 | ||
| 2013-09-12T11:56 | 8916 | 337 | 77 | 11.0 | ||
| 2013-09-12T11:56 | 8957 | 336 | -24.4 | -50.5 | ||
| 2013-09-12T11:57 | 9172 | 326 | -25.9 | -50.5 | ||
| 2013-09-12T11:57 | 9279 | 321 | 64 | 11.0 | ||
| 2013-09-12T11:58 | 9544 | 309 | -29.1 | -52.1 | ||
| 2013-09-12T11:58 | 9606 | 307 | 67 | 13.0 | ||
| 2013-09-12T11:58 | 9624 | 306 | 67 | 12.0 | ||
| 2013-09-12T11:59 | 9952 | 292 | -31.7 | -62.9 | ||
| 2013-09-12T11:59 | 9994 | 290 | 73 | 11.0 | ||
| 2013-09-12T12:00 | 10361 | 276 | 56 | 9.0 | ||
| 2013-09-12T12:01 | 10735 | 261 | 2 | 12.0 | ||
| 2013-09-12T12:02 | 11075 | 248 | -40.0 | -60.0 | ||
| 2013-09-12T12:02 | 11136 | 246 | 355 | 18.0 | ||
| 2013-09-12T12:03 | 11499 | 233 | 342 | 21.0 | ||
| 2013-09-12T12:04 | 11846 | 222 | 334 | 23.0 | ||
| 2013-09-12T12:05 | 12187 | 210 | 331 | 26.0 | ||
| 2013-09-12T12:06 | 12534 | 199 | 327 | 28.0 | ||
| 2013-09-12T12:07 | 12799 | 191 | -54.0 | |||
| 2013-09-12T12:07 | 12887 | 189 | 327 | 26.0 | ||
| 2013-09-12T12:08 | 13226 | 179 | 326 | 25.0 | ||
| 2013-09-12T12:09 | 13567 | 169 | 319 | 24.0 | ||
| 2013-09-12T12:10 | 13897 | 161 | 313 | 22.0 | ||
| 2013-09-12T12:10 | 13997 | 158 | -64.5 | |||
| 2013-09-12T12:11 | 14252 | 152 | -64.9 | 336 | 20.0 | |
| 2013-09-12T12:12 | 14529 | 145 | -67.4 | |||
| 2013-09-12T12:12 | 14635 | 142 | 347 | 14.0 | ||
| 2013-09-12T12:13 | 15053 | 133 | -71.1 | 8 | 10.0 | |
| 2013-09-12T12:14 | 15389 | 125 | -73.7 | |||
| 2013-09-12T12:14 | 15488 | 123 | 27 | 9.0 | ||
| 2013-09-12T12:15 | 15823 | 116 | -74.5 | |||
| 2013-09-12T12:15 | 15925 | 114 | 38 | 11.0 | ||
| 2013-09-12T12:15 | 16047 | 112 | -75.2 | |||
| 2013-09-12T12:16 | 16394 | 105 | 63 | 10.0 | ||
| 2013-09-12T12:16 | 16617 | 101 | -77.0 | |||
| 2013-09-12T12:17 | 16688 | 100 | -77.2 | 58 | 9.0 | |
| 2013-09-12T12:17 | 16926 | 96 | 58 | 10.0 | ||
| 2013-09-12T12:17 | 17089 | 93 | -77.4 | |||
| 2013-09-12T12:18 | 17415 | 88 | 73 | 10.0 | ||
| 2013-09-12T12:19 | 17860 | 82 | 66 | 10.0 | ||
| 2013-09-12T12:19 | 17938 | 81 | -73.1 | |||
| 2013-09-12T12:20 | 18305 | 76 | 60 | 13.0 | ||
| 2013-09-12T12:20 | 18486 | 73 | -70.7 | |||
| 2013-09-12T12:21 | 18681 | 71 | 77 | 11.0 | ||
| 2013-09-12T12:21 | 18719 | 71 | -69.5 | |||
| 2013-09-12T12:22 | 19061 | 67 | 81 | 12.0 | ||
| 2013-09-12T12:23 | 19421 | 63 | 78 | 15.0 | ||
| 2013-09-12T12:24 | 19644 | 61 | -64.9 | |||
| 2013-09-12T12:24 | 19774 | 59 | 87 | 14.0 | ||
| 2013-09-12T12:25 | 20144 | 56 | 69 | 14.0 | ||
| 2013-09-12T12:26 | 20338 | 54 | -65.4 | |||
| 2013-09-12T12:26 | 20524 | 52 | 72 | 14.0 | ||
| 2013-09-12T12:27 | 20924 | 49 | 83 | 16.0 | ||
| 2013-09-12T12:28 | 21276 | 46 | -62.2 | |||
| 2013-09-12T12:28 | 21307 | 46 | 90 | 18.0 | ||
| 2013-09-12T12:29 | 21673 | 44 | 112 | 15.0 | ||
| 2013-09-12T12:29 | 21704 | 43 | -61.3 | |||
| 2013-09-12T12:30 | 22057 | 41 | 109 | 13.0 | ||
| 2013-09-12T12:31 | 22463 | 38 | 99 | 16.0 | ||
| 2013-09-12T12:32 | 22830 | 36 | -59.4 | |||
| 2013-09-12T12:32 | 22894 | 36 | 103 | 17.0 | ||
| 2013-09-12T12:33 | 23161 | 34 | -57.4 | |||
| 2013-09-12T12:33 | 23312 | 33 | 108 | 15.0 | ||
| 2013-09-12T12:34 | 23722 | 31 | 84 | 14.0 | ||
| 2013-09-12T12:35 | 24070 | 30 | -56.9 | |||
| 2013-09-12T12:35 | 24140 | 29 | 74 | 17.0 | ||
| 2013-09-12T12:36 | 24565 | 27 | 81 | 20.0 | ||
| 2013-09-12T12:37 | 24964 | 26 | -55.1 | 95 | 22.0 | |
| 2013-09-12T12:38 | 25345 | 24 | 80 | 19.0 | ||
| 2013-09-12T12:39 | 25753 | 23 | 85 | 20.0 | ||
| 2013-09-12T12:40 | 26190 | 21 | 75 | 20.0 | ||
| 2013-09-12T12:41 | 26637 | 20 | 77 | 20.0 | ||
| 2013-09-12T12:41 | 26738 | 20 | -49.8 | |||
| 2013-09-12T12:42 | 27073 | 19 | 84 | 20.0 | ||
| 2013-09-12T12:42 | 27233 | 18 | -48.9 | |||
| 2013-09-12T12:43 | 27515 | 17 | 91 | 20.0 | ||
| 2013-09-12T12:44 | 27777 | 17 | -47.5 | |||
| 2013-09-12T12:44 | 27983 | 16 | 94 | 20.0 | ||
| 2013-09-12T12:45 | 28452 | 15 | 99 | 19.0 | ||
| 2013-09-12T12:46 | 28907 | 14 | 75 | 22.0 | ||
| 2013-09-12T12:47 | 29363 | 13 | 72 | 23.0 | ||
| 2013-09-12T12:48 | 29821 | 12 | 69 | 29.0 | ||
| 2013-09-12T12:48 | 29846 | 12 | -46.3 | 62 | 31.0 | |
| 2013-09-12T23:30 | 9 | 1014 | 30.7 | 25.1 | 110 | 9.0 |
| 2013-09-12T23:30 | 15 | 1013 | 29.3 | 21.8 | ||
| 2013-09-12T23:31 | 369 | 974 | 115 | 10.0 | ||
| 2013-09-12T23:31 | 418 | 968 | 25.7 | 22.0 | ||
| 2013-09-12T23:32 | 709 | 937 | 120 | 10.0 | ||
| 2013-09-12T23:32 | 743 | 933 | 119 | 11.0 | ||
| 2013-09-12T23:32 | 829 | 924 | 120 | 11.0 | ||
| 2013-09-12T23:32 | 841 | 923 | 119 | 11.0 | ||
| 2013-09-12T23:33 | 973 | 909 | 21.8 | 17.6 | ||
| 2013-09-12T23:34 | 1351 | 870 | 19.4 | 15.5 | ||
| 2013-09-12T23:34 | 1401 | 865 | 123 | 10.0 | ||
| 2013-09-12T23:34 | 1543 | 851 | 18.3 | 14.8 | ||
| 2013-09-12T23:35 | 1733 | 833 | 118 | 10.0 | ||
| 2013-09-12T23:36 | 1881 | 818 | 16.2 | 12.4 | ||
| 2013-09-12T23:36 | 1919 | 815 | 16.1 | 10.6 | ||
| 2013-09-12T23:36 | 1966 | 810 | 15.9 | 10.2 | ||
| 2013-09-12T23:36 | 1995 | 807 | 114 | 9.0 | ||
| 2013-09-12T23:37 | 2211 | 787 | 14.9 | 9.1 | ||
| 2013-09-12T23:37 | 2252 | 783 | 14.8 | 7.4 | ||
| 2013-09-12T23:37 | 2286 | 780 | 14.7 | 8.0 | ||
| 2013-09-12T23:37 | 2383 | 771 | 115 | 8.0 | ||
| 2013-09-12T23:37 | 2425 | 767 | 14.2 | 7.3 | ||
| 2013-09-12T23:37 | 2453 | 765 | 14.0 | 6.1 | ||
| 2013-09-12T23:37 | 2536 | 757 | 13.7 | 5.3 | ||
| 2013-09-12T23:37 | 2585 | 753 | 13.5 | 3.6 | ||
| 2013-09-12T23:38 | 2606 | 751 | 13.4 | 4.8 | ||
| 2013-09-12T23:38 | 2744 | 739 | 12.5 | 4.5 | ||
| 2013-09-12T23:38 | 2799 | 734 | 120 | 7.0 | ||
| 2013-09-12T23:38 | 2854 | 729 | 11.9 | 4.1 | ||
| 2013-09-12T23:38 | 2936 | 722 | 11.6 | 3.4 | ||
| 2013-09-12T23:38 | 2996 | 717 | 11.4 | 1.6 | ||
| 2013-09-12T23:39 | 3159 | 703 | 10.3 | 1.9 | ||
| 2013-09-12T23:39 | 3293 | 692 | 9.7 | -0.8 | ||
| 2013-09-12T23:39 | 3359 | 686 | 9.6 | -4.7 | ||
| 2013-09-12T23:40 | 3405 | 682 | 9.2 | -0.1 | ||
| 2013-09-12T23:40 | 3451 | 679 | 9.1 | -2.8 | ||
| 2013-09-12T23:40 | 3525 | 673 | 8.9 | -3.0 | ||
| 2013-09-12T23:40 | 3548 | 671 | 8.8 | -2.5 | 133 | 7.0 |
| 2013-09-12T23:40 | 3588 | 667 | 8.7 | -5.5 | ||
| 2013-09-12T23:40 | 3657 | 662 | 8.3 | -5.9 | ||
| 2013-09-12T23:40 | 3674 | 660 | 8.3 | -5.5 | ||
| 2013-09-12T23:40 | 3686 | 659 | 8.2 | -7.9 | ||
| 2013-09-12T23:41 | 3780 | 652 | 7.8 | -12.1 | ||
| 2013-09-12T23:41 | 3884 | 644 | 6.8 | -6.9 | ||
| 2013-09-12T23:41 | 3902 | 642 | 118 | 6.0 | ||
| 2013-09-12T23:41 | 3951 | 639 | 6.6 | -12.6 | ||
| 2013-09-12T23:41 | 4057 | 630 | 5.9 | -11.2 | ||
| 2013-09-12T23:42 | 4132 | 625 | 5.5 | -15.1 | ||
| 2013-09-12T23:42 | 4281 | 613 | 115 | 7.0 | ||
| 2013-09-12T23:42 | 4446 | 601 | 2.9 | -17.9 | ||
| 2013-09-12T23:43 | 4505 | 597 | 3.0 | -20.4 | ||
| 2013-09-12T23:43 | 4524 | 595 | 3.0 | -19.0 | ||
| 2013-09-12T23:43 | 4612 | 589 | 2.6 | -23.1 | ||
| 2013-09-12T23:43 | 4667 | 585 | 101 | 8.0 | ||
| 2013-09-12T23:43 | 4703 | 582 | 2.3 | -26.3 | ||
| 2013-09-12T23:43 | 4774 | 577 | 2.0 | -25.5 | ||
| 2013-09-12T23:44 | 4928 | 566 | 1.6 | -26.8 | ||
| 2013-09-12T23:44 | 4989 | 562 | 1.4 | -34.3 | ||
| 2013-09-12T23:44 | 5007 | 561 | 1.3 | -26.0 | ||
| 2013-09-12T23:44 | 5026 | 559 | 100 | 10.0 | ||
| 2013-09-12T23:44 | 5114 | 553 | 1.0 | -29.7 | ||
| 2013-09-12T23:44 | 5190 | 548 | 0.5 | -24.8 | ||
| 2013-09-12T23:45 | 5303 | 540 | -0.2 | -44.3 | ||
| 2013-09-12T23:45 | 5400 | 534 | 95 | 9.0 | ||
| 2013-09-12T23:46 | 5621 | 519 | -2.0 | -32.0 | ||
| 2013-09-12T23:46 | 5645 | 517 | -2.1 | -24.6 | ||
| 2013-09-12T23:46 | 5687 | 515 | -2.3 | -35.2 | ||
| 2013-09-12T23:46 | 5706 | 513 | -2.4 | -27.1 | ||
| 2013-09-12T23:46 | 5760 | 510 | 100 | 9.0 | ||
| 2013-09-12T23:46 | 5833 | 505 | -3.4 | -22.1 | ||
| 2013-09-12T23:47 | 6022 | 493 | -4.8 | -24.4 | ||
| 2013-09-12T23:47 | 6138 | 486 | 100 | 11.0 | ||
| 2013-09-12T23:48 | 6365 | 472 | -7.0 | -25.2 | ||
| 2013-09-12T23:48 | 6523 | 463 | -7.6 | -30.6 | ||
| 2013-09-12T23:48 | 6530 | 462 | 93 | 12.0 | ||
| 2013-09-12T23:49 | 6935 | 439 | -10.3 | -37.2 | 94 | 13.0 |
| 2013-09-12T23:49 | 7086 | 430 | -11.0 | -40.2 | ||
| 2013-09-12T23:50 | 7278 | 419 | -12.5 | -37.0 | ||
| 2013-09-12T23:50 | 7314 | 417 | 85 | 10.0 | ||
| 2013-09-12T23:51 | 7679 | 398 | 88 | 13.0 | ||
| 2013-09-12T23:51 | 7721 | 395 | -16.1 | -45.5 | ||
| 2013-09-12T23:51 | 7791 | 392 | 93 | 14.0 | ||
| 2013-09-12T23:52 | 7897 | 386 | -16.9 | -47.8 | ||
| 2013-09-12T23:52 | 8033 | 379 | 99 | 12.0 | ||
| 2013-09-12T23:53 | 8387 | 362 | 92 | 10.0 | ||
| 2013-09-12T23:53 | 8464 | 358 | -21.6 | -45.2 | ||
| 2013-09-12T23:54 | 8692 | 347 | -22.9 | -43.8 | ||
| 2013-09-12T23:54 | 8745 | 344 | 77 | 12.0 | ||
| 2013-09-12T23:54 | 8902 | 337 | -24.2 | -51.7 | ||
| 2013-09-12T23:55 | 9119 | 327 | 75 | 11.0 | ||
| 2013-09-12T23:55 | 9225 | 322 | -26.6 | -56.9 | ||
| 2013-09-12T23:56 | 9485 | 311 | 86 | 10.0 | ||
| 2013-09-12T23:57 | 9887 | 294 | 80 | 7.0 | ||
| 2013-09-12T23:57 | 9901 | 293 | -32.5 | -63.5 | ||
| 2013-09-12T23:58 | 10361 | 275 | 69 | 8.0 | ||
| 2013-09-12T23:59 | 10703 | 261 | -38.5 | -65.8 | ||
| 2013-09-12T23:59 | 10884 | 255 | -40.0 | -65.3 | ||
| 2013-09-12T23:59 | 10901 | 254 | 18 | 9.0 | ||
| 2013-09-13T00:00 | 11238 | 242 | -42.9 | |||
| 2013-09-13T00:00 | 11367 | 237 | 1 | 17.0 | ||
| 2013-09-13T00:00 | 11542 | 231 | -44.7 | |||
| 2013-09-13T00:01 | 11816 | 222 | 354 | 23.0 | ||
| 2013-09-13T00:02 | 11999 | 215 | 352 | 24.0 | ||
| 2013-09-13T00:02 | 12057 | 214 | 352 | 24.0 | ||
| 2013-09-13T00:02 | 12067 | 213 | 352 | 24.0 | ||
| 2013-09-13T00:02 | 12099 | 212 | 352 | 24.0 | ||
| 2013-09-13T00:02 | 12153 | 211 | 351 | 23.0 | ||
| 2013-09-13T00:03 | 12527 | 199 | 340 | 23.0 | ||
| 2013-09-13T00:04 | 12916 | 187 | 343 | 24.0 | ||
| 2013-09-13T00:05 | 13480 | 171 | -61.6 | |||
| 2013-09-13T00:06 | 13722 | 164 | 334 | 21.0 | ||
| 2013-09-13T00:07 | 13959 | 158 | -64.6 | |||
| 2013-09-13T00:07 | 14122 | 154 | 334 | 16.0 | ||
| 2013-09-13T00:08 | 14499 | 145 | 341 | 13.0 | ||
| 2013-09-13T00:09 | 14740 | 139 | -69.5 | |||
| 2013-09-13T00:09 | 14843 | 136 | 331 | 17.0 | ||
| 2013-09-13T00:10 | 15223 | 128 | 341 | 15.0 | ||
| 2013-09-13T00:11 | 15562 | 121 | -74.9 | |||
| 2013-09-13T00:11 | 15663 | 119 | 14 | 14.0 | ||
| 2013-09-13T00:12 | 15974 | 112 | -76.2 | |||
| 2013-09-13T00:12 | 16100 | 110 | 33 | 16.0 | ||
| 2013-09-13T00:13 | 16485 | 103 | -78.1 | |||
| 2013-09-13T00:13 | 16567 | 101 | 52 | 16.0 | ||
| 2013-09-13T00:13 | 16643 | 100 | -78.5 | 56 | 16.0 | |
| 2013-09-13T00:14 | 17074 | 93 | 64 | 17.0 | ||
| 2013-09-13T00:14 | 17219 | 90 | -80.1 | |||
| 2013-09-13T00:14 | 17227 | 90 | -80.0 | |||
| 2013-09-13T00:15 | 17568 | 85 | 68 | 15.0 | ||
| 2013-09-13T00:16 | 17847 | 81 | -74.7 | |||
| 2013-09-13T00:16 | 17912 | 80 | -74.0 | |||
| 2013-09-13T00:16 | 17997 | 79 | -72.7 | |||
| 2013-09-13T00:16 | 18056 | 78 | 77 | 12.0 | ||
| 2013-09-13T00:16 | 18259 | 76 | -70.1 | |||
| 2013-09-13T00:17 | 18409 | 74 | -69.3 | |||
| 2013-09-13T00:17 | 18470 | 73 | 82 | 13.0 | ||
| 2013-09-13T00:18 | 18822 | 69 | -67.8 | |||
| 2013-09-13T00:18 | 18846 | 68 | 88 | 13.0 | ||
| 2013-09-13T00:19 | 19222 | 64 | 106 | 11.0 | ||
| 2013-09-13T00:19 | 19264 | 64 | -66.6 | |||
| 2013-09-13T00:20 | 19598 | 60 | 104 | 11.0 | ||
| 2013-09-13T00:20 | 19797 | 59 | -66.2 | |||
| 2013-09-13T00:21 | 20010 | 56 | 102 | 7.0 | ||
| 2013-09-13T00:22 | 20420 | 53 | 105 | 9.0 | ||
| 2013-09-13T00:22 | 20434 | 53 | -68.6 | |||
| 2013-09-13T00:23 | 20807 | 49 | 101 | 11.0 | ||
| 2013-09-13T00:24 | 21085 | 47 | -67.6 | |||
| 2013-09-13T00:24 | 21208 | 46 | 84 | 14.0 | ||
| 2013-09-13T00:25 | 21610 | 43 | 67 | 15.0 | ||
| 2013-09-13T00:26 | 21997 | 41 | 76 | 19.0 | ||
| 2013-09-13T00:27 | 22393 | 38 | 86 | 16.0 | ||
| 2013-09-13T00:27 | 22512 | 37 | -59.0 | |||
| 2013-09-13T00:28 | 22794 | 36 | 80 | 18.0 | ||
| 2013-09-13T00:29 | 23073 | 34 | -57.4 | |||
| 2013-09-13T00:29 | 23214 | 33 | 78 | 18.0 | ||
| 2013-09-13T00:30 | 23629 | 31 | 102 | 17.0 | ||
| 2013-09-13T00:31 | 23866 | 30 | -54.8 | |||
| 2013-09-13T00:31 | 24035 | 29 | 117 | 16.0 | ||
| 2013-09-13T00:32 | 24454 | 28 | 92 | 12.0 | ||
| 2013-09-13T00:32 | 24595 | 27 | -54.0 | |||
| 2013-09-13T00:33 | 24880 | 26 | 83 | 9.0 | ||
| 2013-09-13T00:33 | 25016 | 25 | -55.5 | |||
| 2013-09-13T00:34 | 25315 | 24 | 88 | 17.0 | ||
| 2013-09-13T00:35 | 25771 | 23 | 92 | 16.0 | ||
| 2013-09-13T00:36 | 26226 | 21 | 88 | 16.0 | ||
| 2013-09-13T00:36 | 26430 | 20 | -54.0 | |||
| 2013-09-13T00:37 | 26652 | 20 | 89 | 22.0 | ||
| 2013-09-13T00:38 | 27064 | 18 | 89 | 22.0 | ||
| 2013-09-13T00:38 | 27216 | 18 | -48.7 | |||
| 2013-09-13T00:39 | 27537 | 17 | 92 | 20.0 | ||
| 2013-09-13T00:40 | 27875 | 16 | -47.7 | |||
| 2013-09-13T00:40 | 28021 | 16 | 94 | 20.0 | ||
| 2013-09-13T00:40 | 28145 | 16 | -46.0 | |||
| 2013-09-13T00:41 | 28418 | 15 | -44.7 | |||
| 2013-09-13T00:41 | 28455 | 15 | 92 | 19.0 | ||
| 2013-09-13T00:41 | 28565 | 15 | -43.7 | |||
| 2013-09-13T00:41 | 28657 | 14 | -43.1 | |||
| 2013-09-13T00:42 | 28772 | 14 | -43.0 | |||
| 2013-09-13T00:42 | 28800 | 14 | -43.1 | |||
| 2013-09-13T00:42 | 28835 | 14 | -43.2 | |||
| 2013-09-13T00:42 | 28884 | 14 | 98 | 19.0 | ||
| 2013-09-13T00:42 | 29055 | 14 | -43.3 | |||
| 2013-09-13T00:43 | 29165 | 13 | -43.4 | |||
| 2013-09-13T00:43 | 29279 | 13 | -43.2 | |||
| 2013-09-13T00:43 | 29352 | 13 | -43.3 | 107 | 17.0 | |
| 2013-09-13T00:44 | 29839 | 12 | -43.7 | |||
| 2013-09-13T00:44 | 29856 | 12 | 122 | 12.0 | ||
| 2013-09-13T00:44 | 29917 | 12 | -43.8 | |||
| 2013-09-13T00:44 | 30045 | 12 | -43.7 | |||
| 2013-09-13T00:45 | 30245 | 11 | -43.9 | |||
| 2013-09-13T00:45 | 30346 | 11 | 102 | 19.0 | ||
| 2013-09-13T00:45 | 30385 | 11 | -43.5 | |||
| 2013-09-13T00:46 | 30786 | 11 | -43.7 | |||
| 2013-09-13T00:46 | 30801 | 10 | 102 | 21.0 | ||
| 2013-09-13T00:46 | 30921 | 10 | -43.7 | |||
| 2013-09-13T00:46 | 31002 | 10 | -43.4 | 95 | 19.0 | |
| 2013-09-13T11:30 | 9 | 1014 | 28.7 | 25.5 | 90 | 6.0 |
| 2013-09-13T11:31 | 292 | 982 | 26.7 | 23.6 | ||
| 2013-09-13T11:31 | 411 | 969 | 103 | 8.0 | ||
| 2013-09-13T11:32 | 744 | 933 | 106 | 8.0 | ||
| 2013-09-13T11:32 | 800 | 927 | 22.6 | 20.9 | ||
| 2013-09-13T11:33 | 1080 | 898 | 108 | 9.0 | ||
| 2013-09-13T11:33 | 1112 | 895 | 21.6 | 16.6 | ||
| 2013-09-13T11:34 | 1377 | 868 | 19.8 | 15.0 | ||
| 2013-09-13T11:34 | 1419 | 864 | 107 | 10.0 | ||
| 2013-09-13T11:34 | 1443 | 861 | 19.3 | 15.8 | ||
| 2013-09-13T11:34 | 1563 | 849 | 18.7 | 14.6 | ||
| 2013-09-13T11:34 | 1587 | 847 | 18.6 | 13.2 | ||
| 2013-09-13T11:35 | 1623 | 843 | 18.4 | 13.7 | ||
| 2013-09-13T11:35 | 1640 | 842 | 18.3 | 13.2 | ||
| 2013-09-13T11:35 | 1753 | 831 | 17.5 | 11.8 | ||
| 2013-09-13T11:35 | 1777 | 828 | 104 | 11.0 | ||
| 2013-09-13T11:35 | 1948 | 812 | 16.0 | 12.7 | ||
| 2013-09-13T11:36 | 1972 | 810 | 15.8 | 13.6 | ||
| 2013-09-13T11:36 | 2009 | 806 | 15.6 | 11.8 | ||
| 2013-09-13T11:36 | 2046 | 803 | 15.4 | 13.2 | ||
| 2013-09-13T11:36 | 2096 | 798 | 15.1 | 12.1 | ||
| 2013-09-13T11:36 | 2146 | 793 | 99 | 10.0 | ||
| 2013-09-13T11:36 | 2165 | 791 | 14.9 | 11.3 | ||
| 2013-09-13T11:36 | 2246 | 784 | 14.6 | 13.6 | ||
| 2013-09-13T11:36 | 2258 | 783 | 14.7 | 13.6 | ||
| 2013-09-13T11:36 | 2264 | 782 | 14.7 | 9.1 | ||
| 2013-09-13T11:36 | 2283 | 781 | 14.8 | 7.4 | ||
| 2013-09-13T11:36 | 2307 | 778 | 14.9 | 8.4 | ||
| 2013-09-13T11:37 | 2332 | 776 | 14.7 | 6.5 | ||
| 2013-09-13T11:37 | 2350 | 774 | 14.6 | 8.8 | ||
| 2013-09-13T11:37 | 2369 | 773 | 14.5 | 6.6 | ||
| 2013-09-13T11:37 | 2399 | 770 | 14.6 | 7.9 | ||
| 2013-09-13T11:37 | 2405 | 769 | 14.6 | 4.0 | ||
| 2013-09-13T11:37 | 2448 | 765 | 14.5 | 4.2 | ||
| 2013-09-13T11:37 | 2514 | 759 | 94 | 11.0 | ||
| 2013-09-13T11:37 | 2561 | 755 | 13.7 | 5.6 | ||
| 2013-09-13T11:37 | 2579 | 754 | 95 | 11.0 | ||
| 2013-09-13T11:37 | 2585 | 753 | 96 | 11.0 | ||
| 2013-09-13T11:37 | 2597 | 752 | 13.6 | 5.2 | ||
| 2013-09-13T11:38 | 2720 | 741 | 13.1 | 2.9 | ||
| 2013-09-13T11:38 | 2850 | 730 | 12.5 | 2.6 | ||
| 2013-09-13T11:38 | 2862 | 729 | 93 | 11.0 | ||
| 2013-09-13T11:38 | 2917 | 724 | 12.4 | -0.8 | ||
| 2013-09-13T11:38 | 3020 | 715 | 12.3 | -2.7 | ||
| 2013-09-13T11:39 | 3055 | 712 | 12.4 | -4.7 | ||
| 2013-09-13T11:39 | 3107 | 708 | 12.2 | -4.0 | ||
| 2013-09-13T11:39 | 3206 | 699 | 100 | 9.0 | ||
| 2013-09-13T11:39 | 3249 | 696 | 11.6 | -5.8 | ||
| 2013-09-13T11:40 | 3562 | 670 | 109 | 7.0 | ||
| 2013-09-13T11:40 | 3717 | 658 | 8.5 | -9.9 | ||
| 2013-09-13T11:41 | 3884 | 644 | 7.7 | -15.2 | ||
| 2013-09-13T11:41 | 3908 | 643 | 99 | 7.0 | ||
| 2013-09-13T11:41 | 4063 | 631 | 6.6 | -19.0 | ||
| 2013-09-13T11:42 | 4180 | 622 | 5.6 | -13.4 | ||
| 2013-09-13T11:42 | 4186 | 621 | 5.5 | -9.1 | ||
| 2013-09-13T11:42 | 4261 | 615 | 5.1 | -11.5 | ||
| 2013-09-13T11:42 | 4273 | 614 | 105 | 7.0 | ||
| 2013-09-13T11:42 | 4318 | 611 | 5.0 | -11.6 | ||
| 2013-09-13T11:43 | 4483 | 599 | 4.3 | -12.2 | ||
| 2013-09-13T11:43 | 4667 | 585 | 114 | 7.0 | ||
| 2013-09-13T11:43 | 4733 | 581 | 2.6 | -16.0 | ||
| 2013-09-13T11:43 | 4804 | 576 | 2.1 | -15.4 | ||
| 2013-09-13T11:43 | 4855 | 572 | 1.7 | -17.2 | ||
| 2013-09-13T11:44 | 4899 | 569 | 1.4 | -16.5 | ||
| 2013-09-13T11:44 | 4996 | 562 | 1.0 | -20.1 | ||
| 2013-09-13T11:44 | 5054 | 558 | 108 | 8.0 | ||
| 2013-09-13T11:44 | 5113 | 554 | 0.4 | -18.9 | ||
| 2013-09-13T11:44 | 5144 | 552 | 0.4 | -21.9 | ||
| 2013-09-13T11:44 | 5157 | 551 | 0.4 | -18.4 | ||
| 2013-09-13T11:44 | 5176 | 550 | 0.4 | -24.1 | ||
| 2013-09-13T11:44 | 5220 | 546 | 0.5 | -31.5 | ||
| 2013-09-13T11:45 | 5246 | 545 | 0.4 | -20.6 | ||
| 2013-09-13T11:45 | 5420 | 533 | -1.2 | -14.7 | ||
| 2013-09-13T11:45 | 5432 | 532 | 100 | 10.0 | ||
| 2013-09-13T11:45 | 5444 | 531 | -1.3 | -13.5 | ||
| 2013-09-13T11:45 | 5468 | 530 | -1.4 | -16.0 | ||
| 2013-09-13T11:45 | 5486 | 528 | -1.5 | -14.0 | ||
| 2013-09-13T11:45 | 5601 | 521 | -1.4 | -19.9 | ||
| 2013-09-13T11:46 | 5770 | 510 | -2.3 | -20.2 | ||
| 2013-09-13T11:46 | 5787 | 509 | 106 | 9.0 | ||
| 2013-09-13T11:47 | 6133 | 487 | 108 | 11.0 | ||
| 2013-09-13T11:48 | 6371 | 472 | -7.1 | -22.6 | ||
| 2013-09-13T11:48 | 6495 | 465 | 93 | 11.0 | ||
| 2013-09-13T11:49 | 6808 | 446 | -10.8 | -23.3 | ||
| 2013-09-13T11:49 | 6890 | 442 | 81 | 11.0 | ||
| 2013-09-13T11:49 | 6931 | 439 | -10.3 | -28.5 | ||
| 2013-09-13T11:50 | 7086 | 431 | 84 | 13.0 | ||
| 2013-09-13T11:50 | 7093 | 430 | 84 | 13.0 | ||
| 2013-09-13T11:50 | 7174 | 426 | -10.9 | -45.4 | ||
| 2013-09-13T11:50 | 7271 | 420 | 90 | 12.0 | ||
| 2013-09-13T11:51 | 7639 | 401 | 96 | 12.0 | ||
| 2013-09-13T11:51 | 7645 | 400 | -13.5 | -49.8 | ||
| 2013-09-13T11:52 | 7998 | 382 | 81 | 12.0 | ||
| 2013-09-13T11:53 | 8259 | 369 | -18.6 | -53.4 | ||
| 2013-09-13T11:53 | 8339 | 365 | 68 | 10.0 | ||
| 2013-09-13T11:54 | 8705 | 347 | 78 | 13.0 | ||
| 2013-09-13T11:55 | 9023 | 332 | -24.9 | -45.4 | ||
| 2013-09-13T11:55 | 9095 | 329 | 71 | 15.0 | ||
| 2013-09-13T11:56 | 9481 | 312 | 53 | 14.0 | ||
| 2013-09-13T11:56 | 9506 | 311 | -28.7 | -52.7 | ||
| 2013-09-13T11:57 | 9799 | 298 | -30.9 | -54.5 | ||
| 2013-09-13T11:57 | 9848 | 296 | 48 | 15.0 | ||
| 2013-09-13T11:58 | 10086 | 286 | 52 | 17.0 | ||
| 2013-09-13T11:58 | 10112 | 285 | 51 | 17.0 | ||
| 2013-09-13T11:58 | 10151 | 284 | 50 | 17.0 | ||
| 2013-09-13T11:58 | 10177 | 283 | 52 | 17.0 | ||
| 2013-09-13T11:58 | 10237 | 280 | 52 | 16.0 | ||
| 2013-09-13T11:59 | 10649 | 264 | 50 | 13.0 | ||
| 2013-09-13T11:59 | 10734 | 261 | -38.0 | -60.1 | ||
| 2013-09-13T12:00 | 10953 | 253 | -40.0 | -60.0 | ||
| 2013-09-13T12:00 | 11050 | 249 | 47 | 13.0 | ||
| 2013-09-13T12:01 | 11451 | 235 | 22 | 17.0 | ||
| 2013-09-13T12:02 | 11808 | 223 | 15 | 21.0 | ||
| 2013-09-13T12:03 | 12007 | 216 | -47.2 | |||
| 2013-09-13T12:03 | 12171 | 211 | 1 | 25.0 | ||
| 2013-09-13T12:04 | 12551 | 199 | 356 | 29.0 | ||
| 2013-09-13T12:05 | 12852 | 190 | 351 | 30.0 | ||
| 2013-09-13T12:05 | 12865 | 189 | 351 | 30.0 | ||
| 2013-09-13T12:05 | 12937 | 187 | 349 | 30.0 | ||
| 2013-09-13T12:06 | 13323 | 176 | 348 | 28.0 | ||
| 2013-09-13T12:06 | 13489 | 172 | -58.9 | |||
| 2013-09-13T12:07 | 13722 | 165 | 351 | 28.0 | ||
| 2013-09-13T12:08 | 14113 | 155 | 352 | 25.0 | ||
| 2013-09-13T12:08 | 14221 | 152 | -65.2 | |||
| 2013-09-13T12:09 | 14529 | 145 | 342 | 26.0 | ||
| 2013-09-13T12:10 | 14889 | 136 | -69.0 | |||
| 2013-09-13T12:10 | 14956 | 135 | 349 | 19.0 | ||
| 2013-09-13T12:11 | 15322 | 127 | -70.1 | |||
| 2013-09-13T12:11 | 15357 | 126 | 16 | 15.0 | ||
| 2013-09-13T12:12 | 15723 | 118 | -73.2 | |||
| 2013-09-13T12:12 | 15816 | 117 | 32 | 10.0 | ||
| 2013-09-13T12:13 | 16267 | 108 | -76.9 | |||
| 2013-09-13T12:13 | 16307 | 107 | 18 | 10.0 | ||
| 2013-09-13T12:13 | 16481 | 104 | -76.5 | |||
| 2013-09-13T12:14 | 16628 | 101 | -75.7 | |||
| 2013-09-13T12:14 | 16700 | 100 | -76.0 | 25 | 8.0 | |
| 2013-09-13T12:14 | 16793 | 98 | 25 | 7.0 | ||
| 2013-09-13T12:15 | 17085 | 94 | -76.7 | |||
| 2013-09-13T12:15 | 17176 | 92 | 39 | 13.0 | ||
| 2013-09-13T12:16 | 17446 | 88 | -75.4 | |||
| 2013-09-13T12:16 | 17545 | 87 | 70 | 11.0 | ||
| 2013-09-13T12:17 | 17895 | 81 | -75.6 | |||
| 2013-09-13T12:17 | 17947 | 81 | 73 | 9.0 | ||
| 2013-09-13T12:18 | 18263 | 76 | -74.8 | |||
| 2013-09-13T12:18 | 18382 | 75 | 51 | 10.0 | ||
| 2013-09-13T12:18 | 18500 | 73 | -71.6 | |||
| 2013-09-13T12:19 | 18753 | 70 | 71 | 8.0 | ||
| 2013-09-13T12:20 | 19103 | 66 | -69.4 | |||
| 2013-09-13T12:20 | 19128 | 66 | 70 | 10.0 | ||
| 2013-09-13T12:21 | 19363 | 63 | -69.4 | |||
| 2013-09-13T12:21 | 19498 | 62 | 58 | 13.0 | ||
| 2013-09-13T12:21 | 19600 | 61 | -66.1 | |||
| 2013-09-13T12:22 | 19862 | 58 | 67 | 12.0 | ||
| 2013-09-13T12:22 | 20009 | 57 | -66.0 | |||
| 2013-09-13T12:23 | 20238 | 55 | 70 | 14.0 | ||
| 2013-09-13T12:24 | 20477 | 53 | -64.9 | |||
| 2013-09-13T12:24 | 20623 | 52 | 77 | 15.0 | ||
| 2013-09-13T12:25 | 20862 | 50 | -64.1 | |||
| 2013-09-13T12:25 | 21004 | 48 | 82 | 17.0 | ||
| 2013-09-13T12:25 | 21129 | 48 | -61.8 | |||
| 2013-09-13T12:26 | 21385 | 46 | 92 | 19.0 | ||
| 2013-09-13T12:27 | 21749 | 43 | -61.5 | |||
| 2013-09-13T12:27 | 21784 | 43 | 100 | 15.0 | ||
| 2013-09-13T12:28 | 22123 | 40 | -59.9 | |||
| 2013-09-13T12:28 | 22209 | 40 | 106 | 13.0 | ||
| 2013-09-13T12:29 | 22485 | 38 | -60.1 | |||
| 2013-09-13T12:29 | 22630 | 37 | 82 | 10.0 | ||
| 2013-09-13T12:30 | 22920 | 36 | -59.5 | |||
| 2013-09-13T12:30 | 23055 | 35 | 82 | 15.0 | ||
| 2013-09-13T12:31 | 23322 | 33 | -56.6 | |||
| 2013-09-13T12:31 | 23441 | 33 | -55.6 | |||
| 2013-09-13T12:31 | 23455 | 33 | 80 | 13.0 | ||
| 2013-09-13T12:31 | 23543 | 32 | -55.3 | |||
| 2013-09-13T12:32 | 23875 | 31 | 90 | 13.0 | ||
| 2013-09-13T12:33 | 24121 | 29 | -54.4 | |||
| 2013-09-13T12:33 | 24330 | 29 | 86 | 14.0 | ||
| 2013-09-13T12:34 | 24785 | 27 | 88 | 16.0 | ||
| 2013-09-13T12:35 | 25222 | 25 | 89 | 12.0 | ||
| 2013-09-13T12:36 | 25529 | 24 | -52.4 | |||
| 2013-09-13T12:36 | 25676 | 23 | 83 | 13.0 | ||
| 2013-09-13T12:37 | 26142 | 22 | 86 | 16.0 | ||
| 2013-09-13T12:38 | 26591 | 20 | 91 | 17.0 | ||
| 2013-09-13T12:39 | 26973 | 19 | -50.8 | |||
| 2013-09-13T12:39 | 27032 | 19 | 94 | 17.0 | ||
| 2013-09-13T12:40 | 27473 | 18 | 83 | 18.0 | ||
| 2013-09-13T12:41 | 27963 | 16 | 86 | 21.0 | ||
| 2013-09-13T12:41 | 28090 | 16 | -45.6 | |||
| 2013-09-13T12:42 | 28463 | 15 | 82 | 22.0 | ||
| 2013-09-13T12:43 | 28793 | 14 | -45.3 | |||
| 2013-09-13T12:43 | 28955 | 14 | 92 | 22.0 | ||
| 2013-09-13T12:44 | 29440 | 13 | 99 | 23.0 | ||
| 2013-09-13T12:45 | 29710 | 13 | -44.2 | |||
| 2013-09-13T12:45 | 29718 | 13 | -44.2 | 93 | 20.0 | |
| 2013-09-13T23:30 | 9 | 1013 | 30.0 | 25.3 | 90 | 6.0 |
| 2013-09-13T23:30 | 55 | 1008 | 27.9 | 21.9 | ||
| 2013-09-13T23:31 | 339 | 976 | 94 | 8.0 | ||
| 2013-09-13T23:32 | 563 | 952 | 104 | 9.0 | ||
| 2013-09-13T23:32 | 667 | 940 | 23.1 | 20.1 | ||
| 2013-09-13T23:32 | 678 | 939 | 105 | 8.0 | ||
| 2013-09-13T23:32 | 717 | 935 | 22.9 | 18.9 | ||
| 2013-09-13T23:33 | 900 | 915 | 22.0 | 16.9 | ||
| 2013-09-13T23:33 | 1014 | 904 | 107 | 7.0 | ||
| 2013-09-13T23:33 | 1026 | 902 | 21.3 | 15.6 | ||
| 2013-09-13T23:34 | 1245 | 880 | 20.0 | 15.2 | ||
| 2013-09-13T23:34 | 1361 | 868 | 19.3 | 15.0 | 103 | 7.0 |
| 2013-09-13T23:35 | 1671 | 837 | 17.5 | 14.2 | ||
| 2013-09-13T23:35 | 1711 | 833 | 104 | 7.0 | ||
| 2013-09-13T23:35 | 1758 | 829 | 17.4 | 13.3 | ||
| 2013-09-13T23:35 | 1833 | 822 | 17.2 | 12.3 | ||
| 2013-09-13T23:35 | 1879 | 817 | 16.9 | 10.3 | ||
| 2013-09-13T23:36 | 2016 | 804 | 15.9 | 10.4 | ||
| 2013-09-13T23:36 | 2053 | 801 | 15.5 | 11.1 | ||
| 2013-09-13T23:36 | 2083 | 798 | 15.2 | 12.7 | ||
| 2013-09-13T23:36 | 2217 | 785 | 15.0 | 8.5 | ||
| 2013-09-13T23:37 | 2261 | 781 | 15.1 | 5.6 | ||
| 2013-09-13T23:37 | 2380 | 771 | 14.4 | 7.0 | ||
| 2013-09-13T23:37 | 2436 | 765 | 14.3 | 5.6 | 104 | 6.0 |
| 2013-09-13T23:37 | 2462 | 763 | 14.2 | 5.8 | ||
| 2013-09-13T23:37 | 2474 | 762 | 14.2 | 3.6 | ||
| 2013-09-13T23:37 | 2512 | 759 | 14.1 | 4.1 | ||
| 2013-09-13T23:37 | 2562 | 754 | 13.9 | 1.2 | ||
| 2013-09-13T23:37 | 2586 | 752 | 13.8 | 3.8 | ||
| 2013-09-13T23:37 | 2605 | 750 | 13.7 | 0.7 | ||
| 2013-09-13T23:38 | 2623 | 749 | 13.7 | 0.7 | ||
| 2013-09-13T23:38 | 2629 | 748 | 13.7 | 2.9 | ||
| 2013-09-13T23:38 | 2694 | 742 | 13.5 | -2.5 | ||
| 2013-09-13T23:38 | 2746 | 738 | 13.2 | -3.6 | ||
| 2013-09-13T23:38 | 2782 | 735 | 13.1 | -1.3 | ||
| 2013-09-13T23:38 | 2799 | 733 | 103 | 7.0 | ||
| 2013-09-13T23:38 | 2811 | 732 | 13.1 | -6.0 | ||
| 2013-09-13T23:38 | 2863 | 728 | 12.8 | 2.6 | ||
| 2013-09-13T23:38 | 2887 | 725 | 12.6 | 1.3 | ||
| 2013-09-13T23:38 | 2928 | 722 | 12.5 | -2.2 | ||
| 2013-09-13T23:38 | 2969 | 718 | 12.2 | -2.8 | ||
| 2013-09-13T23:39 | 3011 | 715 | 11.9 | -5.6 | ||
| 2013-09-13T23:39 | 3022 | 714 | 11.8 | -0.7 | ||
| 2013-09-13T23:39 | 3069 | 710 | 11.4 | 3.2 | ||
| 2013-09-13T23:39 | 3098 | 707 | 11.2 | 0.3 | ||
| 2013-09-13T23:39 | 3109 | 706 | 11.1 | 2.1 | ||
| 2013-09-13T23:39 | 3137 | 704 | 10.9 | 3.0 | ||
| 2013-09-13T23:39 | 3148 | 703 | 91 | 7.0 | ||
| 2013-09-13T23:39 | 3164 | 702 | 10.7 | -0.7 | ||
| 2013-09-13T23:39 | 3202 | 699 | 10.4 | 4.5 | ||
| 2013-09-13T23:39 | 3234 | 696 | 10.3 | 3.6 | ||
| 2013-09-13T23:39 | 3250 | 695 | 10.5 | 2.6 | ||
| 2013-09-13T23:39 | 3265 | 693 | 10.6 | -5.0 | ||
| 2013-09-13T23:39 | 3302 | 690 | 10.6 | -4.6 | ||
| 2013-09-13T23:40 | 3377 | 684 | 10.3 | -6.5 | ||
| 2013-09-13T23:40 | 3393 | 683 | 10.2 | -5.0 | ||
| 2013-09-13T23:40 | 3443 | 679 | 10.0 | -8.6 | ||
| 2013-09-13T23:40 | 3471 | 676 | 84 | 8.0 | ||
| 2013-09-13T23:40 | 3627 | 664 | 9.2 | -11.4 | ||
| 2013-09-13T23:41 | 3696 | 658 | 9.0 | -14.1 | ||
| 2013-09-13T23:41 | 3713 | 657 | 9.1 | -12.7 | ||
| 2013-09-13T23:41 | 3813 | 649 | 83 | 9.0 | ||
| 2013-09-13T23:41 | 3834 | 647 | 8.6 | -14.4 | ||
| 2013-09-13T23:41 | 3903 | 642 | 8.1 | -10.8 | ||
| 2013-09-13T23:41 | 3919 | 641 | 7.9 | -1.9 | ||
| 2013-09-13T23:41 | 3935 | 639 | 7.8 | -4.0 | ||
| 2013-09-13T23:41 | 3955 | 638 | 7.6 | -0.9 | ||
| 2013-09-13T23:41 | 3961 | 637 | 7.6 | 1.0 | ||
| 2013-09-13T23:42 | 3997 | 635 | 7.4 | -0.8 | ||
| 2013-09-13T23:42 | 4007 | 634 | 7.3 | -2.4 | ||
| 2013-09-13T23:42 | 4028 | 632 | 7.1 | -0.1 | ||
| 2013-09-13T23:42 | 4043 | 631 | 87 | 11.0 | ||
| 2013-09-13T23:42 | 4053 | 630 | 88 | 11.0 | ||
| 2013-09-13T23:42 | 4069 | 629 | 6.9 | 1.0 | ||
| 2013-09-13T23:42 | 4090 | 628 | 7.0 | -3.5 | 88 | 11.0 |
| 2013-09-13T23:42 | 4095 | 627 | 88 | 11.0 | ||
| 2013-09-13T23:42 | 4115 | 626 | 7.1 | -5.3 | ||
| 2013-09-13T23:42 | 4126 | 625 | 89 | 11.0 | ||
| 2013-09-13T23:42 | 4141 | 624 | 7.1 | -2.9 | ||
| 2013-09-13T23:42 | 4177 | 621 | 7.2 | -8.8 | ||
| 2013-09-13T23:42 | 4230 | 617 | 7.3 | -9.6 | ||
| 2013-09-13T23:43 | 4321 | 610 | 7.4 | -16.1 | ||
| 2013-09-13T23:43 | 4449 | 601 | 84 | 8.0 | ||
| 2013-09-13T23:43 | 4545 | 594 | 6.1 | -15.2 | ||
| 2013-09-13T23:44 | 4787 | 576 | 4.6 | -15.9 | ||
| 2013-09-13T23:45 | 5136 | 552 | 87 | 9.0 | ||
| 2013-09-13T23:46 | 5366 | 536 | -0.6 | -20.3 | ||
| 2013-09-13T23:46 | 5471 | 529 | 72 | 10.0 | ||
| 2013-09-13T23:46 | 5613 | 520 | -2.1 | -21.0 | ||
| 2013-09-13T23:47 | 5822 | 506 | 84 | 11.0 | ||
| 2013-09-13T23:48 | 6078 | 490 | -5.3 | -25.9 | ||
| 2013-09-13T23:48 | 6113 | 488 | 87 | 13.0 | ||
| 2013-09-13T23:48 | 6179 | 484 | 85 | 12.0 | ||
| 2013-09-13T23:49 | 6540 | 462 | 69 | 12.0 | ||
| 2013-09-13T23:49 | 6619 | 457 | -8.0 | -36.6 | ||
| 2013-09-13T23:50 | 6879 | 442 | 65 | 10.0 | ||
| 2013-09-13T23:51 | 7043 | 433 | -11.0 | -45.4 | ||
| 2013-09-13T23:51 | 7204 | 424 | 61 | 8.0 | ||
| 2013-09-13T23:52 | 7442 | 411 | -14.6 | -43.0 | ||
| 2013-09-13T23:52 | 7539 | 405 | 60 | 8.0 | ||
| 2013-09-13T23:53 | 7881 | 387 | 56 | 8.0 | ||
| 2013-09-13T23:53 | 8012 | 381 | -18.9 | -53.6 | ||
| 2013-09-13T23:54 | 8249 | 369 | 44 | 9.0 | ||
| 2013-09-13T23:55 | 8557 | 353 | -23.5 | -45.0 | ||
| 2013-09-13T23:55 | 8632 | 350 | 47 | 10.0 | ||
| 2013-09-13T23:56 | 9011 | 332 | 56 | 8.0 | ||
| 2013-09-13T23:56 | 9142 | 326 | -28.6 | -49.9 | ||
| 2013-09-13T23:57 | 9387 | 315 | 73 | 10.0 | ||
| 2013-09-13T23:57 | 9418 | 314 | -30.7 | -52.5 | ||
| 2013-09-13T23:58 | 9765 | 299 | 64 | 11.0 | ||
| 2013-09-13T23:58 | 9884 | 294 | -33.9 | -57.9 | ||
| 2013-09-13T23:59 | 10137 | 283 | 52 | 14.0 | ||
| 2013-09-13T23:59 | 10240 | 279 | 51 | 15.0 | ||
| 2013-09-14T00:00 | 10449 | 271 | -38.5 | -57.3 | ||
| 2013-09-14T00:00 | 10527 | 268 | 41 | 15.0 | ||
| 2013-09-14T00:00 | 10616 | 264 | -40.0 | -54.8 | ||
| 2013-09-14T00:01 | 10904 | 253 | 42 | 13.0 | ||
| 2013-09-14T00:02 | 11292 | 239 | 44 | 14.0 | ||
| 2013-09-14T00:03 | 11684 | 225 | 38 | 11.0 | ||
| 2013-09-14T00:04 | 11909 | 218 | -50.9 | |||
| 2013-09-14T00:04 | 12086 | 212 | 33 | 13.0 | ||
| 2013-09-14T00:05 | 12293 | 205 | -53.2 | |||
| 2013-09-14T00:06 | 12766 | 190 | -54.7 | |||
| 2013-09-14T00:06 | 12858 | 188 | 19 | 21.0 | ||
| 2013-09-14T00:07 | 13176 | 179 | 15 | 24.0 | ||
| 2013-09-14T00:07 | 13249 | 177 | 15 | 24.0 | ||
| 2013-09-14T00:08 | 13672 | 165 | 16 | 21.0 | ||
| 2013-09-14T00:08 | 13733 | 163 | -62.2 | |||
| 2013-09-14T00:09 | 14090 | 154 | 19 | 20.0 | ||
| 2013-09-14T00:10 | 14302 | 149 | -66.2 | |||
| 2013-09-14T00:10 | 14492 | 144 | 23 | 20.0 | ||
| 2013-09-14T00:11 | 14878 | 135 | 17 | 22.0 | ||
| 2013-09-14T00:11 | 14974 | 133 | -70.5 | |||
| 2013-09-14T00:12 | 15278 | 126 | 17 | 21.0 | ||
| 2013-09-14T00:13 | 15678 | 118 | 32 | 18.0 | ||
| 2013-09-14T00:13 | 15822 | 115 | -74.8 | |||
| 2013-09-14T00:14 | 16102 | 110 | 32 | 16.0 | ||
| 2013-09-14T00:14 | 16138 | 109 | -75.8 | |||
| 2013-09-14T00:15 | 16539 | 102 | 49 | 18.0 | ||
| 2013-09-14T00:15 | 16594 | 101 | -74.2 | |||
| 2013-09-14T00:15 | 16634 | 100 | -74.4 | 58 | 17.0 | |
| 2013-09-14T00:16 | 17014 | 94 | 74 | 15.0 | ||
| 2013-09-14T00:17 | 17264 | 90 | -79.0 | |||
| 2013-09-14T00:17 | 17433 | 87 | -77.4 | |||
| 2013-09-14T00:17 | 17454 | 87 | 81 | 8.0 | ||
| 2013-09-14T00:18 | 17737 | 83 | -77.4 | |||
| 2013-09-14T00:18 | 17884 | 80 | 30 | 10.0 | ||
| 2013-09-14T00:18 | 18088 | 78 | -74.7 | |||
| 2013-09-14T00:19 | 18296 | 75 | 32 | 15.0 | ||
| 2013-09-14T00:19 | 18469 | 73 | -73.9 | |||
| 2013-09-14T00:20 | 18684 | 70 | 61 | 11.0 | ||
| 2013-09-14T00:21 | 18926 | 67 | -71.7 | |||
| 2013-09-14T00:21 | 19062 | 66 | 73 | 11.0 | ||
| 2013-09-14T00:22 | 19423 | 62 | 94 | 12.0 | ||
| 2013-09-14T00:22 | 19429 | 62 | -68.6 | |||
| 2013-09-14T00:23 | 19746 | 59 | -68.5 | |||
| 2013-09-14T00:23 | 19797 | 58 | 98 | 12.0 | ||
| 2013-09-14T00:24 | 20015 | 56 | -67.6 | |||
| 2013-09-14T00:24 | 20202 | 54 | 81 | 13.0 | ||
| 2013-09-14T00:24 | 20349 | 53 | -65.9 | |||
| 2013-09-14T00:25 | 20619 | 51 | 82 | 12.0 | ||
| 2013-09-14T00:25 | 20792 | 49 | -65.1 | |||
| 2013-09-14T00:26 | 20970 | 48 | -64.6 | |||
| 2013-09-14T00:26 | 21030 | 47 | 81 | 13.0 | ||
| 2013-09-14T00:26 | 21184 | 46 | -64.2 | |||
| 2013-09-14T00:27 | 21433 | 44 | 66 | 16.0 | ||
| 2013-09-14T00:28 | 21671 | 43 | -61.5 | |||
| 2013-09-14T00:28 | 21874 | 41 | 84 | 12.0 | ||
| 2013-09-14T00:29 | 22270 | 39 | -61.2 | |||
| 2013-09-14T00:29 | 22319 | 39 | 82 | 15.0 | ||
| 2013-09-14T00:30 | 22671 | 36 | -59.0 | |||
| 2013-09-14T00:30 | 22709 | 36 | 89 | 16.0 | ||
| 2013-09-14T00:31 | 23027 | 34 | -56.9 | |||
| 2013-09-14T00:31 | 23102 | 34 | 94 | 17.0 | ||
| 2013-09-14T00:32 | 23545 | 32 | 96 | 17.0 | ||
| 2013-09-14T00:32 | 23658 | 31 | -57.3 | |||
| 2013-09-14T00:33 | 24034 | 29 | 88 | 17.0 | ||
| 2013-09-14T00:33 | 24166 | 29 | -56.6 | |||
| 2013-09-14T00:34 | 24468 | 27 | 95 | 15.0 | ||
| 2013-09-14T00:35 | 24882 | 26 | 105 | 16.0 | ||
| 2013-09-14T00:36 | 25322 | 24 | -52.8 | 113 | 12.0 | |
| 2013-09-14T00:37 | 25812 | 22 | -49.4 | |||
| 2013-09-14T00:38 | 26308 | 21 | 72 | 11.0 | ||
| 2013-09-14T00:39 | 26807 | 19 | 61 | 17.0 | ||
| 2013-09-14T00:39 | 26952 | 19 | -50.9 | |||
| 2013-09-14T00:40 | 27198 | 18 | -49.7 | |||
| 2013-09-14T00:40 | 27248 | 18 | 79 | 19.0 | ||
| 2013-09-14T00:40 | 27352 | 18 | -48.4 | |||
| 2013-09-14T00:41 | 27626 | 17 | -47.1 | |||
| 2013-09-14T00:41 | 27712 | 17 | -46.9 | 99 | 18.0 | |
| 2013-09-14T00:42 | 28188 | 16 | 102 | 18.0 | ||
| 2013-09-14T00:43 | 28692 | 14 | 102 | 17.0 | ||
| 2013-09-14T00:43 | 28860 | 14 | -47.8 | |||
| 2013-09-14T00:43 | 28933 | 14 | -47.9 | |||
| 2013-09-14T00:44 | 29030 | 14 | -47.8 | |||
| 2013-09-14T00:44 | 29184 | 13 | 97 | 18.0 | ||
| 2013-09-14T00:44 | 29296 | 13 | -48.2 | |||
| 2013-09-14T00:45 | 29671 | 12 | 88 | 19.0 | ||
| 2013-09-14T00:46 | 30169 | 12 | 91 | 23.0 | ||
| 2013-09-14T00:47 | 30668 | 11 | 93 | 22.0 | ||
| 2013-09-14T00:48 | 31168 | 10 | 94 | 20.0 | ||
| 2013-09-14T00:49 | 31668 | 9 | 96 | 19.0 | ||
| 2013-09-14T00:49 | 31717 | 9 | -41.2 | |||
| 2013-09-14T00:50 | 31927 | 9 | -40.5 | 100 | 21.0 | |
| 2013-09-14T11:30 | 9 | 1013 | 28.8 | 25.4 | 80 | 7.0 |
| 2013-09-14T11:30 | 19 | 1012 | 28.6 | 23.7 | ||
| 2013-09-14T11:31 | 345 | 976 | 90 | 8.0 | ||
| 2013-09-14T11:32 | 663 | 941 | 94 | 8.0 | ||
| 2013-09-14T11:32 | 696 | 937 | 22.8 | 21.4 | ||
| 2013-09-14T11:33 | 1013 | 904 | 95 | 7.0 | ||
| 2013-09-14T11:33 | 1101 | 895 | 20.8 | 16.6 | ||
| 2013-09-14T11:34 | 1258 | 879 | 19.9 | 15.5 | ||
| 2013-09-14T11:34 | 1321 | 872 | 91 | 8.0 | ||
| 2013-09-14T11:34 | 1333 | 871 | 92 | 8.0 | ||
| 2013-09-14T11:34 | 1350 | 870 | 19.3 | 15.2 | ||
| 2013-09-14T11:34 | 1361 | 868 | 89 | 8.0 | ||
| 2013-09-14T11:35 | 1539 | 851 | 18.1 | 14.4 | ||
| 2013-09-14T11:35 | 1619 | 843 | 17.6 | 14.1 | ||
| 2013-09-14T11:35 | 1672 | 838 | 82 | 8.0 | ||
| 2013-09-14T11:35 | 1682 | 837 | 17.3 | 13.6 | ||
| 2013-09-14T11:36 | 1887 | 817 | 15.9 | 12.6 | ||
| 2013-09-14T11:36 | 2001 | 806 | 82 | 7.0 | ||
| 2013-09-14T11:36 | 2091 | 797 | 15.1 | 10.3 | ||
| 2013-09-14T11:36 | 2109 | 796 | 15.0 | 10.0 | ||
| 2013-09-14T11:36 | 2115 | 795 | 15.0 | 11.6 | ||
| 2013-09-14T11:36 | 2145 | 792 | 14.9 | 9.9 | ||
| 2013-09-14T11:36 | 2162 | 791 | 14.9 | 9.9 | ||
| 2013-09-14T11:36 | 2174 | 790 | 14.9 | 10.9 | ||
| 2013-09-14T11:37 | 2191 | 788 | 14.8 | 9.0 | ||
| 2013-09-14T11:37 | 2215 | 786 | 14.7 | 10.7 | ||
| 2013-09-14T11:37 | 2260 | 782 | 14.5 | 8.5 | ||
| 2013-09-14T11:37 | 2277 | 780 | 14.4 | 10.8 | ||
| 2013-09-14T11:37 | 2306 | 778 | 14.4 | 8.6 | ||
| 2013-09-14T11:37 | 2351 | 773 | 14.4 | 4.9 | 72 | 7.0 |
| 2013-09-14T11:37 | 2438 | 766 | 13.8 | 5.7 | ||
| 2013-09-14T11:37 | 2455 | 764 | 13.6 | 8.9 | ||
| 2013-09-14T11:37 | 2507 | 759 | 13.3 | 8.6 | ||
| 2013-09-14T11:38 | 2529 | 757 | 13.2 | 8.1 | ||
| 2013-09-14T11:38 | 2568 | 754 | 13.2 | 7.2 | ||
| 2013-09-14T11:38 | 2591 | 752 | 13.2 | 5.6 | ||
| 2013-09-14T11:38 | 2608 | 750 | 13.3 | 6.4 | ||
| 2013-09-14T11:38 | 2625 | 749 | 13.2 | 2.1 | ||
| 2013-09-14T11:38 | 2636 | 748 | 13.2 | 1.8 | ||
| 2013-09-14T11:38 | 2647 | 747 | 13.2 | 5.6 | ||
| 2013-09-14T11:38 | 2676 | 744 | 13.2 | 3.0 | ||
| 2013-09-14T11:38 | 2693 | 743 | 78 | 7.0 | ||
| 2013-09-14T11:38 | 2704 | 742 | 13.2 | 0.6 | ||
| 2013-09-14T11:38 | 2733 | 739 | 13.2 | 1.8 | ||
| 2013-09-14T11:38 | 2744 | 738 | 13.1 | 4.3 | ||
| 2013-09-14T11:38 | 2761 | 737 | 13.1 | 0.1 | ||
| 2013-09-14T11:38 | 2790 | 734 | 13.1 | 3.5 | ||
| 2013-09-14T11:38 | 2824 | 731 | 13.1 | -1.6 | ||
| 2013-09-14T11:39 | 2912 | 724 | 12.8 | -3.1 | ||
| 2013-09-14T11:39 | 2930 | 722 | 12.7 | -1.3 | ||
| 2013-09-14T11:39 | 3041 | 712 | 74 | 8.0 | ||
| 2013-09-14T11:39 | 3070 | 710 | 12.4 | -7.1 | ||
| 2013-09-14T11:39 | 3183 | 701 | 12.0 | -8.5 | ||
| 2013-09-14T11:40 | 3344 | 687 | 11.2 | -11.6 | ||
| 2013-09-14T11:40 | 3378 | 684 | 75 | 9.0 | ||
| 2013-09-14T11:40 | 3406 | 682 | 10.8 | -10.1 | ||
| 2013-09-14T11:41 | 3736 | 655 | 71 | 10.0 | ||
| 2013-09-14T11:41 | 3816 | 649 | 8.5 | -12.6 | ||
| 2013-09-14T11:42 | 3932 | 640 | 7.7 | -12.1 | ||
| 2013-09-14T11:42 | 4103 | 627 | 6.6 | -16.8 | 76 | 10.0 |
| 2013-09-14T11:42 | 4177 | 621 | 5.9 | -10.0 | ||
| 2013-09-14T11:42 | 4208 | 619 | 5.6 | -10.6 | ||
| 2013-09-14T11:42 | 4245 | 616 | 5.3 | -6.9 | ||
| 2013-09-14T11:43 | 4356 | 608 | 4.3 | -7.2 | ||
| 2013-09-14T11:43 | 4411 | 604 | 3.8 | -5.9 | ||
| 2013-09-14T11:43 | 4471 | 599 | 81 | 9.0 | ||
| 2013-09-14T11:43 | 4614 | 589 | 2.5 | -8.5 | ||
| 2013-09-14T11:44 | 4819 | 574 | 78 | 10.0 | ||
| 2013-09-14T11:44 | 4869 | 570 | 1.2 | -13.7 | ||
| 2013-09-14T11:44 | 4958 | 564 | 0.7 | -17.6 | ||
| 2013-09-14T11:45 | 4986 | 562 | 0.6 | -21.0 | ||
| 2013-09-14T11:45 | 5066 | 556 | 0.2 | -17.5 | ||
| 2013-09-14T11:45 | 5106 | 554 | -0.1 | -17.3 | ||
| 2013-09-14T11:45 | 5160 | 550 | 78 | 12.0 | ||
| 2013-09-14T11:45 | 5178 | 549 | -0.6 | -13.8 | ||
| 2013-09-14T11:46 | 5452 | 530 | 79 | 12.0 | ||
| 2013-09-14T11:46 | 5492 | 527 | 78 | 12.0 | ||
| 2013-09-14T11:46 | 5516 | 526 | 78 | 12.0 | ||
| 2013-09-14T11:46 | 5653 | 517 | 76 | 12.0 | ||
| 2013-09-14T11:46 | 5659 | 516 | 76 | 12.0 | ||
| 2013-09-14T11:47 | 5712 | 513 | -4.7 | -17.8 | ||
| 2013-09-14T11:47 | 5747 | 511 | -4.7 | -18.5 | ||
| 2013-09-14T11:47 | 5868 | 503 | 69 | 12.0 | ||
| 2013-09-14T11:47 | 5874 | 502 | -4.3 | -23.9 | ||
| 2013-09-14T11:47 | 5993 | 495 | -3.9 | -29.2 | ||
| 2013-09-14T11:48 | 6234 | 480 | 71 | 10.0 | ||
| 2013-09-14T11:48 | 6329 | 474 | -5.7 | -30.6 | ||
| 2013-09-14T11:49 | 6608 | 457 | 80 | 12.0 | ||
| 2013-09-14T11:49 | 6727 | 450 | -8.9 | -28.4 | ||
| 2013-09-14T11:50 | 6971 | 436 | 80 | 12.0 | ||
| 2013-09-14T11:50 | 7027 | 433 | -11.1 | -29.7 | ||
| 2013-09-14T11:51 | 7282 | 419 | -12.8 | -31.7 | ||
| 2013-09-14T11:51 | 7348 | 415 | 80 | 14.0 | ||
| 2013-09-14T11:51 | 7478 | 408 | -14.3 | -28.9 | ||
| 2013-09-14T11:52 | 7524 | 406 | -14.7 | -27.4 | ||
| 2013-09-14T11:52 | 7583 | 403 | 71 | 15.0 | ||
| 2013-09-14T11:52 | 7636 | 400 | -15.5 | -29.5 | ||
| 2013-09-14T11:52 | 7700 | 397 | 68 | 14.0 | ||
| 2013-09-14T11:52 | 7794 | 392 | -16.5 | -35.9 | ||
| 2013-09-14T11:53 | 8046 | 379 | 57 | 13.0 | ||
| 2013-09-14T11:53 | 8193 | 372 | -19.6 | -34.7 | ||
| 2013-09-14T11:54 | 8402 | 361 | 55 | 12.0 | ||
| 2013-09-14T11:55 | 8612 | 351 | -22.6 | -40.5 | ||
| 2013-09-14T11:55 | 8741 | 345 | 57 | 14.0 | ||
| 2013-09-14T11:55 | 8833 | 341 | -24.1 | -43.4 | ||
| 2013-09-14T11:56 | 9087 | 329 | 63 | 11.0 | ||
| 2013-09-14T11:56 | 9099 | 328 | -26.1 | -43.4 | ||
| 2013-09-14T11:57 | 9463 | 312 | 79 | 12.0 | ||
| 2013-09-14T11:57 | 9628 | 305 | -29.8 | -50.9 | ||
| 2013-09-14T11:58 | 9858 | 295 | 86 | 13.0 | ||
| 2013-09-14T11:59 | 10241 | 280 | 85 | 13.0 | ||
| 2013-09-14T12:00 | 10637 | 264 | 79 | 13.0 | ||
| 2013-09-14T12:00 | 10790 | 258 | -40.0 | -55.7 | ||
| 2013-09-14T12:01 | 11032 | 249 | 76 | 13.0 | ||
| 2013-09-14T12:02 | 11234 | 242 | 78 | 15.0 | ||
| 2013-09-14T12:02 | 11420 | 235 | 81 | 14.0 | ||
| 2013-09-14T12:03 | 11799 | 222 | 76 | 12.0 | ||
| 2013-09-14T12:03 | 11892 | 219 | -49.7 | |||
| 2013-09-14T12:04 | 12190 | 209 | 56 | 13.0 | ||
| 2013-09-14T12:05 | 12558 | 197 | 40 | 13.0 | ||
| 2013-09-14T12:06 | 12930 | 186 | 36 | 17.0 | ||
| 2013-09-14T12:07 | 13131 | 180 | -57.8 | |||
| 2013-09-14T12:07 | 13299 | 176 | 41 | 17.0 | ||
| 2013-09-14T12:08 | 13675 | 165 | 43 | 18.0 | ||
| 2013-09-14T12:09 | 13972 | 158 | -62.9 | |||
| 2013-09-14T12:09 | 14071 | 155 | 44 | 18.0 | ||
| 2013-09-14T12:10 | 14384 | 147 | -65.5 | |||
| 2013-09-14T12:10 | 14444 | 146 | 36 | 18.0 | ||
| 2013-09-14T12:11 | 14889 | 136 | 30 | 21.0 | ||
| 2013-09-14T12:12 | 15259 | 127 | -70.6 | |||
| 2013-09-14T12:12 | 15365 | 125 | 31 | 18.0 | ||
| 2013-09-14T12:13 | 15587 | 121 | -71.8 | |||
| 2013-09-14T12:13 | 15831 | 116 | -72.3 | 25 | 16.0 | |
| 2013-09-14T12:14 | 16256 | 108 | 35 | 13.0 | ||
| 2013-09-14T12:14 | 16482 | 103 | -74.9 | |||
| 2013-09-14T12:15 | 16675 | 100 | -75.2 | 42 | 9.0 | |
| 2013-09-14T12:15 | 16747 | 99 | 43 | 9.0 | ||
| 2013-09-14T12:16 | 17085 | 93 | -76.5 | |||
| 2013-09-14T12:16 | 17245 | 91 | 35 | 13.0 | ||
| 2013-09-14T12:16 | 17431 | 88 | -78.8 | |||
| 2013-09-14T12:16 | 17478 | 87 | -78.6 | |||
| 2013-09-14T12:17 | 17701 | 84 | 40 | 14.0 | ||
| 2013-09-14T12:17 | 17767 | 83 | -77.6 | |||
| 2013-09-14T12:17 | 17849 | 82 | -73.9 | |||
| 2013-09-14T12:18 | 17978 | 80 | -72.4 | |||
| 2013-09-14T12:18 | 18082 | 78 | 61 | 10.0 | ||
| 2013-09-14T12:19 | 18482 | 73 | 30 | 10.0 | ||
| 2013-09-14T12:19 | 18530 | 73 | -70.5 | |||
| 2013-09-14T12:20 | 18726 | 70 | -67.7 | |||
| 2013-09-14T12:20 | 18833 | 69 | 38 | 11.0 | ||
| 2013-09-14T12:20 | 18926 | 68 | -65.7 | |||
| 2013-09-14T12:21 | 19215 | 65 | 65 | 7.0 | ||
| 2013-09-14T12:21 | 19376 | 63 | -66.0 | |||
| 2013-09-14T12:22 | 19587 | 61 | 51 | 8.0 | ||
| 2013-09-14T12:23 | 19807 | 59 | -67.1 | |||
| 2013-09-14T12:23 | 19965 | 57 | 79 | 10.0 | ||
| 2013-09-14T12:24 | 20317 | 54 | -65.8 | |||
| 2013-09-14T12:24 | 20356 | 54 | 84 | 9.0 | ||
| 2013-09-14T12:24 | 20495 | 53 | -65.3 | |||
| 2013-09-14T12:25 | 20749 | 50 | 71 | 12.0 | ||
| 2013-09-14T12:26 | 21122 | 47 | 71 | 12.0 | ||
| 2013-09-14T12:27 | 21467 | 45 | -62.7 | |||
| 2013-09-14T12:27 | 21505 | 45 | 99 | 13.0 | ||
| 2013-09-14T12:28 | 21886 | 42 | 75 | 11.0 | ||
| 2013-09-14T12:29 | 22280 | 39 | 82 | 11.0 | ||
| 2013-09-14T12:30 | 22699 | 37 | 79 | 12.0 | ||
| 2013-09-14T12:31 | 22922 | 35 | -59.0 | |||
| 2013-09-14T12:31 | 23131 | 34 | 70 | 12.0 | ||
| 2013-09-14T12:32 | 23386 | 33 | -58.6 | |||
| 2013-09-14T12:32 | 23550 | 32 | 68 | 14.0 | ||
| 2013-09-14T12:33 | 23958 | 30 | 73 | 18.0 | ||
| 2013-09-14T12:34 | 24369 | 28 | 82 | 17.0 | ||
| 2013-09-14T12:34 | 24570 | 27 | -53.1 | |||
| 2013-09-14T12:35 | 24786 | 26 | 90 | 18.0 | ||
| 2013-09-14T12:36 | 25219 | 25 | 93 | 22.0 | ||
| 2013-09-14T12:36 | 25316 | 24 | -52.0 | |||
| 2013-09-14T12:36 | 25384 | 24 | 95 | 22.0 | ||
| 2013-09-14T12:37 | 25620 | 23 | -51.9 | |||
| 2013-09-14T12:37 | 25673 | 23 | 103 | 18.0 | ||
| 2013-09-14T12:37 | 25749 | 23 | -51.0 | |||
| 2013-09-14T12:37 | 25862 | 22 | -50.8 | |||
| 2013-09-14T12:38 | 26119 | 22 | 96 | 16.0 | ||
| 2013-09-14T12:39 | 26543 | 20 | -48.9 | 102 | 20.0 | |
| 2013-09-14T12:40 | 26963 | 19 | 104 | 18.0 | ||
| 2013-09-14T12:41 | 27295 | 18 | -46.5 | |||
| 2013-09-14T12:41 | 27398 | 18 | 97 | 15.0 | ||
| 2013-09-14T12:42 | 27848 | 17 | 67 | 12.0 | ||
| 2013-09-14T12:43 | 28305 | 15 | 61 | 11.0 | ||
| 2013-09-14T12:44 | 28768 | 14 | 55 | 11.0 | ||
| 2013-09-14T12:44 | 28815 | 14 | -47.6 | |||
| 2013-09-14T12:45 | 29242 | 13 | 67 | 16.0 | ||
| 2013-09-14T12:46 | 29533 | 13 | -46.8 | |||
| 2013-09-14T12:46 | 29731 | 12 | 64 | 14.0 | ||
| 2013-09-14T12:47 | 30223 | 12 | 76 | 16.0 | ||
| 2013-09-14T12:48 | 30704 | 11 | 79 | 17.0 | ||
| 2013-09-14T12:49 | 31181 | 10 | 76 | 19.0 | ||
| 2013-09-14T12:50 | 31684 | 9 | 66 | 19.0 | ||
| 2013-09-14T12:50 | 31873 | 9 | -43.0 | |||
| 2013-09-14T12:51 | 32201 | 9 | 61 | 23.0 | ||
| 2013-09-14T12:52 | 32702 | 8 | 68 | 23.0 | ||
| 2013-09-14T12:52 | 32878 | 8 | -42.7 | |||
| 2013-09-14T12:53 | 32992 | 8 | -41.7 | 34 | 34.0 | |
| 2013-09-14T23:30 | 9 | 1012 | 30.2 | 24.4 | 70 | 6.0 |
| 2013-09-14T23:30 | 17 | 1011 | 28.7 | 22.7 | ||
| 2013-09-14T23:30 | 105 | 1001 | 27.4 | 21.9 | ||
| 2013-09-14T23:31 | 327 | 976 | 75 | 7.0 | ||
| 2013-09-14T23:32 | 511 | 956 | 24.0 | 20.9 | ||
| 2013-09-14T23:32 | 604 | 946 | 23.4 | 19.3 | ||
| 2013-09-14T23:32 | 648 | 941 | 77 | 7.0 | ||
| 2013-09-14T23:33 | 919 | 913 | 21.3 | 17.1 | ||
| 2013-09-14T23:33 | 965 | 908 | 80 | 8.0 | ||
| 2013-09-14T23:33 | 1047 | 899 | 20.8 | 15.6 | ||
| 2013-09-14T23:34 | 1145 | 889 | 19.9 | 16.9 | ||
| 2013-09-14T23:34 | 1277 | 876 | 83 | 7.0 | ||
| 2013-09-14T23:34 | 1337 | 870 | 19.5 | 13.0 | ||
| 2013-09-14T23:34 | 1400 | 863 | 19.0 | 13.4 | ||
| 2013-09-14T23:34 | 1426 | 861 | 18.9 | 13.1 | ||
| 2013-09-14T23:35 | 1442 | 859 | 84 | 8.0 | ||
| 2013-09-14T23:35 | 1453 | 858 | 83 | 8.0 | ||
| 2013-09-14T23:35 | 1485 | 855 | 18.8 | 11.1 | ||
| 2013-09-14T23:35 | 1567 | 847 | 18.4 | 13.1 | ||
| 2013-09-14T23:35 | 1584 | 845 | 18.3 | 11.4 | ||
| 2013-09-14T23:35 | 1600 | 843 | 84 | 7.0 | ||
| 2013-09-14T23:35 | 1611 | 842 | 18.3 | 10.4 | ||
| 2013-09-14T23:35 | 1655 | 838 | 18.0 | 11.1 | ||
| 2013-09-14T23:35 | 1672 | 836 | 17.8 | 12.5 | ||
| 2013-09-14T23:36 | 1818 | 822 | 16.9 | 11.6 | ||
| 2013-09-14T23:36 | 1949 | 810 | 89 | 6.0 | ||
| 2013-09-14T23:37 | 2188 | 787 | 14.5 | 11.1 | ||
| 2013-09-14T23:37 | 2223 | 784 | 14.6 | 11.0 | ||
| 2013-09-14T23:37 | 2258 | 781 | 14.9 | 7.5 | ||
| 2013-09-14T23:37 | 2303 | 777 | 93 | 6.0 | ||
| 2013-09-14T23:37 | 2382 | 769 | 14.4 | 7.2 | ||
| 2013-09-14T23:37 | 2404 | 767 | 14.2 | 8.2 | ||
| 2013-09-14T23:38 | 2499 | 759 | 13.8 | 6.9 | ||
| 2013-09-14T23:38 | 2520 | 757 | 13.8 | 5.2 | ||
| 2013-09-14T23:38 | 2550 | 754 | 14.1 | 3.0 | ||
| 2013-09-14T23:38 | 2561 | 753 | 14.2 | 1.8 | ||
| 2013-09-14T23:38 | 2576 | 752 | 14.4 | -5.4 | ||
| 2013-09-14T23:38 | 2602 | 750 | 14.6 | -3.7 | ||
| 2013-09-14T23:38 | 2622 | 748 | 14.6 | -1.5 | 86 | 6.0 |
| 2013-09-14T23:38 | 2668 | 744 | 14.4 | -0.5 | ||
| 2013-09-14T23:38 | 2762 | 735 | 14.4 | -7.1 | ||
| 2013-09-14T23:39 | 2800 | 732 | 14.3 | -3.0 | ||
| 2013-09-14T23:39 | 2822 | 730 | 14.4 | -7.7 | ||
| 2013-09-14T23:39 | 2916 | 722 | 14.2 | -6.6 | ||
| 2013-09-14T23:39 | 2945 | 720 | 89 | 8.0 | ||
| 2013-09-14T23:40 | 3237 | 695 | 11.9 | -2.0 | ||
| 2013-09-14T23:40 | 3285 | 691 | 67 | 9.0 | ||
| 2013-09-14T23:41 | 3446 | 678 | 11.0 | -2.8 | ||
| 2013-09-14T23:41 | 3606 | 665 | 68 | 8.0 | ||
| 2013-09-14T23:41 | 3731 | 655 | 9.0 | -6.4 | ||
| 2013-09-14T23:42 | 3844 | 646 | 8.2 | -7.1 | ||
| 2013-09-14T23:42 | 3896 | 642 | 7.8 | -5.6 | ||
| 2013-09-14T23:42 | 3947 | 638 | 64 | 9.0 | ||
| 2013-09-14T23:43 | 4300 | 611 | 69 | 8.0 | ||
| 2013-09-14T23:44 | 4665 | 584 | 3.1 | -10.2 | ||
| 2013-09-14T23:44 | 4776 | 576 | 2.6 | -9.0 | ||
| 2013-09-14T23:45 | 5035 | 558 | 71 | 12.0 | ||
| 2013-09-14T23:45 | 5070 | 556 | 69 | 12.0 | ||
| 2013-09-14T23:45 | 5087 | 555 | 1.0 | -12.1 | ||
| 2013-09-14T23:45 | 5099 | 554 | 72 | 12.0 | ||
| 2013-09-14T23:45 | 5110 | 553 | 72 | 12.0 | ||
| 2013-09-14T23:46 | 5384 | 535 | 0.0 | -15.5 | 70 | 10.0 |
| 2013-09-14T23:47 | 5724 | 512 | 76 | 7.0 | ||
| 2013-09-14T23:48 | 6079 | 490 | 97 | 8.0 | ||
| 2013-09-14T23:48 | 6159 | 485 | -6.4 | -24.2 | ||
| 2013-09-14T23:49 | 6360 | 472 | -7.3 | -29.6 | ||
| 2013-09-14T23:49 | 6454 | 467 | 91 | 11.0 | ||
| 2013-09-14T23:50 | 6837 | 444 | 92 | 13.0 | ||
| 2013-09-14T23:51 | 7113 | 428 | -12.9 | -36.4 | ||
| 2013-09-14T23:51 | 7235 | 421 | 77 | 14.0 | ||
| 2013-09-14T23:51 | 7402 | 412 | -14.6 | -39.6 | ||
| 2013-09-14T23:52 | 7711 | 396 | -16.3 | -45.7 | ||
| 2013-09-14T23:53 | 7992 | 381 | 64 | 20.0 | ||
| 2013-09-14T23:53 | 8005 | 380 | 64 | 20.0 | ||
| 2013-09-14T23:53 | 8024 | 379 | 63 | 19.0 | ||
| 2013-09-14T23:54 | 8403 | 360 | 70 | 18.0 | ||
| 2013-09-14T23:54 | 8473 | 357 | -22.0 | -53.5 | ||
| 2013-09-14T23:55 | 8794 | 342 | 72 | 17.0 | ||
| 2013-09-14T23:56 | 9061 | 329 | -27.0 | -50.4 | ||
| 2013-09-14T23:56 | 9189 | 324 | 73 | 16.0 | ||
| 2013-09-14T23:57 | 9565 | 307 | 66 | 15.0 | ||
| 2013-09-14T23:57 | 9578 | 306 | -31.8 | -51.1 | ||
| 2013-09-14T23:58 | 9863 | 294 | -32.9 | -61.6 | ||
| 2013-09-14T23:58 | 9965 | 290 | 60 | 15.0 | ||
| 2013-09-14T23:59 | 10338 | 275 | 61 | 14.0 | ||
| 2013-09-15T00:00 | 10618 | 264 | -40.0 | -62.7 | ||
| 2013-09-15T00:00 | 10758 | 258 | 61 | 13.0 | ||
| 2013-09-15T00:01 | 11186 | 242 | 57 | 14.0 | ||
| 2013-09-15T00:02 | 11599 | 228 | 60 | 16.0 | ||
| 2013-09-15T00:03 | 12025 | 213 | 60 | 15.0 | ||
| 2013-09-15T00:04 | 12411 | 201 | 66 | 13.0 | ||
| 2013-09-15T00:04 | 12487 | 199 | -56.5 | |||
| 2013-09-15T00:05 | 12837 | 188 | 59 | 10.0 | ||
| 2013-09-15T00:06 | 13258 | 176 | 58 | 13.0 | ||
| 2013-09-15T00:06 | 13393 | 172 | -63.1 | |||
| 2013-09-15T00:07 | 13671 | 164 | 64 | 16.0 | ||
| 2013-09-15T00:07 | 13747 | 162 | -63.6 | |||
| 2013-09-15T00:08 | 13968 | 156 | -63.7 | |||
| 2013-09-15T00:08 | 14061 | 154 | 56 | 15.0 | ||
| 2013-09-15T00:09 | 14434 | 145 | 58 | 14.0 | ||
| 2013-09-15T00:10 | 14770 | 137 | -68.8 | |||
| 2013-09-15T00:10 | 14825 | 136 | 55 | 18.0 | ||
| 2013-09-15T00:11 | 15010 | 132 | -69.8 | |||
| 2013-09-15T00:11 | 15202 | 127 | 65 | 18.0 | ||
| 2013-09-15T00:11 | 15377 | 124 | -71.5 | |||
| 2013-09-15T00:12 | 15470 | 122 | -72.4 | |||
| 2013-09-15T00:12 | 15557 | 120 | -73.1 | |||
| 2013-09-15T00:12 | 15583 | 119 | 58 | 18.0 | ||
| 2013-09-15T00:13 | 16040 | 110 | 54 | 18.0 | ||
| 2013-09-15T00:13 | 16159 | 108 | -74.8 | |||
| 2013-09-15T00:14 | 16517 | 102 | 48 | 16.0 | ||
| 2013-09-15T00:14 | 16611 | 100 | -76.6 | 46 | 16.0 | |
| 2013-09-15T00:14 | 16715 | 98 | -75.7 | |||
| 2013-09-15T00:15 | 16976 | 94 | 43 | 19.0 | ||
| 2013-09-15T00:15 | 17013 | 93 | -75.1 | |||
| 2013-09-15T00:16 | 17362 | 88 | -74.5 | |||
| 2013-09-15T00:16 | 17420 | 87 | 58 | 15.0 | ||
| 2013-09-15T00:17 | 17825 | 81 | 63 | 13.0 | ||
| 2013-09-15T00:17 | 17839 | 81 | -71.6 | |||
| 2013-09-15T00:17 | 18002 | 79 | -71.0 | |||
| 2013-09-15T00:18 | 18254 | 76 | 104 | 9.0 | ||
| 2013-09-15T00:19 | 18563 | 72 | -74.5 | |||
| 2013-09-15T00:19 | 18672 | 70 | 82 | 8.0 | ||
| 2013-09-15T00:19 | 18733 | 70 | -73.2 | |||
| 2013-09-15T00:20 | 18922 | 67 | -70.1 | |||
| 2013-09-15T00:20 | 19028 | 66 | 73 | 13.0 | ||
| 2013-09-15T00:20 | 19110 | 65 | -69.2 | |||
| 2013-09-15T00:21 | 19394 | 62 | 86 | 10.0 | ||
| 2013-09-15T00:21 | 19460 | 62 | -66.4 | |||
| 2013-09-15T00:22 | 19782 | 58 | 62 | 10.0 | ||
| 2013-09-15T00:22 | 19808 | 58 | -67.9 | |||
| 2013-09-15T00:23 | 20091 | 55 | -66.7 | |||
| 2013-09-15T00:23 | 20180 | 55 | 72 | 12.0 | ||
| 2013-09-15T00:24 | 20400 | 53 | -68.4 | |||
| 2013-09-15T00:24 | 20582 | 51 | 75 | 12.0 | ||
| 2013-09-15T00:25 | 20955 | 48 | -63.9 | 68 | 13.0 | |
| 2013-09-15T00:26 | 21381 | 45 | -62.8 | 85 | 14.0 | |
| 2013-09-15T00:26 | 21583 | 43 | -63.5 | |||
| 2013-09-15T00:27 | 21712 | 43 | -62.8 | |||
| 2013-09-15T00:27 | 21802 | 42 | 100 | 11.0 | ||
| 2013-09-15T00:28 | 22102 | 40 | -61.6 | |||
| 2013-09-15T00:28 | 22196 | 39 | -61.0 | 71 | 12.0 | |
| 2013-09-15T00:28 | 22272 | 39 | -60.1 | |||
| 2013-09-15T00:29 | 22404 | 38 | -58.9 | |||
| 2013-09-15T00:29 | 22445 | 38 | -59.0 | |||
| 2013-09-15T00:29 | 22578 | 37 | -59.7 | |||
| 2013-09-15T00:29 | 22599 | 37 | 81 | 14.0 | ||
| 2013-09-15T00:30 | 22880 | 35 | -58.3 | |||
| 2013-09-15T00:30 | 23033 | 34 | 83 | 14.0 | ||
| 2013-09-15T00:30 | 23061 | 34 | -57.9 | |||
| 2013-09-15T00:30 | 23146 | 34 | -58.2 | |||
| 2013-09-15T00:31 | 23455 | 32 | 89 | 15.0 | ||
| 2013-09-15T00:31 | 23571 | 32 | -56.5 | |||
| 2013-09-15T00:31 | 23585 | 32 | -56.5 | |||
| 2013-09-15T00:32 | 23930 | 30 | -55.3 | |||
| 2013-09-15T00:33 | 24111 | 29 | -55.3 | |||
| 2013-09-15T00:33 | 24195 | 29 | -55.6 | |||
| 2013-09-15T00:33 | 24304 | 28 | 75 | 13.0 | ||
| 2013-09-15T00:33 | 24433 | 28 | -54.8 | |||
| 2013-09-15T00:34 | 24601 | 27 | -54.5 | |||
| 2013-09-15T00:34 | 24711 | 26 | 77 | 15.0 | ||
| 2013-09-15T00:35 | 25142 | 25 | 75 | 9.0 | ||
| 2013-09-15T00:35 | 25165 | 25 | -53.8 | |||
| 2013-09-15T00:35 | 25312 | 24 | -53.0 | |||
| 2013-09-15T00:36 | 25398 | 24 | -52.7 | |||
| 2013-09-15T00:36 | 25612 | 23 | 59 | 15.0 | ||
| 2013-09-15T00:37 | 26077 | 21 | 74 | 18.0 | ||
| 2013-09-15T00:37 | 26232 | 21 | -53.0 | |||
| 2013-09-15T00:38 | 26312 | 21 | -53.1 | |||
| 2013-09-15T00:38 | 26514 | 20 | 84 | 14.0 | ||
| 2013-09-15T00:38 | 26732 | 19 | -52.7 | |||
| 2013-09-15T00:39 | 26841 | 19 | -52.7 | |||
| 2013-09-15T00:39 | 26975 | 19 | 76 | 15.0 | ||
| 2013-09-15T00:39 | 26983 | 19 | -52.2 | |||
| 2013-09-15T00:39 | 27173 | 18 | -51.8 | |||
| 2013-09-15T00:40 | 27272 | 18 | -51.5 | |||
| 2013-09-15T00:40 | 27416 | 17 | -51.0 | |||
| 2013-09-15T00:40 | 27475 | 17 | 78 | 21.0 | ||
| 2013-09-15T00:41 | 27854 | 16 | -50.8 | |||
| 2013-09-15T00:41 | 27961 | 16 | 77 | 21.0 | ||
| 2013-09-15T00:42 | 28403 | 15 | 88 | 24.0 | ||
| 2013-09-15T00:42 | 28447 | 15 | -49.0 | |||
| 2013-09-15T00:43 | 28835 | 14 | -46.8 | 89 | 26.0 | |
| 2013-09-15T00:43 | 28961 | 14 | -46.5 | |||
| 2013-09-15T00:44 | 29060 | 14 | -46.3 | |||
| 2013-09-15T00:44 | 29298 | 13 | 98 | 27.0 | ||
| 2013-09-15T00:45 | 29567 | 13 | -44.2 | |||
| 2013-09-15T00:45 | 29727 | 12 | -43.6 | |||
| 2013-09-15T00:45 | 29802 | 12 | 102 | 24.0 | ||
| 2013-09-15T00:45 | 29961 | 12 | -43.0 | |||
| 2013-09-15T00:46 | 30164 | 11 | -43.5 | |||
| 2013-09-15T00:46 | 30269 | 11 | 107 | 28.0 | ||
| 2013-09-15T00:46 | 30329 | 11 | 108 | 28.0 | ||
| 2013-09-15T00:47 | 30660 | 11 | -42.6 | |||
| 2013-09-15T00:47 | 30805 | 10 | 101 | 20.0 | ||
| 2013-09-15T00:47 | 30965 | 10 | -43.5 | |||
| 2013-09-15T00:48 | 31294 | 10 | 105 | 22.0 | ||
| 2013-09-15T00:49 | 31564 | 9 | -43.2 | |||
| 2013-09-15T00:49 | 31815 | 9 | 112 | 19.0 | ||
| 2013-09-15T00:50 | 32331 | 8 | 102 | 15.0 | ||
| 2013-09-15T00:50 | 32471 | 8 | -44.1 | 63 | 19.0 | |
| 2013-09-15T11:30 | 9 | 1011 | 28.5 | 23.4 | 90 | 3.0 |
| 2013-09-15T11:30 | 27 | 1009 | 79 | 5.0 | ||
| 2013-09-15T11:30 | 86 | 1002 | 27.6 | 21.6 | ||
| 2013-09-15T11:31 | 351 | 973 | 92 | 4.0 | ||
| 2013-09-15T11:31 | 492 | 957 | 24.0 | 20.9 | ||
| 2013-09-15T11:32 | 599 | 946 | 23.2 | 20.5 | ||
| 2013-09-15T11:32 | 605 | 945 | 23.2 | 17.9 | ||
| 2013-09-15T11:32 | 708 | 934 | 81 | 5.0 | ||
| 2013-09-15T11:32 | 774 | 927 | 22.6 | 16.4 | ||
| 2013-09-15T11:32 | 812 | 923 | 86 | 5.0 | ||
| 2013-09-15T11:32 | 823 | 922 | 87 | 5.0 | ||
| 2013-09-15T11:33 | 920 | 911 | 21.9 | 13.8 | ||
| 2013-09-15T11:33 | 1035 | 899 | 95 | 5.0 | ||
| 2013-09-15T11:33 | 1074 | 895 | 20.7 | 14.4 | ||
| 2013-09-15T11:33 | 1141 | 888 | 20.4 | 13.6 | ||
| 2013-09-15T11:33 | 1170 | 886 | 20.3 | 11.8 | ||
| 2013-09-15T11:34 | 1318 | 870 | 18.9 | 13.7 | ||
| 2013-09-15T11:34 | 1377 | 865 | 100 | 4.0 | ||
| 2013-09-15T11:34 | 1389 | 863 | 18.8 | 12.3 | ||
| 2013-09-15T11:34 | 1476 | 855 | 18.0 | 12.5 | ||
| 2013-09-15T11:34 | 1539 | 848 | 17.6 | 12.9 | ||
| 2013-09-15T11:35 | 1654 | 837 | 17.2 | 10.6 | ||
| 2013-09-15T11:35 | 1694 | 833 | 17.1 | 9.3 | ||
| 2013-09-15T11:35 | 1723 | 830 | 87 | 4.0 | ||
| 2013-09-15T11:35 | 1781 | 825 | 16.8 | 9.0 | ||
| 2013-09-15T11:35 | 1793 | 824 | 16.7 | 10.1 | ||
| 2013-09-15T11:35 | 1816 | 821 | 16.7 | 8.7 | ||
| 2013-09-15T11:35 | 1893 | 814 | 16.7 | 8.9 | ||
| 2013-09-15T11:36 | 1922 | 811 | 16.7 | 8.1 | ||
| 2013-09-15T11:36 | 2010 | 803 | 16.6 | 5.8 | ||
| 2013-09-15T11:36 | 2022 | 802 | 16.6 | 6.4 | ||
| 2013-09-15T11:36 | 2074 | 797 | 90 | 5.0 | ||
| 2013-09-15T11:36 | 2125 | 792 | 16.5 | 0.2 | ||
| 2013-09-15T11:36 | 2160 | 789 | 16.3 | 2.7 | ||
| 2013-09-15T11:36 | 2241 | 782 | 15.8 | 3.6 | ||
| 2013-09-15T11:37 | 2293 | 777 | 15.7 | 0.7 | ||
| 2013-09-15T11:37 | 2391 | 768 | 15.3 | 0.7 | ||
| 2013-09-15T11:37 | 2420 | 765 | 91 | 5.0 | ||
| 2013-09-15T11:37 | 2443 | 763 | 15.1 | 0.5 | ||
| 2013-09-15T11:37 | 2584 | 750 | 14.8 | 2.3 | ||
| 2013-09-15T11:38 | 2647 | 745 | 14.4 | 4.1 | ||
| 2013-09-15T11:38 | 2767 | 734 | 89 | 7.0 | ||
| 2013-09-15T11:39 | 3134 | 703 | 12.0 | 1.0 | ||
| 2013-09-15T11:39 | 3245 | 694 | 11.9 | -2.3 | ||
| 2013-09-15T11:40 | 3470 | 676 | 10.7 | -1.1 | ||
| 2013-09-15T11:40 | 3506 | 673 | 82 | 6.0 | ||
| 2013-09-15T11:41 | 3866 | 644 | 7.2 | -2.8 | 75 | 5.0 |
| 2013-09-15T11:42 | 4126 | 624 | 5.2 | -4.6 | ||
| 2013-09-15T11:42 | 4212 | 617 | 5.1 | -8.1 | ||
| 2013-09-15T11:42 | 4231 | 616 | 61 | 8.0 | ||
| 2013-09-15T11:42 | 4256 | 614 | 5.2 | -13.2 | ||
| 2013-09-15T11:42 | 4343 | 607 | 4.8 | -12.2 | ||
| 2013-09-15T11:43 | 4455 | 599 | 4.0 | -10.1 | ||
| 2013-09-15T11:43 | 4554 | 592 | 3.6 | -10.4 | ||
| 2013-09-15T11:43 | 4604 | 588 | 64 | 10.0 | ||
| 2013-09-15T11:44 | 4966 | 562 | 1.8 | -16.2 | ||
| 2013-09-15T11:45 | 5234 | 544 | 0.9 | -22.9 | ||
| 2013-09-15T11:45 | 5337 | 537 | 53 | 12.0 | ||
| 2013-09-15T11:46 | 5607 | 519 | -1.1 | -22.5 | ||
| 2013-09-15T11:46 | 5697 | 513 | 47 | 12.0 | ||
| 2013-09-15T11:47 | 6054 | 491 | 44 | 12.0 | ||
| 2013-09-15T11:47 | 6159 | 484 | -5.5 | -22.4 | ||
| 2013-09-15T11:48 | 6387 | 470 | -6.9 | -26.7 | ||
| 2013-09-15T11:48 | 6399 | 469 | 57 | 11.0 | ||
| 2013-09-15T11:49 | 6743 | 449 | -9.0 | -34.2 | ||
| 2013-09-15T11:49 | 6754 | 448 | 63 | 12.0 | ||
| 2013-09-15T11:49 | 6887 | 441 | -9.4 | -37.7 | ||
| 2013-09-15T11:50 | 7081 | 430 | -10.4 | -47.6 | ||
| 2013-09-15T11:50 | 7121 | 428 | 65 | 14.0 | ||
| 2013-09-15T11:51 | 7401 | 412 | 65 | 16.0 | ||
| 2013-09-15T11:51 | 7421 | 411 | 64 | 16.0 | ||
| 2013-09-15T11:51 | 7487 | 408 | 65 | 16.0 | ||
| 2013-09-15T11:51 | 7526 | 406 | 66 | 16.0 | ||
| 2013-09-15T11:52 | 7843 | 389 | -16.2 | -43.0 | ||
| 2013-09-15T11:52 | 7899 | 386 | 62 | 13.0 | ||
| 2013-09-15T11:52 | 8078 | 377 | -17.2 | -52.4 | ||
| 2013-09-15T11:53 | 8274 | 367 | 50 | 13.0 | ||
| 2013-09-15T11:54 | 8493 | 356 | -20.8 | -49.1 | ||
| 2013-09-15T11:54 | 8657 | 349 | 48 | 14.0 | ||
| 2013-09-15T11:55 | 9024 | 332 | 54 | 15.0 | ||
| 2013-09-15T11:56 | 9378 | 316 | 54 | 14.0 | ||
| 2013-09-15T11:57 | 9828 | 296 | -32.4 | -53.0 | ||
| 2013-09-15T11:58 | 10120 | 284 | 45 | 11.0 | ||
| 2013-09-15T11:59 | 10510 | 269 | 56 | 10.0 | ||
| 2013-09-15T12:00 | 10758 | 259 | -40.0 | -59.2 | ||
| 2013-09-15T12:00 | 10905 | 254 | 62 | 10.0 | ||
| 2013-09-15T12:01 | 11305 | 239 | 86 | 9.0 | ||
| 2013-09-15T12:02 | 11685 | 226 | 84 | 10.0 | ||
| 2013-09-15T12:03 | 12021 | 214 | -50.1 | |||
| 2013-09-15T12:03 | 12059 | 213 | 103 | 10.0 | ||
| 2013-09-15T12:04 | 12460 | 200 | 99 | 11.0 | ||
| 2013-09-15T12:05 | 12861 | 188 | 91 | 9.0 | ||
| 2013-09-15T12:06 | 13205 | 178 | 74 | 11.0 | ||
| 2013-09-15T12:06 | 13343 | 174 | -61.0 | |||
| 2013-09-15T12:07 | 13449 | 171 | -59.6 | |||
| 2013-09-15T12:07 | 13540 | 169 | 76 | 10.0 | ||
| 2013-09-15T12:08 | 13870 | 160 | -61.4 | |||
| 2013-09-15T12:08 | 13941 | 158 | 63 | 12.0 | ||
| 2013-09-15T12:09 | 14304 | 149 | 71 | 14.0 | ||
| 2013-09-15T12:10 | 14710 | 139 | 86 | 13.0 | ||
| 2013-09-15T12:10 | 14772 | 138 | -68.3 | |||
| 2013-09-15T12:11 | 15183 | 129 | 74 | 8.0 | ||
| 2013-09-15T12:12 | 15568 | 121 | -72.9 | |||
| 2013-09-15T12:12 | 15639 | 119 | -73.3 | 65 | 15.0 | |
| 2013-09-15T12:13 | 16033 | 111 | -75.4 | 68 | 15.0 | |
| 2013-09-15T23:30 | 9 | 1010 | 30.1 | 23.8 | 60 | 3.0 |
| 2013-09-15T23:30 | 19 | 1009 | 28.3 | 20.6 | ||
| 2013-09-15T23:31 | 331 | 974 | 69 | 4.0 | ||
| 2013-09-15T23:31 | 344 | 973 | 69 | 4.0 | ||
| 2013-09-15T23:31 | 369 | 970 | 71 | 4.0 | ||
| 2013-09-15T23:31 | 412 | 965 | 24.6 | 20.1 | ||
| 2013-09-15T23:32 | 618 | 943 | 22.6 | 19.6 | ||
| 2013-09-15T23:32 | 695 | 935 | 82 | 3.0 | ||
| 2013-09-15T23:32 | 759 | 928 | 21.8 | 16.5 | ||
| 2013-09-15T23:33 | 856 | 917 | 21.4 | 15.5 | ||
| 2013-09-15T23:33 | 1032 | 899 | 95 | 3.0 | ||
| 2013-09-15T23:33 | 1065 | 896 | 20.4 | 12.9 | ||
| 2013-09-15T23:33 | 1153 | 887 | 20.2 | 12.9 | ||
| 2013-09-15T23:34 | 1234 | 878 | 19.8 | 11.3 | ||
| 2013-09-15T23:34 | 1261 | 876 | 19.6 | 11.9 | ||
| 2013-09-15T23:34 | 1314 | 870 | 19.5 | 9.4 | ||
| 2013-09-15T23:34 | 1327 | 869 | 19.5 | 10.2 | ||
| 2013-09-15T23:34 | 1366 | 865 | 19.5 | 9.1 | ||
| 2013-09-15T23:34 | 1433 | 858 | 64 | 3.0 | ||
| 2013-09-15T23:34 | 1466 | 855 | 18.9 | 10.2 | ||
| 2013-09-15T23:34 | 1472 | 854 | 18.8 | 11.6 | ||
| 2013-09-15T23:34 | 1537 | 848 | 18.6 | 8.3 | ||
| 2013-09-15T23:34 | 1606 | 841 | 18.0 | 11.1 | ||
| 2013-09-15T23:35 | 1631 | 839 | 17.9 | 11.5 | ||
| 2013-09-15T23:35 | 1657 | 836 | 17.8 | 10.7 | ||
| 2013-09-15T23:35 | 1695 | 833 | 17.8 | 8.1 | ||
| 2013-09-15T23:35 | 1721 | 830 | 17.6 | 9.2 | ||
| 2013-09-15T23:35 | 1796 | 823 | 17.4 | 7.2 | ||
| 2013-09-15T23:35 | 1815 | 821 | 17.4 | 8.0 | 75 | 3.0 |
| 2013-09-15T23:35 | 1908 | 812 | 17.1 | 6.6 | ||
| 2013-09-15T23:35 | 1951 | 808 | 16.9 | 6.1 | ||
| 2013-09-15T23:36 | 2023 | 801 | 16.2 | 9.8 | ||
| 2013-09-15T23:36 | 2065 | 797 | 16.1 | 10.0 | ||
| 2013-09-15T23:36 | 2130 | 791 | 15.9 | 7.9 | ||
| 2013-09-15T23:36 | 2177 | 787 | 65 | 3.0 | ||
| 2013-09-15T23:37 | 2550 | 753 | 70 | 4.0 | ||
| 2013-09-15T23:37 | 2642 | 745 | 13.5 | 2.1 | ||
| 2013-09-15T23:38 | 2912 | 721 | 79 | 5.0 | ||
| 2013-09-15T23:38 | 2972 | 716 | 11.6 | 1.8 | ||
| 2013-09-15T23:38 | 2995 | 714 | 11.5 | -1.0 | ||
| 2013-09-15T23:38 | 3031 | 711 | 11.5 | -1.3 | ||
| 2013-09-15T23:38 | 3043 | 710 | 11.4 | 0.5 | ||
| 2013-09-15T23:39 | 3180 | 699 | 10.5 | 0.8 | ||
| 2013-09-15T23:39 | 3258 | 692 | 53 | 6.0 | ||
| 2013-09-15T23:39 | 3269 | 691 | 10.4 | -1.0 | ||
| 2013-09-15T23:40 | 3456 | 676 | 9.7 | -1.7 | ||
| 2013-09-15T23:40 | 3599 | 664 | 39 | 5.0 | ||
| 2013-09-15T23:40 | 3745 | 653 | 8.4 | -5.5 | ||
| 2013-09-15T23:41 | 3936 | 638 | 44 | 8.0 | ||
| 2013-09-15T23:41 | 3970 | 635 | 7.7 | -11.1 | ||
| 2013-09-15T23:41 | 4009 | 632 | 7.4 | -8.6 | ||
| 2013-09-15T23:41 | 4032 | 631 | 42 | 8.0 | ||
| 2013-09-15T23:42 | 4150 | 622 | 6.4 | -12.2 | ||
| 2013-09-15T23:42 | 4271 | 612 | 39 | 7.0 | ||
| 2013-09-15T23:43 | 4615 | 587 | 63 | 6.0 | ||
| 2013-09-15T23:43 | 4720 | 580 | 2.9 | -18.5 | ||
| 2013-09-15T23:43 | 4777 | 576 | 2.4 | -15.2 | ||
| 2013-09-15T23:44 | 4834 | 571 | 1.9 | -17.1 | ||
| 2013-09-15T23:44 | 4993 | 560 | 75 | 6.0 | ||
| 2013-09-15T23:44 | 5115 | 552 | 0.8 | -22.2 | ||
| 2013-09-15T23:45 | 5329 | 537 | 0.1 | -22.1 | ||
| 2013-09-15T23:45 | 5381 | 534 | 78 | 7.0 | ||
| 2013-09-15T23:46 | 5664 | 515 | -2.5 | -26.4 | ||
| 2013-09-15T23:46 | 5746 | 510 | 78 | 7.0 | ||
| 2013-09-15T23:47 | 6094 | 488 | -6.5 | -27.6 | ||
| 2013-09-15T23:47 | 6113 | 487 | 55 | 9.0 | ||
| 2013-09-15T23:47 | 6175 | 483 | -6.5 | -31.3 | ||
| 2013-09-15T23:47 | 6213 | 480 | -6.1 | -39.8 | ||
| 2013-09-15T23:48 | 6362 | 471 | -6.4 | -36.7 | ||
| 2013-09-15T23:48 | 6473 | 465 | 44 | 10.0 | ||
| 2013-09-15T23:49 | 6679 | 453 | 57 | 11.0 | ||
| 2013-09-15T23:49 | 6685 | 452 | 57 | 11.0 | ||
| 2013-09-15T23:49 | 6837 | 443 | 50 | 10.0 | ||
| 2013-09-15T23:50 | 7074 | 430 | -10.9 | -48.0 | ||
| 2013-09-15T23:50 | 7208 | 422 | 47 | 7.0 | ||
| 2013-09-15T23:50 | 7330 | 416 | -12.6 | -49.2 | ||
| 2013-09-15T23:51 | 7575 | 403 | 49 | 9.0 | ||
| 2013-09-15T23:52 | 7944 | 383 | 52 | 8.0 | ||
| 2013-09-15T23:52 | 8012 | 380 | -17.9 | -56.3 | ||
| 2013-09-15T23:53 | 8318 | 364 | 54 | 9.0 | ||
| 2013-09-15T23:54 | 8684 | 347 | 53 | 7.0 | ||
| 2013-09-15T23:54 | 8696 | 346 | -23.0 | -59.8 | ||
| 2013-09-15T23:55 | 9036 | 331 | 82 | 9.0 | ||
| 2013-09-15T23:56 | 9387 | 315 | -27.8 | -68.3 | 95 | 9.0 |
| 2013-09-15T23:57 | 9762 | 299 | 92 | 10.0 | ||
| 2013-09-15T23:58 | 10165 | 282 | 89 | 10.0 | ||
| 2013-09-15T23:59 | 10557 | 267 | 76 | 12.0 | ||
| 2013-09-15T23:59 | 10611 | 264 | -38.1 | -70.4 | ||
| 2013-09-16T00:00 | 10841 | 256 | -40.0 | -68.9 | ||
| 2013-09-16T00:00 | 10962 | 251 | 75 | 15.0 | ||
| 2013-09-16T00:01 | 11367 | 237 | 79 | 18.0 | ||
| 2013-09-16T00:02 | 11686 | 226 | 83 | 20.0 | ||
| 2013-09-16T00:02 | 11692 | 225 | 83 | 20.0 | ||
| 2013-09-16T00:02 | 11733 | 224 | 84 | 20.0 | ||
| 2013-09-16T00:02 | 11773 | 223 | 84 | 20.0 | ||
| 2013-09-16T00:03 | 12125 | 211 | 78 | 18.0 | ||
| 2013-09-16T00:04 | 12515 | 199 | 80 | 15.0 | ||
| 2013-09-16T00:04 | 12612 | 196 | -55.2 | |||
| 2013-09-16T00:05 | 12904 | 187 | 78 | 12.0 | ||
| 2013-09-16T00:06 | 13267 | 176 | -60.5 | |||
| 2013-09-16T00:06 | 13298 | 175 | 75 | 11.0 | ||
| 2013-09-16T00:07 | 13661 | 165 | 60 | 10.0 | ||
| 2013-09-16T00:08 | 14009 | 156 | 51 | 12.0 | ||
| 2013-09-16T00:09 | 14341 | 148 | 66 | 14.0 | ||
| 2013-09-16T00:09 | 14530 | 143 | -69.5 | |||
| 2013-09-16T00:10 | 14747 | 138 | 63 | 17.0 | ||
| 2013-09-16T00:10 | 14927 | 134 | -72.7 | |||
| 2013-09-16T00:11 | 15129 | 129 | 58 | 21.0 | ||
| 2013-09-16T00:12 | 15545 | 120 | 61 | 24.0 | ||
| 2013-09-16T00:12 | 15705 | 117 | -75.4 | |||
| 2013-09-16T00:13 | 15960 | 112 | 51 | 27.0 | ||
| 2013-09-16T00:13 | 16049 | 110 | -73.3 | |||
| 2013-09-16T00:14 | 16288 | 106 | -73.7 | |||
| 2013-09-16T00:14 | 16415 | 104 | 60 | 16.0 | ||
| 2013-09-16T00:14 | 16623 | 100 | -76.3 | 57 | 14.0 | |
| 2013-09-16T00:15 | 16838 | 96 | 45 | 16.0 | ||
| 2013-09-16T00:15 | 16844 | 96 | -77.4 | |||
| 2013-09-16T00:16 | 17018 | 93 | -77.0 | |||
| 2013-09-16T00:16 | 17109 | 92 | -77.4 | |||
| 2013-09-16T00:16 | 17200 | 91 | -78.0 | 48 | 20.0 | |
| 2013-09-16T00:17 | 17553 | 85 | 56 | 19.0 | ||
| 2013-09-16T00:17 | 17592 | 85 | -76.9 | |||
| 2013-09-16T00:18 | 17902 | 80 | 64 | 19.0 | ||
| 2013-09-16T00:18 | 18005 | 79 | -70.5 | |||
| 2013-09-16T00:19 | 18364 | 74 | 85 | 14.0 | ||
| 2013-09-16T00:20 | 18671 | 70 | -73.6 | |||
| 2013-09-16T00:20 | 18738 | 70 | 84 | 17.0 | ||
| 2013-09-16T00:20 | 18813 | 69 | -71.9 | |||
| 2013-09-16T00:21 | 19118 | 65 | 91 | 13.0 | ||
| 2013-09-16T00:21 | 19207 | 64 | -73.7 | |||
| 2013-09-16T00:22 | 19492 | 61 | -71.3 | 72 | 11.0 | |
| 2013-09-16T00:23 | 19866 | 57 | 69 | 15.0 | ||
| 2013-09-16T00:24 | 20268 | 54 | 69 | 14.0 | ||
| 2013-09-16T00:24 | 20414 | 52 | -68.2 | |||
| 2013-09-16T00:25 | 20662 | 50 | 55 | 18.0 | ||
| 2013-09-16T00:26 | 20889 | 48 | -63.8 | |||
| 2013-09-16T00:26 | 21039 | 47 | 63 | 22.0 | ||
| 2013-09-16T00:27 | 21408 | 45 | 61 | 20.0 | ||
| 2013-09-16T00:28 | 21793 | 42 | 86 | 17.0 | ||
| 2013-09-16T00:28 | 21932 | 41 | -57.6 | |||
| 2013-09-16T00:29 | 22195 | 39 | 102 | 14.0 | ||
| 2013-09-16T00:29 | 22243 | 39 | -58.3 | |||
| 2013-09-16T00:29 | 22326 | 38 | -58.4 | |||
| 2013-09-16T00:30 | 22610 | 37 | 99 | 16.0 | ||
| 2013-09-16T00:31 | 23037 | 34 | 115 | 13.0 | ||
| 2013-09-16T00:32 | 23454 | 32 | 113 | 13.0 | ||
| 2013-09-16T00:33 | 23851 | 30 | -58.3 | |||
| 2013-09-16T00:33 | 23888 | 30 | 95 | 12.0 | ||
| 2013-09-16T00:34 | 24336 | 28 | 81 | 12.0 | ||
| 2013-09-16T00:35 | 24770 | 26 | 75 | 16.0 | ||
| 2013-09-16T00:36 | 25065 | 25 | -54.6 | |||
| 2013-09-16T00:36 | 25222 | 24 | 71 | 15.0 | ||
| 2013-09-16T00:37 | 25670 | 23 | 83 | 16.0 | ||
| 2013-09-16T00:37 | 25737 | 22 | -52.4 | |||
| 2013-09-16T00:37 | 25828 | 22 | -52.5 | |||
| 2013-09-16T00:38 | 25934 | 22 | -52.3 | |||
| 2013-09-16T00:38 | 26123 | 21 | 73 | 18.0 | ||
| 2013-09-16T00:39 | 26372 | 20 | -52.9 | |||
| 2013-09-16T00:39 | 26546 | 20 | -52.8 | |||
| 2013-09-16T00:39 | 26576 | 20 | 77 | 21.0 | ||
| 2013-09-16T00:40 | 27022 | 18 | 83 | 19.0 | ||
| 2013-09-16T00:40 | 27169 | 18 | -52.8 | |||
| 2013-09-16T00:40 | 27176 | 18 | -52.8 | |||
| 2013-09-16T00:41 | 27463 | 17 | 79 | 17.0 | ||
| 2013-09-16T00:41 | 27524 | 17 | -49.3 | |||
| 2013-09-16T00:42 | 27943 | 16 | 76 | 17.0 | ||
| 2013-09-16T00:43 | 28241 | 15 | -48.7 | |||
| 2013-09-16T00:43 | 28292 | 15 | -49.4 | 52 | 25.0 | |
| 2013-09-16T11:30 | 9 | 1010 | 28.6 | 24.2 | 110 | 5.0 |
| 2013-09-16T11:30 | 40 | 1006 | 28.1 | 22.8 | ||
| 2013-09-16T11:30 | 141 | 995 | 103 | 6.0 | ||
| 2013-09-16T11:31 | 366 | 970 | 104 | 6.0 | ||
| 2013-09-16T11:32 | 707 | 933 | 21.7 | 20.3 | ||
| 2013-09-16T11:32 | 718 | 932 | 97 | 5.0 | ||
| 2013-09-16T11:32 | 789 | 924 | 21.7 | 18.9 | ||
| 2013-09-16T11:32 | 825 | 920 | 21.8 | 18.2 | ||
| 2013-09-16T11:32 | 856 | 917 | 21.8 | 17.6 | ||
| 2013-09-16T11:33 | 1008 | 901 | 20.9 | 16.3 | ||
| 2013-09-16T11:33 | 1082 | 893 | 108 | 6.0 | ||
| 2013-09-16T11:33 | 1139 | 887 | 20.5 | 14.2 | ||
| 2013-09-16T11:34 | 1323 | 869 | 19.5 | 12.3 | ||
| 2013-09-16T11:34 | 1371 | 864 | 19.5 | 10.0 | ||
| 2013-09-16T11:34 | 1394 | 862 | 19.3 | 12.3 | ||
| 2013-09-16T11:34 | 1446 | 856 | 116 | 6.0 | ||
| 2013-09-16T11:34 | 1463 | 855 | 18.8 | 12.1 | ||
| 2013-09-16T11:34 | 1600 | 841 | 18.2 | 10.1 | ||
| 2013-09-16T11:35 | 1610 | 840 | 18.2 | 9.5 | ||
| 2013-09-16T11:35 | 1648 | 837 | 17.9 | 10.3 | ||
| 2013-09-16T11:35 | 1769 | 825 | 121 | 4.0 | ||
| 2013-09-16T11:35 | 1905 | 812 | 16.3 | 9.5 | ||
| 2013-09-16T11:36 | 1944 | 808 | 16.0 | 10.7 | ||
| 2013-09-16T11:36 | 1961 | 807 | 15.9 | 10.4 | ||
| 2013-09-16T11:36 | 2002 | 803 | 15.6 | 10.6 | ||
| 2013-09-16T11:36 | 2020 | 801 | 15.4 | 12.5 | ||
| 2013-09-16T11:36 | 2026 | 800 | 15.4 | 11.0 | ||
| 2013-09-16T11:36 | 2056 | 798 | 15.2 | 12.0 | ||
| 2013-09-16T11:36 | 2068 | 796 | 15.1 | 10.7 | ||
| 2013-09-16T11:36 | 2086 | 795 | 14.9 | 9.5 | ||
| 2013-09-16T11:36 | 2110 | 793 | 14.8 | 9.6 | 120 | 3.0 |
| 2013-09-16T11:36 | 2234 | 781 | 14.7 | 8.9 | ||
| 2013-09-16T11:37 | 2314 | 774 | 14.5 | 7.5 | ||
| 2013-09-16T11:37 | 2393 | 766 | 14.9 | 7.7 | ||
| 2013-09-16T11:37 | 2416 | 764 | 14.8 | 5.3 | ||
| 2013-09-16T11:37 | 2456 | 761 | 77 | 4.0 | ||
| 2013-09-16T11:38 | 2825 | 728 | 90 | 5.0 | ||
| 2013-09-16T11:38 | 2844 | 727 | 12.7 | 2.5 | ||
| 2013-09-16T11:39 | 3196 | 697 | 10.2 | 2.5 | 59 | 3.0 |
| 2013-09-16T11:39 | 3215 | 695 | 10.1 | 0.4 | ||
| 2013-09-16T11:39 | 3375 | 682 | 9.0 | 0.4 | ||
| 2013-09-16T11:40 | 3567 | 666 | 47 | 3.0 | ||
| 2013-09-16T11:40 | 3635 | 661 | 7.1 | 0.8 | ||
| 2013-09-16T11:40 | 3685 | 657 | 6.7 | 1.0 | ||
| 2013-09-16T11:40 | 3735 | 653 | 6.5 | 1.2 | ||
| 2013-09-16T11:41 | 3754 | 651 | 6.7 | -2.2 | ||
| 2013-09-16T11:41 | 3821 | 646 | 6.8 | -3.7 | ||
| 2013-09-16T11:41 | 3900 | 640 | 6.9 | -6.8 | ||
| 2013-09-16T11:41 | 3912 | 639 | 6.8 | -3.7 | ||
| 2013-09-16T11:41 | 3924 | 638 | 6.7 | -1.2 | ||
| 2013-09-16T11:41 | 3936 | 637 | 90 | 4.0 | ||
| 2013-09-16T11:41 | 4045 | 629 | 5.6 | -2.2 | ||
| 2013-09-16T11:42 | 4118 | 623 | 5.3 | -5.7 | ||
| 2013-09-16T11:42 | 4171 | 619 | 5.2 | -5.2 | ||
| 2013-09-16T11:42 | 4183 | 618 | 5.3 | -5.7 | ||
| 2013-09-16T11:42 | 4213 | 616 | 5.6 | -16.9 | ||
| 2013-09-16T11:42 | 4297 | 610 | 6.0 | -46.6 | 52 | 4.0 |
| 2013-09-16T11:42 | 4303 | 609 | 6.0 | -46.6 | ||
| 2013-09-16T11:43 | 4512 | 594 | 5.0 | -36.8 | ||
| 2013-09-16T11:43 | 4555 | 590 | 4.6 | -23.4 | ||
| 2013-09-16T11:43 | 4636 | 585 | 3.8 | -22.2 | ||
| 2013-09-16T11:43 | 4660 | 583 | 44 | 6.0 | ||
| 2013-09-16T11:43 | 4710 | 579 | 3.1 | -20.3 | ||
| 2013-09-16T11:44 | 4895 | 566 | 1.4 | -15.6 | ||
| 2013-09-16T11:44 | 5032 | 557 | 44 | 6.0 | ||
| 2013-09-16T11:44 | 5188 | 546 | -1.4 | -17.2 | ||
| 2013-09-16T11:45 | 5309 | 538 | -1.7 | -21.8 | ||
| 2013-09-16T11:45 | 5373 | 533 | -1.6 | -27.4 | ||
| 2013-09-16T11:45 | 5411 | 531 | 41 | 7.0 | ||
| 2013-09-16T11:46 | 5798 | 505 | 40 | 8.0 | ||
| 2013-09-16T11:46 | 5843 | 503 | -5.4 | -31.3 | ||
| 2013-09-16T11:47 | 6011 | 492 | -6.0 | -30.9 | ||
| 2013-09-16T11:47 | 6065 | 489 | -6.4 | -31.2 | ||
| 2013-09-16T11:47 | 6168 | 482 | 55 | 7.0 | ||
| 2013-09-16T11:47 | 6254 | 477 | -6.8 | -40.3 | ||
| 2013-09-16T11:48 | 6540 | 460 | 42 | 9.0 | ||
| 2013-09-16T11:48 | 6585 | 457 | -7.0 | -54.8 | ||
| 2013-09-16T11:49 | 6919 | 438 | 45 | 10.0 | ||
| 2013-09-16T11:49 | 6938 | 437 | -8.4 | -55.7 | ||
| 2013-09-16T11:50 | 7150 | 425 | -9.2 | -56.2 | ||
| 2013-09-16T11:50 | 7291 | 417 | 47 | 11.0 | ||
| 2013-09-16T11:51 | 7542 | 404 | -12.2 | -36.7 | ||
| 2013-09-16T11:51 | 7645 | 398 | 55 | 12.0 | ||
| 2013-09-16T11:52 | 8018 | 379 | 56 | 13.0 | ||
| 2013-09-16T11:53 | 8338 | 363 | -18.5 | -35.5 | ||
| 2013-09-16T11:53 | 8413 | 360 | 63 | 14.0 | ||
| 2013-09-16T11:53 | 8592 | 351 | 56 | 15.0 | ||
| 2013-09-16T11:54 | 8712 | 345 | -21.0 | -40.9 | ||
| 2013-09-16T11:54 | 8789 | 342 | 48 | 14.0 | ||
| 2013-09-16T11:54 | 8930 | 335 | -21.6 | -47.2 | ||
| 2013-09-16T11:55 | 9162 | 325 | 63 | 11.0 | ||
| 2013-09-16T11:56 | 9550 | 308 | 78 | 10.0 | ||
| 2013-09-16T11:57 | 9961 | 291 | 80 | 13.0 | ||
| 2013-09-16T11:57 | 10134 | 284 | -31.8 | -53.3 | ||
| 2013-09-16T11:58 | 10340 | 276 | 74 | 13.0 | ||
| 2013-09-16T11:59 | 10717 | 261 | 69 | 14.0 | ||
| 2013-09-16T12:00 | 11008 | 250 | -39.6 | -55.4 | ||
| 2013-09-16T12:00 | 11064 | 248 | -40.0 | -56.2 | ||
| 2013-09-16T12:00 | 11126 | 246 | 73 | 18.0 | ||
| 2013-09-16T12:01 | 11523 | 232 | 72 | 23.0 | ||
| 2013-09-16T12:01 | 11649 | 228 | 74 | 23.0 | ||
| 2013-09-16T12:01 | 11655 | 227 | 74 | 23.0 | ||
| 2013-09-16T12:02 | 11784 | 223 | -45.7 | |||
| 2013-09-16T12:02 | 11895 | 219 | 73 | 22.0 | ||
| 2013-09-16T12:03 | 12270 | 207 | 77 | 22.0 | ||
| 2013-09-16T12:04 | 12637 | 196 | 74 | 23.0 | ||
| 2013-09-16T12:04 | 12726 | 193 | -54.0 | |||
| 2013-09-16T12:05 | 13019 | 184 | 72 | 27.0 | ||
| 2013-09-16T12:06 | 13212 | 179 | 75 | 29.0 | ||
| 2013-09-16T12:06 | 13374 | 174 | 76 | 28.0 | ||
| 2013-09-16T12:06 | 13472 | 171 | -60.8 | |||
| 2013-09-16T12:07 | 13573 | 169 | 76 | 29.0 | ||
| 2013-09-16T12:07 | 13592 | 168 | 75 | 29.0 | ||
| 2013-09-16T12:07 | 13751 | 164 | 75 | 26.0 | ||
| 2013-09-16T12:08 | 14109 | 155 | -66.1 | |||
| 2013-09-16T12:08 | 14218 | 152 | 80 | 21.0 | ||
| 2013-09-16T12:09 | 14660 | 141 | 75 | 21.0 | ||
| 2013-09-16T12:10 | 14939 | 134 | -73.5 | |||
| 2013-09-16T12:10 | 15080 | 131 | 64 | 24.0 | ||
| 2013-09-16T12:11 | 15427 | 124 | -74.3 | 68 | 29.0 | |
| 2013-09-16T12:11 | 15442 | 123 | 68 | 29.0 | ||
| 2013-09-16T12:11 | 15503 | 122 | 69 | 29.0 | ||
| 2013-09-16T12:11 | 15682 | 118 | -75.0 | |||
| 2013-09-16T12:12 | 15838 | 115 | -75.8 | |||
| 2013-09-16T12:12 | 15971 | 113 | 73 | 20.0 | ||
| 2013-09-16T12:13 | 16222 | 108 | -77.7 | |||
| 2013-09-16T12:13 | 16359 | 105 | -76.1 | |||
| 2013-09-16T12:13 | 16451 | 104 | 54 | 19.0 | ||
| 2013-09-16T12:13 | 16502 | 103 | -76.1 | |||
| 2013-09-16T12:13 | 16586 | 101 | -76.2 | 53 | 20.0 | |
| 2013-09-16T23:30 | 9 | 1009 | 29.9 | 24.5 | 80 | 5.0 |
| 2013-09-16T23:30 | 19 | 1008 | 28.4 | 20.7 | ||
| 2013-09-16T23:31 | 207 | 987 | 86 | 6.0 | ||
| 2013-09-16T23:31 | 212 | 986 | 85 | 6.0 | ||
| 2013-09-16T23:31 | 222 | 985 | 83 | 6.0 | ||
| 2013-09-16T23:31 | 295 | 977 | 81 | 6.0 | ||
| 2013-09-16T23:31 | 435 | 962 | 24.2 | 20.7 | ||
| 2013-09-16T23:32 | 611 | 943 | 93 | 6.0 | ||
| 2013-09-16T23:33 | 838 | 919 | 21.4 | 17.4 | ||
| 2013-09-16T23:33 | 953 | 906 | 94 | 5.0 | ||
| 2013-09-16T23:33 | 1069 | 894 | 20.3 | 15.1 | ||
| 2013-09-16T23:33 | 1104 | 891 | 20.2 | 15.2 | ||
| 2013-09-16T23:34 | 1299 | 871 | 86 | 5.0 | ||
| 2013-09-16T23:35 | 1599 | 841 | 17.3 | 13.0 | ||
| 2013-09-16T23:35 | 1659 | 835 | 16.9 | 12.2 | 94 | 5.0 |
| 2013-09-16T23:36 | 1840 | 817 | 15.8 | 11.0 | ||
| 2013-09-16T23:36 | 1858 | 816 | 15.8 | 12.2 | ||
| 2013-09-16T23:36 | 1875 | 814 | 15.7 | 10.2 | ||
| 2013-09-16T23:36 | 1916 | 810 | 15.5 | 11.7 | ||
| 2013-09-16T23:36 | 1951 | 807 | 15.3 | 11.3 | ||
| 2013-09-16T23:36 | 1974 | 805 | 15.1 | 12.6 | ||
| 2013-09-16T23:36 | 2009 | 801 | 86 | 4.0 | ||
| 2013-09-16T23:36 | 2033 | 799 | 14.8 | 12.7 | ||
| 2013-09-16T23:36 | 2061 | 797 | 14.9 | 10.3 | ||
| 2013-09-16T23:36 | 2079 | 795 | 14.9 | 8.6 | ||
| 2013-09-16T23:36 | 2101 | 793 | 14.9 | 8.6 | ||
| 2013-09-16T23:36 | 2118 | 791 | 14.8 | 12.1 | ||
| 2013-09-16T23:37 | 2180 | 785 | 14.8 | 9.4 | ||
| 2013-09-16T23:37 | 2214 | 782 | 14.7 | 9.1 | ||
| 2013-09-16T23:37 | 2225 | 781 | 14.7 | 8.2 | ||
| 2013-09-16T23:37 | 2276 | 776 | 14.6 | 9.2 | ||
| 2013-09-16T23:37 | 2327 | 772 | 14.3 | 7.8 | ||
| 2013-09-16T23:37 | 2350 | 770 | 14.1 | 10.1 | 72 | 5.0 |
| 2013-09-16T23:37 | 2413 | 764 | 13.9 | 9.5 | ||
| 2013-09-16T23:38 | 2583 | 749 | 13.2 | 6.8 | ||
| 2013-09-16T23:38 | 2697 | 739 | 74 | 5.0 | ||
| 2013-09-16T23:38 | 2841 | 726 | 12.3 | 5.5 | ||
| 2013-09-16T23:39 | 2896 | 721 | 12.1 | 3.6 | ||
| 2013-09-16T23:39 | 2978 | 714 | 11.7 | 4.4 | ||
| 2013-09-16T23:39 | 3028 | 710 | 86 | 5.0 | ||
| 2013-09-16T23:39 | 3100 | 704 | 10.9 | 5.0 | ||
| 2013-09-16T23:40 | 3207 | 695 | 10.4 | 3.0 | ||
| 2013-09-16T23:40 | 3372 | 681 | 75 | 5.0 | ||
| 2013-09-16T23:40 | 3527 | 669 | 7.8 | 3.8 | ||
| 2013-09-16T23:41 | 3610 | 662 | 7.6 | 1.0 | ||
| 2013-09-16T23:41 | 3679 | 656 | 7.4 | -1.8 | ||
| 2013-09-16T23:41 | 3726 | 653 | 96 | 5.0 | ||
| 2013-09-16T23:41 | 3755 | 650 | 6.8 | -0.9 | ||
| 2013-09-16T23:41 | 3837 | 644 | 6.1 | 2.4 | ||
| 2013-09-16T23:41 | 3872 | 641 | 5.8 | 2.4 | ||
| 2013-09-16T23:42 | 3931 | 637 | 5.6 | 1.7 | ||
| 2013-09-16T23:42 | 3967 | 634 | 5.4 | 2.6 | ||
| 2013-09-16T23:42 | 3985 | 633 | 5.4 | -0.4 | ||
| 2013-09-16T23:42 | 3997 | 632 | 5.4 | -0.9 | ||
| 2013-09-16T23:42 | 4033 | 629 | 5.1 | -1.4 | ||
| 2013-09-16T23:42 | 4045 | 628 | 5.1 | 0.1 | ||
| 2013-09-16T23:42 | 4057 | 627 | 5.0 | 2.4 | ||
| 2013-09-16T23:42 | 4081 | 625 | 92 | 6.0 | ||
| 2013-09-16T23:42 | 4093 | 624 | 4.7 | 1.0 | ||
| 2013-09-16T23:42 | 4111 | 623 | 4.8 | 0.6 | ||
| 2013-09-16T23:42 | 4117 | 622 | 4.8 | -1.6 | ||
| 2013-09-16T23:42 | 4200 | 616 | 4.6 | -2.1 | ||
| 2013-09-16T23:42 | 4241 | 613 | 4.5 | -4.0 | ||
| 2013-09-16T23:43 | 4258 | 612 | 4.6 | -4.9 | ||
| 2013-09-16T23:43 | 4270 | 611 | 4.7 | -3.1 | ||
| 2013-09-16T23:43 | 4281 | 610 | 4.8 | -5.3 | ||
| 2013-09-16T23:43 | 4304 | 608 | 4.9 | -3.1 | ||
| 2013-09-16T23:43 | 4327 | 607 | 5.0 | -8.5 | ||
| 2013-09-16T23:43 | 4371 | 603 | 5.0 | -10.7 | ||
| 2013-09-16T23:43 | 4387 | 602 | 4.9 | -7.9 | ||
| 2013-09-16T23:43 | 4425 | 599 | 92 | 8.0 | ||
| 2013-09-16T23:43 | 4468 | 596 | 94 | 8.0 | ||
| 2013-09-16T23:43 | 4479 | 595 | 95 | 8.0 | ||
| 2013-09-16T23:43 | 4506 | 593 | 4.2 | -13.2 | ||
| 2013-09-16T23:44 | 4751 | 576 | 77 | 6.0 | ||
| 2013-09-16T23:44 | 4768 | 574 | 2.5 | -14.6 | ||
| 2013-09-16T23:44 | 4790 | 573 | 2.6 | -19.4 | ||
| 2013-09-16T23:45 | 4927 | 563 | 1.7 | -17.8 | ||
| 2013-09-16T23:45 | 5095 | 552 | 56 | 5.0 | ||
| 2013-09-16T23:45 | 5242 | 541 | -0.8 | -20.4 | ||
| 2013-09-16T23:46 | 5290 | 538 | -1.1 | -21.8 | ||
| 2013-09-16T23:46 | 5451 | 527 | -2.3 | -19.2 | 63 | 5.0 |
| 2013-09-16T23:47 | 5789 | 505 | 60 | 8.0 | ||
| 2013-09-16T23:47 | 5928 | 496 | -5.3 | -26.6 | ||
| 2013-09-16T23:48 | 6015 | 491 | -6.0 | -23.3 | ||
| 2013-09-16T23:48 | 6117 | 485 | 51 | 12.0 | ||
| 2013-09-16T23:48 | 6143 | 483 | -6.8 | -24.5 | ||
| 2013-09-16T23:48 | 6190 | 480 | -7.1 | -30.1 | ||
| 2013-09-16T23:48 | 6216 | 478 | -7.1 | -30.9 | ||
| 2013-09-16T23:49 | 6303 | 473 | -7.2 | -36.0 | ||
| 2013-09-16T23:49 | 6319 | 472 | -7.2 | -28.8 | ||
| 2013-09-16T23:49 | 6330 | 471 | -7.3 | -27.6 | ||
| 2013-09-16T23:49 | 6367 | 469 | -7.3 | -36.1 | ||
| 2013-09-16T23:49 | 6431 | 465 | 48 | 11.0 | ||
| 2013-09-16T23:49 | 6529 | 460 | -7.7 | -37.7 | ||
| 2013-09-16T23:49 | 6551 | 458 | -7.8 | -28.0 | ||
| 2013-09-16T23:50 | 6611 | 455 | -8.0 | -28.8 | ||
| 2013-09-16T23:50 | 6644 | 453 | -8.1 | -24.3 | ||
| 2013-09-16T23:50 | 6758 | 446 | 56 | 14.0 | ||
| 2013-09-16T23:50 | 6851 | 441 | -8.9 | -21.9 | ||
| 2013-09-16T23:50 | 6879 | 439 | -9.0 | -20.4 | ||
| 2013-09-16T23:51 | 6968 | 434 | -9.0 | -22.0 | ||
| 2013-09-16T23:51 | 7092 | 427 | 50 | 15.0 | ||
| 2013-09-16T23:51 | 7249 | 419 | -11.0 | -22.0 | ||
| 2013-09-16T23:52 | 7438 | 409 | 43 | 14.0 | ||
| 2013-09-16T23:53 | 7645 | 398 | -14.0 | -24.1 | ||
| 2013-09-16T23:53 | 7779 | 391 | 34 | 16.0 | ||
| 2013-09-16T23:53 | 7877 | 386 | -15.4 | -26.0 | ||
| 2013-09-16T23:54 | 7990 | 380 | 30 | 17.0 | ||
| 2013-09-16T23:54 | 8154 | 372 | 26 | 16.0 | ||
| 2013-09-16T23:54 | 8267 | 366 | -18.3 | -29.4 | ||
| 2013-09-16T23:55 | 8524 | 354 | 22 | 15.0 | ||
| 2013-09-16T23:55 | 8664 | 347 | -21.5 | -30.5 | ||
| 2013-09-16T23:56 | 8751 | 343 | -22.1 | -31.1 | ||
| 2013-09-16T23:56 | 8895 | 336 | 17 | 13.0 | ||
| 2013-09-16T23:56 | 9068 | 328 | -24.4 | -34.2 | ||
| 2013-09-16T23:57 | 9256 | 320 | 16 | 12.0 | ||
| 2013-09-16T23:58 | 9598 | 305 | -28.5 | -38.2 | ||
| 2013-09-16T23:58 | 9616 | 304 | 19 | 12.0 | ||
| 2013-09-16T23:59 | 9985 | 289 | 28 | 13.0 | ||
| 2013-09-16T23:59 | 10144 | 282 | -33.1 | -42.9 | ||
| 2013-09-17T00:00 | 10338 | 275 | 30 | 13.0 | ||
| 2013-09-17T00:01 | 10537 | 267 | -36.5 | -44.8 | ||
| 2013-09-17T00:01 | 10660 | 262 | 40 | 11.0 | ||
| 2013-09-17T00:02 | 10927 | 252 | -40.0 | -47.8 | ||
| 2013-09-17T00:03 | 11340 | 237 | 40 | 14.0 | ||
| 2013-09-17T00:04 | 11707 | 225 | 51 | 14.0 | ||
| 2013-09-17T00:04 | 11900 | 218 | -47.7 | |||
| 2013-09-17T00:05 | 12115 | 211 | 62 | 17.0 | ||
| 2013-09-17T00:06 | 12515 | 199 | 73 | 20.0 | ||
| 2013-09-17T00:07 | 12938 | 186 | 77 | 25.0 | ||
| 2013-09-17T00:08 | 13335 | 174 | 69 | 31.0 | ||
| 2013-09-17T00:09 | 13539 | 169 | -62.5 | |||
| 2013-09-17T00:09 | 13709 | 164 | 69 | 35.0 | ||
| 2013-09-17T00:10 | 14085 | 154 | 70 | 41.0 | ||
| 2013-09-17T00:11 | 14321 | 148 | 72 | 43.0 | ||
| 2013-09-17T00:11 | 14455 | 145 | 73 | 42.0 | ||
| 2013-09-17T00:11 | 14600 | 141 | -71.2 | |||
| 2013-09-17T00:12 | 14809 | 136 | 73 | 32.0 | ||
| 2013-09-17T00:13 | 15055 | 131 | -71.5 | |||
| 2013-09-17T00:13 | 15178 | 128 | 74 | 24.0 | ||
| 2013-09-17T00:14 | 15535 | 121 | 64 | 19.0 | ||
| 2013-09-17T00:15 | 15724 | 117 | -74.3 | |||
| 2013-09-17T00:15 | 15886 | 114 | 55 | 14.0 | ||
| 2013-09-17T00:16 | 16244 | 107 | 32 | 17.0 | ||
| 2013-09-17T00:16 | 16350 | 105 | -77.3 | |||
| 2013-09-17T00:17 | 16614 | 100 | -78.5 | 40 | 21.0 | |
| 2013-09-17T00:18 | 16885 | 95 | -79.0 | |||
| 2013-09-17T00:18 | 16973 | 94 | 51 | 26.0 | ||
| 2013-09-17T00:19 | 17281 | 89 | -78.9 | |||
| 2013-09-17T00:19 | 17347 | 88 | 56 | 26.0 | ||
| 2013-09-17T00:20 | 17738 | 82 | 59 | 25.0 | ||
| 2013-09-17T00:21 | 18084 | 77 | -75.2 | |||
| 2013-09-17T00:21 | 18161 | 76 | 67 | 23.0 | ||
| 2013-09-17T00:21 | 18334 | 74 | -72.1 | |||
| 2013-09-17T00:22 | 18526 | 72 | 70 | 20.0 | ||
| 2013-09-17T00:23 | 18908 | 67 | 68 | 21.0 | ||
| 2013-09-17T00:24 | 19235 | 64 | -68.7 | |||
| 2013-09-17T00:24 | 19277 | 63 | 77 | 19.0 | ||
| 2013-09-17T00:25 | 19526 | 61 | -63.6 | |||
| 2013-09-17T00:25 | 19647 | 60 | 80 | 15.0 | ||
| 2013-09-17T00:26 | 20040 | 56 | 84 | 17.0 | ||
| 2013-09-17T00:27 | 20319 | 53 | -66.9 | |||
| 2013-09-17T00:27 | 20435 | 52 | 91 | 17.0 | ||
| 2013-09-17T00:28 | 20794 | 49 | -64.8 | |||
| 2013-09-17T00:28 | 20814 | 49 | 87 | 16.0 | ||
| 2013-09-17T00:29 | 21206 | 46 | 90 | 15.0 | ||
| 2013-09-17T00:30 | 21494 | 44 | -60.7 | |||
| 2013-09-17T00:30 | 21585 | 43 | 76 | 22.0 | ||
| 2013-09-17T00:31 | 21999 | 41 | 109 | 17.0 | ||
| 2013-09-17T00:32 | 22244 | 39 | -58.2 | |||
| 2013-09-17T00:32 | 22424 | 38 | 86 | 15.0 | ||
| 2013-09-17T00:33 | 22737 | 36 | -57.5 | |||
| 2013-09-17T00:33 | 22839 | 36 | -58.0 | |||
| 2013-09-17T00:34 | 23274 | 33 | 99 | 18.0 | ||
| 2013-09-17T00:35 | 23737 | 31 | -57.3 | 104 | 15.0 | |
| 2013-09-17T00:36 | 24190 | 29 | 84 | 14.0 | ||
| 2013-09-17T00:36 | 24257 | 28 | -57.1 | 72 | 15.0 | |
| 2013-09-17T11:30 | 9 | 1008 | 28.7 | 25.3 | 70 | 5.0 |
| 2013-09-17T11:30 | 15 | 1007 | 28.4 | 24.0 | ||
| 2013-09-17T11:31 | 296 | 976 | 63 | 6.0 | ||
| 2013-09-17T11:31 | 415 | 963 | 63 | 7.0 | ||
| 2013-09-17T11:31 | 425 | 962 | 63 | 7.0 | ||
| 2013-09-17T11:31 | 435 | 961 | 62 | 7.0 | ||
| 2013-09-17T11:31 | 440 | 960 | 62 | 7.0 | ||
| 2013-09-17T11:32 | 498 | 954 | 23.5 | 21.8 | ||
| 2013-09-17T11:32 | 632 | 940 | 72 | 6.0 | ||
| 2013-09-17T11:33 | 1001 | 901 | 87 | 6.0 | ||
| 2013-09-17T11:33 | 1069 | 894 | 20.1 | 17.3 | ||
| 2013-09-17T11:34 | 1206 | 880 | 19.0 | 16.6 | ||
| 2013-09-17T11:34 | 1310 | 869 | 74 | 6.0 | ||
| 2013-09-17T11:35 | 1608 | 839 | 17.2 | 14.7 | ||
| 2013-09-17T11:35 | 1704 | 830 | 16.7 | 15.2 | ||
| 2013-09-17T11:35 | 1748 | 826 | 77 | 5.0 | ||
| 2013-09-17T11:36 | 2125 | 790 | 78 | 4.0 | ||
| 2013-09-17T11:36 | 2171 | 786 | 15.2 | 12.5 | ||
| 2013-09-17T11:37 | 2501 | 756 | 84 | 4.0 | ||
| 2013-09-17T11:37 | 2519 | 754 | 13.7 | 11.2 | ||
| 2013-09-17T11:37 | 2561 | 751 | 13.4 | 10.8 | ||
| 2013-09-17T11:37 | 2616 | 746 | 13.2 | 10.0 | ||
| 2013-09-17T11:38 | 2711 | 737 | 12.8 | 8.7 | ||
| 2013-09-17T11:38 | 2829 | 727 | 11.8 | 9.2 | ||
| 2013-09-17T11:38 | 2858 | 724 | 75 | 5.0 | ||
| 2013-09-17T11:39 | 3067 | 707 | 10.3 | 8.9 | ||
| 2013-09-17T11:39 | 3142 | 700 | 10.0 | 8.4 | ||
| 2013-09-17T11:39 | 3204 | 695 | 73 | 5.0 | ||
| 2013-09-17T11:39 | 3276 | 689 | 9.7 | 6.4 | ||
| 2013-09-17T11:39 | 3303 | 687 | 9.5 | 6.9 | ||
| 2013-09-17T11:40 | 3368 | 682 | 9.3 | 4.1 | ||
| 2013-09-17T11:40 | 3401 | 679 | 9.0 | 6.4 | ||
| 2013-09-17T11:40 | 3519 | 669 | 8.4 | 4.0 | ||
| 2013-09-17T11:40 | 3536 | 668 | 60 | 5.0 | ||
| 2013-09-17T11:40 | 3547 | 667 | 8.3 | 4.5 | ||
| 2013-09-17T11:40 | 3623 | 661 | 8.0 | 2.7 | ||
| 2013-09-17T11:40 | 3676 | 657 | 7.7 | 2.8 | ||
| 2013-09-17T11:41 | 3765 | 650 | 7.2 | 2.5 | ||
| 2013-09-17T11:41 | 3806 | 647 | 7.0 | 0.7 | ||
| 2013-09-17T11:41 | 3865 | 642 | 6.4 | 1.5 | ||
| 2013-09-17T11:41 | 3888 | 640 | 50 | 6.0 | ||
| 2013-09-17T11:41 | 3979 | 633 | 5.6 | 0.2 | ||
| 2013-09-17T11:41 | 3990 | 632 | 5.6 | 2.4 | ||
| 2013-09-17T11:41 | 4007 | 631 | 5.5 | -0.8 | ||
| 2013-09-17T11:42 | 4091 | 625 | 5.1 | 1.0 | ||
| 2013-09-17T11:42 | 4118 | 623 | 5.0 | -1.7 | ||
| 2013-09-17T11:42 | 4146 | 620 | 4.8 | 0.2 | ||
| 2013-09-17T11:42 | 4162 | 619 | 4.7 | 1.7 | ||
| 2013-09-17T11:42 | 4199 | 616 | 60 | 7.0 | ||
| 2013-09-17T11:42 | 4215 | 615 | 61 | 7.0 | ||
| 2013-09-17T11:42 | 4231 | 614 | 62 | 7.0 | ||
| 2013-09-17T11:42 | 4323 | 607 | 3.9 | -0.1 | ||
| 2013-09-17T11:43 | 4461 | 597 | 2.7 | -0.9 | ||
| 2013-09-17T11:43 | 4513 | 593 | 2.4 | -0.5 | ||
| 2013-09-17T11:43 | 4547 | 591 | 2.2 | -1.2 | ||
| 2013-09-17T11:43 | 4553 | 590 | 48 | 5.0 | ||
| 2013-09-17T11:43 | 4622 | 585 | 1.9 | -1.5 | ||
| 2013-09-17T11:43 | 4691 | 580 | 1.8 | -2.2 | ||
| 2013-09-17T11:44 | 4743 | 577 | 1.7 | -5.2 | ||
| 2013-09-17T11:44 | 4767 | 575 | 1.5 | -4.2 | ||
| 2013-09-17T11:44 | 4894 | 566 | 0.7 | -4.3 | ||
| 2013-09-17T11:44 | 4907 | 565 | 54 | 3.0 | ||
| 2013-09-17T11:44 | 4945 | 562 | 0.4 | -6.0 | ||
| 2013-09-17T11:44 | 5004 | 558 | 0.0 | -8.0 | ||
| 2013-09-17T11:44 | 5017 | 557 | -0.1 | -4.7 | ||
| 2013-09-17T11:45 | 5116 | 550 | -0.7 | -6.1 | ||
| 2013-09-17T11:45 | 5136 | 549 | -0.7 | -8.9 | ||
| 2013-09-17T11:45 | 5209 | 544 | -1.0 | -11.4 | ||
| 2013-09-17T11:45 | 5302 | 538 | 23 | 3.0 | ||
| 2013-09-17T11:45 | 5315 | 537 | -1.5 | -19.5 | ||
| 2013-09-17T11:45 | 5362 | 534 | -1.8 | -16.3 | ||
| 2013-09-17T11:45 | 5415 | 530 | -2.2 | -16.7 | ||
| 2013-09-17T11:45 | 5435 | 529 | -2.3 | -16.8 | ||
| 2013-09-17T11:45 | 5468 | 527 | -2.4 | -16.1 | ||
| 2013-09-17T11:46 | 5507 | 524 | -2.6 | -19.1 | ||
| 2013-09-17T11:46 | 5570 | 520 | -3.1 | -15.4 | ||
| 2013-09-17T11:46 | 5683 | 513 | 357 | 4.0 | ||
| 2013-09-17T11:46 | 5712 | 511 | -4.1 | -18.0 | ||
| 2013-09-17T11:46 | 5785 | 506 | -4.6 | -17.8 | ||
| 2013-09-17T11:46 | 5813 | 504 | -4.7 | -18.5 | ||
| 2013-09-17T11:47 | 5921 | 497 | -4.9 | -13.0 | ||
| 2013-09-17T11:47 | 6026 | 491 | 29 | 7.0 | ||
| 2013-09-17T11:47 | 6102 | 486 | -5.3 | -8.9 | ||
| 2013-09-17T11:48 | 6265 | 476 | -6.1 | -9.1 | ||
| 2013-09-17T11:48 | 6371 | 470 | 39 | 12.0 | ||
| 2013-09-17T11:49 | 6711 | 450 | 41 | 13.0 | ||
| 2013-09-17T11:49 | 6824 | 443 | -10.3 | -12.3 | ||
| 2013-09-17T11:50 | 7024 | 432 | -11.6 | -14.5 | ||
| 2013-09-17T11:50 | 7064 | 430 | 49 | 17.0 | ||
| 2013-09-17T11:50 | 7081 | 429 | -11.9 | -16.3 | ||
| 2013-09-17T11:51 | 7315 | 416 | -13.1 | -17.4 | ||
| 2013-09-17T11:51 | 7407 | 411 | 43 | 20.0 | ||
| 2013-09-17T11:51 | 7536 | 404 | -14.3 | -21.2 | ||
| 2013-09-17T11:52 | 7599 | 401 | -14.8 | -21.2 | ||
| 2013-09-17T11:52 | 7657 | 397 | -14.9 | -23.5 | ||
| 2013-09-17T11:52 | 7738 | 393 | -15.5 | -23.1 | 40 | 22.0 |
| 2013-09-17T11:52 | 7773 | 391 | -15.7 | -22.3 | ||
| 2013-09-17T11:52 | 7827 | 389 | -15.8 | -23.4 | ||
| 2013-09-17T11:53 | 8073 | 376 | -17.6 | -22.9 | ||
| 2013-09-17T11:53 | 8095 | 375 | 36 | 20.0 | ||
| 2013-09-17T11:54 | 8459 | 357 | 39 | 21.0 | ||
| 2013-09-17T11:55 | 8758 | 343 | -23.4 | -25.1 | ||
| 2013-09-17T11:55 | 8814 | 340 | 39 | 20.0 | ||
| 2013-09-17T11:55 | 8864 | 338 | -23.6 | -26.2 | ||
| 2013-09-17T11:56 | 9073 | 328 | -24.3 | -30.2 | ||
| 2013-09-17T11:56 | 9164 | 324 | 42 | 17.0 | ||
| 2013-09-17T11:57 | 9382 | 315 | -26.6 | -32.4 | ||
| 2013-09-17T11:57 | 9525 | 308 | 43 | 19.0 | ||
| 2013-09-17T11:58 | 9886 | 293 | 45 | 18.0 | ||
| 2013-09-17T11:59 | 10085 | 285 | -31.3 | -37.7 | ||
| 2013-09-17T11:59 | 10253 | 278 | 42 | 20.0 | ||
| 2013-09-17T12:00 | 10656 | 263 | 44 | 18.0 | ||
| 2013-09-17T12:01 | 11035 | 249 | 40 | 17.0 | ||
| 2013-09-17T12:01 | 11066 | 248 | -39.1 | -46.8 | ||
| 2013-09-17T12:01 | 11163 | 244 | -39.9 | -47.3 | ||
| 2013-09-17T12:02 | 11235 | 242 | -40.6 | |||
| 2013-09-17T12:02 | 11404 | 236 | 41 | 17.0 | ||
| 2013-09-17T12:03 | 11794 | 222 | 43 | 19.0 | ||
| 2013-09-17T12:04 | 12196 | 209 | 43 | 20.0 | ||
| 2013-09-17T12:05 | 12585 | 197 | 46 | 22.0 | ||
| 2013-09-17T12:06 | 12966 | 186 | 45 | 24.0 | ||
| 2013-09-17T12:07 | 13161 | 180 | -57.9 | |||
| 2013-09-17T12:07 | 13334 | 175 | 42 | 24.0 | ||
| 2013-09-17T12:08 | 13733 | 164 | 45 | 24.0 | ||
| 2013-09-17T12:09 | 14142 | 154 | 48 | 25.0 | ||
| 2013-09-17T12:10 | 14601 | 142 | 52 | 26.0 | ||
| 2013-09-17T12:11 | 15028 | 132 | -73.1 | |||
| 2013-09-17T12:11 | 15083 | 131 | 47 | 24.0 | ||
| 2013-09-17T12:11 | 15233 | 128 | -72.3 | |||
| 2013-09-17T12:12 | 15468 | 123 | 54 | 32.0 | ||
| 2013-09-17T12:12 | 15485 | 122 | 55 | 32.0 | ||
| 2013-09-17T12:12 | 15559 | 121 | 57 | 32.0 | ||
| 2013-09-17T12:12 | 15738 | 117 | -74.2 | |||
| 2013-09-17T12:13 | 16055 | 111 | 68 | 23.0 | ||
| 2013-09-17T12:13 | 16111 | 110 | -76.0 | |||
| 2013-09-17T12:14 | 16541 | 102 | 66 | 17.0 | ||
| 2013-09-17T12:14 | 16647 | 100 | -77.3 | 65 | 16.0 | |
| 2013-09-17T12:15 | 16940 | 95 | -78.0 | |||
| 2013-09-17T12:15 | 17049 | 93 | 58 | 16.0 | ||
| 2013-09-17T12:16 | 17442 | 87 | -76.3 | |||
| 2013-09-17T12:16 | 17450 | 87 | -76.3 | |||
| 2013-09-17T12:16 | 17494 | 86 | 51 | 16.0 | ||
| 2013-09-17T12:16 | 17554 | 85 | -76.3 | 52 | 17.0 | |
| 2013-09-17T23:30 | 9 | 1007 | 30.4 | 25.2 | 100 | 7.0 |
| 2013-09-17T23:30 | 20 | 1006 | 28.4 | 24.0 | ||
| 2013-09-17T23:30 | 78 | 999 | 27.3 | 23.3 | ||
| 2013-09-17T23:31 | 360 | 968 | 24.8 | 23.2 | ||
| 2013-09-17T23:31 | 387 | 965 | 102 | 8.0 | ||
| 2013-09-17T23:31 | 419 | 962 | 24.3 | 22.9 | ||
| 2013-09-17T23:31 | 470 | 956 | 105 | 8.0 | ||
| 2013-09-17T23:31 | 476 | 955 | 105 | 8.0 | ||
| 2013-09-17T23:31 | 507 | 952 | 106 | 8.0 | ||
| 2013-09-17T23:31 | 513 | 951 | 106 | 8.0 | ||
| 2013-09-17T23:32 | 622 | 940 | 105 | 8.0 | ||
| 2013-09-17T23:32 | 701 | 931 | 22.2 | 20.7 | ||
| 2013-09-17T23:32 | 755 | 925 | 22.1 | 20.0 | 108 | 8.0 |
| 2013-09-17T23:33 | 1073 | 892 | 20.0 | 17.8 | ||
| 2013-09-17T23:33 | 1096 | 890 | 113 | 6.0 | ||
| 2013-09-17T23:34 | 1454 | 854 | 117 | 4.0 | ||
| 2013-09-17T23:34 | 1567 | 842 | 16.5 | 16.5 | ||
| 2013-09-17T23:35 | 1813 | 818 | 111 | 4.0 | ||
| 2013-09-17T23:36 | 2080 | 793 | 14.3 | 13.8 | ||
| 2013-09-17T23:36 | 2163 | 785 | 148 | 2.0 | ||
| 2013-09-17T23:36 | 2209 | 781 | 14.2 | 13.1 | ||
| 2013-09-17T23:36 | 2262 | 776 | 13.7 | 12.9 | ||
| 2013-09-17T23:37 | 2353 | 768 | 13.7 | 12.8 | ||
| 2013-09-17T23:37 | 2434 | 761 | 13.8 | 11.8 | ||
| 2013-09-17T23:37 | 2531 | 752 | 38 | 2.0 | ||
| 2013-09-17T23:37 | 2634 | 743 | 12.2 | 10.9 | ||
| 2013-09-17T23:37 | 2696 | 737 | 12.1 | 10.5 | ||
| 2013-09-17T23:38 | 2764 | 731 | 11.9 | 10.5 | ||
| 2013-09-17T23:38 | 2813 | 727 | 11.8 | 9.9 | ||
| 2013-09-17T23:38 | 2905 | 719 | 15 | 2.0 | ||
| 2013-09-17T23:38 | 2986 | 712 | 11.1 | 8.3 | ||
| 2013-09-17T23:39 | 3267 | 689 | 25 | 4.0 | ||
| 2013-09-17T23:39 | 3297 | 686 | 8.9 | 7.3 | ||
| 2013-09-17T23:39 | 3390 | 679 | 8.8 | 7.1 | ||
| 2013-09-17T23:40 | 3623 | 660 | 30 | 7.0 | ||
| 2013-09-17T23:40 | 3741 | 650 | 7.2 | 4.3 | ||
| 2013-09-17T23:41 | 3806 | 645 | 6.9 | 3.7 | ||
| 2013-09-17T23:41 | 3853 | 642 | 6.9 | 2.4 | ||
| 2013-09-17T23:41 | 3895 | 638 | 6.8 | 2.9 | ||
| 2013-09-17T23:41 | 3977 | 632 | 25 | 7.0 | ||
| 2013-09-17T23:42 | 4242 | 612 | 3.9 | 1.6 | ||
| 2013-09-17T23:42 | 4314 | 606 | 3.6 | -0.6 | ||
| 2013-09-17T23:42 | 4331 | 605 | 3.6 | -1.2 | ||
| 2013-09-17T23:42 | 4347 | 604 | 3.8 | -2.6 | ||
| 2013-09-17T23:42 | 4364 | 603 | 3.9 | -12.1 | ||
| 2013-09-17T23:42 | 4391 | 601 | 4.0 | -12.0 | ||
| 2013-09-17T23:42 | 4436 | 598 | 3.6 | -5.1 | ||
| 2013-09-17T23:42 | 4447 | 597 | 3.6 | -10.8 | ||
| 2013-09-17T23:43 | 4509 | 592 | 3.4 | -15.3 | ||
| 2013-09-17T23:43 | 4559 | 588 | 3.3 | -10.0 | ||
| 2013-09-17T23:43 | 4656 | 581 | 22 | 9.0 | ||
| 2013-09-17T23:44 | 4892 | 565 | 1.2 | -10.0 | ||
| 2013-09-17T23:44 | 5008 | 557 | 23 | 9.0 | ||
| 2013-09-17T23:44 | 5020 | 556 | 0.6 | -6.3 | ||
| 2013-09-17T23:44 | 5162 | 546 | -0.1 | -6.7 | ||
| 2013-09-17T23:45 | 5210 | 543 | -0.5 | -4.7 | ||
| 2013-09-17T23:45 | 5254 | 540 | 17 | 11.0 | ||
| 2013-09-17T23:45 | 5330 | 535 | -0.8 | -7.2 | ||
| 2013-09-17T23:45 | 5336 | 534 | 18 | 11.0 | ||
| 2013-09-17T23:45 | 5352 | 533 | 19 | 11.0 | ||
| 2013-09-17T23:45 | 5369 | 532 | 20 | 11.0 | ||
| 2013-09-17T23:45 | 5391 | 531 | -1.0 | -10.1 | ||
| 2013-09-17T23:45 | 5402 | 530 | -1.1 | -6.4 | ||
| 2013-09-17T23:45 | 5473 | 525 | -1.4 | -8.0 | ||
| 2013-09-17T23:45 | 5495 | 524 | -1.4 | -11.3 | ||
| 2013-09-17T23:46 | 5666 | 513 | 28 | 10.0 | ||
| 2013-09-17T23:47 | 6002 | 491 | 28 | 10.0 | ||
| 2013-09-17T23:48 | 6203 | 479 | -7.1 | -14.6 | ||
| 2013-09-17T23:48 | 6258 | 475 | -7.5 | -15.0 | ||
| 2013-09-17T23:48 | 6330 | 471 | -7.7 | -14.7 | ||
| 2013-09-17T23:49 | 6562 | 457 | -9.0 | -16.4 | ||
| 2013-09-17T23:49 | 6693 | 450 | 23 | 12.0 | ||
| 2013-09-17T23:49 | 6706 | 449 | -10.0 | -19.4 | ||
| 2013-09-17T23:50 | 6955 | 434 | -11.8 | -20.9 | ||
| 2013-09-17T23:50 | 7003 | 432 | -11.9 | -23.4 | ||
| 2013-09-17T23:50 | 7057 | 429 | -12.0 | -24.4 | 28 | 16.0 |
| 2013-09-17T23:50 | 7069 | 428 | -12.1 | -23.3 | ||
| 2013-09-17T23:50 | 7099 | 426 | -12.3 | -24.0 | ||
| 2013-09-17T23:50 | 7148 | 424 | -12.7 | -19.9 | ||
| 2013-09-17T23:51 | 7436 | 408 | 30 | 19.0 | ||
| 2013-09-17T23:51 | 7493 | 405 | -15.0 | -21.0 | ||
| 2013-09-17T23:51 | 7543 | 402 | -15.3 | -21.5 | ||
| 2013-09-17T23:51 | 7568 | 401 | -15.4 | -24.2 | ||
| 2013-09-17T23:52 | 7680 | 395 | -16.2 | -29.4 | ||
| 2013-09-17T23:52 | 7698 | 394 | -16.3 | -26.8 | ||
| 2013-09-17T23:52 | 7741 | 392 | -16.6 | -36.0 | ||
| 2013-09-17T23:52 | 7760 | 391 | -16.7 | -30.6 | ||
| 2013-09-17T23:52 | 7779 | 390 | -16.9 | -32.3 | ||
| 2013-09-17T23:52 | 7798 | 389 | -17.0 | -25.9 | ||
| 2013-09-17T23:52 | 7812 | 388 | 26 | 21.0 | ||
| 2013-09-17T23:52 | 7851 | 386 | -17.2 | -24.7 | ||
| 2013-09-17T23:52 | 7898 | 383 | -17.5 | -33.7 | ||
| 2013-09-17T23:52 | 7991 | 379 | -18.2 | -34.3 | ||
| 2013-09-17T23:53 | 8142 | 371 | -19.2 | -33.9 | ||
| 2013-09-17T23:53 | 8173 | 370 | -19.3 | -44.3 | ||
| 2013-09-17T23:53 | 8204 | 368 | 25 | 22.0 | ||
| 2013-09-17T23:53 | 8265 | 365 | -20.1 | -42.3 | ||
| 2013-09-17T23:53 | 8296 | 364 | -20.4 | -36.2 | ||
| 2013-09-17T23:53 | 8358 | 361 | -21.0 | -34.4 | ||
| 2013-09-17T23:54 | 8395 | 359 | -21.1 | -29.0 | ||
| 2013-09-17T23:54 | 8695 | 344 | -23.0 | -40.3 | ||
| 2013-09-17T23:55 | 8943 | 333 | 25 | 25.0 | ||
| 2013-09-17T23:55 | 8955 | 332 | -24.8 | -41.8 | ||
| 2013-09-17T23:55 | 9033 | 329 | 25 | 25.0 | ||
| 2013-09-17T23:56 | 9313 | 316 | -27.7 | -47.1 | 25 | 25.0 |
| 2013-09-17T23:56 | 9465 | 310 | -28.9 | -45.3 | ||
| 2013-09-17T23:57 | 9548 | 306 | -29.3 | -43.5 | ||
| 2013-09-17T23:57 | 9701 | 300 | -30.5 | -47.7 | ||
| 2013-09-17T23:57 | 9778 | 296 | -31.1 | -42.1 | ||
| 2013-09-17T23:57 | 9831 | 294 | -31.4 | -43.0 | ||
| 2013-09-17T23:58 | 9911 | 291 | -32.0 | -41.4 | ||
| 2013-09-17T23:58 | 10093 | 283 | 25 | 23.0 | ||
| 2013-09-17T23:58 | 10202 | 279 | -34.6 | -44.0 | ||
| 2013-09-17T23:59 | 10333 | 274 | -35.7 | -43.0 | ||
| 2013-09-17T23:59 | 10506 | 267 | 20 | 23.0 | ||
| 2013-09-18T00:00 | 10723 | 259 | -38.5 | -44.5 | ||
| 2013-09-18T00:00 | 10892 | 252 | -40.0 | -46.3 | ||
| 2013-09-18T00:01 | 11292 | 238 | 16 | 24.0 | ||
| 2013-09-18T00:02 | 11571 | 228 | -45.0 | |||
| 2013-09-18T00:02 | 11674 | 225 | 15 | 23.0 | ||
| 2013-09-18T00:03 | 12040 | 213 | 17 | 25.0 | ||
| 2013-09-18T00:04 | 12400 | 201 | 23 | 26.0 | ||
| 2013-09-18T00:05 | 12730 | 191 | 28 | 25.0 | ||
| 2013-09-18T00:06 | 13077 | 181 | 30 | 26.0 | ||
| 2013-09-18T00:06 | 13116 | 180 | -57.0 | |||
| 2013-09-18T00:06 | 13155 | 179 | 31 | 26.0 | ||
| 2013-09-18T00:07 | 13292 | 175 | 32 | 26.0 | ||
| 2013-09-18T00:07 | 13320 | 174 | 32 | 26.0 | ||
| 2013-09-18T00:07 | 13409 | 172 | 33 | 26.0 | ||
| 2013-09-18T00:08 | 13752 | 163 | 35 | 25.0 | ||
| 2013-09-18T00:09 | 14100 | 154 | 33 | 23.0 | ||
| 2013-09-18T00:10 | 14411 | 146 | -68.5 | |||
| 2013-09-18T00:10 | 14460 | 145 | 32 | 24.0 | ||
| 2013-09-18T00:11 | 14822 | 136 | 29 | 22.0 | ||
| 2013-09-18T00:12 | 15237 | 127 | 22 | 20.0 | ||
| 2013-09-18T00:13 | 15550 | 120 | -77.0 | |||
| 2013-09-18T00:13 | 15734 | 116 | 12 | 21.0 | ||
| 2013-09-18T00:14 | 16141 | 108 | -78.4 | |||
| 2013-09-18T00:14 | 16338 | 105 | 13 | 22.0 | ||
| 2013-09-18T00:14 | 16419 | 103 | -76.5 | |||
| 2013-09-18T00:14 | 16599 | 100 | -76.7 | 28 | 23.0 | |
| 2013-09-18T00:15 | 16958 | 94 | -75.3 | 37 | 22.0 | |
| 2013-09-18T11:30 | 9 | 1008 | 28.1 | 22.8 | 100 | 8.0 |
| 2013-09-18T11:31 | 355 | 970 | 106 | 8.0 | ||
| 2013-09-18T11:32 | 726 | 930 | 102 | 8.0 | ||
| 2013-09-18T11:32 | 744 | 928 | 22.2 | 18.4 | ||
| 2013-09-18T11:32 | 873 | 914 | 21.7 | 16.4 | ||
| 2013-09-18T11:33 | 1056 | 895 | 104 | 9.0 | ||
| 2013-09-18T11:33 | 1062 | 894 | 104 | 9.0 | ||
| 2013-09-18T11:33 | 1075 | 893 | 104 | 9.0 | ||
| 2013-09-18T11:33 | 1081 | 892 | 104 | 9.0 | ||
| 2013-09-18T11:33 | 1093 | 891 | 104 | 9.0 | ||
| 2013-09-18T11:33 | 1117 | 889 | 103 | 9.0 | ||
| 2013-09-18T11:34 | 1362 | 864 | 18.1 | 15.0 | ||
| 2013-09-18T11:34 | 1460 | 854 | 106 | 8.0 | ||
| 2013-09-18T11:35 | 1714 | 829 | 15.4 | 14.4 | ||
| 2013-09-18T11:35 | 1760 | 825 | 15.3 | 13.2 | ||
| 2013-09-18T11:35 | 1818 | 819 | 91 | 7.0 | ||
| 2013-09-18T11:35 | 1852 | 816 | 14.9 | 13.1 | ||
| 2013-09-18T11:35 | 1941 | 807 | 14.7 | 12.0 | ||
| 2013-09-18T11:36 | 2002 | 802 | 14.4 | 12.8 | ||
| 2013-09-18T11:36 | 2031 | 799 | 14.3 | 11.8 | ||
| 2013-09-18T11:36 | 2092 | 793 | 14.2 | 10.8 | ||
| 2013-09-18T11:36 | 2151 | 788 | 92 | 4.0 | ||
| 2013-09-18T11:36 | 2216 | 782 | 13.5 | 10.1 | ||
| 2013-09-18T11:36 | 2288 | 775 | 13.1 | 9.5 | ||
| 2013-09-18T11:37 | 2322 | 772 | 13.2 | 7.6 | ||
| 2013-09-18T11:37 | 2351 | 769 | 13.1 | 7.8 | ||
| 2013-09-18T11:37 | 2374 | 767 | 12.9 | 10.8 | ||
| 2013-09-18T11:37 | 2481 | 757 | 12.5 | 10.4 | ||
| 2013-09-18T11:37 | 2500 | 756 | 12.5 | 9.5 | 38 | 4.0 |
| 2013-09-18T11:37 | 2563 | 750 | 12.6 | 6.9 | ||
| 2013-09-18T11:37 | 2612 | 746 | 12.7 | 5.8 | ||
| 2013-09-18T11:37 | 2624 | 745 | 12.7 | 3.1 | ||
| 2013-09-18T11:37 | 2654 | 742 | 12.8 | 0.5 | ||
| 2013-09-18T11:38 | 2731 | 735 | 12.2 | -0.3 | ||
| 2013-09-18T11:38 | 2767 | 732 | 11.9 | 4.6 | ||
| 2013-09-18T11:38 | 2825 | 727 | 11.4 | 5.1 | ||
| 2013-09-18T11:38 | 2853 | 725 | 11.1 | 8.0 | 20 | 5.0 |
| 2013-09-18T11:39 | 3100 | 703 | 9.1 | 7.9 | ||
| 2013-09-18T11:39 | 3196 | 695 | 10 | 2.0 | ||
| 2013-09-18T11:39 | 3330 | 684 | 7.7 | 7.6 | ||
| 2013-09-18T11:40 | 3510 | 669 | 6.9 | 6.3 | ||
| 2013-09-18T11:40 | 3577 | 664 | 14 | 5.0 | ||
| 2013-09-18T11:40 | 3614 | 661 | 6.2 | 5.0 | ||
| 2013-09-18T11:40 | 3650 | 658 | 6.2 | 2.5 | ||
| 2013-09-18T11:41 | 3820 | 645 | 5.1 | 1.2 | ||
| 2013-09-18T11:41 | 3837 | 643 | 5.2 | 0.6 | ||
| 2013-09-18T11:41 | 3849 | 642 | 5.3 | -3.0 | ||
| 2013-09-18T11:41 | 3888 | 639 | 5.4 | -3.4 | ||
| 2013-09-18T11:41 | 3927 | 636 | 352 | 6.0 | ||
| 2013-09-18T11:41 | 4033 | 628 | 4.4 | -3.9 | ||
| 2013-09-18T11:41 | 4044 | 627 | 4.3 | -1.5 | ||
| 2013-09-18T11:41 | 4065 | 626 | 4.3 | 1.5 | ||
| 2013-09-18T11:41 | 4071 | 625 | 4.3 | -0.3 | ||
| 2013-09-18T11:41 | 4081 | 624 | 4.4 | -5.4 | ||
| 2013-09-18T11:42 | 4103 | 623 | 4.5 | -9.3 | ||
| 2013-09-18T11:42 | 4124 | 621 | 4.5 | -9.3 | ||
| 2013-09-18T11:42 | 4232 | 613 | 3.8 | -11.4 | ||
| 2013-09-18T11:42 | 4254 | 611 | 353 | 7.0 | ||
| 2013-09-18T11:42 | 4326 | 606 | 2.9 | -7.6 | ||
| 2013-09-18T11:42 | 4352 | 604 | 2.7 | -3.6 | ||
| 2013-09-18T11:42 | 4401 | 600 | 2.4 | -4.8 | ||
| 2013-09-18T11:43 | 4474 | 595 | 2.1 | -5.5 | ||
| 2013-09-18T11:43 | 4531 | 591 | 2.0 | -5.9 | ||
| 2013-09-18T11:43 | 4571 | 588 | 2.4 | -7.2 | ||
| 2013-09-18T11:43 | 4588 | 586 | 1 | 8.0 | ||
| 2013-09-18T11:44 | 4787 | 572 | 2.5 | -12.2 | ||
| 2013-09-18T11:44 | 4959 | 560 | 10 | 8.0 | ||
| 2013-09-18T11:44 | 5132 | 548 | 0.6 | -16.7 | ||
| 2013-09-18T11:45 | 5338 | 534 | 23 | 13.0 | ||
| 2013-09-18T11:45 | 5434 | 528 | -0.3 | -18.0 | ||
| 2013-09-18T11:46 | 5545 | 521 | 19 | 16.0 | ||
| 2013-09-18T11:46 | 5556 | 520 | 19 | 16.0 | ||
| 2013-09-18T11:46 | 5696 | 511 | 16 | 16.0 | ||
| 2013-09-18T11:47 | 5911 | 497 | -4.1 | -18.7 | ||
| 2013-09-18T11:47 | 6070 | 487 | 6 | 14.0 | ||
| 2013-09-18T11:47 | 6227 | 478 | -6.5 | -18.2 | ||
| 2013-09-18T11:48 | 6403 | 467 | -7.2 | -21.1 | ||
| 2013-09-18T11:48 | 6434 | 465 | 353 | 13.0 | ||
| 2013-09-18T11:48 | 6548 | 458 | -7.7 | -25.3 | ||
| 2013-09-18T11:49 | 6809 | 443 | 2 | 13.0 | ||
| 2013-09-18T11:49 | 6840 | 441 | -9.7 | -23.7 | ||
| 2013-09-18T11:49 | 6957 | 435 | -10.5 | -20.4 | ||
| 2013-09-18T11:50 | 7180 | 422 | 4 | 15.0 | ||
| 2013-09-18T11:50 | 7273 | 417 | -12.6 | -22.6 | ||
| 2013-09-18T11:50 | 7308 | 415 | -12.5 | -31.4 | ||
| 2013-09-18T11:51 | 7383 | 411 | -12.5 | -37.9 | ||
| 2013-09-18T11:51 | 7475 | 406 | -13.1 | -33.1 | ||
| 2013-09-18T11:51 | 7526 | 404 | 14 | 17.0 | ||
| 2013-09-18T11:52 | 7888 | 385 | 9 | 15.0 | ||
| 2013-09-18T11:53 | 8165 | 371 | -19.0 | -35.9 | ||
| 2013-09-18T11:53 | 8247 | 367 | 3 | 16.0 | ||
| 2013-09-18T11:53 | 8344 | 362 | -19.6 | -41.1 | ||
| 2013-09-18T11:54 | 8503 | 354 | -19.8 | -45.8 | ||
| 2013-09-18T11:54 | 8629 | 348 | 12 | 20.0 | ||
| 2013-09-18T11:55 | 8987 | 332 | 14 | 23.0 | ||
| 2013-09-18T11:55 | 9025 | 330 | 13 | 23.0 | ||
| 2013-09-18T11:56 | 9394 | 313 | -26.2 | -56.6 | ||
| 2013-09-18T11:57 | 9789 | 297 | 13 | 21.0 | ||
| 2013-09-18T11:58 | 10192 | 280 | 12 | 20.0 | ||
| 2013-09-18T11:58 | 10365 | 273 | -34.3 | -56.2 | ||
| 2013-09-18T11:59 | 10576 | 265 | 8 | 19.0 | ||
| 2013-09-18T12:00 | 10932 | 252 | -38.9 | -57.0 | ||
| 2013-09-18T12:00 | 10958 | 251 | 2 | 21.0 | ||
| 2013-09-18T12:00 | 11105 | 246 | -40.0 | -59.2 | ||
| 2013-09-18T12:01 | 11341 | 237 | 2 | 20.0 | ||
| 2013-09-18T12:02 | 11706 | 225 | 6 | 20.0 | ||
| 2013-09-18T12:03 | 12042 | 214 | 5 | 21.0 | ||
| 2013-09-18T12:04 | 12376 | 203 | 9 | 23.0 | ||
| 2013-09-18T12:05 | 12711 | 193 | 4 | 22.0 | ||
| 2013-09-18T12:05 | 12841 | 189 | -53.7 | |||
| 2013-09-18T12:06 | 13071 | 182 | 4 | 22.0 | ||
| 2013-09-18T12:07 | 13422 | 172 | 359 | 22.0 | ||
| 2013-09-18T12:08 | 13770 | 163 | 4 | 20.0 | ||
| 2013-09-18T12:09 | 14119 | 154 | 7 | 20.0 | ||
| 2013-09-18T12:10 | 14487 | 145 | 360 | 17.0 | ||
| 2013-09-18T12:10 | 14546 | 144 | -67.9 | |||
| 2013-09-18T12:11 | 14880 | 136 | 357 | 17.0 | ||
| 2013-09-18T12:12 | 15119 | 130 | -72.5 | |||
| 2013-09-18T12:12 | 15282 | 127 | 346 | 17.0 | ||
| 2013-09-18T12:13 | 15674 | 119 | -75.6 | 354 | 18.0 | |
| 2013-09-18T12:13 | 15755 | 117 | -74.9 | |||
| 2013-09-18T12:14 | 16107 | 110 | 19 | 15.0 | ||
| 2013-09-18T12:14 | 16189 | 108 | -77.4 | |||
| 2013-09-18T12:15 | 16572 | 101 | 12 | 10.0 | ||
| 2013-09-18T12:15 | 16649 | 100 | -77.6 | 12 | 10.0 | |
| 2013-09-18T12:16 | 16894 | 96 | -76.3 | |||
| 2013-09-18T12:16 | 17095 | 93 | 28 | 11.0 | ||
| 2013-09-18T12:17 | 17546 | 86 | -70.9 | |||
| 2013-09-18T12:17 | 17607 | 85 | 53 | 10.0 | ||
| 2013-09-18T12:18 | 17996 | 79 | 75 | 11.0 | ||
| 2013-09-18T12:19 | 18271 | 76 | -70.8 | |||
| 2013-09-18T12:19 | 18361 | 75 | 83 | 9.0 | ||
| 2013-09-18T12:20 | 18547 | 72 | -67.5 | |||
| 2013-09-18T12:20 | 18723 | 70 | 84 | 11.0 | ||
| 2013-09-18T12:21 | 19090 | 66 | 76 | 11.0 | ||
| 2013-09-18T12:22 | 19488 | 62 | 75 | 14.0 | ||
| 2013-09-18T12:22 | 19543 | 61 | -66.6 | |||
| 2013-09-18T12:23 | 19850 | 58 | -64.2 | |||
| 2013-09-18T12:23 | 19889 | 58 | 106 | 14.0 | ||
| 2013-09-18T12:23 | 20025 | 57 | -63.4 | |||
| 2013-09-18T12:24 | 20267 | 55 | 105 | 11.0 | ||
| 2013-09-18T12:25 | 20628 | 52 | -60.8 | |||
| 2013-09-18T12:25 | 20640 | 51 | 75 | 10.0 | ||
| 2013-09-18T12:26 | 21028 | 48 | 87 | 10.0 | ||
| 2013-09-18T12:27 | 21432 | 45 | 95 | 9.0 | ||
| 2013-09-18T12:28 | 21789 | 43 | -63.3 | |||
| 2013-09-18T12:28 | 21844 | 42 | 82 | 15.0 | ||
| 2013-09-18T12:29 | 22235 | 40 | 89 | 19.0 | ||
| 2013-09-18T12:30 | 22631 | 37 | 91 | 16.0 | ||
| 2013-09-18T12:31 | 23047 | 35 | 93 | 17.0 | ||
| 2013-09-18T12:31 | 23098 | 35 | -58.5 | |||
| 2013-09-18T12:32 | 23479 | 33 | 80 | 15.0 | ||
| 2013-09-18T12:32 | 23521 | 32 | -57.4 | |||
| 2013-09-18T12:33 | 23887 | 31 | 78 | 17.0 | ||
| 2013-09-18T12:34 | 24101 | 30 | -57.0 | |||
| 2013-09-18T12:34 | 24296 | 29 | 90 | 20.0 | ||
| 2013-09-18T12:35 | 24559 | 27 | -53.9 | |||
| 2013-09-18T12:35 | 24725 | 27 | 98 | 23.0 | ||
| 2013-09-18T12:36 | 25179 | 25 | 98 | 24.0 | ||
| 2013-09-18T12:36 | 25231 | 25 | 97 | 25.0 | ||
| 2013-09-18T12:37 | 25628 | 23 | 92 | 22.0 | ||
| 2013-09-18T12:38 | 26074 | 22 | 102 | 23.0 | ||
| 2013-09-18T12:38 | 26273 | 21 | -51.8 | |||
| 2013-09-18T12:39 | 26536 | 20 | 102 | 21.0 | ||
| 2013-09-18T12:40 | 26857 | 19 | -51.3 | |||
| 2013-09-18T12:40 | 26985 | 19 | 91 | 21.0 | ||
| 2013-09-18T12:41 | 27423 | 18 | 80 | 17.0 | ||
| 2013-09-18T12:41 | 27615 | 17 | -47.9 | |||
| 2013-09-18T12:42 | 27873 | 17 | 73 | 14.0 | ||
| 2013-09-18T12:42 | 27977 | 16 | -46.5 | |||
| 2013-09-18T12:43 | 28349 | 15 | 71 | 12.0 | ||
| 2013-09-18T12:44 | 28733 | 15 | -44.0 | |||
| 2013-09-18T12:44 | 28842 | 14 | 87 | 13.0 | ||
| 2013-09-18T12:45 | 29336 | 13 | 97 | 12.0 | ||
| 2013-09-18T12:46 | 29820 | 12 | 102 | 18.0 | ||
| 2013-09-18T12:47 | 30288 | 12 | 95 | 14.0 | ||
| 2013-09-18T12:48 | 30639 | 11 | -45.1 | |||
| 2013-09-18T12:48 | 30770 | 11 | 82 | 16.0 | ||
| 2013-09-18T12:49 | 31267 | 10 | 75 | 20.0 | ||
| 2013-09-18T12:50 | 31672 | 9 | -45.2 | 72 | 25.0 | |
| 2013-09-18T23:30 | 9 | 1009 | 29.8 | 23.3 | 90 | 6.0 |
| 2013-09-18T23:30 | 10 | 1008 | 29.4 | 21.1 | ||
| 2013-09-18T23:30 | 19 | 1007 | 28.5 | 20.3 | ||
| 2013-09-18T23:31 | 414 | 964 | 102 | 6.0 | ||
| 2013-09-18T23:32 | 621 | 941 | 101 | 7.0 | ||
| 2013-09-18T23:32 | 633 | 940 | 103 | 7.0 | ||
| 2013-09-18T23:32 | 662 | 937 | 102 | 7.0 | ||
| 2013-09-18T23:32 | 771 | 925 | 21.9 | 19.6 | ||
| 2013-09-18T23:32 | 802 | 922 | 21.9 | 17.5 | ||
| 2013-09-18T23:33 | 1051 | 896 | 20.0 | 16.3 | ||
| 2013-09-18T23:33 | 1114 | 889 | 110 | 5.0 | ||
| 2013-09-18T23:34 | 1339 | 866 | 18.0 | 15.4 | ||
| 2013-09-18T23:34 | 1490 | 851 | 116 | 5.0 | ||
| 2013-09-18T23:34 | 1518 | 848 | 16.9 | 14.4 | ||
| 2013-09-18T23:35 | 1817 | 819 | 100 | 3.0 | ||
| 2013-09-18T23:35 | 1870 | 814 | 15.3 | 11.7 | ||
| 2013-09-18T23:35 | 1966 | 805 | 14.9 | 10.9 | ||
| 2013-09-18T23:36 | 2045 | 798 | 14.6 | 9.4 | ||
| 2013-09-18T23:36 | 2062 | 796 | 14.5 | 8.7 | ||
| 2013-09-18T23:36 | 2144 | 788 | 99 | 3.0 | ||
| 2013-09-18T23:36 | 2179 | 785 | 13.7 | 9.2 | ||
| 2013-09-18T23:36 | 2257 | 778 | 13.6 | 7.8 | ||
| 2013-09-18T23:37 | 2417 | 763 | 12.4 | 6.7 | ||
| 2013-09-18T23:37 | 2501 | 756 | 50 | 2.0 | ||
| 2013-09-18T23:37 | 2579 | 749 | 12.3 | 3.8 | ||
| 2013-09-18T23:38 | 2730 | 736 | 11.3 | 3.1 | ||
| 2013-09-18T23:38 | 2818 | 728 | 10.9 | 1.2 | ||
| 2013-09-18T23:38 | 2851 | 725 | 10.7 | 1.2 | ||
| 2013-09-18T23:38 | 2870 | 723 | 332 | 3.0 | ||
| 2013-09-18T23:38 | 2896 | 721 | 10.5 | -1.6 | ||
| 2013-09-18T23:38 | 2954 | 716 | 10.1 | -0.1 | ||
| 2013-09-18T23:38 | 2980 | 714 | 10.2 | -5.4 | ||
| 2013-09-18T23:38 | 2993 | 713 | 10.2 | -12.4 | ||
| 2013-09-18T23:39 | 3083 | 705 | 9.6 | -6.7 | ||
| 2013-09-18T23:39 | 3250 | 691 | 318 | 3.0 | ||
| 2013-09-18T23:39 | 3298 | 687 | 8.2 | -10.7 | ||
| 2013-09-18T23:39 | 3333 | 684 | 7.9 | -8.2 | ||
| 2013-09-18T23:39 | 3391 | 679 | 7.6 | -12.2 | ||
| 2013-09-18T23:40 | 3501 | 670 | 6.9 | -10.4 | ||
| 2013-09-18T23:40 | 3524 | 668 | 6.7 | -5.6 | ||
| 2013-09-18T23:40 | 3569 | 665 | 6.3 | -3.6 | ||
| 2013-09-18T23:40 | 3586 | 663 | 6.3 | -4.8 | ||
| 2013-09-18T23:40 | 3597 | 662 | 329 | 5.0 | ||
| 2013-09-18T23:40 | 3614 | 661 | 6.3 | -5.4 | ||
| 2013-09-18T23:40 | 3648 | 658 | 6.3 | -10.4 | ||
| 2013-09-18T23:40 | 3676 | 656 | 6.5 | -14.3 | ||
| 2013-09-18T23:40 | 3688 | 655 | 6.6 | -22.9 | ||
| 2013-09-18T23:40 | 3723 | 652 | 6.7 | -22.8 | ||
| 2013-09-18T23:40 | 3734 | 651 | 6.7 | -30.4 | ||
| 2013-09-18T23:40 | 3752 | 650 | 6.7 | -15.3 | ||
| 2013-09-18T23:41 | 3793 | 647 | 6.5 | -15.5 | ||
| 2013-09-18T23:41 | 3810 | 646 | 6.5 | -19.1 | ||
| 2013-09-18T23:41 | 3827 | 644 | 6.5 | -25.5 | ||
| 2013-09-18T23:41 | 3844 | 643 | 6.4 | -33.0 | ||
| 2013-09-18T23:41 | 3941 | 635 | 329 | 7.0 | ||
| 2013-09-18T23:42 | 4133 | 620 | 4.8 | -34.1 | ||
| 2013-09-18T23:42 | 4262 | 611 | 4.0 | -41.5 | ||
| 2013-09-18T23:42 | 4274 | 610 | 336 | 8.0 | ||
| 2013-09-18T23:42 | 4303 | 608 | 3.9 | -41.5 | ||
| 2013-09-18T23:42 | 4326 | 606 | 3.9 | -26.2 | ||
| 2013-09-18T23:42 | 4373 | 602 | 3.8 | -48.0 | ||
| 2013-09-18T23:43 | 4532 | 591 | 3.1 | -31.1 | ||
| 2013-09-18T23:43 | 4625 | 584 | 2 | 9.0 | ||
| 2013-09-18T23:43 | 4636 | 583 | 3.6 | -48.1 | ||
| 2013-09-18T23:44 | 4798 | 571 | 2.8 | -27.0 | ||
| 2013-09-18T23:44 | 4861 | 567 | 2.2 | -19.1 | ||
| 2013-09-18T23:44 | 4904 | 564 | 13 | 12.0 | ||
| 2013-09-18T23:44 | 4921 | 563 | 13 | 12.0 | ||
| 2013-09-18T23:44 | 4949 | 561 | 12 | 12.0 | ||
| 2013-09-18T23:45 | 5196 | 544 | 0.0 | -22.9 | ||
| 2013-09-18T23:45 | 5304 | 537 | 3 | 10.0 | ||
| 2013-09-18T23:46 | 5546 | 521 | -1.3 | -23.3 | ||
| 2013-09-18T23:46 | 5642 | 514 | -1.8 | -23.0 | ||
| 2013-09-18T23:46 | 5666 | 513 | 16 | 9.0 | ||
| 2013-09-18T23:47 | 5966 | 494 | -4.6 | -18.5 | ||
| 2013-09-18T23:47 | 5984 | 493 | -4.7 | -20.9 | ||
| 2013-09-18T23:47 | 5996 | 492 | -4.7 | -20.5 | ||
| 2013-09-18T23:47 | 6020 | 490 | 7 | 10.0 | ||
| 2013-09-18T23:47 | 6038 | 489 | -4.4 | -25.8 | ||
| 2013-09-18T23:47 | 6086 | 486 | -4.0 | -40.4 | ||
| 2013-09-18T23:47 | 6105 | 485 | -3.9 | -40.3 | ||
| 2013-09-18T23:48 | 6252 | 476 | -5.0 | -33.1 | ||
| 2013-09-18T23:48 | 6385 | 468 | 357 | 12.0 | ||
| 2013-09-18T23:48 | 6546 | 459 | -6.9 | -34.6 | ||
| 2013-09-18T23:49 | 6666 | 452 | -7.0 | -54.8 | ||
| 2013-09-18T23:49 | 6729 | 448 | 4 | 13.0 | ||
| 2013-09-18T23:50 | 6905 | 438 | -8.8 | -34.0 | ||
| 2013-09-18T23:50 | 6928 | 437 | 7 | 15.0 | ||
| 2013-09-18T23:50 | 7052 | 430 | -9.5 | -56.4 | ||
| 2013-09-18T23:50 | 7090 | 428 | 3 | 13.0 | ||
| 2013-09-18T23:51 | 7279 | 417 | -10.8 | -45.3 | ||
| 2013-09-18T23:51 | 7465 | 407 | 349 | 12.0 | ||
| 2013-09-18T23:52 | 7716 | 394 | -14.0 | -36.5 | ||
| 2013-09-18T23:52 | 7845 | 387 | 348 | 11.0 | ||
| 2013-09-18T23:52 | 7876 | 386 | -14.2 | -41.4 | ||
| 2013-09-18T23:53 | 8209 | 369 | 348 | 10.0 | ||
| 2013-09-18T23:54 | 8594 | 350 | 354 | 11.0 | ||
| 2013-09-18T23:55 | 8974 | 333 | 350 | 12.0 | ||
| 2013-09-18T23:55 | 9134 | 326 | -25.6 | -48.4 | ||
| 2013-09-18T23:56 | 9355 | 316 | 329 | 13.0 | ||
| 2013-09-18T23:57 | 9743 | 299 | -30.0 | -59.4 | ||
| 2013-09-18T23:57 | 9913 | 292 | 319 | 15.0 | ||
| 2013-09-18T23:57 | 9944 | 291 | 319 | 15.0 | ||
| 2013-09-18T23:58 | 10123 | 283 | 324 | 15.0 | ||
| 2013-09-18T23:58 | 10170 | 282 | 324 | 15.0 | ||
| 2013-09-18T23:59 | 10527 | 268 | 328 | 14.0 | ||
| 2013-09-18T23:59 | 10554 | 266 | -35.9 | -54.5 | ||
| 2013-09-19T00:00 | 10917 | 253 | 315 | 13.0 | ||
| 2013-09-19T00:01 | 11109 | 246 | -40.0 | -60.0 | ||
| 2013-09-19T00:01 | 11258 | 241 | 306 | 13.0 | ||
| 2013-09-19T00:02 | 11625 | 228 | 306 | 14.0 | ||
| 2013-09-19T00:03 | 11992 | 216 | 304 | 13.0 | ||
| 2013-09-19T00:04 | 12343 | 204 | 301 | 12.0 | ||
| 2013-09-19T00:05 | 12648 | 195 | -53.6 | |||
| 2013-09-19T00:05 | 12717 | 193 | 305 | 15.0 | ||
| 2013-09-19T00:06 | 13067 | 182 | 295 | 16.0 | ||
| 2013-09-19T00:07 | 13419 | 173 | 290 | 17.0 | ||
| 2013-09-19T00:08 | 13764 | 163 | 282 | 18.0 | ||
| 2013-09-19T00:09 | 14106 | 154 | 288 | 20.0 | ||
| 2013-09-19T00:10 | 14365 | 148 | 293 | 21.0 | ||
| 2013-09-19T00:10 | 14392 | 147 | 293 | 21.0 | ||
| 2013-09-19T00:10 | 14442 | 146 | 293 | 21.0 | ||
| 2013-09-19T00:11 | 14792 | 138 | 299 | 19.0 | ||
| 2013-09-19T00:12 | 15171 | 129 | 317 | 16.0 | ||
| 2013-09-19T00:12 | 15263 | 127 | -73.5 | |||
| 2013-09-19T00:13 | 15556 | 121 | 337 | 16.0 | ||
| 2013-09-19T00:14 | 15773 | 116 | -77.3 | |||
| 2013-09-19T00:14 | 15982 | 112 | 358 | 15.0 | ||
| 2013-09-19T00:15 | 16505 | 102 | 24 | 6.0 | ||
| 2013-09-19T00:15 | 16574 | 101 | -81.3 | |||
| 2013-09-19T00:15 | 16633 | 100 | -81.1 | 19 | 6.0 | |
| 2013-09-19T00:15 | 16770 | 98 | -81.2 | |||
| 2013-09-19T00:16 | 16963 | 94 | -79.1 | |||
| 2013-09-19T00:16 | 17086 | 92 | 47 | 9.0 | ||
| 2013-09-19T00:16 | 17095 | 92 | -76.6 | |||
| 2013-09-19T00:17 | 17575 | 85 | 57 | 11.0 | ||
| 2013-09-19T00:17 | 17598 | 85 | -72.0 | |||
| 2013-09-19T00:18 | 17837 | 81 | -72.2 | |||
| 2013-09-19T00:18 | 17908 | 80 | -71.4 | 64 | 10.0 | |
| 2013-09-19T11:30 | 9 | 1010 | 28.7 | 23.4 | 90 | 7.0 |
| 2013-09-19T11:30 | 75 | 1003 | 81 | 7.0 | ||
| 2013-09-19T11:30 | 88 | 1001 | 81 | 7.0 | ||
| 2013-09-19T11:30 | 108 | 999 | 83 | 7.0 | ||
| 2013-09-19T11:31 | 212 | 987 | 88 | 7.0 | ||
| 2013-09-19T11:31 | 366 | 970 | 90 | 7.0 | ||
| 2013-09-19T11:32 | 586 | 946 | 23.0 | 20.3 | ||
| 2013-09-19T11:32 | 746 | 929 | 92 | 7.0 | ||
| 2013-09-19T11:32 | 759 | 928 | 92 | 7.0 | ||
| 2013-09-19T11:32 | 765 | 927 | 91 | 7.0 | ||
| 2013-09-19T11:32 | 772 | 926 | 92 | 7.0 | ||
| 2013-09-19T11:32 | 785 | 925 | 93 | 7.0 | ||
| 2013-09-19T11:32 | 870 | 916 | 20.2 | 20.0 | ||
| 2013-09-19T11:32 | 897 | 913 | 19.5 | 18.0 | ||
| 2013-09-19T11:32 | 903 | 912 | 19.4 | 16.4 | ||
| 2013-09-19T11:33 | 943 | 908 | 19.7 | 16.7 | ||
| 2013-09-19T11:33 | 1002 | 902 | 20.3 | 16.7 | ||
| 2013-09-19T11:33 | 1137 | 888 | 109 | 7.0 | ||
| 2013-09-19T11:33 | 1280 | 873 | 18.6 | 15.1 | ||
| 2013-09-19T11:34 | 1500 | 851 | 106 | 7.0 | ||
| 2013-09-19T11:34 | 1546 | 847 | 17.3 | 13.0 | ||
| 2013-09-19T11:35 | 1851 | 817 | 108 | 5.0 | ||
| 2013-09-19T11:35 | 1968 | 806 | 14.4 | 10.8 | ||
| 2013-09-19T11:36 | 2158 | 788 | 13.2 | 10.0 | ||
| 2013-09-19T11:36 | 2211 | 783 | 104 | 4.0 | ||
| 2013-09-19T11:36 | 2288 | 776 | 12.4 | 8.3 | ||
| 2013-09-19T11:36 | 2360 | 769 | 11.8 | 9.4 | ||
| 2013-09-19T11:37 | 2459 | 760 | 11.3 | 7.0 | ||
| 2013-09-19T11:37 | 2483 | 758 | 11.2 | 8.9 | ||
| 2013-09-19T11:37 | 2564 | 750 | 106 | 4.0 | ||
| 2013-09-19T11:37 | 2587 | 748 | 10.5 | 7.4 | ||
| 2013-09-19T11:37 | 2632 | 744 | 10.3 | 5.3 | ||
| 2013-09-19T11:37 | 2644 | 743 | 10.2 | 7.4 | ||
| 2013-09-19T11:37 | 2690 | 739 | 10.1 | 6.6 | ||
| 2013-09-19T11:37 | 2707 | 738 | 10.2 | 7.3 | ||
| 2013-09-19T11:38 | 2766 | 733 | 10.2 | 4.1 | ||
| 2013-09-19T11:38 | 2869 | 723 | 9.7 | 2.5 | ||
| 2013-09-19T11:38 | 2918 | 719 | 82 | 4.0 | ||
| 2013-09-19T11:38 | 2948 | 717 | 9.2 | 3.0 | ||
| 2013-09-19T11:38 | 2972 | 714 | 9.2 | 1.1 | ||
| 2013-09-19T11:38 | 3032 | 709 | 8.9 | 1.6 | ||
| 2013-09-19T11:39 | 3121 | 702 | 8.6 | 0.1 | ||
| 2013-09-19T11:39 | 3156 | 699 | 8.4 | 1.8 | ||
| 2013-09-19T11:39 | 3264 | 690 | 8.0 | -0.7 | ||
| 2013-09-19T11:39 | 3270 | 689 | 57 | 4.0 | ||
| 2013-09-19T11:39 | 3405 | 678 | 7.1 | 0.5 | ||
| 2013-09-19T11:39 | 3428 | 676 | 7.0 | 2.1 | ||
| 2013-09-19T11:40 | 3446 | 675 | 6.9 | 2.0 | ||
| 2013-09-19T11:40 | 3475 | 672 | 6.8 | -0.7 | ||
| 2013-09-19T11:40 | 3487 | 671 | 6.9 | 1.4 | ||
| 2013-09-19T11:40 | 3522 | 669 | 6.8 | -1.1 | ||
| 2013-09-19T11:40 | 3545 | 667 | 6.9 | -1.0 | ||
| 2013-09-19T11:40 | 3557 | 666 | 6.9 | -4.2 | ||
| 2013-09-19T11:40 | 3621 | 661 | 37 | 5.0 | ||
| 2013-09-19T11:40 | 3649 | 658 | 6.6 | -0.4 | ||
| 2013-09-19T11:40 | 3678 | 656 | 6.6 | -2.6 | ||
| 2013-09-19T11:40 | 3700 | 654 | 6.7 | -5.0 | ||
| 2013-09-19T11:40 | 3729 | 652 | 6.8 | -5.5 | ||
| 2013-09-19T11:40 | 3763 | 649 | 7.0 | -9.4 | ||
| 2013-09-19T11:41 | 3791 | 647 | 7.2 | -13.1 | ||
| 2013-09-19T11:41 | 3820 | 645 | 7.4 | -18.4 | ||
| 2013-09-19T11:41 | 3843 | 643 | 7.4 | -18.4 | ||
| 2013-09-19T11:41 | 3895 | 639 | 7.4 | -22.3 | ||
| 2013-09-19T11:41 | 3964 | 633 | 19 | 8.0 | ||
| 2013-09-19T11:41 | 4070 | 625 | 6.9 | -23.9 | ||
| 2013-09-19T11:41 | 4106 | 623 | 7.1 | -21.4 | ||
| 2013-09-19T11:41 | 4135 | 621 | 7.2 | -32.4 | ||
| 2013-09-19T11:42 | 4176 | 617 | 7.3 | -26.4 | ||
| 2013-09-19T11:42 | 4314 | 607 | 358 | 9.0 | ||
| 2013-09-19T11:42 | 4431 | 599 | 7.1 | -45.9 | ||
| 2013-09-19T11:43 | 4635 | 584 | 5.4 | -14.6 | ||
| 2013-09-19T11:43 | 4665 | 582 | 11 | 9.0 | ||
| 2013-09-19T11:44 | 4890 | 566 | 3.2 | -12.7 | ||
| 2013-09-19T11:44 | 5019 | 557 | 15 | 11.0 | ||
| 2013-09-19T11:44 | 5061 | 554 | 1.9 | -13.1 | ||
| 2013-09-19T11:44 | 5104 | 551 | 1.5 | -9.7 | ||
| 2013-09-19T11:45 | 5384 | 532 | 5 | 11.0 | ||
| 2013-09-19T11:46 | 5618 | 517 | -2.5 | -10.8 | 359 | 12.0 |
| 2013-09-19T11:46 | 5751 | 508 | 354 | 11.0 | ||
| 2013-09-19T11:46 | 5786 | 506 | -2.7 | -14.1 | ||
| 2013-09-19T11:46 | 5816 | 504 | -2.7 | -17.1 | ||
| 2013-09-19T11:46 | 5869 | 501 | -3.0 | -15.0 | ||
| 2013-09-19T11:47 | 5929 | 497 | -3.1 | -16.1 | ||
| 2013-09-19T11:47 | 6016 | 491 | -3.8 | -16.7 | ||
| 2013-09-19T11:47 | 6048 | 489 | -3.9 | -20.6 | ||
| 2013-09-19T11:47 | 6085 | 487 | -4.0 | -15.9 | ||
| 2013-09-19T11:47 | 6116 | 485 | 349 | 10.0 | ||
| 2013-09-19T11:47 | 6141 | 484 | -4.0 | -18.7 | ||
| 2013-09-19T11:47 | 6234 | 478 | -3.9 | -32.2 | ||
| 2013-09-19T11:48 | 6400 | 468 | -4.5 | -38.6 | ||
| 2013-09-19T11:48 | 6447 | 465 | -4.8 | -31.8 | ||
| 2013-09-19T11:48 | 6476 | 463 | 354 | 11.0 | ||
| 2013-09-19T11:48 | 6615 | 455 | -6.2 | -28.0 | ||
| 2013-09-19T11:49 | 6839 | 442 | 347 | 10.0 | ||
| 2013-09-19T11:49 | 6915 | 438 | -8.7 | -30.0 | ||
| 2013-09-19T11:50 | 7091 | 428 | -10.2 | -29.5 | ||
| 2013-09-19T11:50 | 7180 | 423 | 339 | 10.0 | ||
| 2013-09-19T11:50 | 7263 | 419 | -11.4 | -29.4 | ||
| 2013-09-19T11:50 | 7318 | 416 | -11.9 | -28.9 | ||
| 2013-09-19T11:51 | 7380 | 412 | -12.1 | -34.2 | ||
| 2013-09-19T11:51 | 7519 | 405 | 335 | 12.0 | ||
| 2013-09-19T11:52 | 7768 | 392 | -14.8 | -36.4 | ||
| 2013-09-19T11:52 | 7874 | 386 | 331 | 11.0 | ||
| 2013-09-19T11:53 | 8092 | 375 | -17.3 | -37.8 | ||
| 2013-09-19T11:53 | 8229 | 368 | 326 | 12.0 | ||
| 2013-09-19T11:54 | 8412 | 360 | -19.0 | -38.6 | ||
| 2013-09-19T11:54 | 8597 | 351 | 320 | 10.0 | ||
| 2013-09-19T11:55 | 8955 | 334 | -24.2 | -37.6 | ||
| 2013-09-19T11:55 | 8973 | 333 | 325 | 12.0 | ||
| 2013-09-19T11:56 | 9222 | 322 | 324 | 13.0 | ||
| 2013-09-19T11:56 | 9348 | 316 | 317 | 12.0 | ||
| 2013-09-19T11:57 | 9901 | 293 | -32.1 | -43.9 | ||
| 2013-09-19T11:58 | 10088 | 285 | 286 | 10.0 | ||
| 2013-09-19T11:59 | 10448 | 271 | 293 | 10.0 | ||
| 2013-09-19T12:00 | 10790 | 258 | -38.4 | -51.5 | ||
| 2013-09-19T12:00 | 10808 | 257 | 280 | 12.0 | ||
| 2013-09-19T12:00 | 10975 | 251 | -40.0 | -50.1 | ||
| 2013-09-19T12:01 | 11146 | 245 | 273 | 15.0 | ||
| 2013-09-19T12:02 | 11483 | 233 | 273 | 16.0 | ||
| 2013-09-19T12:03 | 11815 | 222 | 267 | 18.0 | ||
| 2013-09-19T12:04 | 12138 | 211 | 263 | 19.0 | ||
| 2013-09-19T12:05 | 12301 | 206 | -50.1 | |||
| 2013-09-19T12:05 | 12467 | 201 | 266 | 20.0 | ||
| 2013-09-19T12:05 | 12532 | 199 | 267 | 20.0 | ||
| 2013-09-19T12:05 | 12548 | 198 | 267 | 20.0 | ||
| 2013-09-19T12:06 | 12793 | 191 | 272 | 20.0 | ||
| 2013-09-19T12:06 | 12821 | 190 | -54.5 | |||
| 2013-09-19T12:07 | 13121 | 181 | 272 | 19.0 | ||
| 2013-09-19T12:08 | 13446 | 172 | 265 | 18.0 | ||
| 2013-09-19T12:09 | 13743 | 164 | -61.6 | |||
| 2013-09-19T12:09 | 13776 | 163 | 259 | 20.0 | ||
| 2013-09-19T12:10 | 14122 | 154 | 264 | 21.0 | ||
| 2013-09-19T12:11 | 14465 | 146 | 277 | 20.0 | ||
| 2013-09-19T12:11 | 14627 | 142 | -67.3 | 276 | 21.0 | |
| 2013-09-19T12:12 | 14687 | 141 | 276 | 21.0 | ||
| 2013-09-19T12:12 | 14818 | 138 | 274 | 21.0 | ||
| 2013-09-19T12:13 | 15177 | 130 | 273 | 20.0 | ||
| 2013-09-19T12:14 | 15595 | 121 | 273 | 17.0 | ||
| 2013-09-19T12:14 | 15785 | 117 | -75.7 | |||
| 2013-09-19T12:15 | 16006 | 112 | 263 | 14.0 | ||
| 2013-09-19T12:15 | 16053 | 111 | -76.7 | |||
| 2013-09-19T12:16 | 16233 | 108 | -75.9 | |||
| 2013-09-19T12:16 | 16436 | 104 | 302 | 11.0 | ||
| 2013-09-19T12:17 | 16670 | 100 | -78.0 | 334 | 7.0 | |
| 2013-09-19T12:17 | 16883 | 96 | 25 | 4.0 | ||
| 2013-09-19T12:18 | 17185 | 91 | -77.8 | |||
| 2013-09-19T12:18 | 17224 | 91 | 21 | 3.0 | ||
| 2013-09-19T12:19 | 17398 | 88 | -74.9 | |||
| 2013-09-19T12:19 | 17559 | 86 | 72 | 1.0 | ||
| 2013-09-19T12:19 | 17615 | 85 | -73.9 | |||
| 2013-09-19T12:20 | 17906 | 81 | 108 | 3.0 | ||
| 2013-09-19T12:20 | 18049 | 79 | -72.0 | |||
| 2013-09-19T12:21 | 18265 | 76 | 95 | 6.0 | ||
| 2013-09-19T12:21 | 18422 | 74 | -69.3 | |||
| 2013-09-19T12:22 | 18613 | 72 | 112 | 9.0 | ||
| 2013-09-19T12:23 | 18964 | 68 | 65 | 7.0 | ||
| 2013-09-19T12:24 | 19231 | 65 | -66.9 | |||
| 2013-09-19T12:24 | 19312 | 64 | 81 | 11.0 | ||
| 2013-09-19T12:25 | 19560 | 61 | -62.9 | |||
| 2013-09-19T12:25 | 19667 | 60 | 98 | 11.0 | ||
| 2013-09-19T12:26 | 20041 | 57 | 62 | 11.0 | ||
| 2013-09-19T12:27 | 20416 | 53 | 79 | 12.0 | ||
| 2013-09-19T12:27 | 20465 | 53 | -65.8 | |||
| 2013-09-19T12:28 | 20782 | 50 | 77 | 9.0 | ||
| 2013-09-19T12:29 | 20976 | 49 | -62.3 | |||
| 2013-09-19T12:29 | 21148 | 47 | 100 | 11.0 | ||
| 2013-09-19T12:30 | 21532 | 44 | 70 | 13.0 | ||
| 2013-09-19T12:30 | 21601 | 44 | -62.9 | |||
| 2013-09-19T12:31 | 21896 | 42 | 75 | 16.0 | ||
| 2013-09-19T12:32 | 22283 | 39 | 83 | 16.0 | ||
| 2013-09-19T12:33 | 22601 | 37 | -61.2 | |||
| 2013-09-19T12:33 | 22673 | 37 | 99 | 12.0 | ||
| 2013-09-19T12:34 | 23068 | 35 | 84 | 16.0 | ||
| 2013-09-19T12:35 | 23357 | 33 | -58.9 | |||
| 2013-09-19T12:35 | 23471 | 32 | 93 | 17.0 | ||
| 2013-09-19T12:36 | 23881 | 30 | 96 | 17.0 | ||
| 2013-09-19T12:37 | 24279 | 29 | 105 | 22.0 | ||
| 2013-09-19T12:37 | 24335 | 28 | 105 | 23.0 | ||
| 2013-09-19T12:37 | 24348 | 28 | 106 | 23.0 | ||
| 2013-09-19T12:37 | 24379 | 28 | 106 | 23.0 | ||
| 2013-09-19T12:38 | 24578 | 27 | -57.2 | |||
| 2013-09-19T12:38 | 24652 | 27 | 107 | 20.0 | ||
| 2013-09-19T12:39 | 25049 | 25 | 107 | 14.0 | ||
| 2013-09-19T12:39 | 25173 | 25 | -54.8 | |||
| 2013-09-19T12:40 | 25473 | 24 | 96 | 14.0 | ||
| 2013-09-19T12:41 | 25901 | 22 | 82 | 16.0 | ||
| 2013-09-19T12:42 | 26321 | 21 | 68 | 19.0 | ||
| 2013-09-19T12:42 | 26474 | 20 | -51.9 | |||
| 2013-09-19T12:43 | 26723 | 20 | 67 | 21.0 | ||
| 2013-09-19T12:44 | 27100 | 18 | 71 | 24.0 | ||
| 2013-09-19T12:44 | 27122 | 18 | 71 | 24.0 | ||
| 2013-09-19T12:44 | 27166 | 18 | 71 | 24.0 | ||
| 2013-09-19T12:44 | 27295 | 18 | -49.0 | |||
| 2013-09-19T12:45 | 27606 | 17 | 86 | 23.0 | ||
| 2013-09-19T12:46 | 28059 | 16 | 92 | 19.0 | ||
| 2013-09-19T12:46 | 28232 | 16 | -45.4 | |||
| 2013-09-19T12:47 | 28493 | 15 | 98 | 19.0 | ||
| 2013-09-19T12:48 | 28952 | 14 | 94 | 14.0 | ||
| 2013-09-19T12:49 | 29407 | 13 | -45.0 | |||
| 2013-09-19T12:49 | 29432 | 13 | 82 | 15.0 | ||
| 2013-09-19T12:50 | 29919 | 12 | 71 | 19.0 | ||
| 2013-09-19T12:51 | 30356 | 11 | -45.5 | |||
| 2013-09-19T12:51 | 30412 | 11 | 81 | 18.0 | ||
| 2013-09-19T12:52 | 30855 | 10 | 99 | 16.0 | ||
| 2013-09-19T12:53 | 31287 | 10 | 79 | 16.0 | ||
| 2013-09-19T12:53 | 31406 | 10 | -38.7 | |||
| 2013-09-19T12:54 | 31733 | 9 | 69 | 20.0 | ||
| 2013-09-19T12:55 | 32012 | 9 | -41.0 | |||
| 2013-09-19T12:55 | 32177 | 9 | 76 | 21.0 | ||
| 2013-09-19T12:56 | 32632 | 8 | 77 | 24.0 | ||
| 2013-09-19T12:56 | 32702 | 8 | -41.0 | |||
| 2013-09-19T12:57 | 33113 | 8 | 85 | 24.0 | ||
| 2013-09-19T12:58 | 33566 | 7 | 93 | 20.0 | ||
| 2013-09-19T12:58 | 33683 | 7 | -37.5 | |||
| 2013-09-19T12:59 | 33782 | 7 | -36.9 | 99 | 25.0 | |
| 2013-09-19T23:30 | 9 | 1011 | 30.1 | 23.8 | 60 | 7.0 |
| 2013-09-19T23:31 | 358 | 981 | 24.8 | 20.1 | ||
| 2013-09-19T23:31 | 498 | 968 | 67 | 10.0 | ||
| 2013-09-19T23:31 | 601 | 955 | 67 | 11.0 | ||
| 2013-09-19T23:31 | 607 | 954 | 67 | 11.0 | ||
| 2013-09-19T23:31 | 617 | 953 | 67 | 11.0 | ||
| 2013-09-19T23:31 | 622 | 952 | 67 | 11.0 | ||
| 2013-09-19T23:31 | 638 | 951 | 67 | 11.0 | ||
| 2013-09-19T23:32 | 694 | 945 | 22.5 | 17.9 | ||
| 2013-09-19T23:32 | 772 | 936 | 22.0 | 16.5 | ||
| 2013-09-19T23:32 | 814 | 932 | 68 | 10.0 | ||
| 2013-09-19T23:32 | 896 | 923 | 21.0 | 16.4 | ||
| 2013-09-19T23:33 | 969 | 915 | 20.6 | 14.9 | ||
| 2013-09-19T23:33 | 1025 | 909 | 20.1 | 15.5 | ||
| 2013-09-19T23:33 | 1124 | 899 | 58 | 9.0 | ||
| 2013-09-19T23:33 | 1268 | 884 | 19.0 | 13.0 | ||
| 2013-09-19T23:34 | 1330 | 878 | 18.7 | 11.8 | ||
| 2013-09-19T23:34 | 1459 | 865 | 69 | 8.0 | ||
| 2013-09-19T23:35 | 1678 | 843 | 16.5 | 10.1 | ||
| 2013-09-19T23:35 | 1778 | 833 | 67 | 6.0 | ||
| 2013-09-19T23:35 | 1794 | 832 | 15.7 | 10.0 | ||
| 2013-09-19T23:36 | 2000 | 812 | 14.8 | 6.9 | ||
| 2013-09-19T23:36 | 2098 | 802 | 14.2 | 7.3 | ||
| 2013-09-19T23:36 | 2115 | 801 | 73 | 6.0 | ||
| 2013-09-19T23:36 | 2121 | 800 | 14.2 | 7.9 | ||
| 2013-09-19T23:36 | 2132 | 799 | 14.1 | 6.0 | ||
| 2013-09-19T23:36 | 2260 | 787 | 13.8 | 4.4 | ||
| 2013-09-19T23:37 | 2388 | 775 | 13.6 | 4.2 | ||
| 2013-09-19T23:37 | 2439 | 771 | 113 | 5.0 | ||
| 2013-09-19T23:37 | 2454 | 769 | 13.0 | 5.4 | ||
| 2013-09-19T23:37 | 2489 | 766 | 12.9 | 4.1 | ||
| 2013-09-19T23:37 | 2525 | 763 | 12.7 | 3.9 | ||
| 2013-09-19T23:38 | 2628 | 753 | 12.5 | 2.1 | ||
| 2013-09-19T23:38 | 2705 | 747 | 12.1 | 3.3 | ||
| 2013-09-19T23:38 | 2726 | 745 | 12.2 | 0.3 | ||
| 2013-09-19T23:38 | 2748 | 743 | 104 | 5.0 | ||
| 2013-09-19T23:38 | 2829 | 736 | 11.6 | -1.5 | ||
| 2013-09-19T23:38 | 2861 | 733 | 11.3 | -0.2 | ||
| 2013-09-19T23:38 | 2878 | 731 | 11.3 | 1.5 | ||
| 2013-09-19T23:39 | 2904 | 729 | 11.2 | -0.6 | ||
| 2013-09-19T23:39 | 2963 | 724 | 10.8 | 0.2 | ||
| 2013-09-19T23:39 | 3072 | 715 | 113 | 4.0 | ||
| 2013-09-19T23:39 | 3100 | 712 | 10.0 | -1.4 | ||
| 2013-09-19T23:39 | 3209 | 703 | 9.2 | 0.1 | ||
| 2013-09-19T23:40 | 3278 | 697 | 8.9 | -0.4 | ||
| 2013-09-19T23:40 | 3343 | 692 | 9.0 | -4.6 | ||
| 2013-09-19T23:40 | 3418 | 685 | 100 | 4.0 | ||
| 2013-09-19T23:40 | 3452 | 683 | 8.3 | -1.0 | ||
| 2013-09-19T23:41 | 3581 | 672 | 7.8 | -3.4 | ||
| 2013-09-19T23:41 | 3608 | 670 | 7.6 | -3.9 | ||
| 2013-09-19T23:41 | 3619 | 669 | 7.6 | -2.2 | ||
| 2013-09-19T23:41 | 3658 | 666 | 7.6 | -6.5 | ||
| 2013-09-19T23:41 | 3753 | 658 | 88 | 4.0 | ||
| 2013-09-19T23:41 | 3781 | 656 | 6.9 | -8.3 | ||
| 2013-09-19T23:41 | 3798 | 655 | 6.9 | -11.3 | ||
| 2013-09-19T23:41 | 3803 | 654 | 6.9 | -8.3 | ||
| 2013-09-19T23:41 | 3837 | 651 | 6.8 | -10.5 | ||
| 2013-09-19T23:41 | 3859 | 650 | 7.0 | -13.3 | ||
| 2013-09-19T23:41 | 3876 | 648 | 7.2 | -17.0 | ||
| 2013-09-19T23:42 | 3970 | 641 | 7.3 | -23.6 | ||
| 2013-09-19T23:42 | 4060 | 634 | 7.8 | -27.7 | ||
| 2013-09-19T23:42 | 4072 | 633 | 7.9 | -12.5 | ||
| 2013-09-19T23:42 | 4103 | 631 | 47 | 5.0 | ||
| 2013-09-19T23:42 | 4140 | 628 | 7.8 | -9.6 | ||
| 2013-09-19T23:43 | 4307 | 615 | 6.4 | -6.9 | ||
| 2013-09-19T23:43 | 4458 | 604 | 50 | 5.0 | ||
| 2013-09-19T23:44 | 4736 | 584 | 2.5 | -9.1 | ||
| 2013-09-19T23:44 | 4798 | 579 | 38 | 4.0 | ||
| 2013-09-19T23:45 | 5139 | 555 | 31 | 3.0 | ||
| 2013-09-19T23:45 | 5282 | 545 | -1.5 | -15.7 | ||
| 2013-09-19T23:46 | 5320 | 543 | -1.7 | -16.2 | ||
| 2013-09-19T23:46 | 5347 | 541 | -1.7 | -14.2 | ||
| 2013-09-19T23:46 | 5400 | 537 | -1.7 | -18.7 | ||
| 2013-09-19T23:46 | 5463 | 533 | -1.9 | -22.5 | 341 | 2.0 |
| 2013-09-19T23:46 | 5545 | 527 | -2.3 | -24.1 | ||
| 2013-09-19T23:46 | 5574 | 526 | -2.5 | -24.3 | ||
| 2013-09-19T23:47 | 5614 | 523 | -2.5 | -18.5 | ||
| 2013-09-19T23:47 | 5628 | 522 | -2.6 | -14.1 | ||
| 2013-09-19T23:47 | 5760 | 513 | 319 | 4.0 | ||
| 2013-09-19T23:47 | 5774 | 512 | -3.1 | -16.4 | ||
| 2013-09-19T23:48 | 5997 | 498 | -4.5 | -17.7 | ||
| 2013-09-19T23:48 | 6065 | 494 | 333 | 7.0 | ||
| 2013-09-19T23:49 | 6334 | 477 | -6.9 | -20.5 | ||
| 2013-09-19T23:49 | 6375 | 475 | 304 | 6.0 | ||
| 2013-09-19T23:50 | 6526 | 466 | -8.1 | -28.9 | ||
| 2013-09-19T23:50 | 6702 | 455 | 282 | 8.0 | ||
| 2013-09-19T23:50 | 6860 | 446 | -10.7 | -27.8 | ||
| 2013-09-19T23:51 | 7046 | 435 | 268 | 10.0 | ||
| 2013-09-19T23:51 | 7123 | 431 | -12.7 | -29.6 | ||
| 2013-09-19T23:52 | 7285 | 422 | -13.2 | -33.8 | ||
| 2013-09-19T23:52 | 7374 | 417 | 285 | 9.0 | ||
| 2013-09-19T23:52 | 7430 | 414 | -13.9 | -35.0 | ||
| 2013-09-19T23:53 | 7704 | 399 | -15.6 | -38.6 | ||
| 2013-09-19T23:53 | 7729 | 398 | 297 | 11.0 | ||
| 2013-09-19T23:54 | 8083 | 380 | 293 | 12.0 | ||
| 2013-09-19T23:54 | 8095 | 379 | -18.5 | -38.2 | ||
| 2013-09-19T23:54 | 8218 | 373 | -19.0 | -47.7 | ||
| 2013-09-19T23:55 | 8368 | 365 | -20.2 | -38.4 | ||
| 2013-09-19T23:55 | 8441 | 362 | 280 | 13.0 | ||
| 2013-09-19T23:56 | 8796 | 345 | 275 | 13.0 | ||
| 2013-09-19T23:57 | 9127 | 329 | -27.1 | -39.8 | ||
| 2013-09-19T23:57 | 9189 | 326 | 282 | 16.0 | ||
| 2013-09-19T23:58 | 9542 | 311 | -30.3 | -45.2 | ||
| 2013-09-19T23:58 | 9587 | 309 | 276 | 17.0 | ||
| 2013-09-19T23:59 | 9969 | 292 | 273 | 17.0 | ||
| 2013-09-19T23:59 | 10131 | 286 | -35.9 | -47.6 | ||
| 2013-09-20T00:00 | 10371 | 276 | 268 | 18.0 | ||
| 2013-09-20T00:00 | 10417 | 274 | -38.1 | -47.7 | ||
| 2013-09-20T00:01 | 10697 | 263 | -39.3 | -54.7 | ||
| 2013-09-20T00:01 | 10763 | 261 | 276 | 18.0 | ||
| 2013-09-20T00:01 | 10815 | 259 | -40.0 | -55.7 | ||
| 2013-09-20T00:02 | 11153 | 246 | 267 | 20.0 | ||
| 2013-09-20T00:03 | 11551 | 232 | 260 | 22.0 | ||
| 2013-09-20T00:04 | 11931 | 219 | 256 | 24.0 | ||
| 2013-09-20T00:05 | 12336 | 206 | 252 | 25.0 | ||
| 2013-09-20T00:05 | 12484 | 201 | -53.6 | |||
| 2013-09-20T00:06 | 12691 | 195 | -54.3 | |||
| 2013-09-20T00:06 | 12730 | 193 | 248 | 25.0 | ||
| 2013-09-20T00:07 | 13102 | 182 | 251 | 26.0 | ||
| 2013-09-20T00:08 | 13448 | 173 | 250 | 29.0 | ||
| 2013-09-20T00:08 | 13510 | 171 | 250 | 29.0 | ||
| 2013-09-20T00:08 | 13545 | 170 | 251 | 29.0 | ||
| 2013-09-20T00:08 | 13591 | 169 | 251 | 29.0 | ||
| 2013-09-20T00:08 | 13627 | 168 | 252 | 29.0 | ||
| 2013-09-20T00:09 | 13803 | 163 | 254 | 28.0 | ||
| 2013-09-20T00:10 | 14175 | 153 | 258 | 27.0 | ||
| 2013-09-20T00:11 | 14515 | 145 | -68.5 | |||
| 2013-09-20T00:11 | 14559 | 144 | 263 | 26.0 | ||
| 2013-09-20T00:12 | 14959 | 135 | -70.9 | 266 | 27.0 | |
| 2013-09-20T00:13 | 15331 | 126 | -72.5 | |||
| 2013-09-20T00:13 | 15370 | 125 | 272 | 21.0 | ||
| 2013-09-20T00:14 | 15856 | 115 | 283 | 19.0 | ||
| 2013-09-20T00:14 | 16027 | 112 | -76.3 | |||
| 2013-09-20T00:15 | 16238 | 108 | -76.1 | |||
| 2013-09-20T00:15 | 16372 | 106 | 297 | 10.0 | ||
| 2013-09-20T00:15 | 16395 | 105 | -76.6 | |||
| 2013-09-20T00:15 | 16539 | 103 | -75.0 | |||
| 2013-09-20T00:16 | 16684 | 100 | -75.4 | 320 | 8.0 | |
| 2013-09-20T00:16 | 16763 | 99 | -75.6 | |||
| 2013-09-20T00:16 | 16878 | 97 | -76.4 | 348 | 8.0 | |
| 2013-09-20T00:17 | 17373 | 89 | 27 | 9.0 | ||
| 2013-09-20T00:17 | 17381 | 89 | -77.1 | |||
| 2013-09-20T00:18 | 17815 | 82 | -74.2 | |||
| 2013-09-20T00:18 | 17873 | 81 | 55 | 8.0 | ||
| 2013-09-20T00:19 | 18354 | 75 | 67 | 12.0 | ||
| 2013-09-20T00:19 | 18408 | 74 | -71.7 | |||
| 2013-09-20T00:19 | 18509 | 73 | -70.8 | |||
| 2013-09-20T00:20 | 18821 | 69 | 76 | 10.0 | ||
| 2013-09-20T00:20 | 18910 | 68 | -69.8 | |||
| 2013-09-20T00:21 | 19069 | 66 | -67.3 | |||
| 2013-09-20T00:21 | 19230 | 65 | 89 | 12.0 | ||
| 2013-09-20T00:22 | 19587 | 61 | 98 | 11.0 | ||
| 2013-09-20T00:22 | 19738 | 59 | -67.6 | |||
| 2013-09-20T00:23 | 19969 | 57 | 97 | 11.0 | ||
| 2013-09-20T00:24 | 20218 | 55 | -66.3 | |||
| 2013-09-20T00:24 | 20341 | 54 | 110 | 13.0 | ||
| 2013-09-20T00:24 | 20428 | 53 | -65.6 | |||
| 2013-09-20T00:25 | 20718 | 51 | 110 | 11.0 | ||
| 2013-09-20T00:26 | 21105 | 47 | 103 | 10.0 | ||
| 2013-09-20T00:27 | 21301 | 46 | -64.8 | |||
| 2013-09-20T00:27 | 21494 | 45 | 77 | 12.0 | ||
| 2013-09-20T00:28 | 21704 | 43 | -62.9 | |||
| 2013-09-20T00:28 | 21875 | 42 | 73 | 16.0 | ||
| 2013-09-20T00:29 | 22075 | 41 | -61.9 | |||
| 2013-09-20T00:29 | 22271 | 39 | 78 | 17.0 | ||
| 2013-09-20T00:30 | 22688 | 37 | 83 | 16.0 | ||
| 2013-09-20T00:31 | 22946 | 35 | -63.5 | |||
| 2013-09-20T00:31 | 23091 | 34 | 82 | 16.0 | ||
| 2013-09-20T00:32 | 23481 | 32 | 75 | 21.0 | ||
| 2013-09-20T00:32 | 23655 | 31 | -59.7 | |||
| 2013-09-20T00:33 | 23870 | 30 | -58.2 | 85 | 25.0 | |
| 2013-09-20T00:34 | 24285 | 28 | 100 | 24.0 | ||
| 2013-09-20T00:35 | 24719 | 27 | 107 | 21.0 | ||
| 2013-09-20T00:36 | 25138 | 25 | 98 | 18.0 | ||
| 2013-09-20T00:37 | 25528 | 23 | 89 | 18.0 | ||
| 2013-09-20T00:37 | 25648 | 23 | -53.7 | |||
| 2013-09-20T00:38 | 25921 | 22 | 87 | 19.0 | ||
| 2013-09-20T00:39 | 26284 | 21 | -52.5 | |||
| 2013-09-20T00:39 | 26340 | 21 | 92 | 21.0 | ||
| 2013-09-20T00:40 | 26771 | 19 | -51.2 | 91 | 16.0 | |
| 2013-09-20T00:41 | 27223 | 18 | 117 | 15.0 | ||
| 2013-09-20T00:42 | 27694 | 17 | 110 | 14.0 | ||
| 2013-09-20T00:42 | 27771 | 17 | -49.8 | |||
| 2013-09-20T00:43 | 28144 | 16 | 110 | 15.0 | ||
| 2013-09-20T00:44 | 28379 | 15 | -47.8 | |||
| 2013-09-20T00:44 | 28594 | 15 | 105 | 13.0 | ||
| 2013-09-20T00:45 | 29023 | 14 | 89 | 16.0 | ||
| 2013-09-20T00:46 | 29308 | 13 | -48.6 | |||
| 2013-09-20T00:46 | 29462 | 13 | 80 | 18.0 | ||
| 2013-09-20T00:46 | 29587 | 13 | -47.0 | |||
| 2013-09-20T00:47 | 29938 | 12 | 90 | 20.0 | ||
| 2013-09-20T00:48 | 30427 | 11 | 107 | 21.0 | ||
| 2013-09-20T00:48 | 30555 | 11 | -41.9 | |||
| 2013-09-20T00:49 | 30924 | 10 | 110 | 21.0 | ||
| 2013-09-20T00:50 | 31305 | 10 | -40.4 | |||
| 2013-09-20T00:50 | 31391 | 10 | 121 | 23.0 | ||
| 2013-09-20T00:51 | 31901 | 9 | 104 | 20.0 | ||
| 2013-09-20T00:52 | 32421 | 8 | 78 | 19.0 | ||
| 2013-09-20T00:52 | 32523 | 8 | -40.9 | |||
| 2013-09-20T11:30 | 9 | 1010 | 28.6 | 24.0 | 100 | 8.0 |
| 2013-09-20T11:30 | 26 | 1008 | 28.6 | 21.4 | ||
| 2013-09-20T11:31 | 358 | 971 | 103 | 9.0 | ||
| 2013-09-20T11:32 | 603 | 945 | 23.6 | 19.3 | ||
| 2013-09-20T11:32 | 694 | 935 | 105 | 10.0 | ||
| 2013-09-20T11:32 | 803 | 923 | 106 | 10.0 | ||
| 2013-09-20T11:32 | 832 | 920 | 106 | 10.0 | ||
| 2013-09-20T11:32 | 843 | 919 | 106 | 10.0 | ||
| 2013-09-20T11:32 | 849 | 918 | 106 | 10.0 | ||
| 2013-09-20T11:32 | 860 | 917 | 107 | 10.0 | ||
| 2013-09-20T11:33 | 943 | 909 | 21.1 | 16.9 | ||
| 2013-09-20T11:33 | 1161 | 886 | 19.8 | 15.2 | ||
| 2013-09-20T11:34 | 1353 | 866 | 103 | 9.0 | ||
| 2013-09-20T11:34 | 1364 | 865 | 18.4 | 14.3 | ||
| 2013-09-20T11:34 | 1514 | 850 | 17.7 | 13.0 | ||
| 2013-09-20T11:35 | 1687 | 833 | 100 | 9.0 | ||
| 2013-09-20T11:35 | 1835 | 819 | 15.5 | 12.4 | ||
| 2013-09-20T11:36 | 1996 | 804 | 14.5 | 11.6 | ||
| 2013-09-20T11:36 | 2087 | 795 | 14.0 | 12.2 | ||
| 2013-09-20T11:37 | 2381 | 768 | 92 | 6.0 | ||
| 2013-09-20T11:38 | 2566 | 751 | 12.2 | 9.6 | ||
| 2013-09-20T11:38 | 2660 | 743 | 12.0 | 8.5 | ||
| 2013-09-20T11:38 | 2726 | 737 | 116 | 6.0 | ||
| 2013-09-20T11:38 | 2827 | 728 | 11.5 | 6.6 | ||
| 2013-09-20T11:39 | 2906 | 722 | 11.5 | 2.5 | ||
| 2013-09-20T11:39 | 3092 | 706 | 108 | 6.0 | ||
| 2013-09-20T11:39 | 3104 | 705 | 10.1 | 2.9 | ||
| 2013-09-20T11:39 | 3252 | 692 | 9.8 | 1.4 | ||
| 2013-09-20T11:40 | 3434 | 677 | 8.8 | -0.5 | ||
| 2013-09-20T11:40 | 3452 | 676 | 110 | 6.0 | ||
| 2013-09-20T11:40 | 3505 | 672 | 9.7 | -4.7 | ||
| 2013-09-20T11:40 | 3529 | 670 | 10.1 | -15.4 | ||
| 2013-09-20T11:40 | 3575 | 666 | 10.3 | -17.9 | ||
| 2013-09-20T11:41 | 3635 | 661 | 10.0 | -16.3 | ||
| 2013-09-20T11:41 | 3778 | 650 | 9.1 | -25.0 | ||
| 2013-09-20T11:41 | 3801 | 648 | 80 | 8.0 | ||
| 2013-09-20T11:41 | 3851 | 644 | 8.5 | -12.0 | ||
| 2013-09-20T11:41 | 3929 | 638 | 7.7 | -7.2 | ||
| 2013-09-20T11:42 | 4126 | 623 | 71 | 6.0 | ||
| 2013-09-20T11:42 | 4181 | 619 | 5.9 | -7.3 | ||
| 2013-09-20T11:42 | 4222 | 616 | 5.7 | -9.3 | ||
| 2013-09-20T11:43 | 4371 | 605 | 4.9 | -17.5 | ||
| 2013-09-20T11:43 | 4443 | 600 | 47 | 7.0 | ||
| 2013-09-20T11:44 | 4634 | 586 | 3.3 | -22.6 | ||
| 2013-09-20T11:44 | 4783 | 575 | 47 | 8.0 | ||
| 2013-09-20T11:44 | 4813 | 573 | 2.4 | -33.5 | ||
| 2013-09-20T11:45 | 5150 | 549 | 40 | 7.0 | ||
| 2013-09-20T11:45 | 5178 | 547 | -0.8 | -23.5 | ||
| 2013-09-20T11:46 | 5316 | 538 | -2.1 | -21.5 | ||
| 2013-09-20T11:46 | 5333 | 537 | -2.2 | -16.7 | ||
| 2013-09-20T11:46 | 5484 | 527 | 14 | 6.0 | ||
| 2013-09-20T11:46 | 5507 | 525 | -3.6 | -13.3 | ||
| 2013-09-20T11:46 | 5602 | 519 | -3.9 | -16.5 | ||
| 2013-09-20T11:46 | 5637 | 516 | -3.3 | -22.5 | ||
| 2013-09-20T11:47 | 5679 | 514 | -2.2 | -51.7 | ||
| 2013-09-20T11:47 | 5721 | 511 | -2.0 | -51.6 | ||
| 2013-09-20T11:47 | 5840 | 503 | 51 | 10.0 | ||
| 2013-09-20T11:48 | 6147 | 484 | -4.3 | -43.3 | ||
| 2013-09-20T11:48 | 6186 | 482 | 46 | 12.0 | ||
| 2013-09-20T11:49 | 6528 | 461 | 27 | 13.0 | ||
| 2013-09-20T11:49 | 6586 | 457 | 24 | 14.0 | ||
| 2013-09-20T11:49 | 6663 | 453 | -8.6 | -39.9 | ||
| 2013-09-20T11:50 | 6882 | 440 | 19 | 11.0 | ||
| 2013-09-20T11:51 | 7219 | 421 | 12 | 12.0 | ||
| 2013-09-20T11:51 | 7264 | 419 | -12.5 | -44.5 | ||
| 2013-09-20T11:52 | 7563 | 403 | 21 | 10.0 | ||
| 2013-09-20T11:53 | 7871 | 387 | -17.6 | -56.1 | ||
| 2013-09-20T11:53 | 7910 | 385 | 24 | 10.0 | ||
| 2013-09-20T11:54 | 8245 | 368 | 12 | 10.0 | ||
| 2013-09-20T11:55 | 8598 | 350 | 340 | 8.0 | ||
| 2013-09-20T11:56 | 8853 | 338 | -24.9 | -66.3 | ||
| 2013-09-20T11:56 | 8958 | 334 | 312 | 13.0 | ||
| 2013-09-20T11:57 | 9196 | 323 | -26.2 | -51.9 | ||
| 2013-09-20T11:57 | 9345 | 316 | 303 | 16.0 | ||
| 2013-09-20T11:58 | 9719 | 300 | 288 | 15.0 | ||
| 2013-09-20T11:59 | 10086 | 285 | -32.8 | -45.8 | 277 | 20.0 |
| 2013-09-20T12:00 | 10412 | 272 | -35.3 | -44.6 | ||
| 2013-09-20T12:00 | 10465 | 270 | 262 | 21.0 | ||
| 2013-09-20T12:00 | 10498 | 269 | -35.8 | -41.0 | ||
| 2013-09-20T12:01 | 10741 | 259 | -36.5 | -40.1 | ||
| 2013-09-20T12:01 | 10855 | 255 | 238 | 24.0 | ||
| 2013-09-20T12:02 | 11208 | 242 | -40.0 | -43.9 | ||
| 2013-09-20T12:02 | 11235 | 241 | 228 | 28.0 | ||
| 2013-09-20T12:03 | 11650 | 227 | 220 | 31.0 | ||
| 2013-09-20T12:04 | 12044 | 214 | 225 | 33.0 | ||
| 2013-09-20T12:05 | 12407 | 203 | 232 | 34.0 | ||
| 2013-09-20T12:05 | 12448 | 201 | -50.5 | |||
| 2013-09-20T12:06 | 12761 | 192 | 232 | 34.0 | ||
| 2013-09-20T12:07 | 13136 | 181 | 236 | 35.0 | ||
| 2013-09-20T12:08 | 13521 | 170 | 241 | 35.0 | ||
| 2013-09-20T12:09 | 13830 | 162 | -62.5 | |||
| 2013-09-20T12:09 | 13900 | 160 | 248 | 36.0 | ||
| 2013-09-20T12:11 | 14723 | 140 | 257 | 39.0 | ||
| 2013-09-20T12:11 | 14747 | 139 | 258 | 39.0 | ||
| 2013-09-20T12:12 | 15108 | 131 | -72.0 | |||
| 2013-09-20T12:12 | 15268 | 127 | 274 | 30.0 | ||
| 2013-09-20T12:13 | 15781 | 117 | -76.6 | |||
| 2013-09-20T12:13 | 15829 | 116 | -76.2 | 290 | 23.0 | |
| 2013-09-20T12:13 | 16064 | 111 | -74.0 | |||
| 2013-09-20T12:14 | 16121 | 110 | -74.0 | |||
| 2013-09-20T12:14 | 16302 | 107 | 325 | 15.0 | ||
| 2013-09-20T12:14 | 16388 | 105 | -75.3 | |||
| 2013-09-20T12:15 | 16532 | 102 | -73.7 | |||
| 2013-09-20T12:15 | 16673 | 100 | -72.7 | 343 | 10.0 | |
| 2013-09-20T12:15 | 16694 | 100 | 344 | 11.0 | ||
| 2013-09-20T12:16 | 17076 | 93 | -73.8 | |||
| 2013-09-20T12:16 | 17167 | 92 | 34 | 6.0 | ||
| 2013-09-20T12:17 | 17551 | 86 | -73.3 | |||
| 2013-09-20T12:17 | 17640 | 85 | 101 | 3.0 | ||
| 2013-09-20T12:18 | 17959 | 80 | -70.6 | |||
| 2013-09-20T12:18 | 18100 | 78 | 56 | 4.0 | ||
| 2013-09-20T12:18 | 18160 | 78 | -69.6 | |||
| 2013-09-20T12:19 | 18331 | 75 | -68.2 | |||
| 2013-09-20T12:19 | 18444 | 74 | -68.3 | 42 | 9.0 | |
| 2013-09-20T23:30 | 9 | 1011 | 29.4 | 24.1 | 100 | 9.0 |
| 2013-09-20T23:30 | 10 | 1010 | 27.9 | 20.5 | ||
| 2013-09-20T23:31 | 360 | 971 | 98 | 10.0 | ||
| 2013-09-20T23:32 | 580 | 947 | 93 | 12.0 | ||
| 2013-09-20T23:32 | 592 | 946 | 92 | 12.0 | ||
| 2013-09-20T23:32 | 723 | 932 | 94 | 12.0 | ||
| 2013-09-20T23:33 | 912 | 912 | 20.3 | 17.7 | ||
| 2013-09-20T23:33 | 1061 | 896 | 108 | 10.0 | ||
| 2013-09-20T23:33 | 1084 | 894 | 19.8 | 16.1 | ||
| 2013-09-20T23:34 | 1343 | 868 | 18.2 | 15.1 | ||
| 2013-09-20T23:34 | 1400 | 862 | 118 | 7.0 | ||
| 2013-09-20T23:35 | 1767 | 826 | 99 | 6.0 | ||
| 2013-09-20T23:35 | 1847 | 818 | 15.1 | 12.8 | ||
| 2013-09-20T23:36 | 2075 | 796 | 14.2 | 12.2 | ||
| 2013-09-20T23:36 | 2128 | 791 | 104 | 5.0 | ||
| 2013-09-20T23:37 | 2411 | 765 | 13.0 | 10.4 | ||
| 2013-09-20T23:37 | 2458 | 761 | 12.6 | 9.8 | ||
| 2013-09-20T23:37 | 2487 | 758 | 95 | 2.0 | ||
| 2013-09-20T23:37 | 2510 | 756 | 12.2 | 10.3 | ||
| 2013-09-20T23:38 | 2840 | 727 | 48 | 1.0 | ||
| 2013-09-20T23:38 | 3001 | 713 | 9.8 | 7.4 | ||
| 2013-09-20T23:39 | 3195 | 697 | 9.7 | 3.2 | ||
| 2013-09-20T23:39 | 3214 | 695 | 24 | 1.0 | ||
| 2013-09-20T23:39 | 3307 | 687 | 8.8 | 3.4 | ||
| 2013-09-20T23:39 | 3332 | 685 | 8.6 | 3.6 | ||
| 2013-09-20T23:39 | 3344 | 684 | 8.5 | 5.2 | ||
| 2013-09-20T23:39 | 3375 | 682 | 8.2 | 4.2 | ||
| 2013-09-20T23:40 | 3406 | 679 | 8.2 | 3.8 | ||
| 2013-09-20T23:40 | 3418 | 678 | 8.2 | -1.1 | ||
| 2013-09-20T23:40 | 3443 | 676 | 8.1 | -0.4 | ||
| 2013-09-20T23:40 | 3473 | 674 | 8.0 | -1.0 | ||
| 2013-09-20T23:40 | 3479 | 673 | 8.0 | -2.9 | ||
| 2013-09-20T23:40 | 3516 | 670 | 80 | 1.0 | ||
| 2013-09-20T23:40 | 3534 | 669 | 52 | 1.0 | ||
| 2013-09-20T23:40 | 3547 | 668 | 7.7 | -1.8 | 44 | 1.0 |
| 2013-09-20T23:40 | 3559 | 667 | 7.7 | -1.3 | ||
| 2013-09-20T23:40 | 3584 | 665 | 7.7 | -4.7 | 0 | 0.0 |
| 2013-09-20T23:40 | 3596 | 664 | 7.7 | -0.5 | ||
| 2013-09-20T23:40 | 3633 | 661 | 7.5 | 0.2 | 306 | 1.0 |
| 2013-09-20T23:40 | 3652 | 659 | 7.5 | -2.5 | ||
| 2013-09-20T23:40 | 3677 | 657 | 7.5 | -3.7 | ||
| 2013-09-20T23:40 | 3696 | 656 | 7.5 | -7.7 | ||
| 2013-09-20T23:40 | 3702 | 655 | 7.5 | -2.3 | ||
| 2013-09-20T23:40 | 3721 | 654 | 7.5 | -0.7 | ||
| 2013-09-20T23:40 | 3753 | 651 | 7.5 | -6.6 | ||
| 2013-09-20T23:41 | 3785 | 649 | 7.6 | -11.2 | ||
| 2013-09-20T23:41 | 3937 | 637 | 6.7 | -8.8 | ||
| 2013-09-20T23:41 | 3962 | 635 | 219 | 1.0 | ||
| 2013-09-20T23:41 | 4012 | 631 | 6.8 | -8.4 | ||
| 2013-09-20T23:41 | 4024 | 630 | 6.8 | -11.9 | ||
| 2013-09-20T23:41 | 4055 | 628 | 6.7 | -9.3 | ||
| 2013-09-20T23:42 | 4197 | 617 | 5.9 | -13.2 | ||
| 2013-09-20T23:42 | 4246 | 613 | 5.5 | -10.7 | ||
| 2013-09-20T23:42 | 4331 | 607 | 135 | 4.0 | ||
| 2013-09-20T23:43 | 4568 | 589 | 3.3 | -15.9 | ||
| 2013-09-20T23:43 | 4665 | 583 | 2.8 | -20.6 | ||
| 2013-09-20T23:43 | 4695 | 580 | 123 | 7.0 | ||
| 2013-09-20T23:44 | 5030 | 557 | -0.1 | -19.3 | ||
| 2013-09-20T23:44 | 5055 | 555 | 0.1 | -28.0 | 96 | 8.0 |
| 2013-09-20T23:44 | 5232 | 543 | 0.9 | -43.5 | ||
| 2013-09-20T23:45 | 5433 | 529 | 65 | 7.0 | ||
| 2013-09-20T23:46 | 5727 | 510 | -2.6 | -52.0 | ||
| 2013-09-20T23:46 | 5783 | 507 | 73 | 5.0 | ||
| 2013-09-20T23:47 | 6097 | 487 | -6.0 | -41.8 | ||
| 2013-09-20T23:47 | 6175 | 482 | 64 | 4.0 | ||
| 2013-09-20T23:47 | 6357 | 471 | -7.8 | -49.4 | ||
| 2013-09-20T23:48 | 6447 | 465 | -8.4 | -26.4 | ||
| 2013-09-20T23:48 | 6545 | 460 | 90 | 6.0 | ||
| 2013-09-20T23:48 | 6670 | 452 | -9.9 | -28.7 | ||
| 2013-09-20T23:49 | 6885 | 440 | -11.2 | -34.2 | ||
| 2013-09-20T23:49 | 6910 | 438 | 89 | 5.0 | ||
| 2013-09-20T23:50 | 7097 | 428 | -11.8 | -46.0 | ||
| 2013-09-20T23:50 | 7282 | 418 | 60 | 3.0 | ||
| 2013-09-20T23:51 | 7657 | 397 | 64 | 4.0 | ||
| 2013-09-20T23:51 | 7761 | 392 | -17.4 | -50.1 | ||
| 2013-09-20T23:52 | 8052 | 377 | 58 | 7.0 | ||
| 2013-09-20T23:53 | 8344 | 362 | -22.4 | -49.0 | ||
| 2013-09-20T23:53 | 8430 | 358 | 60 | 8.0 | ||
| 2013-09-20T23:54 | 8811 | 340 | 60 | 12.0 | ||
| 2013-09-20T23:54 | 8975 | 332 | -26.5 | -56.8 | ||
| 2013-09-20T23:55 | 9211 | 321 | 63 | 5.0 | ||
| 2013-09-20T23:56 | 9478 | 310 | -29.5 | -52.4 | ||
| 2013-09-20T23:56 | 9629 | 303 | 315 | 3.0 | ||
| 2013-09-20T23:56 | 9651 | 302 | -30.5 | -46.2 | ||
| 2013-09-20T23:57 | 9990 | 288 | -32.9 | -41.9 | ||
| 2013-09-20T23:57 | 10066 | 285 | 282 | 12.0 | ||
| 2013-09-20T23:57 | 10094 | 284 | -33.1 | -39.1 | ||
| 2013-09-20T23:57 | 10169 | 281 | -33.3 | -37.9 | ||
| 2013-09-20T23:58 | 10466 | 269 | 262 | 18.0 | ||
| 2013-09-20T23:59 | 10756 | 258 | -38.0 | -42.7 | ||
| 2013-09-20T23:59 | 10848 | 255 | 249 | 21.0 | ||
| 2013-09-21T00:00 | 11028 | 248 | -40.0 | -45.0 | ||
| 2013-09-21T00:00 | 11210 | 241 | 248 | 26.0 | ||
| 2013-09-21T00:01 | 11569 | 229 | 248 | 29.0 | ||
| 2013-09-21T00:02 | 11931 | 217 | 251 | 32.0 | ||
| 2013-09-21T00:03 | 12281 | 206 | 252 | 34.0 | ||
| 2013-09-21T00:04 | 12632 | 195 | 252 | 36.0 | ||
| 2013-09-21T00:04 | 12805 | 190 | -54.8 | |||
| 2013-09-21T00:05 | 12986 | 184 | 253 | 36.0 | ||
| 2013-09-21T00:06 | 13333 | 174 | 258 | 36.0 | ||
| 2013-09-21T00:07 | 13684 | 165 | 263 | 37.0 | ||
| 2013-09-21T00:08 | 14015 | 156 | 269 | 40.0 | ||
| 2013-09-21T00:08 | 14055 | 155 | -64.7 | |||
| 2013-09-21T00:08 | 14119 | 154 | 273 | 40.0 | ||
| 2013-09-21T00:09 | 14364 | 147 | 280 | 39.0 | ||
| 2013-09-21T00:10 | 14694 | 140 | -69.7 | |||
| 2013-09-21T00:10 | 14741 | 138 | 287 | 37.0 | ||
| 2013-09-21T00:11 | 15173 | 129 | 304 | 31.0 | ||
| 2013-09-21T00:12 | 15719 | 117 | 328 | 20.0 | ||
| 2013-09-21T00:12 | 15818 | 115 | -76.3 | |||
| 2013-09-21T00:13 | 16254 | 107 | -74.8 | 1 | 16.0 | |
| 2013-09-21T00:14 | 16631 | 100 | -75.5 | 34 | 11.0 | |
| 2013-09-21T00:14 | 16765 | 98 | 49 | 8.0 | ||
| 2013-09-21T00:14 | 16816 | 97 | -75.3 | |||
| 2013-09-21T00:15 | 17292 | 89 | -76.2 | |||
| 2013-09-21T00:15 | 17378 | 88 | 33 | 8.0 | ||
| 2013-09-21T00:15 | 17425 | 87 | -75.5 | 34 | 8.0 | |
| 2013-09-21T11:30 | 9 | 1010 | 28.1 | 23.9 | 100 | 7.0 |
| 2013-09-21T11:31 | 285 | 979 | 111 | 8.0 | ||
| 2013-09-21T11:31 | 297 | 978 | 111 | 8.0 | ||
| 2013-09-21T11:31 | 343 | 973 | 112 | 7.0 | ||
| 2013-09-21T11:32 | 561 | 949 | 23.5 | 20.4 | ||
| 2013-09-21T11:32 | 612 | 944 | 23.3 | 19.0 | ||
| 2013-09-21T11:32 | 680 | 936 | 110 | 7.0 | ||
| 2013-09-21T11:32 | 764 | 927 | 22.1 | 17.5 | ||
| 2013-09-21T11:33 | 1024 | 900 | 118 | 6.0 | ||
| 2013-09-21T11:34 | 1269 | 875 | 18.5 | 16.5 | ||
| 2013-09-21T11:34 | 1363 | 865 | 115 | 6.0 | ||
| 2013-09-21T11:35 | 1707 | 831 | 16.2 | 14.6 | 132 | 3.0 |
| 2013-09-21T11:35 | 1839 | 819 | 15.9 | 13.2 | ||
| 2013-09-21T11:36 | 2049 | 798 | 216 | 2.0 | ||
| 2013-09-21T11:36 | 2072 | 796 | 14.7 | 12.0 | ||
| 2013-09-21T11:37 | 2390 | 767 | 234 | 6.0 | ||
| 2013-09-21T11:37 | 2439 | 763 | 13.6 | 8.9 | ||
| 2013-09-21T11:38 | 2681 | 741 | 12.3 | 5.9 | ||
| 2013-09-21T11:38 | 2773 | 733 | 235 | 8.0 | ||
| 2013-09-21T11:38 | 2964 | 716 | 11.3 | 5.0 | ||
| 2013-09-21T11:39 | 3154 | 700 | 232 | 9.0 | ||
| 2013-09-21T11:39 | 3160 | 699 | 232 | 9.0 | ||
| 2013-09-21T11:39 | 3172 | 698 | 231 | 9.0 | ||
| 2013-09-21T11:39 | 3196 | 697 | 230 | 9.0 | ||
| 2013-09-21T11:40 | 3519 | 670 | 204 | 5.0 | ||
| 2013-09-21T11:40 | 3555 | 667 | 7.6 | 2.5 | ||
| 2013-09-21T11:41 | 3739 | 652 | 6.5 | -1.6 | ||
| 2013-09-21T11:41 | 3815 | 646 | 6.4 | -4.4 | ||
| 2013-09-21T11:41 | 3833 | 645 | 6.3 | -2.1 | ||
| 2013-09-21T11:41 | 3875 | 642 | 146 | 3.0 | ||
| 2013-09-21T11:41 | 3976 | 634 | 5.4 | -1.5 | ||
| 2013-09-21T11:41 | 4000 | 632 | 5.3 | -6.3 | ||
| 2013-09-21T11:42 | 4077 | 626 | 4.7 | -5.7 | ||
| 2013-09-21T11:42 | 4118 | 623 | 4.8 | -4.5 | ||
| 2013-09-21T11:42 | 4176 | 618 | 5.0 | -10.3 | ||
| 2013-09-21T11:42 | 4199 | 617 | 5.0 | -10.3 | ||
| 2013-09-21T11:42 | 4227 | 615 | 4.8 | -9.0 | 110 | 3.0 |
| 2013-09-21T11:42 | 4289 | 610 | 4.6 | -9.9 | ||
| 2013-09-21T11:42 | 4351 | 605 | 4.2 | -11.0 | ||
| 2013-09-21T11:43 | 4425 | 600 | 3.6 | -11.2 | ||
| 2013-09-21T11:43 | 4454 | 598 | 3.3 | -3.3 | ||
| 2013-09-21T11:43 | 4537 | 591 | 2.6 | -4.2 | ||
| 2013-09-21T11:43 | 4554 | 590 | 2.6 | -8.4 | ||
| 2013-09-21T11:43 | 4572 | 589 | 2.7 | -17.5 | 103 | 3.0 |
| 2013-09-21T11:43 | 4631 | 585 | 2.2 | -11.0 | ||
| 2013-09-21T11:43 | 4637 | 584 | 2.2 | -4.8 | ||
| 2013-09-21T11:43 | 4685 | 581 | 1.8 | -3.9 | ||
| 2013-09-21T11:43 | 4726 | 578 | 1.5 | -5.9 | ||
| 2013-09-21T11:44 | 4756 | 576 | 1.5 | -8.9 | ||
| 2013-09-21T11:44 | 4785 | 574 | 1.6 | -13.3 | ||
| 2013-09-21T11:44 | 4824 | 571 | 1.5 | -16.9 | ||
| 2013-09-21T11:44 | 4859 | 568 | 1.3 | -12.1 | ||
| 2013-09-21T11:44 | 4887 | 566 | 1.1 | -8.4 | ||
| 2013-09-21T11:44 | 4910 | 565 | 0.9 | -12.9 | ||
| 2013-09-21T11:44 | 4921 | 564 | 74 | 3.0 | ||
| 2013-09-21T11:44 | 4944 | 562 | 0.6 | -8.4 | ||
| 2013-09-21T11:44 | 4978 | 560 | 0.4 | -7.1 | ||
| 2013-09-21T11:44 | 4989 | 559 | 0.3 | -5.9 | ||
| 2013-09-21T11:44 | 5011 | 558 | 0.2 | -6.7 | ||
| 2013-09-21T11:44 | 5028 | 556 | 0.3 | -13.7 | ||
| 2013-09-21T11:44 | 5056 | 554 | 0.5 | -12.2 | ||
| 2013-09-21T11:45 | 5102 | 551 | 0.6 | -22.4 | ||
| 2013-09-21T11:45 | 5125 | 550 | 0.5 | -19.3 | ||
| 2013-09-21T11:45 | 5143 | 549 | 0.5 | -21.8 | ||
| 2013-09-21T11:45 | 5154 | 548 | 0.5 | -18.8 | ||
| 2013-09-21T11:45 | 5178 | 546 | 0.5 | -25.7 | ||
| 2013-09-21T11:45 | 5244 | 542 | 0.6 | -50.0 | ||
| 2013-09-21T11:45 | 5268 | 540 | 118 | 4.0 | ||
| 2013-09-21T11:46 | 5554 | 521 | -0.9 | -44.7 | ||
| 2013-09-21T11:46 | 5651 | 515 | 144 | 3.0 | ||
| 2013-09-21T11:47 | 5857 | 501 | -3.3 | -46.3 | ||
| 2013-09-21T11:47 | 5915 | 498 | -3.5 | -23.8 | ||
| 2013-09-21T11:47 | 6036 | 490 | 104 | 3.0 | ||
| 2013-09-21T11:48 | 6234 | 478 | -6.4 | -26.3 | ||
| 2013-09-21T11:48 | 6405 | 468 | 89 | 3.0 | ||
| 2013-09-21T11:48 | 6423 | 467 | -7.0 | -33.6 | ||
| 2013-09-21T11:49 | 6629 | 454 | -8.1 | -31.0 | ||
| 2013-09-21T11:49 | 6762 | 447 | 99 | 5.0 | ||
| 2013-09-21T11:49 | 6923 | 437 | -9.8 | -36.8 | ||
| 2013-09-21T11:50 | 7116 | 427 | 109 | 5.0 | ||
| 2013-09-21T11:51 | 7303 | 416 | -11.9 | -42.4 | ||
| 2013-09-21T11:51 | 7488 | 406 | 86 | 5.0 | ||
| 2013-09-21T11:52 | 7852 | 387 | 118 | 7.0 | ||
| 2013-09-21T11:53 | 8224 | 368 | 107 | 8.0 | ||
| 2013-09-21T11:53 | 8351 | 362 | -20.2 | -48.6 | ||
| 2013-09-21T11:54 | 8518 | 354 | 100 | 9.0 | ||
| 2013-09-21T11:54 | 8731 | 344 | -23.1 | -54.3 | ||
| 2013-09-21T11:55 | 8964 | 333 | -24.4 | -50.5 | 96 | 2.0 |
| 2013-09-21T11:55 | 9060 | 329 | -25.1 | -39.1 | ||
| 2013-09-21T11:55 | 9095 | 327 | 65 | 1.0 | ||
| 2013-09-21T11:56 | 9180 | 324 | 0 | 0.0 | ||
| 2013-09-21T11:56 | 9192 | 323 | 269 | 1.0 | ||
| 2013-09-21T11:56 | 9217 | 322 | -26.5 | -36.6 | ||
| 2013-09-21T11:56 | 9242 | 321 | -26.7 | -34.0 | ||
| 2013-09-21T11:56 | 9293 | 318 | -26.8 | -33.1 | ||
| 2013-09-21T11:56 | 9326 | 317 | 263 | 3.0 | ||
| 2013-09-21T11:56 | 9419 | 313 | -27.2 | -32.3 | ||
| 2013-09-21T11:57 | 9632 | 304 | -27.8 | -31.9 | ||
| 2013-09-21T11:57 | 9703 | 301 | 260 | 9.0 | ||
| 2013-09-21T11:58 | 10064 | 286 | 269 | 11.0 | ||
| 2013-09-21T11:59 | 10442 | 271 | 265 | 14.0 | ||
| 2013-09-21T12:00 | 10818 | 257 | -37.1 | -41.7 | ||
| 2013-09-21T12:01 | 11196 | 243 | -40.0 | -44.4 | 263 | 21.0 |
| 2013-09-21T12:02 | 11557 | 230 | 258 | 24.0 | ||
| 2013-09-21T12:03 | 11908 | 219 | 257 | 28.0 | ||
| 2013-09-21T12:04 | 12248 | 208 | 260 | 30.0 | ||
| 2013-09-21T12:05 | 12583 | 197 | 262 | 30.0 | ||
| 2013-09-21T12:06 | 12866 | 189 | 263 | 30.0 | ||
| 2013-09-21T12:06 | 12878 | 188 | 263 | 30.0 | ||
| 2013-09-21T12:06 | 12925 | 187 | -55.1 | |||
| 2013-09-21T12:07 | 13284 | 177 | 266 | 27.0 | ||
| 2013-09-21T12:08 | 13634 | 167 | 270 | 25.0 | ||
| 2013-09-21T12:09 | 13995 | 158 | 277 | 24.0 | ||
| 2013-09-21T12:10 | 14376 | 148 | 298 | 26.0 | ||
| 2013-09-21T12:11 | 14626 | 142 | -67.9 | |||
| 2013-09-21T12:11 | 14766 | 139 | 305 | 30.0 | ||
| 2013-09-21T12:11 | 14930 | 135 | -68.9 | |||
| 2013-09-21T12:12 | 15235 | 128 | 317 | 27.0 | ||
| 2013-09-21T12:13 | 15673 | 119 | -74.7 | |||
| 2013-09-21T12:14 | 16156 | 110 | 351 | 12.0 | ||
| 2013-09-21T12:15 | 16597 | 101 | -78.7 | |||
| 2013-09-21T12:15 | 16675 | 100 | -78.3 | 264 | 7.0 | |
| 2013-09-21T12:16 | 16931 | 96 | -75.9 | |||
| 2013-09-21T12:16 | 17204 | 91 | 7 | 10.0 | ||
| 2013-09-21T12:16 | 17297 | 90 | -73.4 | |||
| 2013-09-21T12:17 | 17629 | 85 | -73.4 | 27 | 12.0 | |
| 2013-09-21T23:30 | 9 | 1010 | 28.9 | 24.2 | 110 | 7.0 |
| 2013-09-21T23:31 | 363 | 970 | 105 | 8.0 | ||
| 2013-09-21T23:31 | 450 | 961 | 109 | 8.0 | ||
| 2013-09-21T23:31 | 456 | 960 | 109 | 8.0 | ||
| 2013-09-21T23:31 | 467 | 959 | 110 | 8.0 | ||
| 2013-09-21T23:31 | 473 | 958 | 110 | 8.0 | ||
| 2013-09-21T23:31 | 484 | 957 | 110 | 8.0 | ||
| 2013-09-21T23:31 | 496 | 956 | 24.1 | 20.4 | ||
| 2013-09-21T23:31 | 502 | 955 | 111 | 8.0 | ||
| 2013-09-21T23:31 | 513 | 954 | 112 | 8.0 | ||
| 2013-09-21T23:31 | 519 | 953 | 112 | 8.0 | ||
| 2013-09-21T23:32 | 710 | 933 | 124 | 7.0 | ||
| 2013-09-21T23:32 | 750 | 928 | 22.5 | 17.9 | ||
| 2013-09-21T23:33 | 1048 | 897 | 125 | 4.0 | ||
| 2013-09-21T23:33 | 1106 | 891 | 20.3 | 15.9 | ||
| 2013-09-21T23:34 | 1257 | 876 | 19.6 | 15.7 | ||
| 2013-09-21T23:34 | 1384 | 863 | 19.0 | 14.9 | ||
| 2013-09-21T23:34 | 1421 | 859 | 114 | 4.0 | ||
| 2013-09-21T23:35 | 1614 | 840 | 17.3 | 14.4 | ||
| 2013-09-21T23:35 | 1754 | 827 | 135 | 3.0 | ||
| 2013-09-21T23:35 | 1819 | 820 | 16.0 | 14.7 | ||
| 2013-09-21T23:36 | 2088 | 795 | 189 | 3.0 | ||
| 2013-09-21T23:36 | 2105 | 793 | 15.1 | 13.3 | ||
| 2013-09-21T23:36 | 2263 | 778 | 14.8 | 12.8 | ||
| 2013-09-21T23:37 | 2341 | 771 | 14.9 | 10.1 | ||
| 2013-09-21T23:37 | 2449 | 762 | 14.5 | 7.5 | 241 | 4.0 |
| 2013-09-21T23:37 | 2535 | 754 | 14.0 | 6.8 | ||
| 2013-09-21T23:38 | 2781 | 732 | 257 | 6.0 | ||
| 2013-09-21T23:39 | 2968 | 716 | 11.9 | 2.6 | ||
| 2013-09-21T23:39 | 3031 | 711 | 11.7 | 1.9 | ||
| 2013-09-21T23:39 | 3124 | 703 | 10.9 | 3.0 | ||
| 2013-09-21T23:39 | 3144 | 701 | 263 | 8.0 | ||
| 2013-09-21T23:39 | 3280 | 690 | 9.9 | 0.8 | ||
| 2013-09-21T23:40 | 3334 | 685 | 9.7 | 3.4 | ||
| 2013-09-21T23:40 | 3427 | 678 | 9.4 | 3.4 | ||
| 2013-09-21T23:40 | 3511 | 671 | 267 | 8.0 | ||
| 2013-09-21T23:40 | 3609 | 663 | 8.1 | 1.0 | ||
| 2013-09-21T23:41 | 3775 | 650 | 7.2 | -2.5 | ||
| 2013-09-21T23:41 | 3821 | 646 | 7.1 | -1.1 | ||
| 2013-09-21T23:41 | 3871 | 642 | 255 | 9.0 | ||
| 2013-09-21T23:41 | 3893 | 641 | 6.8 | -0.7 | ||
| 2013-09-21T23:42 | 4199 | 617 | 265 | 9.0 | ||
| 2013-09-21T23:43 | 4386 | 603 | 3.6 | -3.2 | ||
| 2013-09-21T23:43 | 4513 | 594 | 253 | 9.0 | ||
| 2013-09-21T23:43 | 4575 | 589 | 246 | 9.0 | ||
| 2013-09-21T23:44 | 4781 | 574 | 1.2 | -5.5 | ||
| 2013-09-21T23:44 | 4829 | 571 | 234 | 7.0 | ||
| 2013-09-21T23:44 | 4889 | 567 | 0.6 | -6.5 | ||
| 2013-09-21T23:45 | 5013 | 558 | -0.3 | -6.3 | ||
| 2013-09-21T23:45 | 5046 | 556 | -0.5 | -5.9 | ||
| 2013-09-21T23:45 | 5157 | 548 | 227 | 6.0 | ||
| 2013-09-21T23:45 | 5267 | 541 | -1.9 | -6.1 | ||
| 2013-09-21T23:46 | 5369 | 534 | -2.0 | -5.5 | ||
| 2013-09-21T23:46 | 5456 | 528 | -1.6 | -7.1 | ||
| 2013-09-21T23:46 | 5507 | 525 | 164 | 2.0 | ||
| 2013-09-21T23:46 | 5655 | 515 | -2.6 | -12.9 | ||
| 2013-09-21T23:47 | 5750 | 509 | -3.2 | -15.8 | ||
| 2013-09-21T23:47 | 5790 | 506 | -3.5 | -20.7 | ||
| 2013-09-21T23:47 | 5841 | 503 | 158 | 3.0 | ||
| 2013-09-21T23:47 | 5853 | 502 | -3.9 | -19.0 | ||
| 2013-09-21T23:47 | 5904 | 499 | -4.3 | -22.9 | ||
| 2013-09-21T23:47 | 5921 | 498 | -4.4 | -29.6 | ||
| 2013-09-21T23:47 | 5973 | 495 | -4.8 | -27.5 | ||
| 2013-09-21T23:48 | 6180 | 482 | 157 | 4.0 | ||
| 2013-09-21T23:48 | 6336 | 472 | -7.2 | -28.2 | ||
| 2013-09-21T23:49 | 6451 | 465 | -7.3 | -32.8 | ||
| 2013-09-21T23:49 | 6507 | 462 | 196 | 5.0 | ||
| 2013-09-21T23:49 | 6669 | 452 | -8.5 | -35.8 | ||
| 2013-09-21T23:50 | 6753 | 447 | -9.0 | -44.0 | ||
| 2013-09-21T23:50 | 6777 | 446 | -9.2 | -38.8 | ||
| 2013-09-21T23:50 | 6814 | 444 | -9.5 | -33.7 | ||
| 2013-09-21T23:50 | 6845 | 442 | -9.7 | -33.9 | ||
| 2013-09-21T23:50 | 6864 | 441 | 209 | 6.0 | ||
| 2013-09-21T23:50 | 6908 | 438 | -10.3 | -28.0 | ||
| 2013-09-21T23:50 | 6995 | 434 | -11.1 | -27.7 | ||
| 2013-09-21T23:51 | 7100 | 428 | -12.1 | -26.2 | ||
| 2013-09-21T23:51 | 7237 | 420 | 190 | 5.0 | ||
| 2013-09-21T23:51 | 7263 | 419 | -13.6 | -27.1 | ||
| 2013-09-21T23:51 | 7303 | 416 | -14.0 | -27.8 | ||
| 2013-09-21T23:52 | 7649 | 398 | 187 | 3.0 | ||
| 2013-09-21T23:52 | 7774 | 391 | -18.6 | -26.2 | ||
| 2013-09-21T23:52 | 7800 | 390 | -18.6 | -24.3 | ||
| 2013-09-21T23:52 | 7833 | 388 | -18.2 | -22.3 | ||
| 2013-09-21T23:53 | 7891 | 385 | -17.6 | -20.2 | ||
| 2013-09-21T23:53 | 7992 | 380 | -17.5 | -19.3 | ||
| 2013-09-21T23:53 | 8036 | 378 | 235 | 9.0 | ||
| 2013-09-21T23:54 | 8420 | 359 | 237 | 10.0 | ||
| 2013-09-21T23:55 | 8667 | 347 | -21.7 | -24.4 | ||
| 2013-09-21T23:55 | 8815 | 340 | 242 | 9.0 | ||
| 2013-09-21T23:56 | 9218 | 322 | 246 | 12.0 | ||
| 2013-09-21T23:57 | 9618 | 304 | 250 | 14.0 | ||
| 2013-09-21T23:58 | 9884 | 293 | -30.0 | -33.3 | ||
| 2013-09-21T23:58 | 10002 | 288 | 252 | 20.0 | ||
| 2013-09-21T23:59 | 10375 | 274 | 254 | 22.0 | ||
| 2013-09-21T23:59 | 10448 | 271 | -34.1 | -38.1 | ||
| 2013-09-22T00:00 | 10731 | 260 | 259 | 21.0 | ||
| 2013-09-22T00:00 | 10831 | 256 | -37.1 | -41.0 | ||
| 2013-09-22T00:01 | 11094 | 247 | 270 | 23.0 | ||
| 2013-09-22T00:01 | 11241 | 241 | -40.0 | -44.8 | ||
| 2013-09-22T00:02 | 11473 | 233 | 273 | 26.0 | ||
| 2013-09-22T00:03 | 11841 | 221 | 272 | 28.0 | ||
| 2013-09-22T00:04 | 12199 | 209 | 267 | 28.0 | ||
| 2013-09-22T00:05 | 12544 | 199 | 267 | 29.0 | ||
| 2013-09-22T00:06 | 12880 | 188 | 266 | 31.0 | ||
| 2013-09-22T00:06 | 13014 | 185 | -55.7 | |||
| 2013-09-22T00:07 | 13233 | 178 | 262 | 33.0 | ||
| 2013-09-22T00:07 | 13280 | 177 | 262 | 33.0 | ||
| 2013-09-22T00:08 | 13602 | 168 | 266 | 32.0 | ||
| 2013-09-22T00:09 | 14021 | 157 | 285 | 26.0 | ||
| 2013-09-22T00:09 | 14096 | 155 | -64.3 | |||
| 2013-09-22T00:10 | 14484 | 146 | 302 | 22.0 | ||
| 2013-09-22T00:11 | 14983 | 134 | 325 | 20.0 | ||
| 2013-09-22T00:11 | 15151 | 130 | -73.5 | |||
| 2013-09-22T00:12 | 15498 | 123 | 353 | 23.0 | ||
| 2013-09-22T00:13 | 15976 | 113 | 6 | 16.0 | ||
| 2013-09-22T00:13 | 16002 | 112 | -78.7 | |||
| 2013-09-22T00:14 | 16476 | 103 | 360 | 5.0 | ||
| 2013-09-22T00:14 | 16653 | 100 | -81.5 | 319 | 6.0 | |
| 2013-09-22T00:15 | 16915 | 95 | -79.8 | |||
| 2013-09-22T00:15 | 16980 | 94 | 347 | 10.0 | ||
| 2013-09-22T00:15 | 17110 | 92 | -76.7 | |||
| 2013-09-22T00:16 | 17344 | 89 | -75.3 | |||
| 2013-09-22T00:16 | 17483 | 87 | 62 | 8.0 | ||
| 2013-09-22T00:17 | 17756 | 83 | -74.6 | |||
| 2013-09-22T00:17 | 17987 | 79 | 72 | 9.0 | ||
| 2013-09-22T00:18 | 18358 | 74 | -72.3 | |||
| 2013-09-22T00:18 | 18423 | 74 | 81 | 8.0 | ||
| 2013-09-22T00:18 | 18442 | 73 | -71.2 | |||
| 2013-09-22T00:19 | 18815 | 69 | 79 | 11.0 | ||
| 2013-09-22T00:20 | 19058 | 66 | -69.6 | |||
| 2013-09-22T00:20 | 19224 | 64 | 82 | 11.0 | ||
| 2013-09-22T00:21 | 19560 | 61 | -67.5 | |||
| 2013-09-22T00:21 | 19611 | 60 | 78 | 12.0 | ||
| 2013-09-22T00:22 | 19951 | 57 | -67.7 | |||
| 2013-09-22T00:22 | 20028 | 56 | 89 | 13.0 | ||
| 2013-09-22T00:22 | 20036 | 56 | -66.4 | |||
| 2013-09-22T00:22 | 20241 | 54 | -65.9 | 86 | 13.0 | |
| 2013-09-22T11:30 | 9 | 1010 | 28.4 | 23.8 | 90 | 5.0 |
| 2013-09-22T11:30 | 116 | 998 | 27.4 | 22.1 | ||
| 2013-09-22T11:30 | 145 | 995 | 92 | 6.0 | ||
| 2013-09-22T11:30 | 152 | 994 | 92 | 6.0 | ||
| 2013-09-22T11:30 | 173 | 991 | 91 | 6.0 | ||
| 2013-09-22T11:31 | 192 | 989 | 90 | 6.0 | ||
| 2013-09-22T11:31 | 199 | 988 | 90 | 6.0 | ||
| 2013-09-22T11:31 | 212 | 987 | 90 | 6.0 | ||
| 2013-09-22T11:31 | 381 | 968 | 92 | 6.0 | ||
| 2013-09-22T11:31 | 420 | 964 | 24.9 | 20.6 | ||
| 2013-09-22T11:31 | 471 | 959 | 24.5 | 20.8 | ||
| 2013-09-22T11:31 | 501 | 955 | 24.2 | 20.7 | ||
| 2013-09-22T11:31 | 520 | 953 | 24.2 | 21.7 | ||
| 2013-09-22T11:31 | 532 | 952 | 24.2 | 17.9 | ||
| 2013-09-22T11:32 | 666 | 937 | 23.6 | 16.9 | ||
| 2013-09-22T11:32 | 690 | 935 | 23.5 | 17.5 | ||
| 2013-09-22T11:32 | 750 | 928 | 85 | 5.0 | ||
| 2013-09-22T11:32 | 787 | 924 | 22.7 | 16.0 | ||
| 2013-09-22T11:32 | 811 | 922 | 22.7 | 16.0 | ||
| 2013-09-22T11:32 | 840 | 919 | 22.8 | 13.8 | ||
| 2013-09-22T11:33 | 1002 | 902 | 21.5 | 13.7 | ||
| 2013-09-22T11:33 | 1063 | 895 | 21.0 | 16.4 | ||
| 2013-09-22T11:33 | 1112 | 890 | 75 | 4.0 | ||
| 2013-09-22T11:33 | 1174 | 884 | 20.8 | 14.5 | ||
| 2013-09-22T11:33 | 1235 | 878 | 20.3 | 15.5 | ||
| 2013-09-22T11:34 | 1295 | 872 | 20.2 | 13.9 | ||
| 2013-09-22T11:34 | 1452 | 856 | 84 | 3.0 | ||
| 2013-09-22T11:35 | 1659 | 836 | 18.0 | 12.9 | ||
| 2013-09-22T11:35 | 1777 | 824 | 26 | 2.0 | ||
| 2013-09-22T11:35 | 1871 | 815 | 16.8 | 11.7 | ||
| 2013-09-22T11:36 | 2044 | 799 | 15.8 | 9.2 | ||
| 2013-09-22T11:36 | 2115 | 792 | 14 | 1.0 | ||
| 2013-09-22T11:37 | 2303 | 775 | 14.6 | 7.6 | ||
| 2013-09-22T11:37 | 2369 | 769 | 14.8 | 9.2 | ||
| 2013-09-22T11:37 | 2401 | 766 | 14.9 | 6.5 | ||
| 2013-09-22T11:37 | 2444 | 762 | 267 | 5.0 | ||
| 2013-09-22T11:37 | 2538 | 754 | 14.4 | 6.2 | ||
| 2013-09-22T11:38 | 2775 | 733 | 252 | 8.0 | ||
| 2013-09-22T11:38 | 2879 | 724 | 12.3 | 7.2 | ||
| 2013-09-22T11:39 | 3127 | 703 | 223 | 6.0 | ||
| 2013-09-22T11:39 | 3176 | 699 | 10.4 | 4.3 | ||
| 2013-09-22T11:39 | 3243 | 693 | 10.1 | 2.0 | ||
| 2013-09-22T11:40 | 3369 | 683 | 9.1 | 1.7 | ||
| 2013-09-22T11:40 | 3470 | 674 | 223 | 8.0 | ||
| 2013-09-22T11:40 | 3589 | 665 | 7.2 | 2.1 | ||
| 2013-09-22T11:41 | 3743 | 652 | 6.6 | 1.3 | ||
| 2013-09-22T11:41 | 3817 | 646 | 195 | 8.0 | ||
| 2013-09-22T11:41 | 3834 | 645 | 6.0 | -0.5 | ||
| 2013-09-22T11:42 | 4161 | 620 | 187 | 8.0 | ||
| 2013-09-22T11:42 | 4290 | 610 | 1.8 | -1.3 | ||
| 2013-09-22T11:43 | 4536 | 592 | 198 | 12.0 | ||
| 2013-09-22T11:43 | 4578 | 588 | 0.5 | -0.1 | ||
| 2013-09-22T11:44 | 4905 | 565 | 212 | 16.0 | ||
| 2013-09-22T11:44 | 4925 | 564 | 213 | 16.0 | ||
| 2013-09-22T11:44 | 4939 | 563 | 214 | 16.0 | ||
| 2013-09-22T11:44 | 4958 | 561 | 214 | 16.0 | ||
| 2013-09-22T11:44 | 4971 | 560 | 214 | 16.0 | ||
| 2013-09-22T11:45 | 5171 | 546 | -2.0 | -2.4 | ||
| 2013-09-22T11:45 | 5291 | 538 | 238 | 12.0 | ||
| 2013-09-22T11:46 | 5667 | 514 | 271 | 7.0 | ||
| 2013-09-22T11:46 | 5751 | 508 | -3.9 | -4.6 | ||
| 2013-09-22T11:47 | 6029 | 490 | 311 | 4.0 | ||
| 2013-09-22T11:48 | 6258 | 476 | -6.4 | -7.3 | ||
| 2013-09-22T11:48 | 6409 | 467 | 300 | 8.0 | ||
| 2013-09-22T11:49 | 6774 | 446 | 266 | 8.0 | ||
| 2013-09-22T11:50 | 7071 | 429 | -10.9 | -11.8 | ||
| 2013-09-22T11:50 | 7164 | 424 | 255 | 10.0 | ||
| 2013-09-22T11:51 | 7561 | 403 | 275 | 8.0 | ||
| 2013-09-22T11:51 | 7629 | 399 | -14.2 | -15.3 | ||
| 2013-09-22T11:52 | 7963 | 382 | 279 | 8.0 | ||
| 2013-09-22T11:53 | 8321 | 364 | 272 | 9.0 | ||
| 2013-09-22T11:54 | 8667 | 348 | 264 | 10.0 | ||
| 2013-09-22T11:55 | 8968 | 334 | -23.7 | -24.3 | ||
| 2013-09-22T11:55 | 9037 | 330 | 267 | 11.0 | ||
| 2013-09-22T11:56 | 9407 | 314 | 265 | 11.0 | ||
| 2013-09-22T11:56 | 9431 | 313 | -26.6 | -27.7 | ||
| 2013-09-22T11:57 | 9767 | 299 | 263 | 13.0 | ||
| 2013-09-22T11:57 | 9890 | 294 | -29.8 | -32.7 | ||
| 2013-09-22T11:58 | 10139 | 284 | 268 | 15.0 | ||
| 2013-09-22T11:59 | 10387 | 274 | 268 | 17.0 | ||
| 2013-09-22T11:59 | 10400 | 273 | 268 | 17.0 | ||
| 2013-09-22T11:59 | 10522 | 269 | 268 | 17.0 | ||
| 2013-09-22T11:59 | 10608 | 265 | -35.4 | -39.1 | ||
| 2013-09-22T12:00 | 10883 | 255 | 278 | 16.0 | ||
| 2013-09-22T12:01 | 11068 | 248 | -38.6 | -43.5 | ||
| 2013-09-22T12:01 | 11237 | 242 | -39.8 | -43.3 | 285 | 15.0 |
| 2013-09-22T12:01 | 11260 | 241 | -40.0 | -43.6 | ||
| 2013-09-22T12:02 | 11583 | 230 | 290 | 15.0 | ||
| 2013-09-22T12:03 | 11926 | 219 | 298 | 16.0 | ||
| 2013-09-22T12:04 | 12280 | 207 | 300 | 17.0 | ||
| 2013-09-22T12:05 | 12621 | 197 | 300 | 17.0 | ||
| 2013-09-22T12:06 | 12788 | 192 | -52.5 | |||
| 2013-09-22T12:06 | 12953 | 187 | 302 | 20.0 | ||
| 2013-09-22T12:07 | 13281 | 177 | 303 | 20.0 | ||
| 2013-09-22T12:08 | 13596 | 169 | 303 | 20.0 | ||
| 2013-09-22T12:09 | 13893 | 161 | 304 | 21.0 | ||
| 2013-09-22T12:09 | 13910 | 160 | 305 | 21.0 | ||
| 2013-09-22T12:09 | 13949 | 159 | 305 | 21.0 | ||
| 2013-09-22T12:10 | 14263 | 152 | 307 | 19.0 | ||
| 2013-09-22T12:10 | 14404 | 148 | -66.3 | |||
| 2013-09-22T12:11 | 14666 | 142 | 313 | 17.0 | ||
| 2013-09-22T12:12 | 15094 | 132 | 323 | 15.0 | ||
| 2013-09-22T12:13 | 15502 | 123 | 330 | 15.0 | ||
| 2013-09-22T12:14 | 15844 | 116 | -79.0 | |||
| 2013-09-22T12:14 | 15887 | 115 | 317 | 10.0 | ||
| 2013-09-22T12:15 | 16169 | 109 | -78.8 | |||
| 2013-09-22T12:15 | 16249 | 108 | 328 | 11.0 | ||
| 2013-09-22T12:15 | 16342 | 106 | -77.9 | |||
| 2013-09-22T12:16 | 16678 | 100 | -77.1 | 14 | 13.0 | |
| 2013-09-22T12:17 | 16882 | 97 | -76.7 | |||
| 2013-09-22T12:17 | 17053 | 94 | 65 | 3.0 | ||
| 2013-09-22T12:18 | 17256 | 90 | -75.1 | |||
| 2013-09-22T12:18 | 17440 | 88 | 37 | 8.0 | ||
| 2013-09-22T12:18 | 17586 | 86 | -71.0 | |||
| 2013-09-22T12:19 | 17825 | 82 | 70 | 8.0 | ||
| 2013-09-22T12:20 | 18282 | 76 | 73 | 7.0 | ||
| 2013-09-22T12:20 | 18315 | 76 | -72.1 | |||
| 2013-09-22T12:21 | 18723 | 71 | 65 | 8.0 | ||
| 2013-09-22T12:21 | 18744 | 70 | -70.0 | |||
| 2013-09-22T12:22 | 18949 | 68 | -69.1 | |||
| 2013-09-22T12:22 | 19130 | 66 | 80 | 11.0 | ||
| 2013-09-22T12:23 | 19317 | 64 | -68.2 | |||
| 2013-09-22T12:23 | 19478 | 62 | 88 | 10.0 | ||
| 2013-09-22T12:24 | 19682 | 60 | -67.3 | |||
| 2013-09-22T12:24 | 19816 | 59 | 68 | 8.0 | ||
| 2013-09-22T12:24 | 19883 | 58 | -66.9 | |||
| 2013-09-22T12:25 | 20153 | 56 | 94 | 9.0 | ||
| 2013-09-22T12:25 | 20283 | 54 | -66.6 | |||
| 2013-09-22T12:26 | 20493 | 53 | 78 | 9.0 | ||
| 2013-09-22T12:26 | 20603 | 52 | -65.1 | |||
| 2013-09-22T12:27 | 20839 | 50 | 92 | 13.0 | ||
| 2013-09-22T12:28 | 21190 | 47 | -64.1 | |||
| 2013-09-22T12:28 | 21202 | 47 | 85 | 15.0 | ||
| 2013-09-22T12:29 | 21574 | 44 | 97 | 16.0 | ||
| 2013-09-22T12:30 | 21944 | 42 | 86 | 16.0 | ||
| 2013-09-22T12:31 | 22297 | 39 | 110 | 18.0 | ||
| 2013-09-22T12:32 | 22656 | 37 | 104 | 14.0 | ||
| 2013-09-22T12:33 | 22959 | 35 | -59.3 | 102 | 17.0 | |
| 2013-09-22T23:30 | 9 | 1010 | 29.3 | 23.3 | 110 | 5.0 |
| 2013-09-22T23:30 | 29 | 1008 | 28.2 | 19.7 | ||
| 2013-09-22T23:31 | 345 | 973 | 115 | 6.0 | ||
| 2013-09-22T23:31 | 459 | 960 | 117 | 7.0 | ||
| 2013-09-22T23:32 | 666 | 938 | 22.5 | 19.1 | ||
| 2013-09-22T23:32 | 683 | 936 | 111 | 6.0 | ||
| 2013-09-22T23:32 | 743 | 930 | 21.9 | 18.5 | ||
| 2013-09-22T23:33 | 872 | 916 | 21.3 | 17.5 | ||
| 2013-09-22T23:33 | 1011 | 901 | 104 | 5.0 | ||
| 2013-09-22T23:33 | 1105 | 892 | 20.0 | 16.6 | ||
| 2013-09-22T23:34 | 1341 | 868 | 107 | 4.0 | ||
| 2013-09-22T23:34 | 1446 | 857 | 17.6 | 15.9 | ||
| 2013-09-22T23:35 | 1557 | 846 | 17.6 | 16.3 | ||
| 2013-09-22T23:35 | 1674 | 835 | 17.5 | 13.4 | 55 | 4.0 |
| 2013-09-22T23:36 | 2001 | 803 | 60 | 2.0 | ||
| 2013-09-22T23:36 | 2073 | 797 | 15.7 | 9.1 | ||
| 2013-09-22T23:37 | 2170 | 788 | 14.9 | 8.8 | ||
| 2013-09-22T23:37 | 2285 | 777 | 14.2 | 8.2 | ||
| 2013-09-22T23:37 | 2343 | 772 | 168 | 1.0 | ||
| 2013-09-22T23:38 | 2604 | 748 | 11.7 | 9.8 | ||
| 2013-09-22T23:38 | 2676 | 742 | 234 | 4.0 | ||
| 2013-09-22T23:38 | 2824 | 729 | 10.8 | 7.1 | ||
| 2013-09-22T23:39 | 2991 | 715 | 239 | 8.0 | ||
| 2013-09-22T23:39 | 3055 | 709 | 9.7 | 5.7 | ||
| 2013-09-22T23:40 | 3334 | 686 | 234 | 9.0 | ||
| 2013-09-22T23:40 | 3434 | 678 | 8.1 | 5.0 | ||
| 2013-09-22T23:41 | 3688 | 657 | 225 | 10.0 | ||
| 2013-09-22T23:41 | 3706 | 656 | 6.6 | 4.1 | ||
| 2013-09-22T23:42 | 3893 | 641 | 5.2 | 2.2 | ||
| 2013-09-22T23:42 | 4025 | 631 | 4.9 | 1.4 | ||
| 2013-09-22T23:42 | 4036 | 630 | 229 | 11.0 | ||
| 2013-09-22T23:42 | 4176 | 619 | 4.0 | 1.2 | ||
| 2013-09-22T23:43 | 4247 | 614 | 234 | 12.0 | ||
| 2013-09-22T23:43 | 4259 | 613 | 234 | 12.0 | ||
| 2013-09-22T23:43 | 4289 | 611 | 3.4 | -1.7 | ||
| 2013-09-22T23:43 | 4392 | 603 | 241 | 12.0 | ||
| 2013-09-22T23:44 | 4587 | 589 | 1.4 | -0.8 | ||
| 2013-09-22T23:44 | 4739 | 578 | 253 | 10.0 | ||
| 2013-09-22T23:45 | 5099 | 552 | 256 | 7.0 | ||
| 2013-09-22T23:45 | 5155 | 548 | -1.5 | -1.5 | ||
| 2013-09-22T23:46 | 5478 | 527 | 258 | 5.0 | ||
| 2013-09-22T23:47 | 5835 | 503 | 256 | 3.0 | ||
| 2013-09-22T23:48 | 6175 | 482 | 248 | 2.0 | ||
| 2013-09-22T23:48 | 6231 | 478 | -6.8 | -7.2 | ||
| 2013-09-22T23:48 | 6340 | 472 | -7.6 | -8.0 | ||
| 2013-09-22T23:49 | 6417 | 467 | -7.9 | -8.6 | ||
| 2013-09-22T23:49 | 6470 | 464 | -8.4 | -8.8 | ||
| 2013-09-22T23:49 | 6516 | 461 | -8.8 | -9.7 | ||
| 2013-09-22T23:49 | 6586 | 457 | -9.2 | -10.5 | ||
| 2013-09-22T23:50 | 6847 | 442 | -10.8 | -11.6 | ||
| 2013-09-22T23:50 | 6878 | 440 | 312 | 5.0 | ||
| 2013-09-22T23:51 | 7122 | 426 | -12.4 | -13.4 | ||
| 2013-09-22T23:51 | 7229 | 420 | 320 | 7.0 | ||
| 2013-09-22T23:52 | 7574 | 401 | 310 | 5.0 | ||
| 2013-09-22T23:52 | 7645 | 398 | -15.8 | -18.0 | ||
| 2013-09-22T23:53 | 7781 | 391 | -16.3 | -19.2 | ||
| 2013-09-22T23:53 | 7833 | 388 | -16.6 | -19.7 | ||
| 2013-09-22T23:53 | 7927 | 383 | 248 | 8.0 | ||
| 2013-09-22T23:53 | 7992 | 380 | -17.5 | -20.4 | ||
| 2013-09-22T23:53 | 8032 | 378 | -17.8 | -20.6 | ||
| 2013-09-22T23:54 | 8144 | 372 | -18.5 | -20.7 | ||
| 2013-09-22T23:54 | 8209 | 369 | -19.1 | -23.0 | ||
| 2013-09-22T23:54 | 8251 | 367 | -19.3 | -23.1 | ||
| 2013-09-22T23:54 | 8281 | 365 | 243 | 10.0 | ||
| 2013-09-22T23:54 | 8347 | 362 | -19.9 | -23.0 | ||
| 2013-09-22T23:55 | 8478 | 356 | -20.6 | -23.9 | ||
| 2013-09-22T23:55 | 8516 | 354 | -20.9 | -24.8 | ||
| 2013-09-22T23:55 | 8534 | 353 | -21.0 | -24.7 | ||
| 2013-09-22T23:55 | 8620 | 349 | -21.5 | -26.5 | ||
| 2013-09-22T23:55 | 8651 | 348 | -21.6 | -26.4 | 257 | 9.0 |
| 2013-09-22T23:55 | 8663 | 347 | -21.7 | -26.2 | ||
| 2013-09-22T23:55 | 8706 | 345 | -22.0 | -26.5 | ||
| 2013-09-22T23:55 | 8804 | 340 | -22.7 | -27.3 | ||
| 2013-09-22T23:56 | 8847 | 338 | -23.0 | -27.4 | ||
| 2013-09-22T23:56 | 8885 | 337 | -23.2 | -26.7 | ||
| 2013-09-22T23:56 | 8943 | 334 | -23.6 | -27.7 | ||
| 2013-09-22T23:56 | 9027 | 330 | 271 | 9.0 | ||
| 2013-09-22T23:57 | 9231 | 321 | -25.2 | -27.8 | ||
| 2013-09-22T23:57 | 9302 | 318 | -25.7 | -30.0 | ||
| 2013-09-22T23:57 | 9353 | 316 | -26.0 | -30.6 | ||
| 2013-09-22T23:57 | 9411 | 313 | 301 | 12.0 | ||
| 2013-09-22T23:57 | 9469 | 311 | -26.7 | -30.4 | ||
| 2013-09-22T23:57 | 9502 | 309 | -26.9 | -32.2 | ||
| 2013-09-22T23:57 | 9528 | 308 | -27.1 | -31.7 | ||
| 2013-09-22T23:57 | 9554 | 307 | -27.2 | -33.5 | ||
| 2013-09-22T23:57 | 9581 | 306 | -27.4 | -33.0 | ||
| 2013-09-22T23:57 | 9600 | 305 | -27.6 | -31.9 | ||
| 2013-09-22T23:58 | 9627 | 304 | -27.9 | -34.7 | ||
| 2013-09-22T23:58 | 9680 | 302 | -28.2 | -35.8 | ||
| 2013-09-22T23:58 | 9693 | 301 | -28.3 | -34.7 | ||
| 2013-09-22T23:58 | 9773 | 298 | -29.0 | -36.4 | ||
| 2013-09-22T23:58 | 9807 | 296 | 292 | 10.0 | ||
| 2013-09-22T23:58 | 9847 | 295 | -29.4 | -37.4 | ||
| 2013-09-22T23:58 | 9868 | 294 | -29.6 | -36.1 | ||
| 2013-09-22T23:59 | 10084 | 285 | -31.3 | -36.3 | ||
| 2013-09-22T23:59 | 10131 | 283 | -31.6 | -36.2 | ||
| 2013-09-22T23:59 | 10211 | 280 | 296 | 12.0 | ||
| 2013-09-23T00:00 | 10419 | 272 | -33.8 | -38.3 | ||
| 2013-09-23T00:00 | 10597 | 265 | 287 | 14.0 | ||
| 2013-09-23T00:00 | 10629 | 264 | -35.5 | -39.6 | ||
| 2013-09-23T00:00 | 10759 | 259 | -36.6 | -41.4 | ||
| 2013-09-23T00:01 | 10987 | 251 | 287 | 15.0 | ||
| 2013-09-23T00:01 | 11125 | 246 | -40.0 | -43.6 | ||
| 2013-09-23T00:02 | 11364 | 237 | 288 | 18.0 | ||
| 2013-09-23T00:03 | 11764 | 223 | 282 | 19.0 | ||
| 2013-09-23T00:04 | 12172 | 210 | 278 | 21.0 | ||
| 2013-09-23T00:04 | 12363 | 204 | -50.3 | |||
| 2013-09-23T00:05 | 12603 | 197 | 288 | 23.0 | ||
| 2013-09-23T00:06 | 13035 | 184 | 298 | 22.0 | ||
| 2013-09-23T00:07 | 13452 | 172 | 305 | 22.0 | ||
| 2013-09-23T00:08 | 13754 | 164 | -62.4 | |||
| 2013-09-23T00:08 | 13861 | 161 | 317 | 22.0 | ||
| 2013-09-23T00:09 | 14228 | 152 | 316 | 24.0 | ||
| 2013-09-23T00:09 | 14234 | 151 | 316 | 23.0 | ||
| 2013-09-23T00:10 | 14627 | 142 | 323 | 18.0 | ||
| 2013-09-23T00:10 | 14814 | 137 | -71.1 | |||
| 2013-09-23T00:11 | 15059 | 132 | 318 | 13.0 | ||
| 2013-09-23T00:11 | 15113 | 131 | -73.1 | |||
| 2013-09-23T00:12 | 15448 | 123 | 327 | 20.0 | ||
| 2013-09-23T00:12 | 15520 | 122 | -74.6 | |||
| 2013-09-23T00:13 | 15821 | 116 | 345 | 25.0 | ||
| 2013-09-23T00:13 | 15871 | 115 | -76.4 | |||
| 2013-09-23T00:13 | 15886 | 114 | 349 | 24.0 | ||
| 2013-09-23T00:14 | 16304 | 106 | 3 | 14.0 | ||
| 2013-09-23T00:14 | 16371 | 105 | -79.9 | |||
| 2013-09-23T00:15 | 16651 | 100 | -78.4 | 29 | 7.0 | |
| 2013-09-23T00:15 | 16798 | 97 | 30 | 7.0 | ||
| 2013-09-23T00:15 | 16893 | 96 | -78.2 | |||
| 2013-09-23T00:15 | 17008 | 94 | -76.7 | |||
| 2013-09-23T00:16 | 17315 | 89 | 60 | 12.0 | ||
| 2013-09-23T00:16 | 17365 | 88 | -75.2 | |||
| 2013-09-23T00:17 | 17798 | 82 | 98 | 10.0 | ||
| 2013-09-23T00:17 | 17932 | 80 | -73.0 | |||
| 2013-09-23T00:18 | 18207 | 76 | 88 | 5.0 | ||
| 2013-09-23T00:19 | 18498 | 73 | -73.3 | |||
| 2013-09-23T00:19 | 18582 | 72 | 102 | 5.0 | ||
| 2013-09-23T00:20 | 18857 | 68 | -71.8 | |||
| 2013-09-23T00:20 | 18965 | 67 | 87 | 6.0 | ||
| 2013-09-23T00:20 | 19122 | 65 | -71.0 | |||
| 2013-09-23T00:21 | 19320 | 63 | 91 | 8.0 | ||
| 2013-09-23T00:21 | 19433 | 62 | -68.2 | |||
| 2013-09-23T00:22 | 19703 | 59 | 80 | 6.0 | ||
| 2013-09-23T00:23 | 20089 | 56 | 89 | 9.0 | ||
| 2013-09-23T00:24 | 20457 | 52 | -65.8 | |||
| 2013-09-23T00:24 | 20470 | 52 | 91 | 11.0 | ||
| 2013-09-23T00:25 | 20871 | 49 | 98 | 10.0 | ||
| 2013-09-23T00:26 | 21270 | 46 | 101 | 9.0 | ||
| 2013-09-23T00:27 | 21600 | 43 | -63.6 | |||
| 2013-09-23T00:27 | 21661 | 43 | 79 | 9.0 | ||
| 2013-09-23T00:28 | 21989 | 41 | -62.3 | |||
| 2013-09-23T00:28 | 22062 | 40 | 88 | 13.0 | ||
| 2013-09-23T00:28 | 22258 | 39 | -60.0 | |||
| 2013-09-23T00:29 | 22480 | 38 | 68 | 14.0 | ||
| 2013-09-23T00:30 | 22912 | 35 | 81 | 19.0 | ||
| 2013-09-23T00:31 | 23341 | 33 | 96 | 17.0 | ||
| 2013-09-23T00:31 | 23505 | 32 | -59.6 | |||
| 2013-09-23T00:32 | 23739 | 31 | 95 | 19.0 | ||
| 2013-09-23T00:32 | 23877 | 30 | -56.7 | |||
| 2013-09-23T00:33 | 24162 | 29 | 97 | 23.0 | ||
| 2013-09-23T00:34 | 24608 | 27 | 99 | 20.0 | ||
| 2013-09-23T00:35 | 24846 | 26 | -51.7 | |||
| 2013-09-23T00:35 | 25059 | 25 | 100 | 17.0 | ||
| 2013-09-23T00:36 | 25527 | 23 | 102 | 12.0 | ||
| 2013-09-23T00:36 | 25641 | 23 | -48.8 | |||
| 2013-09-23T00:37 | 25987 | 22 | 89 | 10.0 | ||
| 2013-09-23T00:38 | 26455 | 20 | 93 | 12.0 | ||
| 2013-09-23T00:38 | 26605 | 20 | -51.3 | |||
| 2013-09-23T00:39 | 26943 | 19 | 96 | 14.0 | ||
| 2013-09-23T00:39 | 27104 | 18 | -49.8 | |||
| 2013-09-23T00:40 | 27435 | 17 | 75 | 14.0 | ||
| 2013-09-23T00:41 | 27667 | 17 | -49.9 | |||
| 2013-09-23T00:41 | 27900 | 16 | 68 | 17.0 | ||
| 2013-09-23T00:42 | 28381 | 15 | 80 | 21.0 | ||
| 2013-09-23T00:42 | 28457 | 15 | -49.7 | |||
| 2013-09-23T00:43 | 28787 | 14 | 95 | 26.0 | ||
| 2013-09-23T00:43 | 28822 | 14 | 95 | 26.0 | ||
| 2013-09-23T00:43 | 28891 | 14 | 95 | 26.0 | ||
| 2013-09-23T00:44 | 29417 | 13 | 99 | 22.0 | ||
| 2013-09-23T00:45 | 29916 | 12 | 89 | 23.0 | ||
| 2013-09-23T00:45 | 30007 | 12 | -44.0 | |||
| 2013-09-23T00:46 | 30421 | 11 | 78 | 22.0 | ||
| 2013-09-23T00:47 | 30944 | 10 | -41.2 | |||
| 2013-09-23T00:47 | 30963 | 10 | 94 | 21.0 | ||
| 2013-09-23T00:48 | 31428 | 10 | -42.5 | 66 | 22.0 | |
| 2013-09-23T11:30 | 9 | 1010 | 28.6 | 23.7 | 90 | 8.0 |
| 2013-09-23T11:31 | 295 | 978 | 25.8 | 21.0 | ||
| 2013-09-23T11:31 | 310 | 976 | 94 | 8.0 | ||
| 2013-09-23T11:31 | 321 | 975 | 25.6 | 19.0 | ||
| 2013-09-23T11:31 | 331 | 974 | 25.6 | 20.4 | ||
| 2013-09-23T11:31 | 346 | 973 | 25.5 | 19.9 | ||
| 2013-09-23T11:31 | 372 | 970 | 25.3 | 18.5 | ||
| 2013-09-23T11:31 | 418 | 965 | 24.9 | 18.4 | ||
| 2013-09-23T11:32 | 513 | 954 | 24.1 | 18.7 | ||
| 2013-09-23T11:32 | 556 | 950 | 23.8 | 17.5 | ||
| 2013-09-23T11:32 | 593 | 946 | 96 | 9.0 | ||
| 2013-09-23T11:32 | 610 | 944 | 95 | 9.0 | ||
| 2013-09-23T11:32 | 621 | 943 | 95 | 9.0 | ||
| 2013-09-23T11:32 | 626 | 942 | 96 | 9.0 | ||
| 2013-09-23T11:32 | 643 | 940 | 23.5 | 15.6 | ||
| 2013-09-23T11:32 | 725 | 931 | 23.2 | 13.4 | ||
| 2013-09-23T11:33 | 833 | 920 | 22.5 | 14.6 | ||
| 2013-09-23T11:33 | 942 | 909 | 22.0 | 15.4 | ||
| 2013-09-23T11:33 | 953 | 907 | 98 | 8.0 | ||
| 2013-09-23T11:33 | 1109 | 891 | 21.1 | 15.9 | ||
| 2013-09-23T11:34 | 1143 | 888 | 21.0 | 14.4 | ||
| 2013-09-23T11:34 | 1199 | 882 | 20.7 | 13.9 | ||
| 2013-09-23T11:34 | 1216 | 880 | 20.6 | 14.9 | ||
| 2013-09-23T11:34 | 1291 | 873 | 88 | 8.0 | ||
| 2013-09-23T11:34 | 1366 | 865 | 20.5 | 11.2 | ||
| 2013-09-23T11:35 | 1575 | 844 | 19.5 | 11.3 | ||
| 2013-09-23T11:35 | 1638 | 838 | 104 | 4.0 | ||
| 2013-09-23T11:36 | 1950 | 808 | 17.7 | 8.3 | ||
| 2013-09-23T11:36 | 1967 | 807 | 184 | 4.0 | ||
| 2013-09-23T11:37 | 2308 | 775 | 202 | 8.0 | ||
| 2013-09-23T11:37 | 2422 | 765 | 14.3 | 6.2 | ||
| 2013-09-23T11:38 | 2644 | 745 | 214 | 8.0 | ||
| 2013-09-23T11:38 | 2682 | 742 | 12.8 | 7.0 | ||
| 2013-09-23T11:39 | 2977 | 716 | 231 | 7.0 | ||
| 2013-09-23T11:40 | 3305 | 688 | 234 | 8.0 | ||
| 2013-09-23T11:40 | 3408 | 680 | 8.6 | 5.5 | ||
| 2013-09-23T11:41 | 3657 | 660 | 234 | 10.0 | ||
| 2013-09-23T11:41 | 3745 | 653 | 6.0 | 5.0 | ||
| 2013-09-23T11:42 | 3926 | 638 | 5.2 | 3.2 | ||
| 2013-09-23T11:42 | 4009 | 632 | 234 | 12.0 | ||
| 2013-09-23T11:43 | 4301 | 610 | 2.7 | 0.9 | ||
| 2013-09-23T11:43 | 4360 | 605 | 244 | 14.0 | ||
| 2013-09-23T11:44 | 4667 | 583 | 0.4 | 0.1 | ||
| 2013-09-23T11:44 | 4714 | 579 | 246 | 14.0 | ||
| 2013-09-23T11:45 | 4960 | 562 | -0.5 | -0.5 | ||
| 2013-09-23T11:45 | 5070 | 554 | 245 | 15.0 | ||
| 2013-09-23T11:46 | 5340 | 536 | 235 | 16.0 | ||
| 2013-09-23T11:46 | 5405 | 531 | 233 | 16.0 | ||
| 2013-09-23T11:47 | 5691 | 512 | -4.0 | -4.5 | ||
| 2013-09-23T11:47 | 5771 | 507 | 232 | 11.0 | ||
| 2013-09-23T11:48 | 6124 | 485 | 232 | 10.0 | ||
| 2013-09-23T11:49 | 6479 | 463 | 238 | 11.0 | ||
| 2013-09-23T11:50 | 6823 | 443 | 240 | 8.0 | ||
| 2013-09-23T11:50 | 6926 | 438 | -10.2 | -10.5 | ||
| 2013-09-23T11:50 | 6976 | 435 | -10.2 | -10.5 | ||
| 2013-09-23T11:51 | 7146 | 425 | -11.4 | -12.0 | ||
| 2013-09-23T11:52 | 7392 | 412 | -13.1 | -13.7 | ||
| 2013-09-23T11:52 | 7505 | 406 | 220 | 6.0 | ||
| 2013-09-23T11:53 | 7747 | 393 | -15.4 | -16.5 | ||
| 2013-09-23T11:53 | 7879 | 386 | 224 | 5.0 | ||
| 2013-09-23T11:54 | 8091 | 375 | -17.7 | -18.3 | ||
| 2013-09-23T11:54 | 8227 | 369 | 259 | 6.0 | ||
| 2013-09-23T11:55 | 8461 | 357 | -20.0 | -21.2 | ||
| 2013-09-23T11:55 | 8558 | 353 | 253 | 11.0 | ||
| 2013-09-23T11:56 | 8771 | 343 | -22.2 | -23.0 | ||
| 2013-09-23T11:56 | 8879 | 338 | 254 | 11.0 | ||
| 2013-09-23T11:56 | 8984 | 333 | -23.8 | -25.7 | ||
| 2013-09-23T11:57 | 9063 | 329 | -24.4 | -26.7 | ||
| 2013-09-23T11:57 | 9102 | 327 | -24.7 | -28.3 | ||
| 2013-09-23T11:57 | 9170 | 324 | -25.3 | -29.2 | ||
| 2013-09-23T11:57 | 9216 | 322 | 253 | 12.0 | ||
| 2013-09-23T11:58 | 9541 | 308 | -28.0 | -31.3 | ||
| 2013-09-23T11:58 | 9559 | 307 | 255 | 10.0 | ||
| 2013-09-23T11:58 | 9707 | 301 | -29.1 | -32.4 | ||
| 2013-09-23T11:59 | 9916 | 292 | 268 | 13.0 | ||
| 2013-09-23T11:59 | 9945 | 291 | -30.5 | -35.8 | ||
| 2013-09-23T12:00 | 10252 | 279 | 274 | 11.0 | ||
| 2013-09-23T12:00 | 10314 | 276 | -33.0 | -39.7 | ||
| 2013-09-23T12:01 | 10580 | 266 | 278 | 10.0 | ||
| 2013-09-23T12:01 | 10607 | 265 | -35.3 | -42.1 | ||
| 2013-09-23T12:02 | 10906 | 254 | 278 | 10.0 | ||
| 2013-09-23T12:02 | 10978 | 251 | -38.3 | -44.0 | ||
| 2013-09-23T12:03 | 11200 | 243 | -40.0 | -46.3 | ||
| 2013-09-23T12:03 | 11246 | 241 | 290 | 10.0 | ||
| 2013-09-23T12:04 | 11600 | 229 | 293 | 9.0 | ||
| 2013-09-23T12:05 | 11958 | 217 | 299 | 10.0 | ||
| 2013-09-23T12:06 | 12297 | 206 | 299 | 9.0 | ||
| 2013-09-23T12:07 | 12589 | 197 | 303 | 10.0 | ||
| 2013-09-23T12:08 | 12849 | 190 | -53.4 | |||
| 2013-09-23T12:08 | 12899 | 188 | 307 | 12.0 | ||
| 2013-09-23T12:09 | 13227 | 179 | 312 | 13.0 | ||
| 2013-09-23T12:10 | 13556 | 170 | 318 | 18.0 | ||
| 2013-09-23T12:11 | 13880 | 161 | 323 | 20.0 | ||
| 2013-09-23T12:12 | 14209 | 153 | 331 | 23.0 | ||
| 2013-09-23T12:12 | 14232 | 152 | -64.5 | |||
| 2013-09-23T12:13 | 14575 | 144 | 343 | 29.0 | ||
| 2013-09-23T12:13 | 14694 | 141 | 344 | 29.0 | ||
| 2013-09-23T12:14 | 14964 | 135 | 345 | 27.0 | ||
| 2013-09-23T12:14 | 15185 | 130 | -70.8 | |||
| 2013-09-23T12:16 | 15898 | 115 | 358 | 17.0 | ||
| 2013-09-23T12:17 | 16176 | 109 | -79.7 | |||
| 2013-09-23T12:17 | 16379 | 106 | 348 | 9.0 | ||
| 2013-09-23T12:17 | 16522 | 103 | -79.1 | |||
| 2013-09-23T12:18 | 16687 | 100 | -80.5 | 1 | 10.0 | |
| 2013-09-23T12:18 | 16798 | 98 | 4 | 10.0 | ||
| 2013-09-23T12:19 | 17219 | 91 | 38 | 11.0 | ||
| 2013-09-23T12:19 | 17322 | 89 | -80.2 | |||
| 2013-09-23T12:20 | 17532 | 86 | -78.5 | |||
| 2013-09-23T12:20 | 17625 | 85 | 74 | 7.0 | ||
| 2013-09-23T12:20 | 17664 | 84 | -76.9 | |||
| 2013-09-23T12:21 | 17959 | 80 | 16 | 5.0 | ||
| 2013-09-23T12:21 | 17962 | 80 | -75.8 | 11 | 5.0 | |
| 2013-09-23T23:30 | 9 | 1011 | 30.3 | 24.9 | 130 | 7.0 |
| 2013-09-23T23:30 | 36 | 1008 | 28.3 | 21.6 | ||
| 2013-09-23T23:31 | 333 | 975 | 129 | 8.0 | ||
| 2013-09-23T23:32 | 652 | 940 | 134 | 9.0 | ||
| 2013-09-23T23:32 | 696 | 935 | 135 | 9.0 | ||
| 2013-09-23T23:32 | 708 | 934 | 136 | 9.0 | ||
| 2013-09-23T23:32 | 719 | 933 | 137 | 9.0 | ||
| 2013-09-23T23:32 | 725 | 932 | 137 | 9.0 | ||
| 2013-09-23T23:32 | 811 | 923 | 21.5 | 19.4 | ||
| 2013-09-23T23:33 | 901 | 914 | 21.8 | 18.8 | ||
| 2013-09-23T23:33 | 991 | 905 | 144 | 8.0 | ||
| 2013-09-23T23:34 | 1160 | 887 | 20.5 | 15.9 | ||
| 2013-09-23T23:34 | 1170 | 886 | 20.5 | 13.9 | ||
| 2013-09-23T23:34 | 1187 | 884 | 20.5 | 13.9 | ||
| 2013-09-23T23:34 | 1225 | 880 | 20.4 | 12.9 | ||
| 2013-09-23T23:34 | 1268 | 876 | 20.1 | 11.1 | ||
| 2013-09-23T23:34 | 1317 | 871 | 138 | 7.0 | ||
| 2013-09-23T23:34 | 1378 | 865 | 19.2 | 15.9 | ||
| 2013-09-23T23:34 | 1423 | 860 | 18.8 | 15.5 | ||
| 2013-09-23T23:35 | 1565 | 846 | 18.6 | 12.1 | ||
| 2013-09-23T23:35 | 1658 | 837 | 125 | 8.0 | ||
| 2013-09-23T23:35 | 1762 | 827 | 17.9 | 12.1 | ||
| 2013-09-23T23:36 | 2005 | 804 | 17.8 | 9.2 | 137 | 6.0 |
| 2013-09-23T23:37 | 2359 | 771 | 189 | 6.0 | ||
| 2013-09-23T23:37 | 2495 | 759 | 15.3 | 6.1 | ||
| 2013-09-23T23:38 | 2723 | 739 | 218 | 6.0 | ||
| 2013-09-23T23:38 | 2867 | 727 | 12.7 | 4.9 | ||
| 2013-09-23T23:39 | 2937 | 720 | 12.3 | 4.5 | ||
| 2013-09-23T23:39 | 3002 | 715 | 12.1 | 3.8 | ||
| 2013-09-23T23:39 | 3073 | 709 | 240 | 7.0 | ||
| 2013-09-23T23:39 | 3208 | 697 | 10.6 | 5.6 | ||
| 2013-09-23T23:40 | 3304 | 689 | 10.1 | 4.0 | ||
| 2013-09-23T23:40 | 3414 | 680 | 238 | 8.0 | ||
| 2013-09-23T23:41 | 3615 | 664 | 8.1 | 3.2 | ||
| 2013-09-23T23:41 | 3742 | 654 | 241 | 8.0 | ||
| 2013-09-23T23:42 | 4073 | 628 | 5.5 | 1.4 | ||
| 2013-09-23T23:42 | 4097 | 626 | 244 | 7.0 | ||
| 2013-09-23T23:42 | 4222 | 617 | 4.5 | 0.5 | ||
| 2013-09-23T23:43 | 4425 | 602 | 3.5 | -2.3 | ||
| 2013-09-23T23:43 | 4481 | 597 | 247 | 8.0 | ||
| 2013-09-23T23:43 | 4663 | 584 | 2.4 | -5.3 | ||
| 2013-09-23T23:44 | 4739 | 579 | 2.0 | -5.4 | ||
| 2013-09-23T23:44 | 4792 | 575 | 1.7 | -6.6 | ||
| 2013-09-23T23:44 | 4864 | 570 | 235 | 7.0 | ||
| 2013-09-23T23:44 | 4908 | 567 | 0.6 | -2.5 | ||
| 2013-09-23T23:45 | 5074 | 555 | -0.7 | -2.7 | ||
| 2013-09-23T23:45 | 5176 | 548 | 244 | 9.0 | ||
| 2013-09-23T23:45 | 5212 | 545 | -1.8 | -5.0 | ||
| 2013-09-23T23:45 | 5243 | 543 | -1.8 | -4.5 | ||
| 2013-09-23T23:45 | 5307 | 539 | -2.0 | -4.3 | ||
| 2013-09-23T23:46 | 5341 | 537 | -2.2 | -4.4 | ||
| 2013-09-23T23:46 | 5509 | 525 | 242 | 9.0 | ||
| 2013-09-23T23:46 | 5545 | 523 | -2.7 | -5.8 | ||
| 2013-09-23T23:46 | 5644 | 517 | -2.9 | -5.9 | ||
| 2013-09-23T23:47 | 5700 | 513 | -2.8 | -6.8 | ||
| 2013-09-23T23:47 | 5754 | 510 | -2.8 | -9.3 | ||
| 2013-09-23T23:47 | 5866 | 502 | 245 | 9.0 | ||
| 2013-09-23T23:47 | 5882 | 501 | -3.5 | -10.6 | ||
| 2013-09-23T23:47 | 5955 | 497 | -3.8 | -12.7 | ||
| 2013-09-23T23:47 | 5998 | 494 | -3.9 | -21.5 | ||
| 2013-09-23T23:48 | 6058 | 490 | -4.3 | -21.4 | ||
| 2013-09-23T23:48 | 6116 | 487 | -4.8 | -15.8 | ||
| 2013-09-23T23:48 | 6162 | 484 | -5.2 | -17.3 | ||
| 2013-09-23T23:48 | 6180 | 483 | -5.4 | -14.4 | 243 | 10.0 |
| 2013-09-23T23:48 | 6193 | 482 | -5.4 | -11.7 | ||
| 2013-09-23T23:48 | 6250 | 478 | -5.7 | -11.2 | ||
| 2013-09-23T23:48 | 6295 | 476 | -5.7 | -12.6 | ||
| 2013-09-23T23:48 | 6315 | 474 | -5.8 | -15.3 | ||
| 2013-09-23T23:49 | 6385 | 470 | 240 | 10.0 | ||
| 2013-09-23T23:49 | 6560 | 460 | 242 | 9.0 | ||
| 2013-09-23T23:49 | 6598 | 458 | -7.8 | -12.1 | ||
| 2013-09-23T23:50 | 6953 | 437 | 252 | 8.0 | ||
| 2013-09-23T23:50 | 6986 | 435 | -10.5 | -14.4 | ||
| 2013-09-23T23:51 | 7331 | 416 | -12.4 | -15.6 | ||
| 2013-09-23T23:51 | 7344 | 415 | 247 | 10.0 | ||
| 2013-09-23T23:51 | 7459 | 409 | -12.2 | -17.3 | ||
| 2013-09-23T23:52 | 7721 | 395 | 241 | 7.0 | ||
| 2013-09-23T23:52 | 7802 | 391 | -14.6 | -21.0 | ||
| 2013-09-23T23:53 | 8079 | 377 | 262 | 8.0 | ||
| 2013-09-23T23:53 | 8221 | 370 | -17.6 | -21.9 | ||
| 2013-09-23T23:54 | 8470 | 358 | 264 | 7.0 | ||
| 2013-09-23T23:54 | 8484 | 357 | -18.1 | -25.8 | ||
| 2013-09-23T23:55 | 8862 | 339 | 255 | 6.0 | ||
| 2013-09-23T23:56 | 9197 | 324 | -24.1 | -30.2 | ||
| 2013-09-23T23:56 | 9244 | 322 | 257 | 7.0 | ||
| 2013-09-23T23:57 | 9664 | 304 | 278 | 9.0 | ||
| 2013-09-23T23:57 | 9802 | 298 | -29.2 | -32.8 | ||
| 2013-09-23T23:58 | 10082 | 287 | 282 | 13.0 | ||
| 2013-09-23T23:58 | 10104 | 286 | -31.5 | -34.7 | ||
| 2013-09-23T23:58 | 10248 | 280 | -32.4 | -37.9 | ||
| 2013-09-23T23:59 | 10374 | 275 | 286 | 15.0 | ||
| 2013-09-23T23:59 | 10549 | 268 | 286 | 15.0 | ||
| 2013-09-23T23:59 | 10766 | 260 | -36.6 | -41.4 | ||
| 2013-09-24T00:00 | 10898 | 255 | -37.2 | -42.3 | ||
| 2013-09-24T00:00 | 10999 | 251 | 295 | 12.0 | ||
| 2013-09-24T00:00 | 11113 | 247 | -38.9 | -46.2 | ||
| 2013-09-24T00:01 | 11248 | 242 | -40.0 | -47.6 | ||
| 2013-09-24T00:01 | 11421 | 236 | 325 | 9.0 | ||
| 2013-09-24T00:02 | 11881 | 221 | 328 | 10.0 | ||
| 2013-09-24T00:03 | 12329 | 206 | 335 | 10.0 | ||
| 2013-09-24T00:04 | 12725 | 194 | 338 | 12.0 | ||
| 2013-09-24T00:05 | 13202 | 180 | 332 | 15.0 | ||
| 2013-09-24T00:06 | 13447 | 173 | -59.3 | |||
| 2013-09-24T00:06 | 13623 | 168 | 335 | 16.0 | ||
| 2013-09-24T00:07 | 14071 | 157 | 341 | 19.0 | ||
| 2013-09-24T00:07 | 14079 | 156 | 341 | 19.0 | ||
| 2013-09-24T00:08 | 14291 | 151 | -65.7 | |||
| 2013-09-24T00:08 | 14488 | 146 | 5 | 17.0 | ||
| 2013-09-24T00:09 | 14929 | 136 | -70.7 | |||
| 2013-09-24T00:10 | 15561 | 122 | -75.5 | |||
| 2013-09-24T00:11 | 15965 | 114 | 26 | 17.0 | ||
| 2013-09-24T00:11 | 16075 | 111 | -77.7 | |||
| 2013-09-24T00:12 | 16521 | 103 | 22 | 6.0 | ||
| 2013-09-24T00:12 | 16582 | 102 | -81.6 | |||
| 2013-09-24T00:12 | 16683 | 100 | -80.5 | 25 | 5.0 | |
| 2013-09-24T00:13 | 16879 | 97 | -78.9 | |||
| 2013-09-24T00:13 | 16975 | 95 | 27 | 9.0 | ||
| 2013-09-24T00:13 | 17142 | 92 | -80.0 | 39 | 11.0 | |
| 2013-09-24T11:30 | 9 | 1012 | 28.4 | 25.0 | 140 | 5.0 |
| 2013-09-24T11:31 | 338 | 975 | 132 | 6.0 | ||
| 2013-09-24T11:32 | 604 | 946 | 23.2 | 21.7 | ||
| 2013-09-24T11:32 | 625 | 944 | 23.4 | 20.0 | ||
| 2013-09-24T11:32 | 655 | 941 | 146 | 6.0 | ||
| 2013-09-24T11:32 | 696 | 936 | 23.4 | 18.7 | ||
| 2013-09-24T11:33 | 811 | 924 | 22.9 | 16.5 | ||
| 2013-09-24T11:33 | 865 | 918 | 22.6 | 17.1 | ||
| 2013-09-24T11:33 | 941 | 910 | 22.2 | 16.2 | ||
| 2013-09-24T11:33 | 974 | 907 | 143 | 7.0 | ||
| 2013-09-24T11:33 | 990 | 905 | 21.9 | 16.2 | ||
| 2013-09-24T11:33 | 1034 | 901 | 22.0 | 13.6 | ||
| 2013-09-24T11:33 | 1066 | 897 | 21.7 | 15.5 | ||
| 2013-09-24T11:33 | 1114 | 892 | 21.4 | 15.0 | ||
| 2013-09-24T11:34 | 1156 | 888 | 21.4 | 13.1 | ||
| 2013-09-24T11:34 | 1172 | 886 | 21.3 | 15.2 | ||
| 2013-09-24T11:34 | 1293 | 874 | 145 | 8.0 | ||
| 2013-09-24T11:34 | 1330 | 870 | 142 | 8.0 | ||
| 2013-09-24T11:34 | 1345 | 869 | 140 | 8.0 | ||
| 2013-09-24T11:34 | 1417 | 862 | 138 | 8.0 | ||
| 2013-09-24T11:34 | 1423 | 861 | 138 | 8.0 | ||
| 2013-09-24T11:34 | 1428 | 860 | 138 | 8.0 | ||
| 2013-09-24T11:35 | 1474 | 856 | 19.0 | 15.9 | ||
| 2013-09-24T11:35 | 1601 | 843 | 143 | 7.0 | ||
| 2013-09-24T11:35 | 1616 | 842 | 18.6 | 13.9 | ||
| 2013-09-24T11:35 | 1723 | 832 | 17.8 | 13.7 | ||
| 2013-09-24T11:36 | 1774 | 827 | 17.7 | 13.0 | ||
| 2013-09-24T11:36 | 1912 | 813 | 141 | 6.0 | ||
| 2013-09-24T11:36 | 1967 | 808 | 16.1 | 13.4 | ||
| 2013-09-24T11:36 | 2033 | 802 | 16.2 | 12.2 | ||
| 2013-09-24T11:37 | 2181 | 788 | 16.0 | 10.1 | ||
| 2013-09-24T11:37 | 2240 | 783 | 185 | 6.0 | ||
| 2013-09-24T11:37 | 2296 | 778 | 15.9 | 8.4 | ||
| 2013-09-24T11:37 | 2323 | 775 | 15.7 | 7.2 | ||
| 2013-09-24T11:38 | 2416 | 767 | 15.1 | 8.8 | ||
| 2013-09-24T11:38 | 2531 | 756 | 14.6 | 7.9 | ||
| 2013-09-24T11:38 | 2570 | 753 | 206 | 4.0 | ||
| 2013-09-24T11:39 | 2817 | 731 | 12.8 | 4.5 | ||
| 2013-09-24T11:39 | 2924 | 722 | 221 | 5.0 | ||
| 2013-09-24T11:39 | 3043 | 712 | 11.3 | 4.7 | ||
| 2013-09-24T11:40 | 3130 | 704 | 10.9 | 3.0 | ||
| 2013-09-24T11:40 | 3170 | 701 | 10.8 | 2.6 | ||
| 2013-09-24T11:40 | 3274 | 692 | 243 | 7.0 | ||
| 2013-09-24T11:40 | 3425 | 680 | 9.5 | 1.2 | ||
| 2013-09-24T11:41 | 3584 | 667 | 8.4 | 2.2 | ||
| 2013-09-24T11:41 | 3626 | 664 | 8.1 | 3.4 | 249 | 7.0 |
| 2013-09-24T11:42 | 3862 | 645 | 7.0 | 0.9 | ||
| 2013-09-24T11:42 | 3874 | 644 | 7.0 | -0.7 | ||
| 2013-09-24T11:42 | 3973 | 636 | 247 | 5.0 | ||
| 2013-09-24T11:42 | 3996 | 634 | 6.6 | 1.1 | ||
| 2013-09-24T11:42 | 4089 | 627 | 5.9 | 1.6 | ||
| 2013-09-24T11:43 | 4150 | 623 | 5.5 | 1.0 | ||
| 2013-09-24T11:43 | 4258 | 614 | 5.0 | 0.6 | ||
| 2013-09-24T11:43 | 4287 | 612 | 4.9 | 0.1 | ||
| 2013-09-24T11:43 | 4309 | 610 | 264 | 3.0 | ||
| 2013-09-24T11:43 | 4393 | 604 | 4.3 | -2.1 | ||
| 2013-09-24T11:43 | 4442 | 601 | 4.0 | -3.8 | ||
| 2013-09-24T11:44 | 4485 | 597 | 3.7 | -2.1 | ||
| 2013-09-24T11:44 | 4572 | 591 | 3.2 | -3.2 | ||
| 2013-09-24T11:44 | 4626 | 587 | 2.8 | -2.1 | ||
| 2013-09-24T11:44 | 4637 | 586 | 271 | 6.0 | ||
| 2013-09-24T11:44 | 4697 | 582 | 2.4 | -4.6 | ||
| 2013-09-24T11:44 | 4740 | 579 | 2.2 | -5.4 | ||
| 2013-09-24T11:44 | 4795 | 575 | 2.0 | -7.1 | ||
| 2013-09-24T11:45 | 4833 | 572 | 1.8 | -8.6 | ||
| 2013-09-24T11:45 | 4860 | 570 | 1.6 | -8.8 | ||
| 2013-09-24T11:45 | 4893 | 568 | 1.4 | -7.6 | ||
| 2013-09-24T11:45 | 4904 | 567 | 1.4 | -8.4 | ||
| 2013-09-24T11:45 | 4915 | 566 | 1.3 | -7.5 | ||
| 2013-09-24T11:45 | 4964 | 563 | 264 | 8.0 | ||
| 2013-09-24T11:45 | 4991 | 561 | 0.9 | -8.9 | ||
| 2013-09-24T11:45 | 5008 | 560 | 0.8 | -5.7 | ||
| 2013-09-24T11:46 | 5246 | 543 | -0.8 | -3.3 | ||
| 2013-09-24T11:46 | 5280 | 541 | -0.9 | -2.3 | ||
| 2013-09-24T11:46 | 5303 | 540 | 280 | 9.0 | ||
| 2013-09-24T11:46 | 5394 | 534 | -1.2 | -2.6 | ||
| 2013-09-24T11:46 | 5440 | 530 | -1.3 | -5.2 | ||
| 2013-09-24T11:47 | 5474 | 528 | -1.4 | -4.9 | ||
| 2013-09-24T11:47 | 5508 | 526 | -1.6 | -4.6 | ||
| 2013-09-24T11:47 | 5553 | 523 | -1.9 | -6.3 | ||
| 2013-09-24T11:47 | 5598 | 520 | -2.1 | -5.6 | ||
| 2013-09-24T11:47 | 5643 | 517 | 286 | 11.0 | ||
| 2013-09-24T11:47 | 5655 | 516 | -2.4 | -6.8 | ||
| 2013-09-24T11:47 | 5672 | 515 | -2.5 | -6.9 | ||
| 2013-09-24T11:47 | 5689 | 514 | -2.5 | -6.5 | ||
| 2013-09-24T11:47 | 5706 | 513 | -2.6 | -6.2 | ||
| 2013-09-24T11:47 | 5728 | 512 | -2.7 | -7.4 | ||
| 2013-09-24T11:47 | 5762 | 510 | -3.0 | -6.5 | ||
| 2013-09-24T11:47 | 5784 | 508 | -3.0 | -5.8 | ||
| 2013-09-24T11:47 | 5795 | 507 | -3.1 | -6.6 | ||
| 2013-09-24T11:48 | 5868 | 503 | -3.3 | -6.8 | ||
| 2013-09-24T11:48 | 5980 | 496 | 287 | 10.0 | ||
| 2013-09-24T11:48 | 6048 | 492 | -4.3 | -6.6 | ||
| 2013-09-24T11:48 | 6123 | 487 | -4.5 | -7.4 | ||
| 2013-09-24T11:49 | 6211 | 481 | -5.0 | -7.8 | ||
| 2013-09-24T11:49 | 6264 | 478 | -5.3 | -8.5 | ||
| 2013-09-24T11:49 | 6321 | 475 | -5.6 | -8.5 | ||
| 2013-09-24T11:49 | 6327 | 474 | 293 | 11.0 | ||
| 2013-09-24T11:49 | 6475 | 466 | -6.6 | -10.1 | ||
| 2013-09-24T11:50 | 6663 | 454 | 290 | 12.0 | ||
| 2013-09-24T11:50 | 6680 | 453 | -7.9 | -10.1 | ||
| 2013-09-24T11:51 | 6903 | 441 | -8.9 | -11.1 | ||
| 2013-09-24T11:51 | 7020 | 434 | 293 | 14.0 | ||
| 2013-09-24T11:51 | 7180 | 425 | 296 | 14.0 | ||
| 2013-09-24T11:52 | 7381 | 414 | 292 | 14.0 | ||
| 2013-09-24T11:52 | 7444 | 411 | -13.7 | -13.9 | ||
| 2013-09-24T11:52 | 7489 | 408 | -13.6 | -14.2 | ||
| 2013-09-24T11:53 | 7725 | 396 | 283 | 11.0 | ||
| 2013-09-24T11:53 | 7880 | 388 | -14.7 | -16.5 | ||
| 2013-09-24T11:54 | 7935 | 385 | -14.7 | -17.1 | ||
| 2013-09-24T11:54 | 7978 | 383 | -14.8 | -18.1 | ||
| 2013-09-24T11:54 | 8076 | 378 | -15.3 | -18.6 | ||
| 2013-09-24T11:54 | 8089 | 377 | 276 | 11.0 | ||
| 2013-09-24T11:55 | 8343 | 365 | -17.6 | -20.5 | ||
| 2013-09-24T11:55 | 8460 | 359 | 265 | 8.0 | ||
| 2013-09-24T11:56 | 8836 | 341 | -21.1 | -23.4 | 268 | 8.0 |
| 2013-09-24T11:57 | 9045 | 332 | -22.5 | -25.3 | ||
| 2013-09-24T11:57 | 9227 | 324 | 283 | 9.0 | ||
| 2013-09-24T11:58 | 9442 | 314 | -25.7 | -28.0 | ||
| 2013-09-24T11:58 | 9604 | 307 | 290 | 9.0 | ||
| 2013-09-24T11:58 | 9699 | 303 | -27.4 | -30.3 | ||
| 2013-09-24T11:59 | 9978 | 292 | -29.6 | -32.6 | ||
| 2013-09-24T11:59 | 9999 | 291 | 311 | 9.0 | ||
| 2013-09-24T12:00 | 10432 | 273 | 317 | 10.0 | ||
| 2013-09-24T12:01 | 10824 | 259 | -35.7 | -41.2 | ||
| 2013-09-24T12:01 | 10851 | 258 | 310 | 7.0 | ||
| 2013-09-24T12:02 | 11248 | 243 | 303 | 6.0 | ||
| 2013-09-24T12:02 | 11288 | 242 | -40.0 | -44.5 | ||
| 2013-09-24T12:03 | 11645 | 229 | 315 | 8.0 | ||
| 2013-09-24T12:04 | 12048 | 216 | 315 | 11.0 | ||
| 2013-09-24T12:05 | 12421 | 204 | 320 | 13.0 | ||
| 2013-09-24T12:06 | 12775 | 193 | -52.8 | |||
| 2013-09-24T12:07 | 13160 | 182 | 319 | 19.0 | ||
| 2013-09-24T12:08 | 13525 | 172 | 328 | 17.0 | ||
| 2013-09-24T12:09 | 13916 | 161 | 347 | 17.0 | ||
| 2013-09-24T12:09 | 13965 | 160 | -62.5 | |||
| 2013-09-24T12:10 | 14360 | 150 | 3 | 19.0 | ||
| 2013-09-24T12:10 | 14404 | 149 | 6 | 19.0 | ||
| 2013-09-24T12:10 | 14516 | 146 | -67.2 | |||
| 2013-09-24T12:11 | 14784 | 140 | 22 | 14.0 | ||
| 2013-09-24T12:12 | 15174 | 131 | -71.5 | |||
| 2013-09-24T12:12 | 15201 | 130 | 31 | 8.0 | ||
| 2013-09-24T12:13 | 15588 | 122 | 38 | 6.0 | ||
| 2013-09-24T12:13 | 15682 | 120 | -75.4 | |||
| 2013-09-24T12:14 | 16027 | 113 | -76.6 | 21 | 3.0 | |
| 2013-09-24T12:15 | 16531 | 104 | 344 | 13.0 | ||
| 2013-09-24T12:15 | 16723 | 100 | -80.3 | 350 | 18.0 | |
| 2013-09-24T12:16 | 16844 | 98 | -79.6 | |||
| 2013-09-24T12:16 | 17027 | 95 | 12 | 19.0 | ||
| 2013-09-24T12:17 | 17317 | 90 | -77.3 | |||
| 2013-09-24T12:17 | 17507 | 87 | 34 | 11.0 | ||
| 2013-09-24T12:17 | 17632 | 85 | -76.7 | |||
| 2013-09-24T12:18 | 17931 | 81 | 58 | 7.0 | ||
| 2013-09-24T12:18 | 18005 | 80 | -76.5 | |||
| 2013-09-24T12:19 | 18253 | 77 | -75.9 | |||
| 2013-09-24T12:19 | 18314 | 76 | 36 | 9.0 | ||
| 2013-09-24T12:20 | 18691 | 71 | -74.2 | |||
| 2013-09-24T12:20 | 18732 | 71 | 61 | 11.0 | ||
| 2013-09-24T12:21 | 19119 | 66 | 63 | 12.0 | ||
| 2013-09-24T12:21 | 19220 | 65 | -71.4 | |||
| 2013-09-24T12:22 | 19478 | 62 | 65 | 15.0 | ||
| 2013-09-24T12:22 | 19607 | 61 | -71.1 | |||
| 2013-09-24T12:23 | 19792 | 59 | -71.0 | |||
| 2013-09-24T12:23 | 19826 | 59 | 79 | 14.0 | ||
| 2013-09-24T12:24 | 20168 | 55 | 86 | 15.0 | ||
| 2013-09-24T12:24 | 20186 | 55 | -67.9 | |||
| 2013-09-24T12:25 | 20521 | 52 | 88 | 15.0 | ||
| 2013-09-24T12:25 | 20698 | 51 | -65.2 | |||
| 2013-09-24T12:26 | 20895 | 49 | 100 | 10.0 | ||
| 2013-09-24T12:26 | 21010 | 48 | -61.3 | |||
| 2013-09-24T12:27 | 21273 | 46 | 107 | 11.0 | ||
| 2013-09-24T12:28 | 21609 | 44 | -60.2 | |||
| 2013-09-24T12:28 | 21647 | 44 | 95 | 10.0 | ||
| 2013-09-24T12:29 | 22023 | 41 | 83 | 12.0 | ||
| 2013-09-24T12:30 | 22419 | 39 | 71 | 7.0 | ||
| 2013-09-24T12:30 | 22624 | 37 | -60.2 | |||
| 2013-09-24T12:31 | 22847 | 36 | 87 | 10.0 | ||
| 2013-09-24T12:31 | 23016 | 35 | -59.8 | |||
| 2013-09-24T12:32 | 23269 | 34 | 84 | 12.0 | ||
| 2013-09-24T12:33 | 23645 | 32 | -57.0 | |||
| 2013-09-24T12:33 | 23685 | 31 | 76 | 14.0 | ||
| 2013-09-24T12:34 | 24084 | 30 | 100 | 15.0 | ||
| 2013-09-24T12:35 | 24512 | 28 | 93 | 16.0 | ||
| 2013-09-24T12:36 | 24889 | 26 | -52.8 | |||
| 2013-09-24T12:36 | 24963 | 26 | 89 | 16.0 | ||
| 2013-09-24T12:37 | 25398 | 24 | 76 | 18.0 | ||
| 2013-09-24T12:38 | 25819 | 23 | 91 | 20.0 | ||
| 2013-09-24T12:38 | 25994 | 22 | -51.4 | |||
| 2013-09-24T12:39 | 26251 | 21 | 85 | 20.0 | ||
| 2013-09-24T12:39 | 26382 | 21 | 85 | 21.0 | ||
| 2013-09-24T12:39 | 26390 | 21 | -51.9 | 85 | 21.0 | |
| 2013-09-24T12:39 | 26429 | 21 | 84 | 21.0 | ||
| 2013-09-24T12:40 | 26725 | 20 | 86 | 19.0 | ||
| 2013-09-24T12:40 | 26781 | 19 | -49.7 | |||
| 2013-09-24T12:41 | 27191 | 18 | 87 | 20.0 | ||
| 2013-09-24T12:42 | 27639 | 17 | 91 | 16.0 | ||
| 2013-09-24T12:42 | 27810 | 17 | -45.8 | |||
| 2013-09-24T12:43 | 28084 | 16 | 107 | 13.0 | ||
| 2013-09-24T12:44 | 28562 | 15 | 100 | 13.0 | ||
| 2013-09-24T12:45 | 28812 | 14 | -45.4 | |||
| 2013-09-24T12:45 | 29067 | 14 | 91 | 13.0 | ||
| 2013-09-24T12:46 | 29573 | 13 | 86 | 14.0 | ||
| 2013-09-24T12:46 | 29729 | 13 | -46.3 | |||
| 2013-09-24T12:47 | 30033 | 12 | 80 | 14.0 | ||
| 2013-09-24T12:48 | 30490 | 11 | 68 | 18.0 | ||
| 2013-09-24T12:48 | 30707 | 11 | -43.1 | |||
| 2013-09-24T12:49 | 30961 | 10 | 70 | 23.0 | ||
| 2013-09-24T12:50 | 31421 | 10 | 84 | 27.0 | ||
| 2013-09-24T12:50 | 31464 | 10 | 85 | 27.0 | ||
| 2013-09-24T12:51 | 31937 | 9 | -40.6 | |||
| 2013-09-24T12:51 | 31969 | 9 | 86 | 24.0 | ||
| 2013-09-24T12:52 | 32303 | 9 | -40.2 | |||
| 2013-09-24T12:52 | 32432 | 8 | 84 | 22.0 | ||
| 2013-09-24T12:53 | 32904 | 8 | 85 | 20.0 | ||
| 2013-09-24T12:53 | 32987 | 8 | -39.2 | |||
| 2013-09-24T12:54 | 33424 | 7 | 90 | 20.0 | ||
| 2013-09-24T12:55 | 33820 | 7 | -37.7 | 79 | 19.0 | |
| 2013-09-24T23:30 | 9 | 1013 | 30.3 | 24.7 | 130 | 5.0 |
| 2013-09-24T23:30 | 47 | 1009 | 28.3 | 21.8 | ||
| 2013-09-24T23:31 | 348 | 975 | 125 | 5.0 | ||
| 2013-09-24T23:32 | 538 | 954 | 133 | 5.0 | ||
| 2013-09-24T23:32 | 549 | 953 | 132 | 5.0 | ||
| 2013-09-24T23:32 | 554 | 952 | 132 | 5.0 | ||
| 2013-09-24T23:32 | 671 | 940 | 23.1 | 20.8 | 130 | 5.0 |
| 2013-09-24T23:33 | 963 | 909 | 21.2 | 19.0 | ||
| 2013-09-24T23:33 | 1008 | 904 | 116 | 4.0 | ||
| 2013-09-24T23:33 | 1148 | 890 | 20.8 | 17.6 | ||
| 2013-09-24T23:34 | 1336 | 871 | 79 | 3.0 | ||
| 2013-09-24T23:35 | 1651 | 839 | 115 | 2.0 | ||
| 2013-09-24T23:35 | 1672 | 837 | 18.0 | 14.5 | ||
| 2013-09-24T23:36 | 1863 | 819 | 16.7 | 13.4 | ||
| 2013-09-24T23:36 | 1955 | 810 | 151 | 2.0 | ||
| 2013-09-24T23:36 | 2004 | 805 | 15.7 | 12.5 | ||
| 2013-09-24T23:36 | 2081 | 798 | 15.1 | 12.1 | ||
| 2013-09-24T23:37 | 2180 | 789 | 15.3 | 11.1 | ||
| 2013-09-24T23:37 | 2231 | 784 | 15.1 | 10.3 | ||
| 2013-09-24T23:37 | 2246 | 783 | 244 | 2.0 | ||
| 2013-09-24T23:37 | 2317 | 776 | 15.6 | 9.0 | ||
| 2013-09-24T23:38 | 2510 | 759 | 14.8 | 6.9 | ||
| 2013-09-24T23:38 | 2565 | 754 | 249 | 6.0 | ||
| 2013-09-24T23:39 | 2789 | 734 | 13.2 | 5.8 | ||
| 2013-09-24T23:39 | 2903 | 724 | 254 | 7.0 | ||
| 2013-09-24T23:39 | 2965 | 719 | 12.6 | 2.7 | ||
| 2013-09-24T23:40 | 3110 | 706 | 11.8 | 0.9 | ||
| 2013-09-24T23:40 | 3200 | 699 | 11.2 | 1.2 | ||
| 2013-09-24T23:40 | 3239 | 696 | 257 | 6.0 | ||
| 2013-09-24T23:40 | 3347 | 687 | 10.4 | -0.1 | ||
| 2013-09-24T23:41 | 3466 | 677 | 9.9 | 2.3 | ||
| 2013-09-24T23:41 | 3583 | 668 | 257 | 7.0 | ||
| 2013-09-24T23:42 | 3821 | 649 | 8.4 | -4.4 | ||
| 2013-09-24T23:42 | 3873 | 645 | 8.0 | -3.8 | ||
| 2013-09-24T23:42 | 3959 | 638 | 7.4 | -2.1 | ||
| 2013-09-24T23:42 | 3966 | 637 | 261 | 7.0 | ||
| 2013-09-24T23:42 | 4050 | 631 | 7.0 | -2.7 | ||
| 2013-09-24T23:43 | 4192 | 620 | 6.0 | -1.4 | ||
| 2013-09-24T23:43 | 4293 | 613 | 5.4 | -2.9 | ||
| 2013-09-24T23:43 | 4348 | 608 | 271 | 7.0 | ||
| 2013-09-24T23:43 | 4392 | 605 | 4.8 | -2.3 | ||
| 2013-09-24T23:43 | 4448 | 601 | 4.5 | -3.5 | ||
| 2013-09-24T23:43 | 4486 | 598 | 4.2 | -2.2 | ||
| 2013-09-24T23:44 | 4569 | 592 | 3.9 | -4.6 | ||
| 2013-09-24T23:44 | 4613 | 589 | 4.0 | -1.0 | ||
| 2013-09-24T23:44 | 4721 | 581 | 296 | 9.0 | ||
| 2013-09-24T23:44 | 4883 | 570 | 2.1 | -0.5 | ||
| 2013-09-24T23:45 | 5045 | 558 | 322 | 11.0 | ||
| 2013-09-24T23:45 | 5192 | 548 | -0.1 | -1.4 | ||
| 2013-09-24T23:46 | 5341 | 538 | 322 | 11.0 | ||
| 2013-09-24T23:46 | 5445 | 531 | 326 | 12.0 | ||
| 2013-09-24T23:46 | 5455 | 530 | 327 | 12.0 | ||
| 2013-09-24T23:46 | 5470 | 529 | 328 | 12.0 | ||
| 2013-09-24T23:47 | 5527 | 526 | -1.4 | -3.0 | ||
| 2013-09-24T23:47 | 5633 | 519 | -1.5 | -4.3 | ||
| 2013-09-24T23:47 | 5649 | 518 | 332 | 11.0 | ||
| 2013-09-24T23:48 | 5972 | 497 | 335 | 11.0 | ||
| 2013-09-24T23:48 | 6109 | 489 | -5.0 | -6.8 | ||
| 2013-09-24T23:49 | 6315 | 476 | 328 | 11.0 | ||
| 2013-09-24T23:49 | 6338 | 475 | -6.8 | -8.2 | ||
| 2013-09-24T23:50 | 6577 | 460 | -7.6 | -10.1 | ||
| 2013-09-24T23:50 | 6616 | 458 | 331 | 13.0 | ||
| 2013-09-24T23:50 | 6655 | 456 | 333 | 12.0 | ||
| 2013-09-24T23:51 | 6967 | 438 | -9.8 | -12.3 | ||
| 2013-09-24T23:51 | 6996 | 436 | 325 | 11.0 | ||
| 2013-09-24T23:52 | 7268 | 421 | -12.0 | -14.0 | ||
| 2013-09-24T23:52 | 7358 | 416 | 319 | 10.0 | ||
| 2013-09-24T23:53 | 7587 | 404 | -13.7 | -18.0 | ||
| 2013-09-24T23:53 | 7704 | 397 | -13.9 | -21.6 | ||
| 2013-09-24T23:53 | 7782 | 393 | -14.2 | -24.1 | ||
| 2013-09-24T23:53 | 7858 | 389 | -14.8 | -26.3 | ||
| 2013-09-24T23:54 | 7994 | 382 | -16.0 | -25.5 | ||
| 2013-09-24T23:54 | 8017 | 381 | -16.2 | -24.9 | ||
| 2013-09-24T23:54 | 8051 | 380 | -16.5 | -22.8 | ||
| 2013-09-24T23:54 | 8057 | 379 | 335 | 11.0 | ||
| 2013-09-24T23:54 | 8154 | 374 | -17.2 | -24.1 | ||
| 2013-09-24T23:54 | 8178 | 373 | -17.3 | -23.8 | ||
| 2013-09-24T23:54 | 8226 | 371 | -17.6 | -25.1 | ||
| 2013-09-24T23:55 | 8285 | 368 | -18.0 | -23.3 | ||
| 2013-09-24T23:55 | 8333 | 365 | -18.1 | -25.6 | ||
| 2013-09-24T23:55 | 8391 | 363 | -18.3 | -25.3 | ||
| 2013-09-24T23:55 | 8408 | 362 | 333 | 12.0 | ||
| 2013-09-24T23:55 | 8487 | 358 | -18.6 | -28.1 | ||
| 2013-09-24T23:56 | 8611 | 352 | 329 | 13.0 | ||
| 2013-09-24T23:56 | 8634 | 351 | 329 | 13.0 | ||
| 2013-09-24T23:56 | 8651 | 350 | 328 | 13.0 | ||
| 2013-09-24T23:56 | 8715 | 347 | -20.5 | -26.4 | ||
| 2013-09-24T23:56 | 8750 | 345 | 326 | 12.0 | ||
| 2013-09-24T23:57 | 9014 | 333 | -22.7 | -27.0 | ||
| 2013-09-24T23:57 | 9122 | 328 | 313 | 12.0 | ||
| 2013-09-24T23:57 | 9231 | 324 | -24.4 | -29.4 | ||
| 2013-09-24T23:58 | 9493 | 312 | 306 | 11.0 | ||
| 2013-09-24T23:59 | 9813 | 298 | -29.2 | -33.1 | ||
| 2013-09-24T23:59 | 9863 | 296 | 315 | 11.0 | ||
| 2013-09-25T00:00 | 10236 | 281 | 317 | 12.0 | ||
| 2013-09-25T00:01 | 10637 | 266 | 322 | 14.0 | ||
| 2013-09-25T00:02 | 11005 | 252 | -38.8 | -41.9 | ||
| 2013-09-25T00:02 | 11160 | 246 | -40.0 | -43.5 | ||
| 2013-09-25T00:03 | 11364 | 239 | 326 | 14.0 | ||
| 2013-09-25T00:04 | 11751 | 226 | 323 | 18.0 | ||
| 2013-09-25T00:04 | 11758 | 225 | 323 | 18.0 | ||
| 2013-09-25T00:05 | 12153 | 212 | 338 | 16.0 | ||
| 2013-09-25T00:05 | 12255 | 209 | -48.3 | |||
| 2013-09-25T00:06 | 12571 | 199 | 343 | 15.0 | ||
| 2013-09-25T00:07 | 12781 | 193 | -52.8 | |||
| 2013-09-25T00:07 | 12982 | 187 | 354 | 15.0 | ||
| 2013-09-25T00:08 | 13349 | 176 | 359 | 16.0 | ||
| 2013-09-25T00:09 | 13709 | 166 | 5 | 18.0 | ||
| 2013-09-25T00:10 | 14070 | 157 | 8 | 18.0 | ||
| 2013-09-25T00:11 | 14434 | 148 | 7 | 19.0 | ||
| 2013-09-25T00:11 | 14617 | 143 | -69.3 | |||
| 2013-09-25T00:12 | 14823 | 139 | 14 | 19.0 | ||
| 2013-09-25T00:12 | 14946 | 136 | 20 | 20.0 | ||
| 2013-09-25T00:12 | 14997 | 135 | 22 | 20.0 | ||
| 2013-09-25T00:13 | 15170 | 131 | -72.2 | |||
| 2013-09-25T00:13 | 15201 | 130 | 24 | 17.0 | ||
| 2013-09-25T00:14 | 15588 | 122 | 354 | 12.0 | ||
| 2013-09-25T00:14 | 15710 | 119 | -75.2 | |||
| 2013-09-25T00:15 | 15972 | 114 | 350 | 15.0 | ||
| 2013-09-25T00:16 | 16378 | 106 | 9 | 18.0 | ||
| 2013-09-25T00:16 | 16449 | 105 | -79.0 | |||
| 2013-09-25T00:17 | 16706 | 100 | -80.2 | 20 | 20.0 | |
| 2013-09-25T00:17 | 16787 | 99 | 23 | 20.0 | ||
| 2013-09-25T00:17 | 16979 | 95 | -80.7 | |||
| 2013-09-25T00:17 | 16987 | 95 | 33 | 22.0 | ||
| 2013-09-25T00:18 | 17225 | 91 | -79.5 | |||
| 2013-09-25T00:18 | 17247 | 91 | 54 | 20.0 | ||
| 2013-09-25T00:18 | 17365 | 89 | -78.3 | |||
| 2013-09-25T00:19 | 17640 | 85 | 75 | 12.0 | ||
| 2013-09-25T00:19 | 17794 | 83 | -79.4 | |||
| 2013-09-25T00:20 | 18012 | 79 | 50 | 12.0 | ||
| 2013-09-25T00:21 | 18385 | 74 | 48 | 11.0 | ||
| 2013-09-25T00:21 | 18398 | 74 | -76.7 | |||
| 2013-09-25T00:22 | 18647 | 71 | -74.6 | |||
| 2013-09-25T00:22 | 18773 | 70 | 65 | 11.0 | ||
| 2013-09-25T00:23 | 19040 | 67 | -73.1 | |||
| 2013-09-25T00:23 | 19148 | 65 | 75 | 10.0 | ||
| 2013-09-25T00:24 | 19390 | 63 | -70.4 | |||
| 2013-09-25T00:24 | 19519 | 61 | 53 | 11.0 | ||
| 2013-09-25T00:25 | 19904 | 57 | 79 | 12.0 | ||
| 2013-09-25T00:26 | 20296 | 54 | 83 | 12.0 | ||
| 2013-09-25T00:27 | 20519 | 52 | -67.8 | |||
| 2013-09-25T00:27 | 20705 | 50 | 87 | 10.0 | ||
| 2013-09-25T00:28 | 21098 | 47 | 76 | 11.0 | ||
| 2013-09-25T00:29 | 21497 | 44 | 66 | 16.0 | ||
| 2013-09-25T00:29 | 21551 | 44 | -63.4 | |||
| 2013-09-25T00:30 | 21902 | 41 | 78 | 15.0 | ||
| 2013-09-25T00:31 | 22300 | 39 | 104 | 15.0 | ||
| 2013-09-25T00:31 | 22408 | 38 | -60.7 | |||
| 2013-09-25T00:32 | 22698 | 36 | 94 | 13.0 | ||
| 2013-09-25T00:33 | 22968 | 35 | -58.2 | |||
| 2013-09-25T00:33 | 23110 | 34 | 104 | 14.0 | ||
| 2013-09-25T00:33 | 23310 | 33 | -57.4 | |||
| 2013-09-25T00:34 | 23538 | 32 | 92 | 17.0 | ||
| 2013-09-25T00:35 | 23773 | 31 | -57.8 | |||
| 2013-09-25T00:35 | 23982 | 30 | 98 | 15.0 | ||
| 2013-09-25T00:36 | 24424 | 28 | 91 | 16.0 | ||
| 2013-09-25T00:36 | 24454 | 28 | -56.5 | |||
| 2013-09-25T00:37 | 24863 | 26 | 89 | 16.0 | ||
| 2013-09-25T00:38 | 25212 | 24 | -54.5 | 90 | 18.0 | |
| 2013-09-25T11:30 | 9 | 1013 | 28.8 | 25.0 | 80 | 4.0 |
| 2013-09-25T11:31 | 344 | 976 | 76 | 5.0 | ||
| 2013-09-25T11:32 | 609 | 947 | 22.7 | 21.2 | ||
| 2013-09-25T11:32 | 664 | 941 | 22.8 | 19.2 | ||
| 2013-09-25T11:32 | 692 | 938 | 90 | 6.0 | ||
| 2013-09-25T11:32 | 758 | 931 | 22.9 | 17.8 | ||
| 2013-09-25T11:32 | 825 | 923 | 22.4 | 18.4 | ||
| 2013-09-25T11:33 | 979 | 907 | 21.3 | 18.3 | ||
| 2013-09-25T11:33 | 1002 | 905 | 21.4 | 16.4 | ||
| 2013-09-25T11:33 | 1030 | 902 | 80 | 7.0 | ||
| 2013-09-25T11:33 | 1042 | 901 | 78 | 7.0 | ||
| 2013-09-25T11:33 | 1048 | 900 | 77 | 7.0 | ||
| 2013-09-25T11:33 | 1157 | 889 | 20.5 | 15.3 | ||
| 2013-09-25T11:34 | 1278 | 876 | 20.2 | 14.8 | ||
| 2013-09-25T11:34 | 1363 | 868 | 64 | 6.0 | ||
| 2013-09-25T11:34 | 1400 | 864 | 19.6 | 14.6 | ||
| 2013-09-25T11:34 | 1473 | 857 | 19.3 | 14.8 | ||
| 2013-09-25T11:35 | 1689 | 836 | 19.1 | 11.2 | ||
| 2013-09-25T11:35 | 1708 | 834 | 54 | 4.0 | ||
| 2013-09-25T11:35 | 1856 | 819 | 17.6 | 12.1 | ||
| 2013-09-25T11:35 | 1895 | 816 | 17.5 | 12.8 | ||
| 2013-09-25T11:36 | 2082 | 798 | 30 | 3.0 | ||
| 2013-09-25T11:36 | 2244 | 783 | 15.9 | 7.9 | ||
| 2013-09-25T11:37 | 2385 | 770 | 15.1 | 7.6 | ||
| 2013-09-25T11:37 | 2446 | 765 | 330 | 3.0 | ||
| 2013-09-25T11:38 | 2667 | 745 | 13.5 | 5.6 | ||
| 2013-09-25T11:38 | 2723 | 740 | 13.2 | 5.6 | ||
| 2013-09-25T11:38 | 2774 | 736 | 12.7 | 6.7 | ||
| 2013-09-25T11:38 | 2824 | 731 | 324 | 5.0 | ||
| 2013-09-25T11:38 | 2964 | 719 | 11.6 | 5.0 | ||
| 2013-09-25T11:39 | 3151 | 703 | 10.4 | 5.0 | ||
| 2013-09-25T11:39 | 3180 | 701 | 330 | 6.0 | ||
| 2013-09-25T11:39 | 3301 | 690 | 9.5 | 2.6 | ||
| 2013-09-25T11:39 | 3324 | 689 | 9.5 | 0.9 | ||
| 2013-09-25T11:40 | 3445 | 678 | 8.6 | 1.7 | ||
| 2013-09-25T11:40 | 3525 | 672 | 326 | 8.0 | ||
| 2013-09-25T11:40 | 3560 | 669 | 7.9 | 1.7 | ||
| 2013-09-25T11:40 | 3645 | 662 | 7.2 | 1.5 | ||
| 2013-09-25T11:41 | 3712 | 657 | 6.8 | 1.9 | ||
| 2013-09-25T11:41 | 3740 | 655 | 6.6 | -0.2 | ||
| 2013-09-25T11:41 | 3790 | 651 | 6.3 | 1.8 | ||
| 2013-09-25T11:41 | 3846 | 646 | 6.0 | 0.3 | ||
| 2013-09-25T11:41 | 3864 | 645 | 314 | 9.0 | ||
| 2013-09-25T11:41 | 3916 | 641 | 5.7 | -0.2 | ||
| 2013-09-25T11:41 | 3940 | 639 | 5.6 | -1.8 | ||
| 2013-09-25T11:41 | 3993 | 635 | 5.1 | 1.8 | ||
| 2013-09-25T11:42 | 4154 | 622 | 4.2 | 1.1 | ||
| 2013-09-25T11:42 | 4217 | 617 | 316 | 7.0 | ||
| 2013-09-25T11:42 | 4252 | 615 | 3.7 | 1.1 | ||
| 2013-09-25T11:42 | 4365 | 606 | 3.1 | 1.3 | ||
| 2013-09-25T11:43 | 4560 | 592 | 309 | 10.0 | ||
| 2013-09-25T11:43 | 4578 | 590 | 2.1 | 0.3 | ||
| 2013-09-25T11:43 | 4651 | 585 | 2.1 | 2.0 | ||
| 2013-09-25T11:44 | 4929 | 565 | 311 | 9.0 | ||
| 2013-09-25T11:44 | 5028 | 559 | 0.5 | -0.2 | ||
| 2013-09-25T11:45 | 5267 | 542 | 325 | 8.0 | ||
| 2013-09-25T11:46 | 5441 | 530 | -1.9 | -2.2 | ||
| 2013-09-25T11:46 | 5612 | 519 | 322 | 11.0 | ||
| 2013-09-25T11:47 | 5870 | 502 | 324 | 12.0 | ||
| 2013-09-25T11:47 | 5948 | 497 | 328 | 11.0 | ||
| 2013-09-25T11:48 | 6229 | 480 | -5.5 | -6.6 | ||
| 2013-09-25T11:48 | 6280 | 477 | 330 | 9.0 | ||
| 2013-09-25T11:49 | 6630 | 456 | 329 | 9.0 | ||
| 2013-09-25T11:49 | 6774 | 448 | -9.0 | -10.2 | ||
| 2013-09-25T11:50 | 6979 | 436 | 325 | 11.0 | ||
| 2013-09-25T11:51 | 7308 | 418 | -12.4 | -13.7 | ||
| 2013-09-25T11:51 | 7332 | 416 | 331 | 11.0 | ||
| 2013-09-25T11:52 | 7589 | 403 | -14.0 | -15.1 | ||
| 2013-09-25T11:52 | 7690 | 397 | 338 | 10.0 | ||
| 2013-09-25T11:53 | 7907 | 386 | -15.6 | -17.4 | ||
| 2013-09-25T11:53 | 8049 | 379 | 342 | 12.0 | ||
| 2013-09-25T11:53 | 8114 | 376 | -17.2 | -18.8 | ||
| 2013-09-25T11:54 | 8388 | 362 | -18.9 | -20.1 | ||
| 2013-09-25T11:54 | 8413 | 361 | 350 | 11.0 | ||
| 2013-09-25T11:54 | 8507 | 356 | -19.5 | -21.7 | ||
| 2013-09-25T11:55 | 8612 | 351 | -19.5 | -23.4 | ||
| 2013-09-25T11:55 | 8775 | 344 | 3 | 13.0 | ||
| 2013-09-25T11:56 | 9127 | 328 | 8 | 13.0 | ||
| 2013-09-25T11:57 | 9404 | 315 | -25.9 | -29.0 | ||
| 2013-09-25T11:57 | 9472 | 312 | 7 | 17.0 | ||
| 2013-09-25T11:58 | 9730 | 301 | -28.5 | -31.4 | ||
| 2013-09-25T11:58 | 9815 | 298 | 11 | 17.0 | ||
| 2013-09-25T11:59 | 10152 | 284 | -32.0 | -35.5 | ||
| 2013-09-25T11:59 | 10188 | 283 | 10 | 17.0 | ||
| 2013-09-25T12:00 | 10503 | 270 | -34.9 | -37.6 | ||
| 2013-09-25T12:00 | 10553 | 268 | 5 | 17.0 | ||
| 2013-09-25T12:00 | 10613 | 266 | -35.6 | -38.3 | ||
| 2013-09-25T12:01 | 10808 | 259 | -36.3 | -39.7 | ||
| 2013-09-25T12:01 | 10908 | 255 | 357 | 15.0 | ||
| 2013-09-25T12:01 | 11037 | 250 | -38.2 | -41.9 | ||
| 2013-09-25T12:02 | 11233 | 243 | -39.8 | -43.5 | ||
| 2013-09-25T12:02 | 11264 | 242 | -40.0 | -44.1 | ||
| 2013-09-25T12:02 | 11283 | 241 | 3 | 20.0 | ||
| 2013-09-25T12:03 | 11619 | 230 | 4 | 23.0 | ||
| 2013-09-25T12:04 | 11964 | 218 | 5 | 26.0 | ||
| 2013-09-25T12:05 | 12297 | 208 | 4 | 26.0 | ||
| 2013-09-25T12:05 | 12406 | 204 | -49.0 | |||
| 2013-09-25T12:06 | 12619 | 198 | 5 | 26.0 | ||
| 2013-09-25T12:07 | 12945 | 188 | 4 | 27.0 | ||
| 2013-09-25T12:08 | 13269 | 179 | 4 | 29.0 | ||
| 2013-09-25T12:09 | 13594 | 170 | 7 | 29.0 | ||
| 2013-09-25T12:09 | 13706 | 167 | 9 | 29.0 | ||
| 2013-09-25T12:09 | 13711 | 166 | 9 | 29.0 | ||
| 2013-09-25T12:09 | 13762 | 165 | 9 | 29.0 | ||
| 2013-09-25T12:10 | 13929 | 161 | 12 | 29.0 | ||
| 2013-09-25T12:10 | 14035 | 158 | -63.0 | |||
| 2013-09-25T12:11 | 14272 | 152 | 14 | 27.0 | ||
| 2013-09-25T12:12 | 14494 | 147 | -66.6 | |||
| 2013-09-25T12:12 | 14717 | 141 | 17 | 27.0 | ||
| 2013-09-25T12:13 | 15204 | 130 | 25 | 24.0 | ||
| 2013-09-25T12:14 | 15656 | 120 | 29 | 22.0 | ||
| 2013-09-25T12:15 | 16026 | 113 | -78.1 | |||
| 2013-09-25T12:15 | 16106 | 111 | 28 | 19.0 | ||
| 2013-09-25T12:16 | 16535 | 103 | 35 | 19.0 | ||
| 2013-09-25T12:16 | 16583 | 102 | -81.7 | |||
| 2013-09-25T12:16 | 16710 | 100 | -80.8 | 48 | 19.0 | |
| 2013-09-25T12:17 | 16904 | 97 | 57 | 17.0 | ||
| 2013-09-25T12:17 | 16996 | 95 | -78.7 | |||
| 2013-09-25T12:18 | 17113 | 93 | -76.9 | |||
| 2013-09-25T12:18 | 17268 | 91 | 73 | 14.0 | ||
| 2013-09-25T12:19 | 17614 | 85 | 41 | 13.0 | ||
| 2013-09-25T12:20 | 17804 | 83 | -78.1 | |||
| 2013-09-25T12:20 | 17969 | 80 | 46 | 19.0 | ||
| 2013-09-25T12:20 | 18073 | 79 | -75.4 | |||
| 2013-09-25T12:21 | 18330 | 75 | 60 | 20.0 | ||
| 2013-09-25T12:21 | 18448 | 74 | -73.6 | |||
| 2013-09-25T12:22 | 18671 | 71 | 77 | 20.0 | ||
| 2013-09-25T12:23 | 18901 | 68 | -71.4 | |||
| 2013-09-25T12:23 | 19025 | 67 | 77 | 15.0 | ||
| 2013-09-25T12:24 | 19398 | 63 | 71 | 13.0 | ||
| 2013-09-25T12:25 | 19769 | 59 | 74 | 12.0 | ||
| 2013-09-25T12:25 | 19873 | 58 | -67.8 | |||
| 2013-09-25T12:26 | 20126 | 56 | 85 | 13.0 | ||
| 2013-09-25T12:27 | 20380 | 53 | -65.4 | |||
| 2013-09-25T12:27 | 20508 | 52 | 87 | 12.0 | ||
| 2013-09-25T12:28 | 20917 | 49 | 98 | 11.0 | ||
| 2013-09-25T12:28 | 20973 | 48 | -65.1 | |||
| 2013-09-25T12:29 | 21325 | 46 | 92 | 11.0 | ||
| 2013-09-25T12:29 | 21402 | 45 | -65.4 | |||
| 2013-09-25T12:30 | 21709 | 43 | 79 | 11.0 | ||
| 2013-09-25T12:31 | 22091 | 40 | 70 | 14.0 | ||
| 2013-09-25T12:32 | 22502 | 38 | 67 | 15.0 | ||
| 2013-09-25T12:33 | 22848 | 36 | -57.1 | |||
| 2013-09-25T12:33 | 22935 | 35 | 81 | 16.0 | ||
| 2013-09-25T12:34 | 23342 | 33 | 87 | 15.0 | ||
| 2013-09-25T12:35 | 23728 | 31 | 91 | 16.0 | ||
| 2013-09-25T12:36 | 24141 | 29 | 94 | 15.0 | ||
| 2013-09-25T12:37 | 24592 | 27 | 91 | 15.0 | ||
| 2013-09-25T12:38 | 24953 | 26 | -52.3 | |||
| 2013-09-25T12:38 | 25048 | 25 | 100 | 16.0 | ||
| 2013-09-25T12:39 | 25471 | 24 | 92 | 18.0 | ||
| 2013-09-25T12:40 | 25730 | 23 | -53.0 | |||
| 2013-09-25T12:40 | 25896 | 22 | 93 | 17.0 | ||
| 2013-09-25T12:41 | 26339 | 21 | 89 | 13.0 | ||
| 2013-09-25T12:42 | 26716 | 20 | -51.6 | |||
| 2013-09-25T12:42 | 26803 | 19 | 74 | 18.0 | ||
| 2013-09-25T12:43 | 27259 | 18 | -52.6 | |||
| 2013-09-25T12:43 | 27267 | 18 | 84 | 20.0 | ||
| 2013-09-25T12:44 | 27732 | 17 | 87 | 19.0 | ||
| 2013-09-25T12:44 | 27787 | 17 | -50.1 | |||
| 2013-09-25T12:45 | 28214 | 16 | 92 | 22.0 | ||
| 2013-09-25T12:45 | 28255 | 15 | -46.1 | |||
| 2013-09-25T12:46 | 28708 | 14 | 93 | 22.0 | ||
| 2013-09-25T12:47 | 29051 | 14 | -43.6 | |||
| 2013-09-25T12:47 | 29206 | 13 | 85 | 18.0 | ||
| 2013-09-25T12:48 | 29650 | 13 | -43.6 | |||
| 2013-09-25T12:48 | 29698 | 12 | 83 | 18.0 | ||
| 2013-09-25T12:49 | 30187 | 12 | 84 | 20.0 | ||
| 2013-09-25T12:49 | 30401 | 11 | -42.2 | |||
| 2013-09-25T12:50 | 30698 | 11 | 86 | 20.0 | ||
| 2013-09-25T12:51 | 31209 | 10 | 82 | 20.0 | ||
| 2013-09-25T12:52 | 31713 | 9 | 70 | 26.0 | ||
| 2013-09-25T12:52 | 31869 | 9 | -39.2 | 73 | 22.0 | |
| 2013-09-25T23:30 | 9 | 1011 | 29.1 | 21.3 | 70 | 3.0 |
| 2013-09-25T23:31 | 353 | 972 | 67 | 4.0 | ||
| 2013-09-25T23:31 | 418 | 965 | 24.6 | 17.6 | ||
| 2013-09-25T23:31 | 476 | 959 | 24.4 | 16.9 | ||
| 2013-09-25T23:32 | 602 | 945 | 24.4 | 14.5 | ||
| 2013-09-25T23:32 | 702 | 934 | 69 | 4.0 | ||
| 2013-09-25T23:33 | 1044 | 899 | 59 | 5.0 | ||
| 2013-09-25T23:34 | 1245 | 878 | 21.0 | 11.6 | ||
| 2013-09-25T23:34 | 1366 | 866 | 30 | 7.0 | ||
| 2013-09-25T23:34 | 1493 | 853 | 20.2 | 11.9 | ||
| 2013-09-25T23:35 | 1555 | 847 | 20.0 | 9.0 | ||
| 2013-09-25T23:35 | 1630 | 840 | 19.5 | 11.5 | ||
| 2013-09-25T23:35 | 1705 | 832 | 4 | 7.0 | ||
| 2013-09-25T23:35 | 1716 | 831 | 19.1 | 11.2 | ||
| 2013-09-25T23:35 | 1772 | 826 | 18.8 | 10.4 | ||
| 2013-09-25T23:35 | 1811 | 822 | 18.6 | 9.4 | ||
| 2013-09-25T23:36 | 1880 | 816 | 4 | 7.0 | ||
| 2013-09-25T23:36 | 1885 | 815 | 4 | 7.0 | ||
| 2013-09-25T23:36 | 1914 | 812 | 18.0 | 8.3 | ||
| 2013-09-25T23:36 | 2027 | 802 | 17.5 | 7.8 | ||
| 2013-09-25T23:36 | 2043 | 800 | 12 | 6.0 | ||
| 2013-09-25T23:36 | 2060 | 798 | 17.4 | 8.0 | ||
| 2013-09-25T23:36 | 2132 | 792 | 17.1 | 6.6 | ||
| 2013-09-25T23:37 | 2376 | 770 | 347 | 6.0 | ||
| 2013-09-25T23:37 | 2398 | 768 | 15.0 | 5.8 | ||
| 2013-09-25T23:37 | 2539 | 755 | 14.4 | 5.5 | ||
| 2013-09-25T23:38 | 2595 | 750 | 14.3 | 3.4 | ||
| 2013-09-25T23:38 | 2714 | 739 | 335 | 10.0 | ||
| 2013-09-25T23:38 | 2831 | 729 | 13.1 | 2.3 | ||
| 2013-09-25T23:38 | 2864 | 726 | 12.8 | 4.7 | ||
| 2013-09-25T23:39 | 3052 | 710 | 345 | 12.0 | ||
| 2013-09-25T23:39 | 3094 | 707 | 10.5 | 6.1 | ||
| 2013-09-25T23:40 | 3425 | 679 | 6 | 13.0 | ||
| 2013-09-25T23:40 | 3437 | 678 | 7.9 | 5.9 | ||
| 2013-09-25T23:40 | 3538 | 670 | 7.8 | 4.9 | ||
| 2013-09-25T23:41 | 3770 | 651 | 12 | 15.0 | ||
| 2013-09-25T23:41 | 3793 | 649 | 6.0 | 3.7 | ||
| 2013-09-25T23:42 | 4015 | 632 | 4.5 | 3.2 | ||
| 2013-09-25T23:42 | 4120 | 624 | 13 | 16.0 | ||
| 2013-09-25T23:43 | 4369 | 605 | 2.8 | 2.2 | ||
| 2013-09-25T23:43 | 4481 | 597 | 6 | 16.0 | ||
| 2013-09-25T23:44 | 4871 | 569 | 354 | 17.0 | ||
| 2013-09-25T23:45 | 5127 | 551 | -1.0 | -1.8 | ||
| 2013-09-25T23:45 | 5260 | 542 | 337 | 19.0 | ||
| 2013-09-25T23:45 | 5334 | 537 | -2.3 | -3.1 | ||
| 2013-09-25T23:46 | 5596 | 519 | 337 | 23.0 | ||
| 2013-09-25T23:46 | 5679 | 514 | -4.1 | -4.8 | ||
| 2013-09-25T23:46 | 5694 | 513 | -4.2 | -5.4 | ||
| 2013-09-25T23:47 | 5770 | 508 | -4.7 | -5.7 | ||
| 2013-09-25T23:47 | 5797 | 506 | -4.9 | -6.9 | ||
| 2013-09-25T23:47 | 5835 | 504 | -4.9 | -6.4 | ||
| 2013-09-25T23:47 | 5845 | 503 | -4.9 | -7.3 | ||
| 2013-09-25T23:47 | 5888 | 500 | -5.0 | -7.1 | ||
| 2013-09-25T23:47 | 5909 | 499 | 335 | 25.0 | ||
| 2013-09-25T23:47 | 5931 | 498 | -5.3 | -6.8 | ||
| 2013-09-25T23:47 | 5942 | 497 | -5.4 | -7.4 | ||
| 2013-09-25T23:47 | 5985 | 494 | -5.6 | -7.9 | ||
| 2013-09-25T23:48 | 6241 | 478 | 342 | 24.0 | ||
| 2013-09-25T23:48 | 6297 | 475 | -7.1 | -8.0 | ||
| 2013-09-25T23:49 | 6475 | 464 | -7.9 | -8.6 | ||
| 2013-09-25T23:49 | 6602 | 457 | 339 | 22.0 | ||
| 2013-09-25T23:50 | 6792 | 446 | -9.6 | -10.1 | ||
| 2013-09-25T23:50 | 6887 | 440 | -10.3 | -11.6 | ||
| 2013-09-25T23:50 | 6900 | 439 | -10.4 | -11.6 | ||
| 2013-09-25T23:50 | 6983 | 435 | 343 | 20.0 | ||
| 2013-09-25T23:50 | 7009 | 433 | -11.1 | -12.3 | ||
| 2013-09-25T23:50 | 7040 | 432 | -11.3 | -12.1 | ||
| 2013-09-25T23:50 | 7060 | 430 | -11.4 | -12.8 | ||
| 2013-09-25T23:50 | 7124 | 427 | -11.9 | -12.4 | ||
| 2013-09-25T23:50 | 7150 | 425 | -12.0 | -13.3 | ||
| 2013-09-25T23:51 | 7208 | 422 | -12.3 | -12.8 | ||
| 2013-09-25T23:51 | 7252 | 420 | -12.6 | -13.1 | ||
| 2013-09-25T23:51 | 7290 | 418 | -12.7 | -14.4 | ||
| 2013-09-25T23:51 | 7302 | 417 | -12.7 | -13.7 | ||
| 2013-09-25T23:51 | 7321 | 416 | -12.8 | -13.7 | ||
| 2013-09-25T23:51 | 7365 | 414 | 338 | 19.0 | ||
| 2013-09-25T23:51 | 7378 | 413 | -13.3 | -14.7 | ||
| 2013-09-25T23:51 | 7397 | 412 | -13.5 | -15.8 | ||
| 2013-09-25T23:51 | 7409 | 411 | -13.6 | -15.6 | ||
| 2013-09-25T23:51 | 7447 | 409 | -13.9 | -15.3 | ||
| 2013-09-25T23:51 | 7478 | 408 | -14.2 | -15.5 | ||
| 2013-09-25T23:51 | 7490 | 407 | -14.3 | -15.1 | ||
| 2013-09-25T23:51 | 7521 | 405 | -14.6 | -16.1 | ||
| 2013-09-25T23:52 | 7552 | 403 | -14.9 | -17.0 | ||
| 2013-09-25T23:52 | 7571 | 402 | -15.1 | -17.2 | ||
| 2013-09-25T23:52 | 7646 | 399 | -15.8 | -19.2 | ||
| 2013-09-25T23:52 | 7658 | 398 | -15.9 | -19.0 | ||
| 2013-09-25T23:52 | 7702 | 396 | -16.3 | -21.2 | ||
| 2013-09-25T23:52 | 7720 | 395 | -16.5 | -20.9 | ||
| 2013-09-25T23:52 | 7739 | 394 | 351 | 21.0 | ||
| 2013-09-25T23:52 | 7745 | 393 | -16.7 | -21.2 | ||
| 2013-09-25T23:52 | 7769 | 392 | -17.0 | -21.0 | ||
| 2013-09-25T23:52 | 7831 | 389 | -17.6 | -21.0 | ||
| 2013-09-25T23:52 | 7843 | 388 | -17.7 | -24.4 | ||
| 2013-09-25T23:52 | 7874 | 387 | -18.0 | -25.3 | ||
| 2013-09-25T23:52 | 7880 | 386 | -18.1 | -29.5 | ||
| 2013-09-25T23:52 | 7904 | 385 | -18.3 | -39.3 | ||
| 2013-09-25T23:52 | 7916 | 384 | -18.4 | -35.9 | ||
| 2013-09-25T23:53 | 7934 | 383 | -18.6 | -41.0 | ||
| 2013-09-25T23:53 | 7952 | 382 | -18.8 | -31.7 | ||
| 2013-09-25T23:53 | 7982 | 381 | -19.0 | -33.4 | ||
| 2013-09-25T23:53 | 8000 | 380 | -19.2 | -41.5 | ||
| 2013-09-25T23:53 | 8024 | 379 | -19.4 | -37.8 | ||
| 2013-09-25T23:53 | 8030 | 378 | -19.5 | -33.4 | ||
| 2013-09-25T23:53 | 8060 | 377 | -19.8 | -38.1 | ||
| 2013-09-25T23:53 | 8090 | 375 | -20.1 | -35.9 | ||
| 2013-09-25T23:53 | 8119 | 374 | -20.3 | -41.0 | ||
| 2013-09-25T23:53 | 8131 | 373 | -20.4 | -37.6 | ||
| 2013-09-25T23:53 | 8149 | 372 | -20.6 | -42.7 | ||
| 2013-09-25T23:53 | 8178 | 371 | -20.9 | -39.6 | ||
| 2013-09-25T23:53 | 8196 | 370 | -21.1 | -44.8 | ||
| 2013-09-25T23:53 | 8238 | 368 | -21.4 | -48.2 | ||
| 2013-09-25T23:53 | 8267 | 367 | -21.6 | -34.9 | ||
| 2013-09-25T23:54 | 8297 | 365 | -21.8 | -40.9 | ||
| 2013-09-25T23:54 | 8314 | 364 | -22.0 | -36.4 | ||
| 2013-09-25T23:54 | 8332 | 363 | -22.1 | -45.5 | ||
| 2013-09-25T23:54 | 8404 | 360 | -22.4 | -49.0 | ||
| 2013-09-25T23:54 | 8445 | 358 | -22.5 | -43.5 | ||
| 2013-09-25T23:54 | 8457 | 357 | -22.6 | -35.5 | 350 | 17.0 |
| 2013-09-25T23:54 | 8487 | 356 | -22.7 | -37.8 | ||
| 2013-09-25T23:54 | 8493 | 355 | -22.8 | -41.8 | ||
| 2013-09-25T23:54 | 8517 | 354 | -22.9 | -44.5 | ||
| 2013-09-25T23:54 | 8541 | 353 | -23.0 | -45.4 | ||
| 2013-09-25T23:54 | 8565 | 352 | -23.1 | -45.5 | ||
| 2013-09-25T23:54 | 8583 | 351 | -23.2 | -40.0 | ||
| 2013-09-25T23:54 | 8626 | 349 | -23.4 | -49.8 | ||
| 2013-09-25T23:55 | 8638 | 348 | -23.4 | -49.8 | ||
| 2013-09-25T23:55 | 8662 | 347 | -23.5 | -43.0 | ||
| 2013-09-25T23:55 | 8686 | 346 | -23.6 | -45.9 | ||
| 2013-09-25T23:55 | 8727 | 344 | -23.8 | -46.9 | ||
| 2013-09-25T23:55 | 8768 | 342 | -23.9 | -42.1 | ||
| 2013-09-25T23:55 | 8797 | 341 | -24.0 | -42.8 | ||
| 2013-09-25T23:55 | 8815 | 340 | 344 | 18.0 | ||
| 2013-09-25T23:55 | 8861 | 338 | -24.3 | -42.4 | ||
| 2013-09-25T23:55 | 8912 | 336 | -24.5 | -38.9 | ||
| 2013-09-25T23:55 | 8946 | 334 | -24.6 | -49.5 | ||
| 2013-09-25T23:55 | 8980 | 332 | -24.6 | -45.9 | ||
| 2013-09-25T23:56 | 9026 | 330 | -24.6 | -38.3 | ||
| 2013-09-25T23:56 | 9049 | 329 | -24.6 | -37.6 | ||
| 2013-09-25T23:56 | 9095 | 327 | -24.8 | -38.8 | ||
| 2013-09-25T23:56 | 9137 | 325 | -25.1 | -39.1 | ||
| 2013-09-25T23:56 | 9161 | 324 | 350 | 17.0 | ||
| 2013-09-25T23:56 | 9210 | 322 | -25.7 | -38.9 | ||
| 2013-09-25T23:56 | 9248 | 320 | -26.0 | -40.6 | ||
| 2013-09-25T23:56 | 9305 | 318 | -26.3 | -45.9 | ||
| 2013-09-25T23:56 | 9338 | 316 | -26.5 | -41.1 | ||
| 2013-09-25T23:57 | 9364 | 315 | -26.7 | -41.6 | ||
| 2013-09-25T23:57 | 9383 | 314 | -26.9 | -39.0 | ||
| 2013-09-25T23:57 | 9416 | 313 | -27.2 | -43.4 | ||
| 2013-09-25T23:57 | 9436 | 312 | -27.4 | -46.8 | ||
| 2013-09-25T23:57 | 9463 | 311 | -27.6 | -44.7 | ||
| 2013-09-25T23:57 | 9490 | 310 | -27.7 | -46.4 | ||
| 2013-09-25T23:57 | 9510 | 309 | -27.9 | -43.5 | ||
| 2013-09-25T23:57 | 9543 | 308 | -28.1 | -49.5 | ||
| 2013-09-25T23:57 | 9550 | 307 | 358 | 18.0 | ||
| 2013-09-25T23:57 | 9590 | 306 | -28.3 | -46.4 | ||
| 2013-09-25T23:57 | 9610 | 305 | -28.5 | -45.0 | ||
| 2013-09-25T23:57 | 9623 | 304 | -28.5 | -41.0 | ||
| 2013-09-25T23:57 | 9676 | 302 | -29.0 | -45.9 | ||
| 2013-09-25T23:57 | 9702 | 301 | -29.2 | -41.6 | ||
| 2013-09-25T23:58 | 9754 | 299 | -29.4 | -45.3 | ||
| 2013-09-25T23:58 | 9780 | 298 | -29.5 | -43.7 | ||
| 2013-09-25T23:58 | 9832 | 295 | -29.6 | -43.8 | ||
| 2013-09-25T23:58 | 9857 | 294 | -29.7 | -41.8 | ||
| 2013-09-25T23:58 | 9882 | 293 | -29.9 | -39.7 | ||
| 2013-09-25T23:58 | 9907 | 292 | -30.1 | -38.9 | ||
| 2013-09-25T23:58 | 9932 | 291 | -30.3 | -39.3 | ||
| 2013-09-25T23:58 | 9988 | 289 | -30.8 | -38.9 | ||
| 2013-09-25T23:58 | 10019 | 288 | -31.1 | -39.8 | ||
| 2013-09-25T23:58 | 10100 | 284 | -31.8 | -39.6 | ||
| 2013-09-25T23:59 | 10185 | 281 | -32.5 | -39.4 | ||
| 2013-09-25T23:59 | 10308 | 276 | 360 | 23.0 | ||
| 2013-09-25T23:59 | 10382 | 273 | -34.2 | -40.3 | ||
| 2013-09-26T00:00 | 10592 | 265 | -36.1 | -42.3 | ||
| 2013-09-26T00:00 | 10638 | 263 | -36.5 | -43.6 | ||
| 2013-09-26T00:00 | 10685 | 262 | -36.9 | -42.3 | ||
| 2013-09-26T00:00 | 10692 | 261 | 2 | 24.0 | ||
| 2013-09-26T00:00 | 10765 | 259 | -37.6 | -45.4 | ||
| 2013-09-26T00:00 | 10799 | 257 | -37.9 | -45.9 | ||
| 2013-09-26T00:00 | 10877 | 254 | -38.5 | -46.6 | ||
| 2013-09-26T00:01 | 10955 | 252 | -39.1 | -46.2 | ||
| 2013-09-26T00:01 | 11064 | 248 | -40.0 | -46.6 | ||
| 2013-09-26T00:01 | 11083 | 247 | 2 | 24.0 | ||
| 2013-09-26T00:02 | 11455 | 234 | 1 | 22.0 | ||
| 2013-09-26T00:03 | 11828 | 221 | 4 | 24.0 | ||
| 2013-09-26T00:04 | 12220 | 208 | 8 | 24.0 | ||
| 2013-09-26T00:05 | 12600 | 196 | 14 | 26.0 | ||
| 2013-09-26T00:06 | 12959 | 186 | -55.5 | |||
| 2013-09-26T00:06 | 12985 | 185 | 19 | 26.0 | ||
| 2013-09-26T00:07 | 13353 | 175 | 24 | 26.0 | ||
| 2013-09-26T00:08 | 13726 | 164 | 36 | 27.0 | ||
| 2013-09-26T00:08 | 13861 | 161 | 40 | 27.0 | ||
| 2013-09-26T00:09 | 14106 | 155 | 47 | 26.0 | ||
| 2013-09-26T00:10 | 14467 | 146 | 53 | 24.0 | ||
| 2013-09-26T00:10 | 14513 | 145 | -67.2 | |||
| 2013-09-26T00:11 | 14866 | 136 | 51 | 22.0 | ||
| 2013-09-26T00:12 | 15164 | 130 | -71.9 | |||
| 2013-09-26T00:12 | 15253 | 128 | 50 | 22.0 | ||
| 2013-09-26T00:12 | 15433 | 124 | -73.1 | |||
| 2013-09-26T00:13 | 15662 | 119 | 39 | 18.0 | ||
| 2013-09-26T00:14 | 16063 | 111 | 56 | 17.0 | ||
| 2013-09-26T00:14 | 16120 | 110 | -74.7 | |||
| 2013-09-26T00:15 | 16507 | 103 | 79 | 14.0 | ||
| 2013-09-26T00:15 | 16672 | 100 | -78.2 | 78 | 13.0 | |
| 2013-09-26T00:16 | 16934 | 96 | 55 | 14.0 | ||
| 2013-09-26T00:17 | 17244 | 90 | -80.6 | |||
| 2013-09-26T00:17 | 17282 | 90 | 45 | 20.0 | ||
| 2013-09-26T00:17 | 17439 | 87 | -79.3 | |||
| 2013-09-26T00:18 | 17632 | 84 | 46 | 21.0 | ||
| 2013-09-26T00:18 | 17762 | 83 | -76.3 | |||
| 2013-09-26T00:19 | 17861 | 81 | -73.0 | 68 | 20.0 | |
| 2013-09-26T11:30 | 9 | 1010 | 28.1 | 23.7 | 40 | 3.0 |
| 2013-09-26T11:30 | 17 | 1009 | 28.1 | 22.4 | ||
| 2013-09-26T11:31 | 317 | 976 | 25.7 | 20.3 | ||
| 2013-09-26T11:31 | 329 | 974 | 25.7 | 20.5 | ||
| 2013-09-26T11:31 | 341 | 973 | 25.7 | 18.6 | ||
| 2013-09-26T11:31 | 354 | 971 | 60 | 4.0 | ||
| 2013-09-26T11:31 | 458 | 960 | 24.9 | 18.4 | ||
| 2013-09-26T11:32 | 556 | 949 | 24.0 | 18.6 | ||
| 2013-09-26T11:32 | 598 | 945 | 23.7 | 19.2 | ||
| 2013-09-26T11:32 | 604 | 944 | 23.6 | 18.7 | ||
| 2013-09-26T11:32 | 715 | 932 | 49 | 4.0 | ||
| 2013-09-26T11:32 | 733 | 930 | 22.6 | 18.8 | ||
| 2013-09-26T11:33 | 1054 | 896 | 20.7 | 15.7 | ||
| 2013-09-26T11:34 | 1272 | 874 | 19.7 | 14.5 | ||
| 2013-09-26T11:34 | 1366 | 865 | 19.4 | 11.9 | ||
| 2013-09-26T11:34 | 1407 | 861 | 28 | 5.0 | ||
| 2013-09-26T11:34 | 1507 | 851 | 18.7 | 13.8 | ||
| 2013-09-26T11:35 | 1609 | 841 | 18.6 | 10.4 | ||
| 2013-09-26T11:35 | 1766 | 825 | 10 | 9.0 | ||
| 2013-09-26T11:35 | 1808 | 821 | 17.3 | 13.4 | ||
| 2013-09-26T11:35 | 1908 | 812 | 7 | 10.0 | ||
| 2013-09-26T11:35 | 1913 | 811 | 7 | 10.0 | ||
| 2013-09-26T11:36 | 2115 | 792 | 5 | 9.0 | ||
| 2013-09-26T11:36 | 2261 | 779 | 13.6 | 11.8 | ||
| 2013-09-26T11:37 | 2480 | 759 | 356 | 8.0 | ||
| 2013-09-26T11:37 | 2523 | 755 | 11.6 | 10.7 | ||
| 2013-09-26T11:37 | 2658 | 743 | 12.1 | 10.8 | ||
| 2013-09-26T11:38 | 2768 | 733 | 348 | 10.0 | ||
| 2013-09-26T11:38 | 2827 | 728 | 11.0 | 9.4 | ||
| 2013-09-26T11:38 | 2845 | 726 | 352 | 9.0 | ||
| 2013-09-26T11:38 | 3017 | 712 | 10.1 | 7.7 | ||
| 2013-09-26T11:39 | 3201 | 696 | 11 | 9.0 | ||
| 2013-09-26T11:39 | 3230 | 694 | 8.9 | 6.2 | ||
| 2013-09-26T11:40 | 3429 | 677 | 8.1 | 3.6 | ||
| 2013-09-26T11:40 | 3556 | 667 | 22 | 10.0 | ||
| 2013-09-26T11:40 | 3739 | 652 | 6.7 | 0.2 | ||
| 2013-09-26T11:41 | 3935 | 637 | 18 | 11.0 | ||
| 2013-09-26T11:41 | 4009 | 631 | 5.3 | -1.0 | ||
| 2013-09-26T11:42 | 4152 | 620 | 4.9 | -2.9 | ||
| 2013-09-26T11:42 | 4188 | 618 | 4.6 | -0.8 | ||
| 2013-09-26T11:42 | 4205 | 616 | 4.4 | 0.2 | ||
| 2013-09-26T11:42 | 4229 | 614 | 4.3 | -0.5 | ||
| 2013-09-26T11:42 | 4259 | 612 | 4.2 | -3.3 | ||
| 2013-09-26T11:42 | 4294 | 609 | 11 | 15.0 | ||
| 2013-09-26T11:42 | 4312 | 608 | 4.0 | -3.8 | ||
| 2013-09-26T11:42 | 4336 | 606 | 11 | 15.0 | ||
| 2013-09-26T11:42 | 4361 | 605 | 4.1 | -7.1 | 10 | 15.0 |
| 2013-09-26T11:43 | 4623 | 585 | 2.1 | -4.4 | ||
| 2013-09-26T11:43 | 4651 | 583 | 2.1 | -5.1 | 13 | 13.0 |
| 2013-09-26T11:44 | 4878 | 567 | 1.1 | -8.4 | ||
| 2013-09-26T11:44 | 4999 | 559 | 9 | 12.0 | ||
| 2013-09-26T11:44 | 5114 | 551 | -1.1 | -9.5 | ||
| 2013-09-26T11:44 | 5126 | 550 | -1.2 | -7.8 | ||
| 2013-09-26T11:45 | 5179 | 546 | -1.7 | -8.4 | ||
| 2013-09-26T11:45 | 5352 | 535 | 16 | 12.0 | ||
| 2013-09-26T11:45 | 5374 | 533 | -3.0 | -10.3 | ||
| 2013-09-26T11:45 | 5494 | 525 | -3.5 | -14.0 | ||
| 2013-09-26T11:46 | 5665 | 514 | -4.8 | -15.2 | ||
| 2013-09-26T11:46 | 5695 | 512 | 26 | 12.0 | ||
| 2013-09-26T11:46 | 5754 | 508 | -4.7 | -21.3 | ||
| 2013-09-26T11:46 | 5803 | 505 | -4.9 | -20.2 | ||
| 2013-09-26T11:47 | 5886 | 499 | -5.5 | -19.2 | ||
| 2013-09-26T11:47 | 5940 | 496 | -5.6 | -25.0 | ||
| 2013-09-26T11:47 | 6056 | 489 | -6.1 | -20.9 | 29 | 11.0 |
| 2013-09-26T11:47 | 6131 | 484 | -6.4 | -23.2 | ||
| 2013-09-26T11:48 | 6376 | 469 | -8.6 | -24.7 | ||
| 2013-09-26T11:48 | 6401 | 468 | -8.8 | -26.2 | ||
| 2013-09-26T11:48 | 6431 | 466 | 39 | 11.0 | ||
| 2013-09-26T11:48 | 6480 | 463 | -9.3 | -31.9 | ||
| 2013-09-26T11:48 | 6594 | 456 | -9.4 | -50.5 | ||
| 2013-09-26T11:49 | 6792 | 445 | 49 | 14.0 | ||
| 2013-09-26T11:50 | 7150 | 424 | 41 | 13.0 | ||
| 2013-09-26T11:50 | 7163 | 423 | -13.3 | -58.8 | ||
| 2013-09-26T11:51 | 7372 | 412 | -14.2 | -59.4 | ||
| 2013-09-26T11:51 | 7520 | 404 | 47 | 20.0 | ||
| 2013-09-26T11:52 | 7791 | 390 | 55 | 25.0 | ||
| 2013-09-26T11:52 | 7849 | 387 | -17.1 | -61.3 | ||
| 2013-09-26T11:52 | 7867 | 386 | 57 | 24.0 | ||
| 2013-09-26T11:53 | 8227 | 368 | 44 | 20.0 | ||
| 2013-09-26T11:53 | 8384 | 360 | -20.6 | -63.5 | ||
| 2013-09-26T11:54 | 8575 | 351 | 32 | 20.0 | ||
| 2013-09-26T11:55 | 8933 | 334 | -24.7 | -66.2 | ||
| 2013-09-26T11:55 | 8945 | 333 | 8 | 21.0 | ||
| 2013-09-26T11:56 | 9212 | 321 | -25.0 | -66.4 | ||
| 2013-09-26T11:56 | 9329 | 316 | 359 | 26.0 | ||
| 2013-09-26T11:56 | 9384 | 314 | -24.7 | -66.2 | ||
| 2013-09-26T11:57 | 9744 | 299 | 6 | 26.0 | ||
| 2013-09-26T11:57 | 9836 | 295 | -28.2 | -68.5 | ||
| 2013-09-26T11:58 | 10140 | 282 | 15 | 26.0 | ||
| 2013-09-26T11:58 | 10203 | 280 | -30.5 | -58.0 | ||
| 2013-09-26T11:59 | 10383 | 273 | 11 | 27.0 | ||
| 2013-09-26T11:59 | 10418 | 272 | -31.9 | -53.4 | 10 | 27.0 |
| 2013-09-26T11:59 | 10565 | 266 | 8 | 27.0 | ||
| 2013-09-26T12:00 | 10982 | 251 | 7 | 25.0 | ||
| 2013-09-26T12:01 | 11199 | 243 | -39.2 | -58.6 | ||
| 2013-09-26T12:01 | 11316 | 239 | -40.0 | -65.3 | ||
| 2013-09-26T12:01 | 11380 | 236 | 12 | 24.0 | ||
| 2013-09-26T12:02 | 11757 | 224 | 18 | 21.0 | ||
| 2013-09-26T12:03 | 12135 | 211 | 21 | 19.0 | ||
| 2013-09-26T12:05 | 12845 | 190 | 13 | 15.0 | ||
| 2013-09-26T12:06 | 13137 | 181 | -54.9 | |||
| 2013-09-26T12:06 | 13205 | 179 | 6 | 14.0 | ||
| 2013-09-26T12:07 | 13568 | 169 | 7 | 14.0 | ||
| 2013-09-26T12:08 | 13932 | 160 | 1 | 14.0 | ||
| 2013-09-26T12:09 | 14293 | 150 | 359 | 14.0 | ||
| 2013-09-26T12:09 | 14353 | 149 | -65.9 | |||
| 2013-09-26T12:10 | 14722 | 140 | 3 | 17.0 | ||
| 2013-09-26T12:11 | 15125 | 131 | 9 | 21.0 | ||
| 2013-09-26T12:11 | 15236 | 129 | -71.6 | |||
| 2013-09-26T12:12 | 15520 | 123 | 35 | 24.0 | ||
| 2013-09-26T12:12 | 15609 | 121 | -72.4 | |||
| 2013-09-26T12:13 | 15878 | 115 | 45 | 23.0 | ||
| 2013-09-26T12:14 | 16198 | 109 | -75.7 | |||
| 2013-09-26T12:14 | 16279 | 108 | 55 | 18.0 | ||
| 2013-09-26T12:14 | 16495 | 104 | -77.6 | |||
| 2013-09-26T12:15 | 16693 | 100 | -78.4 | 41 | 19.0 | |
| 2013-09-26T12:15 | 16763 | 99 | 39 | 19.0 | ||
| 2013-09-26T12:15 | 16878 | 97 | -79.1 | |||
| 2013-09-26T12:16 | 17151 | 92 | 49 | 19.0 | ||
| 2013-09-26T12:16 | 17248 | 91 | -78.8 | |||
| 2013-09-26T12:17 | 17518 | 87 | -78.6 | |||
| 2013-09-26T12:17 | 17560 | 86 | 57 | 23.0 | ||
| 2013-09-26T12:17 | 17669 | 84 | -76.2 | |||
| 2013-09-26T12:18 | 17791 | 83 | -74.1 | |||
| 2013-09-26T12:18 | 18028 | 79 | 82 | 21.0 | ||
| 2013-09-26T12:18 | 18198 | 77 | -74.6 | |||
| 2013-09-26T12:19 | 18390 | 74 | -72.4 | |||
| 2013-09-26T12:19 | 18519 | 73 | 88 | 18.0 | ||
| 2013-09-26T12:19 | 18563 | 72 | -70.6 | |||
| 2013-09-26T12:20 | 18907 | 68 | 102 | 21.0 | ||
| 2013-09-26T12:20 | 19073 | 66 | -68.8 | |||
| 2013-09-26T12:21 | 19282 | 64 | 110 | 18.0 | ||
| 2013-09-26T12:21 | 19422 | 63 | -68.5 | |||
| 2013-09-26T12:22 | 19668 | 60 | 93 | 12.0 | ||
| 2013-09-26T12:23 | 20052 | 56 | 86 | 10.0 | ||
| 2013-09-26T12:23 | 20091 | 56 | -65.5 | |||
| 2013-09-26T12:24 | 20427 | 53 | 69 | 9.0 | ||
| 2013-09-26T12:25 | 20807 | 50 | 73 | 9.0 | ||
| 2013-09-26T12:26 | 21161 | 47 | -64.4 | |||
| 2013-09-26T12:26 | 21200 | 47 | 58 | 13.0 | ||
| 2013-09-26T12:27 | 21583 | 44 | 75 | 15.0 | ||
| 2013-09-26T12:28 | 21962 | 41 | 87 | 15.0 | ||
| 2013-09-26T12:29 | 22236 | 40 | -61.3 | |||
| 2013-09-26T12:29 | 22347 | 39 | 90 | 21.0 | ||
| 2013-09-26T12:30 | 22752 | 36 | 91 | 18.0 | ||
| 2013-09-26T12:31 | 23164 | 34 | 63 | 12.0 | ||
| 2013-09-26T12:31 | 23225 | 34 | -59.4 | |||
| 2013-09-26T12:32 | 23571 | 32 | 57 | 16.0 | ||
| 2013-09-26T12:32 | 23770 | 31 | -58.2 | |||
| 2013-09-26T12:33 | 24007 | 30 | 86 | 22.0 | ||
| 2013-09-26T12:34 | 24406 | 28 | -57.2 | |||
| 2013-09-26T12:34 | 24442 | 28 | 82 | 22.0 | ||
| 2013-09-26T12:35 | 24864 | 26 | 82 | 25.0 | ||
| 2013-09-26T12:36 | 25287 | 24 | 91 | 24.0 | ||
| 2013-09-26T12:36 | 25348 | 24 | -50.9 | |||
| 2013-09-26T12:37 | 25767 | 23 | 102 | 23.0 | ||
| 2013-09-26T12:37 | 25856 | 22 | -48.6 | |||
| 2013-09-26T12:38 | 26235 | 21 | 103 | 24.0 | ||
| 2013-09-26T12:39 | 26673 | 20 | 112 | 21.0 | ||
| 2013-09-26T12:40 | 26899 | 19 | -47.4 | 118 | 17.0 | |
| 2013-09-26T23:30 | 9 | 1008 | 30.1 | 24.3 | 40 | 3.0 |
| 2013-09-26T23:30 | 22 | 1007 | 27.7 | 20.8 | ||
| 2013-09-26T23:31 | 314 | 974 | 42 | 4.0 | ||
| 2013-09-26T23:32 | 545 | 949 | 23.3 | 21.2 | ||
| 2013-09-26T23:32 | 556 | 948 | 23.4 | 19.6 | ||
| 2013-09-26T23:32 | 635 | 939 | 57 | 3.0 | ||
| 2013-09-26T23:32 | 678 | 934 | 22.9 | 18.0 | ||
| 2013-09-26T23:33 | 892 | 912 | 21.7 | 16.2 | ||
| 2013-09-26T23:33 | 941 | 906 | 37 | 4.0 | ||
| 2013-09-26T23:33 | 971 | 903 | 21.4 | 15.9 | ||
| 2013-09-26T23:33 | 1074 | 893 | 21.0 | 16.0 | ||
| 2013-09-26T23:34 | 1257 | 874 | 33 | 4.0 | ||
| 2013-09-26T23:35 | 1580 | 842 | 10 | 6.0 | ||
| 2013-09-26T23:35 | 1668 | 833 | 18.2 | 12.2 | ||
| 2013-09-26T23:36 | 1779 | 822 | 9 | 6.0 | ||
| 2013-09-26T23:36 | 1789 | 821 | 8 | 6.0 | ||
| 2013-09-26T23:36 | 1875 | 813 | 7 | 6.0 | ||
| 2013-09-26T23:37 | 2081 | 794 | 14.9 | 10.3 | ||
| 2013-09-26T23:37 | 2192 | 783 | 18 | 5.0 | ||
| 2013-09-26T23:37 | 2240 | 779 | 14.3 | 9.3 | ||
| 2013-09-26T23:37 | 2313 | 773 | 14.0 | 7.3 | ||
| 2013-09-26T23:38 | 2363 | 768 | 13.9 | 6.3 | ||
| 2013-09-26T23:38 | 2418 | 763 | 13.9 | 3.1 | ||
| 2013-09-26T23:38 | 2443 | 761 | 13.9 | 6.5 | ||
| 2013-09-26T23:38 | 2498 | 756 | 13.8 | 2.1 | 35 | 5.0 |
| 2013-09-26T23:38 | 2519 | 754 | 13.6 | 2.2 | ||
| 2013-09-26T23:38 | 2545 | 752 | 13.4 | 4.8 | ||
| 2013-09-26T23:38 | 2561 | 750 | 13.3 | 4.7 | ||
| 2013-09-26T23:38 | 2631 | 744 | 13.4 | 1.4 | ||
| 2013-09-26T23:39 | 2748 | 734 | 12.6 | 1.9 | ||
| 2013-09-26T23:39 | 2798 | 729 | 12.5 | -0.7 | ||
| 2013-09-26T23:39 | 2825 | 727 | 31 | 6.0 | ||
| 2013-09-26T23:39 | 2899 | 721 | 11.7 | 4.0 | ||
| 2013-09-26T23:40 | 3134 | 701 | 14 | 7.0 | ||
| 2013-09-26T23:40 | 3194 | 696 | 9.9 | 3.6 | ||
| 2013-09-26T23:41 | 3391 | 679 | 9.0 | 3.2 | ||
| 2013-09-26T23:41 | 3430 | 676 | 12 | 8.0 | ||
| 2013-09-26T23:42 | 3744 | 651 | 15 | 10.0 | ||
| 2013-09-26T23:42 | 3787 | 648 | 14 | 11.0 | ||
| 2013-09-26T23:42 | 3792 | 647 | 15 | 11.0 | ||
| 2013-09-26T23:42 | 3803 | 646 | 14 | 11.0 | ||
| 2013-09-26T23:42 | 3857 | 642 | 16 | 11.0 | ||
| 2013-09-26T23:43 | 4068 | 626 | 19 | 11.0 | ||
| 2013-09-26T23:43 | 4090 | 624 | 3.5 | -2.5 | ||
| 2013-09-26T23:43 | 4177 | 617 | 3.2 | -5.5 | ||
| 2013-09-26T23:43 | 4214 | 614 | 3.2 | -9.1 | ||
| 2013-09-26T23:44 | 4251 | 612 | 3.4 | -11.4 | ||
| 2013-09-26T23:44 | 4272 | 610 | 3.7 | -14.1 | ||
| 2013-09-26T23:44 | 4307 | 607 | 4.0 | -13.3 | ||
| 2013-09-26T23:44 | 4357 | 604 | 3.9 | -13.9 | ||
| 2013-09-26T23:44 | 4382 | 602 | 28 | 9.0 | ||
| 2013-09-26T23:44 | 4508 | 593 | 2.8 | -13.1 | ||
| 2013-09-26T23:45 | 4540 | 590 | 2.6 | -11.0 | ||
| 2013-09-26T23:45 | 4684 | 580 | 1.9 | -14.7 | ||
| 2013-09-26T23:45 | 4695 | 579 | 32 | 8.0 | ||
| 2013-09-26T23:45 | 4789 | 572 | 1.2 | -12.2 | ||
| 2013-09-26T23:46 | 4902 | 564 | 0.7 | -11.7 | ||
| 2013-09-26T23:46 | 5028 | 555 | 33 | 9.0 | ||
| 2013-09-26T23:46 | 5065 | 553 | -0.4 | -14.7 | ||
| 2013-09-26T23:46 | 5107 | 550 | -0.7 | -11.4 | ||
| 2013-09-26T23:46 | 5176 | 545 | -1.0 | -14.2 | ||
| 2013-09-26T23:47 | 5347 | 534 | 34 | 8.0 | ||
| 2013-09-26T23:47 | 5378 | 532 | -2.1 | -27.8 | ||
| 2013-09-26T23:47 | 5456 | 526 | -2.7 | -25.8 | ||
| 2013-09-26T23:47 | 5476 | 525 | -2.8 | -26.6 | ||
| 2013-09-26T23:47 | 5486 | 524 | -2.9 | -18.9 | ||
| 2013-09-26T23:48 | 5542 | 521 | -3.2 | -15.5 | ||
| 2013-09-26T23:48 | 5552 | 520 | -3.1 | -17.9 | ||
| 2013-09-26T23:48 | 5640 | 514 | -3.5 | -19.4 | ||
| 2013-09-26T23:48 | 5656 | 513 | 59 | 7.0 | ||
| 2013-09-26T23:48 | 5712 | 510 | -4.0 | -20.7 | ||
| 2013-09-26T23:49 | 5877 | 499 | -4.8 | -30.8 | ||
| 2013-09-26T23:49 | 5998 | 491 | 80 | 13.0 | ||
| 2013-09-26T23:49 | 6122 | 484 | -6.2 | -30.2 | ||
| 2013-09-26T23:50 | 6308 | 472 | 60 | 14.0 | ||
| 2013-09-26T23:50 | 6438 | 464 | -8.1 | -32.6 | ||
| 2013-09-26T23:51 | 6620 | 454 | 59 | 14.0 | ||
| 2013-09-26T23:51 | 6766 | 445 | -10.7 | -30.5 | ||
| 2013-09-26T23:52 | 6951 | 434 | 44 | 14.0 | ||
| 2013-09-26T23:53 | 7174 | 422 | -13.4 | -35.3 | ||
| 2013-09-26T23:53 | 7276 | 416 | 29 | 16.0 | ||
| 2013-09-26T23:54 | 7634 | 397 | 13 | 19.0 | ||
| 2013-09-26T23:54 | 7664 | 395 | -17.2 | -41.6 | ||
| 2013-09-26T23:55 | 7936 | 381 | -18.9 | -46.3 | ||
| 2013-09-26T23:55 | 7982 | 379 | 10 | 21.0 | ||
| 2013-09-26T23:56 | 8322 | 362 | -22.1 | -50.1 | ||
| 2013-09-26T23:56 | 8340 | 361 | 4 | 21.0 | ||
| 2013-09-26T23:57 | 8566 | 350 | -23.3 | -54.4 | ||
| 2013-09-26T23:57 | 8679 | 345 | 4 | 22.0 | ||
| 2013-09-26T23:57 | 8691 | 344 | 4 | 22.0 | ||
| 2013-09-26T23:58 | 8961 | 332 | -26.3 | -67.3 | ||
| 2013-09-26T23:58 | 9039 | 328 | 4 | 15.0 | ||
| 2013-09-26T23:58 | 9209 | 320 | -27.7 | -68.2 | ||
| 2013-09-26T23:59 | 9395 | 312 | 6 | 16.0 | ||
| 2013-09-27T00:00 | 9576 | 304 | -30.2 | -69.8 | ||
| 2013-09-27T00:00 | 9739 | 297 | 10 | 18.0 | ||
| 2013-09-27T00:00 | 9784 | 296 | -31.0 | -70.4 | ||
| 2013-09-27T00:01 | 10067 | 284 | 10 | 20.0 | ||
| 2013-09-27T00:02 | 10454 | 269 | 4 | 23.0 | ||
| 2013-09-27T00:02 | 10505 | 267 | -36.6 | -74.1 | ||
| 2013-09-27T00:03 | 10650 | 261 | 5 | 24.0 | ||
| 2013-09-27T00:03 | 10825 | 254 | 5 | 23.0 | ||
| 2013-09-27T00:03 | 10916 | 251 | -40.0 | -66.9 | ||
| 2013-09-27T00:04 | 11156 | 242 | 10 | 22.0 | ||
| 2013-09-27T00:05 | 11482 | 231 | 21 | 21.0 | ||
| 2013-09-27T00:06 | 11669 | 225 | -45.5 | |||
| 2013-09-27T00:06 | 11826 | 219 | 31 | 18.0 | ||
| 2013-09-27T00:07 | 12158 | 208 | 32 | 18.0 | ||
| 2013-09-27T00:08 | 12503 | 198 | 19 | 18.0 | ||
| 2013-09-27T00:09 | 12848 | 188 | 6 | 18.0 | ||
| 2013-09-27T00:09 | 12947 | 185 | -53.7 | |||
| 2013-09-27T00:10 | 13212 | 177 | 10 | 17.0 | ||
| 2013-09-27T00:11 | 13604 | 167 | 7 | 14.0 | ||
| 2013-09-27T00:11 | 13696 | 164 | -59.6 | |||
| 2013-09-27T00:12 | 13968 | 157 | 360 | 15.0 | ||
| 2013-09-27T00:13 | 14313 | 148 | 6 | 17.0 | ||
| 2013-09-27T00:14 | 14679 | 140 | 21 | 20.0 | ||
| 2013-09-27T00:15 | 15031 | 132 | 26 | 20.0 | ||
| 2013-09-27T00:16 | 15384 | 124 | 28 | 19.0 | ||
| 2013-09-27T00:16 | 15463 | 122 | -74.0 | |||
| 2013-09-27T00:17 | 15731 | 117 | 31 | 19.0 | ||
| 2013-09-27T00:17 | 15817 | 115 | -75.9 | |||
| 2013-09-27T00:18 | 16100 | 110 | 45 | 18.0 | ||
| 2013-09-27T00:18 | 16149 | 109 | -76.4 | |||
| 2013-09-27T00:19 | 16461 | 103 | -76.8 | |||
| 2013-09-27T00:19 | 16628 | 100 | -77.1 | 76 | 17.0 | |
| 2013-09-27T00:20 | 16824 | 97 | -76.0 | |||
| 2013-09-27T00:20 | 16835 | 97 | 87 | 13.0 | ||
| 2013-09-27T00:21 | 17052 | 93 | -75.3 | |||
| 2013-09-27T00:21 | 17166 | 91 | 52 | 13.0 | ||
| 2013-09-27T00:21 | 17251 | 90 | -73.4 | |||
| 2013-09-27T00:22 | 17538 | 86 | 65 | 8.0 | ||
| 2013-09-27T00:22 | 17556 | 85 | -74.0 | |||
| 2013-09-27T00:23 | 17796 | 82 | -74.6 | |||
| 2013-09-27T00:23 | 17907 | 80 | 61 | 12.0 | ||
| 2013-09-27T00:23 | 18011 | 79 | -72.9 | |||
| 2013-09-27T00:24 | 18277 | 75 | 74 | 16.0 | ||
| 2013-09-27T00:24 | 18404 | 74 | -72.4 | |||
| 2013-09-27T00:25 | 18648 | 71 | 86 | 13.0 | ||
| 2013-09-27T00:25 | 18671 | 71 | -71.2 | |||
| 2013-09-27T00:26 | 18992 | 67 | 71 | 10.0 | ||
| 2013-09-27T00:27 | 19244 | 64 | -70.1 | |||
| 2013-09-27T00:27 | 19351 | 63 | 68 | 13.0 | ||
| 2013-09-27T00:28 | 19574 | 61 | -68.6 | |||
| 2013-09-27T00:28 | 19729 | 59 | 89 | 15.0 | ||
| 2013-09-27T00:29 | 20108 | 55 | 92 | 15.0 | ||
| 2013-09-27T00:29 | 20277 | 54 | -68.0 | |||
| 2013-09-27T00:30 | 20467 | 52 | 96 | 14.0 | ||
| 2013-09-27T00:30 | 20509 | 52 | -68.3 | |||
| 2013-09-27T00:31 | 20675 | 50 | -68.7 | |||
| 2013-09-27T00:31 | 20824 | 49 | 86 | 14.0 | ||
| 2013-09-27T00:32 | 21207 | 46 | 84 | 15.0 | ||
| 2013-09-27T00:33 | 21566 | 44 | -63.8 | |||
| 2013-09-27T00:33 | 21614 | 43 | 85 | 17.0 | ||
| 2013-09-27T00:34 | 22021 | 40 | 85 | 18.0 | ||
| 2013-09-27T00:35 | 22430 | 38 | 87 | 18.0 | ||
| 2013-09-27T00:35 | 22542 | 37 | -59.2 | |||
| 2013-09-27T00:36 | 22861 | 35 | 95 | 18.0 | ||
| 2013-09-27T00:37 | 23311 | 33 | 94 | 16.0 | ||
| 2013-09-27T00:37 | 23430 | 32 | -59.6 | |||
| 2013-09-27T00:38 | 23639 | 31 | -57.9 | 83 | 18.0 | |
| 2013-09-27T11:30 | 9 | 1009 | 28.2 | 24.2 | 40 | 3.0 |
| 2013-09-27T11:30 | 12 | 1008 | 28.0 | 22.5 | ||
| 2013-09-27T11:31 | 160 | 992 | 26.6 | 22.2 | ||
| 2013-09-27T11:31 | 227 | 984 | 26.1 | 20.9 | ||
| 2013-09-27T11:31 | 318 | 974 | 25.3 | 21.0 | ||
| 2013-09-27T11:31 | 394 | 966 | 49 | 5.0 | ||
| 2013-09-27T11:31 | 442 | 961 | 24.3 | 21.8 | ||
| 2013-09-27T11:31 | 464 | 958 | 24.3 | 18.5 | ||
| 2013-09-27T11:32 | 507 | 954 | 24.2 | 18.4 | ||
| 2013-09-27T11:32 | 652 | 938 | 47 | 4.0 | ||
| 2013-09-27T11:32 | 788 | 923 | 22.5 | 15.6 | ||
| 2013-09-27T11:33 | 986 | 903 | 53 | 3.0 | ||
| 2013-09-27T11:33 | 1030 | 898 | 20.6 | 15.2 | ||
| 2013-09-27T11:33 | 1113 | 889 | 19.9 | 16.4 | ||
| 2013-09-27T11:34 | 1162 | 884 | 19.7 | 14.9 | ||
| 2013-09-27T11:34 | 1319 | 868 | 52 | 3.0 | ||
| 2013-09-27T11:34 | 1369 | 863 | 18.0 | 16.0 | ||
| 2013-09-27T11:34 | 1442 | 856 | 17.7 | 15.3 | ||
| 2013-09-27T11:35 | 1551 | 845 | 17.0 | 15.7 | ||
| 2013-09-27T11:35 | 1650 | 836 | 46 | 3.0 | ||
| 2013-09-27T11:35 | 1760 | 825 | 17.0 | 10.8 | ||
| 2013-09-27T11:36 | 1831 | 818 | 16.6 | 10.2 | ||
| 2013-09-27T11:36 | 1922 | 809 | 16.4 | 8.9 | ||
| 2013-09-27T11:36 | 1975 | 804 | 61 | 4.0 | ||
| 2013-09-27T11:36 | 2060 | 796 | 15.5 | 9.6 | ||
| 2013-09-27T11:37 | 2307 | 773 | 45 | 4.0 | ||
| 2013-09-27T11:37 | 2341 | 770 | 13.7 | 9.4 | ||
| 2013-09-27T11:37 | 2435 | 762 | 13.4 | 9.1 | ||
| 2013-09-27T11:38 | 2513 | 755 | 13.1 | 6.4 | ||
| 2013-09-27T11:38 | 2665 | 741 | 29 | 5.0 | ||
| 2013-09-27T11:39 | 2891 | 722 | 10.8 | 4.9 | ||
| 2013-09-27T11:39 | 3028 | 710 | 10.3 | 3.8 | ||
| 2013-09-27T11:39 | 3034 | 709 | 25 | 6.0 | ||
| 2013-09-27T11:39 | 3059 | 707 | 10.3 | 2.9 | ||
| 2013-09-27T11:39 | 3096 | 704 | 10.2 | 3.5 | ||
| 2013-09-27T11:39 | 3133 | 701 | 10.1 | 3.8 | ||
| 2013-09-27T11:40 | 3259 | 690 | 9.7 | -0.8 | ||
| 2013-09-27T11:40 | 3392 | 679 | 8.5 | -0.8 | 23 | 7.0 |
| 2013-09-27T11:40 | 3507 | 670 | 7.5 | 0.0 | ||
| 2013-09-27T11:41 | 3667 | 657 | 6.5 | -2.1 | ||
| 2013-09-27T11:41 | 3708 | 654 | 6.4 | -4.7 | ||
| 2013-09-27T11:41 | 3743 | 651 | 6.4 | -3.3 | 19 | 8.0 |
| 2013-09-27T11:41 | 3761 | 650 | 6.4 | -5.6 | ||
| 2013-09-27T11:41 | 3808 | 646 | 6.5 | -10.3 | ||
| 2013-09-27T11:41 | 3896 | 639 | 6.0 | -8.7 | ||
| 2013-09-27T11:42 | 4000 | 631 | 19 | 9.0 | ||
| 2013-09-27T11:42 | 4077 | 625 | 5.0 | -12.9 | ||
| 2013-09-27T11:42 | 4095 | 624 | 16 | 8.0 | ||
| 2013-09-27T11:42 | 4185 | 617 | 5.0 | -11.2 | ||
| 2013-09-27T11:42 | 4258 | 611 | 4.4 | -11.7 | ||
| 2013-09-27T11:43 | 4462 | 596 | 346 | 6.0 | ||
| 2013-09-27T11:43 | 4504 | 593 | 2.5 | -11.4 | ||
| 2013-09-27T11:43 | 4523 | 592 | 2.7 | -12.8 | ||
| 2013-09-27T11:43 | 4535 | 591 | 2.8 | -21.3 | ||
| 2013-09-27T11:43 | 4638 | 583 | 3.4 | -48.2 | ||
| 2013-09-27T11:44 | 4817 | 571 | 9 | 4.0 | ||
| 2013-09-27T11:44 | 4877 | 566 | 1.7 | -32.2 | ||
| 2013-09-27T11:45 | 5136 | 548 | 14 | 4.0 | ||
| 2013-09-27T11:46 | 5463 | 526 | -1.4 | -41.3 | ||
| 2013-09-27T11:46 | 5499 | 524 | 55 | 6.0 | ||
| 2013-09-27T11:47 | 5772 | 506 | -2.8 | -35.5 | ||
| 2013-09-27T11:47 | 5846 | 502 | 33 | 9.0 | ||
| 2013-09-27T11:48 | 6124 | 484 | 25 | 11.0 | ||
| 2013-09-27T11:48 | 6137 | 483 | 25 | 11.0 | ||
| 2013-09-27T11:48 | 6207 | 479 | 22 | 10.0 | ||
| 2013-09-27T11:48 | 6284 | 474 | -7.2 | -33.7 | ||
| 2013-09-27T11:49 | 6575 | 457 | -9.6 | -36.7 | ||
| 2013-09-27T11:49 | 6581 | 456 | 21 | 10.0 | ||
| 2013-09-27T11:50 | 6932 | 436 | 12 | 9.0 | ||
| 2013-09-27T11:50 | 6999 | 432 | -13.3 | -38.5 | ||
| 2013-09-27T11:50 | 7078 | 428 | -13.4 | -29.7 | ||
| 2013-09-27T11:51 | 7295 | 416 | 21 | 10.0 | ||
| 2013-09-27T11:52 | 7600 | 399 | -17.6 | -36.3 | ||
| 2013-09-27T11:52 | 7645 | 397 | 27 | 11.0 | ||
| 2013-09-27T11:52 | 7809 | 388 | -18.1 | -44.4 | ||
| 2013-09-27T11:53 | 7990 | 379 | 39 | 11.0 | ||
| 2013-09-27T11:54 | 8341 | 361 | 41 | 13.0 | ||
| 2013-09-27T11:55 | 8621 | 348 | -23.9 | -60.4 | ||
| 2013-09-27T11:55 | 8707 | 344 | 29 | 17.0 | ||
| 2013-09-27T11:56 | 9084 | 326 | 15 | 21.0 | ||
| 2013-09-27T11:57 | 9350 | 314 | -27.6 | -68.1 | ||
| 2013-09-27T11:57 | 9450 | 310 | 11 | 22.0 | ||
| 2013-09-27T11:57 | 9501 | 308 | -28.9 | -60.8 | ||
| 2013-09-27T11:57 | 9546 | 306 | 10 | 23.0 | ||
| 2013-09-27T11:57 | 9578 | 305 | -29.6 | -53.5 | ||
| 2013-09-27T11:57 | 9617 | 303 | -30.0 | -44.9 | ||
| 2013-09-27T11:58 | 9834 | 294 | 4 | 21.0 | ||
| 2013-09-27T11:58 | 9859 | 293 | -32.2 | -46.0 | ||
| 2013-09-27T11:58 | 9877 | 292 | -32.4 | -45.8 | ||
| 2013-09-27T11:58 | 9936 | 290 | -32.9 | -43.5 | ||
| 2013-09-27T11:58 | 9960 | 289 | -33.1 | -40.6 | ||
| 2013-09-27T11:58 | 10002 | 287 | -33.3 | -38.3 | ||
| 2013-09-27T11:59 | 10190 | 279 | 349 | 19.0 | ||
| 2013-09-27T12:00 | 10498 | 267 | -36.8 | -42.2 | ||
| 2013-09-27T12:00 | 10559 | 265 | 341 | 20.0 | ||
| 2013-09-27T12:01 | 10890 | 252 | -40.0 | -45.4 | ||
| 2013-09-27T12:01 | 10935 | 251 | 341 | 21.0 | ||
| 2013-09-27T12:02 | 11314 | 237 | 343 | 20.0 | ||
| 2013-09-27T12:03 | 11670 | 225 | 344 | 18.0 | ||
| 2013-09-27T12:04 | 12050 | 212 | 356 | 23.0 | ||
| 2013-09-27T12:04 | 12158 | 208 | -50.9 | |||
| 2013-09-27T12:05 | 12436 | 200 | 355 | 25.0 | ||
| 2013-09-27T12:06 | 12667 | 193 | -52.4 | |||
| 2013-09-27T12:06 | 12841 | 188 | 1 | 28.0 | ||
| 2013-09-27T12:07 | 13083 | 181 | 2 | 29.0 | ||
| 2013-09-27T12:07 | 13119 | 180 | 2 | 29.0 | ||
| 2013-09-27T12:07 | 13210 | 177 | 3 | 28.0 | ||
| 2013-09-27T12:08 | 13497 | 169 | -59.2 | |||
| 2013-09-27T12:08 | 13567 | 167 | 10 | 26.0 | ||
| 2013-09-27T12:09 | 13930 | 158 | 19 | 24.0 | ||
| 2013-09-27T12:09 | 14042 | 155 | -61.7 | |||
| 2013-09-27T12:10 | 14305 | 148 | 19 | 15.0 | ||
| 2013-09-27T12:11 | 14718 | 139 | 360 | 9.0 | ||
| 2013-09-27T12:11 | 14863 | 135 | -66.4 | |||
| 2013-09-27T12:12 | 15148 | 129 | 354 | 9.0 | ||
| 2013-09-27T12:13 | 15426 | 123 | -69.6 | |||
| 2013-09-27T12:13 | 15561 | 121 | 344 | 12.0 | ||
| 2013-09-27T12:14 | 15841 | 115 | -71.5 | |||
| 2013-09-27T12:14 | 15973 | 113 | 359 | 12.0 | ||
| 2013-09-27T12:15 | 16459 | 104 | 15 | 13.0 | ||
| 2013-09-27T12:15 | 16552 | 102 | -76.7 | |||
| 2013-09-27T12:15 | 16655 | 100 | -76.6 | 20 | 12.0 | |
| 2013-09-27T12:16 | 16790 | 98 | -76.5 | |||
| 2013-09-27T12:16 | 16933 | 95 | 43 | 10.0 | ||
| 2013-09-27T12:16 | 16972 | 95 | -75.7 | |||
| 2013-09-27T12:17 | 17223 | 91 | -75.8 | |||
| 2013-09-27T12:17 | 17358 | 89 | -74.2 | |||
| 2013-09-27T12:17 | 17406 | 88 | 79 | 10.0 | ||
| 2013-09-27T12:18 | 17867 | 81 | 71 | 9.0 | ||
| 2013-09-27T12:18 | 17901 | 81 | -73.9 | |||
| 2013-09-27T12:19 | 18252 | 76 | 69 | 14.0 | ||
| 2013-09-27T12:19 | 18324 | 75 | -71.9 | |||
| 2013-09-27T12:20 | 18527 | 73 | -70.9 | |||
| 2013-09-27T12:20 | 18670 | 71 | 85 | 14.0 | ||
| 2013-09-27T12:20 | 18836 | 69 | -71.3 | |||
| 2013-09-27T12:21 | 19102 | 66 | 96 | 13.0 | ||
| 2013-09-27T12:21 | 19286 | 64 | -69.5 | |||
| 2013-09-27T12:22 | 19514 | 61 | 82 | 8.0 | ||
| 2013-09-27T12:23 | 19885 | 58 | 54 | 10.0 | ||
| 2013-09-27T12:24 | 20182 | 55 | -67.0 | |||
| 2013-09-27T12:24 | 20256 | 54 | 70 | 17.0 | ||
| 2013-09-27T12:25 | 20670 | 51 | 86 | 20.0 | ||
| 2013-09-27T12:26 | 21077 | 47 | -63.3 | 104 | 20.0 | |
| 2013-09-27T12:27 | 21449 | 45 | 103 | 17.0 | ||
| 2013-09-27T12:28 | 21821 | 42 | 107 | 14.0 | ||
| 2013-09-27T12:29 | 22183 | 40 | -59.1 | |||
| 2013-09-27T12:29 | 22227 | 39 | 84 | 14.0 | ||
| 2013-09-27T12:30 | 22666 | 37 | 79 | 14.0 | ||
| 2013-09-27T12:31 | 23104 | 34 | 82 | 15.0 | ||
| 2013-09-27T12:31 | 23213 | 34 | -58.5 | |||
| 2013-09-27T12:32 | 23535 | 32 | 90 | 23.0 | ||
| 2013-09-27T12:33 | 23955 | 30 | -57.7 | |||
| 2013-09-27T12:34 | 24401 | 28 | 81 | 18.0 | ||
| 2013-09-27T12:35 | 24860 | 26 | 79 | 18.0 | ||
| 2013-09-27T12:36 | 25208 | 25 | -53.8 | |||
| 2013-09-27T12:36 | 25315 | 24 | 96 | 18.0 | ||
| 2013-09-27T12:37 | 25781 | 23 | 97 | 17.0 | ||
| 2013-09-27T12:38 | 26057 | 22 | -53.1 | |||
| 2013-09-27T12:38 | 26252 | 21 | 76 | 20.0 | ||
| 2013-09-27T12:39 | 26640 | 20 | -51.8 | |||
| 2013-09-27T12:39 | 26725 | 19 | 84 | 23.0 | ||
| 2013-09-27T12:40 | 27196 | 18 | 89 | 21.0 | ||
| 2013-09-27T12:41 | 27658 | 17 | 95 | 22.0 | ||
| 2013-09-27T12:41 | 27810 | 16 | -50.8 | 97 | 22.0 | |
| 2013-09-27T23:30 | 9 | 1008 | 29.8 | 24.0 | 40 | 3.0 |
| 2013-09-27T23:30 | 12 | 1007 | 27.5 | 20.8 | ||
| 2013-09-27T23:31 | 282 | 977 | 46 | 4.0 | ||
| 2013-09-27T23:31 | 294 | 976 | 47 | 4.0 | ||
| 2013-09-27T23:31 | 312 | 974 | 46 | 4.0 | ||
| 2013-09-27T23:31 | 347 | 970 | 49 | 4.0 | ||
| 2013-09-27T23:31 | 353 | 969 | 50 | 4.0 | ||
| 2013-09-27T23:31 | 359 | 968 | 50 | 4.0 | ||
| 2013-09-27T23:31 | 447 | 959 | 23.6 | 20.7 | ||
| 2013-09-27T23:32 | 495 | 953 | 23.8 | 18.7 | ||
| 2013-09-27T23:32 | 640 | 938 | 56 | 4.0 | ||
| 2013-09-27T23:33 | 1085 | 891 | 19.8 | 15.0 | ||
| 2013-09-27T23:34 | 1362 | 863 | 18 | 3.0 | ||
| 2013-09-27T23:34 | 1419 | 857 | 18.1 | 11.7 | ||
| 2013-09-27T23:35 | 1633 | 836 | 17.1 | 9.5 | ||
| 2013-09-27T23:35 | 1735 | 826 | 16.7 | 8.4 | ||
| 2013-09-27T23:35 | 1747 | 825 | 12 | 5.0 | ||
| 2013-09-27T23:35 | 1862 | 814 | 16.0 | 10.3 | ||
| 2013-09-27T23:36 | 2100 | 791 | 6 | 6.0 | ||
| 2013-09-27T23:37 | 2269 | 775 | 14.3 | 6.9 | ||
| 2013-09-27T23:37 | 2428 | 761 | 13.7 | 7.5 | ||
| 2013-09-27T23:37 | 2439 | 760 | 15 | 7.0 | ||
| 2013-09-27T23:38 | 2640 | 742 | 13.0 | 5.7 | ||
| 2013-09-27T23:38 | 2795 | 729 | 22 | 8.0 | ||
| 2013-09-27T23:38 | 2813 | 727 | 12.1 | 2.5 | ||
| 2013-09-27T23:39 | 3137 | 699 | 18 | 10.0 | ||
| 2013-09-27T23:39 | 3201 | 694 | 10.2 | -0.6 | ||
| 2013-09-27T23:39 | 3207 | 693 | 10.2 | 1.0 | ||
| 2013-09-27T23:40 | 3344 | 682 | 9.7 | -4.7 | ||
| 2013-09-27T23:40 | 3405 | 677 | 9.4 | -7.8 | ||
| 2013-09-27T23:40 | 3448 | 674 | 9.1 | -5.2 | ||
| 2013-09-27T23:40 | 3495 | 670 | 26 | 12.0 | ||
| 2013-09-27T23:40 | 3588 | 662 | 8.3 | -7.4 | ||
| 2013-09-27T23:40 | 3622 | 660 | 8.2 | -7.9 | ||
| 2013-09-27T23:41 | 3683 | 655 | 8.3 | -14.0 | ||
| 2013-09-27T23:41 | 3771 | 648 | 27 | 13.0 | ||
| 2013-09-27T23:41 | 3830 | 643 | 28 | 12.0 | ||
| 2013-09-27T23:42 | 4002 | 630 | 6.3 | -18.5 | ||
| 2013-09-27T23:42 | 4158 | 618 | 34 | 7.0 | ||
| 2013-09-27T23:42 | 4232 | 612 | 4.7 | -19.0 | ||
| 2013-09-27T23:43 | 4351 | 603 | 3.9 | -23.0 | ||
| 2013-09-27T23:43 | 4428 | 598 | 3.5 | -27.8 | ||
| 2013-09-27T23:43 | 4495 | 593 | 37 | 8.0 | ||
| 2013-09-27T23:44 | 4842 | 568 | 39 | 7.0 | ||
| 2013-09-27T23:44 | 4970 | 559 | 0.5 | -24.8 | ||
| 2013-09-27T23:45 | 5147 | 546 | -0.1 | -31.9 | ||
| 2013-09-27T23:45 | 5186 | 544 | 6 | 8.0 | ||
| 2013-09-27T23:46 | 5445 | 526 | -2.1 | -26.1 | ||
| 2013-09-27T23:46 | 5537 | 520 | 341 | 8.0 | ||
| 2013-09-27T23:46 | 5675 | 511 | -3.4 | -36.0 | ||
| 2013-09-27T23:47 | 5904 | 497 | 348 | 6.0 | ||
| 2013-09-27T23:47 | 6049 | 488 | -6.3 | -39.9 | ||
| 2013-09-27T23:48 | 6244 | 476 | 357 | 6.0 | ||
| 2013-09-27T23:49 | 6583 | 455 | 10 | 6.0 | ||
| 2013-09-27T23:49 | 6726 | 447 | -11.4 | -36.1 | ||
| 2013-09-27T23:50 | 6934 | 435 | 30 | 7.0 | ||
| 2013-09-27T23:51 | 7160 | 422 | -15.1 | -30.3 | ||
| 2013-09-27T23:51 | 7297 | 415 | 39 | 7.0 | ||
| 2013-09-27T23:51 | 7384 | 410 | -16.6 | -32.5 | ||
| 2013-09-27T23:52 | 7540 | 402 | -17.1 | -42.6 | ||
| 2013-09-27T23:52 | 7614 | 398 | 19 | 8.0 | ||
| 2013-09-27T23:52 | 7733 | 391 | -18.2 | -43.4 | ||
| 2013-09-27T23:53 | 7840 | 386 | -19.0 | -43.1 | ||
| 2013-09-27T23:53 | 7991 | 378 | 10 | 8.0 | ||
| 2013-09-27T23:53 | 8106 | 372 | -21.4 | -43.3 | ||
| 2013-09-27T23:54 | 8308 | 362 | -23.1 | -50.9 | ||
| 2013-09-27T23:54 | 8370 | 359 | 5 | 10.0 | ||
| 2013-09-27T23:55 | 8741 | 341 | 6 | 11.0 | ||
| 2013-09-27T23:55 | 8795 | 339 | -27.1 | -42.4 | ||
| 2013-09-27T23:56 | 9018 | 328 | -28.2 | -36.9 | ||
| 2013-09-27T23:56 | 9101 | 324 | -28.6 | -41.4 | ||
| 2013-09-27T23:56 | 9154 | 322 | 19 | 14.0 | ||
| 2013-09-27T23:56 | 9198 | 320 | -29.3 | -39.1 | ||
| 2013-09-27T23:57 | 9348 | 313 | -30.0 | -41.7 | ||
| 2013-09-27T23:57 | 9476 | 308 | 16 | 16.0 | ||
| 2013-09-27T23:57 | 9563 | 304 | -32.0 | -42.1 | ||
| 2013-09-27T23:58 | 9680 | 299 | -33.1 | -39.8 | ||
| 2013-09-27T23:58 | 9785 | 295 | 10 | 18.0 | ||
| 2013-09-27T23:58 | 9936 | 288 | -35.0 | -40.0 | ||
| 2013-09-27T23:59 | 10163 | 279 | 6 | 18.0 | ||
| 2013-09-27T23:59 | 10292 | 274 | -38.0 | -44.6 | ||
| 2013-09-28T00:00 | 10454 | 267 | -39.5 | -45.6 | ||
| 2013-09-28T00:00 | 10507 | 265 | -40.0 | -45.6 | ||
| 2013-09-28T00:00 | 10553 | 264 | 8 | 19.0 | ||
| 2013-09-28T00:01 | 10850 | 252 | 11 | 20.0 | ||
| 2013-09-28T00:01 | 10931 | 249 | 10 | 20.0 | ||
| 2013-09-28T00:01 | 11114 | 243 | -44.3 | |||
| 2013-09-28T00:02 | 11310 | 236 | 2 | 17.0 | ||
| 2013-09-28T00:02 | 11459 | 230 | -46.1 | |||
| 2013-09-28T00:03 | 11688 | 222 | 1 | 18.0 | ||
| 2013-09-28T00:04 | 12046 | 211 | 4 | 18.0 | ||
| 2013-09-28T00:05 | 12415 | 199 | 4 | 18.0 | ||
| 2013-09-28T00:06 | 12780 | 188 | 8 | 18.0 | ||
| 2013-09-28T00:07 | 13143 | 178 | 19 | 18.0 | ||
| 2013-09-28T00:07 | 13167 | 177 | -57.4 | |||
| 2013-09-28T00:08 | 13511 | 168 | 29 | 17.0 | ||
| 2013-09-28T00:08 | 13578 | 166 | -59.8 | |||
| 2013-09-28T00:09 | 13858 | 158 | 27 | 20.0 | ||
| 2013-09-28T00:09 | 13999 | 155 | 24 | 21.0 | ||
| 2013-09-28T00:10 | 14025 | 154 | 24 | 21.0 | ||
| 2013-09-28T00:10 | 14123 | 152 | -62.9 | |||
| 2013-09-28T00:10 | 14181 | 150 | 26 | 19.0 | ||
| 2013-09-28T00:11 | 14557 | 141 | 41 | 15.0 | ||
| 2013-09-28T00:12 | 14878 | 134 | -66.8 | |||
| 2013-09-28T00:12 | 14914 | 133 | 48 | 15.0 | ||
| 2013-09-28T00:13 | 15275 | 125 | 52 | 14.0 | ||
| 2013-09-28T00:14 | 15498 | 121 | -70.7 | |||
| 2013-09-28T00:14 | 15648 | 118 | 55 | 13.0 | ||
| 2013-09-28T00:14 | 15826 | 114 | -71.4 | |||
| 2013-09-28T00:15 | 16017 | 111 | 45 | 10.0 | ||
| 2013-09-28T00:16 | 16374 | 104 | 44 | 9.0 | ||
| 2013-09-28T00:16 | 16529 | 101 | -75.8 | |||
| 2013-09-28T00:17 | 16604 | 100 | -75.4 | 46 | 9.0 | |
| 2013-09-28T00:17 | 16725 | 98 | 46 | 9.0 | ||
| 2013-09-28T00:18 | 17014 | 93 | -76.3 | |||
| 2013-09-28T00:18 | 17068 | 92 | 58 | 13.0 | ||
| 2013-09-28T00:19 | 17414 | 87 | 56 | 17.0 | ||
| 2013-09-28T00:19 | 17579 | 85 | -76.2 | |||
| 2013-09-28T00:20 | 17769 | 82 | 63 | 17.0 | ||
| 2013-09-28T00:21 | 18004 | 79 | -74.0 | |||
| 2013-09-28T00:21 | 18131 | 77 | 63 | 14.0 | ||
| 2013-09-28T00:21 | 18170 | 76 | -72.0 | |||
| 2013-09-28T00:22 | 18461 | 73 | 75 | 14.0 | ||
| 2013-09-28T00:23 | 18677 | 70 | -72.7 | |||
| 2013-09-28T00:23 | 18802 | 69 | 72 | 16.0 | ||
| 2013-09-28T00:23 | 18970 | 67 | -70.5 | |||
| 2013-09-28T00:24 | 19147 | 65 | -69.7 | |||
| 2013-09-28T00:24 | 19173 | 64 | 68 | 16.0 | ||
| 2013-09-28T00:25 | 19546 | 61 | 80 | 12.0 | ||
| 2013-09-28T00:26 | 19914 | 57 | 91 | 16.0 | ||
| 2013-09-28T00:26 | 19990 | 56 | -67.2 | |||
| 2013-09-28T00:27 | 20290 | 54 | 91 | 14.0 | ||
| 2013-09-28T00:28 | 20523 | 51 | -64.5 | |||
| 2013-09-28T00:28 | 20686 | 50 | 86 | 14.0 | ||
| 2013-09-28T00:29 | 21093 | 47 | -63.9 | |||
| 2013-09-28T00:29 | 21099 | 47 | 74 | 16.0 | ||
| 2013-09-28T00:30 | 21523 | 44 | 91 | 16.0 | ||
| 2013-09-28T00:31 | 21926 | 41 | 111 | 17.0 | ||
| 2013-09-28T00:32 | 22321 | 38 | 103 | 16.0 | ||
| 2013-09-28T00:33 | 22745 | 36 | 88 | 19.0 | ||
| 2013-09-28T00:33 | 22774 | 36 | -61.8 | |||
| 2013-09-28T00:34 | 23178 | 33 | 90 | 23.0 | ||
| 2013-09-28T00:34 | 23244 | 33 | 90 | 23.0 | ||
| 2013-09-28T00:34 | 23301 | 33 | -60.1 | |||
| 2013-09-28T00:35 | 23608 | 31 | 99 | 18.0 | ||
| 2013-09-28T00:36 | 24029 | 29 | 84 | 14.0 | ||
| 2013-09-28T00:36 | 24120 | 29 | -56.1 | |||
| 2013-09-28T00:37 | 24461 | 27 | 72 | 17.0 | ||
| 2013-09-28T00:38 | 24890 | 26 | 77 | 20.0 | ||
| 2013-09-28T00:38 | 25025 | 25 | -55.6 | |||
| 2013-09-28T00:39 | 25365 | 24 | 73 | 23.0 | ||
| 2013-09-28T00:40 | 25852 | 22 | -50.5 | 90 | 26.0 | |
| 2013-09-28T00:40 | 25964 | 22 | 93 | 28.0 | ||
| 2013-09-28T00:40 | 25986 | 22 | 93 | 28.0 | ||
| 2013-09-28T00:40 | 26015 | 21 | 94 | 28.0 | ||
| 2013-09-28T00:41 | 26263 | 21 | 97 | 26.0 | ||
| 2013-09-28T00:42 | 26722 | 19 | 104 | 20.0 | ||
| 2013-09-28T00:42 | 26933 | 19 | -51.1 | |||
| 2013-09-28T00:43 | 27151 | 18 | -51.3 | |||
| 2013-09-28T00:43 | 27200 | 18 | 106 | 22.0 | ||
| 2013-09-28T00:43 | 27257 | 18 | -50.9 | |||
| 2013-09-28T00:44 | 27696 | 17 | 104 | 19.0 | ||
| 2013-09-28T00:45 | 27966 | 16 | -50.2 | |||
| 2013-09-28T00:45 | 28182 | 15 | 101 | 16.0 | ||
| 2013-09-28T00:46 | 28663 | 14 | 81 | 21.0 | ||
| 2013-09-28T00:46 | 28672 | 14 | -49.9 | |||
| 2013-09-28T00:47 | 29128 | 13 | 84 | 25.0 | ||
| 2013-09-28T00:47 | 29181 | 13 | -49.3 | |||
| 2013-09-28T00:48 | 29598 | 12 | 90 | 28.0 | ||
| 2013-09-28T00:48 | 29781 | 12 | -49.4 | 84 | 28.0 | |
| 2013-09-28T11:30 | 9 | 1006 | 28.0 | 23.6 | 10 | 5.0 |
| 2013-09-28T11:30 | 24 | 1004 | 27.8 | 22.1 | ||
| 2013-09-28T11:31 | 247 | 979 | 9 | 8.0 | ||
| 2013-09-28T11:31 | 253 | 978 | 8 | 8.0 | ||
| 2013-09-28T11:31 | 336 | 969 | 9 | 8.0 | ||
| 2013-09-28T11:31 | 434 | 958 | 24.3 | 20.2 | ||
| 2013-09-28T11:32 | 591 | 941 | 23.1 | 18.6 | ||
| 2013-09-28T11:32 | 667 | 933 | 13 | 7.0 | ||
| 2013-09-28T11:32 | 730 | 926 | 22.4 | 17.5 | ||
| 2013-09-28T11:33 | 997 | 898 | 20.7 | 15.5 | ||
| 2013-09-28T11:33 | 1014 | 896 | 9 | 7.0 | ||
| 2013-09-28T11:34 | 1379 | 859 | 10 | 8.0 | ||
| 2013-09-28T11:35 | 1651 | 832 | 16.8 | 10.2 | ||
| 2013-09-28T11:35 | 1699 | 828 | 16.9 | 8.3 | ||
| 2013-09-28T11:35 | 1730 | 825 | 16.8 | 5.7 | ||
| 2013-09-28T11:35 | 1748 | 823 | 18 | 10.0 | ||
| 2013-09-28T11:35 | 1766 | 821 | 17.0 | 1.0 | ||
| 2013-09-28T11:35 | 1807 | 817 | 17.2 | -3.0 | ||
| 2013-09-28T11:35 | 1847 | 814 | 17.4 | -8.7 | ||
| 2013-09-28T11:35 | 1859 | 812 | 17.4 | -9.5 | ||
| 2013-09-28T11:36 | 1986 | 801 | 17.3 | -20.7 | ||
| 2013-09-28T11:36 | 2093 | 790 | 16 | 10.0 | ||
| 2013-09-28T11:36 | 2116 | 788 | 16.5 | -19.5 | ||
| 2013-09-28T11:37 | 2453 | 758 | 15.1 | -24.4 | ||
| 2013-09-28T11:37 | 2459 | 757 | 14 | 10.0 | ||
| 2013-09-28T11:38 | 2784 | 728 | 13.5 | -31.0 | ||
| 2013-09-28T11:38 | 2827 | 725 | 20 | 11.0 | ||
| 2013-09-28T11:39 | 3071 | 704 | 12.2 | -19.8 | 21 | 14.0 |
| 2013-09-28T11:39 | 3077 | 703 | 21 | 14.0 | ||
| 2013-09-28T11:39 | 3190 | 694 | 22 | 13.0 | ||
| 2013-09-28T11:39 | 3284 | 686 | 11.2 | -18.2 | ||
| 2013-09-28T11:40 | 3550 | 665 | 18 | 11.0 | ||
| 2013-09-28T11:40 | 3562 | 664 | 9.1 | -18.9 | ||
| 2013-09-28T11:41 | 3851 | 641 | 7.4 | -24.8 | ||
| 2013-09-28T11:41 | 3936 | 634 | 26 | 9.0 | ||
| 2013-09-28T11:41 | 4038 | 626 | 6.0 | -30.9 | ||
| 2013-09-28T11:41 | 4070 | 624 | 5.9 | -14.8 | ||
| 2013-09-28T11:41 | 4089 | 622 | 5.8 | -22.5 | ||
| 2013-09-28T11:42 | 4200 | 614 | 5.4 | -19.2 | ||
| 2013-09-28T11:42 | 4246 | 610 | 5.2 | -21.9 | ||
| 2013-09-28T11:42 | 4325 | 605 | 4.6 | -19.1 | 11 | 8.0 |
| 2013-09-28T11:43 | 4538 | 589 | 3.5 | -26.5 | ||
| 2013-09-28T11:43 | 4720 | 576 | 6 | 8.0 | ||
| 2013-09-28T11:43 | 4733 | 575 | 2.0 | -21.2 | ||
| 2013-09-28T11:44 | 4953 | 559 | 0.6 | -30.0 | ||
| 2013-09-28T11:44 | 5036 | 554 | 0.5 | -34.9 | ||
| 2013-09-28T11:44 | 5101 | 549 | 22 | 9.0 | ||
| 2013-09-28T11:44 | 5166 | 545 | -0.2 | -33.6 | ||
| 2013-09-28T11:44 | 5198 | 543 | -0.4 | -28.4 | ||
| 2013-09-28T11:45 | 5477 | 524 | 22 | 8.0 | ||
| 2013-09-28T11:45 | 5527 | 521 | -2.2 | -35.1 | ||
| 2013-09-28T11:45 | 5597 | 516 | -2.6 | -29.1 | ||
| 2013-09-28T11:45 | 5616 | 515 | -2.7 | -22.0 | ||
| 2013-09-28T11:46 | 5706 | 509 | -3.3 | -25.6 | ||
| 2013-09-28T11:46 | 5856 | 499 | 27 | 10.0 | ||
| 2013-09-28T11:46 | 5875 | 498 | -4.6 | -20.8 | ||
| 2013-09-28T11:46 | 5906 | 496 | -4.7 | -29.0 | ||
| 2013-09-28T11:47 | 6100 | 484 | -5.7 | -34.8 | ||
| 2013-09-28T11:47 | 6235 | 476 | 18 | 7.0 | ||
| 2013-09-28T11:47 | 6254 | 475 | -6.7 | -28.4 | ||
| 2013-09-28T11:47 | 6389 | 467 | -7.9 | -24.5 | ||
| 2013-09-28T11:48 | 6455 | 463 | -8.2 | -29.0 | ||
| 2013-09-28T11:48 | 6628 | 452 | 22 | 7.0 | ||
| 2013-09-28T11:48 | 6694 | 449 | -10.3 | -28.5 | ||
| 2013-09-28T11:48 | 6748 | 446 | -10.8 | -30.5 | ||
| 2013-09-28T11:49 | 6953 | 434 | -12.4 | -29.8 | ||
| 2013-09-28T11:49 | 7013 | 430 | 32 | 7.0 | ||
| 2013-09-28T11:50 | 7389 | 409 | 21 | 7.0 | ||
| 2013-09-28T11:50 | 7416 | 408 | -16.5 | -32.4 | ||
| 2013-09-28T11:51 | 7759 | 390 | -19.3 | -30.3 | ||
| 2013-09-28T11:51 | 7778 | 389 | 29 | 7.0 | ||
| 2013-09-28T11:52 | 7982 | 378 | -20.4 | -34.2 | ||
| 2013-09-28T11:52 | 8041 | 375 | -20.5 | -30.3 | ||
| 2013-09-28T11:52 | 8174 | 369 | 50 | 11.0 | ||
| 2013-09-28T11:52 | 8260 | 364 | -22.3 | -33.9 | ||
| 2013-09-28T11:52 | 8312 | 362 | -22.8 | -29.4 | ||
| 2013-09-28T11:53 | 8433 | 356 | -23.4 | -27.7 | ||
| 2013-09-28T11:53 | 8559 | 350 | 44 | 9.0 | ||
| 2013-09-28T11:53 | 8615 | 347 | -23.7 | -26.6 | ||
| 2013-09-28T11:54 | 8940 | 332 | -26.2 | -29.3 | ||
| 2013-09-28T11:54 | 8954 | 331 | 69 | 8.0 | ||
| 2013-09-28T11:55 | 9364 | 313 | 82 | 9.0 | ||
| 2013-09-28T11:56 | 9767 | 296 | -33.1 | -35.9 | ||
| 2013-09-28T11:56 | 9774 | 295 | 86 | 12.0 | ||
| 2013-09-28T11:57 | 10163 | 279 | 90 | 17.0 | ||
| 2013-09-28T11:58 | 10449 | 268 | -37.9 | -41.3 | ||
| 2013-09-28T11:58 | 10554 | 264 | 88 | 24.0 | ||
| 2013-09-28T11:59 | 10806 | 254 | -40.0 | -43.8 | ||
| 2013-09-28T11:59 | 10945 | 249 | 91 | 28.0 | ||
| 2013-09-28T11:59 | 11121 | 243 | 94 | 30.0 | ||
| 2013-09-28T12:00 | 11226 | 239 | -42.4 | |||
| 2013-09-28T12:00 | 11311 | 236 | 98 | 28.0 | ||
| 2013-09-28T12:01 | 11676 | 224 | -44.0 | 104 | 27.0 | |
| 2013-09-28T12:02 | 12047 | 212 | 104 | 24.0 | ||
| 2013-09-28T12:04 | 12826 | 188 | 106 | 22.0 | ||
| 2013-09-28T12:04 | 13024 | 182 | -55.2 | |||
| 2013-09-28T12:05 | 13251 | 176 | 104 | 20.0 | ||
| 2013-09-28T12:06 | 13694 | 164 | 104 | 17.0 | ||
| 2013-09-28T12:07 | 14121 | 153 | 91 | 13.0 | ||
| 2013-09-28T12:08 | 14554 | 142 | 76 | 12.0 | ||
| 2013-09-28T12:09 | 14921 | 134 | -69.4 | |||
| 2013-09-28T12:09 | 15047 | 131 | 67 | 14.0 | ||
| 2013-09-28T12:09 | 15265 | 126 | -70.5 | |||
| 2013-09-28T12:10 | 15420 | 123 | -71.2 | |||
| 2013-09-28T12:10 | 15521 | 121 | 66 | 16.0 | ||
| 2013-09-28T12:11 | 15862 | 114 | -72.2 | |||
| 2013-09-28T12:11 | 16028 | 111 | 58 | 14.0 | ||
| 2013-09-28T12:12 | 16450 | 103 | 57 | 13.0 | ||
| 2013-09-28T12:12 | 16503 | 102 | -75.1 | |||
| 2013-09-28T12:12 | 16632 | 100 | -74.2 | 62 | 13.0 | |
| 2013-09-28T12:13 | 16871 | 96 | 71 | 13.0 | ||
| 2013-09-28T12:13 | 16888 | 96 | -72.7 | |||
| 2013-09-28T12:14 | 17388 | 88 | 86 | 14.0 | ||
| 2013-09-28T12:14 | 17594 | 85 | -73.0 | |||
| 2013-09-28T12:15 | 17671 | 84 | -73.0 | 71 | 14.0 | |
| 2013-09-28T23:30 | 9 | 1002 | 29.7 | 23.4 | 290 | 5.0 |
| 2013-09-28T23:30 | 58 | 997 | 27.3 | 19.4 | ||
| 2013-09-28T23:31 | 366 | 963 | 290 | 9.0 | ||
| 2013-09-28T23:31 | 406 | 958 | 291 | 9.0 | ||
| 2013-09-28T23:31 | 419 | 957 | 292 | 9.0 | ||
| 2013-09-28T23:32 | 686 | 928 | 21.6 | 19.9 | ||
| 2013-09-28T23:32 | 705 | 926 | 21.6 | 18.4 | ||
| 2013-09-28T23:32 | 742 | 922 | 299 | 8.0 | ||
| 2013-09-28T23:32 | 901 | 906 | 20.8 | 17.6 | ||
| 2013-09-28T23:33 | 1077 | 887 | 20.0 | 16.3 | ||
| 2013-09-28T23:33 | 1106 | 884 | 295 | 9.0 | ||
| 2013-09-28T23:33 | 1233 | 872 | 20.0 | 15.2 | ||
| 2013-09-28T23:34 | 1364 | 858 | 19.4 | 14.2 | ||
| 2013-09-28T23:34 | 1397 | 855 | 19.4 | 13.1 | ||
| 2013-09-28T23:34 | 1435 | 851 | 288 | 7.0 | ||
| 2013-09-28T23:34 | 1558 | 839 | 19.0 | 8.9 | ||
| 2013-09-28T23:34 | 1581 | 837 | 19.1 | 2.5 | ||
| 2013-09-28T23:34 | 1594 | 836 | 19.2 | 3.4 | ||
| 2013-09-28T23:34 | 1600 | 835 | 19.2 | 7.0 | ||
| 2013-09-28T23:35 | 1624 | 833 | 19.0 | 4.0 | ||
| 2013-09-28T23:35 | 1630 | 832 | 18.9 | 5.0 | ||
| 2013-09-28T23:35 | 1643 | 831 | 18.8 | 11.1 | ||
| 2013-09-28T23:35 | 1790 | 817 | 17.5 | 11.1 | 286 | 6.0 |
| 2013-09-28T23:35 | 1873 | 809 | 17.5 | 9.2 | ||
| 2013-09-28T23:35 | 1964 | 800 | 17.7 | 6.3 | ||
| 2013-09-28T23:36 | 1997 | 797 | 17.8 | -0.5 | ||
| 2013-09-28T23:36 | 2064 | 791 | 17.5 | 4.8 | ||
| 2013-09-28T23:36 | 2148 | 783 | 17.4 | -0.3 | ||
| 2013-09-28T23:36 | 2191 | 779 | 301 | 5.0 | ||
| 2013-09-28T23:36 | 2233 | 776 | 16.8 | 1.7 | ||
| 2013-09-28T23:36 | 2275 | 772 | 16.6 | 1.5 | ||
| 2013-09-28T23:36 | 2344 | 766 | 16.4 | -1.7 | ||
| 2013-09-28T23:37 | 2536 | 748 | 288 | 5.0 | ||
| 2013-09-28T23:37 | 2571 | 745 | 14.6 | -2.8 | ||
| 2013-09-28T23:38 | 2751 | 729 | 13.2 | -3.6 | ||
| 2013-09-28T23:38 | 2871 | 719 | 287 | 6.0 | ||
| 2013-09-28T23:38 | 2958 | 712 | 11.7 | 0.5 | ||
| 2013-09-28T23:38 | 3038 | 705 | 11.4 | 1.1 | ||
| 2013-09-28T23:39 | 3115 | 698 | 11.0 | -1.7 | ||
| 2013-09-28T23:39 | 3134 | 697 | 11.1 | -8.7 | ||
| 2013-09-28T23:39 | 3171 | 694 | 11.1 | -11.0 | ||
| 2013-09-28T23:39 | 3195 | 692 | 10.9 | -9.4 | ||
| 2013-09-28T23:39 | 3214 | 690 | 10.8 | -5.2 | ||
| 2013-09-28T23:39 | 3257 | 687 | 292 | 6.0 | ||
| 2013-09-28T23:39 | 3269 | 686 | 10.4 | -7.8 | ||
| 2013-09-28T23:39 | 3326 | 681 | 10.0 | -6.8 | ||
| 2013-09-28T23:39 | 3351 | 679 | 9.9 | -5.6 | ||
| 2013-09-28T23:39 | 3415 | 674 | 9.6 | -12.9 | ||
| 2013-09-28T23:40 | 3514 | 666 | 8.9 | -12.9 | ||
| 2013-09-28T23:40 | 3599 | 659 | 8.2 | -8.4 | ||
| 2013-09-28T23:40 | 3628 | 657 | 283 | 5.0 | ||
| 2013-09-28T23:40 | 3790 | 644 | 6.5 | -10.3 | ||
| 2013-09-28T23:41 | 3834 | 640 | 6.0 | -1.6 | ||
| 2013-09-28T23:41 | 3936 | 633 | 5.2 | -2.9 | ||
| 2013-09-28T23:41 | 4002 | 627 | 285 | 5.0 | ||
| 2013-09-28T23:41 | 4015 | 626 | 4.9 | -6.6 | ||
| 2013-09-28T23:42 | 4280 | 606 | 2.9 | -5.0 | ||
| 2013-09-28T23:42 | 4346 | 601 | 2.3 | -2.8 | ||
| 2013-09-28T23:42 | 4399 | 597 | 290 | 4.0 | ||
| 2013-09-28T23:42 | 4491 | 591 | 1.4 | -4.5 | ||
| 2013-09-28T23:43 | 4665 | 578 | 0.4 | -6.5 | ||
| 2013-09-28T23:43 | 4719 | 574 | 0.0 | -4.4 | ||
| 2013-09-28T23:43 | 4771 | 570 | 277 | 4.0 | ||
| 2013-09-28T23:43 | 4828 | 566 | -0.7 | -6.7 | ||
| 2013-09-28T23:43 | 4891 | 562 | -0.9 | -6.1 | ||
| 2013-09-28T23:44 | 4956 | 557 | -1.2 | -5.6 | ||
| 2013-09-28T23:44 | 4992 | 555 | -1.2 | -8.4 | ||
| 2013-09-28T23:44 | 5112 | 547 | -1.6 | -10.9 | ||
| 2013-09-28T23:44 | 5124 | 546 | 285 | 3.0 | ||
| 2013-09-28T23:44 | 5142 | 544 | -1.7 | -10.0 | ||
| 2013-09-28T23:44 | 5174 | 542 | -1.8 | -8.5 | ||
| 2013-09-28T23:44 | 5304 | 534 | -2.1 | -10.6 | ||
| 2013-09-28T23:45 | 5490 | 521 | 332 | 1.0 | ||
| 2013-09-28T23:45 | 5507 | 520 | -3.1 | -14.2 | ||
| 2013-09-28T23:46 | 5789 | 502 | -5.2 | -14.5 | ||
| 2013-09-28T23:46 | 5831 | 499 | 110 | 3.0 | ||
| 2013-09-28T23:47 | 5972 | 490 | -6.8 | -11.0 | ||
| 2013-09-28T23:47 | 6138 | 480 | 131 | 6.0 | ||
| 2013-09-28T23:47 | 6322 | 469 | -9.2 | -12.3 | ||
| 2013-09-28T23:48 | 6556 | 455 | -10.1 | -14.4 | ||
| 2013-09-28T23:48 | 6583 | 453 | 117 | 5.0 | ||
| 2013-09-28T23:49 | 6806 | 440 | -11.9 | -16.6 | ||
| 2013-09-28T23:49 | 6952 | 432 | -13.1 | -17.6 | ||
| 2013-09-28T23:49 | 6958 | 431 | 113 | 6.0 | ||
| 2013-09-28T23:49 | 7119 | 422 | -14.4 | -19.4 | ||
| 2013-09-28T23:49 | 7138 | 421 | -14.6 | -21.4 | ||
| 2013-09-28T23:50 | 7175 | 419 | -14.9 | -22.8 | ||
| 2013-09-28T23:50 | 7281 | 413 | -15.7 | -24.7 | ||
| 2013-09-28T23:50 | 7332 | 411 | 109 | 6.0 | ||
| 2013-09-28T23:50 | 7395 | 407 | -16.5 | -23.6 | ||
| 2013-09-28T23:50 | 7420 | 406 | -16.5 | -25.2 | ||
| 2013-09-28T23:50 | 7463 | 403 | -16.5 | -39.3 | ||
| 2013-09-28T23:51 | 7569 | 398 | -16.5 | -42.1 | ||
| 2013-09-28T23:51 | 7692 | 391 | 134 | 9.0 | ||
| 2013-09-28T23:51 | 7756 | 388 | -17.5 | -41.0 | ||
| 2013-09-28T23:52 | 7911 | 380 | -17.4 | -48.1 | ||
| 2013-09-28T23:52 | 8034 | 374 | -16.8 | -55.5 | ||
| 2013-09-28T23:52 | 8045 | 373 | 146 | 13.0 | ||
| 2013-09-28T23:52 | 8153 | 368 | -16.7 | -61.0 | ||
| 2013-09-28T23:53 | 8366 | 358 | 144 | 17.0 | ||
| 2013-09-28T23:53 | 8461 | 353 | -18.7 | -49.1 | ||
| 2013-09-28T23:54 | 8745 | 340 | 134 | 21.0 | ||
| 2013-09-28T23:54 | 8824 | 336 | -21.6 | -45.2 | ||
| 2013-09-28T23:55 | 9131 | 322 | 128 | 21.0 | ||
| 2013-09-28T23:56 | 9510 | 306 | 128 | 22.0 | ||
| 2013-09-28T23:56 | 9535 | 305 | 128 | 22.0 | ||
| 2013-09-28T23:57 | 9702 | 298 | 124 | 22.0 | ||
| 2013-09-28T23:57 | 9801 | 294 | -29.8 | -52.6 | ||
| 2013-09-28T23:57 | 9885 | 290 | 125 | 21.0 | ||
| 2013-09-28T23:58 | 10260 | 275 | 134 | 20.0 | ||
| 2013-09-28T23:59 | 10650 | 260 | 120 | 22.0 | ||
| 2013-09-29T00:00 | 10974 | 248 | -40.0 | -58.5 | ||
| 2013-09-29T00:00 | 11052 | 245 | 118 | 22.0 | ||
| 2013-09-29T00:01 | 11440 | 232 | 119 | 21.0 | ||
| 2013-09-29T00:02 | 11684 | 223 | -45.5 | |||
| 2013-09-29T00:02 | 11861 | 218 | 120 | 21.0 | ||
| 2013-09-29T00:03 | 12285 | 204 | 110 | 21.0 | ||
| 2013-09-29T00:04 | 12681 | 192 | 105 | 25.0 | ||
| 2013-09-29T00:04 | 12818 | 188 | 105 | 26.0 | ||
| 2013-09-29T00:05 | 13069 | 181 | 103 | 25.0 | ||
| 2013-09-29T00:06 | 13493 | 169 | 102 | 24.0 | ||
| 2013-09-29T00:07 | 13712 | 163 | -62.8 | |||
| 2013-09-29T00:07 | 13869 | 159 | 109 | 22.0 | ||
| 2013-09-29T00:08 | 14282 | 148 | 125 | 20.0 | ||
| 2013-09-29T00:09 | 14685 | 139 | 126 | 19.0 | ||
| 2013-09-29T00:10 | 14877 | 134 | -72.5 | |||
| 2013-09-29T00:10 | 15026 | 131 | 121 | 17.0 | ||
| 2013-09-29T00:10 | 15050 | 130 | -72.7 | |||
| 2013-09-29T00:10 | 15194 | 127 | -73.1 | |||
| 2013-09-29T00:11 | 15384 | 123 | 98 | 19.0 | ||
| 2013-09-29T00:11 | 15435 | 122 | -73.4 | |||
| 2013-09-29T00:12 | 15625 | 118 | -72.5 | |||
| 2013-09-29T00:12 | 15747 | 116 | -72.5 | 97 | 20.0 | |
| 2013-09-29T00:13 | 16068 | 109 | 93 | 17.0 | ||
| 2013-09-29T00:14 | 16297 | 105 | -76.9 | |||
| 2013-09-29T00:14 | 16475 | 102 | 80 | 18.0 | ||
| 2013-09-29T00:14 | 16505 | 101 | -76.8 | |||
| 2013-09-29T00:14 | 16586 | 100 | -75.8 | 74 | 20.0 | |
| 2013-09-29T00:15 | 16822 | 96 | -74.8 | |||
| 2013-09-29T00:15 | 16939 | 94 | 67 | 19.0 | ||
| 2013-09-29T00:16 | 17395 | 87 | -76.3 | 58 | 12.0 | |
| 2013-09-29T00:17 | 17756 | 82 | -77.7 | |||
| 2013-09-29T00:17 | 17767 | 82 | 69 | 14.0 | ||
| 2013-09-29T00:17 | 17904 | 80 | -76.4 | |||
| 2013-09-29T00:18 | 18050 | 78 | -71.7 | |||
| 2013-09-29T00:18 | 18122 | 77 | 72 | 18.0 | ||
| 2013-09-29T00:19 | 18569 | 71 | 92 | 18.0 | ||
| 2013-09-29T00:20 | 18797 | 68 | -72.2 | |||
| 2013-09-29T00:20 | 18913 | 67 | -70.9 | |||
| 2013-09-29T00:20 | 18957 | 67 | 91 | 15.0 | ||
| 2013-09-29T00:21 | 19222 | 64 | -69.8 | |||
| 2013-09-29T00:21 | 19316 | 63 | 94 | 15.0 | ||
| 2013-09-29T00:21 | 19387 | 62 | -69.3 | |||
| 2013-09-29T00:22 | 19691 | 59 | 73 | 18.0 | ||
| 2013-09-29T00:22 | 19856 | 57 | -64.8 | |||
| 2013-09-29T00:23 | 20088 | 55 | 74 | 17.0 | ||
| 2013-09-29T00:24 | 20506 | 52 | 94 | 15.0 | ||
| 2013-09-29T00:25 | 20780 | 49 | -65.0 | |||
| 2013-09-29T00:25 | 20928 | 48 | 87 | 16.0 | ||
| 2013-09-29T00:26 | 21326 | 45 | 81 | 20.0 | ||
| 2013-09-29T00:27 | 21729 | 42 | 82 | 22.0 | ||
| 2013-09-29T00:28 | 22158 | 39 | 91 | 23.0 | ||
| 2013-09-29T00:29 | 22576 | 37 | 94 | 22.0 | ||
| 2013-09-29T00:29 | 22777 | 36 | -58.3 | |||
| 2013-09-29T00:30 | 22995 | 35 | 112 | 18.0 | ||
| 2013-09-29T00:31 | 23420 | 32 | 110 | 19.0 | ||
| 2013-09-29T00:31 | 23492 | 32 | -59.7 | |||
| 2013-09-29T00:32 | 23789 | 30 | -59.4 | |||
| 2013-09-29T00:32 | 23846 | 30 | 108 | 14.0 | ||
| 2013-09-29T00:33 | 24098 | 29 | -58.8 | |||
| 2013-09-29T00:33 | 24251 | 28 | 112 | 14.0 | ||
| 2013-09-29T00:34 | 24643 | 27 | -53.7 | |||
| 2013-09-29T00:34 | 24672 | 26 | 116 | 13.0 | ||
| 2013-09-29T00:35 | 25135 | 25 | 103 | 17.0 | ||
| 2013-09-29T00:36 | 25452 | 23 | -54.1 | |||
| 2013-09-29T00:36 | 25596 | 23 | 98 | 17.0 | ||
| 2013-09-29T00:36 | 25807 | 22 | -51.9 | |||
| 2013-09-29T00:37 | 26077 | 21 | 77 | 17.0 | ||
| 2013-09-29T00:37 | 26293 | 21 | -51.6 | |||
| 2013-09-29T00:38 | 26573 | 20 | 68 | 21.0 | ||
| 2013-09-29T00:39 | 27048 | 18 | 75 | 23.0 | ||
| 2013-09-29T00:40 | 27290 | 18 | -48.7 | |||
| 2013-09-29T00:40 | 27402 | 17 | -48.2 | |||
| 2013-09-29T00:40 | 27526 | 17 | 89 | 24.0 | ||
| 2013-09-29T00:41 | 28009 | 16 | 91 | 22.0 | ||
| 2013-09-29T00:42 | 28260 | 15 | -47.3 | |||
| 2013-09-29T00:42 | 28509 | 15 | 94 | 21.0 | ||
| 2013-09-29T00:43 | 28889 | 14 | -46.1 | |||
| 2013-09-29T00:43 | 28983 | 14 | 104 | 19.0 | ||
| 2013-09-29T00:44 | 29437 | 13 | 109 | 20.0 | ||
| 2013-09-29T00:44 | 29492 | 13 | -48.0 | |||
| 2013-09-29T00:45 | 29896 | 12 | 95 | 17.0 | ||
| 2013-09-29T00:45 | 29912 | 12 | -48.0 | 106 | 16.0 | |
| 2013-09-29T11:30 | 9 | 1006 | 28.0 | 24.4 | 170 | 4.0 |
| 2013-09-29T11:30 | 15 | 1005 | 28.6 | 23.7 | ||
| 2013-09-29T11:31 | 362 | 967 | 164 | 8.0 | ||
| 2013-09-29T11:32 | 584 | 942 | 23.7 | 22.0 | ||
| 2013-09-29T11:32 | 705 | 929 | 162 | 8.0 | ||
| 2013-09-29T11:32 | 715 | 928 | 23.1 | 18.9 | ||
| 2013-09-29T11:32 | 795 | 920 | 164 | 8.0 | ||
| 2013-09-29T11:32 | 806 | 919 | 164 | 8.0 | ||
| 2013-09-29T11:33 | 873 | 912 | 164 | 8.0 | ||
| 2013-09-29T11:33 | 918 | 907 | 21.4 | 18.6 | ||
| 2013-09-29T11:33 | 1038 | 894 | 161 | 8.0 | ||
| 2013-09-29T11:33 | 1155 | 883 | 20.0 | 17.2 | ||
| 2013-09-29T11:34 | 1387 | 859 | 158 | 7.0 | ||
| 2013-09-29T11:34 | 1416 | 856 | 18.5 | 15.4 | ||
| 2013-09-29T11:34 | 1463 | 852 | 18.3 | 15.2 | ||
| 2013-09-29T11:35 | 1572 | 841 | 18.1 | 14.0 | ||
| 2013-09-29T11:35 | 1594 | 839 | 17.9 | 14.8 | ||
| 2013-09-29T11:35 | 1617 | 836 | 17.9 | 14.2 | ||
| 2013-09-29T11:35 | 1668 | 832 | 18.2 | 12.0 | ||
| 2013-09-29T11:35 | 1730 | 826 | 157 | 6.0 | ||
| 2013-09-29T11:35 | 1746 | 824 | 18.3 | 9.6 | ||
| 2013-09-29T11:35 | 1869 | 812 | 17.5 | 7.8 | ||
| 2013-09-29T11:35 | 1891 | 810 | 17.8 | 7.0 | ||
| 2013-09-29T11:36 | 1908 | 809 | 18.0 | -0.3 | ||
| 2013-09-29T11:36 | 1947 | 805 | 18.3 | 2.6 | ||
| 2013-09-29T11:36 | 1963 | 804 | 18.3 | 0.0 | ||
| 2013-09-29T11:36 | 1986 | 801 | 18.1 | -1.7 | ||
| 2013-09-29T11:36 | 1997 | 800 | 18.1 | 5.7 | ||
| 2013-09-29T11:36 | 2041 | 796 | 17.7 | 5.0 | ||
| 2013-09-29T11:36 | 2063 | 794 | 17.6 | 10.7 | 154 | 6.0 |
| 2013-09-29T11:36 | 2074 | 793 | 17.5 | 12.8 | ||
| 2013-09-29T11:36 | 2096 | 791 | 17.3 | 10.2 | ||
| 2013-09-29T11:36 | 2119 | 789 | 17.4 | 5.4 | ||
| 2013-09-29T11:36 | 2142 | 787 | 17.5 | 4.1 | ||
| 2013-09-29T11:36 | 2200 | 782 | 17.1 | 6.0 | ||
| 2013-09-29T11:37 | 2324 | 770 | 16.9 | -0.8 | ||
| 2013-09-29T11:37 | 2415 | 762 | 152 | 7.0 | ||
| 2013-09-29T11:37 | 2440 | 760 | 15.9 | -3.1 | ||
| 2013-09-29T11:37 | 2540 | 751 | 15.0 | -0.3 | ||
| 2013-09-29T11:38 | 2627 | 743 | 14.3 | 5.9 | ||
| 2013-09-29T11:38 | 2645 | 742 | 14.1 | 4.7 | ||
| 2013-09-29T11:38 | 2670 | 740 | 13.9 | 7.7 | ||
| 2013-09-29T11:38 | 2774 | 730 | 13.0 | 7.4 | ||
| 2013-09-29T11:38 | 2786 | 729 | 160 | 7.0 | ||
| 2013-09-29T11:38 | 2891 | 720 | 12.1 | 7.8 | ||
| 2013-09-29T11:39 | 3143 | 699 | 10.4 | 5.8 | ||
| 2013-09-29T11:39 | 3162 | 697 | 156 | 6.0 | ||
| 2013-09-29T11:40 | 3367 | 680 | 8.8 | 5.7 | ||
| 2013-09-29T11:40 | 3474 | 672 | 8.5 | 3.7 | ||
| 2013-09-29T11:40 | 3513 | 668 | 164 | 7.0 | ||
| 2013-09-29T11:40 | 3529 | 667 | 8.5 | 2.9 | ||
| 2013-09-29T11:40 | 3578 | 663 | 8.6 | 0.8 | ||
| 2013-09-29T11:40 | 3589 | 662 | 8.6 | -2.1 | ||
| 2013-09-29T11:40 | 3627 | 659 | 8.3 | -2.6 | ||
| 2013-09-29T11:40 | 3649 | 658 | 8.1 | 1.0 | ||
| 2013-09-29T11:41 | 3732 | 651 | 7.4 | 1.5 | ||
| 2013-09-29T11:41 | 3845 | 642 | 171 | 5.0 | ||
| 2013-09-29T11:41 | 4018 | 629 | 5.5 | -0.8 | ||
| 2013-09-29T11:42 | 4203 | 615 | 157 | 5.0 | ||
| 2013-09-29T11:42 | 4245 | 612 | 3.8 | -0.6 | ||
| 2013-09-29T11:42 | 4371 | 602 | 2.8 | -1.4 | ||
| 2013-09-29T11:43 | 4383 | 601 | 2.8 | -3.5 | ||
| 2013-09-29T11:43 | 4447 | 597 | 2.5 | -3.6 | ||
| 2013-09-29T11:43 | 4470 | 595 | 2.3 | -2.0 | ||
| 2013-09-29T11:43 | 4511 | 592 | 2.2 | -5.0 | ||
| 2013-09-29T11:43 | 4517 | 591 | 2.2 | -6.9 | ||
| 2013-09-29T11:43 | 4552 | 589 | 154 | 6.0 | ||
| 2013-09-29T11:43 | 4582 | 587 | 1.9 | -6.9 | ||
| 2013-09-29T11:43 | 4660 | 581 | 1.2 | -4.2 | ||
| 2013-09-29T11:44 | 4821 | 570 | 0.4 | -4.4 | ||
| 2013-09-29T11:44 | 4896 | 564 | 0.2 | -6.0 | ||
| 2013-09-29T11:44 | 4920 | 563 | 161 | 6.0 | ||
| 2013-09-29T11:44 | 4981 | 558 | -0.3 | -6.3 | ||
| 2013-09-29T11:44 | 5017 | 556 | -0.4 | -10.9 | ||
| 2013-09-29T11:44 | 5069 | 552 | -0.9 | -6.5 | ||
| 2013-09-29T11:45 | 5196 | 544 | -1.9 | -7.0 | ||
| 2013-09-29T11:45 | 5247 | 540 | -2.0 | -7.7 | ||
| 2013-09-29T11:45 | 5270 | 538 | 162 | 9.0 | ||
| 2013-09-29T11:45 | 5306 | 536 | -2.3 | -7.8 | ||
| 2013-09-29T11:45 | 5374 | 531 | -2.5 | -9.6 | ||
| 2013-09-29T11:46 | 5495 | 523 | -3.0 | -11.0 | ||
| 2013-09-29T11:46 | 5582 | 518 | -3.2 | -14.9 | ||
| 2013-09-29T11:46 | 5643 | 514 | 173 | 10.0 | ||
| 2013-09-29T11:46 | 5655 | 513 | -3.4 | -17.4 | ||
| 2013-09-29T11:46 | 5697 | 510 | 172 | 10.0 | ||
| 2013-09-29T11:46 | 5755 | 506 | -3.7 | -22.9 | ||
| 2013-09-29T11:46 | 5807 | 503 | 177 | 10.0 | ||
| 2013-09-29T11:47 | 5825 | 502 | -4.1 | -18.4 | ||
| 2013-09-29T11:47 | 5901 | 497 | -4.2 | -22.3 | ||
| 2013-09-29T11:47 | 5950 | 494 | -4.5 | -20.3 | ||
| 2013-09-29T11:47 | 5999 | 491 | 181 | 9.0 | ||
| 2013-09-29T11:47 | 6011 | 490 | -4.6 | -28.9 | ||
| 2013-09-29T11:47 | 6095 | 485 | -5.0 | -27.7 | ||
| 2013-09-29T11:48 | 6336 | 470 | -6.1 | -27.2 | ||
| 2013-09-29T11:48 | 6354 | 469 | 188 | 10.0 | ||
| 2013-09-29T11:48 | 6390 | 467 | -6.5 | -22.0 | ||
| 2013-09-29T11:48 | 6421 | 465 | -6.7 | -22.6 | ||
| 2013-09-29T11:48 | 6440 | 464 | -6.8 | -27.8 | ||
| 2013-09-29T11:48 | 6521 | 459 | -7.3 | -26.5 | ||
| 2013-09-29T11:49 | 6590 | 455 | -7.8 | -25.8 | ||
| 2013-09-29T11:49 | 6660 | 451 | -8.2 | -31.8 | ||
| 2013-09-29T11:49 | 6729 | 447 | 183 | 9.0 | ||
| 2013-09-29T11:49 | 6779 | 444 | -9.2 | -30.5 | ||
| 2013-09-29T11:49 | 6839 | 441 | -9.5 | -36.6 | ||
| 2013-09-29T11:50 | 6912 | 437 | -9.9 | -32.4 | ||
| 2013-09-29T11:50 | 6937 | 435 | -10.0 | -28.2 | ||
| 2013-09-29T11:50 | 7041 | 430 | -10.6 | -24.5 | ||
| 2013-09-29T11:50 | 7077 | 427 | -10.8 | -20.4 | ||
| 2013-09-29T11:50 | 7095 | 426 | 170 | 7.0 | ||
| 2013-09-29T11:51 | 7334 | 413 | -11.8 | -23.6 | ||
| 2013-09-29T11:51 | 7454 | 407 | 168 | 7.0 | ||
| 2013-09-29T11:51 | 7619 | 398 | -13.5 | -27.8 | ||
| 2013-09-29T11:52 | 7835 | 387 | 164 | 7.0 | ||
| 2013-09-29T11:53 | 8216 | 368 | -17.9 | -32.8 | 163 | 9.0 |
| 2013-09-29T11:53 | 8260 | 366 | -18.2 | -31.2 | ||
| 2013-09-29T11:54 | 8565 | 351 | -20.4 | -33.9 | ||
| 2013-09-29T11:54 | 8583 | 350 | 174 | 10.0 | ||
| 2013-09-29T11:55 | 8967 | 333 | 178 | 11.0 | ||
| 2013-09-29T11:55 | 9011 | 331 | -22.8 | -39.2 | ||
| 2013-09-29T11:56 | 9344 | 316 | 180 | 11.0 | ||
| 2013-09-29T11:56 | 9358 | 315 | -25.4 | -43.4 | ||
| 2013-09-29T11:57 | 9736 | 299 | 170 | 11.0 | ||
| 2013-09-29T11:58 | 10115 | 284 | -31.8 | -50.5 | ||
| 2013-09-29T11:58 | 10129 | 283 | 141 | 9.0 | ||
| 2013-09-29T11:59 | 10528 | 267 | 129 | 14.0 | ||
| 2013-09-29T12:00 | 10838 | 256 | -37.5 | -52.7 | ||
| 2013-09-29T12:00 | 10917 | 253 | 117 | 16.0 | ||
| 2013-09-29T12:01 | 11114 | 246 | -40.0 | -50.7 | ||
| 2013-09-29T12:01 | 11291 | 239 | 120 | 18.0 | ||
| 2013-09-29T12:02 | 11586 | 229 | 126 | 19.0 | ||
| 2013-09-29T12:02 | 11664 | 226 | 127 | 19.0 | ||
| 2013-09-29T12:03 | 12014 | 215 | 125 | 18.0 | ||
| 2013-09-29T12:04 | 12299 | 206 | -49.1 | |||
| 2013-09-29T12:04 | 12363 | 204 | 121 | 17.0 | ||
| 2013-09-29T12:05 | 12704 | 193 | 126 | 18.0 | ||
| 2013-09-29T12:06 | 13044 | 183 | 133 | 18.0 | ||
| 2013-09-29T12:07 | 13323 | 175 | -58.0 | |||
| 2013-09-29T12:07 | 13372 | 174 | 134 | 14.0 | ||
| 2013-09-29T12:08 | 13718 | 165 | 128 | 11.0 | ||
| 2013-09-29T12:09 | 13951 | 159 | -63.3 | |||
| 2013-09-29T12:09 | 14120 | 154 | 124 | 11.0 | ||
| 2013-09-29T12:10 | 14520 | 144 | 116 | 13.0 | ||
| 2013-09-29T12:11 | 14755 | 139 | -70.3 | |||
| 2013-09-29T12:11 | 14884 | 136 | 118 | 14.0 | ||
| 2013-09-29T12:12 | 15234 | 128 | 129 | 12.0 | ||
| 2013-09-29T12:13 | 15440 | 124 | -75.0 | |||
| 2013-09-29T12:13 | 15597 | 120 | 147 | 8.0 | ||
| 2013-09-29T12:14 | 15979 | 113 | 69 | 6.0 | ||
| 2013-09-29T12:14 | 16005 | 112 | -75.4 | |||
| 2013-09-29T12:15 | 16369 | 105 | 50 | 12.0 | ||
| 2013-09-29T12:16 | 16658 | 100 | -78.9 | 65 | 16.0 | |
| 2013-09-29T12:16 | 16713 | 99 | 70 | 16.0 | ||
| 2013-09-29T12:16 | 16785 | 98 | -76.4 | |||
| 2013-09-29T12:16 | 16797 | 98 | -76.4 | |||
| 2013-09-29T12:17 | 17066 | 93 | 99 | 15.0 | ||
| 2013-09-29T12:18 | 17414 | 88 | 81 | 9.0 | ||
| 2013-09-29T12:18 | 17558 | 86 | -74.3 | |||
| 2013-09-29T12:19 | 17752 | 83 | 79 | 10.0 | ||
| 2013-09-29T12:20 | 18087 | 78 | 65 | 13.0 | ||
| 2013-09-29T12:21 | 18287 | 76 | -73.7 | |||
| 2013-09-29T12:21 | 18431 | 74 | -71.9 | |||
| 2013-09-29T12:22 | 18811 | 69 | -69.3 | |||
| 2013-09-29T12:22 | 18817 | 69 | 77 | 14.0 | ||
| 2013-09-29T12:23 | 19136 | 65 | -67.4 | |||
| 2013-09-29T12:23 | 19199 | 65 | 75 | 17.0 | ||
| 2013-09-29T12:24 | 19425 | 62 | 84 | 19.0 | ||
| 2013-09-29T12:24 | 19432 | 62 | -65.7 | 84 | 19.0 | |
| 2013-09-29T12:24 | 19439 | 62 | 84 | 19.0 | ||
| 2013-09-29T12:24 | 19446 | 62 | 85 | 19.0 | ||
| 2013-09-29T12:24 | 19597 | 61 | 92 | 19.0 | ||
| 2013-09-29T12:25 | 19993 | 57 | 105 | 14.0 | ||
| 2013-09-29T12:26 | 20384 | 53 | -65.6 | |||
| 2013-09-29T12:26 | 20391 | 53 | 107 | 17.0 | ||
| 2013-09-29T12:27 | 20740 | 50 | -64.7 | |||
| 2013-09-29T12:27 | 20777 | 50 | 93 | 13.0 | ||
| 2013-09-29T12:27 | 20923 | 49 | -62.9 | |||
| 2013-09-29T12:28 | 21161 | 47 | 96 | 18.0 | ||
| 2013-09-29T12:29 | 21585 | 44 | 100 | 17.0 | ||
| 2013-09-29T12:29 | 21644 | 43 | -60.4 | |||
| 2013-09-29T12:29 | 21774 | 43 | 106 | 20.0 | ||
| 2013-09-29T12:29 | 21781 | 42 | 106 | 20.0 | ||
| 2013-09-29T12:30 | 21795 | 42 | 106 | 20.0 | ||
| 2013-09-29T12:30 | 21824 | 42 | 107 | 20.0 | ||
| 2013-09-29T12:30 | 22010 | 41 | 113 | 18.0 | ||
| 2013-09-29T12:31 | 22401 | 39 | 109 | 11.0 | ||
| 2013-09-29T12:31 | 22439 | 38 | -57.0 | |||
| 2013-09-29T12:32 | 22796 | 36 | 78 | 8.0 | ||
| 2013-09-29T12:33 | 23214 | 34 | 64 | 11.0 | ||
| 2013-09-29T12:34 | 23575 | 32 | -57.9 | |||
| 2013-09-29T12:34 | 23658 | 32 | 75 | 12.0 | ||
| 2013-09-29T12:35 | 24120 | 29 | 72 | 16.0 | ||
| 2013-09-29T12:36 | 24577 | 27 | 73 | 19.0 | ||
| 2013-09-29T12:37 | 24892 | 26 | -56.0 | |||
| 2013-09-29T12:37 | 24900 | 26 | 87 | 22.0 | ||
| 2013-09-29T12:37 | 24930 | 26 | -56.0 | 88 | 22.0 | |
| 2013-09-29T23:30 | 9 | 1009 | 30.7 | 24.4 | 150 | 5.0 |
| 2013-09-29T23:30 | 35 | 1006 | 146 | 7.0 | ||
| 2013-09-29T23:30 | 53 | 1004 | 27.9 | 21.0 | ||
| 2013-09-29T23:30 | 110 | 998 | 27.5 | 20.8 | ||
| 2013-09-29T23:31 | 366 | 969 | 144 | 6.0 | ||
| 2013-09-29T23:32 | 717 | 932 | 22.1 | 20.4 | 151 | 6.0 |
| 2013-09-29T23:32 | 795 | 923 | 21.4 | 18.4 | ||
| 2013-09-29T23:32 | 872 | 915 | 21.9 | 18.3 | ||
| 2013-09-29T23:33 | 889 | 913 | 22.0 | 16.1 | ||
| 2013-09-29T23:33 | 1050 | 896 | 152 | 5.0 | ||
| 2013-09-29T23:33 | 1141 | 887 | 20.9 | 13.8 | ||
| 2013-09-29T23:34 | 1328 | 868 | 20.0 | 11.8 | ||
| 2013-09-29T23:34 | 1374 | 864 | 19.8 | 10.8 | ||
| 2013-09-29T23:34 | 1391 | 862 | 137 | 5.0 | ||
| 2013-09-29T23:34 | 1414 | 860 | 19.5 | 9.4 | ||
| 2013-09-29T23:34 | 1477 | 853 | 19.0 | 12.5 | ||
| 2013-09-29T23:34 | 1517 | 849 | 18.7 | 11.8 | ||
| 2013-09-29T23:35 | 1576 | 844 | 18.6 | 9.9 | ||
| 2013-09-29T23:35 | 1678 | 834 | 18.2 | 11.3 | ||
| 2013-09-29T23:35 | 1696 | 832 | 18.2 | 9.0 | ||
| 2013-09-29T23:35 | 1744 | 827 | 140 | 7.0 | ||
| 2013-09-29T23:35 | 1817 | 820 | 18.0 | 6.5 | ||
| 2013-09-29T23:35 | 1830 | 819 | 17.9 | 3.0 | ||
| 2013-09-29T23:35 | 1867 | 815 | 17.7 | 5.6 | ||
| 2013-09-29T23:36 | 1990 | 804 | 16.8 | 6.6 | ||
| 2013-09-29T23:36 | 2013 | 801 | 16.8 | 5.7 | ||
| 2013-09-29T23:36 | 2025 | 800 | 16.9 | 7.0 | ||
| 2013-09-29T23:36 | 2049 | 798 | 17.2 | 3.8 | ||
| 2013-09-29T23:36 | 2108 | 793 | 130 | 7.0 | ||
| 2013-09-29T23:36 | 2193 | 785 | 16.9 | 2.5 | ||
| 2013-09-29T23:37 | 2277 | 777 | 16.5 | -1.6 | ||
| 2013-09-29T23:37 | 2327 | 772 | 16.0 | 6.2 | ||
| 2013-09-29T23:37 | 2446 | 762 | 125 | 8.0 | ||
| 2013-09-29T23:37 | 2457 | 761 | 15.0 | 5.5 | ||
| 2013-09-29T23:37 | 2571 | 750 | 14.1 | 5.2 | ||
| 2013-09-29T23:38 | 2708 | 738 | 13.5 | 4.1 | ||
| 2013-09-29T23:38 | 2731 | 736 | 13.4 | 3.7 | ||
| 2013-09-29T23:38 | 2790 | 731 | 131 | 7.0 | ||
| 2013-09-29T23:38 | 2859 | 725 | 12.7 | 4.9 | ||
| 2013-09-29T23:39 | 2991 | 714 | 124 | 8.0 | ||
| 2013-09-29T23:39 | 3003 | 713 | 125 | 8.0 | ||
| 2013-09-29T23:39 | 3031 | 711 | 124 | 8.0 | ||
| 2013-09-29T23:39 | 3123 | 703 | 11.1 | 2.9 | ||
| 2013-09-29T23:39 | 3135 | 702 | 124 | 8.0 | ||
| 2013-09-29T23:39 | 3234 | 694 | 10.4 | 1.5 | ||
| 2013-09-29T23:39 | 3288 | 689 | 10.0 | 0.9 | ||
| 2013-09-29T23:40 | 3349 | 684 | 9.8 | -0.1 | ||
| 2013-09-29T23:40 | 3374 | 682 | 9.6 | 0.5 | ||
| 2013-09-29T23:40 | 3430 | 677 | 9.3 | -2.0 | ||
| 2013-09-29T23:40 | 3500 | 672 | 108 | 8.0 | ||
| 2013-09-29T23:40 | 3557 | 667 | 8.3 | 0.0 | ||
| 2013-09-29T23:41 | 3870 | 642 | 6.8 | -5.9 | 135 | 7.0 |
| 2013-09-29T23:41 | 4013 | 631 | 5.9 | -8.0 | ||
| 2013-09-29T23:42 | 4217 | 616 | 4.3 | -10.2 | ||
| 2013-09-29T23:42 | 4223 | 615 | 130 | 6.0 | ||
| 2013-09-29T23:42 | 4397 | 602 | 3.7 | -22.2 | ||
| 2013-09-29T23:43 | 4589 | 588 | 146 | 5.0 | ||
| 2013-09-29T23:43 | 4749 | 577 | 2.2 | -31.8 | ||
| 2013-09-29T23:44 | 4944 | 563 | 163 | 6.0 | ||
| 2013-09-29T23:44 | 5023 | 557 | 0.7 | -27.5 | ||
| 2013-09-29T23:44 | 5084 | 553 | 0.3 | -25.0 | ||
| 2013-09-29T23:45 | 5302 | 538 | -1.5 | -20.5 | ||
| 2013-09-29T23:45 | 5437 | 529 | -2.4 | -16.5 | ||
| 2013-09-29T23:46 | 5494 | 525 | -2.5 | -19.0 | ||
| 2013-09-29T23:46 | 5685 | 513 | 165 | 6.0 | ||
| 2013-09-29T23:46 | 5766 | 507 | -3.5 | -28.9 | ||
| 2013-09-29T23:46 | 5810 | 505 | -3.8 | -30.0 | ||
| 2013-09-29T23:46 | 5828 | 503 | -3.9 | -27.5 | ||
| 2013-09-29T23:47 | 5890 | 499 | -4.5 | -30.6 | ||
| 2013-09-29T23:47 | 6052 | 489 | 172 | 7.0 | ||
| 2013-09-29T23:47 | 6094 | 487 | -6.0 | -32.8 | ||
| 2013-09-29T23:47 | 6135 | 484 | -6.4 | -25.7 | ||
| 2013-09-29T23:47 | 6165 | 482 | -6.5 | -22.4 | ||
| 2013-09-29T23:48 | 6335 | 472 | -7.6 | -33.1 | ||
| 2013-09-29T23:48 | 6397 | 468 | -8.0 | -27.1 | ||
| 2013-09-29T23:48 | 6416 | 467 | 161 | 8.0 | ||
| 2013-09-29T23:48 | 6499 | 462 | -8.8 | -27.2 | ||
| 2013-09-29T23:49 | 6642 | 453 | -9.7 | -23.0 | ||
| 2013-09-29T23:49 | 6662 | 452 | -9.7 | -20.5 | ||
| 2013-09-29T23:49 | 6745 | 447 | -9.8 | -24.5 | ||
| 2013-09-29T23:49 | 6802 | 444 | 141 | 7.0 | ||
| 2013-09-29T23:50 | 7014 | 432 | -12.0 | -27.6 | ||
| 2013-09-29T23:50 | 7041 | 431 | 131 | 9.0 | ||
| 2013-09-29T23:50 | 7146 | 425 | 132 | 8.0 | ||
| 2013-09-29T23:50 | 7152 | 424 | -12.1 | -39.8 | ||
| 2013-09-29T23:50 | 7296 | 416 | -12.9 | -43.1 | ||
| 2013-09-29T23:51 | 7494 | 406 | -13.8 | -50.0 | ||
| 2013-09-29T23:51 | 7506 | 405 | 145 | 7.0 | ||
| 2013-09-29T23:52 | 7872 | 386 | 165 | 6.0 | ||
| 2013-09-29T23:52 | 7891 | 385 | -16.4 | -55.3 | ||
| 2013-09-29T23:53 | 8263 | 366 | 171 | 6.0 | ||
| 2013-09-29T23:54 | 8469 | 356 | -20.6 | -58.2 | ||
| 2013-09-29T23:54 | 8593 | 350 | -21.2 | -46.9 | ||
| 2013-09-29T23:54 | 8652 | 348 | 170 | 6.0 | ||
| 2013-09-29T23:54 | 8672 | 347 | -21.6 | -35.6 | ||
| 2013-09-29T23:55 | 9048 | 329 | 187 | 7.0 | ||
| 2013-09-29T23:55 | 9093 | 327 | -25.0 | -39.8 | ||
| 2013-09-29T23:56 | 9448 | 312 | 176 | 7.0 | ||
| 2013-09-29T23:56 | 9529 | 308 | -27.8 | -47.8 | ||
| 2013-09-29T23:57 | 9842 | 295 | 188 | 5.0 | ||
| 2013-09-29T23:57 | 9855 | 294 | -30.6 | -47.8 | ||
| 2013-09-29T23:58 | 10244 | 278 | 206 | 6.0 | ||
| 2013-09-29T23:59 | 10641 | 263 | 205 | 8.0 | ||
| 2013-09-30T00:00 | 10973 | 251 | -40.0 | -56.8 | ||
| 2013-09-30T00:00 | 11042 | 248 | 204 | 9.0 | ||
| 2013-09-30T00:01 | 11476 | 233 | 202 | 7.0 | ||
| 2013-09-30T00:01 | 11587 | 229 | -44.8 | |||
| 2013-09-30T00:02 | 11902 | 218 | 194 | 5.0 | ||
| 2013-09-30T00:03 | 12346 | 204 | 136 | 9.0 | ||
| 2013-09-30T00:03 | 12437 | 201 | -51.8 | |||
| 2013-09-30T00:04 | 12625 | 195 | 133 | 12.0 | ||
| 2013-09-30T00:04 | 12743 | 192 | 133 | 11.0 | ||
| 2013-09-30T00:05 | 13149 | 180 | 117 | 10.0 | ||
| 2013-09-30T00:06 | 13531 | 169 | 113 | 11.0 | ||
| 2013-09-30T00:07 | 13930 | 159 | 118 | 11.0 | ||
| 2013-09-30T00:08 | 14254 | 150 | 113 | 12.0 | ||
| 2013-09-30T00:08 | 14330 | 148 | 112 | 12.0 | ||
| 2013-09-30T00:08 | 14414 | 146 | -69.5 | |||
| 2013-09-30T00:09 | 14746 | 138 | 116 | 9.0 | ||
| 2013-09-30T00:10 | 15189 | 128 | 161 | 6.0 | ||
| 2013-09-30T00:10 | 15294 | 126 | -75.5 | |||
| 2013-09-30T00:11 | 15603 | 119 | 67 | 8.0 | ||
| 2013-09-30T00:12 | 15990 | 112 | -78.2 | |||
| 2013-09-30T00:12 | 16037 | 111 | 75 | 11.0 | ||
| 2013-09-30T00:13 | 16369 | 104 | -78.0 | |||
| 2013-09-30T00:13 | 16508 | 102 | 92 | 14.0 | ||
| 2013-09-30T00:13 | 16615 | 100 | -76.8 | 94 | 13.0 | |
| 2013-09-30T00:14 | 16778 | 97 | -76.2 | |||
| 2013-09-30T00:14 | 16955 | 94 | 81 | 14.0 | ||
| 2013-09-30T00:15 | 17198 | 90 | -75.5 | |||
| 2013-09-30T00:15 | 17390 | 88 | 84 | 14.0 | ||
| 2013-09-30T00:16 | 17697 | 83 | -76.2 | |||
| 2013-09-30T00:16 | 17786 | 82 | 85 | 13.0 | ||
| 2013-09-30T00:17 | 18199 | 76 | 71 | 16.0 | ||
| 2013-09-30T00:18 | 18426 | 73 | 90 | 17.0 | ||
| 2013-09-30T00:18 | 18433 | 73 | 90 | 17.0 | ||
| 2013-09-30T00:18 | 18440 | 73 | 90 | 17.0 | ||
| 2013-09-30T00:18 | 18523 | 72 | -71.5 | |||
| 2013-09-30T00:18 | 18608 | 71 | 96 | 14.0 | ||
| 2013-09-30T00:19 | 18834 | 68 | -70.5 | |||
| 2013-09-30T00:19 | 19028 | 66 | 85 | 13.0 | ||
| 2013-09-30T00:20 | 19411 | 62 | -67.0 | |||
| 2013-09-30T00:20 | 19447 | 62 | 96 | 16.0 | ||
| 2013-09-30T00:21 | 19875 | 57 | 85 | 14.0 | ||
| 2013-09-30T00:21 | 19912 | 57 | -66.7 | |||
| 2013-09-30T00:22 | 20107 | 55 | -66.6 | |||
| 2013-09-30T00:22 | 20305 | 54 | 102 | 16.0 | ||
| 2013-09-30T00:22 | 20388 | 53 | -66.5 | |||
| 2013-09-30T00:23 | 20574 | 51 | -65.7 | |||
| 2013-09-30T00:23 | 20734 | 50 | 101 | 11.0 | ||
| 2013-09-30T00:24 | 21002 | 48 | -65.5 | |||
| 2013-09-30T00:24 | 21175 | 46 | 104 | 12.0 | ||
| 2013-09-30T00:25 | 21621 | 43 | 89 | 15.0 | ||
| 2013-09-30T00:25 | 21815 | 42 | -62.2 | |||
| 2013-09-30T00:26 | 22052 | 40 | 93 | 11.0 | ||
| 2013-09-30T00:26 | 22232 | 39 | -60.7 | |||
| 2013-09-30T00:27 | 22484 | 38 | 71 | 16.0 | ||
| 2013-09-30T00:28 | 22923 | 35 | 84 | 17.0 | ||
| 2013-09-30T00:29 | 23221 | 33 | -60.7 | |||
| 2013-09-30T00:29 | 23306 | 33 | 92 | 20.0 | ||
| 2013-09-30T00:29 | 23336 | 33 | 93 | 20.0 | ||
| 2013-09-30T00:29 | 23381 | 32 | 93 | 20.0 | ||
| 2013-09-30T00:30 | 23833 | 30 | 91 | 16.0 | ||
| 2013-09-30T00:31 | 24276 | 28 | -58.8 | |||
| 2013-09-30T00:32 | 24754 | 26 | 89 | 15.0 | ||
| 2013-09-30T00:33 | 24999 | 25 | -57.0 | |||
| 2013-09-30T00:33 | 25229 | 24 | 103 | 15.0 | ||
| 2013-09-30T00:33 | 25354 | 24 | -54.0 | |||
| 2013-09-30T00:34 | 25687 | 23 | 84 | 12.0 | ||
| 2013-09-30T00:34 | 25866 | 22 | -50.7 | |||
| 2013-09-30T00:35 | 26159 | 21 | 65 | 14.0 | ||
| 2013-09-30T00:36 | 26644 | 20 | 83 | 16.0 | ||
| 2013-09-30T00:37 | 27138 | 18 | 90 | 18.0 | ||
| 2013-09-30T00:37 | 27192 | 18 | -49.4 | |||
| 2013-09-30T00:38 | 27625 | 17 | 87 | 20.0 | ||
| 2013-09-30T00:39 | 27960 | 16 | -49.2 | 33 | 25.0 | |
| 2013-09-30T11:30 | 9 | 1011 | 27.5 | 25.1 | 80 | 4.0 |
| 2013-09-30T11:30 | 63 | 1005 | 26.9 | 24.2 | ||
| 2013-09-30T11:31 | 188 | 991 | 26.4 | 23.3 | ||
| 2013-09-30T11:31 | 338 | 975 | 82 | 4.0 | ||
| 2013-09-30T11:31 | 453 | 962 | 24.7 | 21.8 | ||
| 2013-09-30T11:32 | 606 | 945 | 23.6 | 20.5 | ||
| 2013-09-30T11:32 | 698 | 935 | 22.8 | 20.7 | 76 | 5.0 |
| 2013-09-30T11:33 | 996 | 904 | 21.1 | 19.6 | ||
| 2013-09-30T11:33 | 1057 | 898 | 80 | 6.0 | ||
| 2013-09-30T11:34 | 1362 | 867 | 73 | 7.0 | ||
| 2013-09-30T11:35 | 1691 | 834 | 67 | 7.0 | ||
| 2013-09-30T11:35 | 1702 | 833 | 17.9 | 16.4 | ||
| 2013-09-30T11:36 | 2023 | 802 | 77 | 8.0 | ||
| 2013-09-30T11:37 | 2363 | 771 | 86 | 8.0 | ||
| 2013-09-30T11:37 | 2380 | 769 | 14.4 | 13.3 | ||
| 2013-09-30T11:38 | 2717 | 739 | 107 | 8.0 | ||
| 2013-09-30T11:38 | 2821 | 730 | 12.0 | 10.7 | ||
| 2013-09-30T11:39 | 2977 | 717 | 11.4 | 10.3 | ||
| 2013-09-30T11:39 | 3080 | 708 | 122 | 8.0 | ||
| 2013-09-30T11:40 | 3362 | 684 | 9.4 | 7.7 | ||
| 2013-09-30T11:40 | 3410 | 680 | 9.0 | 7.0 | ||
| 2013-09-30T11:40 | 3434 | 678 | 8.9 | 8.0 | ||
| 2013-09-30T11:40 | 3469 | 676 | 8.8 | 6.8 | ||
| 2013-09-30T11:40 | 3538 | 670 | 8.2 | 6.8 | ||
| 2013-09-30T11:40 | 3594 | 665 | 7.8 | 7.4 | ||
| 2013-09-30T11:41 | 3632 | 662 | 7.5 | 7.2 | ||
| 2013-09-30T11:41 | 3714 | 656 | 110 | 9.0 | ||
| 2013-09-30T11:41 | 3739 | 654 | 6.9 | 6.5 | ||
| 2013-09-30T11:41 | 3763 | 652 | 111 | 9.0 | ||
| 2013-09-30T11:41 | 3832 | 646 | 6.3 | 5.4 | ||
| 2013-09-30T11:41 | 3858 | 644 | 6.1 | 6.1 | ||
| 2013-09-30T11:41 | 3888 | 642 | 5.9 | 3.7 | ||
| 2013-09-30T11:42 | 3945 | 638 | 6.4 | 3.9 | ||
| 2013-09-30T11:42 | 4071 | 628 | 107 | 7.0 | ||
| 2013-09-30T11:42 | 4121 | 624 | 5.2 | 3.4 | ||
| 2013-09-30T11:42 | 4165 | 621 | 5.3 | 2.0 | ||
| 2013-09-30T11:43 | 4238 | 615 | 4.9 | 2.3 | ||
| 2013-09-30T11:43 | 4284 | 612 | 5.0 | -1.5 | ||
| 2013-09-30T11:43 | 4371 | 605 | 4.8 | -5.6 | ||
| 2013-09-30T11:43 | 4416 | 602 | 4.6 | -10.3 | 98 | 6.0 |
| 2013-09-30T11:43 | 4433 | 601 | 4.5 | -6.1 | ||
| 2013-09-30T11:43 | 4484 | 597 | 4.2 | -6.4 | ||
| 2013-09-30T11:43 | 4552 | 592 | 3.9 | -10.9 | ||
| 2013-09-30T11:44 | 4580 | 590 | 3.7 | -9.3 | ||
| 2013-09-30T11:44 | 4670 | 583 | 3.1 | -12.4 | ||
| 2013-09-30T11:44 | 4705 | 581 | 3.0 | -9.9 | ||
| 2013-09-30T11:44 | 4723 | 580 | 3.0 | -19.0 | ||
| 2013-09-30T11:44 | 4752 | 577 | 3.1 | -21.9 | 91 | 6.0 |
| 2013-09-30T11:44 | 4846 | 571 | 2.6 | -20.0 | ||
| 2013-09-30T11:44 | 4876 | 569 | 2.4 | -21.6 | ||
| 2013-09-30T11:44 | 4894 | 567 | 2.2 | -16.8 | ||
| 2013-09-30T11:45 | 4948 | 564 | 2.0 | -26.5 | ||
| 2013-09-30T11:45 | 5066 | 555 | 1.2 | -12.2 | ||
| 2013-09-30T11:45 | 5106 | 553 | 98 | 6.0 | ||
| 2013-09-30T11:45 | 5112 | 552 | 0.9 | -14.0 | ||
| 2013-09-30T11:45 | 5215 | 545 | 0.2 | -15.8 | ||
| 2013-09-30T11:45 | 5270 | 541 | -0.3 | -13.9 | ||
| 2013-09-30T11:46 | 5319 | 538 | -0.7 | -12.9 | ||
| 2013-09-30T11:46 | 5351 | 536 | -0.7 | -12.9 | ||
| 2013-09-30T11:46 | 5402 | 533 | -0.5 | -16.0 | ||
| 2013-09-30T11:46 | 5419 | 532 | -0.5 | -22.0 | ||
| 2013-09-30T11:46 | 5430 | 531 | -0.6 | -20.3 | ||
| 2013-09-30T11:46 | 5441 | 530 | -0.7 | -16.1 | 92 | 6.0 |
| 2013-09-30T11:46 | 5458 | 529 | -0.8 | -21.6 | ||
| 2013-09-30T11:46 | 5470 | 528 | -0.9 | -20.0 | ||
| 2013-09-30T11:46 | 5493 | 527 | -1.1 | -21.8 | ||
| 2013-09-30T11:46 | 5504 | 526 | -1.2 | -13.4 | ||
| 2013-09-30T11:46 | 5606 | 519 | -2.1 | -13.0 | ||
| 2013-09-30T11:47 | 5625 | 518 | -2.2 | -14.3 | ||
| 2013-09-30T11:47 | 5644 | 517 | -2.4 | -18.5 | ||
| 2013-09-30T11:47 | 5664 | 515 | -2.5 | -16.6 | ||
| 2013-09-30T11:47 | 5696 | 513 | -2.8 | -14.2 | ||
| 2013-09-30T11:47 | 5709 | 512 | -2.9 | -18.1 | ||
| 2013-09-30T11:47 | 5735 | 511 | -3.1 | -12.6 | ||
| 2013-09-30T11:47 | 5762 | 509 | -3.4 | -13.9 | ||
| 2013-09-30T11:47 | 5795 | 507 | -3.6 | -13.0 | ||
| 2013-09-30T11:47 | 5815 | 506 | 97 | 6.0 | ||
| 2013-09-30T11:47 | 5822 | 505 | -3.8 | -12.5 | ||
| 2013-09-30T11:47 | 5849 | 503 | -3.9 | -19.3 | ||
| 2013-09-30T11:47 | 5890 | 501 | -4.2 | -14.9 | ||
| 2013-09-30T11:47 | 5931 | 498 | -4.3 | -21.9 | ||
| 2013-09-30T11:48 | 6051 | 491 | -5.1 | -17.2 | ||
| 2013-09-30T11:48 | 6109 | 487 | -5.7 | -16.3 | ||
| 2013-09-30T11:48 | 6243 | 479 | 113 | 4.0 | ||
| 2013-09-30T11:48 | 6265 | 478 | -7.1 | -14.6 | ||
| 2013-09-30T11:48 | 6280 | 477 | -7.2 | -12.7 | ||
| 2013-09-30T11:49 | 6482 | 464 | -8.6 | -12.7 | ||
| 2013-09-30T11:49 | 6573 | 459 | -8.3 | -14.9 | ||
| 2013-09-30T11:49 | 6624 | 456 | -8.6 | -14.8 | ||
| 2013-09-30T11:49 | 6649 | 455 | 151 | 4.0 | ||
| 2013-09-30T11:49 | 6693 | 452 | -9.0 | -16.6 | ||
| 2013-09-30T11:49 | 6769 | 448 | -9.5 | -15.4 | ||
| 2013-09-30T11:49 | 6794 | 446 | -9.7 | -19.7 | ||
| 2013-09-30T11:49 | 6831 | 444 | -9.9 | -22.5 | ||
| 2013-09-30T11:50 | 6886 | 441 | -10.3 | -24.2 | ||
| 2013-09-30T11:50 | 6903 | 440 | -10.3 | -30.7 | ||
| 2013-09-30T11:50 | 7010 | 434 | 179 | 6.0 | ||
| 2013-09-30T11:51 | 7188 | 424 | -12.0 | -34.9 | ||
| 2013-09-30T11:51 | 7205 | 423 | -12.2 | -30.6 | ||
| 2013-09-30T11:51 | 7222 | 422 | -12.3 | -28.3 | ||
| 2013-09-30T11:51 | 7245 | 421 | -12.5 | -28.5 | ||
| 2013-09-30T11:51 | 7279 | 419 | -12.8 | -31.7 | ||
| 2013-09-30T11:51 | 7313 | 417 | -13.1 | -25.0 | ||
| 2013-09-30T11:51 | 7353 | 415 | 175 | 5.0 | ||
| 2013-09-30T11:51 | 7381 | 413 | -13.7 | -25.6 | ||
| 2013-09-30T11:51 | 7448 | 410 | -14.3 | -26.4 | ||
| 2013-09-30T11:51 | 7465 | 409 | -14.4 | -28.9 | ||
| 2013-09-30T11:51 | 7476 | 408 | -14.4 | -27.2 | ||
| 2013-09-30T11:51 | 7499 | 407 | -14.5 | -31.6 | ||
| 2013-09-30T11:52 | 7523 | 406 | -14.5 | -18.9 | ||
| 2013-09-30T11:52 | 7535 | 405 | -14.6 | -18.2 | ||
| 2013-09-30T11:52 | 7666 | 398 | -15.2 | -16.6 | ||
| 2013-09-30T11:52 | 7723 | 395 | 140 | 6.0 | ||
| 2013-09-30T11:53 | 8066 | 378 | -17.7 | -19.5 | ||
| 2013-09-30T11:53 | 8136 | 374 | 151 | 6.0 | ||
| 2013-09-30T11:54 | 8471 | 358 | -20.5 | -22.1 | ||
| 2013-09-30T11:54 | 8516 | 355 | 161 | 5.0 | ||
| 2013-09-30T11:54 | 8543 | 354 | -20.7 | -23.0 | ||
| 2013-09-30T11:54 | 8570 | 353 | -20.9 | -23.7 | ||
| 2013-09-30T11:54 | 8650 | 349 | -21.5 | -26.7 | ||
| 2013-09-30T11:54 | 8712 | 346 | -21.9 | -32.1 | ||
| 2013-09-30T11:55 | 8894 | 338 | -23.0 | -35.8 | ||
| 2013-09-30T11:55 | 8929 | 336 | 182 | 4.0 | ||
| 2013-09-30T11:56 | 9153 | 326 | -25.3 | -36.9 | ||
| 2013-09-30T11:56 | 9330 | 318 | -26.3 | -39.8 | 187 | 4.0 |
| 2013-09-30T11:57 | 9603 | 306 | -28.6 | -43.3 | ||
| 2013-09-30T11:57 | 9662 | 304 | -29.1 | -40.0 | ||
| 2013-09-30T11:57 | 9691 | 302 | -29.4 | -37.4 | ||
| 2013-09-30T11:57 | 9756 | 300 | -30.0 | -40.3 | 157 | 4.0 |
| 2013-09-30T11:57 | 9798 | 298 | -30.3 | -43.3 | ||
| 2013-09-30T11:58 | 9993 | 290 | -31.9 | -42.3 | ||
| 2013-09-30T11:58 | 10156 | 283 | 164 | 5.0 | ||
| 2013-09-30T11:59 | 10461 | 271 | -35.4 | -47.2 | ||
| 2013-09-30T11:59 | 10548 | 268 | 219 | 4.0 | ||
| 2013-09-30T12:00 | 10968 | 252 | 256 | 5.0 | ||
| 2013-09-30T12:00 | 11105 | 247 | -40.0 | -54.0 | ||
| 2013-09-30T12:01 | 11375 | 237 | 254 | 4.0 | ||
| 2013-09-30T12:02 | 11796 | 223 | 241 | 6.0 | ||
| 2013-09-30T12:02 | 11996 | 216 | -47.5 | |||
| 2013-09-30T12:03 | 12203 | 210 | 236 | 8.0 | ||
| 2013-09-30T12:04 | 12610 | 197 | 232 | 7.0 | ||
| 2013-09-30T12:05 | 13007 | 185 | 223 | 8.0 | ||
| 2013-09-30T12:06 | 13413 | 173 | 197 | 6.0 | ||
| 2013-09-30T12:07 | 13689 | 166 | -61.6 | |||
| 2013-09-30T12:07 | 13832 | 162 | 161 | 5.0 | ||
| 2013-09-30T12:08 | 14230 | 152 | 166 | 5.0 | ||
| 2013-09-30T12:09 | 14609 | 143 | -69.7 | |||
| 2013-09-30T12:09 | 14622 | 142 | 188 | 3.0 | ||
| 2013-09-30T12:10 | 15008 | 133 | 257 | 1.0 | ||
| 2013-09-30T12:10 | 15076 | 132 | 355 | 1.0 | ||
| 2013-09-30T12:11 | 15442 | 124 | -74.9 | 86 | 6.0 | |
| 2013-09-30T12:12 | 15896 | 114 | 93 | 10.0 | ||
| 2013-09-30T12:13 | 16332 | 106 | 87 | 11.0 | ||
| 2013-09-30T12:13 | 16521 | 103 | -77.5 | |||
| 2013-09-30T12:14 | 16669 | 100 | -77.2 | 88 | 8.0 | |
| 2013-09-30T12:14 | 16768 | 98 | 79 | 8.0 | ||
| 2013-09-30T12:15 | 17000 | 94 | -77.6 | |||
| 2013-09-30T12:15 | 17181 | 91 | 84 | 13.0 | ||
| 2013-09-30T12:16 | 17558 | 86 | 76 | 13.0 | ||
| 2013-09-30T12:16 | 17738 | 83 | -72.9 | |||
| 2013-09-30T12:17 | 17830 | 82 | 78 | 17.0 | ||
| 2013-09-30T12:17 | 17837 | 82 | 79 | 17.0 | ||
| 2013-09-30T12:17 | 17844 | 82 | 79 | 17.0 | ||
| 2013-09-30T12:17 | 17851 | 82 | 80 | 17.0 | ||
| 2013-09-30T12:17 | 17952 | 80 | 90 | 16.0 | ||
| 2013-09-30T12:17 | 18034 | 79 | -70.3 | |||
| 2013-09-30T12:18 | 18390 | 74 | 115 | 11.0 | ||
| 2013-09-30T12:18 | 18487 | 73 | -68.2 | |||
| 2013-09-30T12:19 | 18613 | 72 | -67.1 | |||
| 2013-09-30T12:19 | 18793 | 70 | 132 | 9.0 | ||
| 2013-09-30T12:20 | 19088 | 66 | -69.3 | |||
| 2013-09-30T12:20 | 19175 | 65 | 108 | 9.0 | ||
| 2013-09-30T12:21 | 19373 | 63 | -67.9 | |||
| 2013-09-30T12:21 | 19567 | 61 | 110 | 13.0 | ||
| 2013-09-30T12:22 | 19973 | 57 | 91 | 13.0 | ||
| 2013-09-30T12:22 | 20022 | 57 | -67.8 | |||
| 2013-09-30T12:23 | 20250 | 55 | -66.9 | |||
| 2013-09-30T12:23 | 20389 | 53 | 102 | 11.0 | ||
| 2013-09-30T12:24 | 20700 | 51 | -66.9 | |||
| 2013-09-30T12:24 | 20802 | 50 | 102 | 15.0 | ||
| 2013-09-30T12:25 | 21220 | 47 | 97 | 13.0 | ||
| 2013-09-30T12:26 | 21650 | 43 | 75 | 15.0 | ||
| 2013-09-30T12:26 | 21658 | 43 | -65.6 | |||
| 2013-09-30T12:27 | 22090 | 40 | 85 | 18.0 | ||
| 2013-09-30T12:27 | 22142 | 40 | 88 | 18.0 | ||
| 2013-09-30T12:27 | 22186 | 40 | 89 | 18.0 | ||
| 2013-09-30T12:27 | 22287 | 39 | 92 | 18.0 | ||
| 2013-09-30T12:28 | 22309 | 39 | 93 | 18.0 | ||
| 2013-09-30T12:28 | 22323 | 39 | 93 | 18.0 | ||
| 2013-09-30T12:28 | 22366 | 39 | -59.5 | |||
| 2013-09-30T12:28 | 22520 | 38 | 98 | 17.0 | ||
| 2013-09-30T12:29 | 22896 | 36 | -56.3 | |||
| 2013-09-30T12:29 | 22930 | 35 | 94 | 14.0 | ||
| 2013-09-30T12:30 | 23357 | 33 | 104 | 9.0 | ||
| 2013-09-30T12:31 | 23661 | 32 | -55.0 | |||
| 2013-09-30T12:31 | 23824 | 31 | 45 | 10.0 | ||
| 2013-09-30T12:32 | 24286 | 29 | 75 | 7.0 | ||
| 2013-09-30T12:32 | 24361 | 28 | -55.6 | |||
| 2013-09-30T12:33 | 24741 | 27 | 56 | 12.0 | ||
| 2013-09-30T12:34 | 25199 | 25 | 67 | 16.0 | ||
| 2013-09-30T12:35 | 25649 | 23 | 72 | 14.0 | ||
| 2013-09-30T12:36 | 26107 | 21 | 74 | 14.0 | ||
| 2013-09-30T12:37 | 26588 | 20 | -54.7 | 87 | 17.0 | |
| 2013-09-30T12:38 | 26905 | 19 | -51.3 | |||
| 2013-09-30T12:38 | 27092 | 18 | 89 | 18.0 | ||
| 2013-09-30T12:38 | 27320 | 18 | 85 | 19.0 | ||
| 2013-09-30T12:39 | 27594 | 17 | 83 | 18.0 | ||
| 2013-09-30T12:39 | 27685 | 17 | -49.2 | |||
| 2013-09-30T12:40 | 28094 | 16 | 76 | 17.0 | ||
| 2013-09-30T12:41 | 28592 | 15 | 66 | 18.0 | ||
| 2013-09-30T12:42 | 29096 | 14 | 70 | 21.0 | ||
| 2013-09-30T12:42 | 29341 | 13 | 70 | 23.0 | ||
| 2013-09-30T12:43 | 29462 | 13 | -43.2 | |||
| 2013-09-30T12:43 | 29616 | 13 | 72 | 22.0 | ||
| 2013-09-30T12:44 | 30128 | 12 | 80 | 18.0 | ||
| 2013-09-30T12:45 | 30605 | 11 | 86 | 14.0 | ||
| 2013-09-30T12:46 | 31041 | 10 | -40.3 | |||
| 2013-09-30T12:46 | 31083 | 10 | 85 | 13.0 | ||
| 2013-09-30T12:47 | 31610 | 9 | 107 | 12.0 | ||
| 2013-09-30T12:47 | 31808 | 9 | -42.5 | |||
| 2013-09-30T12:48 | 32137 | 9 | 99 | 12.0 | ||
| 2013-09-30T12:48 | 32342 | 8 | -40.9 | |||
| 2013-09-30T12:49 | 32671 | 8 | 69 | 12.0 | ||
| 2013-09-30T12:50 | 32996 | 8 | -38.0 | |||
| 2013-09-30T12:50 | 33199 | 7 | 62 | 14.0 | ||
| 2013-09-30T12:50 | 33354 | 7 | -39.4 | 14 | 9.0 | |
| 2013-09-30T23:30 | 9 | 1011 | 29.5 | 26.1 | 100 | 11.0 |
| 2013-09-30T23:30 | 20 | 1010 | 28.5 | 23.6 | ||
| 2013-09-30T23:31 | 339 | 974 | 107 | 13.0 | ||
| 2013-09-30T23:31 | 437 | 963 | 25.1 | 22.2 | ||
| 2013-09-30T23:32 | 614 | 944 | 105 | 14.0 | ||
| 2013-09-30T23:32 | 666 | 938 | 23.7 | 20.6 | ||
| 2013-09-30T23:32 | 695 | 935 | 104 | 14.0 | ||
| 2013-09-30T23:33 | 932 | 910 | 22.3 | 19.7 | ||
| 2013-09-30T23:33 | 1062 | 897 | 104 | 13.0 | ||
| 2013-09-30T23:34 | 1254 | 878 | 20.6 | 18.2 | ||
| 2013-09-30T23:34 | 1439 | 859 | 103 | 13.0 | ||
| 2013-09-30T23:35 | 1757 | 828 | 18.2 | 14.5 | ||
| 2013-09-30T23:35 | 1828 | 821 | 105 | 12.0 | ||
| 2013-09-30T23:35 | 1873 | 816 | 17.6 | 14.7 | ||
| 2013-09-30T23:35 | 1912 | 813 | 17.5 | 13.8 | ||
| 2013-09-30T23:35 | 1931 | 811 | 17.4 | 14.9 | ||
| 2013-09-30T23:36 | 2022 | 802 | 16.8 | 14.3 | ||
| 2013-09-30T23:36 | 2061 | 799 | 16.6 | 14.4 | ||
| 2013-09-30T23:36 | 2215 | 784 | 106 | 11.0 | ||
| 2013-09-30T23:36 | 2292 | 777 | 15.6 | 13.6 | ||
| 2013-09-30T23:36 | 2349 | 772 | 15.4 | 13.2 | ||
| 2013-09-30T23:36 | 2368 | 770 | 15.2 | 12.2 | ||
| 2013-09-30T23:37 | 2496 | 759 | 14.8 | 11.0 | ||
| 2013-09-30T23:37 | 2580 | 751 | 14.3 | 11.1 | ||
| 2013-09-30T23:37 | 2600 | 750 | 103 | 9.0 | ||
| 2013-09-30T23:37 | 2606 | 749 | 14.3 | 8.7 | ||
| 2013-09-30T23:37 | 2651 | 745 | 14.1 | 9.3 | ||
| 2013-09-30T23:37 | 2759 | 736 | 13.3 | 9.0 | ||
| 2013-09-30T23:38 | 2971 | 717 | 98 | 11.0 | ||
| 2013-09-30T23:38 | 3108 | 706 | 11.2 | 6.1 | ||
| 2013-09-30T23:38 | 3127 | 704 | 11.1 | 5.8 | ||
| 2013-09-30T23:39 | 3359 | 685 | 99 | 11.0 | ||
| 2013-09-30T23:39 | 3443 | 678 | 9.2 | 4.2 | ||
| 2013-09-30T23:39 | 3531 | 671 | 8.7 | 3.1 | ||
| 2013-09-30T23:40 | 3725 | 655 | 7.4 | 2.9 | ||
| 2013-09-30T23:40 | 3749 | 653 | 7.4 | 1.9 | ||
| 2013-09-30T23:40 | 3785 | 650 | 7.3 | 0.5 | ||
| 2013-09-30T23:40 | 3850 | 645 | 7.0 | -0.7 | ||
| 2013-09-30T23:40 | 3862 | 644 | 6.9 | 1.6 | ||
| 2013-09-30T23:40 | 3892 | 642 | 6.8 | 1.3 | ||
| 2013-09-30T23:41 | 3916 | 640 | 6.8 | -0.7 | ||
| 2013-09-30T23:41 | 3946 | 638 | 6.6 | -1.8 | ||
| 2013-09-30T23:41 | 3970 | 636 | 6.4 | 0.7 | ||
| 2013-09-30T23:41 | 3993 | 634 | 6.4 | 0.1 | ||
| 2013-09-30T23:41 | 4011 | 633 | 6.4 | -3.8 | ||
| 2013-09-30T23:41 | 4087 | 627 | 98 | 9.0 | ||
| 2013-09-30T23:41 | 4152 | 622 | 5.6 | -2.2 | ||
| 2013-09-30T23:41 | 4194 | 619 | 5.5 | -3.8 | ||
| 2013-09-30T23:41 | 4212 | 617 | 5.4 | -7.8 | ||
| 2013-09-30T23:42 | 4277 | 612 | 4.9 | -6.3 | ||
| 2013-09-30T23:42 | 4380 | 605 | 4.0 | -4.7 | ||
| 2013-09-30T23:42 | 4392 | 604 | 3.9 | 0.1 | ||
| 2013-09-30T23:42 | 4621 | 587 | 2.6 | -0.5 | ||
| 2013-09-30T23:43 | 4808 | 574 | 1.6 | -1.8 | ||
| 2013-09-30T23:43 | 4833 | 572 | 1.4 | -2.4 | 98 | 8.0 |
| 2013-09-30T23:43 | 4852 | 570 | 1.4 | -1.8 | ||
| 2013-09-30T23:43 | 4993 | 560 | 0.4 | -2.1 | ||
| 2013-09-30T23:44 | 5093 | 554 | 0.0 | -3.0 | ||
| 2013-09-30T23:44 | 5124 | 551 | -0.1 | -4.0 | ||
| 2013-09-30T23:44 | 5208 | 546 | 115 | 8.0 | ||
| 2013-09-30T23:44 | 5247 | 543 | -0.7 | -5.5 | ||
| 2013-09-30T23:44 | 5260 | 542 | -0.7 | -6.5 | ||
| 2013-09-30T23:44 | 5280 | 541 | -0.8 | -6.2 | ||
| 2013-09-30T23:44 | 5326 | 538 | -1.0 | -6.9 | ||
| 2013-09-30T23:44 | 5346 | 536 | -1.1 | -8.1 | ||
| 2013-09-30T23:45 | 5449 | 529 | -1.8 | -6.7 | ||
| 2013-09-30T23:45 | 5503 | 526 | -2.1 | -8.0 | ||
| 2013-09-30T23:45 | 5551 | 523 | -2.5 | -6.9 | ||
| 2013-09-30T23:45 | 5598 | 520 | -2.6 | -6.9 | ||
| 2013-09-30T23:45 | 5611 | 519 | 103 | 7.0 | ||
| 2013-09-30T23:45 | 5624 | 518 | -2.7 | -6.9 | ||
| 2013-09-30T23:45 | 5730 | 511 | -3.2 | -7.5 | ||
| 2013-09-30T23:46 | 5858 | 503 | -3.9 | -8.7 | ||
| 2013-09-30T23:46 | 5920 | 499 | -4.4 | -8.9 | ||
| 2013-09-30T23:46 | 6001 | 494 | -4.7 | -11.5 | 95 | 8.0 |
| 2013-09-30T23:47 | 6208 | 481 | -6.0 | -15.5 | ||
| 2013-09-30T23:47 | 6282 | 476 | -6.6 | -15.6 | ||
| 2013-09-30T23:47 | 6309 | 475 | -6.8 | -12.3 | ||
| 2013-09-30T23:47 | 6378 | 471 | -7.3 | -13.7 | ||
| 2013-09-30T23:47 | 6392 | 470 | 104 | 5.0 | ||
| 2013-09-30T23:47 | 6419 | 468 | -7.6 | -13.8 | ||
| 2013-09-30T23:47 | 6460 | 466 | -7.8 | -13.0 | ||
| 2013-09-30T23:47 | 6473 | 465 | -7.8 | -15.5 | ||
| 2013-09-30T23:47 | 6487 | 464 | -7.8 | -16.2 | ||
| 2013-09-30T23:47 | 6507 | 463 | -7.9 | -16.3 | ||
| 2013-09-30T23:47 | 6527 | 462 | -8.0 | -13.1 | ||
| 2013-09-30T23:47 | 6572 | 459 | -8.1 | -13.1 | ||
| 2013-09-30T23:48 | 6699 | 452 | -8.9 | -15.1 | ||
| 2013-09-30T23:48 | 6777 | 447 | 108 | 3.0 | ||
| 2013-09-30T23:48 | 6864 | 442 | -10.1 | -15.6 | ||
| 2013-09-30T23:49 | 7038 | 432 | -11.1 | -16.8 | ||
| 2013-09-30T23:49 | 7113 | 428 | 131 | 3.0 | ||
| 2013-09-30T23:49 | 7163 | 425 | -12.0 | -20.8 | ||
| 2013-09-30T23:49 | 7207 | 423 | -12.4 | -23.2 | ||
| 2013-09-30T23:50 | 7308 | 417 | -13.3 | -21.3 | ||
| 2013-09-30T23:50 | 7331 | 416 | -13.3 | -20.4 | ||
| 2013-09-30T23:50 | 7391 | 413 | -13.6 | -24.6 | ||
| 2013-09-30T23:50 | 7458 | 409 | 125 | 4.0 | ||
| 2013-09-30T23:50 | 7496 | 407 | -14.3 | -25.8 | ||
| 2013-09-30T23:50 | 7527 | 405 | -14.5 | -29.4 | ||
| 2013-09-30T23:50 | 7552 | 404 | -14.7 | -25.3 | ||
| 2013-09-30T23:50 | 7565 | 403 | -14.7 | -22.8 | ||
| 2013-09-30T23:50 | 7622 | 400 | -15.1 | -26.8 | ||
| 2013-09-30T23:51 | 7686 | 397 | -15.7 | -25.2 | ||
| 2013-09-30T23:51 | 7770 | 392 | -16.3 | -22.7 | ||
| 2013-09-30T23:51 | 7839 | 389 | 118 | 6.0 | ||
| 2013-09-30T23:51 | 7960 | 382 | -17.5 | -29.6 | ||
| 2013-09-30T23:52 | 8209 | 370 | -19.4 | -26.6 | ||
| 2013-09-30T23:52 | 8221 | 369 | 101 | 3.0 | ||
| 2013-09-30T23:52 | 8277 | 367 | -19.9 | -29.5 | ||
| 2013-09-30T23:53 | 8478 | 357 | -21.4 | -29.5 | ||
| 2013-09-30T23:53 | 8514 | 355 | -21.6 | -30.6 | ||
| 2013-09-30T23:53 | 8532 | 354 | -21.6 | -29.5 | ||
| 2013-09-30T23:53 | 8557 | 353 | -21.8 | -32.1 | ||
| 2013-09-30T23:53 | 8588 | 351 | 146 | 2.0 | ||
| 2013-09-30T23:54 | 8965 | 334 | 151 | 3.0 | ||
| 2013-09-30T23:54 | 9043 | 330 | -25.9 | -31.0 | ||
| 2013-09-30T23:54 | 9080 | 329 | -26.1 | -30.6 | ||
| 2013-09-30T23:55 | 9163 | 325 | -26.8 | -31.7 | ||
| 2013-09-30T23:55 | 9273 | 320 | -27.7 | -31.5 | ||
| 2013-09-30T23:55 | 9303 | 319 | -28.0 | -33.2 | 210 | 3.0 |
| 2013-09-30T23:55 | 9322 | 318 | -28.1 | -34.5 | ||
| 2013-09-30T23:55 | 9373 | 315 | -28.5 | -34.4 | ||
| 2013-09-30T23:55 | 9458 | 312 | -29.1 | -34.4 | ||
| 2013-09-30T23:56 | 9517 | 309 | -29.6 | -36.9 | ||
| 2013-09-30T23:56 | 9717 | 301 | 200 | 2.0 | ||
| 2013-09-30T23:56 | 9838 | 296 | -31.8 | -42.7 | ||
| 2013-09-30T23:57 | 10069 | 286 | -33.6 | -43.1 | ||
| 2013-09-30T23:57 | 10144 | 283 | -34.0 | -40.6 | 231 | 2.0 |
| 2013-09-30T23:57 | 10205 | 281 | -34.3 | -40.9 | ||
| 2013-09-30T23:58 | 10445 | 271 | -35.7 | -39.8 | ||
| 2013-09-30T23:58 | 10556 | 267 | 211 | 6.0 | ||
| 2013-09-30T23:58 | 10673 | 262 | -37.2 | -41.4 | ||
| 2013-09-30T23:59 | 10783 | 258 | -38.2 | -43.7 | ||
| 2013-09-30T23:59 | 10918 | 253 | 214 | 9.0 | ||
| 2013-09-30T23:59 | 10960 | 252 | -39.9 | -44.9 |
